<?xml version="1.0" encoding="UTF-8" standalone="no" ?>
<gpx xmlns="http://www.topografix.com/GPX/1/1" xmlns:xsi="http://www.w3.org/2001/XMLSchema-instance" xsi:schemaLocation="http://www.topografix.com/GPX/1/1 http://www.topografix.com/GPX/1/1/gpx.xsd" version="1.1" creator="VisuGPX - https://www.visugpx.com">
  <metadata>
    <name>TCL- Parcours complet</name>
    <desc><![CDATA[Trail de la Cote de Lumière 2025

Parcours complet : 24 kms]]></desc>
  </metadata>
  <trk>
    <name><![CDATA[YG_2025-01-22_09-11-58]]></name>
    <extensions>
      <line xmlns="http://www.topografix.com/GPX/gpx_style/0/2">
        <color>0000FF</color>
        <width>4</width>
      </line>
    </extensions>
    <trkseg>
      <trkpt lat="46.72216" lon="-1.96266">
        <ele>10.4</ele>
        <time>2025-01-22T08:12:21.952Z</time>
      </trkpt>
      <trkpt lat="46.72174" lon="-1.96258">
        <ele>10.9</ele>
        <time>2025-01-22T08:12:22.953Z</time>
      </trkpt>
      <trkpt lat="46.7221" lon="-1.96264">
        <ele>10.5</ele>
        <time>2025-01-22T08:12:23.952Z</time>
      </trkpt>
      <trkpt lat="46.72209" lon="-1.96263">
        <ele>10.5</ele>
        <time>2025-01-22T08:12:24.952Z</time>
      </trkpt>
      <trkpt lat="46.72209" lon="-1.96264">
        <ele>10.5</ele>
        <time>2025-01-22T08:12:25.953Z</time>
      </trkpt>
      <trkpt lat="46.72199" lon="-1.96261">
        <ele>10.6</ele>
        <time>2025-01-22T08:12:26.953Z</time>
      </trkpt>
      <trkpt lat="46.72197" lon="-1.96258">
        <ele>10.7</ele>
        <time>2025-01-22T08:12:27.953Z</time>
      </trkpt>
      <trkpt lat="46.72198" lon="-1.96257">
        <ele>10.7</ele>
        <time>2025-01-22T08:12:28.953Z</time>
      </trkpt>
      <trkpt lat="46.72202" lon="-1.9626">
        <ele>10.7</ele>
        <time>2025-01-22T08:12:30.952Z</time>
      </trkpt>
      <trkpt lat="46.72202" lon="-1.96262">
        <ele>10.6</ele>
        <time>2025-01-22T08:12:31.952Z</time>
      </trkpt>
      <trkpt lat="46.722" lon="-1.96262">
        <ele>10.6</ele>
        <time>2025-01-22T08:12:32.952Z</time>
      </trkpt>
      <trkpt lat="46.72202" lon="-1.96262">
        <ele>10.6</ele>
        <time>2025-01-22T08:12:33.952Z</time>
      </trkpt>
      <trkpt lat="46.72204" lon="-1.96261">
        <ele>10.6</ele>
        <time>2025-01-22T08:12:34.952Z</time>
      </trkpt>
      <trkpt lat="46.72204" lon="-1.96263">
        <ele>10.5</ele>
        <time>2025-01-22T08:12:35.952Z</time>
      </trkpt>
      <trkpt lat="46.72206" lon="-1.96264">
        <ele>10.5</ele>
        <time>2025-01-22T08:12:36.953Z</time>
      </trkpt>
      <trkpt lat="46.72207" lon="-1.96264">
        <ele>10.5</ele>
        <time>2025-01-22T08:12:37.953Z</time>
      </trkpt>
      <trkpt lat="46.72208" lon="-1.96265">
        <ele>10.4</ele>
        <time>2025-01-22T08:12:38.953Z</time>
      </trkpt>
      <trkpt lat="46.7221" lon="-1.96268">
        <ele>10.4</ele>
        <time>2025-01-22T08:12:39.953Z</time>
      </trkpt>
      <trkpt lat="46.7221" lon="-1.9627">
        <ele>10.3</ele>
        <time>2025-01-22T08:12:40.953Z</time>
      </trkpt>
      <trkpt lat="46.72211" lon="-1.9627">
        <ele>10.3</ele>
        <time>2025-01-22T08:12:41.952Z</time>
      </trkpt>
      <trkpt lat="46.72211" lon="-1.9627">
        <ele>10.3</ele>
        <time>2025-01-22T08:12:42.952Z</time>
      </trkpt>
      <trkpt lat="46.72212" lon="-1.9627">
        <ele>10.3</ele>
        <time>2025-01-22T08:12:43.952Z</time>
      </trkpt>
      <trkpt lat="46.72213" lon="-1.9627">
        <ele>10.3</ele>
        <time>2025-01-22T08:12:44.952Z</time>
      </trkpt>
      <trkpt lat="46.72215" lon="-1.9627">
        <ele>10.3</ele>
        <time>2025-01-22T08:12:45.953Z</time>
      </trkpt>
      <trkpt lat="46.72216" lon="-1.9627">
        <ele>10.3</ele>
        <time>2025-01-22T08:12:46.952Z</time>
      </trkpt>
      <trkpt lat="46.72217" lon="-1.9627">
        <ele>10.3</ele>
        <time>2025-01-22T08:12:47.953Z</time>
      </trkpt>
      <trkpt lat="46.72217" lon="-1.96271">
        <ele>10.3</ele>
        <time>2025-01-22T08:12:48.952Z</time>
      </trkpt>
      <trkpt lat="46.72217" lon="-1.96272">
        <ele>10.2</ele>
        <time>2025-01-22T08:12:49.953Z</time>
      </trkpt>
      <trkpt lat="46.72217" lon="-1.96273">
        <ele>10.2</ele>
        <time>2025-01-22T08:12:50.953Z</time>
      </trkpt>
      <trkpt lat="46.72217" lon="-1.96275">
        <ele>10.1</ele>
        <time>2025-01-22T08:12:51.952Z</time>
      </trkpt>
      <trkpt lat="46.72218" lon="-1.96276">
        <ele>10.1</ele>
        <time>2025-01-22T08:12:52.953Z</time>
      </trkpt>
      <trkpt lat="46.72219" lon="-1.96278">
        <ele>10</ele>
        <time>2025-01-22T08:12:53.953Z</time>
      </trkpt>
      <trkpt lat="46.72221" lon="-1.9628">
        <ele>10</ele>
        <time>2025-01-22T08:12:54.953Z</time>
      </trkpt>
      <trkpt lat="46.72222" lon="-1.96282">
        <ele>10</ele>
        <time>2025-01-22T08:12:55.953Z</time>
      </trkpt>
      <trkpt lat="46.72222" lon="-1.96284">
        <ele>10</ele>
        <time>2025-01-22T08:12:56.953Z</time>
      </trkpt>
      <trkpt lat="46.72221" lon="-1.96285">
        <ele>10</ele>
        <time>2025-01-22T08:12:57.953Z</time>
      </trkpt>
      <trkpt lat="46.7222" lon="-1.96288">
        <ele>10</ele>
        <time>2025-01-22T08:12:58.952Z</time>
      </trkpt>
      <trkpt lat="46.72219" lon="-1.96291">
        <ele>10</ele>
        <time>2025-01-22T08:12:59.952Z</time>
      </trkpt>
      <trkpt lat="46.72218" lon="-1.96294">
        <ele>10</ele>
        <time>2025-01-22T08:13:00.952Z</time>
      </trkpt>
      <trkpt lat="46.72218" lon="-1.96296">
        <ele>10</ele>
        <time>2025-01-22T08:13:01.952Z</time>
      </trkpt>
      <trkpt lat="46.72219" lon="-1.96297">
        <ele>10</ele>
        <time>2025-01-22T08:13:02.953Z</time>
      </trkpt>
      <trkpt lat="46.72219" lon="-1.96297">
        <ele>10</ele>
        <time>2025-01-22T08:13:03.953Z</time>
      </trkpt>
      <trkpt lat="46.72228" lon="-1.96294">
        <ele>9.8</ele>
        <time>2025-01-22T08:13:04.952Z</time>
      </trkpt>
      <trkpt lat="46.72229" lon="-1.96293">
        <ele>9.7</ele>
        <time>2025-01-22T08:13:05.953Z</time>
      </trkpt>
      <trkpt lat="46.72231" lon="-1.96291">
        <ele>9.7</ele>
        <time>2025-01-22T08:13:06.953Z</time>
      </trkpt>
      <trkpt lat="46.72233" lon="-1.96289">
        <ele>9.6</ele>
        <time>2025-01-22T08:13:07.953Z</time>
      </trkpt>
      <trkpt lat="46.7224" lon="-1.96283">
        <ele>9.3</ele>
        <time>2025-01-22T08:13:08.953Z</time>
      </trkpt>
      <trkpt lat="46.72243" lon="-1.96278">
        <ele>9.2</ele>
        <time>2025-01-22T08:13:09.952Z</time>
      </trkpt>
      <trkpt lat="46.72247" lon="-1.96274">
        <ele>9.1</ele>
        <time>2025-01-22T08:13:10.952Z</time>
      </trkpt>
      <trkpt lat="46.72249" lon="-1.96273">
        <ele>9.1</ele>
        <time>2025-01-22T08:13:11.953Z</time>
      </trkpt>
      <trkpt lat="46.7225" lon="-1.96273">
        <ele>9</ele>
        <time>2025-01-22T08:13:12.953Z</time>
      </trkpt>
      <trkpt lat="46.72251" lon="-1.96272">
        <ele>9</ele>
        <time>2025-01-22T08:13:13.952Z</time>
      </trkpt>
      <trkpt lat="46.72252" lon="-1.96272">
        <ele>9</ele>
        <time>2025-01-22T08:13:14.953Z</time>
      </trkpt>
      <trkpt lat="46.72252" lon="-1.96273">
        <ele>9</ele>
        <time>2025-01-22T08:13:15.953Z</time>
      </trkpt>
      <trkpt lat="46.72251" lon="-1.96274">
        <ele>9</ele>
        <time>2025-01-22T08:13:16.953Z</time>
      </trkpt>
      <trkpt lat="46.72253" lon="-1.96274">
        <ele>9</ele>
        <time>2025-01-22T08:13:17.953Z</time>
      </trkpt>
      <trkpt lat="46.72255" lon="-1.96275">
        <ele>9</ele>
        <time>2025-01-22T08:13:18.952Z</time>
      </trkpt>
      <trkpt lat="46.72259" lon="-1.96276">
        <ele>9</ele>
        <time>2025-01-22T08:13:19.953Z</time>
      </trkpt>
      <trkpt lat="46.72262" lon="-1.96275">
        <ele>9</ele>
        <time>2025-01-22T08:13:20.953Z</time>
      </trkpt>
      <trkpt lat="46.72265" lon="-1.96274">
        <ele>9</ele>
        <time>2025-01-22T08:13:21.953Z</time>
      </trkpt>
      <trkpt lat="46.72268" lon="-1.96273">
        <ele>9</ele>
        <time>2025-01-22T08:13:22.952Z</time>
      </trkpt>
      <trkpt lat="46.72269" lon="-1.96273">
        <ele>9</ele>
        <time>2025-01-22T08:13:23.953Z</time>
      </trkpt>
      <trkpt lat="46.72272" lon="-1.96273">
        <ele>9</ele>
        <time>2025-01-22T08:13:24.952Z</time>
      </trkpt>
      <trkpt lat="46.72274" lon="-1.96273">
        <ele>9</ele>
        <time>2025-01-22T08:13:25.952Z</time>
      </trkpt>
      <trkpt lat="46.72275" lon="-1.96273">
        <ele>9</ele>
        <time>2025-01-22T08:13:26.953Z</time>
      </trkpt>
      <trkpt lat="46.72276" lon="-1.96273">
        <ele>9</ele>
        <time>2025-01-22T08:13:27.952Z</time>
      </trkpt>
      <trkpt lat="46.72277" lon="-1.96273">
        <ele>9</ele>
        <time>2025-01-22T08:13:28.952Z</time>
      </trkpt>
      <trkpt lat="46.72279" lon="-1.96273">
        <ele>9.1</ele>
        <time>2025-01-22T08:13:29.952Z</time>
      </trkpt>
      <trkpt lat="46.72282" lon="-1.96272">
        <ele>9.1</ele>
        <time>2025-01-22T08:13:30.952Z</time>
      </trkpt>
      <trkpt lat="46.72283" lon="-1.96273">
        <ele>9.2</ele>
        <time>2025-01-22T08:13:31.953Z</time>
      </trkpt>
      <trkpt lat="46.72285" lon="-1.96274">
        <ele>9.2</ele>
        <time>2025-01-22T08:13:32.953Z</time>
      </trkpt>
      <trkpt lat="46.72287" lon="-1.96274">
        <ele>9.3</ele>
        <time>2025-01-22T08:13:33.952Z</time>
      </trkpt>
      <trkpt lat="46.72288" lon="-1.96275">
        <ele>9.4</ele>
        <time>2025-01-22T08:13:34.953Z</time>
      </trkpt>
      <trkpt lat="46.72287" lon="-1.96276">
        <ele>9.3</ele>
        <time>2025-01-22T08:13:35.953Z</time>
      </trkpt>
      <trkpt lat="46.72286" lon="-1.96276">
        <ele>9.3</ele>
        <time>2025-01-22T08:13:36.953Z</time>
      </trkpt>
      <trkpt lat="46.72283" lon="-1.96278">
        <ele>9.2</ele>
        <time>2025-01-22T08:13:37.953Z</time>
      </trkpt>
      <trkpt lat="46.7228" lon="-1.96281">
        <ele>9.1</ele>
        <time>2025-01-22T08:13:38.953Z</time>
      </trkpt>
      <trkpt lat="46.72278" lon="-1.96283">
        <ele>9</ele>
        <time>2025-01-22T08:13:39.953Z</time>
      </trkpt>
      <trkpt lat="46.72276" lon="-1.96284">
        <ele>9</ele>
        <time>2025-01-22T08:13:40.952Z</time>
      </trkpt>
      <trkpt lat="46.72274" lon="-1.96288">
        <ele>9</ele>
        <time>2025-01-22T08:13:41.952Z</time>
      </trkpt>
      <trkpt lat="46.72272" lon="-1.96291">
        <ele>9</ele>
        <time>2025-01-22T08:13:42.952Z</time>
      </trkpt>
      <trkpt lat="46.7227" lon="-1.96294">
        <ele>9</ele>
        <time>2025-01-22T08:13:43.953Z</time>
      </trkpt>
      <trkpt lat="46.7227" lon="-1.96298">
        <ele>9</ele>
        <time>2025-01-22T08:13:44.952Z</time>
      </trkpt>
      <trkpt lat="46.72269" lon="-1.963">
        <ele>9</ele>
        <time>2025-01-22T08:13:45.953Z</time>
      </trkpt>
      <trkpt lat="46.72268" lon="-1.96304">
        <ele>9</ele>
        <time>2025-01-22T08:13:46.953Z</time>
      </trkpt>
      <trkpt lat="46.72267" lon="-1.96308">
        <ele>9</ele>
        <time>2025-01-22T08:13:47.952Z</time>
      </trkpt>
      <trkpt lat="46.72268" lon="-1.96311">
        <ele>9</ele>
        <time>2025-01-22T08:13:48.952Z</time>
      </trkpt>
      <trkpt lat="46.72268" lon="-1.96314">
        <ele>9</ele>
        <time>2025-01-22T08:13:49.953Z</time>
      </trkpt>
      <trkpt lat="46.72268" lon="-1.96316">
        <ele>9</ele>
        <time>2025-01-22T08:13:50.953Z</time>
      </trkpt>
      <trkpt lat="46.72268" lon="-1.9632">
        <ele>9</ele>
        <time>2025-01-22T08:13:51.953Z</time>
      </trkpt>
      <trkpt lat="46.72267" lon="-1.96323">
        <ele>9</ele>
        <time>2025-01-22T08:13:52.952Z</time>
      </trkpt>
      <trkpt lat="46.72267" lon="-1.96327">
        <ele>9</ele>
        <time>2025-01-22T08:13:53.953Z</time>
      </trkpt>
      <trkpt lat="46.72267" lon="-1.96329">
        <ele>9</ele>
        <time>2025-01-22T08:13:54.953Z</time>
      </trkpt>
      <trkpt lat="46.72267" lon="-1.96331">
        <ele>9</ele>
        <time>2025-01-22T08:13:55.953Z</time>
      </trkpt>
      <trkpt lat="46.72266" lon="-1.96333">
        <ele>9</ele>
        <time>2025-01-22T08:13:56.952Z</time>
      </trkpt>
      <trkpt lat="46.72265" lon="-1.96336">
        <ele>9</ele>
        <time>2025-01-22T08:13:57.952Z</time>
      </trkpt>
      <trkpt lat="46.72264" lon="-1.96341">
        <ele>9</ele>
        <time>2025-01-22T08:13:58.952Z</time>
      </trkpt>
      <trkpt lat="46.72263" lon="-1.96347">
        <ele>9</ele>
        <time>2025-01-22T08:13:59.953Z</time>
      </trkpt>
      <trkpt lat="46.72263" lon="-1.96352">
        <ele>9</ele>
        <time>2025-01-22T08:14:00.953Z</time>
      </trkpt>
      <trkpt lat="46.72262" lon="-1.96356">
        <ele>9</ele>
        <time>2025-01-22T08:14:01.953Z</time>
      </trkpt>
      <trkpt lat="46.72262" lon="-1.96359">
        <ele>9</ele>
        <time>2025-01-22T08:14:02.953Z</time>
      </trkpt>
      <trkpt lat="46.72262" lon="-1.96361">
        <ele>9</ele>
        <time>2025-01-22T08:14:03.952Z</time>
      </trkpt>
      <trkpt lat="46.72261" lon="-1.96364">
        <ele>9</ele>
        <time>2025-01-22T08:14:04.952Z</time>
      </trkpt>
      <trkpt lat="46.7226" lon="-1.96368">
        <ele>9</ele>
        <time>2025-01-22T08:14:05.952Z</time>
      </trkpt>
      <trkpt lat="46.72259" lon="-1.96372">
        <ele>9</ele>
        <time>2025-01-22T08:14:06.952Z</time>
      </trkpt>
      <trkpt lat="46.72257" lon="-1.96376">
        <ele>9</ele>
        <time>2025-01-22T08:14:07.953Z</time>
      </trkpt>
      <trkpt lat="46.72256" lon="-1.96381">
        <ele>9</ele>
        <time>2025-01-22T08:14:08.953Z</time>
      </trkpt>
      <trkpt lat="46.72255" lon="-1.96386">
        <ele>9</ele>
        <time>2025-01-22T08:14:09.952Z</time>
      </trkpt>
      <trkpt lat="46.72255" lon="-1.96389">
        <ele>9</ele>
        <time>2025-01-22T08:14:10.953Z</time>
      </trkpt>
      <trkpt lat="46.72254" lon="-1.96394">
        <ele>9</ele>
        <time>2025-01-22T08:14:11.953Z</time>
      </trkpt>
      <trkpt lat="46.72252" lon="-1.96398">
        <ele>9</ele>
        <time>2025-01-22T08:14:12.952Z</time>
      </trkpt>
      <trkpt lat="46.72251" lon="-1.96403">
        <ele>9</ele>
        <time>2025-01-22T08:14:13.952Z</time>
      </trkpt>
      <trkpt lat="46.7225" lon="-1.96407">
        <ele>9</ele>
        <time>2025-01-22T08:14:14.953Z</time>
      </trkpt>
      <trkpt lat="46.72251" lon="-1.96409">
        <ele>9</ele>
        <time>2025-01-22T08:14:15.952Z</time>
      </trkpt>
      <trkpt lat="46.7225" lon="-1.96413">
        <ele>9</ele>
        <time>2025-01-22T08:14:16.952Z</time>
      </trkpt>
      <trkpt lat="46.7225" lon="-1.96417">
        <ele>9</ele>
        <time>2025-01-22T08:14:17.952Z</time>
      </trkpt>
      <trkpt lat="46.72248" lon="-1.96421">
        <ele>9.1</ele>
        <time>2025-01-22T08:14:18.953Z</time>
      </trkpt>
      <trkpt lat="46.72247" lon="-1.96425">
        <ele>9.1</ele>
        <time>2025-01-22T08:14:19.952Z</time>
      </trkpt>
      <trkpt lat="46.72245" lon="-1.96429">
        <ele>9.1</ele>
        <time>2025-01-22T08:14:20.953Z</time>
      </trkpt>
      <trkpt lat="46.72244" lon="-1.96433">
        <ele>9.1</ele>
        <time>2025-01-22T08:14:21.953Z</time>
      </trkpt>
      <trkpt lat="46.72244" lon="-1.96434">
        <ele>9.1</ele>
        <time>2025-01-22T08:14:22.953Z</time>
      </trkpt>
      <trkpt lat="46.72244" lon="-1.96437">
        <ele>9.1</ele>
        <time>2025-01-22T08:14:23.953Z</time>
      </trkpt>
      <trkpt lat="46.72244" lon="-1.9644">
        <ele>9</ele>
        <time>2025-01-22T08:14:24.952Z</time>
      </trkpt>
      <trkpt lat="46.72243" lon="-1.96443">
        <ele>9</ele>
        <time>2025-01-22T08:14:25.952Z</time>
      </trkpt>
      <trkpt lat="46.72243" lon="-1.96446">
        <ele>9</ele>
        <time>2025-01-22T08:14:26.953Z</time>
      </trkpt>
      <trkpt lat="46.72242" lon="-1.9645">
        <ele>9</ele>
        <time>2025-01-22T08:14:27.953Z</time>
      </trkpt>
      <trkpt lat="46.72242" lon="-1.96452">
        <ele>9</ele>
        <time>2025-01-22T08:14:28.952Z</time>
      </trkpt>
      <trkpt lat="46.72242" lon="-1.96455">
        <ele>9</ele>
        <time>2025-01-22T08:14:29.952Z</time>
      </trkpt>
      <trkpt lat="46.72241" lon="-1.96459">
        <ele>9</ele>
        <time>2025-01-22T08:14:30.952Z</time>
      </trkpt>
      <trkpt lat="46.72242" lon="-1.96463">
        <ele>9</ele>
        <time>2025-01-22T08:14:31.953Z</time>
      </trkpt>
      <trkpt lat="46.72242" lon="-1.96466">
        <ele>9</ele>
        <time>2025-01-22T08:14:32.953Z</time>
      </trkpt>
      <trkpt lat="46.72241" lon="-1.9647">
        <ele>9</ele>
        <time>2025-01-22T08:14:33.953Z</time>
      </trkpt>
      <trkpt lat="46.7224" lon="-1.96474">
        <ele>9</ele>
        <time>2025-01-22T08:14:34.952Z</time>
      </trkpt>
      <trkpt lat="46.72238" lon="-1.96479">
        <ele>9</ele>
        <time>2025-01-22T08:14:35.953Z</time>
      </trkpt>
      <trkpt lat="46.72236" lon="-1.96482">
        <ele>9</ele>
        <time>2025-01-22T08:14:36.953Z</time>
      </trkpt>
      <trkpt lat="46.72234" lon="-1.96485">
        <ele>9</ele>
        <time>2025-01-22T08:14:37.952Z</time>
      </trkpt>
      <trkpt lat="46.72233" lon="-1.96488">
        <ele>9</ele>
        <time>2025-01-22T08:14:38.952Z</time>
      </trkpt>
      <trkpt lat="46.72231" lon="-1.9649">
        <ele>9</ele>
        <time>2025-01-22T08:14:39.952Z</time>
      </trkpt>
      <trkpt lat="46.72229" lon="-1.96493">
        <ele>9</ele>
        <time>2025-01-22T08:14:40.953Z</time>
      </trkpt>
      <trkpt lat="46.72228" lon="-1.96496">
        <ele>9</ele>
        <time>2025-01-22T08:14:41.952Z</time>
      </trkpt>
      <trkpt lat="46.72226" lon="-1.96499">
        <ele>9</ele>
        <time>2025-01-22T08:14:42.953Z</time>
      </trkpt>
      <trkpt lat="46.72225" lon="-1.96503">
        <ele>9</ele>
        <time>2025-01-22T08:14:43.953Z</time>
      </trkpt>
      <trkpt lat="46.72224" lon="-1.96506">
        <ele>9</ele>
        <time>2025-01-22T08:14:44.952Z</time>
      </trkpt>
      <trkpt lat="46.72223" lon="-1.9651">
        <ele>9</ele>
        <time>2025-01-22T08:14:45.953Z</time>
      </trkpt>
      <trkpt lat="46.72221" lon="-1.96515">
        <ele>9.1</ele>
        <time>2025-01-22T08:14:46.953Z</time>
      </trkpt>
      <trkpt lat="46.72219" lon="-1.96518">
        <ele>9.1</ele>
        <time>2025-01-22T08:14:47.952Z</time>
      </trkpt>
      <trkpt lat="46.72218" lon="-1.96521">
        <ele>9.2</ele>
        <time>2025-01-22T08:14:48.952Z</time>
      </trkpt>
      <trkpt lat="46.72217" lon="-1.96524">
        <ele>9.2</ele>
        <time>2025-01-22T08:14:49.953Z</time>
      </trkpt>
      <trkpt lat="46.72216" lon="-1.96526">
        <ele>9.2</ele>
        <time>2025-01-22T08:14:50.952Z</time>
      </trkpt>
      <trkpt lat="46.72215" lon="-1.9653">
        <ele>9.3</ele>
        <time>2025-01-22T08:14:51.953Z</time>
      </trkpt>
      <trkpt lat="46.72215" lon="-1.96533">
        <ele>9.3</ele>
        <time>2025-01-22T08:14:52.953Z</time>
      </trkpt>
      <trkpt lat="46.72214" lon="-1.96536">
        <ele>9.4</ele>
        <time>2025-01-22T08:14:53.953Z</time>
      </trkpt>
      <trkpt lat="46.72213" lon="-1.96539">
        <ele>9.5</ele>
        <time>2025-01-22T08:14:54.952Z</time>
      </trkpt>
      <trkpt lat="46.72212" lon="-1.96541">
        <ele>9.5</ele>
        <time>2025-01-22T08:14:55.953Z</time>
      </trkpt>
      <trkpt lat="46.72211" lon="-1.96543">
        <ele>9.5</ele>
        <time>2025-01-22T08:14:56.953Z</time>
      </trkpt>
      <trkpt lat="46.72211" lon="-1.96545">
        <ele>9.5</ele>
        <time>2025-01-22T08:14:57.953Z</time>
      </trkpt>
      <trkpt lat="46.7221" lon="-1.96548">
        <ele>9.5</ele>
        <time>2025-01-22T08:14:58.952Z</time>
      </trkpt>
      <trkpt lat="46.72209" lon="-1.96551">
        <ele>9.5</ele>
        <time>2025-01-22T08:14:59.953Z</time>
      </trkpt>
      <trkpt lat="46.72209" lon="-1.96554">
        <ele>9.5</ele>
        <time>2025-01-22T08:15:00.952Z</time>
      </trkpt>
      <trkpt lat="46.72208" lon="-1.96559">
        <ele>9.5</ele>
        <time>2025-01-22T08:15:01.952Z</time>
      </trkpt>
      <trkpt lat="46.72207" lon="-1.96562">
        <ele>9.5</ele>
        <time>2025-01-22T08:15:02.952Z</time>
      </trkpt>
      <trkpt lat="46.72205" lon="-1.96566">
        <ele>9.5</ele>
        <time>2025-01-22T08:15:03.952Z</time>
      </trkpt>
      <trkpt lat="46.72203" lon="-1.96569">
        <ele>9.5</ele>
        <time>2025-01-22T08:15:04.952Z</time>
      </trkpt>
      <trkpt lat="46.72201" lon="-1.96572">
        <ele>9.5</ele>
        <time>2025-01-22T08:15:05.953Z</time>
      </trkpt>
      <trkpt lat="46.72199" lon="-1.96574">
        <ele>9.6</ele>
        <time>2025-01-22T08:15:06.953Z</time>
      </trkpt>
      <trkpt lat="46.72195" lon="-1.96576">
        <ele>9.7</ele>
        <time>2025-01-22T08:15:07.952Z</time>
      </trkpt>
      <trkpt lat="46.72192" lon="-1.96578">
        <ele>9.8</ele>
        <time>2025-01-22T08:15:08.953Z</time>
      </trkpt>
      <trkpt lat="46.7219" lon="-1.96581">
        <ele>9.9</ele>
        <time>2025-01-22T08:15:09.952Z</time>
      </trkpt>
      <trkpt lat="46.72189" lon="-1.96584">
        <ele>10</ele>
        <time>2025-01-22T08:15:10.952Z</time>
      </trkpt>
      <trkpt lat="46.72189" lon="-1.96587">
        <ele>9.9</ele>
        <time>2025-01-22T08:15:11.952Z</time>
      </trkpt>
      <trkpt lat="46.72188" lon="-1.96591">
        <ele>9.7</ele>
        <time>2025-01-22T08:15:12.952Z</time>
      </trkpt>
      <trkpt lat="46.72187" lon="-1.96594">
        <ele>9.6</ele>
        <time>2025-01-22T08:15:13.952Z</time>
      </trkpt>
      <trkpt lat="46.72187" lon="-1.96597">
        <ele>9.5</ele>
        <time>2025-01-22T08:15:14.952Z</time>
      </trkpt>
      <trkpt lat="46.72186" lon="-1.966">
        <ele>9.4</ele>
        <time>2025-01-22T08:15:15.952Z</time>
      </trkpt>
      <trkpt lat="46.72185" lon="-1.96604">
        <ele>9.3</ele>
        <time>2025-01-22T08:15:16.952Z</time>
      </trkpt>
      <trkpt lat="46.72185" lon="-1.96608">
        <ele>9.1</ele>
        <time>2025-01-22T08:15:17.953Z</time>
      </trkpt>
      <trkpt lat="46.72183" lon="-1.96613">
        <ele>9</ele>
        <time>2025-01-22T08:15:18.953Z</time>
      </trkpt>
      <trkpt lat="46.72182" lon="-1.96617">
        <ele>9</ele>
        <time>2025-01-22T08:15:19.952Z</time>
      </trkpt>
      <trkpt lat="46.7218" lon="-1.96621">
        <ele>9</ele>
        <time>2025-01-22T08:15:20.952Z</time>
      </trkpt>
      <trkpt lat="46.7218" lon="-1.96623">
        <ele>9</ele>
        <time>2025-01-22T08:15:21.952Z</time>
      </trkpt>
      <trkpt lat="46.72179" lon="-1.96625">
        <ele>9</ele>
        <time>2025-01-22T08:15:22.952Z</time>
      </trkpt>
      <trkpt lat="46.72179" lon="-1.96627">
        <ele>9</ele>
        <time>2025-01-22T08:15:23.953Z</time>
      </trkpt>
      <trkpt lat="46.72179" lon="-1.96629">
        <ele>9</ele>
        <time>2025-01-22T08:15:24.953Z</time>
      </trkpt>
      <trkpt lat="46.72179" lon="-1.96631">
        <ele>9</ele>
        <time>2025-01-22T08:15:25.953Z</time>
      </trkpt>
      <trkpt lat="46.7218" lon="-1.96632">
        <ele>9</ele>
        <time>2025-01-22T08:15:26.953Z</time>
      </trkpt>
      <trkpt lat="46.7218" lon="-1.96634">
        <ele>9</ele>
        <time>2025-01-22T08:15:27.952Z</time>
      </trkpt>
      <trkpt lat="46.72181" lon="-1.96636">
        <ele>9</ele>
        <time>2025-01-22T08:15:28.953Z</time>
      </trkpt>
      <trkpt lat="46.72181" lon="-1.9664">
        <ele>9</ele>
        <time>2025-01-22T08:15:29.953Z</time>
      </trkpt>
      <trkpt lat="46.72182" lon="-1.96642">
        <ele>9</ele>
        <time>2025-01-22T08:15:30.952Z</time>
      </trkpt>
      <trkpt lat="46.72182" lon="-1.96645">
        <ele>9</ele>
        <time>2025-01-22T08:15:31.953Z</time>
      </trkpt>
      <trkpt lat="46.72183" lon="-1.96649">
        <ele>9</ele>
        <time>2025-01-22T08:15:32.953Z</time>
      </trkpt>
      <trkpt lat="46.72183" lon="-1.96654">
        <ele>9</ele>
        <time>2025-01-22T08:15:33.953Z</time>
      </trkpt>
      <trkpt lat="46.72183" lon="-1.96658">
        <ele>9</ele>
        <time>2025-01-22T08:15:34.952Z</time>
      </trkpt>
      <trkpt lat="46.72183" lon="-1.96663">
        <ele>9</ele>
        <time>2025-01-22T08:15:35.952Z</time>
      </trkpt>
      <trkpt lat="46.72181" lon="-1.96667">
        <ele>9</ele>
        <time>2025-01-22T08:15:36.952Z</time>
      </trkpt>
      <trkpt lat="46.7218" lon="-1.96672">
        <ele>9</ele>
        <time>2025-01-22T08:15:37.952Z</time>
      </trkpt>
      <trkpt lat="46.7218" lon="-1.96675">
        <ele>9</ele>
        <time>2025-01-22T08:15:38.952Z</time>
      </trkpt>
      <trkpt lat="46.72179" lon="-1.96678">
        <ele>9</ele>
        <time>2025-01-22T08:15:39.953Z</time>
      </trkpt>
      <trkpt lat="46.72179" lon="-1.96681">
        <ele>9</ele>
        <time>2025-01-22T08:15:40.953Z</time>
      </trkpt>
      <trkpt lat="46.72178" lon="-1.96683">
        <ele>9</ele>
        <time>2025-01-22T08:15:41.953Z</time>
      </trkpt>
      <trkpt lat="46.72176" lon="-1.96686">
        <ele>9</ele>
        <time>2025-01-22T08:15:42.952Z</time>
      </trkpt>
      <trkpt lat="46.72175" lon="-1.9669">
        <ele>9</ele>
        <time>2025-01-22T08:15:43.953Z</time>
      </trkpt>
      <trkpt lat="46.72175" lon="-1.96693">
        <ele>9</ele>
        <time>2025-01-22T08:15:44.953Z</time>
      </trkpt>
      <trkpt lat="46.72175" lon="-1.96698">
        <ele>9</ele>
        <time>2025-01-22T08:15:45.953Z</time>
      </trkpt>
      <trkpt lat="46.72174" lon="-1.967">
        <ele>9</ele>
        <time>2025-01-22T08:15:46.953Z</time>
      </trkpt>
      <trkpt lat="46.72174" lon="-1.96704">
        <ele>9</ele>
        <time>2025-01-22T08:15:47.952Z</time>
      </trkpt>
      <trkpt lat="46.72173" lon="-1.96706">
        <ele>9</ele>
        <time>2025-01-22T08:15:48.952Z</time>
      </trkpt>
      <trkpt lat="46.72171" lon="-1.96708">
        <ele>9</ele>
        <time>2025-01-22T08:15:49.952Z</time>
      </trkpt>
      <trkpt lat="46.72169" lon="-1.96711">
        <ele>9</ele>
        <time>2025-01-22T08:15:50.953Z</time>
      </trkpt>
      <trkpt lat="46.72165" lon="-1.96714">
        <ele>9</ele>
        <time>2025-01-22T08:15:51.953Z</time>
      </trkpt>
      <trkpt lat="46.72163" lon="-1.96718">
        <ele>9</ele>
        <time>2025-01-22T08:15:52.952Z</time>
      </trkpt>
      <trkpt lat="46.72161" lon="-1.96722">
        <ele>9</ele>
        <time>2025-01-22T08:15:53.952Z</time>
      </trkpt>
      <trkpt lat="46.7216" lon="-1.96725">
        <ele>9</ele>
        <time>2025-01-22T08:15:54.953Z</time>
      </trkpt>
      <trkpt lat="46.72159" lon="-1.96728">
        <ele>9.1</ele>
        <time>2025-01-22T08:15:55.953Z</time>
      </trkpt>
      <trkpt lat="46.72158" lon="-1.9673">
        <ele>9.1</ele>
        <time>2025-01-22T08:15:56.953Z</time>
      </trkpt>
      <trkpt lat="46.72156" lon="-1.96733">
        <ele>9.2</ele>
        <time>2025-01-22T08:15:57.952Z</time>
      </trkpt>
      <trkpt lat="46.72153" lon="-1.96736">
        <ele>9.2</ele>
        <time>2025-01-22T08:15:58.952Z</time>
      </trkpt>
      <trkpt lat="46.72151" lon="-1.9674">
        <ele>9.4</ele>
        <time>2025-01-22T08:15:59.952Z</time>
      </trkpt>
      <trkpt lat="46.72149" lon="-1.96744">
        <ele>9.5</ele>
        <time>2025-01-22T08:16:00.952Z</time>
      </trkpt>
      <trkpt lat="46.72147" lon="-1.96748">
        <ele>9.7</ele>
        <time>2025-01-22T08:16:01.953Z</time>
      </trkpt>
      <trkpt lat="46.72146" lon="-1.96752">
        <ele>9.7</ele>
        <time>2025-01-22T08:16:02.952Z</time>
      </trkpt>
      <trkpt lat="46.72145" lon="-1.96755">
        <ele>9.8</ele>
        <time>2025-01-22T08:16:03.952Z</time>
      </trkpt>
      <trkpt lat="46.72145" lon="-1.96758">
        <ele>9.8</ele>
        <time>2025-01-22T08:16:04.952Z</time>
      </trkpt>
      <trkpt lat="46.72144" lon="-1.9676">
        <ele>9.8</ele>
        <time>2025-01-22T08:16:05.952Z</time>
      </trkpt>
      <trkpt lat="46.72143" lon="-1.96762">
        <ele>9.9</ele>
        <time>2025-01-22T08:16:06.952Z</time>
      </trkpt>
      <trkpt lat="46.72142" lon="-1.96764">
        <ele>9.9</ele>
        <time>2025-01-22T08:16:07.953Z</time>
      </trkpt>
      <trkpt lat="46.7214" lon="-1.96766">
        <ele>9.9</ele>
        <time>2025-01-22T08:16:08.953Z</time>
      </trkpt>
      <trkpt lat="46.72139" lon="-1.96769">
        <ele>10</ele>
        <time>2025-01-22T08:16:09.953Z</time>
      </trkpt>
      <trkpt lat="46.72138" lon="-1.96772">
        <ele>10</ele>
        <time>2025-01-22T08:16:10.952Z</time>
      </trkpt>
      <trkpt lat="46.72135" lon="-1.96777">
        <ele>10</ele>
        <time>2025-01-22T08:16:11.953Z</time>
      </trkpt>
      <trkpt lat="46.72134" lon="-1.96782">
        <ele>9.8</ele>
        <time>2025-01-22T08:16:12.953Z</time>
      </trkpt>
      <trkpt lat="46.72133" lon="-1.96787">
        <ele>9.7</ele>
        <time>2025-01-22T08:16:13.953Z</time>
      </trkpt>
      <trkpt lat="46.72131" lon="-1.96791">
        <ele>9.5</ele>
        <time>2025-01-22T08:16:14.953Z</time>
      </trkpt>
      <trkpt lat="46.7213" lon="-1.96795">
        <ele>9.4</ele>
        <time>2025-01-22T08:16:15.952Z</time>
      </trkpt>
      <trkpt lat="46.72129" lon="-1.96798">
        <ele>9.3</ele>
        <time>2025-01-22T08:16:16.953Z</time>
      </trkpt>
      <trkpt lat="46.72128" lon="-1.96801">
        <ele>9.2</ele>
        <time>2025-01-22T08:16:17.952Z</time>
      </trkpt>
      <trkpt lat="46.72128" lon="-1.96805">
        <ele>9</ele>
        <time>2025-01-22T08:16:18.952Z</time>
      </trkpt>
      <trkpt lat="46.72129" lon="-1.96809">
        <ele>9</ele>
        <time>2025-01-22T08:16:19.952Z</time>
      </trkpt>
      <trkpt lat="46.72129" lon="-1.96813">
        <ele>9</ele>
        <time>2025-01-22T08:16:20.952Z</time>
      </trkpt>
      <trkpt lat="46.72128" lon="-1.96816">
        <ele>9</ele>
        <time>2025-01-22T08:16:21.952Z</time>
      </trkpt>
      <trkpt lat="46.72128" lon="-1.9682">
        <ele>9</ele>
        <time>2025-01-22T08:16:22.952Z</time>
      </trkpt>
      <trkpt lat="46.72128" lon="-1.96823">
        <ele>9</ele>
        <time>2025-01-22T08:16:23.953Z</time>
      </trkpt>
      <trkpt lat="46.72128" lon="-1.96827">
        <ele>9</ele>
        <time>2025-01-22T08:16:24.952Z</time>
      </trkpt>
      <trkpt lat="46.72127" lon="-1.9683">
        <ele>9</ele>
        <time>2025-01-22T08:16:25.953Z</time>
      </trkpt>
      <trkpt lat="46.72125" lon="-1.96834">
        <ele>9</ele>
        <time>2025-01-22T08:16:26.952Z</time>
      </trkpt>
      <trkpt lat="46.72124" lon="-1.96838">
        <ele>9</ele>
        <time>2025-01-22T08:16:27.952Z</time>
      </trkpt>
      <trkpt lat="46.72123" lon="-1.96842">
        <ele>9</ele>
        <time>2025-01-22T08:16:28.952Z</time>
      </trkpt>
      <trkpt lat="46.72121" lon="-1.96845">
        <ele>9</ele>
        <time>2025-01-22T08:16:29.952Z</time>
      </trkpt>
      <trkpt lat="46.7212" lon="-1.96849">
        <ele>9</ele>
        <time>2025-01-22T08:16:30.953Z</time>
      </trkpt>
      <trkpt lat="46.7212" lon="-1.96852">
        <ele>9</ele>
        <time>2025-01-22T08:16:31.953Z</time>
      </trkpt>
      <trkpt lat="46.7212" lon="-1.96854">
        <ele>9</ele>
        <time>2025-01-22T08:16:32.953Z</time>
      </trkpt>
      <trkpt lat="46.72119" lon="-1.96857">
        <ele>9</ele>
        <time>2025-01-22T08:16:33.952Z</time>
      </trkpt>
      <trkpt lat="46.72118" lon="-1.9686">
        <ele>9</ele>
        <time>2025-01-22T08:16:34.952Z</time>
      </trkpt>
      <trkpt lat="46.72116" lon="-1.96864">
        <ele>8.9</ele>
        <time>2025-01-22T08:16:35.952Z</time>
      </trkpt>
      <trkpt lat="46.72113" lon="-1.96867">
        <ele>8.8</ele>
        <time>2025-01-22T08:16:36.952Z</time>
      </trkpt>
      <trkpt lat="46.7211" lon="-1.96871">
        <ele>8.7</ele>
        <time>2025-01-22T08:16:37.952Z</time>
      </trkpt>
      <trkpt lat="46.72107" lon="-1.96874">
        <ele>8.6</ele>
        <time>2025-01-22T08:16:38.952Z</time>
      </trkpt>
      <trkpt lat="46.72104" lon="-1.96878">
        <ele>8.5</ele>
        <time>2025-01-22T08:16:39.952Z</time>
      </trkpt>
      <trkpt lat="46.72102" lon="-1.96882">
        <ele>8.5</ele>
        <time>2025-01-22T08:16:40.953Z</time>
      </trkpt>
      <trkpt lat="46.721" lon="-1.96886">
        <ele>8.5</ele>
        <time>2025-01-22T08:16:41.953Z</time>
      </trkpt>
      <trkpt lat="46.72098" lon="-1.9689">
        <ele>8.5</ele>
        <time>2025-01-22T08:16:42.952Z</time>
      </trkpt>
      <trkpt lat="46.72097" lon="-1.96895">
        <ele>8.5</ele>
        <time>2025-01-22T08:16:43.953Z</time>
      </trkpt>
      <trkpt lat="46.72096" lon="-1.96899">
        <ele>8.6</ele>
        <time>2025-01-22T08:16:44.953Z</time>
      </trkpt>
      <trkpt lat="46.72094" lon="-1.96903">
        <ele>8.6</ele>
        <time>2025-01-22T08:16:45.953Z</time>
      </trkpt>
      <trkpt lat="46.72093" lon="-1.96907">
        <ele>8.7</ele>
        <time>2025-01-22T08:16:46.953Z</time>
      </trkpt>
      <trkpt lat="46.72091" lon="-1.9691">
        <ele>8.7</ele>
        <time>2025-01-22T08:16:47.952Z</time>
      </trkpt>
      <trkpt lat="46.72089" lon="-1.96914">
        <ele>8.8</ele>
        <time>2025-01-22T08:16:48.952Z</time>
      </trkpt>
      <trkpt lat="46.72086" lon="-1.96918">
        <ele>8.9</ele>
        <time>2025-01-22T08:16:49.952Z</time>
      </trkpt>
      <trkpt lat="46.72085" lon="-1.96924">
        <ele>8.9</ele>
        <time>2025-01-22T08:16:50.952Z</time>
      </trkpt>
      <trkpt lat="46.72084" lon="-1.96927">
        <ele>9</ele>
        <time>2025-01-22T08:16:51.952Z</time>
      </trkpt>
      <trkpt lat="46.72083" lon="-1.9693">
        <ele>9</ele>
        <time>2025-01-22T08:16:52.953Z</time>
      </trkpt>
      <trkpt lat="46.7208" lon="-1.96932">
        <ele>9.1</ele>
        <time>2025-01-22T08:16:53.953Z</time>
      </trkpt>
      <trkpt lat="46.72077" lon="-1.96934">
        <ele>9.1</ele>
        <time>2025-01-22T08:16:54.952Z</time>
      </trkpt>
      <trkpt lat="46.72073" lon="-1.96937">
        <ele>9.1</ele>
        <time>2025-01-22T08:16:55.952Z</time>
      </trkpt>
      <trkpt lat="46.72071" lon="-1.96939">
        <ele>9.1</ele>
        <time>2025-01-22T08:16:56.952Z</time>
      </trkpt>
      <trkpt lat="46.72068" lon="-1.9694">
        <ele>9.1</ele>
        <time>2025-01-22T08:16:57.952Z</time>
      </trkpt>
      <trkpt lat="46.72066" lon="-1.96943">
        <ele>9</ele>
        <time>2025-01-22T08:16:58.953Z</time>
      </trkpt>
      <trkpt lat="46.72064" lon="-1.96945">
        <ele>9</ele>
        <time>2025-01-22T08:16:59.952Z</time>
      </trkpt>
      <trkpt lat="46.72063" lon="-1.96948">
        <ele>9</ele>
        <time>2025-01-22T08:17:00.952Z</time>
      </trkpt>
      <trkpt lat="46.72062" lon="-1.96951">
        <ele>9</ele>
        <time>2025-01-22T08:17:01.952Z</time>
      </trkpt>
      <trkpt lat="46.72061" lon="-1.96953">
        <ele>9</ele>
        <time>2025-01-22T08:17:02.952Z</time>
      </trkpt>
      <trkpt lat="46.7206" lon="-1.96956">
        <ele>9</ele>
        <time>2025-01-22T08:17:03.952Z</time>
      </trkpt>
      <trkpt lat="46.7206" lon="-1.96959">
        <ele>9</ele>
        <time>2025-01-22T08:17:04.952Z</time>
      </trkpt>
      <trkpt lat="46.7206" lon="-1.96962">
        <ele>9</ele>
        <time>2025-01-22T08:17:05.952Z</time>
      </trkpt>
      <trkpt lat="46.72059" lon="-1.96965">
        <ele>9</ele>
        <time>2025-01-22T08:17:06.953Z</time>
      </trkpt>
      <trkpt lat="46.7206" lon="-1.96969">
        <ele>9</ele>
        <time>2025-01-22T08:17:07.952Z</time>
      </trkpt>
      <trkpt lat="46.7206" lon="-1.96972">
        <ele>9</ele>
        <time>2025-01-22T08:17:08.953Z</time>
      </trkpt>
      <trkpt lat="46.7206" lon="-1.96975">
        <ele>9</ele>
        <time>2025-01-22T08:17:09.953Z</time>
      </trkpt>
      <trkpt lat="46.7206" lon="-1.96979">
        <ele>9</ele>
        <time>2025-01-22T08:17:10.953Z</time>
      </trkpt>
      <trkpt lat="46.72059" lon="-1.96983">
        <ele>9</ele>
        <time>2025-01-22T08:17:11.953Z</time>
      </trkpt>
      <trkpt lat="46.7206" lon="-1.96987">
        <ele>9</ele>
        <time>2025-01-22T08:17:12.953Z</time>
      </trkpt>
      <trkpt lat="46.72059" lon="-1.96991">
        <ele>9</ele>
        <time>2025-01-22T08:17:13.953Z</time>
      </trkpt>
      <trkpt lat="46.72059" lon="-1.96996">
        <ele>9</ele>
        <time>2025-01-22T08:17:14.953Z</time>
      </trkpt>
      <trkpt lat="46.72058" lon="-1.96999">
        <ele>9</ele>
        <time>2025-01-22T08:17:15.953Z</time>
      </trkpt>
      <trkpt lat="46.72058" lon="-1.97003">
        <ele>9</ele>
        <time>2025-01-22T08:17:16.953Z</time>
      </trkpt>
      <trkpt lat="46.72059" lon="-1.97005">
        <ele>9</ele>
        <time>2025-01-22T08:17:17.952Z</time>
      </trkpt>
      <trkpt lat="46.72058" lon="-1.97009">
        <ele>9</ele>
        <time>2025-01-22T08:17:18.952Z</time>
      </trkpt>
      <trkpt lat="46.72058" lon="-1.97012">
        <ele>9</ele>
        <time>2025-01-22T08:17:19.953Z</time>
      </trkpt>
      <trkpt lat="46.72058" lon="-1.97014">
        <ele>9</ele>
        <time>2025-01-22T08:17:20.953Z</time>
      </trkpt>
      <trkpt lat="46.72057" lon="-1.97016">
        <ele>9</ele>
        <time>2025-01-22T08:17:21.952Z</time>
      </trkpt>
      <trkpt lat="46.72056" lon="-1.9702">
        <ele>9</ele>
        <time>2025-01-22T08:17:22.952Z</time>
      </trkpt>
      <trkpt lat="46.72055" lon="-1.97023">
        <ele>9</ele>
        <time>2025-01-22T08:17:23.952Z</time>
      </trkpt>
      <trkpt lat="46.72054" lon="-1.97026">
        <ele>9</ele>
        <time>2025-01-22T08:17:24.952Z</time>
      </trkpt>
      <trkpt lat="46.72054" lon="-1.9703">
        <ele>9</ele>
        <time>2025-01-22T08:17:25.953Z</time>
      </trkpt>
      <trkpt lat="46.72053" lon="-1.97032">
        <ele>9</ele>
        <time>2025-01-22T08:17:26.953Z</time>
      </trkpt>
      <trkpt lat="46.72053" lon="-1.97035">
        <ele>9</ele>
        <time>2025-01-22T08:17:27.953Z</time>
      </trkpt>
      <trkpt lat="46.72051" lon="-1.97037">
        <ele>9</ele>
        <time>2025-01-22T08:17:28.952Z</time>
      </trkpt>
      <trkpt lat="46.72051" lon="-1.97038">
        <ele>9</ele>
        <time>2025-01-22T08:17:29.952Z</time>
      </trkpt>
      <trkpt lat="46.72051" lon="-1.97039">
        <ele>9</ele>
        <time>2025-01-22T08:17:30.953Z</time>
      </trkpt>
      <trkpt lat="46.7205" lon="-1.9704">
        <ele>9</ele>
        <time>2025-01-22T08:17:31.953Z</time>
      </trkpt>
      <trkpt lat="46.72049" lon="-1.97042">
        <ele>9</ele>
        <time>2025-01-22T08:17:32.953Z</time>
      </trkpt>
      <trkpt lat="46.72048" lon="-1.97044">
        <ele>9</ele>
        <time>2025-01-22T08:17:33.953Z</time>
      </trkpt>
      <trkpt lat="46.72047" lon="-1.97046">
        <ele>9</ele>
        <time>2025-01-22T08:17:34.953Z</time>
      </trkpt>
      <trkpt lat="46.72046" lon="-1.97048">
        <ele>9</ele>
        <time>2025-01-22T08:17:35.953Z</time>
      </trkpt>
      <trkpt lat="46.72043" lon="-1.97051">
        <ele>9</ele>
        <time>2025-01-22T08:17:36.952Z</time>
      </trkpt>
      <trkpt lat="46.72041" lon="-1.97054">
        <ele>9</ele>
        <time>2025-01-22T08:17:37.953Z</time>
      </trkpt>
      <trkpt lat="46.72038" lon="-1.97057">
        <ele>9</ele>
        <time>2025-01-22T08:17:38.953Z</time>
      </trkpt>
      <trkpt lat="46.72036" lon="-1.9706">
        <ele>8.8</ele>
        <time>2025-01-22T08:17:39.953Z</time>
      </trkpt>
      <trkpt lat="46.72033" lon="-1.97064">
        <ele>8.7</ele>
        <time>2025-01-22T08:17:40.953Z</time>
      </trkpt>
      <trkpt lat="46.7203" lon="-1.97067">
        <ele>8.6</ele>
        <time>2025-01-22T08:17:41.953Z</time>
      </trkpt>
      <trkpt lat="46.72028" lon="-1.9707">
        <ele>8.5</ele>
        <time>2025-01-22T08:17:42.952Z</time>
      </trkpt>
      <trkpt lat="46.72026" lon="-1.97072">
        <ele>8.4</ele>
        <time>2025-01-22T08:17:43.952Z</time>
      </trkpt>
      <trkpt lat="46.72024" lon="-1.97074">
        <ele>8.4</ele>
        <time>2025-01-22T08:17:44.953Z</time>
      </trkpt>
      <trkpt lat="46.72022" lon="-1.97077">
        <ele>8.4</ele>
        <time>2025-01-22T08:17:45.953Z</time>
      </trkpt>
      <trkpt lat="46.7202" lon="-1.9708">
        <ele>8.4</ele>
        <time>2025-01-22T08:17:46.952Z</time>
      </trkpt>
      <trkpt lat="46.72019" lon="-1.97082">
        <ele>8.4</ele>
        <time>2025-01-22T08:17:47.952Z</time>
      </trkpt>
      <trkpt lat="46.72018" lon="-1.97086">
        <ele>8.4</ele>
        <time>2025-01-22T08:17:48.952Z</time>
      </trkpt>
      <trkpt lat="46.72015" lon="-1.97092">
        <ele>8.5</ele>
        <time>2025-01-22T08:17:49.953Z</time>
      </trkpt>
      <trkpt lat="46.72013" lon="-1.97098">
        <ele>8.5</ele>
        <time>2025-01-22T08:17:50.952Z</time>
      </trkpt>
      <trkpt lat="46.72011" lon="-1.97102">
        <ele>8.6</ele>
        <time>2025-01-22T08:17:51.953Z</time>
      </trkpt>
      <trkpt lat="46.72009" lon="-1.97104">
        <ele>8.7</ele>
        <time>2025-01-22T08:17:52.953Z</time>
      </trkpt>
      <trkpt lat="46.72006" lon="-1.97106">
        <ele>8.8</ele>
        <time>2025-01-22T08:17:53.953Z</time>
      </trkpt>
      <trkpt lat="46.72004" lon="-1.97107">
        <ele>8.9</ele>
        <time>2025-01-22T08:17:54.953Z</time>
      </trkpt>
      <trkpt lat="46.72001" lon="-1.97108">
        <ele>9</ele>
        <time>2025-01-22T08:17:55.952Z</time>
      </trkpt>
      <trkpt lat="46.71998" lon="-1.9711">
        <ele>9</ele>
        <time>2025-01-22T08:17:56.953Z</time>
      </trkpt>
      <trkpt lat="46.71996" lon="-1.97111">
        <ele>9</ele>
        <time>2025-01-22T08:17:57.953Z</time>
      </trkpt>
      <trkpt lat="46.71995" lon="-1.97112">
        <ele>9</ele>
        <time>2025-01-22T08:17:58.952Z</time>
      </trkpt>
      <trkpt lat="46.71994" lon="-1.97114">
        <ele>8.9</ele>
        <time>2025-01-22T08:17:59.953Z</time>
      </trkpt>
      <trkpt lat="46.71992" lon="-1.97117">
        <ele>8.8</ele>
        <time>2025-01-22T08:18:00.953Z</time>
      </trkpt>
      <trkpt lat="46.7199" lon="-1.97119">
        <ele>8.7</ele>
        <time>2025-01-22T08:18:01.953Z</time>
      </trkpt>
      <trkpt lat="46.71988" lon="-1.97121">
        <ele>8.7</ele>
        <time>2025-01-22T08:18:02.952Z</time>
      </trkpt>
      <trkpt lat="46.71986" lon="-1.97123">
        <ele>8.6</ele>
        <time>2025-01-22T08:18:03.953Z</time>
      </trkpt>
      <trkpt lat="46.71985" lon="-1.97126">
        <ele>8.5</ele>
        <time>2025-01-22T08:18:04.953Z</time>
      </trkpt>
      <trkpt lat="46.71984" lon="-1.97128">
        <ele>8.4</ele>
        <time>2025-01-22T08:18:05.953Z</time>
      </trkpt>
      <trkpt lat="46.71983" lon="-1.97131">
        <ele>8.3</ele>
        <time>2025-01-22T08:18:06.953Z</time>
      </trkpt>
      <trkpt lat="46.71981" lon="-1.97133">
        <ele>8.2</ele>
        <time>2025-01-22T08:18:07.953Z</time>
      </trkpt>
      <trkpt lat="46.71979" lon="-1.97136">
        <ele>8.1</ele>
        <time>2025-01-22T08:18:08.953Z</time>
      </trkpt>
      <trkpt lat="46.71976" lon="-1.97138">
        <ele>8</ele>
        <time>2025-01-22T08:18:09.953Z</time>
      </trkpt>
      <trkpt lat="46.71973" lon="-1.97141">
        <ele>8</ele>
        <time>2025-01-22T08:18:10.953Z</time>
      </trkpt>
      <trkpt lat="46.7197" lon="-1.97143">
        <ele>8.1</ele>
        <time>2025-01-22T08:18:11.952Z</time>
      </trkpt>
      <trkpt lat="46.71967" lon="-1.97145">
        <ele>8.2</ele>
        <time>2025-01-22T08:18:12.953Z</time>
      </trkpt>
      <trkpt lat="46.71963" lon="-1.97148">
        <ele>8.3</ele>
        <time>2025-01-22T08:18:13.953Z</time>
      </trkpt>
      <trkpt lat="46.71961" lon="-1.97149">
        <ele>8.4</ele>
        <time>2025-01-22T08:18:14.953Z</time>
      </trkpt>
      <trkpt lat="46.71958" lon="-1.97153">
        <ele>8.5</ele>
        <time>2025-01-22T08:18:15.952Z</time>
      </trkpt>
      <trkpt lat="46.71956" lon="-1.97157">
        <ele>8.6</ele>
        <time>2025-01-22T08:18:16.953Z</time>
      </trkpt>
      <trkpt lat="46.71953" lon="-1.97158">
        <ele>8.7</ele>
        <time>2025-01-22T08:18:17.953Z</time>
      </trkpt>
      <trkpt lat="46.71951" lon="-1.9716">
        <ele>8.8</ele>
        <time>2025-01-22T08:18:18.952Z</time>
      </trkpt>
      <trkpt lat="46.71948" lon="-1.97162">
        <ele>8.9</ele>
        <time>2025-01-22T08:18:19.953Z</time>
      </trkpt>
      <trkpt lat="46.71945" lon="-1.97165">
        <ele>9</ele>
        <time>2025-01-22T08:18:20.953Z</time>
      </trkpt>
      <trkpt lat="46.71942" lon="-1.97167">
        <ele>9</ele>
        <time>2025-01-22T08:18:21.953Z</time>
      </trkpt>
      <trkpt lat="46.71939" lon="-1.97169">
        <ele>8.9</ele>
        <time>2025-01-22T08:18:22.953Z</time>
      </trkpt>
      <trkpt lat="46.71937" lon="-1.9717">
        <ele>8.9</ele>
        <time>2025-01-22T08:18:23.953Z</time>
      </trkpt>
      <trkpt lat="46.71935" lon="-1.9717">
        <ele>8.9</ele>
        <time>2025-01-22T08:18:24.953Z</time>
      </trkpt>
      <trkpt lat="46.71932" lon="-1.97171">
        <ele>8.8</ele>
        <time>2025-01-22T08:18:25.953Z</time>
      </trkpt>
      <trkpt lat="46.71929" lon="-1.97173">
        <ele>8.8</ele>
        <time>2025-01-22T08:18:26.952Z</time>
      </trkpt>
      <trkpt lat="46.71926" lon="-1.97176">
        <ele>8.7</ele>
        <time>2025-01-22T08:18:27.952Z</time>
      </trkpt>
      <trkpt lat="46.71923" lon="-1.97178">
        <ele>8.6</ele>
        <time>2025-01-22T08:18:28.952Z</time>
      </trkpt>
      <trkpt lat="46.71921" lon="-1.9718">
        <ele>8.5</ele>
        <time>2025-01-22T08:18:29.952Z</time>
      </trkpt>
      <trkpt lat="46.7192" lon="-1.9718">
        <ele>8.5</ele>
        <time>2025-01-22T08:18:30.953Z</time>
      </trkpt>
      <trkpt lat="46.7192" lon="-1.97182">
        <ele>8.5</ele>
        <time>2025-01-22T08:18:31.953Z</time>
      </trkpt>
      <trkpt lat="46.71919" lon="-1.97183">
        <ele>8.4</ele>
        <time>2025-01-22T08:18:32.952Z</time>
      </trkpt>
      <trkpt lat="46.71918" lon="-1.97186">
        <ele>8.3</ele>
        <time>2025-01-22T08:18:33.952Z</time>
      </trkpt>
      <trkpt lat="46.71918" lon="-1.97188">
        <ele>8.2</ele>
        <time>2025-01-22T08:18:34.952Z</time>
      </trkpt>
      <trkpt lat="46.71917" lon="-1.9719">
        <ele>8.2</ele>
        <time>2025-01-22T08:18:35.952Z</time>
      </trkpt>
      <trkpt lat="46.71915" lon="-1.97192">
        <ele>8.1</ele>
        <time>2025-01-22T08:18:36.952Z</time>
      </trkpt>
      <trkpt lat="46.71913" lon="-1.97195">
        <ele>8.2</ele>
        <time>2025-01-22T08:18:37.953Z</time>
      </trkpt>
      <trkpt lat="46.71912" lon="-1.97199">
        <ele>8.3</ele>
        <time>2025-01-22T08:18:38.952Z</time>
      </trkpt>
      <trkpt lat="46.71909" lon="-1.97202">
        <ele>8.5</ele>
        <time>2025-01-22T08:18:39.952Z</time>
      </trkpt>
      <trkpt lat="46.71907" lon="-1.97204">
        <ele>8.6</ele>
        <time>2025-01-22T08:18:40.953Z</time>
      </trkpt>
      <trkpt lat="46.71905" lon="-1.97207">
        <ele>8.7</ele>
        <time>2025-01-22T08:18:41.952Z</time>
      </trkpt>
      <trkpt lat="46.71903" lon="-1.9721">
        <ele>8.8</ele>
        <time>2025-01-22T08:18:42.953Z</time>
      </trkpt>
      <trkpt lat="46.71902" lon="-1.97213">
        <ele>8.8</ele>
        <time>2025-01-22T08:18:43.953Z</time>
      </trkpt>
      <trkpt lat="46.71901" lon="-1.97215">
        <ele>8.9</ele>
        <time>2025-01-22T08:18:44.953Z</time>
      </trkpt>
      <trkpt lat="46.719" lon="-1.97218">
        <ele>8.9</ele>
        <time>2025-01-22T08:18:45.952Z</time>
      </trkpt>
      <trkpt lat="46.71899" lon="-1.9722">
        <ele>9</ele>
        <time>2025-01-22T08:18:46.952Z</time>
      </trkpt>
      <trkpt lat="46.71898" lon="-1.97222">
        <ele>9</ele>
        <time>2025-01-22T08:18:47.953Z</time>
      </trkpt>
      <trkpt lat="46.71896" lon="-1.97224">
        <ele>9</ele>
        <time>2025-01-22T08:18:48.952Z</time>
      </trkpt>
      <trkpt lat="46.71893" lon="-1.97226">
        <ele>9</ele>
        <time>2025-01-22T08:18:49.953Z</time>
      </trkpt>
      <trkpt lat="46.71891" lon="-1.97228">
        <ele>9</ele>
        <time>2025-01-22T08:18:50.952Z</time>
      </trkpt>
      <trkpt lat="46.7189" lon="-1.9723">
        <ele>9</ele>
        <time>2025-01-22T08:18:51.953Z</time>
      </trkpt>
      <trkpt lat="46.71889" lon="-1.97232">
        <ele>9</ele>
        <time>2025-01-22T08:18:52.952Z</time>
      </trkpt>
      <trkpt lat="46.71887" lon="-1.97235">
        <ele>9</ele>
        <time>2025-01-22T08:18:53.953Z</time>
      </trkpt>
      <trkpt lat="46.71885" lon="-1.97238">
        <ele>9</ele>
        <time>2025-01-22T08:18:54.953Z</time>
      </trkpt>
      <trkpt lat="46.71884" lon="-1.9724">
        <ele>9</ele>
        <time>2025-01-22T08:18:55.952Z</time>
      </trkpt>
      <trkpt lat="46.71882" lon="-1.97243">
        <ele>9</ele>
        <time>2025-01-22T08:18:56.952Z</time>
      </trkpt>
      <trkpt lat="46.7188" lon="-1.97246">
        <ele>9</ele>
        <time>2025-01-22T08:18:57.952Z</time>
      </trkpt>
      <trkpt lat="46.71878" lon="-1.97248">
        <ele>9</ele>
        <time>2025-01-22T08:18:58.952Z</time>
      </trkpt>
      <trkpt lat="46.71877" lon="-1.97251">
        <ele>9</ele>
        <time>2025-01-22T08:18:59.952Z</time>
      </trkpt>
      <trkpt lat="46.71876" lon="-1.97252">
        <ele>9</ele>
        <time>2025-01-22T08:19:00.953Z</time>
      </trkpt>
      <trkpt lat="46.71875" lon="-1.97253">
        <ele>9</ele>
        <time>2025-01-22T08:19:01.953Z</time>
      </trkpt>
      <trkpt lat="46.71874" lon="-1.97255">
        <ele>9</ele>
        <time>2025-01-22T08:19:02.953Z</time>
      </trkpt>
      <trkpt lat="46.71873" lon="-1.97257">
        <ele>9</ele>
        <time>2025-01-22T08:19:03.952Z</time>
      </trkpt>
      <trkpt lat="46.71871" lon="-1.97259">
        <ele>9</ele>
        <time>2025-01-22T08:19:04.953Z</time>
      </trkpt>
      <trkpt lat="46.7187" lon="-1.97261">
        <ele>9</ele>
        <time>2025-01-22T08:19:05.952Z</time>
      </trkpt>
      <trkpt lat="46.71867" lon="-1.97263">
        <ele>9</ele>
        <time>2025-01-22T08:19:06.952Z</time>
      </trkpt>
      <trkpt lat="46.71865" lon="-1.97265">
        <ele>9</ele>
        <time>2025-01-22T08:19:07.952Z</time>
      </trkpt>
      <trkpt lat="46.71862" lon="-1.97267">
        <ele>9</ele>
        <time>2025-01-22T08:19:08.952Z</time>
      </trkpt>
      <trkpt lat="46.71859" lon="-1.9727">
        <ele>9</ele>
        <time>2025-01-22T08:19:09.952Z</time>
      </trkpt>
      <trkpt lat="46.71857" lon="-1.97273">
        <ele>9</ele>
        <time>2025-01-22T08:19:10.952Z</time>
      </trkpt>
      <trkpt lat="46.71854" lon="-1.97277">
        <ele>9</ele>
        <time>2025-01-22T08:19:11.953Z</time>
      </trkpt>
      <trkpt lat="46.71851" lon="-1.97281">
        <ele>8.9</ele>
        <time>2025-01-22T08:19:12.952Z</time>
      </trkpt>
      <trkpt lat="46.71848" lon="-1.97285">
        <ele>8.8</ele>
        <time>2025-01-22T08:19:13.953Z</time>
      </trkpt>
      <trkpt lat="46.71846" lon="-1.97289">
        <ele>8.6</ele>
        <time>2025-01-22T08:19:14.953Z</time>
      </trkpt>
      <trkpt lat="46.71844" lon="-1.97292">
        <ele>8.5</ele>
        <time>2025-01-22T08:19:15.953Z</time>
      </trkpt>
      <trkpt lat="46.71841" lon="-1.97295">
        <ele>8.4</ele>
        <time>2025-01-22T08:19:16.952Z</time>
      </trkpt>
      <trkpt lat="46.71839" lon="-1.97297">
        <ele>8.3</ele>
        <time>2025-01-22T08:19:17.953Z</time>
      </trkpt>
      <trkpt lat="46.71837" lon="-1.973">
        <ele>8.2</ele>
        <time>2025-01-22T08:19:18.952Z</time>
      </trkpt>
      <trkpt lat="46.71835" lon="-1.97304">
        <ele>8.1</ele>
        <time>2025-01-22T08:19:19.953Z</time>
      </trkpt>
      <trkpt lat="46.71834" lon="-1.97305">
        <ele>8</ele>
        <time>2025-01-22T08:19:20.953Z</time>
      </trkpt>
      <trkpt lat="46.71833" lon="-1.97307">
        <ele>7.9</ele>
        <time>2025-01-22T08:19:21.953Z</time>
      </trkpt>
      <trkpt lat="46.7183" lon="-1.9731">
        <ele>8</ele>
        <time>2025-01-22T08:19:22.953Z</time>
      </trkpt>
      <trkpt lat="46.71828" lon="-1.97314">
        <ele>7.9</ele>
        <time>2025-01-22T08:19:23.953Z</time>
      </trkpt>
      <trkpt lat="46.71826" lon="-1.97317">
        <ele>7.8</ele>
        <time>2025-01-22T08:19:24.953Z</time>
      </trkpt>
      <trkpt lat="46.71824" lon="-1.97322">
        <ele>7.8</ele>
        <time>2025-01-22T08:19:25.953Z</time>
      </trkpt>
      <trkpt lat="46.71823" lon="-1.97324">
        <ele>7.7</ele>
        <time>2025-01-22T08:19:26.952Z</time>
      </trkpt>
      <trkpt lat="46.71821" lon="-1.97328">
        <ele>7.6</ele>
        <time>2025-01-22T08:19:27.952Z</time>
      </trkpt>
      <trkpt lat="46.7182" lon="-1.97331">
        <ele>7.6</ele>
        <time>2025-01-22T08:19:28.952Z</time>
      </trkpt>
      <trkpt lat="46.71819" lon="-1.97334">
        <ele>7.5</ele>
        <time>2025-01-22T08:19:29.952Z</time>
      </trkpt>
      <trkpt lat="46.71818" lon="-1.97337">
        <ele>7.6</ele>
        <time>2025-01-22T08:19:30.952Z</time>
      </trkpt>
      <trkpt lat="46.71817" lon="-1.9734">
        <ele>7.6</ele>
        <time>2025-01-22T08:19:31.952Z</time>
      </trkpt>
      <trkpt lat="46.71815" lon="-1.97342">
        <ele>7.6</ele>
        <time>2025-01-22T08:19:32.952Z</time>
      </trkpt>
      <trkpt lat="46.71813" lon="-1.97346">
        <ele>7.7</ele>
        <time>2025-01-22T08:19:33.953Z</time>
      </trkpt>
      <trkpt lat="46.7181" lon="-1.97351">
        <ele>7.8</ele>
        <time>2025-01-22T08:19:34.952Z</time>
      </trkpt>
      <trkpt lat="46.71809" lon="-1.97356">
        <ele>7.9</ele>
        <time>2025-01-22T08:19:35.953Z</time>
      </trkpt>
      <trkpt lat="46.71808" lon="-1.9736">
        <ele>7.9</ele>
        <time>2025-01-22T08:19:36.953Z</time>
      </trkpt>
      <trkpt lat="46.71808" lon="-1.97363">
        <ele>7.9</ele>
        <time>2025-01-22T08:19:37.953Z</time>
      </trkpt>
      <trkpt lat="46.71807" lon="-1.97365">
        <ele>8</ele>
        <time>2025-01-22T08:19:38.953Z</time>
      </trkpt>
      <trkpt lat="46.71805" lon="-1.97368">
        <ele>8</ele>
        <time>2025-01-22T08:19:39.953Z</time>
      </trkpt>
      <trkpt lat="46.71803" lon="-1.97372">
        <ele>8.1</ele>
        <time>2025-01-22T08:19:40.952Z</time>
      </trkpt>
      <trkpt lat="46.71802" lon="-1.97376">
        <ele>8.1</ele>
        <time>2025-01-22T08:19:41.953Z</time>
      </trkpt>
      <trkpt lat="46.71801" lon="-1.97379">
        <ele>8.2</ele>
        <time>2025-01-22T08:19:42.952Z</time>
      </trkpt>
      <trkpt lat="46.718" lon="-1.97383">
        <ele>8.2</ele>
        <time>2025-01-22T08:19:43.953Z</time>
      </trkpt>
      <trkpt lat="46.71799" lon="-1.97385">
        <ele>8.2</ele>
        <time>2025-01-22T08:19:44.953Z</time>
      </trkpt>
      <trkpt lat="46.71798" lon="-1.97388">
        <ele>8.3</ele>
        <time>2025-01-22T08:19:45.953Z</time>
      </trkpt>
      <trkpt lat="46.71797" lon="-1.97392">
        <ele>8.3</ele>
        <time>2025-01-22T08:19:46.952Z</time>
      </trkpt>
      <trkpt lat="46.71796" lon="-1.97395">
        <ele>8.3</ele>
        <time>2025-01-22T08:19:47.953Z</time>
      </trkpt>
      <trkpt lat="46.71794" lon="-1.97398">
        <ele>8.3</ele>
        <time>2025-01-22T08:19:48.953Z</time>
      </trkpt>
      <trkpt lat="46.71792" lon="-1.97401">
        <ele>8.3</ele>
        <time>2025-01-22T08:19:49.953Z</time>
      </trkpt>
      <trkpt lat="46.7179" lon="-1.97405">
        <ele>8.2</ele>
        <time>2025-01-22T08:19:50.953Z</time>
      </trkpt>
      <trkpt lat="46.71788" lon="-1.97409">
        <ele>8.2</ele>
        <time>2025-01-22T08:19:51.953Z</time>
      </trkpt>
      <trkpt lat="46.71787" lon="-1.97411">
        <ele>8.1</ele>
        <time>2025-01-22T08:19:52.952Z</time>
      </trkpt>
      <trkpt lat="46.71786" lon="-1.97414">
        <ele>8.1</ele>
        <time>2025-01-22T08:19:53.953Z</time>
      </trkpt>
      <trkpt lat="46.71784" lon="-1.97417">
        <ele>8</ele>
        <time>2025-01-22T08:19:54.952Z</time>
      </trkpt>
      <trkpt lat="46.71784" lon="-1.97419">
        <ele>8.1</ele>
        <time>2025-01-22T08:19:55.952Z</time>
      </trkpt>
      <trkpt lat="46.71783" lon="-1.97421">
        <ele>8.1</ele>
        <time>2025-01-22T08:19:56.952Z</time>
      </trkpt>
      <trkpt lat="46.71782" lon="-1.97423">
        <ele>8.2</ele>
        <time>2025-01-22T08:19:57.952Z</time>
      </trkpt>
      <trkpt lat="46.7178" lon="-1.97425">
        <ele>8.3</ele>
        <time>2025-01-22T08:19:58.953Z</time>
      </trkpt>
      <trkpt lat="46.71779" lon="-1.97427">
        <ele>8.4</ele>
        <time>2025-01-22T08:19:59.953Z</time>
      </trkpt>
      <trkpt lat="46.71778" lon="-1.9743">
        <ele>8.5</ele>
        <time>2025-01-22T08:20:00.952Z</time>
      </trkpt>
      <trkpt lat="46.71777" lon="-1.97433">
        <ele>8.6</ele>
        <time>2025-01-22T08:20:01.952Z</time>
      </trkpt>
      <trkpt lat="46.71775" lon="-1.97437">
        <ele>8.7</ele>
        <time>2025-01-22T08:20:02.952Z</time>
      </trkpt>
      <trkpt lat="46.71774" lon="-1.9744">
        <ele>8.9</ele>
        <time>2025-01-22T08:20:03.953Z</time>
      </trkpt>
      <trkpt lat="46.71773" lon="-1.97444">
        <ele>9</ele>
        <time>2025-01-22T08:20:04.952Z</time>
      </trkpt>
      <trkpt lat="46.71771" lon="-1.97447">
        <ele>9.1</ele>
        <time>2025-01-22T08:20:05.952Z</time>
      </trkpt>
      <trkpt lat="46.7177" lon="-1.97451">
        <ele>9.1</ele>
        <time>2025-01-22T08:20:06.952Z</time>
      </trkpt>
      <trkpt lat="46.71768" lon="-1.97454">
        <ele>9.1</ele>
        <time>2025-01-22T08:20:07.952Z</time>
      </trkpt>
      <trkpt lat="46.71766" lon="-1.97458">
        <ele>9.1</ele>
        <time>2025-01-22T08:20:08.953Z</time>
      </trkpt>
      <trkpt lat="46.71765" lon="-1.97462">
        <ele>9</ele>
        <time>2025-01-22T08:20:09.953Z</time>
      </trkpt>
      <trkpt lat="46.71764" lon="-1.97464">
        <ele>9</ele>
        <time>2025-01-22T08:20:10.952Z</time>
      </trkpt>
      <trkpt lat="46.71763" lon="-1.97467">
        <ele>9</ele>
        <time>2025-01-22T08:20:11.952Z</time>
      </trkpt>
      <trkpt lat="46.71763" lon="-1.97468">
        <ele>8.9</ele>
        <time>2025-01-22T08:20:12.952Z</time>
      </trkpt>
      <trkpt lat="46.71762" lon="-1.97471">
        <ele>8.9</ele>
        <time>2025-01-22T08:20:13.952Z</time>
      </trkpt>
      <trkpt lat="46.71762" lon="-1.97473">
        <ele>8.8</ele>
        <time>2025-01-22T08:20:14.953Z</time>
      </trkpt>
      <trkpt lat="46.71761" lon="-1.97476">
        <ele>8.6</ele>
        <time>2025-01-22T08:20:15.952Z</time>
      </trkpt>
      <trkpt lat="46.7176" lon="-1.97478">
        <ele>8.4</ele>
        <time>2025-01-22T08:20:16.953Z</time>
      </trkpt>
      <trkpt lat="46.7176" lon="-1.9748">
        <ele>8.2</ele>
        <time>2025-01-22T08:20:17.953Z</time>
      </trkpt>
      <trkpt lat="46.71759" lon="-1.97481">
        <ele>8.1</ele>
        <time>2025-01-22T08:20:18.952Z</time>
      </trkpt>
      <trkpt lat="46.71758" lon="-1.97483">
        <ele>7.9</ele>
        <time>2025-01-22T08:20:19.952Z</time>
      </trkpt>
      <trkpt lat="46.71756" lon="-1.97485">
        <ele>7.6</ele>
        <time>2025-01-22T08:20:20.952Z</time>
      </trkpt>
      <trkpt lat="46.71754" lon="-1.97487">
        <ele>7.3</ele>
        <time>2025-01-22T08:20:21.952Z</time>
      </trkpt>
      <trkpt lat="46.71753" lon="-1.9749">
        <ele>7</ele>
        <time>2025-01-22T08:20:22.952Z</time>
      </trkpt>
      <trkpt lat="46.71751" lon="-1.97492">
        <ele>6.7</ele>
        <time>2025-01-22T08:20:23.952Z</time>
      </trkpt>
      <trkpt lat="46.71751" lon="-1.97495">
        <ele>6.4</ele>
        <time>2025-01-22T08:20:24.952Z</time>
      </trkpt>
      <trkpt lat="46.71749" lon="-1.97498">
        <ele>6.2</ele>
        <time>2025-01-22T08:20:25.953Z</time>
      </trkpt>
      <trkpt lat="46.71746" lon="-1.97502">
        <ele>5.9</ele>
        <time>2025-01-22T08:20:26.953Z</time>
      </trkpt>
      <trkpt lat="46.71744" lon="-1.97506">
        <ele>5.8</ele>
        <time>2025-01-22T08:20:27.953Z</time>
      </trkpt>
      <trkpt lat="46.71742" lon="-1.97509">
        <ele>5.8</ele>
        <time>2025-01-22T08:20:28.953Z</time>
      </trkpt>
      <trkpt lat="46.71742" lon="-1.97512">
        <ele>5.7</ele>
        <time>2025-01-22T08:20:29.952Z</time>
      </trkpt>
      <trkpt lat="46.71741" lon="-1.97515">
        <ele>5.6</ele>
        <time>2025-01-22T08:20:30.952Z</time>
      </trkpt>
      <trkpt lat="46.7174" lon="-1.97518">
        <ele>5.6</ele>
        <time>2025-01-22T08:20:31.952Z</time>
      </trkpt>
      <trkpt lat="46.71741" lon="-1.97521">
        <ele>5.5</ele>
        <time>2025-01-22T08:20:32.952Z</time>
      </trkpt>
      <trkpt lat="46.7174" lon="-1.97523">
        <ele>5.5</ele>
        <time>2025-01-22T08:20:33.952Z</time>
      </trkpt>
      <trkpt lat="46.7174" lon="-1.97526">
        <ele>5.4</ele>
        <time>2025-01-22T08:20:34.952Z</time>
      </trkpt>
      <trkpt lat="46.71739" lon="-1.9753">
        <ele>5.4</ele>
        <time>2025-01-22T08:20:35.953Z</time>
      </trkpt>
      <trkpt lat="46.71739" lon="-1.97532">
        <ele>5.4</ele>
        <time>2025-01-22T08:20:36.953Z</time>
      </trkpt>
      <trkpt lat="46.71738" lon="-1.97535">
        <ele>5.4</ele>
        <time>2025-01-22T08:20:37.952Z</time>
      </trkpt>
      <trkpt lat="46.71737" lon="-1.97538">
        <ele>5.5</ele>
        <time>2025-01-22T08:20:38.952Z</time>
      </trkpt>
      <trkpt lat="46.71736" lon="-1.97541">
        <ele>5.5</ele>
        <time>2025-01-22T08:20:39.952Z</time>
      </trkpt>
      <trkpt lat="46.71735" lon="-1.97544">
        <ele>5.5</ele>
        <time>2025-01-22T08:20:40.952Z</time>
      </trkpt>
      <trkpt lat="46.71734" lon="-1.97546">
        <ele>5.6</ele>
        <time>2025-01-22T08:20:41.953Z</time>
      </trkpt>
      <trkpt lat="46.71733" lon="-1.97549">
        <ele>5.6</ele>
        <time>2025-01-22T08:20:42.953Z</time>
      </trkpt>
      <trkpt lat="46.71732" lon="-1.97555">
        <ele>5.6</ele>
        <time>2025-01-22T08:20:43.952Z</time>
      </trkpt>
      <trkpt lat="46.71732" lon="-1.97561">
        <ele>5.7</ele>
        <time>2025-01-22T08:20:44.953Z</time>
      </trkpt>
      <trkpt lat="46.7173" lon="-1.97566">
        <ele>5.8</ele>
        <time>2025-01-22T08:20:45.953Z</time>
      </trkpt>
      <trkpt lat="46.71728" lon="-1.97571">
        <ele>5.9</ele>
        <time>2025-01-22T08:20:46.953Z</time>
      </trkpt>
      <trkpt lat="46.71727" lon="-1.97576">
        <ele>6</ele>
        <time>2025-01-22T08:20:47.952Z</time>
      </trkpt>
      <trkpt lat="46.71727" lon="-1.97581">
        <ele>6</ele>
        <time>2025-01-22T08:20:48.952Z</time>
      </trkpt>
      <trkpt lat="46.71726" lon="-1.97585">
        <ele>5.9</ele>
        <time>2025-01-22T08:20:49.953Z</time>
      </trkpt>
      <trkpt lat="46.71725" lon="-1.9759">
        <ele>5.8</ele>
        <time>2025-01-22T08:20:50.953Z</time>
      </trkpt>
      <trkpt lat="46.71724" lon="-1.97595">
        <ele>5.6</ele>
        <time>2025-01-22T08:20:51.952Z</time>
      </trkpt>
      <trkpt lat="46.71724" lon="-1.97601">
        <ele>5.4</ele>
        <time>2025-01-22T08:20:52.953Z</time>
      </trkpt>
      <trkpt lat="46.71723" lon="-1.97607">
        <ele>5.2</ele>
        <time>2025-01-22T08:20:53.952Z</time>
      </trkpt>
      <trkpt lat="46.71722" lon="-1.97611">
        <ele>5</ele>
        <time>2025-01-22T08:20:54.953Z</time>
      </trkpt>
      <trkpt lat="46.71722" lon="-1.97615">
        <ele>5</ele>
        <time>2025-01-22T08:20:55.953Z</time>
      </trkpt>
      <trkpt lat="46.71721" lon="-1.9762">
        <ele>5</ele>
        <time>2025-01-22T08:20:56.952Z</time>
      </trkpt>
      <trkpt lat="46.71721" lon="-1.97624">
        <ele>5.1</ele>
        <time>2025-01-22T08:20:57.953Z</time>
      </trkpt>
      <trkpt lat="46.7172" lon="-1.97628">
        <ele>5.1</ele>
        <time>2025-01-22T08:20:58.952Z</time>
      </trkpt>
      <trkpt lat="46.7172" lon="-1.97633">
        <ele>5.1</ele>
        <time>2025-01-22T08:20:59.952Z</time>
      </trkpt>
      <trkpt lat="46.71719" lon="-1.97637">
        <ele>5.1</ele>
        <time>2025-01-22T08:21:00.952Z</time>
      </trkpt>
      <trkpt lat="46.71719" lon="-1.97641">
        <ele>5.1</ele>
        <time>2025-01-22T08:21:01.952Z</time>
      </trkpt>
      <trkpt lat="46.71718" lon="-1.97645">
        <ele>5.2</ele>
        <time>2025-01-22T08:21:02.953Z</time>
      </trkpt>
      <trkpt lat="46.71718" lon="-1.97649">
        <ele>5.2</ele>
        <time>2025-01-22T08:21:03.953Z</time>
      </trkpt>
      <trkpt lat="46.71718" lon="-1.97652">
        <ele>5.2</ele>
        <time>2025-01-22T08:21:04.953Z</time>
      </trkpt>
      <trkpt lat="46.71717" lon="-1.97656">
        <ele>5.2</ele>
        <time>2025-01-22T08:21:05.953Z</time>
      </trkpt>
      <trkpt lat="46.71718" lon="-1.9766">
        <ele>5.2</ele>
        <time>2025-01-22T08:21:06.953Z</time>
      </trkpt>
      <trkpt lat="46.71718" lon="-1.97665">
        <ele>5.2</ele>
        <time>2025-01-22T08:21:07.953Z</time>
      </trkpt>
      <trkpt lat="46.71718" lon="-1.97668">
        <ele>5.2</ele>
        <time>2025-01-22T08:21:08.952Z</time>
      </trkpt>
      <trkpt lat="46.71717" lon="-1.97672">
        <ele>5.2</ele>
        <time>2025-01-22T08:21:09.953Z</time>
      </trkpt>
      <trkpt lat="46.71717" lon="-1.97676">
        <ele>5.2</ele>
        <time>2025-01-22T08:21:10.952Z</time>
      </trkpt>
      <trkpt lat="46.71716" lon="-1.9768">
        <ele>5.2</ele>
        <time>2025-01-22T08:21:11.952Z</time>
      </trkpt>
      <trkpt lat="46.71715" lon="-1.97684">
        <ele>5.2</ele>
        <time>2025-01-22T08:21:12.952Z</time>
      </trkpt>
      <trkpt lat="46.71715" lon="-1.97687">
        <ele>5.3</ele>
        <time>2025-01-22T08:21:13.952Z</time>
      </trkpt>
      <trkpt lat="46.71715" lon="-1.97691">
        <ele>5.3</ele>
        <time>2025-01-22T08:21:14.953Z</time>
      </trkpt>
      <trkpt lat="46.71714" lon="-1.97695">
        <ele>5.3</ele>
        <time>2025-01-22T08:21:15.953Z</time>
      </trkpt>
      <trkpt lat="46.71714" lon="-1.97699">
        <ele>5.3</ele>
        <time>2025-01-22T08:21:16.953Z</time>
      </trkpt>
      <trkpt lat="46.71714" lon="-1.97703">
        <ele>5.3</ele>
        <time>2025-01-22T08:21:17.953Z</time>
      </trkpt>
      <trkpt lat="46.71714" lon="-1.97707">
        <ele>5.3</ele>
        <time>2025-01-22T08:21:18.952Z</time>
      </trkpt>
      <trkpt lat="46.71713" lon="-1.97711">
        <ele>5.3</ele>
        <time>2025-01-22T08:21:19.952Z</time>
      </trkpt>
      <trkpt lat="46.71713" lon="-1.97714">
        <ele>5.3</ele>
        <time>2025-01-22T08:21:20.952Z</time>
      </trkpt>
      <trkpt lat="46.71713" lon="-1.97719">
        <ele>5.3</ele>
        <time>2025-01-22T08:21:21.952Z</time>
      </trkpt>
      <trkpt lat="46.71713" lon="-1.97721">
        <ele>5.3</ele>
        <time>2025-01-22T08:21:22.953Z</time>
      </trkpt>
      <trkpt lat="46.71712" lon="-1.97725">
        <ele>5.4</ele>
        <time>2025-01-22T08:21:23.952Z</time>
      </trkpt>
      <trkpt lat="46.71712" lon="-1.97728">
        <ele>5.4</ele>
        <time>2025-01-22T08:21:24.953Z</time>
      </trkpt>
      <trkpt lat="46.71712" lon="-1.97732">
        <ele>5.5</ele>
        <time>2025-01-22T08:21:25.953Z</time>
      </trkpt>
      <trkpt lat="46.71711" lon="-1.97736">
        <ele>5.6</ele>
        <time>2025-01-22T08:21:26.953Z</time>
      </trkpt>
      <trkpt lat="46.7171" lon="-1.97739">
        <ele>5.7</ele>
        <time>2025-01-22T08:21:27.952Z</time>
      </trkpt>
      <trkpt lat="46.7171" lon="-1.97742">
        <ele>5.8</ele>
        <time>2025-01-22T08:21:28.953Z</time>
      </trkpt>
      <trkpt lat="46.71709" lon="-1.97745">
        <ele>5.9</ele>
        <time>2025-01-22T08:21:29.952Z</time>
      </trkpt>
      <trkpt lat="46.71709" lon="-1.97749">
        <ele>6</ele>
        <time>2025-01-22T08:21:30.953Z</time>
      </trkpt>
      <trkpt lat="46.71708" lon="-1.97752">
        <ele>6</ele>
        <time>2025-01-22T08:21:31.953Z</time>
      </trkpt>
      <trkpt lat="46.71707" lon="-1.97755">
        <ele>6</ele>
        <time>2025-01-22T08:21:32.952Z</time>
      </trkpt>
      <trkpt lat="46.71706" lon="-1.97758">
        <ele>6</ele>
        <time>2025-01-22T08:21:33.953Z</time>
      </trkpt>
      <trkpt lat="46.71705" lon="-1.97761">
        <ele>6</ele>
        <time>2025-01-22T08:21:34.953Z</time>
      </trkpt>
      <trkpt lat="46.71705" lon="-1.97764">
        <ele>5.9</ele>
        <time>2025-01-22T08:21:35.953Z</time>
      </trkpt>
      <trkpt lat="46.71704" lon="-1.97767">
        <ele>5.9</ele>
        <time>2025-01-22T08:21:36.952Z</time>
      </trkpt>
      <trkpt lat="46.71704" lon="-1.97769">
        <ele>5.9</ele>
        <time>2025-01-22T08:21:37.953Z</time>
      </trkpt>
      <trkpt lat="46.71703" lon="-1.97772">
        <ele>5.8</ele>
        <time>2025-01-22T08:21:38.952Z</time>
      </trkpt>
      <trkpt lat="46.71703" lon="-1.97775">
        <ele>5.8</ele>
        <time>2025-01-22T08:21:39.953Z</time>
      </trkpt>
      <trkpt lat="46.71703" lon="-1.97779">
        <ele>5.7</ele>
        <time>2025-01-22T08:21:40.952Z</time>
      </trkpt>
      <trkpt lat="46.71703" lon="-1.97783">
        <ele>5.8</ele>
        <time>2025-01-22T08:21:41.952Z</time>
      </trkpt>
      <trkpt lat="46.71702" lon="-1.97786">
        <ele>5.8</ele>
        <time>2025-01-22T08:21:42.952Z</time>
      </trkpt>
      <trkpt lat="46.71702" lon="-1.9779">
        <ele>5.8</ele>
        <time>2025-01-22T08:21:43.952Z</time>
      </trkpt>
      <trkpt lat="46.71701" lon="-1.97793">
        <ele>5.9</ele>
        <time>2025-01-22T08:21:44.952Z</time>
      </trkpt>
      <trkpt lat="46.71701" lon="-1.97796">
        <ele>5.9</ele>
        <time>2025-01-22T08:21:45.953Z</time>
      </trkpt>
      <trkpt lat="46.717" lon="-1.978">
        <ele>6</ele>
        <time>2025-01-22T08:21:46.952Z</time>
      </trkpt>
      <trkpt lat="46.71699" lon="-1.97803">
        <ele>6</ele>
        <time>2025-01-22T08:21:47.953Z</time>
      </trkpt>
      <trkpt lat="46.71699" lon="-1.97805">
        <ele>6</ele>
        <time>2025-01-22T08:21:48.953Z</time>
      </trkpt>
      <trkpt lat="46.71698" lon="-1.97808">
        <ele>6.1</ele>
        <time>2025-01-22T08:21:49.952Z</time>
      </trkpt>
      <trkpt lat="46.71698" lon="-1.97809">
        <ele>6.1</ele>
        <time>2025-01-22T08:21:50.952Z</time>
      </trkpt>
      <trkpt lat="46.71697" lon="-1.97809">
        <ele>6.1</ele>
        <time>2025-01-22T08:21:51.952Z</time>
      </trkpt>
      <trkpt lat="46.71697" lon="-1.97809">
        <ele>6.1</ele>
        <time>2025-01-22T08:21:52.952Z</time>
      </trkpt>
      <trkpt lat="46.71697" lon="-1.97809">
        <ele>6.1</ele>
        <time>2025-01-22T08:21:53.952Z</time>
      </trkpt>
      <trkpt lat="46.71697" lon="-1.97809">
        <ele>6.1</ele>
        <time>2025-01-22T08:21:54.952Z</time>
      </trkpt>
      <trkpt lat="46.71697" lon="-1.9781">
        <ele>6.1</ele>
        <time>2025-01-22T08:21:55.953Z</time>
      </trkpt>
      <trkpt lat="46.71697" lon="-1.9781">
        <ele>6.1</ele>
        <time>2025-01-22T08:21:56.953Z</time>
      </trkpt>
      <trkpt lat="46.71697" lon="-1.97809">
        <ele>6.1</ele>
        <time>2025-01-22T08:21:57.953Z</time>
      </trkpt>
      <trkpt lat="46.71697" lon="-1.97809">
        <ele>6.1</ele>
        <time>2025-01-22T08:21:58.953Z</time>
      </trkpt>
      <trkpt lat="46.71697" lon="-1.97809">
        <ele>6.1</ele>
        <time>2025-01-22T08:21:59.952Z</time>
      </trkpt>
      <trkpt lat="46.71697" lon="-1.97809">
        <ele>6.1</ele>
        <time>2025-01-22T08:22:00.952Z</time>
      </trkpt>
      <trkpt lat="46.71697" lon="-1.97809">
        <ele>6.1</ele>
        <time>2025-01-22T08:22:01.952Z</time>
      </trkpt>
      <trkpt lat="46.71697" lon="-1.97809">
        <ele>6.1</ele>
        <time>2025-01-22T08:22:02.952Z</time>
      </trkpt>
      <trkpt lat="46.71697" lon="-1.97809">
        <ele>6.1</ele>
        <time>2025-01-22T08:22:03.952Z</time>
      </trkpt>
      <trkpt lat="46.71697" lon="-1.97809">
        <ele>6.1</ele>
        <time>2025-01-22T08:22:04.952Z</time>
      </trkpt>
      <trkpt lat="46.71697" lon="-1.97809">
        <ele>6.1</ele>
        <time>2025-01-22T08:22:05.952Z</time>
      </trkpt>
      <trkpt lat="46.71697" lon="-1.97809">
        <ele>6.1</ele>
        <time>2025-01-22T08:22:06.952Z</time>
      </trkpt>
      <trkpt lat="46.71697" lon="-1.97809">
        <ele>6.1</ele>
        <time>2025-01-22T08:22:07.953Z</time>
      </trkpt>
      <trkpt lat="46.71697" lon="-1.97809">
        <ele>6.1</ele>
        <time>2025-01-22T08:22:08.952Z</time>
      </trkpt>
      <trkpt lat="46.71697" lon="-1.97809">
        <ele>6.1</ele>
        <time>2025-01-22T08:22:09.952Z</time>
      </trkpt>
      <trkpt lat="46.71697" lon="-1.97809">
        <ele>6.1</ele>
        <time>2025-01-22T08:22:10.952Z</time>
      </trkpt>
      <trkpt lat="46.71697" lon="-1.97809">
        <ele>6.1</ele>
        <time>2025-01-22T08:22:11.952Z</time>
      </trkpt>
      <trkpt lat="46.71697" lon="-1.97809">
        <ele>6.1</ele>
        <time>2025-01-22T08:22:12.952Z</time>
      </trkpt>
      <trkpt lat="46.71697" lon="-1.97809">
        <ele>6.1</ele>
        <time>2025-01-22T08:22:13.952Z</time>
      </trkpt>
      <trkpt lat="46.71697" lon="-1.97809">
        <ele>6.1</ele>
        <time>2025-01-22T08:22:14.952Z</time>
      </trkpt>
      <trkpt lat="46.71697" lon="-1.97809">
        <ele>6.1</ele>
        <time>2025-01-22T08:22:15.952Z</time>
      </trkpt>
      <trkpt lat="46.71697" lon="-1.97809">
        <ele>6.1</ele>
        <time>2025-01-22T08:22:16.952Z</time>
      </trkpt>
      <trkpt lat="46.71697" lon="-1.97809">
        <ele>6.1</ele>
        <time>2025-01-22T08:22:17.952Z</time>
      </trkpt>
      <trkpt lat="46.71697" lon="-1.97809">
        <ele>6.1</ele>
        <time>2025-01-22T08:22:18.953Z</time>
      </trkpt>
      <trkpt lat="46.71697" lon="-1.97809">
        <ele>6.1</ele>
        <time>2025-01-22T08:22:19.952Z</time>
      </trkpt>
      <trkpt lat="46.71697" lon="-1.97809">
        <ele>6.1</ele>
        <time>2025-01-22T08:22:20.952Z</time>
      </trkpt>
      <trkpt lat="46.71697" lon="-1.97809">
        <ele>6.1</ele>
        <time>2025-01-22T08:22:21.952Z</time>
      </trkpt>
      <trkpt lat="46.71697" lon="-1.97809">
        <ele>6.1</ele>
        <time>2025-01-22T08:22:22.953Z</time>
      </trkpt>
      <trkpt lat="46.71697" lon="-1.97809">
        <ele>6.1</ele>
        <time>2025-01-22T08:22:23.952Z</time>
      </trkpt>
      <trkpt lat="46.71697" lon="-1.97809">
        <ele>6.1</ele>
        <time>2025-01-22T08:22:24.952Z</time>
      </trkpt>
      <trkpt lat="46.71697" lon="-1.97809">
        <ele>6.1</ele>
        <time>2025-01-22T08:22:25.953Z</time>
      </trkpt>
      <trkpt lat="46.71697" lon="-1.97809">
        <ele>6.1</ele>
        <time>2025-01-22T08:22:26.953Z</time>
      </trkpt>
      <trkpt lat="46.71697" lon="-1.97809">
        <ele>6.1</ele>
        <time>2025-01-22T08:22:27.953Z</time>
      </trkpt>
      <trkpt lat="46.71697" lon="-1.97809">
        <ele>6.1</ele>
        <time>2025-01-22T08:22:28.953Z</time>
      </trkpt>
      <trkpt lat="46.71697" lon="-1.97809">
        <ele>6.1</ele>
        <time>2025-01-22T08:22:29.952Z</time>
      </trkpt>
      <trkpt lat="46.71697" lon="-1.97809">
        <ele>6.1</ele>
        <time>2025-01-22T08:22:30.952Z</time>
      </trkpt>
      <trkpt lat="46.71697" lon="-1.97809">
        <ele>6.1</ele>
        <time>2025-01-22T08:22:31.952Z</time>
      </trkpt>
      <trkpt lat="46.71697" lon="-1.97809">
        <ele>6.1</ele>
        <time>2025-01-22T08:22:32.953Z</time>
      </trkpt>
      <trkpt lat="46.71697" lon="-1.97809">
        <ele>6.1</ele>
        <time>2025-01-22T08:22:33.952Z</time>
      </trkpt>
      <trkpt lat="46.71697" lon="-1.97809">
        <ele>6.1</ele>
        <time>2025-01-22T08:22:34.952Z</time>
      </trkpt>
      <trkpt lat="46.71697" lon="-1.97809">
        <ele>6.1</ele>
        <time>2025-01-22T08:22:35.952Z</time>
      </trkpt>
      <trkpt lat="46.71697" lon="-1.97809">
        <ele>6.1</ele>
        <time>2025-01-22T08:22:36.953Z</time>
      </trkpt>
      <trkpt lat="46.71697" lon="-1.97809">
        <ele>6.1</ele>
        <time>2025-01-22T08:22:37.953Z</time>
      </trkpt>
      <trkpt lat="46.71697" lon="-1.97809">
        <ele>6.1</ele>
        <time>2025-01-22T08:22:38.952Z</time>
      </trkpt>
      <trkpt lat="46.71697" lon="-1.97809">
        <ele>6.1</ele>
        <time>2025-01-22T08:22:39.952Z</time>
      </trkpt>
      <trkpt lat="46.71697" lon="-1.97809">
        <ele>6.1</ele>
        <time>2025-01-22T08:22:40.952Z</time>
      </trkpt>
      <trkpt lat="46.71697" lon="-1.97809">
        <ele>6.1</ele>
        <time>2025-01-22T08:22:41.952Z</time>
      </trkpt>
      <trkpt lat="46.71697" lon="-1.97809">
        <ele>6.1</ele>
        <time>2025-01-22T08:22:42.952Z</time>
      </trkpt>
      <trkpt lat="46.71697" lon="-1.97809">
        <ele>6.1</ele>
        <time>2025-01-22T08:22:43.952Z</time>
      </trkpt>
      <trkpt lat="46.71697" lon="-1.97809">
        <ele>6.1</ele>
        <time>2025-01-22T08:22:44.952Z</time>
      </trkpt>
      <trkpt lat="46.71697" lon="-1.97809">
        <ele>6.1</ele>
        <time>2025-01-22T08:22:45.952Z</time>
      </trkpt>
      <trkpt lat="46.71697" lon="-1.97809">
        <ele>6.1</ele>
        <time>2025-01-22T08:22:46.952Z</time>
      </trkpt>
      <trkpt lat="46.71697" lon="-1.97809">
        <ele>6.1</ele>
        <time>2025-01-22T08:22:47.952Z</time>
      </trkpt>
      <trkpt lat="46.71697" lon="-1.97809">
        <ele>6.1</ele>
        <time>2025-01-22T08:22:48.953Z</time>
      </trkpt>
      <trkpt lat="46.71697" lon="-1.97809">
        <ele>6.1</ele>
        <time>2025-01-22T08:22:49.952Z</time>
      </trkpt>
      <trkpt lat="46.71697" lon="-1.97809">
        <ele>6.1</ele>
        <time>2025-01-22T08:22:50.952Z</time>
      </trkpt>
      <trkpt lat="46.71697" lon="-1.97809">
        <ele>6.1</ele>
        <time>2025-01-22T08:22:51.953Z</time>
      </trkpt>
      <trkpt lat="46.71697" lon="-1.97809">
        <ele>6.1</ele>
        <time>2025-01-22T08:22:52.952Z</time>
      </trkpt>
      <trkpt lat="46.71697" lon="-1.97809">
        <ele>6.1</ele>
        <time>2025-01-22T08:22:53.952Z</time>
      </trkpt>
      <trkpt lat="46.71697" lon="-1.97809">
        <ele>6.1</ele>
        <time>2025-01-22T08:22:54.953Z</time>
      </trkpt>
      <trkpt lat="46.71697" lon="-1.97809">
        <ele>6.1</ele>
        <time>2025-01-22T08:22:55.953Z</time>
      </trkpt>
      <trkpt lat="46.71698" lon="-1.97809">
        <ele>6.1</ele>
        <time>2025-01-22T08:22:56.952Z</time>
      </trkpt>
      <trkpt lat="46.71698" lon="-1.97809">
        <ele>6.1</ele>
        <time>2025-01-22T08:22:57.953Z</time>
      </trkpt>
      <trkpt lat="46.71698" lon="-1.97809">
        <ele>6.1</ele>
        <time>2025-01-22T08:22:58.953Z</time>
      </trkpt>
      <trkpt lat="46.71698" lon="-1.97809">
        <ele>6.1</ele>
        <time>2025-01-22T08:22:59.952Z</time>
      </trkpt>
      <trkpt lat="46.71698" lon="-1.97809">
        <ele>6.1</ele>
        <time>2025-01-22T08:23:00.952Z</time>
      </trkpt>
      <trkpt lat="46.71698" lon="-1.97809">
        <ele>6.1</ele>
        <time>2025-01-22T08:23:01.953Z</time>
      </trkpt>
      <trkpt lat="46.71698" lon="-1.97809">
        <ele>6.1</ele>
        <time>2025-01-22T08:23:02.952Z</time>
      </trkpt>
      <trkpt lat="46.71698" lon="-1.97809">
        <ele>6.1</ele>
        <time>2025-01-22T08:23:03.953Z</time>
      </trkpt>
      <trkpt lat="46.71698" lon="-1.97809">
        <ele>6.1</ele>
        <time>2025-01-22T08:23:04.952Z</time>
      </trkpt>
      <trkpt lat="46.71697" lon="-1.97813">
        <ele>6.3</ele>
        <time>2025-01-22T08:23:05.952Z</time>
      </trkpt>
      <trkpt lat="46.71696" lon="-1.97817">
        <ele>6.4</ele>
        <time>2025-01-22T08:23:06.953Z</time>
      </trkpt>
      <trkpt lat="46.71695" lon="-1.97821">
        <ele>6.5</ele>
        <time>2025-01-22T08:23:07.953Z</time>
      </trkpt>
      <trkpt lat="46.71694" lon="-1.97825">
        <ele>6.7</ele>
        <time>2025-01-22T08:23:08.953Z</time>
      </trkpt>
      <trkpt lat="46.71693" lon="-1.97829">
        <ele>6.8</ele>
        <time>2025-01-22T08:23:09.953Z</time>
      </trkpt>
      <trkpt lat="46.71692" lon="-1.97833">
        <ele>6.9</ele>
        <time>2025-01-22T08:23:10.953Z</time>
      </trkpt>
      <trkpt lat="46.71691" lon="-1.97836">
        <ele>7</ele>
        <time>2025-01-22T08:23:11.953Z</time>
      </trkpt>
      <trkpt lat="46.7169" lon="-1.9784">
        <ele>7.1</ele>
        <time>2025-01-22T08:23:12.952Z</time>
      </trkpt>
      <trkpt lat="46.71688" lon="-1.97843">
        <ele>7.3</ele>
        <time>2025-01-22T08:23:13.953Z</time>
      </trkpt>
      <trkpt lat="46.71687" lon="-1.97846">
        <ele>7.4</ele>
        <time>2025-01-22T08:23:14.952Z</time>
      </trkpt>
      <trkpt lat="46.71686" lon="-1.9785">
        <ele>7.6</ele>
        <time>2025-01-22T08:23:15.953Z</time>
      </trkpt>
      <trkpt lat="46.71685" lon="-1.97853">
        <ele>7.8</ele>
        <time>2025-01-22T08:23:16.952Z</time>
      </trkpt>
      <trkpt lat="46.71684" lon="-1.97856">
        <ele>8.1</ele>
        <time>2025-01-22T08:23:17.953Z</time>
      </trkpt>
      <trkpt lat="46.71683" lon="-1.97859">
        <ele>8.3</ele>
        <time>2025-01-22T08:23:18.953Z</time>
      </trkpt>
      <trkpt lat="46.71683" lon="-1.97862">
        <ele>8.5</ele>
        <time>2025-01-22T08:23:19.953Z</time>
      </trkpt>
      <trkpt lat="46.71682" lon="-1.97866">
        <ele>8.5</ele>
        <time>2025-01-22T08:23:20.952Z</time>
      </trkpt>
      <trkpt lat="46.71682" lon="-1.97869">
        <ele>8.6</ele>
        <time>2025-01-22T08:23:21.952Z</time>
      </trkpt>
      <trkpt lat="46.71681" lon="-1.97873">
        <ele>8.7</ele>
        <time>2025-01-22T08:23:22.952Z</time>
      </trkpt>
      <trkpt lat="46.7168" lon="-1.97876">
        <ele>8.8</ele>
        <time>2025-01-22T08:23:23.952Z</time>
      </trkpt>
      <trkpt lat="46.7168" lon="-1.97879">
        <ele>8.8</ele>
        <time>2025-01-22T08:23:24.953Z</time>
      </trkpt>
      <trkpt lat="46.71679" lon="-1.97883">
        <ele>8.9</ele>
        <time>2025-01-22T08:23:25.953Z</time>
      </trkpt>
      <trkpt lat="46.71678" lon="-1.97886">
        <ele>9</ele>
        <time>2025-01-22T08:23:26.953Z</time>
      </trkpt>
      <trkpt lat="46.71677" lon="-1.9789">
        <ele>8.9</ele>
        <time>2025-01-22T08:23:27.953Z</time>
      </trkpt>
      <trkpt lat="46.71676" lon="-1.97893">
        <ele>8.7</ele>
        <time>2025-01-22T08:23:28.952Z</time>
      </trkpt>
      <trkpt lat="46.71675" lon="-1.97896">
        <ele>8.6</ele>
        <time>2025-01-22T08:23:29.952Z</time>
      </trkpt>
      <trkpt lat="46.71674" lon="-1.97899">
        <ele>8.4</ele>
        <time>2025-01-22T08:23:30.953Z</time>
      </trkpt>
      <trkpt lat="46.71673" lon="-1.97902">
        <ele>8.2</ele>
        <time>2025-01-22T08:23:31.953Z</time>
      </trkpt>
      <trkpt lat="46.71672" lon="-1.97905">
        <ele>8</ele>
        <time>2025-01-22T08:23:32.953Z</time>
      </trkpt>
      <trkpt lat="46.71671" lon="-1.97907">
        <ele>7.8</ele>
        <time>2025-01-22T08:23:33.953Z</time>
      </trkpt>
      <trkpt lat="46.7167" lon="-1.97911">
        <ele>7.5</ele>
        <time>2025-01-22T08:23:34.953Z</time>
      </trkpt>
      <trkpt lat="46.7167" lon="-1.97914">
        <ele>7.3</ele>
        <time>2025-01-22T08:23:35.952Z</time>
      </trkpt>
      <trkpt lat="46.71668" lon="-1.97918">
        <ele>7</ele>
        <time>2025-01-22T08:23:36.953Z</time>
      </trkpt>
      <trkpt lat="46.71668" lon="-1.97921">
        <ele>6.7</ele>
        <time>2025-01-22T08:23:37.952Z</time>
      </trkpt>
      <trkpt lat="46.71667" lon="-1.97925">
        <ele>6.4</ele>
        <time>2025-01-22T08:23:38.952Z</time>
      </trkpt>
      <trkpt lat="46.71666" lon="-1.97928">
        <ele>6.2</ele>
        <time>2025-01-22T08:23:39.952Z</time>
      </trkpt>
      <trkpt lat="46.71666" lon="-1.97931">
        <ele>5.9</ele>
        <time>2025-01-22T08:23:40.952Z</time>
      </trkpt>
      <trkpt lat="46.71665" lon="-1.97935">
        <ele>5.7</ele>
        <time>2025-01-22T08:23:41.952Z</time>
      </trkpt>
      <trkpt lat="46.71665" lon="-1.97938">
        <ele>5.4</ele>
        <time>2025-01-22T08:23:42.953Z</time>
      </trkpt>
      <trkpt lat="46.71666" lon="-1.97941">
        <ele>5.2</ele>
        <time>2025-01-22T08:23:43.952Z</time>
      </trkpt>
      <trkpt lat="46.71666" lon="-1.97944">
        <ele>5</ele>
        <time>2025-01-22T08:23:44.952Z</time>
      </trkpt>
      <trkpt lat="46.71667" lon="-1.97948">
        <ele>4.9</ele>
        <time>2025-01-22T08:23:45.952Z</time>
      </trkpt>
      <trkpt lat="46.71668" lon="-1.97951">
        <ele>4.8</ele>
        <time>2025-01-22T08:23:46.952Z</time>
      </trkpt>
      <trkpt lat="46.71669" lon="-1.97953">
        <ele>4.7</ele>
        <time>2025-01-22T08:23:47.952Z</time>
      </trkpt>
      <trkpt lat="46.71669" lon="-1.97956">
        <ele>4.6</ele>
        <time>2025-01-22T08:23:48.953Z</time>
      </trkpt>
      <trkpt lat="46.71671" lon="-1.97959">
        <ele>4.5</ele>
        <time>2025-01-22T08:23:49.952Z</time>
      </trkpt>
      <trkpt lat="46.71671" lon="-1.97962">
        <ele>4.4</ele>
        <time>2025-01-22T08:23:50.952Z</time>
      </trkpt>
      <trkpt lat="46.71672" lon="-1.97965">
        <ele>4.3</ele>
        <time>2025-01-22T08:23:51.953Z</time>
      </trkpt>
      <trkpt lat="46.71673" lon="-1.97968">
        <ele>4.2</ele>
        <time>2025-01-22T08:23:52.952Z</time>
      </trkpt>
      <trkpt lat="46.71674" lon="-1.97971">
        <ele>4</ele>
        <time>2025-01-22T08:23:53.952Z</time>
      </trkpt>
      <trkpt lat="46.71676" lon="-1.97974">
        <ele>3.9</ele>
        <time>2025-01-22T08:23:54.953Z</time>
      </trkpt>
      <trkpt lat="46.71677" lon="-1.97977">
        <ele>3.6</ele>
        <time>2025-01-22T08:23:55.953Z</time>
      </trkpt>
      <trkpt lat="46.71678" lon="-1.97981">
        <ele>3.4</ele>
        <time>2025-01-22T08:23:56.953Z</time>
      </trkpt>
      <trkpt lat="46.71679" lon="-1.97983">
        <ele>3.2</ele>
        <time>2025-01-22T08:23:57.953Z</time>
      </trkpt>
      <trkpt lat="46.71681" lon="-1.97987">
        <ele>3</ele>
        <time>2025-01-22T08:23:58.953Z</time>
      </trkpt>
      <trkpt lat="46.71682" lon="-1.97989">
        <ele>2.8</ele>
        <time>2025-01-22T08:23:59.952Z</time>
      </trkpt>
      <trkpt lat="46.71684" lon="-1.97992">
        <ele>2.6</ele>
        <time>2025-01-22T08:24:00.952Z</time>
      </trkpt>
      <trkpt lat="46.71685" lon="-1.97995">
        <ele>2.3</ele>
        <time>2025-01-22T08:24:01.952Z</time>
      </trkpt>
      <trkpt lat="46.71687" lon="-1.97998">
        <ele>2.2</ele>
        <time>2025-01-22T08:24:02.953Z</time>
      </trkpt>
      <trkpt lat="46.71689" lon="-1.98001">
        <ele>2</ele>
        <time>2025-01-22T08:24:03.952Z</time>
      </trkpt>
      <trkpt lat="46.71691" lon="-1.98002">
        <ele>1.9</ele>
        <time>2025-01-22T08:24:04.952Z</time>
      </trkpt>
      <trkpt lat="46.71693" lon="-1.98004">
        <ele>1.9</ele>
        <time>2025-01-22T08:24:05.953Z</time>
      </trkpt>
      <trkpt lat="46.71695" lon="-1.98005">
        <ele>1.9</ele>
        <time>2025-01-22T08:24:06.952Z</time>
      </trkpt>
      <trkpt lat="46.71697" lon="-1.98006">
        <ele>2</ele>
        <time>2025-01-22T08:24:07.953Z</time>
      </trkpt>
      <trkpt lat="46.717" lon="-1.98007">
        <ele>2.1</ele>
        <time>2025-01-22T08:24:08.953Z</time>
      </trkpt>
      <trkpt lat="46.71702" lon="-1.98007">
        <ele>2.3</ele>
        <time>2025-01-22T08:24:09.953Z</time>
      </trkpt>
      <trkpt lat="46.71705" lon="-1.98007">
        <ele>2.4</ele>
        <time>2025-01-22T08:24:10.952Z</time>
      </trkpt>
      <trkpt lat="46.71707" lon="-1.98008">
        <ele>2.4</ele>
        <time>2025-01-22T08:24:11.952Z</time>
      </trkpt>
      <trkpt lat="46.71709" lon="-1.9801">
        <ele>2.5</ele>
        <time>2025-01-22T08:24:12.953Z</time>
      </trkpt>
      <trkpt lat="46.71711" lon="-1.98011">
        <ele>2.6</ele>
        <time>2025-01-22T08:24:13.952Z</time>
      </trkpt>
      <trkpt lat="46.71713" lon="-1.98012">
        <ele>2.7</ele>
        <time>2025-01-22T08:24:14.953Z</time>
      </trkpt>
      <trkpt lat="46.71716" lon="-1.98013">
        <ele>2.7</ele>
        <time>2025-01-22T08:24:15.953Z</time>
      </trkpt>
      <trkpt lat="46.71718" lon="-1.98014">
        <ele>2.7</ele>
        <time>2025-01-22T08:24:16.953Z</time>
      </trkpt>
      <trkpt lat="46.7172" lon="-1.98016">
        <ele>2.8</ele>
        <time>2025-01-22T08:24:17.953Z</time>
      </trkpt>
      <trkpt lat="46.71722" lon="-1.98017">
        <ele>2.8</ele>
        <time>2025-01-22T08:24:18.952Z</time>
      </trkpt>
      <trkpt lat="46.71725" lon="-1.98019">
        <ele>2.7</ele>
        <time>2025-01-22T08:24:19.953Z</time>
      </trkpt>
      <trkpt lat="46.71727" lon="-1.9802">
        <ele>2.6</ele>
        <time>2025-01-22T08:24:20.952Z</time>
      </trkpt>
      <trkpt lat="46.71729" lon="-1.98022">
        <ele>2.5</ele>
        <time>2025-01-22T08:24:21.952Z</time>
      </trkpt>
      <trkpt lat="46.71732" lon="-1.98023">
        <ele>2.4</ele>
        <time>2025-01-22T08:24:22.952Z</time>
      </trkpt>
      <trkpt lat="46.71734" lon="-1.98024">
        <ele>2.4</ele>
        <time>2025-01-22T08:24:23.953Z</time>
      </trkpt>
      <trkpt lat="46.71737" lon="-1.98024">
        <ele>2.3</ele>
        <time>2025-01-22T08:24:24.953Z</time>
      </trkpt>
      <trkpt lat="46.71739" lon="-1.98025">
        <ele>2.2</ele>
        <time>2025-01-22T08:24:25.953Z</time>
      </trkpt>
      <trkpt lat="46.71742" lon="-1.98026">
        <ele>2.2</ele>
        <time>2025-01-22T08:24:26.953Z</time>
      </trkpt>
      <trkpt lat="46.71744" lon="-1.98027">
        <ele>2.1</ele>
        <time>2025-01-22T08:24:27.953Z</time>
      </trkpt>
      <trkpt lat="46.71746" lon="-1.98028">
        <ele>2</ele>
        <time>2025-01-22T08:24:28.952Z</time>
      </trkpt>
      <trkpt lat="46.71749" lon="-1.9803">
        <ele>1.9</ele>
        <time>2025-01-22T08:24:29.952Z</time>
      </trkpt>
      <trkpt lat="46.71751" lon="-1.98031">
        <ele>2</ele>
        <time>2025-01-22T08:24:30.953Z</time>
      </trkpt>
      <trkpt lat="46.71753" lon="-1.98032">
        <ele>2.1</ele>
        <time>2025-01-22T08:24:31.953Z</time>
      </trkpt>
      <trkpt lat="46.71755" lon="-1.98033">
        <ele>2.1</ele>
        <time>2025-01-22T08:24:32.953Z</time>
      </trkpt>
      <trkpt lat="46.71757" lon="-1.98035">
        <ele>2.2</ele>
        <time>2025-01-22T08:24:33.952Z</time>
      </trkpt>
      <trkpt lat="46.71759" lon="-1.98036">
        <ele>2.2</ele>
        <time>2025-01-22T08:24:34.953Z</time>
      </trkpt>
      <trkpt lat="46.71761" lon="-1.98038">
        <ele>2.3</ele>
        <time>2025-01-22T08:24:35.953Z</time>
      </trkpt>
      <trkpt lat="46.71763" lon="-1.98039">
        <ele>2.3</ele>
        <time>2025-01-22T08:24:36.952Z</time>
      </trkpt>
      <trkpt lat="46.71765" lon="-1.98041">
        <ele>2.3</ele>
        <time>2025-01-22T08:24:37.953Z</time>
      </trkpt>
      <trkpt lat="46.71767" lon="-1.98043">
        <ele>2.4</ele>
        <time>2025-01-22T08:24:38.952Z</time>
      </trkpt>
      <trkpt lat="46.71769" lon="-1.98045">
        <ele>2.3</ele>
        <time>2025-01-22T08:24:39.953Z</time>
      </trkpt>
      <trkpt lat="46.71771" lon="-1.98047">
        <ele>2.3</ele>
        <time>2025-01-22T08:24:40.952Z</time>
      </trkpt>
      <trkpt lat="46.71773" lon="-1.98048">
        <ele>2.3</ele>
        <time>2025-01-22T08:24:41.952Z</time>
      </trkpt>
      <trkpt lat="46.71775" lon="-1.9805">
        <ele>2.3</ele>
        <time>2025-01-22T08:24:42.952Z</time>
      </trkpt>
      <trkpt lat="46.71777" lon="-1.9805">
        <ele>2.3</ele>
        <time>2025-01-22T08:24:43.952Z</time>
      </trkpt>
      <trkpt lat="46.71779" lon="-1.98052">
        <ele>2.3</ele>
        <time>2025-01-22T08:24:44.952Z</time>
      </trkpt>
      <trkpt lat="46.71781" lon="-1.98053">
        <ele>2.3</ele>
        <time>2025-01-22T08:24:45.952Z</time>
      </trkpt>
      <trkpt lat="46.71783" lon="-1.98055">
        <ele>2.2</ele>
        <time>2025-01-22T08:24:46.953Z</time>
      </trkpt>
      <trkpt lat="46.71785" lon="-1.98057">
        <ele>2.2</ele>
        <time>2025-01-22T08:24:47.953Z</time>
      </trkpt>
      <trkpt lat="46.71787" lon="-1.98058">
        <ele>2.2</ele>
        <time>2025-01-22T08:24:48.952Z</time>
      </trkpt>
      <trkpt lat="46.7179" lon="-1.9806">
        <ele>2.2</ele>
        <time>2025-01-22T08:24:49.952Z</time>
      </trkpt>
      <trkpt lat="46.71792" lon="-1.98062">
        <ele>2.2</ele>
        <time>2025-01-22T08:24:50.952Z</time>
      </trkpt>
      <trkpt lat="46.71794" lon="-1.98063">
        <ele>2.2</ele>
        <time>2025-01-22T08:24:51.953Z</time>
      </trkpt>
      <trkpt lat="46.71797" lon="-1.98065">
        <ele>2.1</ele>
        <time>2025-01-22T08:24:52.953Z</time>
      </trkpt>
      <trkpt lat="46.71799" lon="-1.98066">
        <ele>2.1</ele>
        <time>2025-01-22T08:24:53.952Z</time>
      </trkpt>
      <trkpt lat="46.71801" lon="-1.98067">
        <ele>2.1</ele>
        <time>2025-01-22T08:24:54.952Z</time>
      </trkpt>
      <trkpt lat="46.71803" lon="-1.98069">
        <ele>2</ele>
        <time>2025-01-22T08:24:55.952Z</time>
      </trkpt>
      <trkpt lat="46.71805" lon="-1.98071">
        <ele>1.9</ele>
        <time>2025-01-22T08:24:56.953Z</time>
      </trkpt>
      <trkpt lat="46.71807" lon="-1.98073">
        <ele>1.8</ele>
        <time>2025-01-22T08:24:57.952Z</time>
      </trkpt>
      <trkpt lat="46.71809" lon="-1.98076">
        <ele>1.8</ele>
        <time>2025-01-22T08:24:58.953Z</time>
      </trkpt>
      <trkpt lat="46.71812" lon="-1.98077">
        <ele>1.9</ele>
        <time>2025-01-22T08:24:59.953Z</time>
      </trkpt>
      <trkpt lat="46.71814" lon="-1.98079">
        <ele>1.9</ele>
        <time>2025-01-22T08:25:00.953Z</time>
      </trkpt>
      <trkpt lat="46.71816" lon="-1.98081">
        <ele>1.9</ele>
        <time>2025-01-22T08:25:01.952Z</time>
      </trkpt>
      <trkpt lat="46.71818" lon="-1.98083">
        <ele>1.9</ele>
        <time>2025-01-22T08:25:02.952Z</time>
      </trkpt>
      <trkpt lat="46.7182" lon="-1.98085">
        <ele>2</ele>
        <time>2025-01-22T08:25:03.953Z</time>
      </trkpt>
      <trkpt lat="46.71822" lon="-1.98087">
        <ele>2</ele>
        <time>2025-01-22T08:25:04.953Z</time>
      </trkpt>
      <trkpt lat="46.71825" lon="-1.98089">
        <ele>2.1</ele>
        <time>2025-01-22T08:25:05.953Z</time>
      </trkpt>
      <trkpt lat="46.71827" lon="-1.98092">
        <ele>2</ele>
        <time>2025-01-22T08:25:06.953Z</time>
      </trkpt>
      <trkpt lat="46.71829" lon="-1.98095">
        <ele>2</ele>
        <time>2025-01-22T08:25:07.953Z</time>
      </trkpt>
      <trkpt lat="46.7183" lon="-1.98099">
        <ele>1.8</ele>
        <time>2025-01-22T08:25:08.953Z</time>
      </trkpt>
      <trkpt lat="46.71832" lon="-1.98102">
        <ele>1.6</ele>
        <time>2025-01-22T08:25:09.952Z</time>
      </trkpt>
      <trkpt lat="46.71834" lon="-1.98105">
        <ele>1.5</ele>
        <time>2025-01-22T08:25:10.952Z</time>
      </trkpt>
      <trkpt lat="46.71836" lon="-1.98106">
        <ele>1.6</ele>
        <time>2025-01-22T08:25:11.952Z</time>
      </trkpt>
      <trkpt lat="46.71838" lon="-1.98108">
        <ele>1.5</ele>
        <time>2025-01-22T08:25:12.953Z</time>
      </trkpt>
      <trkpt lat="46.7184" lon="-1.9811">
        <ele>1.5</ele>
        <time>2025-01-22T08:25:13.953Z</time>
      </trkpt>
      <trkpt lat="46.71842" lon="-1.98113">
        <ele>1.6</ele>
        <time>2025-01-22T08:25:14.952Z</time>
      </trkpt>
      <trkpt lat="46.71844" lon="-1.98116">
        <ele>1.6</ele>
        <time>2025-01-22T08:25:15.952Z</time>
      </trkpt>
      <trkpt lat="46.71846" lon="-1.98117">
        <ele>1.7</ele>
        <time>2025-01-22T08:25:16.953Z</time>
      </trkpt>
      <trkpt lat="46.71848" lon="-1.98119">
        <ele>1.8</ele>
        <time>2025-01-22T08:25:17.953Z</time>
      </trkpt>
      <trkpt lat="46.7185" lon="-1.9812">
        <ele>1.8</ele>
        <time>2025-01-22T08:25:18.952Z</time>
      </trkpt>
      <trkpt lat="46.71853" lon="-1.98121">
        <ele>1.9</ele>
        <time>2025-01-22T08:25:19.952Z</time>
      </trkpt>
      <trkpt lat="46.71855" lon="-1.98119">
        <ele>2.1</ele>
        <time>2025-01-22T08:25:20.952Z</time>
      </trkpt>
      <trkpt lat="46.71858" lon="-1.98119">
        <ele>2.3</ele>
        <time>2025-01-22T08:25:21.952Z</time>
      </trkpt>
      <trkpt lat="46.7186" lon="-1.98119">
        <ele>2.4</ele>
        <time>2025-01-22T08:25:22.953Z</time>
      </trkpt>
      <trkpt lat="46.71863" lon="-1.98119">
        <ele>2.5</ele>
        <time>2025-01-22T08:25:23.952Z</time>
      </trkpt>
      <trkpt lat="46.71865" lon="-1.98121">
        <ele>2.5</ele>
        <time>2025-01-22T08:25:24.952Z</time>
      </trkpt>
      <trkpt lat="46.71867" lon="-1.98123">
        <ele>2.5</ele>
        <time>2025-01-22T08:25:25.952Z</time>
      </trkpt>
      <trkpt lat="46.7187" lon="-1.98125">
        <ele>2.5</ele>
        <time>2025-01-22T08:25:26.952Z</time>
      </trkpt>
      <trkpt lat="46.71871" lon="-1.98126">
        <ele>2.5</ele>
        <time>2025-01-22T08:25:27.953Z</time>
      </trkpt>
      <trkpt lat="46.71873" lon="-1.98127">
        <ele>2.5</ele>
        <time>2025-01-22T08:25:28.952Z</time>
      </trkpt>
      <trkpt lat="46.71876" lon="-1.98129">
        <ele>2.6</ele>
        <time>2025-01-22T08:25:29.952Z</time>
      </trkpt>
      <trkpt lat="46.71877" lon="-1.98131">
        <ele>2.6</ele>
        <time>2025-01-22T08:25:30.952Z</time>
      </trkpt>
      <trkpt lat="46.71879" lon="-1.98132">
        <ele>2.6</ele>
        <time>2025-01-22T08:25:31.953Z</time>
      </trkpt>
      <trkpt lat="46.71881" lon="-1.98134">
        <ele>2.7</ele>
        <time>2025-01-22T08:25:32.953Z</time>
      </trkpt>
      <trkpt lat="46.71883" lon="-1.98136">
        <ele>2.7</ele>
        <time>2025-01-22T08:25:33.952Z</time>
      </trkpt>
      <trkpt lat="46.71885" lon="-1.98137">
        <ele>2.8</ele>
        <time>2025-01-22T08:25:34.953Z</time>
      </trkpt>
      <trkpt lat="46.71887" lon="-1.98139">
        <ele>2.9</ele>
        <time>2025-01-22T08:25:35.952Z</time>
      </trkpt>
      <trkpt lat="46.71889" lon="-1.98141">
        <ele>2.9</ele>
        <time>2025-01-22T08:25:36.952Z</time>
      </trkpt>
      <trkpt lat="46.71892" lon="-1.98142">
        <ele>3</ele>
        <time>2025-01-22T08:25:37.952Z</time>
      </trkpt>
      <trkpt lat="46.71894" lon="-1.98144">
        <ele>3</ele>
        <time>2025-01-22T08:25:38.952Z</time>
      </trkpt>
      <trkpt lat="46.71896" lon="-1.98145">
        <ele>3</ele>
        <time>2025-01-22T08:25:39.953Z</time>
      </trkpt>
      <trkpt lat="46.71898" lon="-1.98147">
        <ele>3.1</ele>
        <time>2025-01-22T08:25:40.953Z</time>
      </trkpt>
      <trkpt lat="46.719" lon="-1.98148">
        <ele>3.1</ele>
        <time>2025-01-22T08:25:41.952Z</time>
      </trkpt>
      <trkpt lat="46.71903" lon="-1.98148">
        <ele>3.2</ele>
        <time>2025-01-22T08:25:42.952Z</time>
      </trkpt>
      <trkpt lat="46.71905" lon="-1.98149">
        <ele>3.2</ele>
        <time>2025-01-22T08:25:43.953Z</time>
      </trkpt>
      <trkpt lat="46.71907" lon="-1.9815">
        <ele>3.3</ele>
        <time>2025-01-22T08:25:44.953Z</time>
      </trkpt>
      <trkpt lat="46.7191" lon="-1.98152">
        <ele>3.3</ele>
        <time>2025-01-22T08:25:45.953Z</time>
      </trkpt>
      <trkpt lat="46.71912" lon="-1.98154">
        <ele>3.3</ele>
        <time>2025-01-22T08:25:46.953Z</time>
      </trkpt>
      <trkpt lat="46.71914" lon="-1.98156">
        <ele>3.3</ele>
        <time>2025-01-22T08:25:47.953Z</time>
      </trkpt>
      <trkpt lat="46.71916" lon="-1.98158">
        <ele>3.3</ele>
        <time>2025-01-22T08:25:48.953Z</time>
      </trkpt>
      <trkpt lat="46.71917" lon="-1.98161">
        <ele>3.2</ele>
        <time>2025-01-22T08:25:49.953Z</time>
      </trkpt>
      <trkpt lat="46.7192" lon="-1.98163">
        <ele>3.2</ele>
        <time>2025-01-22T08:25:50.952Z</time>
      </trkpt>
      <trkpt lat="46.71922" lon="-1.98165">
        <ele>3.2</ele>
        <time>2025-01-22T08:25:51.952Z</time>
      </trkpt>
      <trkpt lat="46.71924" lon="-1.98167">
        <ele>3.2</ele>
        <time>2025-01-22T08:25:52.952Z</time>
      </trkpt>
      <trkpt lat="46.71926" lon="-1.98169">
        <ele>3.2</ele>
        <time>2025-01-22T08:25:53.952Z</time>
      </trkpt>
      <trkpt lat="46.71928" lon="-1.9817">
        <ele>3.2</ele>
        <time>2025-01-22T08:25:54.953Z</time>
      </trkpt>
      <trkpt lat="46.7193" lon="-1.98172">
        <ele>3.2</ele>
        <time>2025-01-22T08:25:55.952Z</time>
      </trkpt>
      <trkpt lat="46.71932" lon="-1.98174">
        <ele>3.2</ele>
        <time>2025-01-22T08:25:56.952Z</time>
      </trkpt>
      <trkpt lat="46.71934" lon="-1.98176">
        <ele>3.2</ele>
        <time>2025-01-22T08:25:57.953Z</time>
      </trkpt>
      <trkpt lat="46.71936" lon="-1.98177">
        <ele>3.2</ele>
        <time>2025-01-22T08:25:58.952Z</time>
      </trkpt>
      <trkpt lat="46.71938" lon="-1.9818">
        <ele>3.2</ele>
        <time>2025-01-22T08:25:59.952Z</time>
      </trkpt>
      <trkpt lat="46.7194" lon="-1.98182">
        <ele>3.2</ele>
        <time>2025-01-22T08:26:00.952Z</time>
      </trkpt>
      <trkpt lat="46.71942" lon="-1.98185">
        <ele>3.2</ele>
        <time>2025-01-22T08:26:01.952Z</time>
      </trkpt>
      <trkpt lat="46.71944" lon="-1.98187">
        <ele>3.2</ele>
        <time>2025-01-22T08:26:02.952Z</time>
      </trkpt>
      <trkpt lat="46.71946" lon="-1.98189">
        <ele>3.2</ele>
        <time>2025-01-22T08:26:03.952Z</time>
      </trkpt>
      <trkpt lat="46.71948" lon="-1.98191">
        <ele>3.3</ele>
        <time>2025-01-22T08:26:04.953Z</time>
      </trkpt>
      <trkpt lat="46.7195" lon="-1.98193">
        <ele>3.2</ele>
        <time>2025-01-22T08:26:05.953Z</time>
      </trkpt>
      <trkpt lat="46.71952" lon="-1.98195">
        <ele>3.2</ele>
        <time>2025-01-22T08:26:06.952Z</time>
      </trkpt>
      <trkpt lat="46.71954" lon="-1.98196">
        <ele>3.2</ele>
        <time>2025-01-22T08:26:07.952Z</time>
      </trkpt>
      <trkpt lat="46.71956" lon="-1.98197">
        <ele>3.3</ele>
        <time>2025-01-22T08:26:08.952Z</time>
      </trkpt>
      <trkpt lat="46.71958" lon="-1.98199">
        <ele>3.2</ele>
        <time>2025-01-22T08:26:09.953Z</time>
      </trkpt>
      <trkpt lat="46.7196" lon="-1.982">
        <ele>3.3</ele>
        <time>2025-01-22T08:26:10.952Z</time>
      </trkpt>
      <trkpt lat="46.71962" lon="-1.98201">
        <ele>3.3</ele>
        <time>2025-01-22T08:26:11.953Z</time>
      </trkpt>
      <trkpt lat="46.71965" lon="-1.98202">
        <ele>3.4</ele>
        <time>2025-01-22T08:26:12.952Z</time>
      </trkpt>
      <trkpt lat="46.71967" lon="-1.98203">
        <ele>3.4</ele>
        <time>2025-01-22T08:26:13.952Z</time>
      </trkpt>
      <trkpt lat="46.71969" lon="-1.98204">
        <ele>3.5</ele>
        <time>2025-01-22T08:26:14.953Z</time>
      </trkpt>
      <trkpt lat="46.71971" lon="-1.98206">
        <ele>3.5</ele>
        <time>2025-01-22T08:26:15.953Z</time>
      </trkpt>
      <trkpt lat="46.71973" lon="-1.98208">
        <ele>3.6</ele>
        <time>2025-01-22T08:26:16.952Z</time>
      </trkpt>
      <trkpt lat="46.71975" lon="-1.98208">
        <ele>3.6</ele>
        <time>2025-01-22T08:26:17.953Z</time>
      </trkpt>
      <trkpt lat="46.71977" lon="-1.98209">
        <ele>3.6</ele>
        <time>2025-01-22T08:26:18.953Z</time>
      </trkpt>
      <trkpt lat="46.71979" lon="-1.9821">
        <ele>3.7</ele>
        <time>2025-01-22T08:26:19.953Z</time>
      </trkpt>
      <trkpt lat="46.71981" lon="-1.9821">
        <ele>3.8</ele>
        <time>2025-01-22T08:26:20.952Z</time>
      </trkpt>
      <trkpt lat="46.71983" lon="-1.9821">
        <ele>3.8</ele>
        <time>2025-01-22T08:26:21.953Z</time>
      </trkpt>
      <trkpt lat="46.71985" lon="-1.9821">
        <ele>3.9</ele>
        <time>2025-01-22T08:26:22.952Z</time>
      </trkpt>
      <trkpt lat="46.71987" lon="-1.98211">
        <ele>3.9</ele>
        <time>2025-01-22T08:26:23.952Z</time>
      </trkpt>
      <trkpt lat="46.7199" lon="-1.98212">
        <ele>4</ele>
        <time>2025-01-22T08:26:24.953Z</time>
      </trkpt>
      <trkpt lat="46.71992" lon="-1.98213">
        <ele>4.1</ele>
        <time>2025-01-22T08:26:25.953Z</time>
      </trkpt>
      <trkpt lat="46.71994" lon="-1.98213">
        <ele>4.1</ele>
        <time>2025-01-22T08:26:26.953Z</time>
      </trkpt>
      <trkpt lat="46.71996" lon="-1.98212">
        <ele>4.2</ele>
        <time>2025-01-22T08:26:27.952Z</time>
      </trkpt>
      <trkpt lat="46.71998" lon="-1.98212">
        <ele>4.3</ele>
        <time>2025-01-22T08:26:28.953Z</time>
      </trkpt>
      <trkpt lat="46.72001" lon="-1.98212">
        <ele>4.4</ele>
        <time>2025-01-22T08:26:29.952Z</time>
      </trkpt>
      <trkpt lat="46.72003" lon="-1.98212">
        <ele>4.5</ele>
        <time>2025-01-22T08:26:30.952Z</time>
      </trkpt>
      <trkpt lat="46.72005" lon="-1.98212">
        <ele>4.7</ele>
        <time>2025-01-22T08:26:31.953Z</time>
      </trkpt>
      <trkpt lat="46.72007" lon="-1.98212">
        <ele>4.8</ele>
        <time>2025-01-22T08:26:32.953Z</time>
      </trkpt>
      <trkpt lat="46.72009" lon="-1.98212">
        <ele>5</ele>
        <time>2025-01-22T08:26:33.953Z</time>
      </trkpt>
      <trkpt lat="46.72011" lon="-1.98212">
        <ele>5.1</ele>
        <time>2025-01-22T08:26:34.953Z</time>
      </trkpt>
      <trkpt lat="46.72013" lon="-1.98212">
        <ele>5.2</ele>
        <time>2025-01-22T08:26:35.953Z</time>
      </trkpt>
      <trkpt lat="46.72015" lon="-1.98212">
        <ele>5.4</ele>
        <time>2025-01-22T08:26:36.952Z</time>
      </trkpt>
      <trkpt lat="46.72017" lon="-1.98211">
        <ele>5.5</ele>
        <time>2025-01-22T08:26:37.952Z</time>
      </trkpt>
      <trkpt lat="46.72019" lon="-1.98211">
        <ele>5.7</ele>
        <time>2025-01-22T08:26:38.952Z</time>
      </trkpt>
      <trkpt lat="46.72021" lon="-1.9821">
        <ele>5.9</ele>
        <time>2025-01-22T08:26:39.953Z</time>
      </trkpt>
      <trkpt lat="46.72023" lon="-1.98209">
        <ele>6.1</ele>
        <time>2025-01-22T08:26:40.952Z</time>
      </trkpt>
      <trkpt lat="46.72024" lon="-1.98208">
        <ele>6.3</ele>
        <time>2025-01-22T08:26:41.953Z</time>
      </trkpt>
      <trkpt lat="46.72026" lon="-1.98208">
        <ele>6.4</ele>
        <time>2025-01-22T08:26:42.953Z</time>
      </trkpt>
      <trkpt lat="46.72027" lon="-1.98208">
        <ele>6.5</ele>
        <time>2025-01-22T08:26:43.953Z</time>
      </trkpt>
      <trkpt lat="46.72028" lon="-1.98208">
        <ele>6.6</ele>
        <time>2025-01-22T08:26:44.952Z</time>
      </trkpt>
      <trkpt lat="46.72029" lon="-1.98208">
        <ele>6.6</ele>
        <time>2025-01-22T08:26:45.952Z</time>
      </trkpt>
      <trkpt lat="46.7203" lon="-1.98207">
        <ele>6.7</ele>
        <time>2025-01-22T08:26:46.952Z</time>
      </trkpt>
      <trkpt lat="46.72032" lon="-1.98207">
        <ele>6.8</ele>
        <time>2025-01-22T08:26:47.952Z</time>
      </trkpt>
      <trkpt lat="46.72033" lon="-1.98207">
        <ele>6.9</ele>
        <time>2025-01-22T08:26:48.953Z</time>
      </trkpt>
      <trkpt lat="46.72034" lon="-1.98208">
        <ele>6.9</ele>
        <time>2025-01-22T08:26:49.953Z</time>
      </trkpt>
      <trkpt lat="46.72035" lon="-1.98208">
        <ele>6.9</ele>
        <time>2025-01-22T08:26:50.952Z</time>
      </trkpt>
      <trkpt lat="46.72036" lon="-1.98208">
        <ele>7</ele>
        <time>2025-01-22T08:26:51.952Z</time>
      </trkpt>
      <trkpt lat="46.72037" lon="-1.98208">
        <ele>7</ele>
        <time>2025-01-22T08:26:52.952Z</time>
      </trkpt>
      <trkpt lat="46.72039" lon="-1.98208">
        <ele>7.1</ele>
        <time>2025-01-22T08:26:53.952Z</time>
      </trkpt>
      <trkpt lat="46.7204" lon="-1.98208">
        <ele>7.2</ele>
        <time>2025-01-22T08:26:54.953Z</time>
      </trkpt>
      <trkpt lat="46.72041" lon="-1.98207">
        <ele>7.3</ele>
        <time>2025-01-22T08:26:55.953Z</time>
      </trkpt>
      <trkpt lat="46.72042" lon="-1.98206">
        <ele>7.4</ele>
        <time>2025-01-22T08:26:56.952Z</time>
      </trkpt>
      <trkpt lat="46.72043" lon="-1.98205">
        <ele>7.5</ele>
        <time>2025-01-22T08:26:57.952Z</time>
      </trkpt>
      <trkpt lat="46.72044" lon="-1.98204">
        <ele>7.6</ele>
        <time>2025-01-22T08:26:58.952Z</time>
      </trkpt>
      <trkpt lat="46.72045" lon="-1.98203">
        <ele>7.7</ele>
        <time>2025-01-22T08:26:59.952Z</time>
      </trkpt>
      <trkpt lat="46.72046" lon="-1.98202">
        <ele>7.7</ele>
        <time>2025-01-22T08:27:00.953Z</time>
      </trkpt>
      <trkpt lat="46.72047" lon="-1.982">
        <ele>7.8</ele>
        <time>2025-01-22T08:27:01.953Z</time>
      </trkpt>
      <trkpt lat="46.72047" lon="-1.98199">
        <ele>7.9</ele>
        <time>2025-01-22T08:27:02.953Z</time>
      </trkpt>
      <trkpt lat="46.72048" lon="-1.98198">
        <ele>7.9</ele>
        <time>2025-01-22T08:27:03.952Z</time>
      </trkpt>
      <trkpt lat="46.72049" lon="-1.98197">
        <ele>7.9</ele>
        <time>2025-01-22T08:27:04.953Z</time>
      </trkpt>
      <trkpt lat="46.7205" lon="-1.98196">
        <ele>8</ele>
        <time>2025-01-22T08:27:05.952Z</time>
      </trkpt>
      <trkpt lat="46.72052" lon="-1.98195">
        <ele>8</ele>
        <time>2025-01-22T08:27:06.952Z</time>
      </trkpt>
      <trkpt lat="46.72053" lon="-1.98195">
        <ele>8</ele>
        <time>2025-01-22T08:27:07.952Z</time>
      </trkpt>
      <trkpt lat="46.72054" lon="-1.98194">
        <ele>8</ele>
        <time>2025-01-22T08:27:08.952Z</time>
      </trkpt>
      <trkpt lat="46.72055" lon="-1.98193">
        <ele>8</ele>
        <time>2025-01-22T08:27:09.953Z</time>
      </trkpt>
      <trkpt lat="46.72056" lon="-1.98192">
        <ele>8</ele>
        <time>2025-01-22T08:27:10.953Z</time>
      </trkpt>
      <trkpt lat="46.72057" lon="-1.98191">
        <ele>8</ele>
        <time>2025-01-22T08:27:11.953Z</time>
      </trkpt>
      <trkpt lat="46.72058" lon="-1.9819">
        <ele>7.9</ele>
        <time>2025-01-22T08:27:12.953Z</time>
      </trkpt>
      <trkpt lat="46.72059" lon="-1.98189">
        <ele>7.9</ele>
        <time>2025-01-22T08:27:13.952Z</time>
      </trkpt>
      <trkpt lat="46.72061" lon="-1.98188">
        <ele>7.8</ele>
        <time>2025-01-22T08:27:14.952Z</time>
      </trkpt>
      <trkpt lat="46.72062" lon="-1.98187">
        <ele>7.8</ele>
        <time>2025-01-22T08:27:15.952Z</time>
      </trkpt>
      <trkpt lat="46.72063" lon="-1.98186">
        <ele>7.7</ele>
        <time>2025-01-22T08:27:16.952Z</time>
      </trkpt>
      <trkpt lat="46.72064" lon="-1.98185">
        <ele>7.7</ele>
        <time>2025-01-22T08:27:17.952Z</time>
      </trkpt>
      <trkpt lat="46.72065" lon="-1.98184">
        <ele>7.7</ele>
        <time>2025-01-22T08:27:18.953Z</time>
      </trkpt>
      <trkpt lat="46.72066" lon="-1.98182">
        <ele>7.6</ele>
        <time>2025-01-22T08:27:19.953Z</time>
      </trkpt>
      <trkpt lat="46.72067" lon="-1.98182">
        <ele>7.6</ele>
        <time>2025-01-22T08:27:20.953Z</time>
      </trkpt>
      <trkpt lat="46.72068" lon="-1.98181">
        <ele>7.5</ele>
        <time>2025-01-22T08:27:21.953Z</time>
      </trkpt>
      <trkpt lat="46.72069" lon="-1.98181">
        <ele>7.5</ele>
        <time>2025-01-22T08:27:22.952Z</time>
      </trkpt>
      <trkpt lat="46.7207" lon="-1.9818">
        <ele>7.5</ele>
        <time>2025-01-22T08:27:23.952Z</time>
      </trkpt>
      <trkpt lat="46.72071" lon="-1.98179">
        <ele>7.5</ele>
        <time>2025-01-22T08:27:24.952Z</time>
      </trkpt>
      <trkpt lat="46.72072" lon="-1.98178">
        <ele>7.4</ele>
        <time>2025-01-22T08:27:25.952Z</time>
      </trkpt>
      <trkpt lat="46.72072" lon="-1.98177">
        <ele>7.4</ele>
        <time>2025-01-22T08:27:26.953Z</time>
      </trkpt>
      <trkpt lat="46.72073" lon="-1.98176">
        <ele>7.4</ele>
        <time>2025-01-22T08:27:27.952Z</time>
      </trkpt>
      <trkpt lat="46.72074" lon="-1.98175">
        <ele>7.4</ele>
        <time>2025-01-22T08:27:28.953Z</time>
      </trkpt>
      <trkpt lat="46.72074" lon="-1.98174">
        <ele>7.3</ele>
        <time>2025-01-22T08:27:29.953Z</time>
      </trkpt>
      <trkpt lat="46.72075" lon="-1.98173">
        <ele>7.3</ele>
        <time>2025-01-22T08:27:30.953Z</time>
      </trkpt>
      <trkpt lat="46.72076" lon="-1.98172">
        <ele>7.3</ele>
        <time>2025-01-22T08:27:31.953Z</time>
      </trkpt>
      <trkpt lat="46.72077" lon="-1.98171">
        <ele>7.2</ele>
        <time>2025-01-22T08:27:32.952Z</time>
      </trkpt>
      <trkpt lat="46.72078" lon="-1.9817">
        <ele>7.2</ele>
        <time>2025-01-22T08:27:33.953Z</time>
      </trkpt>
      <trkpt lat="46.72079" lon="-1.98169">
        <ele>7.1</ele>
        <time>2025-01-22T08:27:34.953Z</time>
      </trkpt>
      <trkpt lat="46.7208" lon="-1.98168">
        <ele>7.1</ele>
        <time>2025-01-22T08:27:35.953Z</time>
      </trkpt>
      <trkpt lat="46.72082" lon="-1.98168">
        <ele>7.1</ele>
        <time>2025-01-22T08:27:36.952Z</time>
      </trkpt>
      <trkpt lat="46.72082" lon="-1.98167">
        <ele>7</ele>
        <time>2025-01-22T08:27:37.953Z</time>
      </trkpt>
      <trkpt lat="46.72083" lon="-1.98166">
        <ele>7</ele>
        <time>2025-01-22T08:27:38.953Z</time>
      </trkpt>
      <trkpt lat="46.72084" lon="-1.98165">
        <ele>6.9</ele>
        <time>2025-01-22T08:27:39.952Z</time>
      </trkpt>
      <trkpt lat="46.72085" lon="-1.98164">
        <ele>6.9</ele>
        <time>2025-01-22T08:27:40.952Z</time>
      </trkpt>
      <trkpt lat="46.72085" lon="-1.98163">
        <ele>6.8</ele>
        <time>2025-01-22T08:27:41.952Z</time>
      </trkpt>
      <trkpt lat="46.72086" lon="-1.98162">
        <ele>6.8</ele>
        <time>2025-01-22T08:27:42.953Z</time>
      </trkpt>
      <trkpt lat="46.72087" lon="-1.98161">
        <ele>6.7</ele>
        <time>2025-01-22T08:27:43.953Z</time>
      </trkpt>
      <trkpt lat="46.72087" lon="-1.98161">
        <ele>6.7</ele>
        <time>2025-01-22T08:27:44.953Z</time>
      </trkpt>
      <trkpt lat="46.72088" lon="-1.9816">
        <ele>6.6</ele>
        <time>2025-01-22T08:27:45.952Z</time>
      </trkpt>
      <trkpt lat="46.72089" lon="-1.98159">
        <ele>6.6</ele>
        <time>2025-01-22T08:27:46.953Z</time>
      </trkpt>
      <trkpt lat="46.7209" lon="-1.98159">
        <ele>6.5</ele>
        <time>2025-01-22T08:27:47.952Z</time>
      </trkpt>
      <trkpt lat="46.72091" lon="-1.98158">
        <ele>6.5</ele>
        <time>2025-01-22T08:27:48.952Z</time>
      </trkpt>
      <trkpt lat="46.72092" lon="-1.98159">
        <ele>6.5</ele>
        <time>2025-01-22T08:27:49.952Z</time>
      </trkpt>
      <trkpt lat="46.72093" lon="-1.98159">
        <ele>6.5</ele>
        <time>2025-01-22T08:27:50.952Z</time>
      </trkpt>
      <trkpt lat="46.72094" lon="-1.9816">
        <ele>6.5</ele>
        <time>2025-01-22T08:27:51.953Z</time>
      </trkpt>
      <trkpt lat="46.72094" lon="-1.98161">
        <ele>6.5</ele>
        <time>2025-01-22T08:27:52.953Z</time>
      </trkpt>
      <trkpt lat="46.72095" lon="-1.98162">
        <ele>6.5</ele>
        <time>2025-01-22T08:27:53.952Z</time>
      </trkpt>
      <trkpt lat="46.72096" lon="-1.98164">
        <ele>6.5</ele>
        <time>2025-01-22T08:27:54.952Z</time>
      </trkpt>
      <trkpt lat="46.72097" lon="-1.98165">
        <ele>6.5</ele>
        <time>2025-01-22T08:27:55.952Z</time>
      </trkpt>
      <trkpt lat="46.72098" lon="-1.98166">
        <ele>6.5</ele>
        <time>2025-01-22T08:27:56.953Z</time>
      </trkpt>
      <trkpt lat="46.721" lon="-1.98167">
        <ele>6.4</ele>
        <time>2025-01-22T08:27:57.953Z</time>
      </trkpt>
      <trkpt lat="46.72101" lon="-1.98168">
        <ele>6.4</ele>
        <time>2025-01-22T08:27:58.953Z</time>
      </trkpt>
      <trkpt lat="46.72103" lon="-1.98169">
        <ele>6.3</ele>
        <time>2025-01-22T08:27:59.953Z</time>
      </trkpt>
      <trkpt lat="46.72104" lon="-1.9817">
        <ele>6.3</ele>
        <time>2025-01-22T08:28:00.953Z</time>
      </trkpt>
      <trkpt lat="46.72105" lon="-1.98173">
        <ele>6.2</ele>
        <time>2025-01-22T08:28:01.952Z</time>
      </trkpt>
      <trkpt lat="46.72107" lon="-1.98176">
        <ele>6.1</ele>
        <time>2025-01-22T08:28:02.952Z</time>
      </trkpt>
      <trkpt lat="46.72109" lon="-1.98178">
        <ele>6.1</ele>
        <time>2025-01-22T08:28:03.952Z</time>
      </trkpt>
      <trkpt lat="46.72111" lon="-1.98181">
        <ele>6</ele>
        <time>2025-01-22T08:28:04.952Z</time>
      </trkpt>
      <trkpt lat="46.72113" lon="-1.98184">
        <ele>5.9</ele>
        <time>2025-01-22T08:28:05.952Z</time>
      </trkpt>
      <trkpt lat="46.72115" lon="-1.98187">
        <ele>5.9</ele>
        <time>2025-01-22T08:28:06.953Z</time>
      </trkpt>
      <trkpt lat="46.72117" lon="-1.98189">
        <ele>5.8</ele>
        <time>2025-01-22T08:28:07.953Z</time>
      </trkpt>
      <trkpt lat="46.72118" lon="-1.98192">
        <ele>5.7</ele>
        <time>2025-01-22T08:28:08.953Z</time>
      </trkpt>
      <trkpt lat="46.7212" lon="-1.98194">
        <ele>5.7</ele>
        <time>2025-01-22T08:28:09.953Z</time>
      </trkpt>
      <trkpt lat="46.72122" lon="-1.98196">
        <ele>5.7</ele>
        <time>2025-01-22T08:28:10.953Z</time>
      </trkpt>
      <trkpt lat="46.72123" lon="-1.98199">
        <ele>5.7</ele>
        <time>2025-01-22T08:28:11.952Z</time>
      </trkpt>
      <trkpt lat="46.72125" lon="-1.98202">
        <ele>5.8</ele>
        <time>2025-01-22T08:28:12.953Z</time>
      </trkpt>
      <trkpt lat="46.72126" lon="-1.98205">
        <ele>5.8</ele>
        <time>2025-01-22T08:28:13.952Z</time>
      </trkpt>
      <trkpt lat="46.72128" lon="-1.98207">
        <ele>5.8</ele>
        <time>2025-01-22T08:28:14.953Z</time>
      </trkpt>
      <trkpt lat="46.7213" lon="-1.98209">
        <ele>5.8</ele>
        <time>2025-01-22T08:28:15.953Z</time>
      </trkpt>
      <trkpt lat="46.72132" lon="-1.98212">
        <ele>5.9</ele>
        <time>2025-01-22T08:28:16.952Z</time>
      </trkpt>
      <trkpt lat="46.72134" lon="-1.98215">
        <ele>5.9</ele>
        <time>2025-01-22T08:28:17.952Z</time>
      </trkpt>
      <trkpt lat="46.72136" lon="-1.98218">
        <ele>5.9</ele>
        <time>2025-01-22T08:28:18.952Z</time>
      </trkpt>
      <trkpt lat="46.72138" lon="-1.98221">
        <ele>6</ele>
        <time>2025-01-22T08:28:19.953Z</time>
      </trkpt>
      <trkpt lat="46.7214" lon="-1.98225">
        <ele>6.1</ele>
        <time>2025-01-22T08:28:20.953Z</time>
      </trkpt>
      <trkpt lat="46.72141" lon="-1.98228">
        <ele>6.1</ele>
        <time>2025-01-22T08:28:21.952Z</time>
      </trkpt>
      <trkpt lat="46.72143" lon="-1.98232">
        <ele>6.1</ele>
        <time>2025-01-22T08:28:22.952Z</time>
      </trkpt>
      <trkpt lat="46.72145" lon="-1.98235">
        <ele>6.2</ele>
        <time>2025-01-22T08:28:23.952Z</time>
      </trkpt>
      <trkpt lat="46.72146" lon="-1.98239">
        <ele>6.2</ele>
        <time>2025-01-22T08:28:24.952Z</time>
      </trkpt>
      <trkpt lat="46.72148" lon="-1.98243">
        <ele>6.2</ele>
        <time>2025-01-22T08:28:25.953Z</time>
      </trkpt>
      <trkpt lat="46.7215" lon="-1.98246">
        <ele>6.1</ele>
        <time>2025-01-22T08:28:26.953Z</time>
      </trkpt>
      <trkpt lat="46.72152" lon="-1.9825">
        <ele>6.1</ele>
        <time>2025-01-22T08:28:27.953Z</time>
      </trkpt>
      <trkpt lat="46.72153" lon="-1.98253">
        <ele>6.1</ele>
        <time>2025-01-22T08:28:28.953Z</time>
      </trkpt>
      <trkpt lat="46.72155" lon="-1.98257">
        <ele>6.1</ele>
        <time>2025-01-22T08:28:29.953Z</time>
      </trkpt>
      <trkpt lat="46.72157" lon="-1.9826">
        <ele>6.1</ele>
        <time>2025-01-22T08:28:30.952Z</time>
      </trkpt>
      <trkpt lat="46.72158" lon="-1.98262">
        <ele>6.1</ele>
        <time>2025-01-22T08:28:31.952Z</time>
      </trkpt>
      <trkpt lat="46.72159" lon="-1.98265">
        <ele>6</ele>
        <time>2025-01-22T08:28:32.953Z</time>
      </trkpt>
      <trkpt lat="46.7216" lon="-1.98267">
        <ele>5.9</ele>
        <time>2025-01-22T08:28:33.952Z</time>
      </trkpt>
      <trkpt lat="46.72161" lon="-1.98268">
        <ele>5.8</ele>
        <time>2025-01-22T08:28:34.952Z</time>
      </trkpt>
      <trkpt lat="46.72162" lon="-1.9827">
        <ele>5.7</ele>
        <time>2025-01-22T08:28:35.952Z</time>
      </trkpt>
      <trkpt lat="46.72162" lon="-1.98271">
        <ele>5.7</ele>
        <time>2025-01-22T08:28:36.952Z</time>
      </trkpt>
      <trkpt lat="46.72163" lon="-1.98273">
        <ele>5.6</ele>
        <time>2025-01-22T08:28:37.953Z</time>
      </trkpt>
      <trkpt lat="46.72164" lon="-1.98274">
        <ele>5.4</ele>
        <time>2025-01-22T08:28:38.953Z</time>
      </trkpt>
      <trkpt lat="46.72165" lon="-1.98276">
        <ele>5.3</ele>
        <time>2025-01-22T08:28:39.953Z</time>
      </trkpt>
      <trkpt lat="46.72166" lon="-1.98277">
        <ele>5.1</ele>
        <time>2025-01-22T08:28:40.952Z</time>
      </trkpt>
      <trkpt lat="46.72167" lon="-1.98279">
        <ele>5.1</ele>
        <time>2025-01-22T08:28:41.952Z</time>
      </trkpt>
      <trkpt lat="46.72168" lon="-1.9828">
        <ele>5.1</ele>
        <time>2025-01-22T08:28:42.952Z</time>
      </trkpt>
      <trkpt lat="46.72168" lon="-1.98282">
        <ele>5.2</ele>
        <time>2025-01-22T08:28:43.953Z</time>
      </trkpt>
      <trkpt lat="46.72169" lon="-1.98283">
        <ele>5.3</ele>
        <time>2025-01-22T08:28:44.953Z</time>
      </trkpt>
      <trkpt lat="46.7217" lon="-1.98285">
        <ele>5.3</ele>
        <time>2025-01-22T08:28:45.953Z</time>
      </trkpt>
      <trkpt lat="46.72171" lon="-1.98286">
        <ele>5.4</ele>
        <time>2025-01-22T08:28:46.953Z</time>
      </trkpt>
      <trkpt lat="46.72172" lon="-1.98287">
        <ele>5.4</ele>
        <time>2025-01-22T08:28:47.952Z</time>
      </trkpt>
      <trkpt lat="46.72173" lon="-1.98288">
        <ele>5.5</ele>
        <time>2025-01-22T08:28:48.952Z</time>
      </trkpt>
      <trkpt lat="46.72174" lon="-1.98289">
        <ele>5.5</ele>
        <time>2025-01-22T08:28:49.952Z</time>
      </trkpt>
      <trkpt lat="46.72175" lon="-1.98291">
        <ele>5.5</ele>
        <time>2025-01-22T08:28:50.952Z</time>
      </trkpt>
      <trkpt lat="46.72175" lon="-1.98292">
        <ele>5.6</ele>
        <time>2025-01-22T08:28:51.952Z</time>
      </trkpt>
      <trkpt lat="46.72176" lon="-1.98294">
        <ele>5.6</ele>
        <time>2025-01-22T08:28:52.952Z</time>
      </trkpt>
      <trkpt lat="46.72177" lon="-1.98295">
        <ele>5.6</ele>
        <time>2025-01-22T08:28:53.952Z</time>
      </trkpt>
      <trkpt lat="46.72178" lon="-1.98296">
        <ele>5.6</ele>
        <time>2025-01-22T08:28:54.953Z</time>
      </trkpt>
      <trkpt lat="46.72179" lon="-1.98296">
        <ele>5.6</ele>
        <time>2025-01-22T08:28:55.952Z</time>
      </trkpt>
      <trkpt lat="46.7218" lon="-1.98297">
        <ele>5.6</ele>
        <time>2025-01-22T08:28:56.952Z</time>
      </trkpt>
      <trkpt lat="46.72181" lon="-1.98298">
        <ele>5.6</ele>
        <time>2025-01-22T08:28:57.953Z</time>
      </trkpt>
      <trkpt lat="46.72181" lon="-1.98299">
        <ele>5.6</ele>
        <time>2025-01-22T08:28:58.953Z</time>
      </trkpt>
      <trkpt lat="46.72182" lon="-1.983">
        <ele>5.6</ele>
        <time>2025-01-22T08:28:59.953Z</time>
      </trkpt>
      <trkpt lat="46.72183" lon="-1.98301">
        <ele>5.6</ele>
        <time>2025-01-22T08:29:00.953Z</time>
      </trkpt>
      <trkpt lat="46.72184" lon="-1.98303">
        <ele>5.6</ele>
        <time>2025-01-22T08:29:01.953Z</time>
      </trkpt>
      <trkpt lat="46.72185" lon="-1.98304">
        <ele>5.6</ele>
        <time>2025-01-22T08:29:02.952Z</time>
      </trkpt>
      <trkpt lat="46.72185" lon="-1.98306">
        <ele>5.7</ele>
        <time>2025-01-22T08:29:03.952Z</time>
      </trkpt>
      <trkpt lat="46.72186" lon="-1.98308">
        <ele>5.7</ele>
        <time>2025-01-22T08:29:04.952Z</time>
      </trkpt>
      <trkpt lat="46.72186" lon="-1.98309">
        <ele>5.8</ele>
        <time>2025-01-22T08:29:05.953Z</time>
      </trkpt>
      <trkpt lat="46.72187" lon="-1.9831">
        <ele>5.8</ele>
        <time>2025-01-22T08:29:06.953Z</time>
      </trkpt>
      <trkpt lat="46.72187" lon="-1.98312">
        <ele>5.8</ele>
        <time>2025-01-22T08:29:07.953Z</time>
      </trkpt>
      <trkpt lat="46.72188" lon="-1.98313">
        <ele>5.8</ele>
        <time>2025-01-22T08:29:08.953Z</time>
      </trkpt>
      <trkpt lat="46.72189" lon="-1.98315">
        <ele>5.8</ele>
        <time>2025-01-22T08:29:09.952Z</time>
      </trkpt>
      <trkpt lat="46.7219" lon="-1.98316">
        <ele>5.8</ele>
        <time>2025-01-22T08:29:10.952Z</time>
      </trkpt>
      <trkpt lat="46.72191" lon="-1.98317">
        <ele>5.7</ele>
        <time>2025-01-22T08:29:11.952Z</time>
      </trkpt>
      <trkpt lat="46.72192" lon="-1.98319">
        <ele>5.7</ele>
        <time>2025-01-22T08:29:12.952Z</time>
      </trkpt>
      <trkpt lat="46.72192" lon="-1.9832">
        <ele>5.7</ele>
        <time>2025-01-22T08:29:13.952Z</time>
      </trkpt>
      <trkpt lat="46.72193" lon="-1.98321">
        <ele>5.7</ele>
        <time>2025-01-22T08:29:14.953Z</time>
      </trkpt>
      <trkpt lat="46.72194" lon="-1.98323">
        <ele>5.7</ele>
        <time>2025-01-22T08:29:15.953Z</time>
      </trkpt>
      <trkpt lat="46.72195" lon="-1.98324">
        <ele>5.6</ele>
        <time>2025-01-22T08:29:16.952Z</time>
      </trkpt>
      <trkpt lat="46.72196" lon="-1.98325">
        <ele>5.6</ele>
        <time>2025-01-22T08:29:17.952Z</time>
      </trkpt>
      <trkpt lat="46.72197" lon="-1.98326">
        <ele>5.6</ele>
        <time>2025-01-22T08:29:18.952Z</time>
      </trkpt>
      <trkpt lat="46.72198" lon="-1.98327">
        <ele>5.6</ele>
        <time>2025-01-22T08:29:19.952Z</time>
      </trkpt>
      <trkpt lat="46.72198" lon="-1.98329">
        <ele>5.6</ele>
        <time>2025-01-22T08:29:20.952Z</time>
      </trkpt>
      <trkpt lat="46.72199" lon="-1.9833">
        <ele>5.6</ele>
        <time>2025-01-22T08:29:21.953Z</time>
      </trkpt>
      <trkpt lat="46.722" lon="-1.98332">
        <ele>5.6</ele>
        <time>2025-01-22T08:29:22.953Z</time>
      </trkpt>
      <trkpt lat="46.72201" lon="-1.98333">
        <ele>5.5</ele>
        <time>2025-01-22T08:29:23.952Z</time>
      </trkpt>
      <trkpt lat="46.72202" lon="-1.98335">
        <ele>5.6</ele>
        <time>2025-01-22T08:29:24.952Z</time>
      </trkpt>
      <trkpt lat="46.72202" lon="-1.98336">
        <ele>5.6</ele>
        <time>2025-01-22T08:29:25.952Z</time>
      </trkpt>
      <trkpt lat="46.72203" lon="-1.98337">
        <ele>5.6</ele>
        <time>2025-01-22T08:29:26.953Z</time>
      </trkpt>
      <trkpt lat="46.72204" lon="-1.98339">
        <ele>5.6</ele>
        <time>2025-01-22T08:29:27.953Z</time>
      </trkpt>
      <trkpt lat="46.72205" lon="-1.9834">
        <ele>5.6</ele>
        <time>2025-01-22T08:29:28.952Z</time>
      </trkpt>
      <trkpt lat="46.72206" lon="-1.98341">
        <ele>5.6</ele>
        <time>2025-01-22T08:29:29.953Z</time>
      </trkpt>
      <trkpt lat="46.72208" lon="-1.98342">
        <ele>5.5</ele>
        <time>2025-01-22T08:29:30.952Z</time>
      </trkpt>
      <trkpt lat="46.72208" lon="-1.98343">
        <ele>5.5</ele>
        <time>2025-01-22T08:29:31.952Z</time>
      </trkpt>
      <trkpt lat="46.72209" lon="-1.98345">
        <ele>5.6</ele>
        <time>2025-01-22T08:29:32.952Z</time>
      </trkpt>
      <trkpt lat="46.7221" lon="-1.98347">
        <ele>5.6</ele>
        <time>2025-01-22T08:29:33.953Z</time>
      </trkpt>
      <trkpt lat="46.72211" lon="-1.9835">
        <ele>5.6</ele>
        <time>2025-01-22T08:29:34.953Z</time>
      </trkpt>
      <trkpt lat="46.72213" lon="-1.98352">
        <ele>5.6</ele>
        <time>2025-01-22T08:29:35.953Z</time>
      </trkpt>
      <trkpt lat="46.72215" lon="-1.98355">
        <ele>5.5</ele>
        <time>2025-01-22T08:29:36.953Z</time>
      </trkpt>
      <trkpt lat="46.72216" lon="-1.98358">
        <ele>5.5</ele>
        <time>2025-01-22T08:29:37.953Z</time>
      </trkpt>
      <trkpt lat="46.72218" lon="-1.98361">
        <ele>5.5</ele>
        <time>2025-01-22T08:29:38.953Z</time>
      </trkpt>
      <trkpt lat="46.7222" lon="-1.98365">
        <ele>5.5</ele>
        <time>2025-01-22T08:29:39.952Z</time>
      </trkpt>
      <trkpt lat="46.72221" lon="-1.98368">
        <ele>5.6</ele>
        <time>2025-01-22T08:29:40.952Z</time>
      </trkpt>
      <trkpt lat="46.72223" lon="-1.98372">
        <ele>5.7</ele>
        <time>2025-01-22T08:29:41.953Z</time>
      </trkpt>
      <trkpt lat="46.72225" lon="-1.98375">
        <ele>5.8</ele>
        <time>2025-01-22T08:29:42.952Z</time>
      </trkpt>
      <trkpt lat="46.72227" lon="-1.98378">
        <ele>5.9</ele>
        <time>2025-01-22T08:29:43.952Z</time>
      </trkpt>
      <trkpt lat="46.72229" lon="-1.98382">
        <ele>5.9</ele>
        <time>2025-01-22T08:29:44.952Z</time>
      </trkpt>
      <trkpt lat="46.7223" lon="-1.98385">
        <ele>5.9</ele>
        <time>2025-01-22T08:29:45.953Z</time>
      </trkpt>
      <trkpt lat="46.72232" lon="-1.98388">
        <ele>5.9</ele>
        <time>2025-01-22T08:29:46.952Z</time>
      </trkpt>
      <trkpt lat="46.72234" lon="-1.9839">
        <ele>5.8</ele>
        <time>2025-01-22T08:29:47.952Z</time>
      </trkpt>
      <trkpt lat="46.72236" lon="-1.98393">
        <ele>5.7</ele>
        <time>2025-01-22T08:29:48.952Z</time>
      </trkpt>
      <trkpt lat="46.72238" lon="-1.98397">
        <ele>5.6</ele>
        <time>2025-01-22T08:29:49.953Z</time>
      </trkpt>
      <trkpt lat="46.72239" lon="-1.984">
        <ele>5.6</ele>
        <time>2025-01-22T08:29:50.953Z</time>
      </trkpt>
      <trkpt lat="46.72241" lon="-1.98403">
        <ele>5.5</ele>
        <time>2025-01-22T08:29:51.953Z</time>
      </trkpt>
      <trkpt lat="46.72243" lon="-1.98406">
        <ele>5.4</ele>
        <time>2025-01-22T08:29:52.953Z</time>
      </trkpt>
      <trkpt lat="46.72245" lon="-1.98408">
        <ele>5.3</ele>
        <time>2025-01-22T08:29:53.952Z</time>
      </trkpt>
      <trkpt lat="46.72246" lon="-1.98409">
        <ele>5.1</ele>
        <time>2025-01-22T08:29:54.953Z</time>
      </trkpt>
      <trkpt lat="46.72248" lon="-1.98409">
        <ele>4.9</ele>
        <time>2025-01-22T08:29:55.952Z</time>
      </trkpt>
      <trkpt lat="46.7225" lon="-1.98408">
        <ele>4.7</ele>
        <time>2025-01-22T08:29:56.952Z</time>
      </trkpt>
      <trkpt lat="46.72252" lon="-1.98406">
        <ele>4.7</ele>
        <time>2025-01-22T08:29:57.952Z</time>
      </trkpt>
      <trkpt lat="46.72254" lon="-1.98404">
        <ele>4.7</ele>
        <time>2025-01-22T08:29:58.952Z</time>
      </trkpt>
      <trkpt lat="46.72256" lon="-1.98401">
        <ele>4.7</ele>
        <time>2025-01-22T08:29:59.953Z</time>
      </trkpt>
      <trkpt lat="46.72258" lon="-1.98399">
        <ele>4.6</ele>
        <time>2025-01-22T08:30:00.953Z</time>
      </trkpt>
      <trkpt lat="46.7226" lon="-1.98396">
        <ele>4.6</ele>
        <time>2025-01-22T08:30:01.953Z</time>
      </trkpt>
      <trkpt lat="46.72263" lon="-1.98395">
        <ele>4.7</ele>
        <time>2025-01-22T08:30:02.953Z</time>
      </trkpt>
      <trkpt lat="46.72266" lon="-1.98392">
        <ele>4.7</ele>
        <time>2025-01-22T08:30:03.953Z</time>
      </trkpt>
      <trkpt lat="46.72268" lon="-1.9839">
        <ele>4.7</ele>
        <time>2025-01-22T08:30:04.952Z</time>
      </trkpt>
      <trkpt lat="46.7227" lon="-1.98389">
        <ele>4.7</ele>
        <time>2025-01-22T08:30:05.952Z</time>
      </trkpt>
      <trkpt lat="46.72272" lon="-1.98391">
        <ele>4.9</ele>
        <time>2025-01-22T08:30:06.952Z</time>
      </trkpt>
      <trkpt lat="46.72274" lon="-1.98394">
        <ele>5</ele>
        <time>2025-01-22T08:30:07.952Z</time>
      </trkpt>
      <trkpt lat="46.72276" lon="-1.98395">
        <ele>5.1</ele>
        <time>2025-01-22T08:30:08.952Z</time>
      </trkpt>
      <trkpt lat="46.72278" lon="-1.98396">
        <ele>5.3</ele>
        <time>2025-01-22T08:30:09.952Z</time>
      </trkpt>
      <trkpt lat="46.7228" lon="-1.98397">
        <ele>5.3</ele>
        <time>2025-01-22T08:30:10.953Z</time>
      </trkpt>
      <trkpt lat="46.72282" lon="-1.98399">
        <ele>5.3</ele>
        <time>2025-01-22T08:30:11.953Z</time>
      </trkpt>
      <trkpt lat="46.72284" lon="-1.984">
        <ele>5.2</ele>
        <time>2025-01-22T08:30:12.953Z</time>
      </trkpt>
      <trkpt lat="46.72286" lon="-1.98402">
        <ele>5.2</ele>
        <time>2025-01-22T08:30:13.953Z</time>
      </trkpt>
      <trkpt lat="46.72288" lon="-1.98403">
        <ele>5.1</ele>
        <time>2025-01-22T08:30:14.953Z</time>
      </trkpt>
      <trkpt lat="46.72289" lon="-1.98406">
        <ele>5.1</ele>
        <time>2025-01-22T08:30:15.952Z</time>
      </trkpt>
      <trkpt lat="46.72291" lon="-1.98408">
        <ele>5</ele>
        <time>2025-01-22T08:30:16.952Z</time>
      </trkpt>
      <trkpt lat="46.72292" lon="-1.98411">
        <ele>5</ele>
        <time>2025-01-22T08:30:17.952Z</time>
      </trkpt>
      <trkpt lat="46.72294" lon="-1.98414">
        <ele>4.9</ele>
        <time>2025-01-22T08:30:18.953Z</time>
      </trkpt>
      <trkpt lat="46.72295" lon="-1.98416">
        <ele>4.7</ele>
        <time>2025-01-22T08:30:19.953Z</time>
      </trkpt>
      <trkpt lat="46.72297" lon="-1.98419">
        <ele>4.6</ele>
        <time>2025-01-22T08:30:20.953Z</time>
      </trkpt>
      <trkpt lat="46.72299" lon="-1.98422">
        <ele>4.6</ele>
        <time>2025-01-22T08:30:21.953Z</time>
      </trkpt>
      <trkpt lat="46.72301" lon="-1.98425">
        <ele>4.5</ele>
        <time>2025-01-22T08:30:22.952Z</time>
      </trkpt>
      <trkpt lat="46.72303" lon="-1.98427">
        <ele>4.5</ele>
        <time>2025-01-22T08:30:23.953Z</time>
      </trkpt>
      <trkpt lat="46.72304" lon="-1.9843">
        <ele>4.5</ele>
        <time>2025-01-22T08:30:24.952Z</time>
      </trkpt>
      <trkpt lat="46.72306" lon="-1.98432">
        <ele>4.5</ele>
        <time>2025-01-22T08:30:25.952Z</time>
      </trkpt>
      <trkpt lat="46.72308" lon="-1.98435">
        <ele>4.6</ele>
        <time>2025-01-22T08:30:26.952Z</time>
      </trkpt>
      <trkpt lat="46.7231" lon="-1.98437">
        <ele>4.6</ele>
        <time>2025-01-22T08:30:27.952Z</time>
      </trkpt>
      <trkpt lat="46.72311" lon="-1.98439">
        <ele>4.6</ele>
        <time>2025-01-22T08:30:28.953Z</time>
      </trkpt>
      <trkpt lat="46.72313" lon="-1.98441">
        <ele>4.6</ele>
        <time>2025-01-22T08:30:29.953Z</time>
      </trkpt>
      <trkpt lat="46.72315" lon="-1.98443">
        <ele>4.6</ele>
        <time>2025-01-22T08:30:30.953Z</time>
      </trkpt>
      <trkpt lat="46.72316" lon="-1.98446">
        <ele>4.7</ele>
        <time>2025-01-22T08:30:31.953Z</time>
      </trkpt>
      <trkpt lat="46.72318" lon="-1.98448">
        <ele>4.7</ele>
        <time>2025-01-22T08:30:32.953Z</time>
      </trkpt>
      <trkpt lat="46.7232" lon="-1.98449">
        <ele>4.6</ele>
        <time>2025-01-22T08:30:33.952Z</time>
      </trkpt>
      <trkpt lat="46.72322" lon="-1.98451">
        <ele>4.6</ele>
        <time>2025-01-22T08:30:34.952Z</time>
      </trkpt>
      <trkpt lat="46.72324" lon="-1.98452">
        <ele>4.6</ele>
        <time>2025-01-22T08:30:35.952Z</time>
      </trkpt>
      <trkpt lat="46.72326" lon="-1.98454">
        <ele>4.6</ele>
        <time>2025-01-22T08:30:36.953Z</time>
      </trkpt>
      <trkpt lat="46.72328" lon="-1.98456">
        <ele>4.6</ele>
        <time>2025-01-22T08:30:37.953Z</time>
      </trkpt>
      <trkpt lat="46.7233" lon="-1.98459">
        <ele>4.7</ele>
        <time>2025-01-22T08:30:38.952Z</time>
      </trkpt>
      <trkpt lat="46.72332" lon="-1.98462">
        <ele>4.7</ele>
        <time>2025-01-22T08:30:39.953Z</time>
      </trkpt>
      <trkpt lat="46.72334" lon="-1.98464">
        <ele>4.7</ele>
        <time>2025-01-22T08:30:40.952Z</time>
      </trkpt>
      <trkpt lat="46.72335" lon="-1.98466">
        <ele>4.8</ele>
        <time>2025-01-22T08:30:41.953Z</time>
      </trkpt>
      <trkpt lat="46.72337" lon="-1.98469">
        <ele>4.9</ele>
        <time>2025-01-22T08:30:42.952Z</time>
      </trkpt>
      <trkpt lat="46.72339" lon="-1.98471">
        <ele>5</ele>
        <time>2025-01-22T08:30:43.952Z</time>
      </trkpt>
      <trkpt lat="46.72341" lon="-1.98473">
        <ele>5</ele>
        <time>2025-01-22T08:30:44.952Z</time>
      </trkpt>
      <trkpt lat="46.72343" lon="-1.98475">
        <ele>5</ele>
        <time>2025-01-22T08:30:45.953Z</time>
      </trkpt>
      <trkpt lat="46.72344" lon="-1.98477">
        <ele>5</ele>
        <time>2025-01-22T08:30:46.953Z</time>
      </trkpt>
      <trkpt lat="46.72346" lon="-1.9848">
        <ele>5</ele>
        <time>2025-01-22T08:30:47.953Z</time>
      </trkpt>
      <trkpt lat="46.72348" lon="-1.98482">
        <ele>5</ele>
        <time>2025-01-22T08:30:48.952Z</time>
      </trkpt>
      <trkpt lat="46.72349" lon="-1.98484">
        <ele>5</ele>
        <time>2025-01-22T08:30:49.952Z</time>
      </trkpt>
      <trkpt lat="46.72351" lon="-1.98486">
        <ele>5</ele>
        <time>2025-01-22T08:30:50.953Z</time>
      </trkpt>
      <trkpt lat="46.72353" lon="-1.98488">
        <ele>5</ele>
        <time>2025-01-22T08:30:51.952Z</time>
      </trkpt>
      <trkpt lat="46.72354" lon="-1.9849">
        <ele>5</ele>
        <time>2025-01-22T08:30:52.953Z</time>
      </trkpt>
      <trkpt lat="46.72356" lon="-1.98491">
        <ele>5</ele>
        <time>2025-01-22T08:30:53.952Z</time>
      </trkpt>
      <trkpt lat="46.72358" lon="-1.98494">
        <ele>5</ele>
        <time>2025-01-22T08:30:54.952Z</time>
      </trkpt>
      <trkpt lat="46.7236" lon="-1.98497">
        <ele>5</ele>
        <time>2025-01-22T08:30:55.953Z</time>
      </trkpt>
      <trkpt lat="46.72362" lon="-1.985">
        <ele>5</ele>
        <time>2025-01-22T08:30:56.953Z</time>
      </trkpt>
      <trkpt lat="46.72364" lon="-1.98502">
        <ele>4.9</ele>
        <time>2025-01-22T08:30:57.953Z</time>
      </trkpt>
      <trkpt lat="46.72366" lon="-1.98504">
        <ele>4.7</ele>
        <time>2025-01-22T08:30:58.953Z</time>
      </trkpt>
      <trkpt lat="46.72368" lon="-1.98507">
        <ele>4.6</ele>
        <time>2025-01-22T08:30:59.952Z</time>
      </trkpt>
      <trkpt lat="46.7237" lon="-1.98509">
        <ele>4.5</ele>
        <time>2025-01-22T08:31:00.953Z</time>
      </trkpt>
      <trkpt lat="46.72372" lon="-1.98511">
        <ele>4.4</ele>
        <time>2025-01-22T08:31:01.952Z</time>
      </trkpt>
      <trkpt lat="46.72374" lon="-1.98514">
        <ele>4.3</ele>
        <time>2025-01-22T08:31:02.953Z</time>
      </trkpt>
      <trkpt lat="46.72376" lon="-1.98516">
        <ele>4.2</ele>
        <time>2025-01-22T08:31:03.953Z</time>
      </trkpt>
      <trkpt lat="46.72378" lon="-1.98519">
        <ele>4.1</ele>
        <time>2025-01-22T08:31:04.953Z</time>
      </trkpt>
      <trkpt lat="46.7238" lon="-1.98521">
        <ele>4.1</ele>
        <time>2025-01-22T08:31:05.953Z</time>
      </trkpt>
      <trkpt lat="46.72382" lon="-1.98523">
        <ele>4</ele>
        <time>2025-01-22T08:31:06.953Z</time>
      </trkpt>
      <trkpt lat="46.72384" lon="-1.98525">
        <ele>4</ele>
        <time>2025-01-22T08:31:07.952Z</time>
      </trkpt>
      <trkpt lat="46.72386" lon="-1.98527">
        <ele>4</ele>
        <time>2025-01-22T08:31:08.953Z</time>
      </trkpt>
      <trkpt lat="46.72389" lon="-1.9853">
        <ele>4</ele>
        <time>2025-01-22T08:31:09.952Z</time>
      </trkpt>
      <trkpt lat="46.72391" lon="-1.98532">
        <ele>4</ele>
        <time>2025-01-22T08:31:10.952Z</time>
      </trkpt>
      <trkpt lat="46.72393" lon="-1.98535">
        <ele>4</ele>
        <time>2025-01-22T08:31:11.953Z</time>
      </trkpt>
      <trkpt lat="46.72395" lon="-1.98538">
        <ele>4</ele>
        <time>2025-01-22T08:31:12.953Z</time>
      </trkpt>
      <trkpt lat="46.72396" lon="-1.98541">
        <ele>4</ele>
        <time>2025-01-22T08:31:13.952Z</time>
      </trkpt>
      <trkpt lat="46.72398" lon="-1.98544">
        <ele>4</ele>
        <time>2025-01-22T08:31:14.953Z</time>
      </trkpt>
      <trkpt lat="46.724" lon="-1.98545">
        <ele>4</ele>
        <time>2025-01-22T08:31:15.953Z</time>
      </trkpt>
      <trkpt lat="46.72402" lon="-1.98547">
        <ele>4</ele>
        <time>2025-01-22T08:31:16.953Z</time>
      </trkpt>
      <trkpt lat="46.72404" lon="-1.98549">
        <ele>4</ele>
        <time>2025-01-22T08:31:17.952Z</time>
      </trkpt>
      <trkpt lat="46.72406" lon="-1.98552">
        <ele>4</ele>
        <time>2025-01-22T08:31:18.952Z</time>
      </trkpt>
      <trkpt lat="46.72408" lon="-1.98554">
        <ele>4</ele>
        <time>2025-01-22T08:31:19.952Z</time>
      </trkpt>
      <trkpt lat="46.7241" lon="-1.98556">
        <ele>4</ele>
        <time>2025-01-22T08:31:20.952Z</time>
      </trkpt>
      <trkpt lat="46.72412" lon="-1.98558">
        <ele>4</ele>
        <time>2025-01-22T08:31:21.952Z</time>
      </trkpt>
      <trkpt lat="46.72413" lon="-1.9856">
        <ele>4</ele>
        <time>2025-01-22T08:31:22.953Z</time>
      </trkpt>
      <trkpt lat="46.72415" lon="-1.98562">
        <ele>4</ele>
        <time>2025-01-22T08:31:23.952Z</time>
      </trkpt>
      <trkpt lat="46.72416" lon="-1.98564">
        <ele>4</ele>
        <time>2025-01-22T08:31:24.953Z</time>
      </trkpt>
      <trkpt lat="46.72418" lon="-1.98565">
        <ele>4</ele>
        <time>2025-01-22T08:31:25.952Z</time>
      </trkpt>
      <trkpt lat="46.72419" lon="-1.98566">
        <ele>4</ele>
        <time>2025-01-22T08:31:26.952Z</time>
      </trkpt>
      <trkpt lat="46.72419" lon="-1.98566">
        <ele>4.1</ele>
        <time>2025-01-22T08:31:27.952Z</time>
      </trkpt>
      <trkpt lat="46.7242" lon="-1.98568">
        <ele>4.1</ele>
        <time>2025-01-22T08:31:28.953Z</time>
      </trkpt>
      <trkpt lat="46.72421" lon="-1.98569">
        <ele>4.1</ele>
        <time>2025-01-22T08:31:29.952Z</time>
      </trkpt>
      <trkpt lat="46.72423" lon="-1.9857">
        <ele>4.1</ele>
        <time>2025-01-22T08:31:30.952Z</time>
      </trkpt>
      <trkpt lat="46.72424" lon="-1.98571">
        <ele>4.1</ele>
        <time>2025-01-22T08:31:31.953Z</time>
      </trkpt>
      <trkpt lat="46.72425" lon="-1.98572">
        <ele>4.1</ele>
        <time>2025-01-22T08:31:32.953Z</time>
      </trkpt>
      <trkpt lat="46.72426" lon="-1.98573">
        <ele>4.1</ele>
        <time>2025-01-22T08:31:33.953Z</time>
      </trkpt>
      <trkpt lat="46.72426" lon="-1.98575">
        <ele>4.1</ele>
        <time>2025-01-22T08:31:34.953Z</time>
      </trkpt>
      <trkpt lat="46.72427" lon="-1.98576">
        <ele>4.1</ele>
        <time>2025-01-22T08:31:35.953Z</time>
      </trkpt>
      <trkpt lat="46.72428" lon="-1.98577">
        <ele>4.1</ele>
        <time>2025-01-22T08:31:36.953Z</time>
      </trkpt>
      <trkpt lat="46.72429" lon="-1.98578">
        <ele>4.1</ele>
        <time>2025-01-22T08:31:37.952Z</time>
      </trkpt>
      <trkpt lat="46.7243" lon="-1.9858">
        <ele>4.1</ele>
        <time>2025-01-22T08:31:38.952Z</time>
      </trkpt>
      <trkpt lat="46.7243" lon="-1.98581">
        <ele>4.1</ele>
        <time>2025-01-22T08:31:39.952Z</time>
      </trkpt>
      <trkpt lat="46.72431" lon="-1.98582">
        <ele>4</ele>
        <time>2025-01-22T08:31:40.952Z</time>
      </trkpt>
      <trkpt lat="46.72432" lon="-1.98584">
        <ele>4</ele>
        <time>2025-01-22T08:31:41.953Z</time>
      </trkpt>
      <trkpt lat="46.72433" lon="-1.98585">
        <ele>4.1</ele>
        <time>2025-01-22T08:31:42.952Z</time>
      </trkpt>
      <trkpt lat="46.72434" lon="-1.98586">
        <ele>4.1</ele>
        <time>2025-01-22T08:31:43.953Z</time>
      </trkpt>
      <trkpt lat="46.72435" lon="-1.98587">
        <ele>4.2</ele>
        <time>2025-01-22T08:31:44.953Z</time>
      </trkpt>
      <trkpt lat="46.72436" lon="-1.98588">
        <ele>4.2</ele>
        <time>2025-01-22T08:31:45.952Z</time>
      </trkpt>
      <trkpt lat="46.72437" lon="-1.98589">
        <ele>4.2</ele>
        <time>2025-01-22T08:31:46.952Z</time>
      </trkpt>
      <trkpt lat="46.72438" lon="-1.9859">
        <ele>4.3</ele>
        <time>2025-01-22T08:31:47.952Z</time>
      </trkpt>
      <trkpt lat="46.72439" lon="-1.98592">
        <ele>4.4</ele>
        <time>2025-01-22T08:31:48.952Z</time>
      </trkpt>
      <trkpt lat="46.72439" lon="-1.98593">
        <ele>4.4</ele>
        <time>2025-01-22T08:31:49.953Z</time>
      </trkpt>
      <trkpt lat="46.72439" lon="-1.98594">
        <ele>4.5</ele>
        <time>2025-01-22T08:31:50.953Z</time>
      </trkpt>
      <trkpt lat="46.7244" lon="-1.98595">
        <ele>4.5</ele>
        <time>2025-01-22T08:31:51.952Z</time>
      </trkpt>
      <trkpt lat="46.72441" lon="-1.98597">
        <ele>4.5</ele>
        <time>2025-01-22T08:31:52.953Z</time>
      </trkpt>
      <trkpt lat="46.72441" lon="-1.98598">
        <ele>4.6</ele>
        <time>2025-01-22T08:31:53.953Z</time>
      </trkpt>
      <trkpt lat="46.72442" lon="-1.98599">
        <ele>4.6</ele>
        <time>2025-01-22T08:31:54.952Z</time>
      </trkpt>
      <trkpt lat="46.72442" lon="-1.986">
        <ele>4.6</ele>
        <time>2025-01-22T08:31:55.952Z</time>
      </trkpt>
      <trkpt lat="46.72443" lon="-1.986">
        <ele>4.6</ele>
        <time>2025-01-22T08:31:56.952Z</time>
      </trkpt>
      <trkpt lat="46.72444" lon="-1.98601">
        <ele>4.7</ele>
        <time>2025-01-22T08:31:57.953Z</time>
      </trkpt>
      <trkpt lat="46.72445" lon="-1.98602">
        <ele>4.7</ele>
        <time>2025-01-22T08:31:58.953Z</time>
      </trkpt>
      <trkpt lat="46.72446" lon="-1.98603">
        <ele>4.7</ele>
        <time>2025-01-22T08:31:59.952Z</time>
      </trkpt>
      <trkpt lat="46.72447" lon="-1.98604">
        <ele>4.8</ele>
        <time>2025-01-22T08:32:00.952Z</time>
      </trkpt>
      <trkpt lat="46.72449" lon="-1.98605">
        <ele>4.9</ele>
        <time>2025-01-22T08:32:01.952Z</time>
      </trkpt>
      <trkpt lat="46.7245" lon="-1.98606">
        <ele>5</ele>
        <time>2025-01-22T08:32:02.952Z</time>
      </trkpt>
      <trkpt lat="46.72451" lon="-1.98607">
        <ele>5.1</ele>
        <time>2025-01-22T08:32:03.953Z</time>
      </trkpt>
      <trkpt lat="46.72452" lon="-1.98609">
        <ele>5.2</ele>
        <time>2025-01-22T08:32:04.952Z</time>
      </trkpt>
      <trkpt lat="46.72453" lon="-1.9861">
        <ele>5.3</ele>
        <time>2025-01-22T08:32:05.952Z</time>
      </trkpt>
      <trkpt lat="46.72454" lon="-1.98612">
        <ele>5.4</ele>
        <time>2025-01-22T08:32:06.952Z</time>
      </trkpt>
      <trkpt lat="46.72456" lon="-1.98614">
        <ele>5.5</ele>
        <time>2025-01-22T08:32:07.953Z</time>
      </trkpt>
      <trkpt lat="46.72457" lon="-1.98616">
        <ele>5.6</ele>
        <time>2025-01-22T08:32:08.953Z</time>
      </trkpt>
      <trkpt lat="46.72458" lon="-1.98617">
        <ele>5.6</ele>
        <time>2025-01-22T08:32:09.952Z</time>
      </trkpt>
      <trkpt lat="46.7246" lon="-1.98619">
        <ele>5.6</ele>
        <time>2025-01-22T08:32:10.952Z</time>
      </trkpt>
      <trkpt lat="46.72462" lon="-1.9862">
        <ele>5.7</ele>
        <time>2025-01-22T08:32:11.953Z</time>
      </trkpt>
      <trkpt lat="46.72463" lon="-1.98622">
        <ele>5.7</ele>
        <time>2025-01-22T08:32:12.952Z</time>
      </trkpt>
      <trkpt lat="46.72465" lon="-1.98624">
        <ele>5.6</ele>
        <time>2025-01-22T08:32:13.952Z</time>
      </trkpt>
      <trkpt lat="46.72467" lon="-1.98626">
        <ele>5.6</ele>
        <time>2025-01-22T08:32:14.952Z</time>
      </trkpt>
      <trkpt lat="46.72469" lon="-1.98628">
        <ele>5.5</ele>
        <time>2025-01-22T08:32:15.953Z</time>
      </trkpt>
      <trkpt lat="46.72471" lon="-1.9863">
        <ele>5.4</ele>
        <time>2025-01-22T08:32:16.953Z</time>
      </trkpt>
      <trkpt lat="46.72474" lon="-1.98632">
        <ele>5.2</ele>
        <time>2025-01-22T08:32:17.953Z</time>
      </trkpt>
      <trkpt lat="46.72476" lon="-1.98634">
        <ele>5</ele>
        <time>2025-01-22T08:32:18.952Z</time>
      </trkpt>
      <trkpt lat="46.72478" lon="-1.98636">
        <ele>4.9</ele>
        <time>2025-01-22T08:32:19.952Z</time>
      </trkpt>
      <trkpt lat="46.72479" lon="-1.98638">
        <ele>4.8</ele>
        <time>2025-01-22T08:32:20.952Z</time>
      </trkpt>
      <trkpt lat="46.7248" lon="-1.9864">
        <ele>4.7</ele>
        <time>2025-01-22T08:32:21.953Z</time>
      </trkpt>
      <trkpt lat="46.72481" lon="-1.98641">
        <ele>4.7</ele>
        <time>2025-01-22T08:32:22.952Z</time>
      </trkpt>
      <trkpt lat="46.72482" lon="-1.98642">
        <ele>4.7</ele>
        <time>2025-01-22T08:32:23.953Z</time>
      </trkpt>
      <trkpt lat="46.72483" lon="-1.98643">
        <ele>4.6</ele>
        <time>2025-01-22T08:32:24.952Z</time>
      </trkpt>
      <trkpt lat="46.72484" lon="-1.98644">
        <ele>4.6</ele>
        <time>2025-01-22T08:32:25.952Z</time>
      </trkpt>
      <trkpt lat="46.72485" lon="-1.98645">
        <ele>4.6</ele>
        <time>2025-01-22T08:32:26.953Z</time>
      </trkpt>
      <trkpt lat="46.72486" lon="-1.98646">
        <ele>4.5</ele>
        <time>2025-01-22T08:32:27.953Z</time>
      </trkpt>
      <trkpt lat="46.72487" lon="-1.98648">
        <ele>4.5</ele>
        <time>2025-01-22T08:32:28.953Z</time>
      </trkpt>
      <trkpt lat="46.72488" lon="-1.98649">
        <ele>4.4</ele>
        <time>2025-01-22T08:32:29.953Z</time>
      </trkpt>
      <trkpt lat="46.72489" lon="-1.98651">
        <ele>4.4</ele>
        <time>2025-01-22T08:32:30.952Z</time>
      </trkpt>
      <trkpt lat="46.72489" lon="-1.98652">
        <ele>4.4</ele>
        <time>2025-01-22T08:32:31.952Z</time>
      </trkpt>
      <trkpt lat="46.7249" lon="-1.98654">
        <ele>4.4</ele>
        <time>2025-01-22T08:32:32.952Z</time>
      </trkpt>
      <trkpt lat="46.72491" lon="-1.98656">
        <ele>4.3</ele>
        <time>2025-01-22T08:32:33.952Z</time>
      </trkpt>
      <trkpt lat="46.72492" lon="-1.98657">
        <ele>4.3</ele>
        <time>2025-01-22T08:32:34.953Z</time>
      </trkpt>
      <trkpt lat="46.72493" lon="-1.98658">
        <ele>4.3</ele>
        <time>2025-01-22T08:32:35.952Z</time>
      </trkpt>
      <trkpt lat="46.72494" lon="-1.9866">
        <ele>4.2</ele>
        <time>2025-01-22T08:32:36.953Z</time>
      </trkpt>
      <trkpt lat="46.72494" lon="-1.98661">
        <ele>4.2</ele>
        <time>2025-01-22T08:32:37.952Z</time>
      </trkpt>
      <trkpt lat="46.72495" lon="-1.98662">
        <ele>4.2</ele>
        <time>2025-01-22T08:32:38.952Z</time>
      </trkpt>
      <trkpt lat="46.72496" lon="-1.98663">
        <ele>4.1</ele>
        <time>2025-01-22T08:32:39.952Z</time>
      </trkpt>
      <trkpt lat="46.72498" lon="-1.98665">
        <ele>4.1</ele>
        <time>2025-01-22T08:32:40.952Z</time>
      </trkpt>
      <trkpt lat="46.72499" lon="-1.98667">
        <ele>4</ele>
        <time>2025-01-22T08:32:41.953Z</time>
      </trkpt>
      <trkpt lat="46.72501" lon="-1.98668">
        <ele>4</ele>
        <time>2025-01-22T08:32:42.952Z</time>
      </trkpt>
      <trkpt lat="46.72502" lon="-1.9867">
        <ele>4.1</ele>
        <time>2025-01-22T08:32:43.953Z</time>
      </trkpt>
      <trkpt lat="46.72503" lon="-1.98671">
        <ele>4.1</ele>
        <time>2025-01-22T08:32:44.953Z</time>
      </trkpt>
      <trkpt lat="46.72504" lon="-1.98672">
        <ele>4.2</ele>
        <time>2025-01-22T08:32:45.953Z</time>
      </trkpt>
      <trkpt lat="46.72505" lon="-1.98673">
        <ele>4.2</ele>
        <time>2025-01-22T08:32:46.952Z</time>
      </trkpt>
      <trkpt lat="46.72506" lon="-1.98674">
        <ele>4.2</ele>
        <time>2025-01-22T08:32:47.952Z</time>
      </trkpt>
      <trkpt lat="46.72507" lon="-1.98676">
        <ele>4.3</ele>
        <time>2025-01-22T08:32:48.952Z</time>
      </trkpt>
      <trkpt lat="46.72508" lon="-1.98677">
        <ele>4.3</ele>
        <time>2025-01-22T08:32:49.953Z</time>
      </trkpt>
      <trkpt lat="46.72509" lon="-1.98678">
        <ele>4.3</ele>
        <time>2025-01-22T08:32:50.953Z</time>
      </trkpt>
      <trkpt lat="46.7251" lon="-1.98679">
        <ele>4.4</ele>
        <time>2025-01-22T08:32:51.952Z</time>
      </trkpt>
      <trkpt lat="46.72511" lon="-1.98679">
        <ele>4.4</ele>
        <time>2025-01-22T08:32:52.952Z</time>
      </trkpt>
      <trkpt lat="46.72512" lon="-1.98681">
        <ele>4.4</ele>
        <time>2025-01-22T08:32:53.952Z</time>
      </trkpt>
      <trkpt lat="46.72513" lon="-1.98682">
        <ele>4.5</ele>
        <time>2025-01-22T08:32:54.953Z</time>
      </trkpt>
      <trkpt lat="46.72513" lon="-1.98684">
        <ele>4.5</ele>
        <time>2025-01-22T08:32:55.953Z</time>
      </trkpt>
      <trkpt lat="46.72514" lon="-1.98685">
        <ele>4.5</ele>
        <time>2025-01-22T08:32:56.953Z</time>
      </trkpt>
      <trkpt lat="46.72515" lon="-1.98687">
        <ele>4.5</ele>
        <time>2025-01-22T08:32:57.952Z</time>
      </trkpt>
      <trkpt lat="46.72516" lon="-1.98689">
        <ele>4.6</ele>
        <time>2025-01-22T08:32:58.952Z</time>
      </trkpt>
      <trkpt lat="46.72517" lon="-1.98691">
        <ele>4.6</ele>
        <time>2025-01-22T08:32:59.952Z</time>
      </trkpt>
      <trkpt lat="46.72518" lon="-1.98694">
        <ele>4.6</ele>
        <time>2025-01-22T08:33:00.953Z</time>
      </trkpt>
      <trkpt lat="46.72519" lon="-1.98695">
        <ele>4.7</ele>
        <time>2025-01-22T08:33:01.953Z</time>
      </trkpt>
      <trkpt lat="46.7252" lon="-1.98696">
        <ele>4.8</ele>
        <time>2025-01-22T08:33:02.953Z</time>
      </trkpt>
      <trkpt lat="46.72521" lon="-1.98697">
        <ele>4.9</ele>
        <time>2025-01-22T08:33:03.952Z</time>
      </trkpt>
      <trkpt lat="46.72522" lon="-1.98698">
        <ele>5</ele>
        <time>2025-01-22T08:33:04.953Z</time>
      </trkpt>
      <trkpt lat="46.72523" lon="-1.98699">
        <ele>5.1</ele>
        <time>2025-01-22T08:33:05.952Z</time>
      </trkpt>
      <trkpt lat="46.72524" lon="-1.987">
        <ele>5.2</ele>
        <time>2025-01-22T08:33:06.952Z</time>
      </trkpt>
      <trkpt lat="46.72525" lon="-1.98701">
        <ele>5.3</ele>
        <time>2025-01-22T08:33:07.952Z</time>
      </trkpt>
      <trkpt lat="46.72525" lon="-1.98701">
        <ele>5.4</ele>
        <time>2025-01-22T08:33:08.952Z</time>
      </trkpt>
      <trkpt lat="46.72526" lon="-1.98702">
        <ele>5.5</ele>
        <time>2025-01-22T08:33:09.953Z</time>
      </trkpt>
      <trkpt lat="46.72527" lon="-1.98703">
        <ele>5.6</ele>
        <time>2025-01-22T08:33:10.953Z</time>
      </trkpt>
      <trkpt lat="46.72528" lon="-1.98704">
        <ele>5.7</ele>
        <time>2025-01-22T08:33:11.953Z</time>
      </trkpt>
      <trkpt lat="46.72529" lon="-1.98705">
        <ele>5.7</ele>
        <time>2025-01-22T08:33:12.953Z</time>
      </trkpt>
      <trkpt lat="46.7253" lon="-1.98706">
        <ele>5.8</ele>
        <time>2025-01-22T08:33:13.953Z</time>
      </trkpt>
      <trkpt lat="46.72531" lon="-1.98707">
        <ele>5.8</ele>
        <time>2025-01-22T08:33:14.953Z</time>
      </trkpt>
      <trkpt lat="46.72532" lon="-1.98707">
        <ele>5.9</ele>
        <time>2025-01-22T08:33:15.953Z</time>
      </trkpt>
      <trkpt lat="46.72533" lon="-1.98708">
        <ele>5.9</ele>
        <time>2025-01-22T08:33:16.952Z</time>
      </trkpt>
      <trkpt lat="46.72534" lon="-1.98709">
        <ele>6</ele>
        <time>2025-01-22T08:33:17.953Z</time>
      </trkpt>
      <trkpt lat="46.72534" lon="-1.9871">
        <ele>6</ele>
        <time>2025-01-22T08:33:18.953Z</time>
      </trkpt>
      <trkpt lat="46.72535" lon="-1.98711">
        <ele>6.1</ele>
        <time>2025-01-22T08:33:19.952Z</time>
      </trkpt>
      <trkpt lat="46.72536" lon="-1.98712">
        <ele>6.1</ele>
        <time>2025-01-22T08:33:20.953Z</time>
      </trkpt>
      <trkpt lat="46.72537" lon="-1.98713">
        <ele>6.1</ele>
        <time>2025-01-22T08:33:21.953Z</time>
      </trkpt>
      <trkpt lat="46.72538" lon="-1.98713">
        <ele>6.1</ele>
        <time>2025-01-22T08:33:22.953Z</time>
      </trkpt>
      <trkpt lat="46.72539" lon="-1.98714">
        <ele>6.1</ele>
        <time>2025-01-22T08:33:23.952Z</time>
      </trkpt>
      <trkpt lat="46.7254" lon="-1.98715">
        <ele>6.1</ele>
        <time>2025-01-22T08:33:24.952Z</time>
      </trkpt>
      <trkpt lat="46.72541" lon="-1.98716">
        <ele>6.2</ele>
        <time>2025-01-22T08:33:25.952Z</time>
      </trkpt>
      <trkpt lat="46.72542" lon="-1.98717">
        <ele>6.2</ele>
        <time>2025-01-22T08:33:26.952Z</time>
      </trkpt>
      <trkpt lat="46.72542" lon="-1.98718">
        <ele>6.2</ele>
        <time>2025-01-22T08:33:27.953Z</time>
      </trkpt>
      <trkpt lat="46.72543" lon="-1.98719">
        <ele>6.3</ele>
        <time>2025-01-22T08:33:28.952Z</time>
      </trkpt>
      <trkpt lat="46.72543" lon="-1.98721">
        <ele>6.4</ele>
        <time>2025-01-22T08:33:29.952Z</time>
      </trkpt>
      <trkpt lat="46.72544" lon="-1.98722">
        <ele>6.4</ele>
        <time>2025-01-22T08:33:30.953Z</time>
      </trkpt>
      <trkpt lat="46.72545" lon="-1.98723">
        <ele>6.4</ele>
        <time>2025-01-22T08:33:31.953Z</time>
      </trkpt>
      <trkpt lat="46.72546" lon="-1.98724">
        <ele>6.4</ele>
        <time>2025-01-22T08:33:32.952Z</time>
      </trkpt>
      <trkpt lat="46.72547" lon="-1.98726">
        <ele>6.3</ele>
        <time>2025-01-22T08:33:33.952Z</time>
      </trkpt>
      <trkpt lat="46.72548" lon="-1.98727">
        <ele>6.3</ele>
        <time>2025-01-22T08:33:34.952Z</time>
      </trkpt>
      <trkpt lat="46.72549" lon="-1.98728">
        <ele>6.3</ele>
        <time>2025-01-22T08:33:35.952Z</time>
      </trkpt>
      <trkpt lat="46.7255" lon="-1.9873">
        <ele>6.2</ele>
        <time>2025-01-22T08:33:36.953Z</time>
      </trkpt>
      <trkpt lat="46.72552" lon="-1.98731">
        <ele>6.2</ele>
        <time>2025-01-22T08:33:37.952Z</time>
      </trkpt>
      <trkpt lat="46.72553" lon="-1.98733">
        <ele>6.1</ele>
        <time>2025-01-22T08:33:38.953Z</time>
      </trkpt>
      <trkpt lat="46.72554" lon="-1.98733">
        <ele>6.1</ele>
        <time>2025-01-22T08:33:39.952Z</time>
      </trkpt>
      <trkpt lat="46.72555" lon="-1.98735">
        <ele>6.1</ele>
        <time>2025-01-22T08:33:40.953Z</time>
      </trkpt>
      <trkpt lat="46.72555" lon="-1.98737">
        <ele>6</ele>
        <time>2025-01-22T08:33:41.952Z</time>
      </trkpt>
      <trkpt lat="46.72556" lon="-1.98738">
        <ele>6</ele>
        <time>2025-01-22T08:33:42.953Z</time>
      </trkpt>
      <trkpt lat="46.72557" lon="-1.98739">
        <ele>6</ele>
        <time>2025-01-22T08:33:43.953Z</time>
      </trkpt>
      <trkpt lat="46.72558" lon="-1.98741">
        <ele>5.9</ele>
        <time>2025-01-22T08:33:44.953Z</time>
      </trkpt>
      <trkpt lat="46.7256" lon="-1.98744">
        <ele>5.8</ele>
        <time>2025-01-22T08:33:45.953Z</time>
      </trkpt>
      <trkpt lat="46.72562" lon="-1.98746">
        <ele>5.8</ele>
        <time>2025-01-22T08:33:46.953Z</time>
      </trkpt>
      <trkpt lat="46.72564" lon="-1.98749">
        <ele>5.7</ele>
        <time>2025-01-22T08:33:47.952Z</time>
      </trkpt>
      <trkpt lat="46.72566" lon="-1.98751">
        <ele>5.6</ele>
        <time>2025-01-22T08:33:48.952Z</time>
      </trkpt>
      <trkpt lat="46.72568" lon="-1.98753">
        <ele>5.6</ele>
        <time>2025-01-22T08:33:49.952Z</time>
      </trkpt>
      <trkpt lat="46.7257" lon="-1.98755">
        <ele>5.5</ele>
        <time>2025-01-22T08:33:50.952Z</time>
      </trkpt>
      <trkpt lat="46.72572" lon="-1.98757">
        <ele>5.4</ele>
        <time>2025-01-22T08:33:51.953Z</time>
      </trkpt>
      <trkpt lat="46.72574" lon="-1.9876">
        <ele>5.4</ele>
        <time>2025-01-22T08:33:52.953Z</time>
      </trkpt>
      <trkpt lat="46.72575" lon="-1.98763">
        <ele>5.3</ele>
        <time>2025-01-22T08:33:53.952Z</time>
      </trkpt>
      <trkpt lat="46.72577" lon="-1.98766">
        <ele>5.2</ele>
        <time>2025-01-22T08:33:54.953Z</time>
      </trkpt>
      <trkpt lat="46.72578" lon="-1.98769">
        <ele>5.2</ele>
        <time>2025-01-22T08:33:55.952Z</time>
      </trkpt>
      <trkpt lat="46.7258" lon="-1.98771">
        <ele>5.1</ele>
        <time>2025-01-22T08:33:56.952Z</time>
      </trkpt>
      <trkpt lat="46.72582" lon="-1.98774">
        <ele>5.1</ele>
        <time>2025-01-22T08:33:57.953Z</time>
      </trkpt>
      <trkpt lat="46.72584" lon="-1.98777">
        <ele>5</ele>
        <time>2025-01-22T08:33:58.953Z</time>
      </trkpt>
      <trkpt lat="46.72586" lon="-1.98781">
        <ele>4.9</ele>
        <time>2025-01-22T08:33:59.952Z</time>
      </trkpt>
      <trkpt lat="46.72587" lon="-1.98784">
        <ele>4.8</ele>
        <time>2025-01-22T08:34:00.952Z</time>
      </trkpt>
      <trkpt lat="46.72589" lon="-1.98788">
        <ele>4.6</ele>
        <time>2025-01-22T08:34:01.953Z</time>
      </trkpt>
      <trkpt lat="46.72591" lon="-1.98791">
        <ele>4.5</ele>
        <time>2025-01-22T08:34:02.953Z</time>
      </trkpt>
      <trkpt lat="46.72593" lon="-1.98794">
        <ele>4.4</ele>
        <time>2025-01-22T08:34:03.953Z</time>
      </trkpt>
      <trkpt lat="46.72595" lon="-1.98797">
        <ele>4.3</ele>
        <time>2025-01-22T08:34:04.952Z</time>
      </trkpt>
      <trkpt lat="46.72597" lon="-1.98801">
        <ele>4.2</ele>
        <time>2025-01-22T08:34:05.952Z</time>
      </trkpt>
      <trkpt lat="46.72598" lon="-1.98804">
        <ele>4.1</ele>
        <time>2025-01-22T08:34:06.953Z</time>
      </trkpt>
      <trkpt lat="46.726" lon="-1.98807">
        <ele>4</ele>
        <time>2025-01-22T08:34:07.953Z</time>
      </trkpt>
      <trkpt lat="46.72601" lon="-1.9881">
        <ele>4</ele>
        <time>2025-01-22T08:34:08.952Z</time>
      </trkpt>
      <trkpt lat="46.72603" lon="-1.98813">
        <ele>4</ele>
        <time>2025-01-22T08:34:09.952Z</time>
      </trkpt>
      <trkpt lat="46.72604" lon="-1.98817">
        <ele>4</ele>
        <time>2025-01-22T08:34:10.953Z</time>
      </trkpt>
      <trkpt lat="46.72606" lon="-1.9882">
        <ele>4</ele>
        <time>2025-01-22T08:34:11.952Z</time>
      </trkpt>
      <trkpt lat="46.72608" lon="-1.98822">
        <ele>4</ele>
        <time>2025-01-22T08:34:12.952Z</time>
      </trkpt>
      <trkpt lat="46.7261" lon="-1.98824">
        <ele>4</ele>
        <time>2025-01-22T08:34:13.953Z</time>
      </trkpt>
      <trkpt lat="46.72611" lon="-1.98827">
        <ele>4</ele>
        <time>2025-01-22T08:34:14.952Z</time>
      </trkpt>
      <trkpt lat="46.72613" lon="-1.98831">
        <ele>4</ele>
        <time>2025-01-22T08:34:15.953Z</time>
      </trkpt>
      <trkpt lat="46.72614" lon="-1.98834">
        <ele>4</ele>
        <time>2025-01-22T08:34:16.953Z</time>
      </trkpt>
      <trkpt lat="46.72616" lon="-1.98837">
        <ele>4.2</ele>
        <time>2025-01-22T08:34:17.952Z</time>
      </trkpt>
      <trkpt lat="46.72618" lon="-1.9884">
        <ele>4.3</ele>
        <time>2025-01-22T08:34:18.953Z</time>
      </trkpt>
      <trkpt lat="46.72619" lon="-1.98842">
        <ele>4.4</ele>
        <time>2025-01-22T08:34:19.953Z</time>
      </trkpt>
      <trkpt lat="46.72621" lon="-1.98844">
        <ele>4.5</ele>
        <time>2025-01-22T08:34:20.952Z</time>
      </trkpt>
      <trkpt lat="46.72623" lon="-1.98846">
        <ele>4.7</ele>
        <time>2025-01-22T08:34:21.953Z</time>
      </trkpt>
      <trkpt lat="46.72625" lon="-1.98849">
        <ele>4.8</ele>
        <time>2025-01-22T08:34:22.952Z</time>
      </trkpt>
      <trkpt lat="46.72627" lon="-1.98851">
        <ele>5</ele>
        <time>2025-01-22T08:34:23.952Z</time>
      </trkpt>
      <trkpt lat="46.72629" lon="-1.98853">
        <ele>5.2</ele>
        <time>2025-01-22T08:34:24.952Z</time>
      </trkpt>
      <trkpt lat="46.72631" lon="-1.98855">
        <ele>5.3</ele>
        <time>2025-01-22T08:34:25.952Z</time>
      </trkpt>
      <trkpt lat="46.72633" lon="-1.98857">
        <ele>5.5</ele>
        <time>2025-01-22T08:34:26.953Z</time>
      </trkpt>
      <trkpt lat="46.72635" lon="-1.98859">
        <ele>5.7</ele>
        <time>2025-01-22T08:34:27.952Z</time>
      </trkpt>
      <trkpt lat="46.72637" lon="-1.9886">
        <ele>5.9</ele>
        <time>2025-01-22T08:34:28.952Z</time>
      </trkpt>
      <trkpt lat="46.72639" lon="-1.98861">
        <ele>6</ele>
        <time>2025-01-22T08:34:29.952Z</time>
      </trkpt>
      <trkpt lat="46.7264" lon="-1.98863">
        <ele>5.8</ele>
        <time>2025-01-22T08:34:30.953Z</time>
      </trkpt>
      <trkpt lat="46.72641" lon="-1.98865">
        <ele>5.7</ele>
        <time>2025-01-22T08:34:31.952Z</time>
      </trkpt>
      <trkpt lat="46.72643" lon="-1.98867">
        <ele>5.6</ele>
        <time>2025-01-22T08:34:32.953Z</time>
      </trkpt>
      <trkpt lat="46.72645" lon="-1.98868">
        <ele>5.5</ele>
        <time>2025-01-22T08:34:33.952Z</time>
      </trkpt>
      <trkpt lat="46.72647" lon="-1.98868">
        <ele>5.5</ele>
        <time>2025-01-22T08:34:34.952Z</time>
      </trkpt>
      <trkpt lat="46.72649" lon="-1.98869">
        <ele>5.4</ele>
        <time>2025-01-22T08:34:35.953Z</time>
      </trkpt>
      <trkpt lat="46.72651" lon="-1.98869">
        <ele>5.3</ele>
        <time>2025-01-22T08:34:36.952Z</time>
      </trkpt>
      <trkpt lat="46.72653" lon="-1.9887">
        <ele>5.2</ele>
        <time>2025-01-22T08:34:37.952Z</time>
      </trkpt>
      <trkpt lat="46.72655" lon="-1.98871">
        <ele>5</ele>
        <time>2025-01-22T08:34:38.952Z</time>
      </trkpt>
      <trkpt lat="46.72658" lon="-1.98873">
        <ele>4.9</ele>
        <time>2025-01-22T08:34:39.952Z</time>
      </trkpt>
      <trkpt lat="46.7266" lon="-1.98875">
        <ele>4.6</ele>
        <time>2025-01-22T08:34:40.953Z</time>
      </trkpt>
      <trkpt lat="46.72662" lon="-1.98877">
        <ele>4.4</ele>
        <time>2025-01-22T08:34:41.953Z</time>
      </trkpt>
      <trkpt lat="46.72664" lon="-1.98878">
        <ele>4.2</ele>
        <time>2025-01-22T08:34:42.953Z</time>
      </trkpt>
      <trkpt lat="46.72666" lon="-1.98881">
        <ele>3.9</ele>
        <time>2025-01-22T08:34:43.953Z</time>
      </trkpt>
      <trkpt lat="46.72668" lon="-1.98883">
        <ele>3.7</ele>
        <time>2025-01-22T08:34:44.953Z</time>
      </trkpt>
      <trkpt lat="46.7267" lon="-1.98886">
        <ele>3.5</ele>
        <time>2025-01-22T08:34:45.952Z</time>
      </trkpt>
      <trkpt lat="46.72671" lon="-1.98889">
        <ele>3.4</ele>
        <time>2025-01-22T08:34:46.952Z</time>
      </trkpt>
      <trkpt lat="46.72673" lon="-1.98892">
        <ele>3.5</ele>
        <time>2025-01-22T08:34:47.952Z</time>
      </trkpt>
      <trkpt lat="46.72675" lon="-1.98894">
        <ele>3.7</ele>
        <time>2025-01-22T08:34:48.953Z</time>
      </trkpt>
      <trkpt lat="46.72677" lon="-1.98897">
        <ele>3.9</ele>
        <time>2025-01-22T08:34:49.953Z</time>
      </trkpt>
      <trkpt lat="46.72679" lon="-1.989">
        <ele>4.1</ele>
        <time>2025-01-22T08:34:50.953Z</time>
      </trkpt>
      <trkpt lat="46.72681" lon="-1.98902">
        <ele>4.2</ele>
        <time>2025-01-22T08:34:51.953Z</time>
      </trkpt>
      <trkpt lat="46.72682" lon="-1.98904">
        <ele>4.4</ele>
        <time>2025-01-22T08:34:52.953Z</time>
      </trkpt>
      <trkpt lat="46.72684" lon="-1.98907">
        <ele>4.5</ele>
        <time>2025-01-22T08:34:53.952Z</time>
      </trkpt>
      <trkpt lat="46.72686" lon="-1.98909">
        <ele>4.6</ele>
        <time>2025-01-22T08:34:54.952Z</time>
      </trkpt>
      <trkpt lat="46.72687" lon="-1.98911">
        <ele>4.7</ele>
        <time>2025-01-22T08:34:55.953Z</time>
      </trkpt>
      <trkpt lat="46.72689" lon="-1.98913">
        <ele>4.8</ele>
        <time>2025-01-22T08:34:56.952Z</time>
      </trkpt>
      <trkpt lat="46.7269" lon="-1.98914">
        <ele>4.8</ele>
        <time>2025-01-22T08:34:57.952Z</time>
      </trkpt>
      <trkpt lat="46.72692" lon="-1.98916">
        <ele>4.9</ele>
        <time>2025-01-22T08:34:58.952Z</time>
      </trkpt>
      <trkpt lat="46.72693" lon="-1.98918">
        <ele>4.9</ele>
        <time>2025-01-22T08:34:59.952Z</time>
      </trkpt>
      <trkpt lat="46.72694" lon="-1.9892">
        <ele>5</ele>
        <time>2025-01-22T08:35:00.953Z</time>
      </trkpt>
      <trkpt lat="46.72696" lon="-1.98922">
        <ele>5.2</ele>
        <time>2025-01-22T08:35:01.953Z</time>
      </trkpt>
      <trkpt lat="46.72697" lon="-1.98924">
        <ele>5.4</ele>
        <time>2025-01-22T08:35:02.952Z</time>
      </trkpt>
      <trkpt lat="46.72698" lon="-1.98926">
        <ele>5.5</ele>
        <time>2025-01-22T08:35:03.953Z</time>
      </trkpt>
      <trkpt lat="46.72699" lon="-1.98928">
        <ele>5.7</ele>
        <time>2025-01-22T08:35:04.952Z</time>
      </trkpt>
      <trkpt lat="46.72701" lon="-1.98929">
        <ele>5.8</ele>
        <time>2025-01-22T08:35:05.952Z</time>
      </trkpt>
      <trkpt lat="46.72703" lon="-1.98932">
        <ele>6</ele>
        <time>2025-01-22T08:35:06.952Z</time>
      </trkpt>
      <trkpt lat="46.72704" lon="-1.98934">
        <ele>6.1</ele>
        <time>2025-01-22T08:35:07.952Z</time>
      </trkpt>
      <trkpt lat="46.72706" lon="-1.98936">
        <ele>6.3</ele>
        <time>2025-01-22T08:35:08.953Z</time>
      </trkpt>
      <trkpt lat="46.72708" lon="-1.98937">
        <ele>6.4</ele>
        <time>2025-01-22T08:35:09.952Z</time>
      </trkpt>
      <trkpt lat="46.7271" lon="-1.98939">
        <ele>6.4</ele>
        <time>2025-01-22T08:35:10.953Z</time>
      </trkpt>
      <trkpt lat="46.7271" lon="-1.9894">
        <ele>6.4</ele>
        <time>2025-01-22T08:35:11.952Z</time>
      </trkpt>
      <trkpt lat="46.72712" lon="-1.98942">
        <ele>6.4</ele>
        <time>2025-01-22T08:35:12.953Z</time>
      </trkpt>
      <trkpt lat="46.72713" lon="-1.98943">
        <ele>6.4</ele>
        <time>2025-01-22T08:35:13.952Z</time>
      </trkpt>
      <trkpt lat="46.72714" lon="-1.98946">
        <ele>6.3</ele>
        <time>2025-01-22T08:35:14.952Z</time>
      </trkpt>
      <trkpt lat="46.72715" lon="-1.98948">
        <ele>6.3</ele>
        <time>2025-01-22T08:35:15.952Z</time>
      </trkpt>
      <trkpt lat="46.72716" lon="-1.98951">
        <ele>6.2</ele>
        <time>2025-01-22T08:35:16.952Z</time>
      </trkpt>
      <trkpt lat="46.72717" lon="-1.98953">
        <ele>6.1</ele>
        <time>2025-01-22T08:35:17.953Z</time>
      </trkpt>
      <trkpt lat="46.72719" lon="-1.98955">
        <ele>6.1</ele>
        <time>2025-01-22T08:35:18.952Z</time>
      </trkpt>
      <trkpt lat="46.7272" lon="-1.98957">
        <ele>6</ele>
        <time>2025-01-22T08:35:19.952Z</time>
      </trkpt>
      <trkpt lat="46.72722" lon="-1.98959">
        <ele>5.9</ele>
        <time>2025-01-22T08:35:20.952Z</time>
      </trkpt>
      <trkpt lat="46.72722" lon="-1.9896">
        <ele>5.9</ele>
        <time>2025-01-22T08:35:21.953Z</time>
      </trkpt>
      <trkpt lat="46.72724" lon="-1.98963">
        <ele>5.6</ele>
        <time>2025-01-22T08:35:22.953Z</time>
      </trkpt>
      <trkpt lat="46.72726" lon="-1.98967">
        <ele>5.4</ele>
        <time>2025-01-22T08:35:23.952Z</time>
      </trkpt>
      <trkpt lat="46.72727" lon="-1.98969">
        <ele>5.2</ele>
        <time>2025-01-22T08:35:24.953Z</time>
      </trkpt>
      <trkpt lat="46.72729" lon="-1.98971">
        <ele>5.1</ele>
        <time>2025-01-22T08:35:25.952Z</time>
      </trkpt>
      <trkpt lat="46.72731" lon="-1.98974">
        <ele>5</ele>
        <time>2025-01-22T08:35:26.952Z</time>
      </trkpt>
      <trkpt lat="46.72732" lon="-1.98977">
        <ele>4.9</ele>
        <time>2025-01-22T08:35:27.952Z</time>
      </trkpt>
      <trkpt lat="46.72734" lon="-1.9898">
        <ele>4.9</ele>
        <time>2025-01-22T08:35:28.952Z</time>
      </trkpt>
      <trkpt lat="46.72736" lon="-1.98983">
        <ele>4.8</ele>
        <time>2025-01-22T08:35:29.952Z</time>
      </trkpt>
      <trkpt lat="46.72738" lon="-1.98985">
        <ele>4.7</ele>
        <time>2025-01-22T08:35:30.953Z</time>
      </trkpt>
      <trkpt lat="46.7274" lon="-1.98987">
        <ele>4.7</ele>
        <time>2025-01-22T08:35:31.953Z</time>
      </trkpt>
      <trkpt lat="46.72741" lon="-1.9899">
        <ele>4.6</ele>
        <time>2025-01-22T08:35:32.952Z</time>
      </trkpt>
      <trkpt lat="46.72743" lon="-1.98993">
        <ele>4.5</ele>
        <time>2025-01-22T08:35:33.952Z</time>
      </trkpt>
      <trkpt lat="46.72744" lon="-1.98996">
        <ele>4.3</ele>
        <time>2025-01-22T08:35:34.952Z</time>
      </trkpt>
      <trkpt lat="46.72745" lon="-1.98999">
        <ele>4.2</ele>
        <time>2025-01-22T08:35:35.953Z</time>
      </trkpt>
      <trkpt lat="46.72746" lon="-1.99002">
        <ele>4.1</ele>
        <time>2025-01-22T08:35:36.953Z</time>
      </trkpt>
      <trkpt lat="46.72746" lon="-1.99005">
        <ele>4.1</ele>
        <time>2025-01-22T08:35:37.953Z</time>
      </trkpt>
      <trkpt lat="46.72747" lon="-1.99009">
        <ele>4.1</ele>
        <time>2025-01-22T08:35:38.952Z</time>
      </trkpt>
      <trkpt lat="46.72747" lon="-1.99012">
        <ele>4.1</ele>
        <time>2025-01-22T08:35:39.952Z</time>
      </trkpt>
      <trkpt lat="46.72747" lon="-1.99015">
        <ele>4.1</ele>
        <time>2025-01-22T08:35:40.953Z</time>
      </trkpt>
      <trkpt lat="46.72747" lon="-1.99018">
        <ele>4</ele>
        <time>2025-01-22T08:35:41.952Z</time>
      </trkpt>
      <trkpt lat="46.72747" lon="-1.99022">
        <ele>4</ele>
        <time>2025-01-22T08:35:42.953Z</time>
      </trkpt>
      <trkpt lat="46.72748" lon="-1.99026">
        <ele>4</ele>
        <time>2025-01-22T08:35:43.953Z</time>
      </trkpt>
      <trkpt lat="46.72749" lon="-1.99029">
        <ele>4</ele>
        <time>2025-01-22T08:35:44.953Z</time>
      </trkpt>
      <trkpt lat="46.72751" lon="-1.99032">
        <ele>4</ele>
        <time>2025-01-22T08:35:45.953Z</time>
      </trkpt>
      <trkpt lat="46.72752" lon="-1.99036">
        <ele>4</ele>
        <time>2025-01-22T08:35:46.952Z</time>
      </trkpt>
      <trkpt lat="46.72754" lon="-1.99039">
        <ele>4</ele>
        <time>2025-01-22T08:35:47.952Z</time>
      </trkpt>
      <trkpt lat="46.72755" lon="-1.99041">
        <ele>4</ele>
        <time>2025-01-22T08:35:48.953Z</time>
      </trkpt>
      <trkpt lat="46.72757" lon="-1.99044">
        <ele>4</ele>
        <time>2025-01-22T08:35:49.952Z</time>
      </trkpt>
      <trkpt lat="46.72759" lon="-1.99047">
        <ele>4</ele>
        <time>2025-01-22T08:35:50.952Z</time>
      </trkpt>
      <trkpt lat="46.7276" lon="-1.9905">
        <ele>4</ele>
        <time>2025-01-22T08:35:51.952Z</time>
      </trkpt>
      <trkpt lat="46.72762" lon="-1.99053">
        <ele>4</ele>
        <time>2025-01-22T08:35:52.952Z</time>
      </trkpt>
      <trkpt lat="46.72764" lon="-1.99056">
        <ele>4</ele>
        <time>2025-01-22T08:35:53.953Z</time>
      </trkpt>
      <trkpt lat="46.72765" lon="-1.99059">
        <ele>4.1</ele>
        <time>2025-01-22T08:35:54.953Z</time>
      </trkpt>
      <trkpt lat="46.72767" lon="-1.99062">
        <ele>4.1</ele>
        <time>2025-01-22T08:35:55.953Z</time>
      </trkpt>
      <trkpt lat="46.72769" lon="-1.99064">
        <ele>4.1</ele>
        <time>2025-01-22T08:35:56.952Z</time>
      </trkpt>
      <trkpt lat="46.72771" lon="-1.99066">
        <ele>4.1</ele>
        <time>2025-01-22T08:35:57.952Z</time>
      </trkpt>
      <trkpt lat="46.72773" lon="-1.99068">
        <ele>4.1</ele>
        <time>2025-01-22T08:35:58.952Z</time>
      </trkpt>
      <trkpt lat="46.72775" lon="-1.99071">
        <ele>4</ele>
        <time>2025-01-22T08:35:59.953Z</time>
      </trkpt>
      <trkpt lat="46.72777" lon="-1.99073">
        <ele>4</ele>
        <time>2025-01-22T08:36:00.952Z</time>
      </trkpt>
      <trkpt lat="46.72779" lon="-1.99074">
        <ele>4</ele>
        <time>2025-01-22T08:36:01.952Z</time>
      </trkpt>
      <trkpt lat="46.72781" lon="-1.99077">
        <ele>4</ele>
        <time>2025-01-22T08:36:02.952Z</time>
      </trkpt>
      <trkpt lat="46.72783" lon="-1.9908">
        <ele>4</ele>
        <time>2025-01-22T08:36:03.953Z</time>
      </trkpt>
      <trkpt lat="46.72785" lon="-1.99083">
        <ele>4</ele>
        <time>2025-01-22T08:36:04.952Z</time>
      </trkpt>
      <trkpt lat="46.72787" lon="-1.99085">
        <ele>4.1</ele>
        <time>2025-01-22T08:36:05.953Z</time>
      </trkpt>
      <trkpt lat="46.72789" lon="-1.99087">
        <ele>4.1</ele>
        <time>2025-01-22T08:36:06.952Z</time>
      </trkpt>
      <trkpt lat="46.72791" lon="-1.9909">
        <ele>4.2</ele>
        <time>2025-01-22T08:36:07.952Z</time>
      </trkpt>
      <trkpt lat="46.72792" lon="-1.99093">
        <ele>4.3</ele>
        <time>2025-01-22T08:36:08.953Z</time>
      </trkpt>
      <trkpt lat="46.72794" lon="-1.99096">
        <ele>4.5</ele>
        <time>2025-01-22T08:36:09.953Z</time>
      </trkpt>
      <trkpt lat="46.72796" lon="-1.99099">
        <ele>4.6</ele>
        <time>2025-01-22T08:36:10.952Z</time>
      </trkpt>
      <trkpt lat="46.72798" lon="-1.99101">
        <ele>4.6</ele>
        <time>2025-01-22T08:36:11.952Z</time>
      </trkpt>
      <trkpt lat="46.72801" lon="-1.99104">
        <ele>4.7</ele>
        <time>2025-01-22T08:36:12.953Z</time>
      </trkpt>
      <trkpt lat="46.72803" lon="-1.99106">
        <ele>4.8</ele>
        <time>2025-01-22T08:36:13.952Z</time>
      </trkpt>
      <trkpt lat="46.72804" lon="-1.99108">
        <ele>4.9</ele>
        <time>2025-01-22T08:36:14.952Z</time>
      </trkpt>
      <trkpt lat="46.72807" lon="-1.9911">
        <ele>5</ele>
        <time>2025-01-22T08:36:15.953Z</time>
      </trkpt>
      <trkpt lat="46.72808" lon="-1.99112">
        <ele>5</ele>
        <time>2025-01-22T08:36:16.952Z</time>
      </trkpt>
      <trkpt lat="46.7281" lon="-1.99115">
        <ele>5</ele>
        <time>2025-01-22T08:36:17.953Z</time>
      </trkpt>
      <trkpt lat="46.72812" lon="-1.99117">
        <ele>5</ele>
        <time>2025-01-22T08:36:18.952Z</time>
      </trkpt>
      <trkpt lat="46.72814" lon="-1.99119">
        <ele>5</ele>
        <time>2025-01-22T08:36:19.953Z</time>
      </trkpt>
      <trkpt lat="46.72815" lon="-1.99122">
        <ele>5</ele>
        <time>2025-01-22T08:36:20.953Z</time>
      </trkpt>
      <trkpt lat="46.72818" lon="-1.99124">
        <ele>5</ele>
        <time>2025-01-22T08:36:21.952Z</time>
      </trkpt>
      <trkpt lat="46.72819" lon="-1.99126">
        <ele>5</ele>
        <time>2025-01-22T08:36:22.953Z</time>
      </trkpt>
      <trkpt lat="46.72822" lon="-1.99129">
        <ele>5</ele>
        <time>2025-01-22T08:36:23.952Z</time>
      </trkpt>
      <trkpt lat="46.72824" lon="-1.99132">
        <ele>5</ele>
        <time>2025-01-22T08:36:24.952Z</time>
      </trkpt>
      <trkpt lat="46.72826" lon="-1.99134">
        <ele>5</ele>
        <time>2025-01-22T08:36:25.953Z</time>
      </trkpt>
      <trkpt lat="46.72828" lon="-1.99136">
        <ele>5</ele>
        <time>2025-01-22T08:36:26.953Z</time>
      </trkpt>
      <trkpt lat="46.7283" lon="-1.99138">
        <ele>5</ele>
        <time>2025-01-22T08:36:27.952Z</time>
      </trkpt>
      <trkpt lat="46.72832" lon="-1.99141">
        <ele>5</ele>
        <time>2025-01-22T08:36:28.953Z</time>
      </trkpt>
      <trkpt lat="46.72834" lon="-1.99143">
        <ele>5</ele>
        <time>2025-01-22T08:36:29.952Z</time>
      </trkpt>
      <trkpt lat="46.72836" lon="-1.99145">
        <ele>4.9</ele>
        <time>2025-01-22T08:36:30.952Z</time>
      </trkpt>
      <trkpt lat="46.72838" lon="-1.99147">
        <ele>4.9</ele>
        <time>2025-01-22T08:36:31.953Z</time>
      </trkpt>
      <trkpt lat="46.7284" lon="-1.9915">
        <ele>4.9</ele>
        <time>2025-01-22T08:36:32.953Z</time>
      </trkpt>
      <trkpt lat="46.72842" lon="-1.99152">
        <ele>4.8</ele>
        <time>2025-01-22T08:36:33.953Z</time>
      </trkpt>
      <trkpt lat="46.72844" lon="-1.99154">
        <ele>4.8</ele>
        <time>2025-01-22T08:36:34.952Z</time>
      </trkpt>
      <trkpt lat="46.72846" lon="-1.99157">
        <ele>4.8</ele>
        <time>2025-01-22T08:36:35.952Z</time>
      </trkpt>
      <trkpt lat="46.72847" lon="-1.99159">
        <ele>4.9</ele>
        <time>2025-01-22T08:36:36.953Z</time>
      </trkpt>
      <trkpt lat="46.72849" lon="-1.99161">
        <ele>4.9</ele>
        <time>2025-01-22T08:36:37.953Z</time>
      </trkpt>
      <trkpt lat="46.72851" lon="-1.99163">
        <ele>4.9</ele>
        <time>2025-01-22T08:36:38.953Z</time>
      </trkpt>
      <trkpt lat="46.72853" lon="-1.99166">
        <ele>5</ele>
        <time>2025-01-22T08:36:39.952Z</time>
      </trkpt>
      <trkpt lat="46.72854" lon="-1.99168">
        <ele>5</ele>
        <time>2025-01-22T08:36:40.952Z</time>
      </trkpt>
      <trkpt lat="46.72856" lon="-1.99169">
        <ele>5</ele>
        <time>2025-01-22T08:36:41.953Z</time>
      </trkpt>
      <trkpt lat="46.72858" lon="-1.99171">
        <ele>5</ele>
        <time>2025-01-22T08:36:42.952Z</time>
      </trkpt>
      <trkpt lat="46.7286" lon="-1.99175">
        <ele>5</ele>
        <time>2025-01-22T08:36:43.953Z</time>
      </trkpt>
      <trkpt lat="46.72862" lon="-1.99177">
        <ele>5</ele>
        <time>2025-01-22T08:36:44.953Z</time>
      </trkpt>
      <trkpt lat="46.72863" lon="-1.9918">
        <ele>4.9</ele>
        <time>2025-01-22T08:36:45.952Z</time>
      </trkpt>
      <trkpt lat="46.72865" lon="-1.99183">
        <ele>4.9</ele>
        <time>2025-01-22T08:36:46.952Z</time>
      </trkpt>
      <trkpt lat="46.72866" lon="-1.99185">
        <ele>4.8</ele>
        <time>2025-01-22T08:36:47.952Z</time>
      </trkpt>
      <trkpt lat="46.72868" lon="-1.99188">
        <ele>4.8</ele>
        <time>2025-01-22T08:36:48.952Z</time>
      </trkpt>
      <trkpt lat="46.72869" lon="-1.9919">
        <ele>4.7</ele>
        <time>2025-01-22T08:36:49.953Z</time>
      </trkpt>
      <trkpt lat="46.72871" lon="-1.99193">
        <ele>4.7</ele>
        <time>2025-01-22T08:36:50.952Z</time>
      </trkpt>
      <trkpt lat="46.72872" lon="-1.99196">
        <ele>4.6</ele>
        <time>2025-01-22T08:36:51.953Z</time>
      </trkpt>
      <trkpt lat="46.72874" lon="-1.99199">
        <ele>4.5</ele>
        <time>2025-01-22T08:36:52.952Z</time>
      </trkpt>
      <trkpt lat="46.72876" lon="-1.99201">
        <ele>4.5</ele>
        <time>2025-01-22T08:36:53.953Z</time>
      </trkpt>
      <trkpt lat="46.72878" lon="-1.99203">
        <ele>4.4</ele>
        <time>2025-01-22T08:36:54.953Z</time>
      </trkpt>
      <trkpt lat="46.7288" lon="-1.99206">
        <ele>4.3</ele>
        <time>2025-01-22T08:36:55.953Z</time>
      </trkpt>
      <trkpt lat="46.72881" lon="-1.99208">
        <ele>4.3</ele>
        <time>2025-01-22T08:36:56.953Z</time>
      </trkpt>
      <trkpt lat="46.72883" lon="-1.9921">
        <ele>4.2</ele>
        <time>2025-01-22T08:36:57.953Z</time>
      </trkpt>
      <trkpt lat="46.72885" lon="-1.99212">
        <ele>4.1</ele>
        <time>2025-01-22T08:36:58.952Z</time>
      </trkpt>
      <trkpt lat="46.72887" lon="-1.99214">
        <ele>4.1</ele>
        <time>2025-01-22T08:36:59.952Z</time>
      </trkpt>
      <trkpt lat="46.72889" lon="-1.99216">
        <ele>4</ele>
        <time>2025-01-22T08:37:00.952Z</time>
      </trkpt>
      <trkpt lat="46.72891" lon="-1.99218">
        <ele>4.1</ele>
        <time>2025-01-22T08:37:01.952Z</time>
      </trkpt>
      <trkpt lat="46.72892" lon="-1.9922">
        <ele>4.2</ele>
        <time>2025-01-22T08:37:02.953Z</time>
      </trkpt>
      <trkpt lat="46.72894" lon="-1.99222">
        <ele>4.4</ele>
        <time>2025-01-22T08:37:03.953Z</time>
      </trkpt>
      <trkpt lat="46.72896" lon="-1.99225">
        <ele>4.5</ele>
        <time>2025-01-22T08:37:04.953Z</time>
      </trkpt>
      <trkpt lat="46.72897" lon="-1.99228">
        <ele>4.5</ele>
        <time>2025-01-22T08:37:05.952Z</time>
      </trkpt>
      <trkpt lat="46.72899" lon="-1.99229">
        <ele>4.6</ele>
        <time>2025-01-22T08:37:06.953Z</time>
      </trkpt>
      <trkpt lat="46.72901" lon="-1.99231">
        <ele>4.7</ele>
        <time>2025-01-22T08:37:07.953Z</time>
      </trkpt>
      <trkpt lat="46.72903" lon="-1.99233">
        <ele>4.8</ele>
        <time>2025-01-22T08:37:08.952Z</time>
      </trkpt>
      <trkpt lat="46.72904" lon="-1.99236">
        <ele>4.8</ele>
        <time>2025-01-22T08:37:09.952Z</time>
      </trkpt>
      <trkpt lat="46.72906" lon="-1.99238">
        <ele>4.9</ele>
        <time>2025-01-22T08:37:10.953Z</time>
      </trkpt>
      <trkpt lat="46.72907" lon="-1.9924">
        <ele>4.9</ele>
        <time>2025-01-22T08:37:11.953Z</time>
      </trkpt>
      <trkpt lat="46.72909" lon="-1.99242">
        <ele>4.9</ele>
        <time>2025-01-22T08:37:12.953Z</time>
      </trkpt>
      <trkpt lat="46.72911" lon="-1.99245">
        <ele>4.9</ele>
        <time>2025-01-22T08:37:13.952Z</time>
      </trkpt>
      <trkpt lat="46.72913" lon="-1.99246">
        <ele>5</ele>
        <time>2025-01-22T08:37:14.953Z</time>
      </trkpt>
      <trkpt lat="46.72914" lon="-1.99248">
        <ele>5</ele>
        <time>2025-01-22T08:37:15.952Z</time>
      </trkpt>
      <trkpt lat="46.72916" lon="-1.9925">
        <ele>5</ele>
        <time>2025-01-22T08:37:16.953Z</time>
      </trkpt>
      <trkpt lat="46.72918" lon="-1.99252">
        <ele>5.1</ele>
        <time>2025-01-22T08:37:17.953Z</time>
      </trkpt>
      <trkpt lat="46.72919" lon="-1.99254">
        <ele>5.2</ele>
        <time>2025-01-22T08:37:18.953Z</time>
      </trkpt>
      <trkpt lat="46.72921" lon="-1.99255">
        <ele>5.3</ele>
        <time>2025-01-22T08:37:19.952Z</time>
      </trkpt>
      <trkpt lat="46.72922" lon="-1.99257">
        <ele>5.4</ele>
        <time>2025-01-22T08:37:20.952Z</time>
      </trkpt>
      <trkpt lat="46.72923" lon="-1.99258">
        <ele>5.4</ele>
        <time>2025-01-22T08:37:21.952Z</time>
      </trkpt>
      <trkpt lat="46.72925" lon="-1.9926">
        <ele>5.5</ele>
        <time>2025-01-22T08:37:22.952Z</time>
      </trkpt>
      <trkpt lat="46.72926" lon="-1.99262">
        <ele>5.4</ele>
        <time>2025-01-22T08:37:23.953Z</time>
      </trkpt>
      <trkpt lat="46.72928" lon="-1.99263">
        <ele>5.4</ele>
        <time>2025-01-22T08:37:24.952Z</time>
      </trkpt>
      <trkpt lat="46.72929" lon="-1.99265">
        <ele>5.4</ele>
        <time>2025-01-22T08:37:25.953Z</time>
      </trkpt>
      <trkpt lat="46.72931" lon="-1.99267">
        <ele>5.3</ele>
        <time>2025-01-22T08:37:26.953Z</time>
      </trkpt>
      <trkpt lat="46.72933" lon="-1.9927">
        <ele>5.1</ele>
        <time>2025-01-22T08:37:27.953Z</time>
      </trkpt>
      <trkpt lat="46.72935" lon="-1.99272">
        <ele>4.9</ele>
        <time>2025-01-22T08:37:28.953Z</time>
      </trkpt>
      <trkpt lat="46.72936" lon="-1.99274">
        <ele>4.7</ele>
        <time>2025-01-22T08:37:29.953Z</time>
      </trkpt>
      <trkpt lat="46.72938" lon="-1.99276">
        <ele>4.4</ele>
        <time>2025-01-22T08:37:30.953Z</time>
      </trkpt>
      <trkpt lat="46.72939" lon="-1.99278">
        <ele>4.2</ele>
        <time>2025-01-22T08:37:31.953Z</time>
      </trkpt>
      <trkpt lat="46.72941" lon="-1.99281">
        <ele>4.1</ele>
        <time>2025-01-22T08:37:32.952Z</time>
      </trkpt>
      <trkpt lat="46.72942" lon="-1.99283">
        <ele>3.9</ele>
        <time>2025-01-22T08:37:33.952Z</time>
      </trkpt>
      <trkpt lat="46.72944" lon="-1.99286">
        <ele>3.7</ele>
        <time>2025-01-22T08:37:34.953Z</time>
      </trkpt>
      <trkpt lat="46.72946" lon="-1.99288">
        <ele>3.7</ele>
        <time>2025-01-22T08:37:35.953Z</time>
      </trkpt>
      <trkpt lat="46.72949" lon="-1.9929">
        <ele>3.7</ele>
        <time>2025-01-22T08:37:36.953Z</time>
      </trkpt>
      <trkpt lat="46.72951" lon="-1.99292">
        <ele>3.6</ele>
        <time>2025-01-22T08:37:37.953Z</time>
      </trkpt>
      <trkpt lat="46.72953" lon="-1.99294">
        <ele>3.5</ele>
        <time>2025-01-22T08:37:38.953Z</time>
      </trkpt>
      <trkpt lat="46.72954" lon="-1.99296">
        <ele>3.5</ele>
        <time>2025-01-22T08:37:39.952Z</time>
      </trkpt>
      <trkpt lat="46.72956" lon="-1.99299">
        <ele>3.4</ele>
        <time>2025-01-22T08:37:40.952Z</time>
      </trkpt>
      <trkpt lat="46.72958" lon="-1.99301">
        <ele>3.2</ele>
        <time>2025-01-22T08:37:41.952Z</time>
      </trkpt>
      <trkpt lat="46.7296" lon="-1.99303">
        <ele>3.1</ele>
        <time>2025-01-22T08:37:42.952Z</time>
      </trkpt>
      <trkpt lat="46.72962" lon="-1.99306">
        <ele>3</ele>
        <time>2025-01-22T08:37:43.952Z</time>
      </trkpt>
      <trkpt lat="46.72964" lon="-1.99308">
        <ele>3</ele>
        <time>2025-01-22T08:37:44.952Z</time>
      </trkpt>
      <trkpt lat="46.72965" lon="-1.99311">
        <ele>3</ele>
        <time>2025-01-22T08:37:45.953Z</time>
      </trkpt>
      <trkpt lat="46.72967" lon="-1.99313">
        <ele>3.1</ele>
        <time>2025-01-22T08:37:46.953Z</time>
      </trkpt>
      <trkpt lat="46.72968" lon="-1.99316">
        <ele>3.1</ele>
        <time>2025-01-22T08:37:47.953Z</time>
      </trkpt>
      <trkpt lat="46.7297" lon="-1.99318">
        <ele>3</ele>
        <time>2025-01-22T08:37:48.952Z</time>
      </trkpt>
      <trkpt lat="46.72971" lon="-1.9932">
        <ele>3</ele>
        <time>2025-01-22T08:37:49.953Z</time>
      </trkpt>
      <trkpt lat="46.72973" lon="-1.99322">
        <ele>3.1</ele>
        <time>2025-01-22T08:37:50.953Z</time>
      </trkpt>
      <trkpt lat="46.72974" lon="-1.99324">
        <ele>3.2</ele>
        <time>2025-01-22T08:37:51.953Z</time>
      </trkpt>
      <trkpt lat="46.72976" lon="-1.99326">
        <ele>3.4</ele>
        <time>2025-01-22T08:37:52.953Z</time>
      </trkpt>
      <trkpt lat="46.72977" lon="-1.99328">
        <ele>3.5</ele>
        <time>2025-01-22T08:37:53.953Z</time>
      </trkpt>
      <trkpt lat="46.72979" lon="-1.9933">
        <ele>3.7</ele>
        <time>2025-01-22T08:37:54.953Z</time>
      </trkpt>
      <trkpt lat="46.7298" lon="-1.99332">
        <ele>3.8</ele>
        <time>2025-01-22T08:37:55.953Z</time>
      </trkpt>
      <trkpt lat="46.72982" lon="-1.99334">
        <ele>4</ele>
        <time>2025-01-22T08:37:56.952Z</time>
      </trkpt>
      <trkpt lat="46.72983" lon="-1.99335">
        <ele>4.2</ele>
        <time>2025-01-22T08:37:57.953Z</time>
      </trkpt>
      <trkpt lat="46.72984" lon="-1.99337">
        <ele>4.4</ele>
        <time>2025-01-22T08:37:58.952Z</time>
      </trkpt>
      <trkpt lat="46.72985" lon="-1.99338">
        <ele>4.5</ele>
        <time>2025-01-22T08:37:59.952Z</time>
      </trkpt>
      <trkpt lat="46.72986" lon="-1.9934">
        <ele>4.6</ele>
        <time>2025-01-22T08:38:00.952Z</time>
      </trkpt>
      <trkpt lat="46.72988" lon="-1.99341">
        <ele>4.7</ele>
        <time>2025-01-22T08:38:01.953Z</time>
      </trkpt>
      <trkpt lat="46.72989" lon="-1.99343">
        <ele>4.9</ele>
        <time>2025-01-22T08:38:02.952Z</time>
      </trkpt>
      <trkpt lat="46.7299" lon="-1.99344">
        <ele>5</ele>
        <time>2025-01-22T08:38:03.953Z</time>
      </trkpt>
      <trkpt lat="46.72991" lon="-1.99346">
        <ele>5</ele>
        <time>2025-01-22T08:38:04.953Z</time>
      </trkpt>
      <trkpt lat="46.72992" lon="-1.99348">
        <ele>5.1</ele>
        <time>2025-01-22T08:38:05.953Z</time>
      </trkpt>
      <trkpt lat="46.72992" lon="-1.99349">
        <ele>5.1</ele>
        <time>2025-01-22T08:38:06.952Z</time>
      </trkpt>
      <trkpt lat="46.72992" lon="-1.99351">
        <ele>5.1</ele>
        <time>2025-01-22T08:38:07.952Z</time>
      </trkpt>
      <trkpt lat="46.72992" lon="-1.99353">
        <ele>5</ele>
        <time>2025-01-22T08:38:08.952Z</time>
      </trkpt>
      <trkpt lat="46.72991" lon="-1.99354">
        <ele>5</ele>
        <time>2025-01-22T08:38:09.952Z</time>
      </trkpt>
      <trkpt lat="46.7299" lon="-1.99356">
        <ele>5</ele>
        <time>2025-01-22T08:38:10.953Z</time>
      </trkpt>
      <trkpt lat="46.7299" lon="-1.99357">
        <ele>5</ele>
        <time>2025-01-22T08:38:11.953Z</time>
      </trkpt>
      <trkpt lat="46.72989" lon="-1.99358">
        <ele>5</ele>
        <time>2025-01-22T08:38:12.953Z</time>
      </trkpt>
      <trkpt lat="46.72988" lon="-1.99359">
        <ele>5</ele>
        <time>2025-01-22T08:38:13.952Z</time>
      </trkpt>
      <trkpt lat="46.72988" lon="-1.9936">
        <ele>5</ele>
        <time>2025-01-22T08:38:14.952Z</time>
      </trkpt>
      <trkpt lat="46.72987" lon="-1.99362">
        <ele>5</ele>
        <time>2025-01-22T08:38:15.953Z</time>
      </trkpt>
      <trkpt lat="46.72986" lon="-1.99363">
        <ele>5.1</ele>
        <time>2025-01-22T08:38:16.952Z</time>
      </trkpt>
      <trkpt lat="46.72985" lon="-1.99365">
        <ele>5.3</ele>
        <time>2025-01-22T08:38:17.952Z</time>
      </trkpt>
      <trkpt lat="46.72984" lon="-1.99366">
        <ele>5.4</ele>
        <time>2025-01-22T08:38:18.952Z</time>
      </trkpt>
      <trkpt lat="46.72983" lon="-1.99368">
        <ele>5.6</ele>
        <time>2025-01-22T08:38:19.952Z</time>
      </trkpt>
      <trkpt lat="46.72982" lon="-1.9937">
        <ele>5.8</ele>
        <time>2025-01-22T08:38:20.953Z</time>
      </trkpt>
      <trkpt lat="46.72981" lon="-1.99372">
        <ele>6</ele>
        <time>2025-01-22T08:38:21.953Z</time>
      </trkpt>
      <trkpt lat="46.7298" lon="-1.99374">
        <ele>6.3</ele>
        <time>2025-01-22T08:38:22.952Z</time>
      </trkpt>
      <trkpt lat="46.72979" lon="-1.99375">
        <ele>6.5</ele>
        <time>2025-01-22T08:38:23.952Z</time>
      </trkpt>
      <trkpt lat="46.72978" lon="-1.99377">
        <ele>6.8</ele>
        <time>2025-01-22T08:38:24.953Z</time>
      </trkpt>
      <trkpt lat="46.72977" lon="-1.99378">
        <ele>7</ele>
        <time>2025-01-22T08:38:25.953Z</time>
      </trkpt>
      <trkpt lat="46.72976" lon="-1.9938">
        <ele>7.3</ele>
        <time>2025-01-22T08:38:26.953Z</time>
      </trkpt>
      <trkpt lat="46.72976" lon="-1.99382">
        <ele>7.6</ele>
        <time>2025-01-22T08:38:27.952Z</time>
      </trkpt>
      <trkpt lat="46.72975" lon="-1.99383">
        <ele>7.9</ele>
        <time>2025-01-22T08:38:28.952Z</time>
      </trkpt>
      <trkpt lat="46.72974" lon="-1.99384">
        <ele>8.2</ele>
        <time>2025-01-22T08:38:29.953Z</time>
      </trkpt>
      <trkpt lat="46.72973" lon="-1.99385">
        <ele>8.4</ele>
        <time>2025-01-22T08:38:30.953Z</time>
      </trkpt>
      <trkpt lat="46.72972" lon="-1.99387">
        <ele>8.6</ele>
        <time>2025-01-22T08:38:31.953Z</time>
      </trkpt>
      <trkpt lat="46.72971" lon="-1.99388">
        <ele>8.8</ele>
        <time>2025-01-22T08:38:32.953Z</time>
      </trkpt>
      <trkpt lat="46.7297" lon="-1.99389">
        <ele>8.8</ele>
        <time>2025-01-22T08:38:33.953Z</time>
      </trkpt>
      <trkpt lat="46.72969" lon="-1.99391">
        <ele>8.7</ele>
        <time>2025-01-22T08:38:34.953Z</time>
      </trkpt>
      <trkpt lat="46.72969" lon="-1.99392">
        <ele>8.6</ele>
        <time>2025-01-22T08:38:35.953Z</time>
      </trkpt>
      <trkpt lat="46.72968" lon="-1.99394">
        <ele>8.4</ele>
        <time>2025-01-22T08:38:36.952Z</time>
      </trkpt>
      <trkpt lat="46.72967" lon="-1.99395">
        <ele>8.3</ele>
        <time>2025-01-22T08:38:37.952Z</time>
      </trkpt>
      <trkpt lat="46.72967" lon="-1.99396">
        <ele>8.3</ele>
        <time>2025-01-22T08:38:38.952Z</time>
      </trkpt>
      <trkpt lat="46.72967" lon="-1.99396">
        <ele>8.2</ele>
        <time>2025-01-22T08:38:39.953Z</time>
      </trkpt>
      <trkpt lat="46.72967" lon="-1.99397">
        <ele>8.2</ele>
        <time>2025-01-22T08:38:40.952Z</time>
      </trkpt>
      <trkpt lat="46.72967" lon="-1.99397">
        <ele>8.2</ele>
        <time>2025-01-22T08:38:41.952Z</time>
      </trkpt>
      <trkpt lat="46.72967" lon="-1.99397">
        <ele>8.2</ele>
        <time>2025-01-22T08:38:42.952Z</time>
      </trkpt>
      <trkpt lat="46.72967" lon="-1.99397">
        <ele>8.2</ele>
        <time>2025-01-22T08:38:43.953Z</time>
      </trkpt>
      <trkpt lat="46.72967" lon="-1.99397">
        <ele>8.2</ele>
        <time>2025-01-22T08:38:44.953Z</time>
      </trkpt>
      <trkpt lat="46.72966" lon="-1.99397">
        <ele>8.1</ele>
        <time>2025-01-22T08:38:45.953Z</time>
      </trkpt>
      <trkpt lat="46.72965" lon="-1.99398">
        <ele>8</ele>
        <time>2025-01-22T08:38:46.952Z</time>
      </trkpt>
      <trkpt lat="46.72965" lon="-1.99399">
        <ele>7.9</ele>
        <time>2025-01-22T08:38:47.953Z</time>
      </trkpt>
      <trkpt lat="46.72964" lon="-1.994">
        <ele>7.7</ele>
        <time>2025-01-22T08:38:48.953Z</time>
      </trkpt>
      <trkpt lat="46.72963" lon="-1.99402">
        <ele>7.5</ele>
        <time>2025-01-22T08:38:49.953Z</time>
      </trkpt>
      <trkpt lat="46.72962" lon="-1.99403">
        <ele>7.4</ele>
        <time>2025-01-22T08:38:50.953Z</time>
      </trkpt>
      <trkpt lat="46.72961" lon="-1.99404">
        <ele>7.3</ele>
        <time>2025-01-22T08:38:51.952Z</time>
      </trkpt>
      <trkpt lat="46.72961" lon="-1.99405">
        <ele>7.2</ele>
        <time>2025-01-22T08:38:52.953Z</time>
      </trkpt>
      <trkpt lat="46.72961" lon="-1.99407">
        <ele>7</ele>
        <time>2025-01-22T08:38:53.952Z</time>
      </trkpt>
      <trkpt lat="46.7296" lon="-1.99409">
        <ele>6.7</ele>
        <time>2025-01-22T08:38:54.952Z</time>
      </trkpt>
      <trkpt lat="46.72959" lon="-1.99412">
        <ele>6.5</ele>
        <time>2025-01-22T08:38:55.952Z</time>
      </trkpt>
      <trkpt lat="46.72959" lon="-1.99415">
        <ele>6.2</ele>
        <time>2025-01-22T08:38:56.952Z</time>
      </trkpt>
      <trkpt lat="46.72958" lon="-1.99418">
        <ele>5.8</ele>
        <time>2025-01-22T08:38:57.953Z</time>
      </trkpt>
      <trkpt lat="46.72958" lon="-1.99422">
        <ele>5.4</ele>
        <time>2025-01-22T08:38:58.952Z</time>
      </trkpt>
      <trkpt lat="46.72958" lon="-1.99425">
        <ele>5</ele>
        <time>2025-01-22T08:38:59.952Z</time>
      </trkpt>
      <trkpt lat="46.72958" lon="-1.99428">
        <ele>4.7</ele>
        <time>2025-01-22T08:39:00.952Z</time>
      </trkpt>
      <trkpt lat="46.72959" lon="-1.99432">
        <ele>4.4</ele>
        <time>2025-01-22T08:39:01.953Z</time>
      </trkpt>
      <trkpt lat="46.72959" lon="-1.99435">
        <ele>4.1</ele>
        <time>2025-01-22T08:39:02.952Z</time>
      </trkpt>
      <trkpt lat="46.7296" lon="-1.99438">
        <ele>3.9</ele>
        <time>2025-01-22T08:39:03.953Z</time>
      </trkpt>
      <trkpt lat="46.72962" lon="-1.9944">
        <ele>3.7</ele>
        <time>2025-01-22T08:39:04.952Z</time>
      </trkpt>
      <trkpt lat="46.72963" lon="-1.99443">
        <ele>3.5</ele>
        <time>2025-01-22T08:39:05.952Z</time>
      </trkpt>
      <trkpt lat="46.72964" lon="-1.99446">
        <ele>3.4</ele>
        <time>2025-01-22T08:39:06.952Z</time>
      </trkpt>
      <trkpt lat="46.72966" lon="-1.99449">
        <ele>3.4</ele>
        <time>2025-01-22T08:39:07.952Z</time>
      </trkpt>
      <trkpt lat="46.72967" lon="-1.99451">
        <ele>3.4</ele>
        <time>2025-01-22T08:39:08.952Z</time>
      </trkpt>
      <trkpt lat="46.72969" lon="-1.99453">
        <ele>3.5</ele>
        <time>2025-01-22T08:39:09.952Z</time>
      </trkpt>
      <trkpt lat="46.72971" lon="-1.99455">
        <ele>3.5</ele>
        <time>2025-01-22T08:39:10.952Z</time>
      </trkpt>
      <trkpt lat="46.72973" lon="-1.99457">
        <ele>3.6</ele>
        <time>2025-01-22T08:39:11.952Z</time>
      </trkpt>
      <trkpt lat="46.72975" lon="-1.99459">
        <ele>3.8</ele>
        <time>2025-01-22T08:39:12.953Z</time>
      </trkpt>
      <trkpt lat="46.72977" lon="-1.99461">
        <ele>4</ele>
        <time>2025-01-22T08:39:13.952Z</time>
      </trkpt>
      <trkpt lat="46.7298" lon="-1.99464">
        <ele>4.1</ele>
        <time>2025-01-22T08:39:14.952Z</time>
      </trkpt>
      <trkpt lat="46.72982" lon="-1.99466">
        <ele>4.1</ele>
        <time>2025-01-22T08:39:15.952Z</time>
      </trkpt>
      <trkpt lat="46.72984" lon="-1.99468">
        <ele>4.1</ele>
        <time>2025-01-22T08:39:16.952Z</time>
      </trkpt>
      <trkpt lat="46.72986" lon="-1.9947">
        <ele>4.1</ele>
        <time>2025-01-22T08:39:17.953Z</time>
      </trkpt>
      <trkpt lat="46.72987" lon="-1.99472">
        <ele>4.1</ele>
        <time>2025-01-22T08:39:18.952Z</time>
      </trkpt>
      <trkpt lat="46.72989" lon="-1.99474">
        <ele>4.1</ele>
        <time>2025-01-22T08:39:19.952Z</time>
      </trkpt>
      <trkpt lat="46.72991" lon="-1.99476">
        <ele>4.1</ele>
        <time>2025-01-22T08:39:20.952Z</time>
      </trkpt>
      <trkpt lat="46.72993" lon="-1.99478">
        <ele>4</ele>
        <time>2025-01-22T08:39:21.952Z</time>
      </trkpt>
      <trkpt lat="46.72995" lon="-1.99481">
        <ele>4</ele>
        <time>2025-01-22T08:39:22.953Z</time>
      </trkpt>
      <trkpt lat="46.72996" lon="-1.99484">
        <ele>3.9</ele>
        <time>2025-01-22T08:39:23.952Z</time>
      </trkpt>
      <trkpt lat="46.72998" lon="-1.99486">
        <ele>3.9</ele>
        <time>2025-01-22T08:39:24.952Z</time>
      </trkpt>
      <trkpt lat="46.73" lon="-1.99488">
        <ele>3.8</ele>
        <time>2025-01-22T08:39:25.952Z</time>
      </trkpt>
      <trkpt lat="46.73002" lon="-1.9949">
        <ele>3.9</ele>
        <time>2025-01-22T08:39:26.952Z</time>
      </trkpt>
      <trkpt lat="46.73003" lon="-1.99493">
        <ele>3.9</ele>
        <time>2025-01-22T08:39:27.953Z</time>
      </trkpt>
      <trkpt lat="46.73005" lon="-1.99496">
        <ele>3.9</ele>
        <time>2025-01-22T08:39:28.953Z</time>
      </trkpt>
      <trkpt lat="46.73006" lon="-1.99498">
        <ele>3.8</ele>
        <time>2025-01-22T08:39:29.953Z</time>
      </trkpt>
      <trkpt lat="46.73008" lon="-1.99501">
        <ele>3.8</ele>
        <time>2025-01-22T08:39:30.953Z</time>
      </trkpt>
      <trkpt lat="46.7301" lon="-1.99503">
        <ele>3.8</ele>
        <time>2025-01-22T08:39:31.953Z</time>
      </trkpt>
      <trkpt lat="46.73012" lon="-1.99506">
        <ele>3.9</ele>
        <time>2025-01-22T08:39:32.952Z</time>
      </trkpt>
      <trkpt lat="46.73014" lon="-1.99509">
        <ele>3.9</ele>
        <time>2025-01-22T08:39:33.952Z</time>
      </trkpt>
      <trkpt lat="46.73015" lon="-1.99511">
        <ele>3.8</ele>
        <time>2025-01-22T08:39:34.952Z</time>
      </trkpt>
      <trkpt lat="46.73017" lon="-1.99513">
        <ele>3.8</ele>
        <time>2025-01-22T08:39:35.953Z</time>
      </trkpt>
      <trkpt lat="46.73018" lon="-1.99516">
        <ele>3.7</ele>
        <time>2025-01-22T08:39:36.953Z</time>
      </trkpt>
      <trkpt lat="46.7302" lon="-1.99518">
        <ele>3.6</ele>
        <time>2025-01-22T08:39:37.952Z</time>
      </trkpt>
      <trkpt lat="46.73022" lon="-1.9952">
        <ele>3.5</ele>
        <time>2025-01-22T08:39:38.953Z</time>
      </trkpt>
      <trkpt lat="46.73024" lon="-1.99522">
        <ele>3.5</ele>
        <time>2025-01-22T08:39:39.952Z</time>
      </trkpt>
      <trkpt lat="46.73026" lon="-1.99524">
        <ele>3.3</ele>
        <time>2025-01-22T08:39:40.952Z</time>
      </trkpt>
      <trkpt lat="46.73027" lon="-1.99526">
        <ele>3.2</ele>
        <time>2025-01-22T08:39:41.952Z</time>
      </trkpt>
      <trkpt lat="46.73029" lon="-1.99529">
        <ele>3.1</ele>
        <time>2025-01-22T08:39:42.952Z</time>
      </trkpt>
      <trkpt lat="46.7303" lon="-1.99531">
        <ele>3.2</ele>
        <time>2025-01-22T08:39:43.953Z</time>
      </trkpt>
      <trkpt lat="46.73032" lon="-1.99534">
        <ele>3.4</ele>
        <time>2025-01-22T08:39:44.952Z</time>
      </trkpt>
      <trkpt lat="46.73034" lon="-1.99536">
        <ele>3.4</ele>
        <time>2025-01-22T08:39:45.953Z</time>
      </trkpt>
      <trkpt lat="46.73036" lon="-1.99538">
        <ele>3.6</ele>
        <time>2025-01-22T08:39:46.952Z</time>
      </trkpt>
      <trkpt lat="46.73038" lon="-1.9954">
        <ele>3.7</ele>
        <time>2025-01-22T08:39:47.952Z</time>
      </trkpt>
      <trkpt lat="46.7304" lon="-1.99542">
        <ele>3.7</ele>
        <time>2025-01-22T08:39:48.952Z</time>
      </trkpt>
      <trkpt lat="46.73041" lon="-1.99545">
        <ele>3.7</ele>
        <time>2025-01-22T08:39:49.953Z</time>
      </trkpt>
      <trkpt lat="46.73043" lon="-1.99547">
        <ele>3.7</ele>
        <time>2025-01-22T08:39:50.953Z</time>
      </trkpt>
      <trkpt lat="46.73045" lon="-1.9955">
        <ele>3.7</ele>
        <time>2025-01-22T08:39:51.952Z</time>
      </trkpt>
      <trkpt lat="46.73047" lon="-1.99552">
        <ele>3.7</ele>
        <time>2025-01-22T08:39:52.952Z</time>
      </trkpt>
      <trkpt lat="46.73049" lon="-1.99554">
        <ele>3.6</ele>
        <time>2025-01-22T08:39:53.952Z</time>
      </trkpt>
      <trkpt lat="46.7305" lon="-1.99557">
        <ele>3.6</ele>
        <time>2025-01-22T08:39:54.952Z</time>
      </trkpt>
      <trkpt lat="46.73052" lon="-1.99559">
        <ele>3.5</ele>
        <time>2025-01-22T08:39:55.952Z</time>
      </trkpt>
      <trkpt lat="46.73054" lon="-1.99562">
        <ele>3.5</ele>
        <time>2025-01-22T08:39:56.953Z</time>
      </trkpt>
      <trkpt lat="46.73056" lon="-1.99565">
        <ele>3.4</ele>
        <time>2025-01-22T08:39:57.952Z</time>
      </trkpt>
      <trkpt lat="46.73057" lon="-1.99567">
        <ele>3.4</ele>
        <time>2025-01-22T08:39:58.953Z</time>
      </trkpt>
      <trkpt lat="46.73059" lon="-1.9957">
        <ele>3.4</ele>
        <time>2025-01-22T08:39:59.952Z</time>
      </trkpt>
      <trkpt lat="46.73061" lon="-1.99572">
        <ele>3.4</ele>
        <time>2025-01-22T08:40:00.953Z</time>
      </trkpt>
      <trkpt lat="46.73063" lon="-1.99574">
        <ele>3.4</ele>
        <time>2025-01-22T08:40:01.953Z</time>
      </trkpt>
      <trkpt lat="46.73064" lon="-1.99576">
        <ele>3.4</ele>
        <time>2025-01-22T08:40:02.952Z</time>
      </trkpt>
      <trkpt lat="46.73066" lon="-1.99577">
        <ele>3.3</ele>
        <time>2025-01-22T08:40:03.952Z</time>
      </trkpt>
      <trkpt lat="46.73068" lon="-1.9958">
        <ele>3.3</ele>
        <time>2025-01-22T08:40:04.952Z</time>
      </trkpt>
      <trkpt lat="46.7307" lon="-1.99582">
        <ele>3.2</ele>
        <time>2025-01-22T08:40:05.952Z</time>
      </trkpt>
      <trkpt lat="46.73071" lon="-1.99584">
        <ele>3.1</ele>
        <time>2025-01-22T08:40:06.953Z</time>
      </trkpt>
      <trkpt lat="46.73073" lon="-1.99586">
        <ele>3.1</ele>
        <time>2025-01-22T08:40:07.953Z</time>
      </trkpt>
      <trkpt lat="46.73075" lon="-1.99589">
        <ele>3.2</ele>
        <time>2025-01-22T08:40:08.953Z</time>
      </trkpt>
      <trkpt lat="46.73076" lon="-1.99591">
        <ele>3.2</ele>
        <time>2025-01-22T08:40:09.952Z</time>
      </trkpt>
      <trkpt lat="46.73078" lon="-1.99592">
        <ele>3.3</ele>
        <time>2025-01-22T08:40:10.953Z</time>
      </trkpt>
      <trkpt lat="46.73079" lon="-1.99595">
        <ele>3.3</ele>
        <time>2025-01-22T08:40:11.952Z</time>
      </trkpt>
      <trkpt lat="46.73081" lon="-1.99597">
        <ele>3.3</ele>
        <time>2025-01-22T08:40:12.952Z</time>
      </trkpt>
      <trkpt lat="46.73082" lon="-1.996">
        <ele>3.3</ele>
        <time>2025-01-22T08:40:13.952Z</time>
      </trkpt>
      <trkpt lat="46.73084" lon="-1.99603">
        <ele>3.4</ele>
        <time>2025-01-22T08:40:14.953Z</time>
      </trkpt>
      <trkpt lat="46.73085" lon="-1.99605">
        <ele>3.4</ele>
        <time>2025-01-22T08:40:15.952Z</time>
      </trkpt>
      <trkpt lat="46.73087" lon="-1.99608">
        <ele>3.4</ele>
        <time>2025-01-22T08:40:16.952Z</time>
      </trkpt>
      <trkpt lat="46.73088" lon="-1.9961">
        <ele>3.4</ele>
        <time>2025-01-22T08:40:17.952Z</time>
      </trkpt>
      <trkpt lat="46.7309" lon="-1.99612">
        <ele>3.4</ele>
        <time>2025-01-22T08:40:18.953Z</time>
      </trkpt>
      <trkpt lat="46.73092" lon="-1.99615">
        <ele>3.3</ele>
        <time>2025-01-22T08:40:19.952Z</time>
      </trkpt>
      <trkpt lat="46.73093" lon="-1.99617">
        <ele>3.3</ele>
        <time>2025-01-22T08:40:20.953Z</time>
      </trkpt>
      <trkpt lat="46.73094" lon="-1.9962">
        <ele>3.1</ele>
        <time>2025-01-22T08:40:21.953Z</time>
      </trkpt>
      <trkpt lat="46.73096" lon="-1.99623">
        <ele>3.1</ele>
        <time>2025-01-22T08:40:22.952Z</time>
      </trkpt>
      <trkpt lat="46.73098" lon="-1.99625">
        <ele>3</ele>
        <time>2025-01-22T08:40:23.952Z</time>
      </trkpt>
      <trkpt lat="46.731" lon="-1.99628">
        <ele>2.9</ele>
        <time>2025-01-22T08:40:24.953Z</time>
      </trkpt>
      <trkpt lat="46.73101" lon="-1.9963">
        <ele>2.9</ele>
        <time>2025-01-22T08:40:25.953Z</time>
      </trkpt>
      <trkpt lat="46.73103" lon="-1.99633">
        <ele>2.8</ele>
        <time>2025-01-22T08:40:26.953Z</time>
      </trkpt>
      <trkpt lat="46.73105" lon="-1.99635">
        <ele>2.8</ele>
        <time>2025-01-22T08:40:27.952Z</time>
      </trkpt>
      <trkpt lat="46.73106" lon="-1.99637">
        <ele>2.8</ele>
        <time>2025-01-22T08:40:28.953Z</time>
      </trkpt>
      <trkpt lat="46.73108" lon="-1.99639">
        <ele>2.8</ele>
        <time>2025-01-22T08:40:29.953Z</time>
      </trkpt>
      <trkpt lat="46.7311" lon="-1.99642">
        <ele>2.8</ele>
        <time>2025-01-22T08:40:30.953Z</time>
      </trkpt>
      <trkpt lat="46.73112" lon="-1.99644">
        <ele>2.9</ele>
        <time>2025-01-22T08:40:31.952Z</time>
      </trkpt>
      <trkpt lat="46.73114" lon="-1.99647">
        <ele>3</ele>
        <time>2025-01-22T08:40:32.952Z</time>
      </trkpt>
      <trkpt lat="46.73115" lon="-1.9965">
        <ele>3</ele>
        <time>2025-01-22T08:40:33.952Z</time>
      </trkpt>
      <trkpt lat="46.73116" lon="-1.99652">
        <ele>3.1</ele>
        <time>2025-01-22T08:40:34.953Z</time>
      </trkpt>
      <trkpt lat="46.73118" lon="-1.99654">
        <ele>3.2</ele>
        <time>2025-01-22T08:40:35.953Z</time>
      </trkpt>
      <trkpt lat="46.73119" lon="-1.99655">
        <ele>3.2</ele>
        <time>2025-01-22T08:40:36.952Z</time>
      </trkpt>
      <trkpt lat="46.73121" lon="-1.99658">
        <ele>3.3</ele>
        <time>2025-01-22T08:40:37.952Z</time>
      </trkpt>
      <trkpt lat="46.73123" lon="-1.9966">
        <ele>3.3</ele>
        <time>2025-01-22T08:40:38.952Z</time>
      </trkpt>
      <trkpt lat="46.73125" lon="-1.99662">
        <ele>3.3</ele>
        <time>2025-01-22T08:40:39.953Z</time>
      </trkpt>
      <trkpt lat="46.73127" lon="-1.99664">
        <ele>3.3</ele>
        <time>2025-01-22T08:40:40.952Z</time>
      </trkpt>
      <trkpt lat="46.73129" lon="-1.99666">
        <ele>3.3</ele>
        <time>2025-01-22T08:40:41.952Z</time>
      </trkpt>
      <trkpt lat="46.7313" lon="-1.99668">
        <ele>3.3</ele>
        <time>2025-01-22T08:40:42.952Z</time>
      </trkpt>
      <trkpt lat="46.73132" lon="-1.99671">
        <ele>3.3</ele>
        <time>2025-01-22T08:40:43.952Z</time>
      </trkpt>
      <trkpt lat="46.73134" lon="-1.99673">
        <ele>3.2</ele>
        <time>2025-01-22T08:40:44.952Z</time>
      </trkpt>
      <trkpt lat="46.73136" lon="-1.99676">
        <ele>3.2</ele>
        <time>2025-01-22T08:40:45.953Z</time>
      </trkpt>
      <trkpt lat="46.73138" lon="-1.99679">
        <ele>3.1</ele>
        <time>2025-01-22T08:40:46.952Z</time>
      </trkpt>
      <trkpt lat="46.73139" lon="-1.99681">
        <ele>3</ele>
        <time>2025-01-22T08:40:47.952Z</time>
      </trkpt>
      <trkpt lat="46.73141" lon="-1.99683">
        <ele>3</ele>
        <time>2025-01-22T08:40:48.953Z</time>
      </trkpt>
      <trkpt lat="46.73143" lon="-1.99686">
        <ele>3</ele>
        <time>2025-01-22T08:40:49.952Z</time>
      </trkpt>
      <trkpt lat="46.73145" lon="-1.99688">
        <ele>3</ele>
        <time>2025-01-22T08:40:50.952Z</time>
      </trkpt>
      <trkpt lat="46.73146" lon="-1.9969">
        <ele>3</ele>
        <time>2025-01-22T08:40:51.952Z</time>
      </trkpt>
      <trkpt lat="46.73148" lon="-1.99691">
        <ele>3</ele>
        <time>2025-01-22T08:40:52.952Z</time>
      </trkpt>
      <trkpt lat="46.7315" lon="-1.99694">
        <ele>2.9</ele>
        <time>2025-01-22T08:40:53.953Z</time>
      </trkpt>
      <trkpt lat="46.73152" lon="-1.99696">
        <ele>2.9</ele>
        <time>2025-01-22T08:40:54.953Z</time>
      </trkpt>
      <trkpt lat="46.73153" lon="-1.99699">
        <ele>2.9</ele>
        <time>2025-01-22T08:40:55.952Z</time>
      </trkpt>
      <trkpt lat="46.73155" lon="-1.99701">
        <ele>2.9</ele>
        <time>2025-01-22T08:40:56.952Z</time>
      </trkpt>
      <trkpt lat="46.73157" lon="-1.99704">
        <ele>2.9</ele>
        <time>2025-01-22T08:40:57.953Z</time>
      </trkpt>
      <trkpt lat="46.73158" lon="-1.99706">
        <ele>2.9</ele>
        <time>2025-01-22T08:40:58.953Z</time>
      </trkpt>
      <trkpt lat="46.7316" lon="-1.99709">
        <ele>3</ele>
        <time>2025-01-22T08:40:59.952Z</time>
      </trkpt>
      <trkpt lat="46.73161" lon="-1.99711">
        <ele>3</ele>
        <time>2025-01-22T08:41:00.952Z</time>
      </trkpt>
      <trkpt lat="46.73163" lon="-1.99713">
        <ele>3.1</ele>
        <time>2025-01-22T08:41:01.952Z</time>
      </trkpt>
      <trkpt lat="46.73164" lon="-1.99715">
        <ele>3.1</ele>
        <time>2025-01-22T08:41:02.952Z</time>
      </trkpt>
      <trkpt lat="46.73166" lon="-1.99717">
        <ele>3.1</ele>
        <time>2025-01-22T08:41:03.953Z</time>
      </trkpt>
      <trkpt lat="46.73167" lon="-1.99719">
        <ele>3.2</ele>
        <time>2025-01-22T08:41:04.953Z</time>
      </trkpt>
      <trkpt lat="46.73169" lon="-1.99721">
        <ele>3.2</ele>
        <time>2025-01-22T08:41:05.952Z</time>
      </trkpt>
      <trkpt lat="46.73171" lon="-1.99724">
        <ele>3.2</ele>
        <time>2025-01-22T08:41:06.953Z</time>
      </trkpt>
      <trkpt lat="46.73173" lon="-1.99726">
        <ele>3.2</ele>
        <time>2025-01-22T08:41:07.953Z</time>
      </trkpt>
      <trkpt lat="46.73175" lon="-1.99728">
        <ele>3.2</ele>
        <time>2025-01-22T08:41:08.952Z</time>
      </trkpt>
      <trkpt lat="46.73177" lon="-1.9973">
        <ele>3.2</ele>
        <time>2025-01-22T08:41:09.953Z</time>
      </trkpt>
      <trkpt lat="46.73179" lon="-1.99732">
        <ele>3.2</ele>
        <time>2025-01-22T08:41:10.952Z</time>
      </trkpt>
      <trkpt lat="46.73181" lon="-1.99734">
        <ele>3.2</ele>
        <time>2025-01-22T08:41:11.952Z</time>
      </trkpt>
      <trkpt lat="46.73183" lon="-1.99736">
        <ele>3.2</ele>
        <time>2025-01-22T08:41:12.952Z</time>
      </trkpt>
      <trkpt lat="46.73185" lon="-1.99738">
        <ele>3.2</ele>
        <time>2025-01-22T08:41:13.953Z</time>
      </trkpt>
      <trkpt lat="46.73187" lon="-1.9974">
        <ele>3.1</ele>
        <time>2025-01-22T08:41:14.953Z</time>
      </trkpt>
      <trkpt lat="46.73188" lon="-1.99742">
        <ele>3.2</ele>
        <time>2025-01-22T08:41:15.953Z</time>
      </trkpt>
      <trkpt lat="46.7319" lon="-1.99744">
        <ele>3.2</ele>
        <time>2025-01-22T08:41:16.952Z</time>
      </trkpt>
      <trkpt lat="46.73192" lon="-1.99746">
        <ele>3.1</ele>
        <time>2025-01-22T08:41:17.953Z</time>
      </trkpt>
      <trkpt lat="46.73193" lon="-1.99748">
        <ele>3.1</ele>
        <time>2025-01-22T08:41:18.953Z</time>
      </trkpt>
      <trkpt lat="46.73195" lon="-1.9975">
        <ele>3</ele>
        <time>2025-01-22T08:41:19.952Z</time>
      </trkpt>
      <trkpt lat="46.73196" lon="-1.99753">
        <ele>3.1</ele>
        <time>2025-01-22T08:41:20.952Z</time>
      </trkpt>
      <trkpt lat="46.73198" lon="-1.99754">
        <ele>3.2</ele>
        <time>2025-01-22T08:41:21.952Z</time>
      </trkpt>
      <trkpt lat="46.732" lon="-1.99757">
        <ele>3.3</ele>
        <time>2025-01-22T08:41:22.952Z</time>
      </trkpt>
      <trkpt lat="46.73202" lon="-1.99759">
        <ele>3.4</ele>
        <time>2025-01-22T08:41:23.952Z</time>
      </trkpt>
      <trkpt lat="46.73204" lon="-1.99761">
        <ele>3.5</ele>
        <time>2025-01-22T08:41:24.952Z</time>
      </trkpt>
      <trkpt lat="46.73206" lon="-1.99763">
        <ele>3.6</ele>
        <time>2025-01-22T08:41:25.953Z</time>
      </trkpt>
      <trkpt lat="46.73207" lon="-1.99764">
        <ele>3.6</ele>
        <time>2025-01-22T08:41:26.952Z</time>
      </trkpt>
      <trkpt lat="46.73209" lon="-1.99766">
        <ele>3.7</ele>
        <time>2025-01-22T08:41:27.953Z</time>
      </trkpt>
      <trkpt lat="46.73211" lon="-1.99768">
        <ele>3.8</ele>
        <time>2025-01-22T08:41:28.952Z</time>
      </trkpt>
      <trkpt lat="46.73213" lon="-1.9977">
        <ele>3.8</ele>
        <time>2025-01-22T08:41:29.952Z</time>
      </trkpt>
      <trkpt lat="46.73215" lon="-1.99773">
        <ele>3.8</ele>
        <time>2025-01-22T08:41:30.952Z</time>
      </trkpt>
      <trkpt lat="46.73217" lon="-1.99775">
        <ele>3.8</ele>
        <time>2025-01-22T08:41:31.953Z</time>
      </trkpt>
      <trkpt lat="46.73219" lon="-1.99777">
        <ele>3.8</ele>
        <time>2025-01-22T08:41:32.953Z</time>
      </trkpt>
      <trkpt lat="46.7322" lon="-1.9978">
        <ele>3.7</ele>
        <time>2025-01-22T08:41:33.953Z</time>
      </trkpt>
      <trkpt lat="46.73222" lon="-1.99782">
        <ele>3.7</ele>
        <time>2025-01-22T08:41:34.952Z</time>
      </trkpt>
      <trkpt lat="46.73223" lon="-1.99784">
        <ele>3.7</ele>
        <time>2025-01-22T08:41:35.952Z</time>
      </trkpt>
      <trkpt lat="46.73225" lon="-1.99786">
        <ele>3.7</ele>
        <time>2025-01-22T08:41:36.953Z</time>
      </trkpt>
      <trkpt lat="46.73226" lon="-1.99788">
        <ele>3.7</ele>
        <time>2025-01-22T08:41:37.952Z</time>
      </trkpt>
      <trkpt lat="46.73228" lon="-1.9979">
        <ele>3.7</ele>
        <time>2025-01-22T08:41:38.953Z</time>
      </trkpt>
      <trkpt lat="46.7323" lon="-1.99792">
        <ele>3.8</ele>
        <time>2025-01-22T08:41:39.953Z</time>
      </trkpt>
      <trkpt lat="46.73232" lon="-1.99794">
        <ele>3.8</ele>
        <time>2025-01-22T08:41:40.952Z</time>
      </trkpt>
      <trkpt lat="46.73233" lon="-1.99796">
        <ele>3.7</ele>
        <time>2025-01-22T08:41:41.953Z</time>
      </trkpt>
      <trkpt lat="46.73235" lon="-1.99798">
        <ele>3.7</ele>
        <time>2025-01-22T08:41:42.952Z</time>
      </trkpt>
      <trkpt lat="46.73237" lon="-1.998">
        <ele>3.6</ele>
        <time>2025-01-22T08:41:43.953Z</time>
      </trkpt>
      <trkpt lat="46.73238" lon="-1.99802">
        <ele>3.5</ele>
        <time>2025-01-22T08:41:44.953Z</time>
      </trkpt>
      <trkpt lat="46.7324" lon="-1.99804">
        <ele>3.5</ele>
        <time>2025-01-22T08:41:45.953Z</time>
      </trkpt>
      <trkpt lat="46.73242" lon="-1.99806">
        <ele>3.4</ele>
        <time>2025-01-22T08:41:46.953Z</time>
      </trkpt>
      <trkpt lat="46.73244" lon="-1.99809">
        <ele>3.4</ele>
        <time>2025-01-22T08:41:47.953Z</time>
      </trkpt>
      <trkpt lat="46.73246" lon="-1.99811">
        <ele>3.3</ele>
        <time>2025-01-22T08:41:48.952Z</time>
      </trkpt>
      <trkpt lat="46.73247" lon="-1.99814">
        <ele>3.3</ele>
        <time>2025-01-22T08:41:49.953Z</time>
      </trkpt>
      <trkpt lat="46.73249" lon="-1.99816">
        <ele>3.2</ele>
        <time>2025-01-22T08:41:50.952Z</time>
      </trkpt>
      <trkpt lat="46.73251" lon="-1.99818">
        <ele>3.2</ele>
        <time>2025-01-22T08:41:51.953Z</time>
      </trkpt>
      <trkpt lat="46.73252" lon="-1.99821">
        <ele>3.2</ele>
        <time>2025-01-22T08:41:52.952Z</time>
      </trkpt>
      <trkpt lat="46.73254" lon="-1.99823">
        <ele>3.3</ele>
        <time>2025-01-22T08:41:53.953Z</time>
      </trkpt>
      <trkpt lat="46.73255" lon="-1.99826">
        <ele>3.3</ele>
        <time>2025-01-22T08:41:54.952Z</time>
      </trkpt>
      <trkpt lat="46.73257" lon="-1.99829">
        <ele>3.4</ele>
        <time>2025-01-22T08:41:55.953Z</time>
      </trkpt>
      <trkpt lat="46.73258" lon="-1.99831">
        <ele>3.4</ele>
        <time>2025-01-22T08:41:56.952Z</time>
      </trkpt>
      <trkpt lat="46.7326" lon="-1.99834">
        <ele>3.4</ele>
        <time>2025-01-22T08:41:57.953Z</time>
      </trkpt>
      <trkpt lat="46.73261" lon="-1.99836">
        <ele>3.4</ele>
        <time>2025-01-22T08:41:58.952Z</time>
      </trkpt>
      <trkpt lat="46.73263" lon="-1.99838">
        <ele>3.5</ele>
        <time>2025-01-22T08:41:59.953Z</time>
      </trkpt>
      <trkpt lat="46.73264" lon="-1.99839">
        <ele>3.6</ele>
        <time>2025-01-22T08:42:00.953Z</time>
      </trkpt>
      <trkpt lat="46.73266" lon="-1.99841">
        <ele>3.7</ele>
        <time>2025-01-22T08:42:01.952Z</time>
      </trkpt>
      <trkpt lat="46.73268" lon="-1.99843">
        <ele>3.7</ele>
        <time>2025-01-22T08:42:02.952Z</time>
      </trkpt>
      <trkpt lat="46.73269" lon="-1.99845">
        <ele>3.7</ele>
        <time>2025-01-22T08:42:03.952Z</time>
      </trkpt>
      <trkpt lat="46.73271" lon="-1.99848">
        <ele>3.7</ele>
        <time>2025-01-22T08:42:04.953Z</time>
      </trkpt>
      <trkpt lat="46.73272" lon="-1.9985">
        <ele>3.7</ele>
        <time>2025-01-22T08:42:05.952Z</time>
      </trkpt>
      <trkpt lat="46.73274" lon="-1.99851">
        <ele>3.7</ele>
        <time>2025-01-22T08:42:06.952Z</time>
      </trkpt>
      <trkpt lat="46.73276" lon="-1.99853">
        <ele>3.7</ele>
        <time>2025-01-22T08:42:07.952Z</time>
      </trkpt>
      <trkpt lat="46.73277" lon="-1.99856">
        <ele>3.5</ele>
        <time>2025-01-22T08:42:08.953Z</time>
      </trkpt>
      <trkpt lat="46.73279" lon="-1.99858">
        <ele>3.5</ele>
        <time>2025-01-22T08:42:09.952Z</time>
      </trkpt>
      <trkpt lat="46.73281" lon="-1.99861">
        <ele>3.6</ele>
        <time>2025-01-22T08:42:10.952Z</time>
      </trkpt>
      <trkpt lat="46.73283" lon="-1.99863">
        <ele>3.7</ele>
        <time>2025-01-22T08:42:11.952Z</time>
      </trkpt>
      <trkpt lat="46.73284" lon="-1.99866">
        <ele>3.9</ele>
        <time>2025-01-22T08:42:12.952Z</time>
      </trkpt>
      <trkpt lat="46.73286" lon="-1.99868">
        <ele>4</ele>
        <time>2025-01-22T08:42:13.953Z</time>
      </trkpt>
      <trkpt lat="46.73288" lon="-1.9987">
        <ele>4.1</ele>
        <time>2025-01-22T08:42:14.953Z</time>
      </trkpt>
      <trkpt lat="46.73289" lon="-1.99872">
        <ele>4.2</ele>
        <time>2025-01-22T08:42:15.952Z</time>
      </trkpt>
      <trkpt lat="46.73291" lon="-1.99875">
        <ele>4.1</ele>
        <time>2025-01-22T08:42:16.952Z</time>
      </trkpt>
      <trkpt lat="46.73292" lon="-1.99878">
        <ele>4.1</ele>
        <time>2025-01-22T08:42:17.952Z</time>
      </trkpt>
      <trkpt lat="46.73294" lon="-1.99881">
        <ele>4</ele>
        <time>2025-01-22T08:42:18.952Z</time>
      </trkpt>
      <trkpt lat="46.73295" lon="-1.99883">
        <ele>3.9</ele>
        <time>2025-01-22T08:42:19.952Z</time>
      </trkpt>
      <trkpt lat="46.73297" lon="-1.99886">
        <ele>3.7</ele>
        <time>2025-01-22T08:42:20.952Z</time>
      </trkpt>
      <trkpt lat="46.73298" lon="-1.99888">
        <ele>3.6</ele>
        <time>2025-01-22T08:42:21.952Z</time>
      </trkpt>
      <trkpt lat="46.733" lon="-1.99891">
        <ele>3.5</ele>
        <time>2025-01-22T08:42:22.952Z</time>
      </trkpt>
      <trkpt lat="46.73302" lon="-1.99893">
        <ele>3.5</ele>
        <time>2025-01-22T08:42:23.952Z</time>
      </trkpt>
      <trkpt lat="46.73303" lon="-1.99895">
        <ele>3.4</ele>
        <time>2025-01-22T08:42:24.952Z</time>
      </trkpt>
      <trkpt lat="46.73305" lon="-1.99896">
        <ele>3.4</ele>
        <time>2025-01-22T08:42:25.952Z</time>
      </trkpt>
      <trkpt lat="46.73307" lon="-1.99898">
        <ele>3.5</ele>
        <time>2025-01-22T08:42:26.953Z</time>
      </trkpt>
      <trkpt lat="46.73308" lon="-1.999">
        <ele>3.6</ele>
        <time>2025-01-22T08:42:27.952Z</time>
      </trkpt>
      <trkpt lat="46.7331" lon="-1.99902">
        <ele>3.6</ele>
        <time>2025-01-22T08:42:28.953Z</time>
      </trkpt>
      <trkpt lat="46.73311" lon="-1.99905">
        <ele>3.6</ele>
        <time>2025-01-22T08:42:29.952Z</time>
      </trkpt>
      <trkpt lat="46.73313" lon="-1.99907">
        <ele>3.6</ele>
        <time>2025-01-22T08:42:30.953Z</time>
      </trkpt>
      <trkpt lat="46.73314" lon="-1.9991">
        <ele>3.5</ele>
        <time>2025-01-22T08:42:31.953Z</time>
      </trkpt>
      <trkpt lat="46.73316" lon="-1.99913">
        <ele>3.5</ele>
        <time>2025-01-22T08:42:32.952Z</time>
      </trkpt>
      <trkpt lat="46.73318" lon="-1.99915">
        <ele>3.5</ele>
        <time>2025-01-22T08:42:33.952Z</time>
      </trkpt>
      <trkpt lat="46.73319" lon="-1.99918">
        <ele>3.4</ele>
        <time>2025-01-22T08:42:34.953Z</time>
      </trkpt>
      <trkpt lat="46.73321" lon="-1.9992">
        <ele>3.4</ele>
        <time>2025-01-22T08:42:35.952Z</time>
      </trkpt>
      <trkpt lat="46.73322" lon="-1.99922">
        <ele>3.5</ele>
        <time>2025-01-22T08:42:36.952Z</time>
      </trkpt>
      <trkpt lat="46.73324" lon="-1.99924">
        <ele>3.6</ele>
        <time>2025-01-22T08:42:37.952Z</time>
      </trkpt>
      <trkpt lat="46.73326" lon="-1.99926">
        <ele>3.6</ele>
        <time>2025-01-22T08:42:38.952Z</time>
      </trkpt>
      <trkpt lat="46.73328" lon="-1.99929">
        <ele>3.6</ele>
        <time>2025-01-22T08:42:39.952Z</time>
      </trkpt>
      <trkpt lat="46.73329" lon="-1.99932">
        <ele>3.5</ele>
        <time>2025-01-22T08:42:40.953Z</time>
      </trkpt>
      <trkpt lat="46.73331" lon="-1.99934">
        <ele>3.5</ele>
        <time>2025-01-22T08:42:41.953Z</time>
      </trkpt>
      <trkpt lat="46.73332" lon="-1.99937">
        <ele>3.4</ele>
        <time>2025-01-22T08:42:42.952Z</time>
      </trkpt>
      <trkpt lat="46.73334" lon="-1.9994">
        <ele>3.4</ele>
        <time>2025-01-22T08:42:43.952Z</time>
      </trkpt>
      <trkpt lat="46.73335" lon="-1.99942">
        <ele>3.4</ele>
        <time>2025-01-22T08:42:44.953Z</time>
      </trkpt>
      <trkpt lat="46.73337" lon="-1.99944">
        <ele>3.5</ele>
        <time>2025-01-22T08:42:45.953Z</time>
      </trkpt>
      <trkpt lat="46.73338" lon="-1.99947">
        <ele>3.6</ele>
        <time>2025-01-22T08:42:46.952Z</time>
      </trkpt>
      <trkpt lat="46.7334" lon="-1.99949">
        <ele>3.6</ele>
        <time>2025-01-22T08:42:47.952Z</time>
      </trkpt>
      <trkpt lat="46.73341" lon="-1.99951">
        <ele>3.7</ele>
        <time>2025-01-22T08:42:48.953Z</time>
      </trkpt>
      <trkpt lat="46.73342" lon="-1.99953">
        <ele>3.7</ele>
        <time>2025-01-22T08:42:49.952Z</time>
      </trkpt>
      <trkpt lat="46.73344" lon="-1.99956">
        <ele>3.7</ele>
        <time>2025-01-22T08:42:50.952Z</time>
      </trkpt>
      <trkpt lat="46.73345" lon="-1.99958">
        <ele>3.6</ele>
        <time>2025-01-22T08:42:51.952Z</time>
      </trkpt>
      <trkpt lat="46.73347" lon="-1.99961">
        <ele>3.5</ele>
        <time>2025-01-22T08:42:52.953Z</time>
      </trkpt>
      <trkpt lat="46.73348" lon="-1.99964">
        <ele>3.4</ele>
        <time>2025-01-22T08:42:53.952Z</time>
      </trkpt>
      <trkpt lat="46.7335" lon="-1.99966">
        <ele>3.2</ele>
        <time>2025-01-22T08:42:54.953Z</time>
      </trkpt>
      <trkpt lat="46.73351" lon="-1.99968">
        <ele>3.1</ele>
        <time>2025-01-22T08:42:55.952Z</time>
      </trkpt>
      <trkpt lat="46.73353" lon="-1.99969">
        <ele>3</ele>
        <time>2025-01-22T08:42:56.952Z</time>
      </trkpt>
      <trkpt lat="46.73355" lon="-1.99973">
        <ele>2.8</ele>
        <time>2025-01-22T08:42:57.952Z</time>
      </trkpt>
      <trkpt lat="46.73356" lon="-1.99975">
        <ele>2.7</ele>
        <time>2025-01-22T08:42:58.953Z</time>
      </trkpt>
      <trkpt lat="46.73358" lon="-1.99977">
        <ele>2.7</ele>
        <time>2025-01-22T08:42:59.952Z</time>
      </trkpt>
      <trkpt lat="46.7336" lon="-1.9998">
        <ele>2.7</ele>
        <time>2025-01-22T08:43:00.952Z</time>
      </trkpt>
      <trkpt lat="46.73362" lon="-1.99982">
        <ele>2.8</ele>
        <time>2025-01-22T08:43:01.952Z</time>
      </trkpt>
      <trkpt lat="46.73364" lon="-1.99984">
        <ele>3</ele>
        <time>2025-01-22T08:43:02.952Z</time>
      </trkpt>
      <trkpt lat="46.73365" lon="-1.99986">
        <ele>3.1</ele>
        <time>2025-01-22T08:43:03.953Z</time>
      </trkpt>
      <trkpt lat="46.73367" lon="-1.99988">
        <ele>3.2</ele>
        <time>2025-01-22T08:43:04.953Z</time>
      </trkpt>
      <trkpt lat="46.73369" lon="-1.9999">
        <ele>3.3</ele>
        <time>2025-01-22T08:43:05.952Z</time>
      </trkpt>
      <trkpt lat="46.7337" lon="-1.99993">
        <ele>3.3</ele>
        <time>2025-01-22T08:43:06.952Z</time>
      </trkpt>
      <trkpt lat="46.73372" lon="-1.99995">
        <ele>3.2</ele>
        <time>2025-01-22T08:43:07.952Z</time>
      </trkpt>
      <trkpt lat="46.73373" lon="-1.99997">
        <ele>3.2</ele>
        <time>2025-01-22T08:43:08.952Z</time>
      </trkpt>
      <trkpt lat="46.73376" lon="-2">
        <ele>3.1</ele>
        <time>2025-01-22T08:43:09.952Z</time>
      </trkpt>
      <trkpt lat="46.73377" lon="-2.00002">
        <ele>3.1</ele>
        <time>2025-01-22T08:43:10.952Z</time>
      </trkpt>
      <trkpt lat="46.73379" lon="-2.00003">
        <ele>3.2</ele>
        <time>2025-01-22T08:43:11.953Z</time>
      </trkpt>
      <trkpt lat="46.7338" lon="-2.00005">
        <ele>3.2</ele>
        <time>2025-01-22T08:43:12.953Z</time>
      </trkpt>
      <trkpt lat="46.73382" lon="-2.00007">
        <ele>3.2</ele>
        <time>2025-01-22T08:43:13.953Z</time>
      </trkpt>
      <trkpt lat="46.73383" lon="-2.00009">
        <ele>3.3</ele>
        <time>2025-01-22T08:43:14.952Z</time>
      </trkpt>
      <trkpt lat="46.73385" lon="-2.00011">
        <ele>3.3</ele>
        <time>2025-01-22T08:43:15.952Z</time>
      </trkpt>
      <trkpt lat="46.73386" lon="-2.00013">
        <ele>3.4</ele>
        <time>2025-01-22T08:43:16.952Z</time>
      </trkpt>
      <trkpt lat="46.73388" lon="-2.00014">
        <ele>3.4</ele>
        <time>2025-01-22T08:43:17.952Z</time>
      </trkpt>
      <trkpt lat="46.7339" lon="-2.00016">
        <ele>3.5</ele>
        <time>2025-01-22T08:43:18.953Z</time>
      </trkpt>
      <trkpt lat="46.73392" lon="-2.00018">
        <ele>3.7</ele>
        <time>2025-01-22T08:43:19.952Z</time>
      </trkpt>
      <trkpt lat="46.73393" lon="-2.0002">
        <ele>3.8</ele>
        <time>2025-01-22T08:43:20.952Z</time>
      </trkpt>
      <trkpt lat="46.73395" lon="-2.00023">
        <ele>3.9</ele>
        <time>2025-01-22T08:43:21.952Z</time>
      </trkpt>
      <trkpt lat="46.73396" lon="-2.00025">
        <ele>4</ele>
        <time>2025-01-22T08:43:22.952Z</time>
      </trkpt>
      <trkpt lat="46.73398" lon="-2.00026">
        <ele>4</ele>
        <time>2025-01-22T08:43:23.953Z</time>
      </trkpt>
      <trkpt lat="46.73399" lon="-2.00029">
        <ele>4</ele>
        <time>2025-01-22T08:43:24.952Z</time>
      </trkpt>
      <trkpt lat="46.73401" lon="-2.00032">
        <ele>3.9</ele>
        <time>2025-01-22T08:43:25.952Z</time>
      </trkpt>
      <trkpt lat="46.73403" lon="-2.00034">
        <ele>3.9</ele>
        <time>2025-01-22T08:43:26.952Z</time>
      </trkpt>
      <trkpt lat="46.73404" lon="-2.00036">
        <ele>3.9</ele>
        <time>2025-01-22T08:43:27.952Z</time>
      </trkpt>
      <trkpt lat="46.73406" lon="-2.00038">
        <ele>3.9</ele>
        <time>2025-01-22T08:43:28.952Z</time>
      </trkpt>
      <trkpt lat="46.73408" lon="-2.0004">
        <ele>3.9</ele>
        <time>2025-01-22T08:43:29.953Z</time>
      </trkpt>
      <trkpt lat="46.73409" lon="-2.00042">
        <ele>3.8</ele>
        <time>2025-01-22T08:43:30.952Z</time>
      </trkpt>
      <trkpt lat="46.73411" lon="-2.00045">
        <ele>3.7</ele>
        <time>2025-01-22T08:43:31.952Z</time>
      </trkpt>
      <trkpt lat="46.73412" lon="-2.00047">
        <ele>3.6</ele>
        <time>2025-01-22T08:43:32.952Z</time>
      </trkpt>
      <trkpt lat="46.73414" lon="-2.00049">
        <ele>3.5</ele>
        <time>2025-01-22T08:43:33.953Z</time>
      </trkpt>
      <trkpt lat="46.73415" lon="-2.00052">
        <ele>3.3</ele>
        <time>2025-01-22T08:43:34.953Z</time>
      </trkpt>
      <trkpt lat="46.73417" lon="-2.00055">
        <ele>3.1</ele>
        <time>2025-01-22T08:43:35.952Z</time>
      </trkpt>
      <trkpt lat="46.73418" lon="-2.00058">
        <ele>3.2</ele>
        <time>2025-01-22T08:43:36.952Z</time>
      </trkpt>
      <trkpt lat="46.7342" lon="-2.0006">
        <ele>3.4</ele>
        <time>2025-01-22T08:43:37.952Z</time>
      </trkpt>
      <trkpt lat="46.73422" lon="-2.00062">
        <ele>3.5</ele>
        <time>2025-01-22T08:43:38.952Z</time>
      </trkpt>
      <trkpt lat="46.73423" lon="-2.00064">
        <ele>3.6</ele>
        <time>2025-01-22T08:43:39.952Z</time>
      </trkpt>
      <trkpt lat="46.73425" lon="-2.00066">
        <ele>3.7</ele>
        <time>2025-01-22T08:43:40.953Z</time>
      </trkpt>
      <trkpt lat="46.73427" lon="-2.00068">
        <ele>3.8</ele>
        <time>2025-01-22T08:43:41.952Z</time>
      </trkpt>
      <trkpt lat="46.73428" lon="-2.00071">
        <ele>3.8</ele>
        <time>2025-01-22T08:43:42.952Z</time>
      </trkpt>
      <trkpt lat="46.7343" lon="-2.00074">
        <ele>3.8</ele>
        <time>2025-01-22T08:43:43.952Z</time>
      </trkpt>
      <trkpt lat="46.73432" lon="-2.00076">
        <ele>3.8</ele>
        <time>2025-01-22T08:43:44.952Z</time>
      </trkpt>
      <trkpt lat="46.73434" lon="-2.00078">
        <ele>3.8</ele>
        <time>2025-01-22T08:43:45.952Z</time>
      </trkpt>
      <trkpt lat="46.73435" lon="-2.0008">
        <ele>3.7</ele>
        <time>2025-01-22T08:43:46.952Z</time>
      </trkpt>
      <trkpt lat="46.73436" lon="-2.00083">
        <ele>3.5</ele>
        <time>2025-01-22T08:43:47.952Z</time>
      </trkpt>
      <trkpt lat="46.73438" lon="-2.00084">
        <ele>3.5</ele>
        <time>2025-01-22T08:43:48.952Z</time>
      </trkpt>
      <trkpt lat="46.7344" lon="-2.00086">
        <ele>3.5</ele>
        <time>2025-01-22T08:43:49.953Z</time>
      </trkpt>
      <trkpt lat="46.73441" lon="-2.00088">
        <ele>3.5</ele>
        <time>2025-01-22T08:43:50.952Z</time>
      </trkpt>
      <trkpt lat="46.73443" lon="-2.0009">
        <ele>3.4</ele>
        <time>2025-01-22T08:43:51.952Z</time>
      </trkpt>
      <trkpt lat="46.73444" lon="-2.00092">
        <ele>3.4</ele>
        <time>2025-01-22T08:43:52.952Z</time>
      </trkpt>
      <trkpt lat="46.73446" lon="-2.00094">
        <ele>3.4</ele>
        <time>2025-01-22T08:43:53.953Z</time>
      </trkpt>
      <trkpt lat="46.73447" lon="-2.00096">
        <ele>3.5</ele>
        <time>2025-01-22T08:43:54.953Z</time>
      </trkpt>
      <trkpt lat="46.73449" lon="-2.00098">
        <ele>3.6</ele>
        <time>2025-01-22T08:43:55.952Z</time>
      </trkpt>
      <trkpt lat="46.73451" lon="-2.00099">
        <ele>3.7</ele>
        <time>2025-01-22T08:43:56.952Z</time>
      </trkpt>
      <trkpt lat="46.73452" lon="-2.00101">
        <ele>3.8</ele>
        <time>2025-01-22T08:43:57.952Z</time>
      </trkpt>
      <trkpt lat="46.73454" lon="-2.00103">
        <ele>3.8</ele>
        <time>2025-01-22T08:43:58.952Z</time>
      </trkpt>
      <trkpt lat="46.73455" lon="-2.00104">
        <ele>3.9</ele>
        <time>2025-01-22T08:43:59.952Z</time>
      </trkpt>
      <trkpt lat="46.73457" lon="-2.00105">
        <ele>3.9</ele>
        <time>2025-01-22T08:44:00.953Z</time>
      </trkpt>
      <trkpt lat="46.73458" lon="-2.00107">
        <ele>3.9</ele>
        <time>2025-01-22T08:44:01.953Z</time>
      </trkpt>
      <trkpt lat="46.7346" lon="-2.00109">
        <ele>3.8</ele>
        <time>2025-01-22T08:44:02.952Z</time>
      </trkpt>
      <trkpt lat="46.73461" lon="-2.00112">
        <ele>3.7</ele>
        <time>2025-01-22T08:44:03.953Z</time>
      </trkpt>
      <trkpt lat="46.73462" lon="-2.00114">
        <ele>3.7</ele>
        <time>2025-01-22T08:44:04.952Z</time>
      </trkpt>
      <trkpt lat="46.73464" lon="-2.00116">
        <ele>3.8</ele>
        <time>2025-01-22T08:44:05.952Z</time>
      </trkpt>
      <trkpt lat="46.73465" lon="-2.00119">
        <ele>3.8</ele>
        <time>2025-01-22T08:44:06.952Z</time>
      </trkpt>
      <trkpt lat="46.73468" lon="-2.00121">
        <ele>3.9</ele>
        <time>2025-01-22T08:44:07.952Z</time>
      </trkpt>
      <trkpt lat="46.73469" lon="-2.00123">
        <ele>3.9</ele>
        <time>2025-01-22T08:44:08.953Z</time>
      </trkpt>
      <trkpt lat="46.73471" lon="-2.00123">
        <ele>4</ele>
        <time>2025-01-22T08:44:09.953Z</time>
      </trkpt>
      <trkpt lat="46.73472" lon="-2.00125">
        <ele>4</ele>
        <time>2025-01-22T08:44:10.953Z</time>
      </trkpt>
      <trkpt lat="46.73474" lon="-2.00127">
        <ele>4</ele>
        <time>2025-01-22T08:44:11.952Z</time>
      </trkpt>
      <trkpt lat="46.73475" lon="-2.0013">
        <ele>4</ele>
        <time>2025-01-22T08:44:12.952Z</time>
      </trkpt>
      <trkpt lat="46.73477" lon="-2.00132">
        <ele>4.1</ele>
        <time>2025-01-22T08:44:13.952Z</time>
      </trkpt>
      <trkpt lat="46.73478" lon="-2.00134">
        <ele>4</ele>
        <time>2025-01-22T08:44:14.953Z</time>
      </trkpt>
      <trkpt lat="46.73479" lon="-2.00136">
        <ele>4</ele>
        <time>2025-01-22T08:44:15.952Z</time>
      </trkpt>
      <trkpt lat="46.73481" lon="-2.00138">
        <ele>4</ele>
        <time>2025-01-22T08:44:16.952Z</time>
      </trkpt>
      <trkpt lat="46.73482" lon="-2.0014">
        <ele>4</ele>
        <time>2025-01-22T08:44:17.952Z</time>
      </trkpt>
      <trkpt lat="46.73484" lon="-2.00142">
        <ele>4</ele>
        <time>2025-01-22T08:44:18.952Z</time>
      </trkpt>
      <trkpt lat="46.73485" lon="-2.00144">
        <ele>4.1</ele>
        <time>2025-01-22T08:44:19.953Z</time>
      </trkpt>
      <trkpt lat="46.73487" lon="-2.00146">
        <ele>4.1</ele>
        <time>2025-01-22T08:44:20.952Z</time>
      </trkpt>
      <trkpt lat="46.73489" lon="-2.00149">
        <ele>4.1</ele>
        <time>2025-01-22T08:44:21.952Z</time>
      </trkpt>
      <trkpt lat="46.7349" lon="-2.00152">
        <ele>4</ele>
        <time>2025-01-22T08:44:22.952Z</time>
      </trkpt>
      <trkpt lat="46.73492" lon="-2.00154">
        <ele>4</ele>
        <time>2025-01-22T08:44:23.952Z</time>
      </trkpt>
      <trkpt lat="46.73493" lon="-2.00157">
        <ele>4</ele>
        <time>2025-01-22T08:44:24.952Z</time>
      </trkpt>
      <trkpt lat="46.73495" lon="-2.00159">
        <ele>4</ele>
        <time>2025-01-22T08:44:25.952Z</time>
      </trkpt>
      <trkpt lat="46.73497" lon="-2.0016">
        <ele>4.1</ele>
        <time>2025-01-22T08:44:26.953Z</time>
      </trkpt>
      <trkpt lat="46.73498" lon="-2.00163">
        <ele>4.1</ele>
        <time>2025-01-22T08:44:27.953Z</time>
      </trkpt>
      <trkpt lat="46.735" lon="-2.00165">
        <ele>4.1</ele>
        <time>2025-01-22T08:44:28.953Z</time>
      </trkpt>
      <trkpt lat="46.73501" lon="-2.00167">
        <ele>4.1</ele>
        <time>2025-01-22T08:44:29.953Z</time>
      </trkpt>
      <trkpt lat="46.73503" lon="-2.00169">
        <ele>4.2</ele>
        <time>2025-01-22T08:44:30.952Z</time>
      </trkpt>
      <trkpt lat="46.73504" lon="-2.00171">
        <ele>4.2</ele>
        <time>2025-01-22T08:44:31.952Z</time>
      </trkpt>
      <trkpt lat="46.73505" lon="-2.00173">
        <ele>4.2</ele>
        <time>2025-01-22T08:44:32.952Z</time>
      </trkpt>
      <trkpt lat="46.73507" lon="-2.00174">
        <ele>4.3</ele>
        <time>2025-01-22T08:44:33.952Z</time>
      </trkpt>
      <trkpt lat="46.73508" lon="-2.00175">
        <ele>4.3</ele>
        <time>2025-01-22T08:44:34.953Z</time>
      </trkpt>
      <trkpt lat="46.73509" lon="-2.00176">
        <ele>4.3</ele>
        <time>2025-01-22T08:44:35.953Z</time>
      </trkpt>
      <trkpt lat="46.7351" lon="-2.00177">
        <ele>4.4</ele>
        <time>2025-01-22T08:44:36.952Z</time>
      </trkpt>
      <trkpt lat="46.73511" lon="-2.00179">
        <ele>4.4</ele>
        <time>2025-01-22T08:44:37.952Z</time>
      </trkpt>
      <trkpt lat="46.73512" lon="-2.00179">
        <ele>4.4</ele>
        <time>2025-01-22T08:44:38.952Z</time>
      </trkpt>
      <trkpt lat="46.73513" lon="-2.00181">
        <ele>4.3</ele>
        <time>2025-01-22T08:44:39.953Z</time>
      </trkpt>
      <trkpt lat="46.73513" lon="-2.00182">
        <ele>4.3</ele>
        <time>2025-01-22T08:44:40.953Z</time>
      </trkpt>
      <trkpt lat="46.73515" lon="-2.00184">
        <ele>4.2</ele>
        <time>2025-01-22T08:44:41.952Z</time>
      </trkpt>
      <trkpt lat="46.73516" lon="-2.00185">
        <ele>4.1</ele>
        <time>2025-01-22T08:44:42.953Z</time>
      </trkpt>
      <trkpt lat="46.73516" lon="-2.00187">
        <ele>4</ele>
        <time>2025-01-22T08:44:43.952Z</time>
      </trkpt>
      <trkpt lat="46.73517" lon="-2.00188">
        <ele>3.9</ele>
        <time>2025-01-22T08:44:44.953Z</time>
      </trkpt>
      <trkpt lat="46.73518" lon="-2.0019">
        <ele>3.8</ele>
        <time>2025-01-22T08:44:45.952Z</time>
      </trkpt>
      <trkpt lat="46.73519" lon="-2.00193">
        <ele>3.6</ele>
        <time>2025-01-22T08:44:46.953Z</time>
      </trkpt>
      <trkpt lat="46.7352" lon="-2.00195">
        <ele>3.4</ele>
        <time>2025-01-22T08:44:47.953Z</time>
      </trkpt>
      <trkpt lat="46.73521" lon="-2.00196">
        <ele>3.4</ele>
        <time>2025-01-22T08:44:48.952Z</time>
      </trkpt>
      <trkpt lat="46.73522" lon="-2.00198">
        <ele>3.4</ele>
        <time>2025-01-22T08:44:49.953Z</time>
      </trkpt>
      <trkpt lat="46.73522" lon="-2.00199">
        <ele>3.5</ele>
        <time>2025-01-22T08:44:50.952Z</time>
      </trkpt>
      <trkpt lat="46.73523" lon="-2.002">
        <ele>3.5</ele>
        <time>2025-01-22T08:44:51.952Z</time>
      </trkpt>
      <trkpt lat="46.73524" lon="-2.00201">
        <ele>3.5</ele>
        <time>2025-01-22T08:44:52.952Z</time>
      </trkpt>
      <trkpt lat="46.73525" lon="-2.00202">
        <ele>3.5</ele>
        <time>2025-01-22T08:44:53.953Z</time>
      </trkpt>
      <trkpt lat="46.73526" lon="-2.00204">
        <ele>3.5</ele>
        <time>2025-01-22T08:44:54.953Z</time>
      </trkpt>
      <trkpt lat="46.73526" lon="-2.00205">
        <ele>3.5</ele>
        <time>2025-01-22T08:44:55.952Z</time>
      </trkpt>
      <trkpt lat="46.73527" lon="-2.00207">
        <ele>3.5</ele>
        <time>2025-01-22T08:44:56.953Z</time>
      </trkpt>
      <trkpt lat="46.73529" lon="-2.00208">
        <ele>3.6</ele>
        <time>2025-01-22T08:44:57.953Z</time>
      </trkpt>
      <trkpt lat="46.7353" lon="-2.0021">
        <ele>3.7</ele>
        <time>2025-01-22T08:44:58.952Z</time>
      </trkpt>
      <trkpt lat="46.73531" lon="-2.00212">
        <ele>3.7</ele>
        <time>2025-01-22T08:44:59.952Z</time>
      </trkpt>
      <trkpt lat="46.73532" lon="-2.00213">
        <ele>3.8</ele>
        <time>2025-01-22T08:45:00.952Z</time>
      </trkpt>
      <trkpt lat="46.73533" lon="-2.00215">
        <ele>3.9</ele>
        <time>2025-01-22T08:45:01.952Z</time>
      </trkpt>
      <trkpt lat="46.73534" lon="-2.00217">
        <ele>4</ele>
        <time>2025-01-22T08:45:02.952Z</time>
      </trkpt>
      <trkpt lat="46.73536" lon="-2.0022">
        <ele>4</ele>
        <time>2025-01-22T08:45:03.952Z</time>
      </trkpt>
      <trkpt lat="46.73538" lon="-2.00222">
        <ele>4.1</ele>
        <time>2025-01-22T08:45:04.953Z</time>
      </trkpt>
      <trkpt lat="46.73539" lon="-2.00225">
        <ele>4</ele>
        <time>2025-01-22T08:45:05.953Z</time>
      </trkpt>
      <trkpt lat="46.73541" lon="-2.00228">
        <ele>4</ele>
        <time>2025-01-22T08:45:06.953Z</time>
      </trkpt>
      <trkpt lat="46.73543" lon="-2.00231">
        <ele>3.8</ele>
        <time>2025-01-22T08:45:07.952Z</time>
      </trkpt>
      <trkpt lat="46.73544" lon="-2.00234">
        <ele>3.7</ele>
        <time>2025-01-22T08:45:08.952Z</time>
      </trkpt>
      <trkpt lat="46.73546" lon="-2.00236">
        <ele>3.6</ele>
        <time>2025-01-22T08:45:09.952Z</time>
      </trkpt>
      <trkpt lat="46.73547" lon="-2.0024">
        <ele>3.4</ele>
        <time>2025-01-22T08:45:10.953Z</time>
      </trkpt>
      <trkpt lat="46.73549" lon="-2.00242">
        <ele>3.3</ele>
        <time>2025-01-22T08:45:11.952Z</time>
      </trkpt>
      <trkpt lat="46.7355" lon="-2.00244">
        <ele>3.2</ele>
        <time>2025-01-22T08:45:12.952Z</time>
      </trkpt>
      <trkpt lat="46.73552" lon="-2.00246">
        <ele>3.1</ele>
        <time>2025-01-22T08:45:13.952Z</time>
      </trkpt>
      <trkpt lat="46.73554" lon="-2.00248">
        <ele>3.1</ele>
        <time>2025-01-22T08:45:14.952Z</time>
      </trkpt>
      <trkpt lat="46.73555" lon="-2.0025">
        <ele>3</ele>
        <time>2025-01-22T08:45:15.953Z</time>
      </trkpt>
      <trkpt lat="46.73557" lon="-2.00252">
        <ele>3.2</ele>
        <time>2025-01-22T08:45:16.953Z</time>
      </trkpt>
      <trkpt lat="46.73559" lon="-2.00254">
        <ele>3.4</ele>
        <time>2025-01-22T08:45:17.953Z</time>
      </trkpt>
      <trkpt lat="46.7356" lon="-2.00256">
        <ele>3.5</ele>
        <time>2025-01-22T08:45:18.952Z</time>
      </trkpt>
      <trkpt lat="46.73562" lon="-2.00259">
        <ele>3.6</ele>
        <time>2025-01-22T08:45:19.952Z</time>
      </trkpt>
      <trkpt lat="46.73563" lon="-2.00261">
        <ele>3.7</ele>
        <time>2025-01-22T08:45:20.953Z</time>
      </trkpt>
      <trkpt lat="46.73565" lon="-2.00263">
        <ele>3.7</ele>
        <time>2025-01-22T08:45:21.953Z</time>
      </trkpt>
      <trkpt lat="46.73567" lon="-2.00265">
        <ele>3.8</ele>
        <time>2025-01-22T08:45:22.952Z</time>
      </trkpt>
      <trkpt lat="46.73568" lon="-2.00266">
        <ele>3.9</ele>
        <time>2025-01-22T08:45:23.952Z</time>
      </trkpt>
      <trkpt lat="46.7357" lon="-2.00268">
        <ele>3.9</ele>
        <time>2025-01-22T08:45:24.953Z</time>
      </trkpt>
      <trkpt lat="46.73571" lon="-2.0027">
        <ele>3.8</ele>
        <time>2025-01-22T08:45:25.953Z</time>
      </trkpt>
      <trkpt lat="46.73573" lon="-2.00272">
        <ele>3.8</ele>
        <time>2025-01-22T08:45:26.953Z</time>
      </trkpt>
      <trkpt lat="46.73574" lon="-2.00275">
        <ele>3.7</ele>
        <time>2025-01-22T08:45:27.953Z</time>
      </trkpt>
      <trkpt lat="46.73576" lon="-2.00277">
        <ele>3.6</ele>
        <time>2025-01-22T08:45:28.952Z</time>
      </trkpt>
      <trkpt lat="46.73577" lon="-2.00279">
        <ele>3.5</ele>
        <time>2025-01-22T08:45:29.952Z</time>
      </trkpt>
      <trkpt lat="46.73579" lon="-2.00281">
        <ele>3.5</ele>
        <time>2025-01-22T08:45:30.952Z</time>
      </trkpt>
      <trkpt lat="46.7358" lon="-2.00284">
        <ele>3.4</ele>
        <time>2025-01-22T08:45:31.952Z</time>
      </trkpt>
      <trkpt lat="46.73582" lon="-2.00286">
        <ele>3.3</ele>
        <time>2025-01-22T08:45:32.953Z</time>
      </trkpt>
      <trkpt lat="46.73584" lon="-2.00288">
        <ele>3.3</ele>
        <time>2025-01-22T08:45:33.953Z</time>
      </trkpt>
      <trkpt lat="46.73585" lon="-2.00291">
        <ele>3.4</ele>
        <time>2025-01-22T08:45:34.953Z</time>
      </trkpt>
      <trkpt lat="46.73587" lon="-2.00293">
        <ele>3.4</ele>
        <time>2025-01-22T08:45:35.953Z</time>
      </trkpt>
      <trkpt lat="46.73588" lon="-2.00295">
        <ele>3.4</ele>
        <time>2025-01-22T08:45:36.953Z</time>
      </trkpt>
      <trkpt lat="46.7359" lon="-2.00298">
        <ele>3.4</ele>
        <time>2025-01-22T08:45:37.952Z</time>
      </trkpt>
      <trkpt lat="46.73592" lon="-2.003">
        <ele>3.4</ele>
        <time>2025-01-22T08:45:38.953Z</time>
      </trkpt>
      <trkpt lat="46.73593" lon="-2.00303">
        <ele>3.3</ele>
        <time>2025-01-22T08:45:39.952Z</time>
      </trkpt>
      <trkpt lat="46.73594" lon="-2.00305">
        <ele>3.3</ele>
        <time>2025-01-22T08:45:40.953Z</time>
      </trkpt>
      <trkpt lat="46.73596" lon="-2.00307">
        <ele>3.2</ele>
        <time>2025-01-22T08:45:41.952Z</time>
      </trkpt>
      <trkpt lat="46.73597" lon="-2.00309">
        <ele>3.3</ele>
        <time>2025-01-22T08:45:42.953Z</time>
      </trkpt>
      <trkpt lat="46.73599" lon="-2.00312">
        <ele>3.4</ele>
        <time>2025-01-22T08:45:43.953Z</time>
      </trkpt>
      <trkpt lat="46.73601" lon="-2.00314">
        <ele>3.4</ele>
        <time>2025-01-22T08:45:44.952Z</time>
      </trkpt>
      <trkpt lat="46.73603" lon="-2.00316">
        <ele>3.5</ele>
        <time>2025-01-22T08:45:45.953Z</time>
      </trkpt>
      <trkpt lat="46.73605" lon="-2.00318">
        <ele>3.5</ele>
        <time>2025-01-22T08:45:46.953Z</time>
      </trkpt>
      <trkpt lat="46.73606" lon="-2.0032">
        <ele>3.5</ele>
        <time>2025-01-22T08:45:47.953Z</time>
      </trkpt>
      <trkpt lat="46.73608" lon="-2.00323">
        <ele>3.5</ele>
        <time>2025-01-22T08:45:48.952Z</time>
      </trkpt>
      <trkpt lat="46.73609" lon="-2.00325">
        <ele>3.5</ele>
        <time>2025-01-22T08:45:49.953Z</time>
      </trkpt>
      <trkpt lat="46.73611" lon="-2.00327">
        <ele>3.4</ele>
        <time>2025-01-22T08:45:50.952Z</time>
      </trkpt>
      <trkpt lat="46.73612" lon="-2.00329">
        <ele>3.5</ele>
        <time>2025-01-22T08:45:51.952Z</time>
      </trkpt>
      <trkpt lat="46.73614" lon="-2.00331">
        <ele>3.5</ele>
        <time>2025-01-22T08:45:52.952Z</time>
      </trkpt>
      <trkpt lat="46.73615" lon="-2.00333">
        <ele>3.6</ele>
        <time>2025-01-22T08:45:53.953Z</time>
      </trkpt>
      <trkpt lat="46.73617" lon="-2.00335">
        <ele>3.7</ele>
        <time>2025-01-22T08:45:54.953Z</time>
      </trkpt>
      <trkpt lat="46.73618" lon="-2.00336">
        <ele>3.8</ele>
        <time>2025-01-22T08:45:55.953Z</time>
      </trkpt>
      <trkpt lat="46.7362" lon="-2.00339">
        <ele>3.8</ele>
        <time>2025-01-22T08:45:56.953Z</time>
      </trkpt>
      <trkpt lat="46.73622" lon="-2.00341">
        <ele>3.9</ele>
        <time>2025-01-22T08:45:57.953Z</time>
      </trkpt>
      <trkpt lat="46.73623" lon="-2.00344">
        <ele>3.9</ele>
        <time>2025-01-22T08:45:58.952Z</time>
      </trkpt>
      <trkpt lat="46.73625" lon="-2.00345">
        <ele>4</ele>
        <time>2025-01-22T08:45:59.952Z</time>
      </trkpt>
      <trkpt lat="46.73626" lon="-2.00346">
        <ele>4</ele>
        <time>2025-01-22T08:46:00.952Z</time>
      </trkpt>
      <trkpt lat="46.73628" lon="-2.00348">
        <ele>4.1</ele>
        <time>2025-01-22T08:46:01.952Z</time>
      </trkpt>
      <trkpt lat="46.7363" lon="-2.0035">
        <ele>4.1</ele>
        <time>2025-01-22T08:46:02.952Z</time>
      </trkpt>
      <trkpt lat="46.73631" lon="-2.00352">
        <ele>4</ele>
        <time>2025-01-22T08:46:03.953Z</time>
      </trkpt>
      <trkpt lat="46.73633" lon="-2.00355">
        <ele>3.9</ele>
        <time>2025-01-22T08:46:04.953Z</time>
      </trkpt>
      <trkpt lat="46.73634" lon="-2.00357">
        <ele>3.9</ele>
        <time>2025-01-22T08:46:05.953Z</time>
      </trkpt>
      <trkpt lat="46.73635" lon="-2.00358">
        <ele>3.9</ele>
        <time>2025-01-22T08:46:06.952Z</time>
      </trkpt>
      <trkpt lat="46.73637" lon="-2.0036">
        <ele>3.9</ele>
        <time>2025-01-22T08:46:07.953Z</time>
      </trkpt>
      <trkpt lat="46.73639" lon="-2.00362">
        <ele>3.9</ele>
        <time>2025-01-22T08:46:08.953Z</time>
      </trkpt>
      <trkpt lat="46.73641" lon="-2.00364">
        <ele>4.1</ele>
        <time>2025-01-22T08:46:09.953Z</time>
      </trkpt>
      <trkpt lat="46.73642" lon="-2.00365">
        <ele>4.1</ele>
        <time>2025-01-22T08:46:10.953Z</time>
      </trkpt>
      <trkpt lat="46.73644" lon="-2.00367">
        <ele>4.2</ele>
        <time>2025-01-22T08:46:11.952Z</time>
      </trkpt>
      <trkpt lat="46.73646" lon="-2.00369">
        <ele>4.3</ele>
        <time>2025-01-22T08:46:12.953Z</time>
      </trkpt>
      <trkpt lat="46.73647" lon="-2.00371">
        <ele>4.3</ele>
        <time>2025-01-22T08:46:13.952Z</time>
      </trkpt>
      <trkpt lat="46.73649" lon="-2.00373">
        <ele>4.3</ele>
        <time>2025-01-22T08:46:14.953Z</time>
      </trkpt>
      <trkpt lat="46.7365" lon="-2.00375">
        <ele>4.2</ele>
        <time>2025-01-22T08:46:15.953Z</time>
      </trkpt>
      <trkpt lat="46.73652" lon="-2.00376">
        <ele>4.2</ele>
        <time>2025-01-22T08:46:16.953Z</time>
      </trkpt>
      <trkpt lat="46.73653" lon="-2.00378">
        <ele>4.2</ele>
        <time>2025-01-22T08:46:17.952Z</time>
      </trkpt>
      <trkpt lat="46.73655" lon="-2.00381">
        <ele>4.1</ele>
        <time>2025-01-22T08:46:18.952Z</time>
      </trkpt>
      <trkpt lat="46.73657" lon="-2.00383">
        <ele>4</ele>
        <time>2025-01-22T08:46:19.952Z</time>
      </trkpt>
      <trkpt lat="46.73659" lon="-2.00385">
        <ele>3.9</ele>
        <time>2025-01-22T08:46:20.952Z</time>
      </trkpt>
      <trkpt lat="46.7366" lon="-2.00387">
        <ele>3.8</ele>
        <time>2025-01-22T08:46:21.953Z</time>
      </trkpt>
      <trkpt lat="46.73662" lon="-2.00389">
        <ele>3.7</ele>
        <time>2025-01-22T08:46:22.953Z</time>
      </trkpt>
      <trkpt lat="46.73663" lon="-2.00391">
        <ele>3.7</ele>
        <time>2025-01-22T08:46:23.953Z</time>
      </trkpt>
      <trkpt lat="46.73665" lon="-2.00393">
        <ele>3.7</ele>
        <time>2025-01-22T08:46:24.953Z</time>
      </trkpt>
      <trkpt lat="46.73666" lon="-2.00395">
        <ele>3.8</ele>
        <time>2025-01-22T08:46:25.953Z</time>
      </trkpt>
      <trkpt lat="46.73668" lon="-2.00397">
        <ele>3.9</ele>
        <time>2025-01-22T08:46:26.952Z</time>
      </trkpt>
      <trkpt lat="46.73669" lon="-2.00399">
        <ele>4.1</ele>
        <time>2025-01-22T08:46:27.952Z</time>
      </trkpt>
      <trkpt lat="46.73671" lon="-2.00401">
        <ele>4.2</ele>
        <time>2025-01-22T08:46:28.952Z</time>
      </trkpt>
      <trkpt lat="46.73672" lon="-2.00403">
        <ele>4.3</ele>
        <time>2025-01-22T08:46:29.952Z</time>
      </trkpt>
      <trkpt lat="46.73674" lon="-2.00405">
        <ele>4.4</ele>
        <time>2025-01-22T08:46:30.953Z</time>
      </trkpt>
      <trkpt lat="46.73675" lon="-2.00406">
        <ele>4.4</ele>
        <time>2025-01-22T08:46:31.953Z</time>
      </trkpt>
      <trkpt lat="46.73677" lon="-2.00408">
        <ele>4.5</ele>
        <time>2025-01-22T08:46:32.953Z</time>
      </trkpt>
      <trkpt lat="46.73678" lon="-2.0041">
        <ele>4.4</ele>
        <time>2025-01-22T08:46:33.953Z</time>
      </trkpt>
      <trkpt lat="46.73679" lon="-2.00412">
        <ele>4.4</ele>
        <time>2025-01-22T08:46:34.953Z</time>
      </trkpt>
      <trkpt lat="46.73681" lon="-2.00415">
        <ele>4.3</ele>
        <time>2025-01-22T08:46:35.952Z</time>
      </trkpt>
      <trkpt lat="46.73683" lon="-2.00417">
        <ele>4.2</ele>
        <time>2025-01-22T08:46:36.952Z</time>
      </trkpt>
      <trkpt lat="46.73684" lon="-2.00418">
        <ele>4.1</ele>
        <time>2025-01-22T08:46:37.952Z</time>
      </trkpt>
      <trkpt lat="46.73686" lon="-2.00421">
        <ele>4.1</ele>
        <time>2025-01-22T08:46:38.952Z</time>
      </trkpt>
      <trkpt lat="46.73687" lon="-2.00423">
        <ele>4.1</ele>
        <time>2025-01-22T08:46:39.952Z</time>
      </trkpt>
      <trkpt lat="46.73689" lon="-2.00425">
        <ele>4</ele>
        <time>2025-01-22T08:46:40.953Z</time>
      </trkpt>
      <trkpt lat="46.7369" lon="-2.00427">
        <ele>4</ele>
        <time>2025-01-22T08:46:41.953Z</time>
      </trkpt>
      <trkpt lat="46.73692" lon="-2.00429">
        <ele>3.9</ele>
        <time>2025-01-22T08:46:42.953Z</time>
      </trkpt>
      <trkpt lat="46.73693" lon="-2.00431">
        <ele>3.9</ele>
        <time>2025-01-22T08:46:43.952Z</time>
      </trkpt>
      <trkpt lat="46.73694" lon="-2.00433">
        <ele>3.8</ele>
        <time>2025-01-22T08:46:44.952Z</time>
      </trkpt>
      <trkpt lat="46.73696" lon="-2.00435">
        <ele>3.8</ele>
        <time>2025-01-22T08:46:45.952Z</time>
      </trkpt>
      <trkpt lat="46.73698" lon="-2.00437">
        <ele>4</ele>
        <time>2025-01-22T08:46:46.952Z</time>
      </trkpt>
      <trkpt lat="46.737" lon="-2.00439">
        <ele>4</ele>
        <time>2025-01-22T08:46:47.953Z</time>
      </trkpt>
      <trkpt lat="46.73701" lon="-2.00441">
        <ele>4</ele>
        <time>2025-01-22T08:46:48.952Z</time>
      </trkpt>
      <trkpt lat="46.73703" lon="-2.00443">
        <ele>4</ele>
        <time>2025-01-22T08:46:49.952Z</time>
      </trkpt>
      <trkpt lat="46.73704" lon="-2.00446">
        <ele>4</ele>
        <time>2025-01-22T08:46:50.953Z</time>
      </trkpt>
      <trkpt lat="46.73706" lon="-2.00448">
        <ele>4</ele>
        <time>2025-01-22T08:46:51.953Z</time>
      </trkpt>
      <trkpt lat="46.73707" lon="-2.00451">
        <ele>3.9</ele>
        <time>2025-01-22T08:46:52.953Z</time>
      </trkpt>
      <trkpt lat="46.73708" lon="-2.00453">
        <ele>3.9</ele>
        <time>2025-01-22T08:46:53.952Z</time>
      </trkpt>
      <trkpt lat="46.73709" lon="-2.00456">
        <ele>3.8</ele>
        <time>2025-01-22T08:46:54.952Z</time>
      </trkpt>
      <trkpt lat="46.73711" lon="-2.00458">
        <ele>3.8</ele>
        <time>2025-01-22T08:46:55.952Z</time>
      </trkpt>
      <trkpt lat="46.73712" lon="-2.00461">
        <ele>3.7</ele>
        <time>2025-01-22T08:46:56.952Z</time>
      </trkpt>
      <trkpt lat="46.73714" lon="-2.00463">
        <ele>3.7</ele>
        <time>2025-01-22T08:46:57.953Z</time>
      </trkpt>
      <trkpt lat="46.73715" lon="-2.00466">
        <ele>3.7</ele>
        <time>2025-01-22T08:46:58.953Z</time>
      </trkpt>
      <trkpt lat="46.73717" lon="-2.00468">
        <ele>3.7</ele>
        <time>2025-01-22T08:46:59.952Z</time>
      </trkpt>
      <trkpt lat="46.73718" lon="-2.00472">
        <ele>3.6</ele>
        <time>2025-01-22T08:47:00.953Z</time>
      </trkpt>
      <trkpt lat="46.7372" lon="-2.00474">
        <ele>3.6</ele>
        <time>2025-01-22T08:47:01.953Z</time>
      </trkpt>
      <trkpt lat="46.73721" lon="-2.00477">
        <ele>3.6</ele>
        <time>2025-01-22T08:47:02.952Z</time>
      </trkpt>
      <trkpt lat="46.73723" lon="-2.00479">
        <ele>3.6</ele>
        <time>2025-01-22T08:47:03.953Z</time>
      </trkpt>
      <trkpt lat="46.73725" lon="-2.00482">
        <ele>3.6</ele>
        <time>2025-01-22T08:47:04.952Z</time>
      </trkpt>
      <trkpt lat="46.73726" lon="-2.00484">
        <ele>3.6</ele>
        <time>2025-01-22T08:47:05.953Z</time>
      </trkpt>
      <trkpt lat="46.73728" lon="-2.00486">
        <ele>3.6</ele>
        <time>2025-01-22T08:47:06.953Z</time>
      </trkpt>
      <trkpt lat="46.7373" lon="-2.00488">
        <ele>3.6</ele>
        <time>2025-01-22T08:47:07.953Z</time>
      </trkpt>
      <trkpt lat="46.73731" lon="-2.0049">
        <ele>3.6</ele>
        <time>2025-01-22T08:47:08.953Z</time>
      </trkpt>
      <trkpt lat="46.73733" lon="-2.00492">
        <ele>3.5</ele>
        <time>2025-01-22T08:47:09.953Z</time>
      </trkpt>
      <trkpt lat="46.73735" lon="-2.00494">
        <ele>3.6</ele>
        <time>2025-01-22T08:47:10.952Z</time>
      </trkpt>
      <trkpt lat="46.73737" lon="-2.00495">
        <ele>3.5</ele>
        <time>2025-01-22T08:47:11.952Z</time>
      </trkpt>
      <trkpt lat="46.73738" lon="-2.00498">
        <ele>3.4</ele>
        <time>2025-01-22T08:47:12.952Z</time>
      </trkpt>
      <trkpt lat="46.7374" lon="-2.005">
        <ele>3.3</ele>
        <time>2025-01-22T08:47:13.952Z</time>
      </trkpt>
      <trkpt lat="46.73741" lon="-2.00503">
        <ele>3.3</ele>
        <time>2025-01-22T08:47:14.953Z</time>
      </trkpt>
      <trkpt lat="46.73743" lon="-2.00505">
        <ele>3.4</ele>
        <time>2025-01-22T08:47:15.952Z</time>
      </trkpt>
      <trkpt lat="46.73744" lon="-2.00507">
        <ele>3.4</ele>
        <time>2025-01-22T08:47:16.953Z</time>
      </trkpt>
      <trkpt lat="46.73746" lon="-2.00508">
        <ele>3.5</ele>
        <time>2025-01-22T08:47:17.952Z</time>
      </trkpt>
      <trkpt lat="46.73747" lon="-2.0051">
        <ele>3.5</ele>
        <time>2025-01-22T08:47:18.952Z</time>
      </trkpt>
      <trkpt lat="46.73749" lon="-2.00512">
        <ele>3.5</ele>
        <time>2025-01-22T08:47:19.953Z</time>
      </trkpt>
      <trkpt lat="46.7375" lon="-2.00514">
        <ele>3.5</ele>
        <time>2025-01-22T08:47:20.952Z</time>
      </trkpt>
      <trkpt lat="46.73752" lon="-2.00515">
        <ele>3.7</ele>
        <time>2025-01-22T08:47:21.952Z</time>
      </trkpt>
      <trkpt lat="46.73753" lon="-2.00517">
        <ele>3.8</ele>
        <time>2025-01-22T08:47:22.952Z</time>
      </trkpt>
      <trkpt lat="46.73755" lon="-2.00519">
        <ele>3.8</ele>
        <time>2025-01-22T08:47:23.953Z</time>
      </trkpt>
      <trkpt lat="46.73756" lon="-2.00521">
        <ele>3.9</ele>
        <time>2025-01-22T08:47:24.953Z</time>
      </trkpt>
      <trkpt lat="46.73758" lon="-2.00523">
        <ele>3.9</ele>
        <time>2025-01-22T08:47:25.953Z</time>
      </trkpt>
      <trkpt lat="46.7376" lon="-2.00525">
        <ele>3.9</ele>
        <time>2025-01-22T08:47:26.953Z</time>
      </trkpt>
      <trkpt lat="46.73761" lon="-2.00528">
        <ele>3.8</ele>
        <time>2025-01-22T08:47:27.953Z</time>
      </trkpt>
      <trkpt lat="46.73763" lon="-2.0053">
        <ele>3.8</ele>
        <time>2025-01-22T08:47:28.952Z</time>
      </trkpt>
      <trkpt lat="46.73764" lon="-2.00532">
        <ele>3.7</ele>
        <time>2025-01-22T08:47:29.952Z</time>
      </trkpt>
      <trkpt lat="46.73765" lon="-2.00535">
        <ele>3.6</ele>
        <time>2025-01-22T08:47:30.952Z</time>
      </trkpt>
      <trkpt lat="46.73767" lon="-2.00537">
        <ele>3.5</ele>
        <time>2025-01-22T08:47:31.952Z</time>
      </trkpt>
      <trkpt lat="46.73768" lon="-2.00539">
        <ele>3.5</ele>
        <time>2025-01-22T08:47:32.953Z</time>
      </trkpt>
      <trkpt lat="46.7377" lon="-2.00542">
        <ele>3.4</ele>
        <time>2025-01-22T08:47:33.953Z</time>
      </trkpt>
      <trkpt lat="46.73772" lon="-2.00544">
        <ele>3.4</ele>
        <time>2025-01-22T08:47:34.952Z</time>
      </trkpt>
      <trkpt lat="46.73773" lon="-2.00546">
        <ele>3.4</ele>
        <time>2025-01-22T08:47:35.952Z</time>
      </trkpt>
      <trkpt lat="46.73775" lon="-2.00548">
        <ele>3.4</ele>
        <time>2025-01-22T08:47:36.953Z</time>
      </trkpt>
      <trkpt lat="46.73776" lon="-2.00549">
        <ele>3.3</ele>
        <time>2025-01-22T08:47:37.953Z</time>
      </trkpt>
      <trkpt lat="46.73778" lon="-2.00552">
        <ele>3.3</ele>
        <time>2025-01-22T08:47:38.953Z</time>
      </trkpt>
      <trkpt lat="46.7378" lon="-2.00553">
        <ele>3.4</ele>
        <time>2025-01-22T08:47:39.953Z</time>
      </trkpt>
      <trkpt lat="46.73782" lon="-2.00556">
        <ele>3.4</ele>
        <time>2025-01-22T08:47:40.953Z</time>
      </trkpt>
      <trkpt lat="46.73783" lon="-2.00558">
        <ele>3.4</ele>
        <time>2025-01-22T08:47:41.952Z</time>
      </trkpt>
      <trkpt lat="46.73784" lon="-2.0056">
        <ele>3.4</ele>
        <time>2025-01-22T08:47:42.952Z</time>
      </trkpt>
      <trkpt lat="46.73786" lon="-2.00562">
        <ele>3.4</ele>
        <time>2025-01-22T08:47:43.952Z</time>
      </trkpt>
      <trkpt lat="46.73787" lon="-2.00565">
        <ele>3.4</ele>
        <time>2025-01-22T08:47:44.952Z</time>
      </trkpt>
      <trkpt lat="46.73789" lon="-2.00567">
        <ele>3.4</ele>
        <time>2025-01-22T08:47:45.953Z</time>
      </trkpt>
      <trkpt lat="46.7379" lon="-2.00569">
        <ele>3.4</ele>
        <time>2025-01-22T08:47:46.953Z</time>
      </trkpt>
      <trkpt lat="46.73792" lon="-2.00571">
        <ele>3.4</ele>
        <time>2025-01-22T08:47:47.953Z</time>
      </trkpt>
      <trkpt lat="46.73793" lon="-2.00572">
        <ele>3.5</ele>
        <time>2025-01-22T08:47:48.953Z</time>
      </trkpt>
      <trkpt lat="46.73795" lon="-2.00574">
        <ele>3.5</ele>
        <time>2025-01-22T08:47:49.952Z</time>
      </trkpt>
      <trkpt lat="46.73796" lon="-2.00576">
        <ele>3.5</ele>
        <time>2025-01-22T08:47:50.952Z</time>
      </trkpt>
      <trkpt lat="46.73798" lon="-2.00578">
        <ele>3.5</ele>
        <time>2025-01-22T08:47:51.952Z</time>
      </trkpt>
      <trkpt lat="46.73799" lon="-2.00581">
        <ele>3.5</ele>
        <time>2025-01-22T08:47:52.952Z</time>
      </trkpt>
      <trkpt lat="46.73801" lon="-2.00583">
        <ele>3.5</ele>
        <time>2025-01-22T08:47:53.952Z</time>
      </trkpt>
      <trkpt lat="46.73802" lon="-2.00586">
        <ele>3.5</ele>
        <time>2025-01-22T08:47:54.953Z</time>
      </trkpt>
      <trkpt lat="46.73804" lon="-2.00588">
        <ele>3.5</ele>
        <time>2025-01-22T08:47:55.952Z</time>
      </trkpt>
      <trkpt lat="46.73805" lon="-2.0059">
        <ele>3.5</ele>
        <time>2025-01-22T08:47:56.953Z</time>
      </trkpt>
      <trkpt lat="46.73807" lon="-2.00593">
        <ele>3.5</ele>
        <time>2025-01-22T08:47:57.952Z</time>
      </trkpt>
      <trkpt lat="46.73809" lon="-2.00595">
        <ele>3.5</ele>
        <time>2025-01-22T08:47:58.953Z</time>
      </trkpt>
      <trkpt lat="46.73811" lon="-2.00597">
        <ele>3.6</ele>
        <time>2025-01-22T08:47:59.952Z</time>
      </trkpt>
      <trkpt lat="46.73813" lon="-2.00598">
        <ele>3.7</ele>
        <time>2025-01-22T08:48:00.952Z</time>
      </trkpt>
      <trkpt lat="46.73814" lon="-2.00599">
        <ele>3.7</ele>
        <time>2025-01-22T08:48:01.952Z</time>
      </trkpt>
      <trkpt lat="46.73815" lon="-2.006">
        <ele>3.8</ele>
        <time>2025-01-22T08:48:02.952Z</time>
      </trkpt>
      <trkpt lat="46.73817" lon="-2.00601">
        <ele>3.8</ele>
        <time>2025-01-22T08:48:03.953Z</time>
      </trkpt>
      <trkpt lat="46.73818" lon="-2.00603">
        <ele>3.8</ele>
        <time>2025-01-22T08:48:04.952Z</time>
      </trkpt>
      <trkpt lat="46.7382" lon="-2.00605">
        <ele>3.7</ele>
        <time>2025-01-22T08:48:05.952Z</time>
      </trkpt>
      <trkpt lat="46.73821" lon="-2.00608">
        <ele>3.5</ele>
        <time>2025-01-22T08:48:06.952Z</time>
      </trkpt>
      <trkpt lat="46.73823" lon="-2.0061">
        <ele>3.3</ele>
        <time>2025-01-22T08:48:07.953Z</time>
      </trkpt>
      <trkpt lat="46.73824" lon="-2.00613">
        <ele>3.3</ele>
        <time>2025-01-22T08:48:08.953Z</time>
      </trkpt>
      <trkpt lat="46.73826" lon="-2.00614">
        <ele>3.3</ele>
        <time>2025-01-22T08:48:09.953Z</time>
      </trkpt>
      <trkpt lat="46.73827" lon="-2.00616">
        <ele>3.3</ele>
        <time>2025-01-22T08:48:10.953Z</time>
      </trkpt>
      <trkpt lat="46.73829" lon="-2.00618">
        <ele>3.3</ele>
        <time>2025-01-22T08:48:11.953Z</time>
      </trkpt>
      <trkpt lat="46.73831" lon="-2.0062">
        <ele>3.2</ele>
        <time>2025-01-22T08:48:12.952Z</time>
      </trkpt>
      <trkpt lat="46.73832" lon="-2.00623">
        <ele>3.1</ele>
        <time>2025-01-22T08:48:13.952Z</time>
      </trkpt>
      <trkpt lat="46.73834" lon="-2.00626">
        <ele>3</ele>
        <time>2025-01-22T08:48:14.952Z</time>
      </trkpt>
      <trkpt lat="46.73835" lon="-2.00628">
        <ele>3</ele>
        <time>2025-01-22T08:48:15.953Z</time>
      </trkpt>
      <trkpt lat="46.73838" lon="-2.00631">
        <ele>3.2</ele>
        <time>2025-01-22T08:48:16.953Z</time>
      </trkpt>
      <trkpt lat="46.73839" lon="-2.00633">
        <ele>3.2</ele>
        <time>2025-01-22T08:48:17.953Z</time>
      </trkpt>
      <trkpt lat="46.73841" lon="-2.00634">
        <ele>3.2</ele>
        <time>2025-01-22T08:48:18.952Z</time>
      </trkpt>
      <trkpt lat="46.73842" lon="-2.00636">
        <ele>3.2</ele>
        <time>2025-01-22T08:48:19.953Z</time>
      </trkpt>
      <trkpt lat="46.73844" lon="-2.00639">
        <ele>3.1</ele>
        <time>2025-01-22T08:48:20.952Z</time>
      </trkpt>
      <trkpt lat="46.73845" lon="-2.00641">
        <ele>3.1</ele>
        <time>2025-01-22T08:48:21.952Z</time>
      </trkpt>
      <trkpt lat="46.73846" lon="-2.00644">
        <ele>3.1</ele>
        <time>2025-01-22T08:48:22.952Z</time>
      </trkpt>
      <trkpt lat="46.73848" lon="-2.00646">
        <ele>3.2</ele>
        <time>2025-01-22T08:48:23.953Z</time>
      </trkpt>
      <trkpt lat="46.73849" lon="-2.00648">
        <ele>3.2</ele>
        <time>2025-01-22T08:48:24.953Z</time>
      </trkpt>
      <trkpt lat="46.7385" lon="-2.0065">
        <ele>3.2</ele>
        <time>2025-01-22T08:48:25.953Z</time>
      </trkpt>
      <trkpt lat="46.73852" lon="-2.00653">
        <ele>3.2</ele>
        <time>2025-01-22T08:48:26.953Z</time>
      </trkpt>
      <trkpt lat="46.73853" lon="-2.00655">
        <ele>3.1</ele>
        <time>2025-01-22T08:48:27.952Z</time>
      </trkpt>
      <trkpt lat="46.73855" lon="-2.00658">
        <ele>3.1</ele>
        <time>2025-01-22T08:48:28.953Z</time>
      </trkpt>
      <trkpt lat="46.73857" lon="-2.0066">
        <ele>3.1</ele>
        <time>2025-01-22T08:48:29.952Z</time>
      </trkpt>
      <trkpt lat="46.73858" lon="-2.00662">
        <ele>3.1</ele>
        <time>2025-01-22T08:48:30.953Z</time>
      </trkpt>
      <trkpt lat="46.7386" lon="-2.00664">
        <ele>3.1</ele>
        <time>2025-01-22T08:48:31.952Z</time>
      </trkpt>
      <trkpt lat="46.73861" lon="-2.00666">
        <ele>3.1</ele>
        <time>2025-01-22T08:48:32.952Z</time>
      </trkpt>
      <trkpt lat="46.73863" lon="-2.00667">
        <ele>3.3</ele>
        <time>2025-01-22T08:48:33.952Z</time>
      </trkpt>
      <trkpt lat="46.73865" lon="-2.0067">
        <ele>3.3</ele>
        <time>2025-01-22T08:48:34.953Z</time>
      </trkpt>
      <trkpt lat="46.73867" lon="-2.00672">
        <ele>3.4</ele>
        <time>2025-01-22T08:48:35.952Z</time>
      </trkpt>
      <trkpt lat="46.73868" lon="-2.00674">
        <ele>3.4</ele>
        <time>2025-01-22T08:48:36.953Z</time>
      </trkpt>
      <trkpt lat="46.7387" lon="-2.00677">
        <ele>3.4</ele>
        <time>2025-01-22T08:48:37.953Z</time>
      </trkpt>
      <trkpt lat="46.73871" lon="-2.00679">
        <ele>3.4</ele>
        <time>2025-01-22T08:48:38.953Z</time>
      </trkpt>
      <trkpt lat="46.73873" lon="-2.00682">
        <ele>3.4</ele>
        <time>2025-01-22T08:48:39.952Z</time>
      </trkpt>
      <trkpt lat="46.73874" lon="-2.00685">
        <ele>3.2</ele>
        <time>2025-01-22T08:48:40.953Z</time>
      </trkpt>
      <trkpt lat="46.73875" lon="-2.00687">
        <ele>3.3</ele>
        <time>2025-01-22T08:48:41.952Z</time>
      </trkpt>
      <trkpt lat="46.73877" lon="-2.00688">
        <ele>3.3</ele>
        <time>2025-01-22T08:48:42.952Z</time>
      </trkpt>
      <trkpt lat="46.73879" lon="-2.0069">
        <ele>3.3</ele>
        <time>2025-01-22T08:48:43.953Z</time>
      </trkpt>
      <trkpt lat="46.7388" lon="-2.00693">
        <ele>3.2</ele>
        <time>2025-01-22T08:48:44.953Z</time>
      </trkpt>
      <trkpt lat="46.73882" lon="-2.00695">
        <ele>3.2</ele>
        <time>2025-01-22T08:48:45.953Z</time>
      </trkpt>
      <trkpt lat="46.73883" lon="-2.00697">
        <ele>3.2</ele>
        <time>2025-01-22T08:48:46.953Z</time>
      </trkpt>
      <trkpt lat="46.73885" lon="-2.00699">
        <ele>3.3</ele>
        <time>2025-01-22T08:48:47.953Z</time>
      </trkpt>
      <trkpt lat="46.73886" lon="-2.00701">
        <ele>3.3</ele>
        <time>2025-01-22T08:48:48.952Z</time>
      </trkpt>
      <trkpt lat="46.73888" lon="-2.00703">
        <ele>3.3</ele>
        <time>2025-01-22T08:48:49.952Z</time>
      </trkpt>
      <trkpt lat="46.73889" lon="-2.00705">
        <ele>3.3</ele>
        <time>2025-01-22T08:48:50.952Z</time>
      </trkpt>
      <trkpt lat="46.73891" lon="-2.00707">
        <ele>3.3</ele>
        <time>2025-01-22T08:48:51.953Z</time>
      </trkpt>
      <trkpt lat="46.73893" lon="-2.0071">
        <ele>3.4</ele>
        <time>2025-01-22T08:48:52.953Z</time>
      </trkpt>
      <trkpt lat="46.73894" lon="-2.00712">
        <ele>3.3</ele>
        <time>2025-01-22T08:48:53.952Z</time>
      </trkpt>
      <trkpt lat="46.73896" lon="-2.00715">
        <ele>3.2</ele>
        <time>2025-01-22T08:48:54.953Z</time>
      </trkpt>
      <trkpt lat="46.73897" lon="-2.00717">
        <ele>3.2</ele>
        <time>2025-01-22T08:48:55.952Z</time>
      </trkpt>
      <trkpt lat="46.73899" lon="-2.00719">
        <ele>3.1</ele>
        <time>2025-01-22T08:48:56.953Z</time>
      </trkpt>
      <trkpt lat="46.739" lon="-2.00721">
        <ele>2.9</ele>
        <time>2025-01-22T08:48:57.953Z</time>
      </trkpt>
      <trkpt lat="46.73902" lon="-2.00723">
        <ele>2.9</ele>
        <time>2025-01-22T08:48:58.953Z</time>
      </trkpt>
      <trkpt lat="46.73904" lon="-2.00725">
        <ele>3</ele>
        <time>2025-01-22T08:48:59.952Z</time>
      </trkpt>
      <trkpt lat="46.73906" lon="-2.00727">
        <ele>3</ele>
        <time>2025-01-22T08:49:00.953Z</time>
      </trkpt>
      <trkpt lat="46.73908" lon="-2.00729">
        <ele>3</ele>
        <time>2025-01-22T08:49:01.952Z</time>
      </trkpt>
      <trkpt lat="46.73909" lon="-2.0073">
        <ele>3</ele>
        <time>2025-01-22T08:49:02.952Z</time>
      </trkpt>
      <trkpt lat="46.73911" lon="-2.00732">
        <ele>3</ele>
        <time>2025-01-22T08:49:03.953Z</time>
      </trkpt>
      <trkpt lat="46.73912" lon="-2.00734">
        <ele>3</ele>
        <time>2025-01-22T08:49:04.952Z</time>
      </trkpt>
      <trkpt lat="46.73914" lon="-2.00736">
        <ele>2.9</ele>
        <time>2025-01-22T08:49:05.953Z</time>
      </trkpt>
      <trkpt lat="46.73915" lon="-2.00737">
        <ele>2.9</ele>
        <time>2025-01-22T08:49:06.953Z</time>
      </trkpt>
      <trkpt lat="46.73917" lon="-2.00739">
        <ele>2.9</ele>
        <time>2025-01-22T08:49:07.953Z</time>
      </trkpt>
      <trkpt lat="46.73919" lon="-2.00741">
        <ele>3</ele>
        <time>2025-01-22T08:49:08.953Z</time>
      </trkpt>
      <trkpt lat="46.73921" lon="-2.00743">
        <ele>3</ele>
        <time>2025-01-22T08:49:09.952Z</time>
      </trkpt>
      <trkpt lat="46.73922" lon="-2.00745">
        <ele>3</ele>
        <time>2025-01-22T08:49:10.952Z</time>
      </trkpt>
      <trkpt lat="46.73924" lon="-2.00747">
        <ele>3</ele>
        <time>2025-01-22T08:49:11.952Z</time>
      </trkpt>
      <trkpt lat="46.73925" lon="-2.0075">
        <ele>2.9</ele>
        <time>2025-01-22T08:49:12.952Z</time>
      </trkpt>
      <trkpt lat="46.73927" lon="-2.00752">
        <ele>3</ele>
        <time>2025-01-22T08:49:13.953Z</time>
      </trkpt>
      <trkpt lat="46.73928" lon="-2.00754">
        <ele>3</ele>
        <time>2025-01-22T08:49:14.953Z</time>
      </trkpt>
      <trkpt lat="46.7393" lon="-2.00757">
        <ele>3</ele>
        <time>2025-01-22T08:49:15.953Z</time>
      </trkpt>
      <trkpt lat="46.73931" lon="-2.00759">
        <ele>3</ele>
        <time>2025-01-22T08:49:16.953Z</time>
      </trkpt>
      <trkpt lat="46.73933" lon="-2.00761">
        <ele>3.1</ele>
        <time>2025-01-22T08:49:17.953Z</time>
      </trkpt>
      <trkpt lat="46.73934" lon="-2.00764">
        <ele>3.1</ele>
        <time>2025-01-22T08:49:18.953Z</time>
      </trkpt>
      <trkpt lat="46.73935" lon="-2.00766">
        <ele>3.1</ele>
        <time>2025-01-22T08:49:19.952Z</time>
      </trkpt>
      <trkpt lat="46.73937" lon="-2.00768">
        <ele>3</ele>
        <time>2025-01-22T08:49:20.952Z</time>
      </trkpt>
      <trkpt lat="46.73938" lon="-2.0077">
        <ele>3</ele>
        <time>2025-01-22T08:49:21.953Z</time>
      </trkpt>
      <trkpt lat="46.7394" lon="-2.00773">
        <ele>3</ele>
        <time>2025-01-22T08:49:22.953Z</time>
      </trkpt>
      <trkpt lat="46.73942" lon="-2.00775">
        <ele>3</ele>
        <time>2025-01-22T08:49:23.952Z</time>
      </trkpt>
      <trkpt lat="46.73943" lon="-2.00777">
        <ele>3</ele>
        <time>2025-01-22T08:49:24.953Z</time>
      </trkpt>
      <trkpt lat="46.73945" lon="-2.0078">
        <ele>2.9</ele>
        <time>2025-01-22T08:49:25.953Z</time>
      </trkpt>
      <trkpt lat="46.73947" lon="-2.00782">
        <ele>3</ele>
        <time>2025-01-22T08:49:26.953Z</time>
      </trkpt>
      <trkpt lat="46.73948" lon="-2.00784">
        <ele>3</ele>
        <time>2025-01-22T08:49:27.952Z</time>
      </trkpt>
      <trkpt lat="46.73949" lon="-2.00787">
        <ele>2.9</ele>
        <time>2025-01-22T08:49:28.952Z</time>
      </trkpt>
      <trkpt lat="46.73951" lon="-2.0079">
        <ele>2.9</ele>
        <time>2025-01-22T08:49:29.952Z</time>
      </trkpt>
      <trkpt lat="46.73952" lon="-2.00792">
        <ele>2.9</ele>
        <time>2025-01-22T08:49:30.952Z</time>
      </trkpt>
      <trkpt lat="46.73954" lon="-2.00794">
        <ele>3</ele>
        <time>2025-01-22T08:49:31.952Z</time>
      </trkpt>
      <trkpt lat="46.73956" lon="-2.00796">
        <ele>3</ele>
        <time>2025-01-22T08:49:32.953Z</time>
      </trkpt>
      <trkpt lat="46.73957" lon="-2.00798">
        <ele>3</ele>
        <time>2025-01-22T08:49:33.953Z</time>
      </trkpt>
      <trkpt lat="46.73959" lon="-2.00801">
        <ele>3</ele>
        <time>2025-01-22T08:49:34.953Z</time>
      </trkpt>
      <trkpt lat="46.7396" lon="-2.00803">
        <ele>2.9</ele>
        <time>2025-01-22T08:49:35.953Z</time>
      </trkpt>
      <trkpt lat="46.73962" lon="-2.00805">
        <ele>2.9</ele>
        <time>2025-01-22T08:49:36.952Z</time>
      </trkpt>
      <trkpt lat="46.73964" lon="-2.00807">
        <ele>3</ele>
        <time>2025-01-22T08:49:37.952Z</time>
      </trkpt>
      <trkpt lat="46.73965" lon="-2.00809">
        <ele>3.1</ele>
        <time>2025-01-22T08:49:38.952Z</time>
      </trkpt>
      <trkpt lat="46.73967" lon="-2.00811">
        <ele>3.2</ele>
        <time>2025-01-22T08:49:39.952Z</time>
      </trkpt>
      <trkpt lat="46.73969" lon="-2.00813">
        <ele>3.2</ele>
        <time>2025-01-22T08:49:40.952Z</time>
      </trkpt>
      <trkpt lat="46.73971" lon="-2.00815">
        <ele>3.2</ele>
        <time>2025-01-22T08:49:41.952Z</time>
      </trkpt>
      <trkpt lat="46.73973" lon="-2.00818">
        <ele>3.2</ele>
        <time>2025-01-22T08:49:42.952Z</time>
      </trkpt>
      <trkpt lat="46.73974" lon="-2.0082">
        <ele>3.2</ele>
        <time>2025-01-22T08:49:43.952Z</time>
      </trkpt>
      <trkpt lat="46.73976" lon="-2.00823">
        <ele>3.2</ele>
        <time>2025-01-22T08:49:44.953Z</time>
      </trkpt>
      <trkpt lat="46.73978" lon="-2.00825">
        <ele>3.2</ele>
        <time>2025-01-22T08:49:45.953Z</time>
      </trkpt>
      <trkpt lat="46.7398" lon="-2.00827">
        <ele>3.2</ele>
        <time>2025-01-22T08:49:46.953Z</time>
      </trkpt>
      <trkpt lat="46.73981" lon="-2.00829">
        <ele>3.1</ele>
        <time>2025-01-22T08:49:47.953Z</time>
      </trkpt>
      <trkpt lat="46.73983" lon="-2.00832">
        <ele>3</ele>
        <time>2025-01-22T08:49:48.952Z</time>
      </trkpt>
      <trkpt lat="46.73985" lon="-2.00835">
        <ele>2.8</ele>
        <time>2025-01-22T08:49:49.953Z</time>
      </trkpt>
      <trkpt lat="46.73986" lon="-2.00837">
        <ele>2.9</ele>
        <time>2025-01-22T08:49:50.952Z</time>
      </trkpt>
      <trkpt lat="46.73988" lon="-2.00839">
        <ele>2.9</ele>
        <time>2025-01-22T08:49:51.952Z</time>
      </trkpt>
      <trkpt lat="46.7399" lon="-2.00841">
        <ele>3</ele>
        <time>2025-01-22T08:49:52.953Z</time>
      </trkpt>
      <trkpt lat="46.73992" lon="-2.00843">
        <ele>3.1</ele>
        <time>2025-01-22T08:49:53.953Z</time>
      </trkpt>
      <trkpt lat="46.73994" lon="-2.00845">
        <ele>3.1</ele>
        <time>2025-01-22T08:49:54.952Z</time>
      </trkpt>
      <trkpt lat="46.73995" lon="-2.00847">
        <ele>3.2</ele>
        <time>2025-01-22T08:49:55.952Z</time>
      </trkpt>
      <trkpt lat="46.73997" lon="-2.00849">
        <ele>3.2</ele>
        <time>2025-01-22T08:49:56.952Z</time>
      </trkpt>
      <trkpt lat="46.73999" lon="-2.00851">
        <ele>3.3</ele>
        <time>2025-01-22T08:49:57.952Z</time>
      </trkpt>
      <trkpt lat="46.74001" lon="-2.00853">
        <ele>3.4</ele>
        <time>2025-01-22T08:49:58.953Z</time>
      </trkpt>
      <trkpt lat="46.74003" lon="-2.00854">
        <ele>3.5</ele>
        <time>2025-01-22T08:49:59.952Z</time>
      </trkpt>
      <trkpt lat="46.74004" lon="-2.00855">
        <ele>3.6</ele>
        <time>2025-01-22T08:50:00.953Z</time>
      </trkpt>
      <trkpt lat="46.74006" lon="-2.00857">
        <ele>3.7</ele>
        <time>2025-01-22T08:50:01.953Z</time>
      </trkpt>
      <trkpt lat="46.74008" lon="-2.00858">
        <ele>3.8</ele>
        <time>2025-01-22T08:50:02.953Z</time>
      </trkpt>
      <trkpt lat="46.7401" lon="-2.0086">
        <ele>3.8</ele>
        <time>2025-01-22T08:50:03.952Z</time>
      </trkpt>
      <trkpt lat="46.74011" lon="-2.00861">
        <ele>3.8</ele>
        <time>2025-01-22T08:50:04.952Z</time>
      </trkpt>
      <trkpt lat="46.74013" lon="-2.00862">
        <ele>3.9</ele>
        <time>2025-01-22T08:50:05.953Z</time>
      </trkpt>
      <trkpt lat="46.74015" lon="-2.00863">
        <ele>3.9</ele>
        <time>2025-01-22T08:50:06.952Z</time>
      </trkpt>
      <trkpt lat="46.74016" lon="-2.00864">
        <ele>3.9</ele>
        <time>2025-01-22T08:50:07.953Z</time>
      </trkpt>
      <trkpt lat="46.74018" lon="-2.00865">
        <ele>4</ele>
        <time>2025-01-22T08:50:08.953Z</time>
      </trkpt>
      <trkpt lat="46.74019" lon="-2.00866">
        <ele>4</ele>
        <time>2025-01-22T08:50:09.952Z</time>
      </trkpt>
      <trkpt lat="46.74021" lon="-2.00866">
        <ele>4.1</ele>
        <time>2025-01-22T08:50:10.952Z</time>
      </trkpt>
      <trkpt lat="46.74022" lon="-2.00865">
        <ele>4.3</ele>
        <time>2025-01-22T08:50:11.953Z</time>
      </trkpt>
      <trkpt lat="46.74023" lon="-2.00864">
        <ele>4.4</ele>
        <time>2025-01-22T08:50:12.952Z</time>
      </trkpt>
      <trkpt lat="46.74023" lon="-2.00862">
        <ele>4.6</ele>
        <time>2025-01-22T08:50:13.952Z</time>
      </trkpt>
      <trkpt lat="46.74023" lon="-2.0086">
        <ele>4.8</ele>
        <time>2025-01-22T08:50:14.953Z</time>
      </trkpt>
      <trkpt lat="46.74022" lon="-2.00858">
        <ele>5</ele>
        <time>2025-01-22T08:50:15.952Z</time>
      </trkpt>
      <trkpt lat="46.74022" lon="-2.00857">
        <ele>5.3</ele>
        <time>2025-01-22T08:50:16.953Z</time>
      </trkpt>
      <trkpt lat="46.74021" lon="-2.00855">
        <ele>5.5</ele>
        <time>2025-01-22T08:50:17.953Z</time>
      </trkpt>
      <trkpt lat="46.74021" lon="-2.00853">
        <ele>5.6</ele>
        <time>2025-01-22T08:50:18.952Z</time>
      </trkpt>
      <trkpt lat="46.7402" lon="-2.00852">
        <ele>5.8</ele>
        <time>2025-01-22T08:50:19.952Z</time>
      </trkpt>
      <trkpt lat="46.7402" lon="-2.0085">
        <ele>6</ele>
        <time>2025-01-22T08:50:20.953Z</time>
      </trkpt>
      <trkpt lat="46.74019" lon="-2.00848">
        <ele>6.2</ele>
        <time>2025-01-22T08:50:21.952Z</time>
      </trkpt>
      <trkpt lat="46.74018" lon="-2.00846">
        <ele>6.3</ele>
        <time>2025-01-22T08:50:22.952Z</time>
      </trkpt>
      <trkpt lat="46.74018" lon="-2.00845">
        <ele>6.4</ele>
        <time>2025-01-22T08:50:23.952Z</time>
      </trkpt>
      <trkpt lat="46.74017" lon="-2.00843">
        <ele>6.4</ele>
        <time>2025-01-22T08:50:24.952Z</time>
      </trkpt>
      <trkpt lat="46.74017" lon="-2.00842">
        <ele>6.5</ele>
        <time>2025-01-22T08:50:25.953Z</time>
      </trkpt>
      <trkpt lat="46.74016" lon="-2.00841">
        <ele>6.6</ele>
        <time>2025-01-22T08:50:26.953Z</time>
      </trkpt>
      <trkpt lat="46.74016" lon="-2.0084">
        <ele>6.7</ele>
        <time>2025-01-22T08:50:27.953Z</time>
      </trkpt>
      <trkpt lat="46.74016" lon="-2.00839">
        <ele>6.7</ele>
        <time>2025-01-22T08:50:28.952Z</time>
      </trkpt>
      <trkpt lat="46.74016" lon="-2.00839">
        <ele>6.7</ele>
        <time>2025-01-22T08:50:29.952Z</time>
      </trkpt>
      <trkpt lat="46.74016" lon="-2.00839">
        <ele>6.7</ele>
        <time>2025-01-22T08:50:30.953Z</time>
      </trkpt>
      <trkpt lat="46.74016" lon="-2.00839">
        <ele>6.7</ele>
        <time>2025-01-22T08:50:31.952Z</time>
      </trkpt>
      <trkpt lat="46.74015" lon="-2.00838">
        <ele>6.7</ele>
        <time>2025-01-22T08:50:32.952Z</time>
      </trkpt>
      <trkpt lat="46.74014" lon="-2.00837">
        <ele>6.6</ele>
        <time>2025-01-22T08:50:33.952Z</time>
      </trkpt>
      <trkpt lat="46.74013" lon="-2.00837">
        <ele>6.5</ele>
        <time>2025-01-22T08:50:34.953Z</time>
      </trkpt>
      <trkpt lat="46.74012" lon="-2.00836">
        <ele>6.4</ele>
        <time>2025-01-22T08:50:35.953Z</time>
      </trkpt>
      <trkpt lat="46.74012" lon="-2.00835">
        <ele>6.4</ele>
        <time>2025-01-22T08:50:36.953Z</time>
      </trkpt>
      <trkpt lat="46.74011" lon="-2.00833">
        <ele>6.4</ele>
        <time>2025-01-22T08:50:37.953Z</time>
      </trkpt>
      <trkpt lat="46.7401" lon="-2.00832">
        <ele>6.3</ele>
        <time>2025-01-22T08:50:38.952Z</time>
      </trkpt>
      <trkpt lat="46.74009" lon="-2.0083">
        <ele>6.3</ele>
        <time>2025-01-22T08:50:39.952Z</time>
      </trkpt>
      <trkpt lat="46.74008" lon="-2.00828">
        <ele>6.3</ele>
        <time>2025-01-22T08:50:40.952Z</time>
      </trkpt>
      <trkpt lat="46.74008" lon="-2.00827">
        <ele>6.3</ele>
        <time>2025-01-22T08:50:41.952Z</time>
      </trkpt>
      <trkpt lat="46.74007" lon="-2.00825">
        <ele>6.4</ele>
        <time>2025-01-22T08:50:42.953Z</time>
      </trkpt>
      <trkpt lat="46.74007" lon="-2.00824">
        <ele>6.5</ele>
        <time>2025-01-22T08:50:43.953Z</time>
      </trkpt>
      <trkpt lat="46.74006" lon="-2.00822">
        <ele>6.6</ele>
        <time>2025-01-22T08:50:44.953Z</time>
      </trkpt>
      <trkpt lat="46.74005" lon="-2.00821">
        <ele>6.7</ele>
        <time>2025-01-22T08:50:45.953Z</time>
      </trkpt>
      <trkpt lat="46.74004" lon="-2.00819">
        <ele>6.8</ele>
        <time>2025-01-22T08:50:46.953Z</time>
      </trkpt>
      <trkpt lat="46.74004" lon="-2.00818">
        <ele>7</ele>
        <time>2025-01-22T08:50:47.952Z</time>
      </trkpt>
      <trkpt lat="46.74003" lon="-2.00816">
        <ele>7.3</ele>
        <time>2025-01-22T08:50:48.952Z</time>
      </trkpt>
      <trkpt lat="46.74002" lon="-2.00814">
        <ele>7.5</ele>
        <time>2025-01-22T08:50:49.953Z</time>
      </trkpt>
      <trkpt lat="46.74001" lon="-2.00812">
        <ele>7.8</ele>
        <time>2025-01-22T08:50:50.952Z</time>
      </trkpt>
      <trkpt lat="46.74" lon="-2.00811">
        <ele>8</ele>
        <time>2025-01-22T08:50:51.952Z</time>
      </trkpt>
      <trkpt lat="46.74" lon="-2.0081">
        <ele>8.2</ele>
        <time>2025-01-22T08:50:52.952Z</time>
      </trkpt>
      <trkpt lat="46.73999" lon="-2.00809">
        <ele>8.3</ele>
        <time>2025-01-22T08:50:53.952Z</time>
      </trkpt>
      <trkpt lat="46.73998" lon="-2.00808">
        <ele>8.3</ele>
        <time>2025-01-22T08:50:54.952Z</time>
      </trkpt>
      <trkpt lat="46.73997" lon="-2.00807">
        <ele>8.3</ele>
        <time>2025-01-22T08:50:55.953Z</time>
      </trkpt>
      <trkpt lat="46.73996" lon="-2.00805">
        <ele>8.3</ele>
        <time>2025-01-22T08:50:56.953Z</time>
      </trkpt>
      <trkpt lat="46.73996" lon="-2.00803">
        <ele>8.2</ele>
        <time>2025-01-22T08:50:57.953Z</time>
      </trkpt>
      <trkpt lat="46.73995" lon="-2.00802">
        <ele>8.1</ele>
        <time>2025-01-22T08:50:58.953Z</time>
      </trkpt>
      <trkpt lat="46.73995" lon="-2.00801">
        <ele>8</ele>
        <time>2025-01-22T08:50:59.952Z</time>
      </trkpt>
      <trkpt lat="46.73994" lon="-2.008">
        <ele>7.9</ele>
        <time>2025-01-22T08:51:00.952Z</time>
      </trkpt>
      <trkpt lat="46.73994" lon="-2.00799">
        <ele>7.9</ele>
        <time>2025-01-22T08:51:01.952Z</time>
      </trkpt>
      <trkpt lat="46.73994" lon="-2.00798">
        <ele>7.8</ele>
        <time>2025-01-22T08:51:02.952Z</time>
      </trkpt>
      <trkpt lat="46.73993" lon="-2.00797">
        <ele>7.7</ele>
        <time>2025-01-22T08:51:03.953Z</time>
      </trkpt>
      <trkpt lat="46.73992" lon="-2.00796">
        <ele>7.7</ele>
        <time>2025-01-22T08:51:04.953Z</time>
      </trkpt>
      <trkpt lat="46.73992" lon="-2.00795">
        <ele>7.6</ele>
        <time>2025-01-22T08:51:05.953Z</time>
      </trkpt>
      <trkpt lat="46.73991" lon="-2.00793">
        <ele>7.5</ele>
        <time>2025-01-22T08:51:06.952Z</time>
      </trkpt>
      <trkpt lat="46.73991" lon="-2.00792">
        <ele>7.5</ele>
        <time>2025-01-22T08:51:07.953Z</time>
      </trkpt>
      <trkpt lat="46.7399" lon="-2.00791">
        <ele>7.5</ele>
        <time>2025-01-22T08:51:08.952Z</time>
      </trkpt>
      <trkpt lat="46.7399" lon="-2.0079">
        <ele>7.4</ele>
        <time>2025-01-22T08:51:09.952Z</time>
      </trkpt>
      <trkpt lat="46.7399" lon="-2.00788">
        <ele>7.4</ele>
        <time>2025-01-22T08:51:10.953Z</time>
      </trkpt>
      <trkpt lat="46.73989" lon="-2.00786">
        <ele>7.5</ele>
        <time>2025-01-22T08:51:11.953Z</time>
      </trkpt>
      <trkpt lat="46.73989" lon="-2.00784">
        <ele>7.5</ele>
        <time>2025-01-22T08:51:12.953Z</time>
      </trkpt>
      <trkpt lat="46.73989" lon="-2.00782">
        <ele>7.5</ele>
        <time>2025-01-22T08:51:13.953Z</time>
      </trkpt>
      <trkpt lat="46.73988" lon="-2.0078">
        <ele>7.5</ele>
        <time>2025-01-22T08:51:14.952Z</time>
      </trkpt>
      <trkpt lat="46.73988" lon="-2.00779">
        <ele>7.5</ele>
        <time>2025-01-22T08:51:15.952Z</time>
      </trkpt>
      <trkpt lat="46.73987" lon="-2.00777">
        <ele>7.5</ele>
        <time>2025-01-22T08:51:16.952Z</time>
      </trkpt>
      <trkpt lat="46.73987" lon="-2.00776">
        <ele>7.5</ele>
        <time>2025-01-22T08:51:17.952Z</time>
      </trkpt>
      <trkpt lat="46.73987" lon="-2.00774">
        <ele>7.4</ele>
        <time>2025-01-22T08:51:18.953Z</time>
      </trkpt>
      <trkpt lat="46.73988" lon="-2.00771">
        <ele>7.4</ele>
        <time>2025-01-22T08:51:19.953Z</time>
      </trkpt>
      <trkpt lat="46.73987" lon="-2.00768">
        <ele>7.3</ele>
        <time>2025-01-22T08:51:20.953Z</time>
      </trkpt>
      <trkpt lat="46.73987" lon="-2.00765">
        <ele>7.2</ele>
        <time>2025-01-22T08:51:21.953Z</time>
      </trkpt>
      <trkpt lat="46.73987" lon="-2.00761">
        <ele>7.1</ele>
        <time>2025-01-22T08:51:22.952Z</time>
      </trkpt>
      <trkpt lat="46.73988" lon="-2.00758">
        <ele>7</ele>
        <time>2025-01-22T08:51:23.952Z</time>
      </trkpt>
      <trkpt lat="46.73988" lon="-2.00754">
        <ele>6.9</ele>
        <time>2025-01-22T08:51:24.952Z</time>
      </trkpt>
      <trkpt lat="46.73988" lon="-2.0075">
        <ele>6.8</ele>
        <time>2025-01-22T08:51:25.952Z</time>
      </trkpt>
      <trkpt lat="46.73987" lon="-2.00746">
        <ele>6.6</ele>
        <time>2025-01-22T08:51:26.953Z</time>
      </trkpt>
      <trkpt lat="46.73987" lon="-2.00743">
        <ele>6.5</ele>
        <time>2025-01-22T08:51:27.953Z</time>
      </trkpt>
      <trkpt lat="46.73987" lon="-2.00739">
        <ele>6.3</ele>
        <time>2025-01-22T08:51:28.953Z</time>
      </trkpt>
      <trkpt lat="46.73987" lon="-2.00735">
        <ele>6.1</ele>
        <time>2025-01-22T08:51:29.953Z</time>
      </trkpt>
      <trkpt lat="46.73987" lon="-2.00731">
        <ele>5.9</ele>
        <time>2025-01-22T08:51:30.953Z</time>
      </trkpt>
      <trkpt lat="46.73987" lon="-2.00728">
        <ele>5.6</ele>
        <time>2025-01-22T08:51:31.952Z</time>
      </trkpt>
      <trkpt lat="46.73987" lon="-2.00724">
        <ele>5.5</ele>
        <time>2025-01-22T08:51:32.953Z</time>
      </trkpt>
      <trkpt lat="46.73987" lon="-2.0072">
        <ele>5.3</ele>
        <time>2025-01-22T08:51:33.952Z</time>
      </trkpt>
      <trkpt lat="46.73988" lon="-2.00716">
        <ele>5.2</ele>
        <time>2025-01-22T08:51:34.952Z</time>
      </trkpt>
      <trkpt lat="46.73987" lon="-2.00713">
        <ele>5.1</ele>
        <time>2025-01-22T08:51:35.953Z</time>
      </trkpt>
      <trkpt lat="46.73987" lon="-2.0071">
        <ele>5</ele>
        <time>2025-01-22T08:51:36.953Z</time>
      </trkpt>
      <trkpt lat="46.73986" lon="-2.00706">
        <ele>4.9</ele>
        <time>2025-01-22T08:51:37.953Z</time>
      </trkpt>
      <trkpt lat="46.73985" lon="-2.00704">
        <ele>4.9</ele>
        <time>2025-01-22T08:51:38.953Z</time>
      </trkpt>
      <trkpt lat="46.73984" lon="-2.00702">
        <ele>4.9</ele>
        <time>2025-01-22T08:51:39.953Z</time>
      </trkpt>
      <trkpt lat="46.73982" lon="-2.007">
        <ele>4.9</ele>
        <time>2025-01-22T08:51:40.952Z</time>
      </trkpt>
      <trkpt lat="46.7398" lon="-2.00699">
        <ele>5</ele>
        <time>2025-01-22T08:51:41.952Z</time>
      </trkpt>
      <trkpt lat="46.73979" lon="-2.00697">
        <ele>4.9</ele>
        <time>2025-01-22T08:51:42.952Z</time>
      </trkpt>
      <trkpt lat="46.73977" lon="-2.00695">
        <ele>4.8</ele>
        <time>2025-01-22T08:51:43.952Z</time>
      </trkpt>
      <trkpt lat="46.73976" lon="-2.00692">
        <ele>4.8</ele>
        <time>2025-01-22T08:51:44.953Z</time>
      </trkpt>
      <trkpt lat="46.73975" lon="-2.00689">
        <ele>4.7</ele>
        <time>2025-01-22T08:51:45.953Z</time>
      </trkpt>
      <trkpt lat="46.73974" lon="-2.00686">
        <ele>4.7</ele>
        <time>2025-01-22T08:51:46.953Z</time>
      </trkpt>
      <trkpt lat="46.73972" lon="-2.00684">
        <ele>4.6</ele>
        <time>2025-01-22T08:51:47.953Z</time>
      </trkpt>
      <trkpt lat="46.73971" lon="-2.00682">
        <ele>4.6</ele>
        <time>2025-01-22T08:51:48.952Z</time>
      </trkpt>
      <trkpt lat="46.73969" lon="-2.0068">
        <ele>4.7</ele>
        <time>2025-01-22T08:51:49.952Z</time>
      </trkpt>
      <trkpt lat="46.73967" lon="-2.00678">
        <ele>4.7</ele>
        <time>2025-01-22T08:51:50.952Z</time>
      </trkpt>
      <trkpt lat="46.73965" lon="-2.00676">
        <ele>4.8</ele>
        <time>2025-01-22T08:51:51.953Z</time>
      </trkpt>
      <trkpt lat="46.73963" lon="-2.00675">
        <ele>4.8</ele>
        <time>2025-01-22T08:51:52.953Z</time>
      </trkpt>
      <trkpt lat="46.73961" lon="-2.00674">
        <ele>4.9</ele>
        <time>2025-01-22T08:51:53.952Z</time>
      </trkpt>
      <trkpt lat="46.73959" lon="-2.00673">
        <ele>4.9</ele>
        <time>2025-01-22T08:51:54.952Z</time>
      </trkpt>
      <trkpt lat="46.73956" lon="-2.00672">
        <ele>5</ele>
        <time>2025-01-22T08:51:55.953Z</time>
      </trkpt>
      <trkpt lat="46.73953" lon="-2.00672">
        <ele>5.1</ele>
        <time>2025-01-22T08:51:56.952Z</time>
      </trkpt>
      <trkpt lat="46.73951" lon="-2.00671">
        <ele>5.1</ele>
        <time>2025-01-22T08:51:57.953Z</time>
      </trkpt>
      <trkpt lat="46.73949" lon="-2.0067">
        <ele>5.1</ele>
        <time>2025-01-22T08:51:58.953Z</time>
      </trkpt>
      <trkpt lat="46.73946" lon="-2.00669">
        <ele>5.2</ele>
        <time>2025-01-22T08:51:59.953Z</time>
      </trkpt>
      <trkpt lat="46.73944" lon="-2.00668">
        <ele>5.1</ele>
        <time>2025-01-22T08:52:00.953Z</time>
      </trkpt>
      <trkpt lat="46.73942" lon="-2.00667">
        <ele>5.2</ele>
        <time>2025-01-22T08:52:01.952Z</time>
      </trkpt>
      <trkpt lat="46.7394" lon="-2.00665">
        <ele>5.3</ele>
        <time>2025-01-22T08:52:02.952Z</time>
      </trkpt>
      <trkpt lat="46.73938" lon="-2.00664">
        <ele>5.4</ele>
        <time>2025-01-22T08:52:03.953Z</time>
      </trkpt>
      <trkpt lat="46.73937" lon="-2.00663">
        <ele>5.5</ele>
        <time>2025-01-22T08:52:04.953Z</time>
      </trkpt>
      <trkpt lat="46.73935" lon="-2.00662">
        <ele>5.6</ele>
        <time>2025-01-22T08:52:05.953Z</time>
      </trkpt>
      <trkpt lat="46.73934" lon="-2.00661">
        <ele>5.7</ele>
        <time>2025-01-22T08:52:06.953Z</time>
      </trkpt>
      <trkpt lat="46.73932" lon="-2.00659">
        <ele>5.8</ele>
        <time>2025-01-22T08:52:07.952Z</time>
      </trkpt>
      <trkpt lat="46.73931" lon="-2.00657">
        <ele>5.8</ele>
        <time>2025-01-22T08:52:08.953Z</time>
      </trkpt>
      <trkpt lat="46.73929" lon="-2.00654">
        <ele>5.9</ele>
        <time>2025-01-22T08:52:09.952Z</time>
      </trkpt>
      <trkpt lat="46.73928" lon="-2.00652">
        <ele>5.9</ele>
        <time>2025-01-22T08:52:10.952Z</time>
      </trkpt>
      <trkpt lat="46.73926" lon="-2.0065">
        <ele>5.9</ele>
        <time>2025-01-22T08:52:11.953Z</time>
      </trkpt>
      <trkpt lat="46.73925" lon="-2.00649">
        <ele>5.9</ele>
        <time>2025-01-22T08:52:12.953Z</time>
      </trkpt>
      <trkpt lat="46.73924" lon="-2.00647">
        <ele>6</ele>
        <time>2025-01-22T08:52:13.952Z</time>
      </trkpt>
      <trkpt lat="46.73922" lon="-2.00645">
        <ele>6</ele>
        <time>2025-01-22T08:52:14.953Z</time>
      </trkpt>
      <trkpt lat="46.7392" lon="-2.00643">
        <ele>6</ele>
        <time>2025-01-22T08:52:15.952Z</time>
      </trkpt>
      <trkpt lat="46.73919" lon="-2.00641">
        <ele>6</ele>
        <time>2025-01-22T08:52:16.952Z</time>
      </trkpt>
      <trkpt lat="46.73917" lon="-2.0064">
        <ele>6</ele>
        <time>2025-01-22T08:52:17.953Z</time>
      </trkpt>
      <trkpt lat="46.73916" lon="-2.00638">
        <ele>6.1</ele>
        <time>2025-01-22T08:52:18.953Z</time>
      </trkpt>
      <trkpt lat="46.73914" lon="-2.00636">
        <ele>6.1</ele>
        <time>2025-01-22T08:52:19.953Z</time>
      </trkpt>
      <trkpt lat="46.73913" lon="-2.00633">
        <ele>6.2</ele>
        <time>2025-01-22T08:52:20.952Z</time>
      </trkpt>
      <trkpt lat="46.73912" lon="-2.00631">
        <ele>6.2</ele>
        <time>2025-01-22T08:52:21.953Z</time>
      </trkpt>
      <trkpt lat="46.7391" lon="-2.00629">
        <ele>6.2</ele>
        <time>2025-01-22T08:52:22.952Z</time>
      </trkpt>
      <trkpt lat="46.73909" lon="-2.00627">
        <ele>6.2</ele>
        <time>2025-01-22T08:52:23.952Z</time>
      </trkpt>
      <trkpt lat="46.73907" lon="-2.00626">
        <ele>6.2</ele>
        <time>2025-01-22T08:52:24.953Z</time>
      </trkpt>
      <trkpt lat="46.73906" lon="-2.00624">
        <ele>6.3</ele>
        <time>2025-01-22T08:52:25.953Z</time>
      </trkpt>
      <trkpt lat="46.73904" lon="-2.00623">
        <ele>6.3</ele>
        <time>2025-01-22T08:52:26.953Z</time>
      </trkpt>
      <trkpt lat="46.73902" lon="-2.00621">
        <ele>6.3</ele>
        <time>2025-01-22T08:52:27.953Z</time>
      </trkpt>
      <trkpt lat="46.73901" lon="-2.0062">
        <ele>6.3</ele>
        <time>2025-01-22T08:52:28.953Z</time>
      </trkpt>
      <trkpt lat="46.73899" lon="-2.00619">
        <ele>6.2</ele>
        <time>2025-01-22T08:52:29.952Z</time>
      </trkpt>
      <trkpt lat="46.73898" lon="-2.00617">
        <ele>6.2</ele>
        <time>2025-01-22T08:52:30.952Z</time>
      </trkpt>
      <trkpt lat="46.73896" lon="-2.00615">
        <ele>6.1</ele>
        <time>2025-01-22T08:52:31.952Z</time>
      </trkpt>
      <trkpt lat="46.73894" lon="-2.00614">
        <ele>6.1</ele>
        <time>2025-01-22T08:52:32.953Z</time>
      </trkpt>
      <trkpt lat="46.73892" lon="-2.00612">
        <ele>6</ele>
        <time>2025-01-22T08:52:33.952Z</time>
      </trkpt>
      <trkpt lat="46.73891" lon="-2.00611">
        <ele>5.9</ele>
        <time>2025-01-22T08:52:34.952Z</time>
      </trkpt>
      <trkpt lat="46.73889" lon="-2.00609">
        <ele>5.9</ele>
        <time>2025-01-22T08:52:35.952Z</time>
      </trkpt>
      <trkpt lat="46.73888" lon="-2.00607">
        <ele>6</ele>
        <time>2025-01-22T08:52:36.952Z</time>
      </trkpt>
      <trkpt lat="46.73886" lon="-2.00606">
        <ele>6.1</ele>
        <time>2025-01-22T08:52:37.953Z</time>
      </trkpt>
      <trkpt lat="46.73885" lon="-2.00603">
        <ele>6.1</ele>
        <time>2025-01-22T08:52:38.952Z</time>
      </trkpt>
      <trkpt lat="46.73884" lon="-2.006">
        <ele>6.1</ele>
        <time>2025-01-22T08:52:39.952Z</time>
      </trkpt>
      <trkpt lat="46.73883" lon="-2.00598">
        <ele>6.1</ele>
        <time>2025-01-22T08:52:40.953Z</time>
      </trkpt>
      <trkpt lat="46.73881" lon="-2.00596">
        <ele>6.1</ele>
        <time>2025-01-22T08:52:41.953Z</time>
      </trkpt>
      <trkpt lat="46.7388" lon="-2.00595">
        <ele>6.2</ele>
        <time>2025-01-22T08:52:42.952Z</time>
      </trkpt>
      <trkpt lat="46.73879" lon="-2.00594">
        <ele>6.2</ele>
        <time>2025-01-22T08:52:43.952Z</time>
      </trkpt>
      <trkpt lat="46.73877" lon="-2.00593">
        <ele>6.3</ele>
        <time>2025-01-22T08:52:44.952Z</time>
      </trkpt>
      <trkpt lat="46.73876" lon="-2.00592">
        <ele>6.4</ele>
        <time>2025-01-22T08:52:45.952Z</time>
      </trkpt>
      <trkpt lat="46.73875" lon="-2.00591">
        <ele>6.4</ele>
        <time>2025-01-22T08:52:46.953Z</time>
      </trkpt>
      <trkpt lat="46.73873" lon="-2.00589">
        <ele>6.4</ele>
        <time>2025-01-22T08:52:47.953Z</time>
      </trkpt>
      <trkpt lat="46.73872" lon="-2.00587">
        <ele>6.4</ele>
        <time>2025-01-22T08:52:48.953Z</time>
      </trkpt>
      <trkpt lat="46.73871" lon="-2.00584">
        <ele>6.3</ele>
        <time>2025-01-22T08:52:49.953Z</time>
      </trkpt>
      <trkpt lat="46.7387" lon="-2.00581">
        <ele>6.2</ele>
        <time>2025-01-22T08:52:50.953Z</time>
      </trkpt>
      <trkpt lat="46.73869" lon="-2.00578">
        <ele>6</ele>
        <time>2025-01-22T08:52:51.953Z</time>
      </trkpt>
      <trkpt lat="46.73869" lon="-2.00575">
        <ele>5.8</ele>
        <time>2025-01-22T08:52:52.953Z</time>
      </trkpt>
      <trkpt lat="46.73869" lon="-2.00572">
        <ele>5.6</ele>
        <time>2025-01-22T08:52:53.953Z</time>
      </trkpt>
      <trkpt lat="46.73869" lon="-2.00569">
        <ele>5.3</ele>
        <time>2025-01-22T08:52:54.953Z</time>
      </trkpt>
      <trkpt lat="46.73869" lon="-2.00566">
        <ele>5.1</ele>
        <time>2025-01-22T08:52:55.952Z</time>
      </trkpt>
      <trkpt lat="46.73869" lon="-2.00563">
        <ele>4.8</ele>
        <time>2025-01-22T08:52:56.952Z</time>
      </trkpt>
      <trkpt lat="46.73868" lon="-2.00559">
        <ele>4.6</ele>
        <time>2025-01-22T08:52:57.952Z</time>
      </trkpt>
      <trkpt lat="46.73868" lon="-2.00556">
        <ele>4.2</ele>
        <time>2025-01-22T08:52:58.952Z</time>
      </trkpt>
      <trkpt lat="46.73867" lon="-2.00552">
        <ele>4.2</ele>
        <time>2025-01-22T08:52:59.953Z</time>
      </trkpt>
      <trkpt lat="46.73867" lon="-2.00549">
        <ele>4.2</ele>
        <time>2025-01-22T08:53:00.953Z</time>
      </trkpt>
      <trkpt lat="46.73866" lon="-2.00546">
        <ele>4.2</ele>
        <time>2025-01-22T08:53:01.953Z</time>
      </trkpt>
      <trkpt lat="46.73865" lon="-2.00543">
        <ele>4.1</ele>
        <time>2025-01-22T08:53:02.953Z</time>
      </trkpt>
      <trkpt lat="46.73864" lon="-2.0054">
        <ele>4.1</ele>
        <time>2025-01-22T08:53:03.953Z</time>
      </trkpt>
      <trkpt lat="46.73863" lon="-2.00536">
        <ele>4.1</ele>
        <time>2025-01-22T08:53:04.952Z</time>
      </trkpt>
      <trkpt lat="46.73861" lon="-2.00533">
        <ele>4</ele>
        <time>2025-01-22T08:53:05.952Z</time>
      </trkpt>
      <trkpt lat="46.7386" lon="-2.0053">
        <ele>4.1</ele>
        <time>2025-01-22T08:53:06.952Z</time>
      </trkpt>
      <trkpt lat="46.73858" lon="-2.00527">
        <ele>4.1</ele>
        <time>2025-01-22T08:53:07.952Z</time>
      </trkpt>
      <trkpt lat="46.73857" lon="-2.00524">
        <ele>4.1</ele>
        <time>2025-01-22T08:53:08.953Z</time>
      </trkpt>
      <trkpt lat="46.73855" lon="-2.00521">
        <ele>4.2</ele>
        <time>2025-01-22T08:53:09.953Z</time>
      </trkpt>
      <trkpt lat="46.73854" lon="-2.00518">
        <ele>4.2</ele>
        <time>2025-01-22T08:53:10.953Z</time>
      </trkpt>
      <trkpt lat="46.73852" lon="-2.00515">
        <ele>4.2</ele>
        <time>2025-01-22T08:53:11.953Z</time>
      </trkpt>
      <trkpt lat="46.73851" lon="-2.00512">
        <ele>4.2</ele>
        <time>2025-01-22T08:53:12.953Z</time>
      </trkpt>
      <trkpt lat="46.73851" lon="-2.0051">
        <ele>4.1</ele>
        <time>2025-01-22T08:53:13.953Z</time>
      </trkpt>
      <trkpt lat="46.7385" lon="-2.00507">
        <ele>4.1</ele>
        <time>2025-01-22T08:53:14.953Z</time>
      </trkpt>
      <trkpt lat="46.73849" lon="-2.00504">
        <ele>4.1</ele>
        <time>2025-01-22T08:53:15.953Z</time>
      </trkpt>
      <trkpt lat="46.73849" lon="-2.00501">
        <ele>4</ele>
        <time>2025-01-22T08:53:16.952Z</time>
      </trkpt>
      <trkpt lat="46.73848" lon="-2.00498">
        <ele>4.1</ele>
        <time>2025-01-22T08:53:17.952Z</time>
      </trkpt>
      <trkpt lat="46.73847" lon="-2.00495">
        <ele>4.2</ele>
        <time>2025-01-22T08:53:18.952Z</time>
      </trkpt>
      <trkpt lat="46.73846" lon="-2.00492">
        <ele>4.3</ele>
        <time>2025-01-22T08:53:19.952Z</time>
      </trkpt>
      <trkpt lat="46.73844" lon="-2.00489">
        <ele>4.5</ele>
        <time>2025-01-22T08:53:20.952Z</time>
      </trkpt>
      <trkpt lat="46.73843" lon="-2.00486">
        <ele>4.6</ele>
        <time>2025-01-22T08:53:21.953Z</time>
      </trkpt>
      <trkpt lat="46.73843" lon="-2.00483">
        <ele>4.8</ele>
        <time>2025-01-22T08:53:22.953Z</time>
      </trkpt>
      <trkpt lat="46.73842" lon="-2.00481">
        <ele>5</ele>
        <time>2025-01-22T08:53:23.953Z</time>
      </trkpt>
      <trkpt lat="46.73841" lon="-2.00479">
        <ele>5.1</ele>
        <time>2025-01-22T08:53:24.953Z</time>
      </trkpt>
      <trkpt lat="46.7384" lon="-2.00477">
        <ele>5.3</ele>
        <time>2025-01-22T08:53:25.953Z</time>
      </trkpt>
      <trkpt lat="46.73839" lon="-2.00474">
        <ele>5.5</ele>
        <time>2025-01-22T08:53:26.952Z</time>
      </trkpt>
      <trkpt lat="46.73838" lon="-2.00472">
        <ele>5.7</ele>
        <time>2025-01-22T08:53:27.952Z</time>
      </trkpt>
      <trkpt lat="46.73837" lon="-2.0047">
        <ele>5.9</ele>
        <time>2025-01-22T08:53:28.952Z</time>
      </trkpt>
      <trkpt lat="46.73836" lon="-2.00468">
        <ele>6.2</ele>
        <time>2025-01-22T08:53:29.952Z</time>
      </trkpt>
      <trkpt lat="46.73835" lon="-2.00465">
        <ele>6.4</ele>
        <time>2025-01-22T08:53:30.953Z</time>
      </trkpt>
      <trkpt lat="46.73835" lon="-2.00463">
        <ele>6.6</ele>
        <time>2025-01-22T08:53:31.953Z</time>
      </trkpt>
      <trkpt lat="46.73834" lon="-2.0046">
        <ele>6.8</ele>
        <time>2025-01-22T08:53:32.953Z</time>
      </trkpt>
      <trkpt lat="46.73833" lon="-2.00458">
        <ele>7</ele>
        <time>2025-01-22T08:53:33.953Z</time>
      </trkpt>
      <trkpt lat="46.73833" lon="-2.00455">
        <ele>7.2</ele>
        <time>2025-01-22T08:53:34.952Z</time>
      </trkpt>
      <trkpt lat="46.73832" lon="-2.00453">
        <ele>7.4</ele>
        <time>2025-01-22T08:53:35.953Z</time>
      </trkpt>
      <trkpt lat="46.73831" lon="-2.00451">
        <ele>7.5</ele>
        <time>2025-01-22T08:53:36.952Z</time>
      </trkpt>
      <trkpt lat="46.73831" lon="-2.00448">
        <ele>7.6</ele>
        <time>2025-01-22T08:53:37.952Z</time>
      </trkpt>
      <trkpt lat="46.7383" lon="-2.00446">
        <ele>7.8</ele>
        <time>2025-01-22T08:53:38.953Z</time>
      </trkpt>
      <trkpt lat="46.73829" lon="-2.00444">
        <ele>7.9</ele>
        <time>2025-01-22T08:53:39.953Z</time>
      </trkpt>
      <trkpt lat="46.73829" lon="-2.00441">
        <ele>8</ele>
        <time>2025-01-22T08:53:40.953Z</time>
      </trkpt>
      <trkpt lat="46.73828" lon="-2.0044">
        <ele>8.1</ele>
        <time>2025-01-22T08:53:41.953Z</time>
      </trkpt>
      <trkpt lat="46.73828" lon="-2.00438">
        <ele>8.1</ele>
        <time>2025-01-22T08:53:42.953Z</time>
      </trkpt>
      <trkpt lat="46.73828" lon="-2.00437">
        <ele>8.2</ele>
        <time>2025-01-22T08:53:43.952Z</time>
      </trkpt>
      <trkpt lat="46.73827" lon="-2.00435">
        <ele>8.2</ele>
        <time>2025-01-22T08:53:44.952Z</time>
      </trkpt>
      <trkpt lat="46.73827" lon="-2.00433">
        <ele>8.3</ele>
        <time>2025-01-22T08:53:45.952Z</time>
      </trkpt>
      <trkpt lat="46.73826" lon="-2.00432">
        <ele>8.3</ele>
        <time>2025-01-22T08:53:46.952Z</time>
      </trkpt>
      <trkpt lat="46.73826" lon="-2.0043">
        <ele>8.4</ele>
        <time>2025-01-22T08:53:47.952Z</time>
      </trkpt>
      <trkpt lat="46.73826" lon="-2.00429">
        <ele>8.4</ele>
        <time>2025-01-22T08:53:48.952Z</time>
      </trkpt>
      <trkpt lat="46.73826" lon="-2.00427">
        <ele>8.5</ele>
        <time>2025-01-22T08:53:49.953Z</time>
      </trkpt>
      <trkpt lat="46.73825" lon="-2.00426">
        <ele>8.4</ele>
        <time>2025-01-22T08:53:50.953Z</time>
      </trkpt>
      <trkpt lat="46.73824" lon="-2.00424">
        <ele>8.4</ele>
        <time>2025-01-22T08:53:51.953Z</time>
      </trkpt>
      <trkpt lat="46.73823" lon="-2.00422">
        <ele>8.4</ele>
        <time>2025-01-22T08:53:52.952Z</time>
      </trkpt>
      <trkpt lat="46.73822" lon="-2.0042">
        <ele>8.2</ele>
        <time>2025-01-22T08:53:53.952Z</time>
      </trkpt>
      <trkpt lat="46.73821" lon="-2.00417">
        <ele>8.1</ele>
        <time>2025-01-22T08:53:54.952Z</time>
      </trkpt>
      <trkpt lat="46.73819" lon="-2.00414">
        <ele>8</ele>
        <time>2025-01-22T08:53:55.952Z</time>
      </trkpt>
      <trkpt lat="46.73818" lon="-2.00412">
        <ele>7.8</ele>
        <time>2025-01-22T08:53:56.953Z</time>
      </trkpt>
      <trkpt lat="46.73816" lon="-2.00409">
        <ele>7.6</ele>
        <time>2025-01-22T08:53:57.953Z</time>
      </trkpt>
      <trkpt lat="46.73815" lon="-2.00407">
        <ele>7.3</ele>
        <time>2025-01-22T08:53:58.953Z</time>
      </trkpt>
      <trkpt lat="46.73813" lon="-2.00405">
        <ele>7</ele>
        <time>2025-01-22T08:53:59.953Z</time>
      </trkpt>
      <trkpt lat="46.73811" lon="-2.00403">
        <ele>6.6</ele>
        <time>2025-01-22T08:54:00.953Z</time>
      </trkpt>
      <trkpt lat="46.73809" lon="-2.004">
        <ele>6.2</ele>
        <time>2025-01-22T08:54:01.952Z</time>
      </trkpt>
      <trkpt lat="46.73807" lon="-2.00397">
        <ele>5.7</ele>
        <time>2025-01-22T08:54:02.952Z</time>
      </trkpt>
      <trkpt lat="46.73806" lon="-2.00394">
        <ele>5.2</ele>
        <time>2025-01-22T08:54:03.952Z</time>
      </trkpt>
      <trkpt lat="46.73804" lon="-2.00391">
        <ele>5</ele>
        <time>2025-01-22T08:54:04.952Z</time>
      </trkpt>
      <trkpt lat="46.73802" lon="-2.00388">
        <ele>4.9</ele>
        <time>2025-01-22T08:54:05.952Z</time>
      </trkpt>
      <trkpt lat="46.738" lon="-2.00386">
        <ele>4.7</ele>
        <time>2025-01-22T08:54:06.953Z</time>
      </trkpt>
      <trkpt lat="46.73799" lon="-2.00383">
        <ele>4.6</ele>
        <time>2025-01-22T08:54:07.953Z</time>
      </trkpt>
      <trkpt lat="46.73798" lon="-2.0038">
        <ele>4.4</ele>
        <time>2025-01-22T08:54:08.953Z</time>
      </trkpt>
      <trkpt lat="46.73797" lon="-2.00378">
        <ele>4.3</ele>
        <time>2025-01-22T08:54:09.953Z</time>
      </trkpt>
      <trkpt lat="46.73797" lon="-2.00374">
        <ele>4.2</ele>
        <time>2025-01-22T08:54:10.952Z</time>
      </trkpt>
      <trkpt lat="46.73798" lon="-2.00372">
        <ele>4.1</ele>
        <time>2025-01-22T08:54:11.952Z</time>
      </trkpt>
      <trkpt lat="46.73799" lon="-2.00369">
        <ele>4.1</ele>
        <time>2025-01-22T08:54:12.953Z</time>
      </trkpt>
      <trkpt lat="46.73801" lon="-2.00367">
        <ele>4</ele>
        <time>2025-01-22T08:54:13.953Z</time>
      </trkpt>
      <trkpt lat="46.73803" lon="-2.00365">
        <ele>4</ele>
        <time>2025-01-22T08:54:14.953Z</time>
      </trkpt>
      <trkpt lat="46.73805" lon="-2.00363">
        <ele>4</ele>
        <time>2025-01-22T08:54:15.952Z</time>
      </trkpt>
      <trkpt lat="46.73807" lon="-2.00361">
        <ele>4.3</ele>
        <time>2025-01-22T08:54:16.952Z</time>
      </trkpt>
      <trkpt lat="46.73809" lon="-2.0036">
        <ele>4.7</ele>
        <time>2025-01-22T08:54:17.952Z</time>
      </trkpt>
      <trkpt lat="46.7381" lon="-2.00358">
        <ele>4.9</ele>
        <time>2025-01-22T08:54:18.952Z</time>
      </trkpt>
      <trkpt lat="46.73812" lon="-2.00356">
        <ele>5.1</ele>
        <time>2025-01-22T08:54:19.953Z</time>
      </trkpt>
      <trkpt lat="46.73813" lon="-2.00353">
        <ele>5.1</ele>
        <time>2025-01-22T08:54:20.953Z</time>
      </trkpt>
      <trkpt lat="46.73813" lon="-2.00351">
        <ele>5.1</ele>
        <time>2025-01-22T08:54:21.953Z</time>
      </trkpt>
      <trkpt lat="46.73814" lon="-2.00348">
        <ele>5.1</ele>
        <time>2025-01-22T08:54:22.952Z</time>
      </trkpt>
      <trkpt lat="46.73815" lon="-2.00346">
        <ele>5.2</ele>
        <time>2025-01-22T08:54:23.952Z</time>
      </trkpt>
      <trkpt lat="46.73817" lon="-2.00344">
        <ele>5.3</ele>
        <time>2025-01-22T08:54:24.953Z</time>
      </trkpt>
      <trkpt lat="46.73818" lon="-2.00342">
        <ele>5.4</ele>
        <time>2025-01-22T08:54:25.952Z</time>
      </trkpt>
      <trkpt lat="46.7382" lon="-2.0034">
        <ele>5.6</ele>
        <time>2025-01-22T08:54:26.953Z</time>
      </trkpt>
      <trkpt lat="46.73822" lon="-2.00338">
        <ele>5.7</ele>
        <time>2025-01-22T08:54:27.952Z</time>
      </trkpt>
      <trkpt lat="46.73824" lon="-2.00336">
        <ele>5.9</ele>
        <time>2025-01-22T08:54:28.952Z</time>
      </trkpt>
      <trkpt lat="46.73826" lon="-2.00335">
        <ele>6</ele>
        <time>2025-01-22T08:54:29.953Z</time>
      </trkpt>
      <trkpt lat="46.73828" lon="-2.00333">
        <ele>6.2</ele>
        <time>2025-01-22T08:54:30.952Z</time>
      </trkpt>
      <trkpt lat="46.7383" lon="-2.00331">
        <ele>6.4</ele>
        <time>2025-01-22T08:54:31.952Z</time>
      </trkpt>
      <trkpt lat="46.73832" lon="-2.00329">
        <ele>6.6</ele>
        <time>2025-01-22T08:54:32.952Z</time>
      </trkpt>
      <trkpt lat="46.73834" lon="-2.00327">
        <ele>6.8</ele>
        <time>2025-01-22T08:54:33.952Z</time>
      </trkpt>
      <trkpt lat="46.73836" lon="-2.00325">
        <ele>6.8</ele>
        <time>2025-01-22T08:54:34.953Z</time>
      </trkpt>
      <trkpt lat="46.73838" lon="-2.00323">
        <ele>6.8</ele>
        <time>2025-01-22T08:54:35.952Z</time>
      </trkpt>
      <trkpt lat="46.7384" lon="-2.00321">
        <ele>6.9</ele>
        <time>2025-01-22T08:54:36.952Z</time>
      </trkpt>
      <trkpt lat="46.73842" lon="-2.00319">
        <ele>6.9</ele>
        <time>2025-01-22T08:54:37.953Z</time>
      </trkpt>
      <trkpt lat="46.73843" lon="-2.00316">
        <ele>7</ele>
        <time>2025-01-22T08:54:38.953Z</time>
      </trkpt>
      <trkpt lat="46.73845" lon="-2.00314">
        <ele>7</ele>
        <time>2025-01-22T08:54:39.952Z</time>
      </trkpt>
      <trkpt lat="46.73846" lon="-2.00311">
        <ele>7</ele>
        <time>2025-01-22T08:54:40.953Z</time>
      </trkpt>
      <trkpt lat="46.73848" lon="-2.00309">
        <ele>7.1</ele>
        <time>2025-01-22T08:54:41.952Z</time>
      </trkpt>
      <trkpt lat="46.7385" lon="-2.00307">
        <ele>7.2</ele>
        <time>2025-01-22T08:54:42.953Z</time>
      </trkpt>
      <trkpt lat="46.73851" lon="-2.00305">
        <ele>7.3</ele>
        <time>2025-01-22T08:54:43.953Z</time>
      </trkpt>
      <trkpt lat="46.73853" lon="-2.00303">
        <ele>7.5</ele>
        <time>2025-01-22T08:54:44.952Z</time>
      </trkpt>
      <trkpt lat="46.73855" lon="-2.00301">
        <ele>7.7</ele>
        <time>2025-01-22T08:54:45.952Z</time>
      </trkpt>
      <trkpt lat="46.73856" lon="-2.003">
        <ele>7.8</ele>
        <time>2025-01-22T08:54:46.952Z</time>
      </trkpt>
      <trkpt lat="46.73858" lon="-2.00299">
        <ele>7.9</ele>
        <time>2025-01-22T08:54:47.952Z</time>
      </trkpt>
      <trkpt lat="46.73859" lon="-2.00297">
        <ele>8</ele>
        <time>2025-01-22T08:54:48.953Z</time>
      </trkpt>
      <trkpt lat="46.7386" lon="-2.00295">
        <ele>8</ele>
        <time>2025-01-22T08:54:49.952Z</time>
      </trkpt>
      <trkpt lat="46.73862" lon="-2.00294">
        <ele>8</ele>
        <time>2025-01-22T08:54:50.953Z</time>
      </trkpt>
      <trkpt lat="46.73862" lon="-2.00292">
        <ele>7.9</ele>
        <time>2025-01-22T08:54:51.953Z</time>
      </trkpt>
      <trkpt lat="46.73863" lon="-2.00291">
        <ele>7.8</ele>
        <time>2025-01-22T08:54:52.953Z</time>
      </trkpt>
      <trkpt lat="46.73864" lon="-2.0029">
        <ele>7.7</ele>
        <time>2025-01-22T08:54:53.953Z</time>
      </trkpt>
      <trkpt lat="46.73864" lon="-2.00289">
        <ele>7.7</ele>
        <time>2025-01-22T08:54:54.952Z</time>
      </trkpt>
      <trkpt lat="46.73865" lon="-2.00287">
        <ele>7.6</ele>
        <time>2025-01-22T08:54:55.953Z</time>
      </trkpt>
      <trkpt lat="46.73867" lon="-2.00285">
        <ele>7.5</ele>
        <time>2025-01-22T08:54:56.952Z</time>
      </trkpt>
      <trkpt lat="46.73868" lon="-2.00283">
        <ele>7.4</ele>
        <time>2025-01-22T08:54:57.953Z</time>
      </trkpt>
      <trkpt lat="46.7387" lon="-2.00281">
        <ele>7.3</ele>
        <time>2025-01-22T08:54:58.953Z</time>
      </trkpt>
      <trkpt lat="46.73871" lon="-2.00279">
        <ele>7.2</ele>
        <time>2025-01-22T08:54:59.953Z</time>
      </trkpt>
      <trkpt lat="46.73873" lon="-2.00277">
        <ele>7.1</ele>
        <time>2025-01-22T08:55:00.952Z</time>
      </trkpt>
      <trkpt lat="46.73875" lon="-2.00274">
        <ele>6.9</ele>
        <time>2025-01-22T08:55:01.953Z</time>
      </trkpt>
      <trkpt lat="46.73876" lon="-2.00272">
        <ele>6.7</ele>
        <time>2025-01-22T08:55:02.953Z</time>
      </trkpt>
      <trkpt lat="46.73878" lon="-2.0027">
        <ele>6.6</ele>
        <time>2025-01-22T08:55:03.953Z</time>
      </trkpt>
      <trkpt lat="46.73879" lon="-2.00267">
        <ele>6.5</ele>
        <time>2025-01-22T08:55:04.953Z</time>
      </trkpt>
      <trkpt lat="46.73881" lon="-2.00265">
        <ele>6.5</ele>
        <time>2025-01-22T08:55:05.953Z</time>
      </trkpt>
      <trkpt lat="46.73882" lon="-2.00263">
        <ele>6.5</ele>
        <time>2025-01-22T08:55:06.953Z</time>
      </trkpt>
      <trkpt lat="46.73884" lon="-2.00261">
        <ele>6.5</ele>
        <time>2025-01-22T08:55:07.953Z</time>
      </trkpt>
      <trkpt lat="46.73886" lon="-2.00258">
        <ele>6.6</ele>
        <time>2025-01-22T08:55:08.953Z</time>
      </trkpt>
      <trkpt lat="46.73888" lon="-2.00256">
        <ele>6.7</ele>
        <time>2025-01-22T08:55:09.952Z</time>
      </trkpt>
      <trkpt lat="46.7389" lon="-2.00254">
        <ele>6.8</ele>
        <time>2025-01-22T08:55:10.953Z</time>
      </trkpt>
      <trkpt lat="46.73891" lon="-2.00252">
        <ele>6.7</ele>
        <time>2025-01-22T08:55:11.952Z</time>
      </trkpt>
      <trkpt lat="46.73893" lon="-2.0025">
        <ele>6.7</ele>
        <time>2025-01-22T08:55:12.952Z</time>
      </trkpt>
      <trkpt lat="46.73894" lon="-2.00248">
        <ele>6.5</ele>
        <time>2025-01-22T08:55:13.952Z</time>
      </trkpt>
      <trkpt lat="46.73896" lon="-2.00247">
        <ele>6.2</ele>
        <time>2025-01-22T08:55:14.953Z</time>
      </trkpt>
      <trkpt lat="46.73897" lon="-2.00245">
        <ele>6</ele>
        <time>2025-01-22T08:55:15.953Z</time>
      </trkpt>
      <trkpt lat="46.73899" lon="-2.00243">
        <ele>5.8</ele>
        <time>2025-01-22T08:55:16.952Z</time>
      </trkpt>
      <trkpt lat="46.73901" lon="-2.00242">
        <ele>5.6</ele>
        <time>2025-01-22T08:55:17.953Z</time>
      </trkpt>
      <trkpt lat="46.73903" lon="-2.0024">
        <ele>5.4</ele>
        <time>2025-01-22T08:55:18.952Z</time>
      </trkpt>
      <trkpt lat="46.73906" lon="-2.00238">
        <ele>5.3</ele>
        <time>2025-01-22T08:55:19.953Z</time>
      </trkpt>
      <trkpt lat="46.73907" lon="-2.00235">
        <ele>5.1</ele>
        <time>2025-01-22T08:55:20.953Z</time>
      </trkpt>
      <trkpt lat="46.73909" lon="-2.00233">
        <ele>5.1</ele>
        <time>2025-01-22T08:55:21.953Z</time>
      </trkpt>
      <trkpt lat="46.73911" lon="-2.00231">
        <ele>5</ele>
        <time>2025-01-22T08:55:22.953Z</time>
      </trkpt>
      <trkpt lat="46.73913" lon="-2.00229">
        <ele>5</ele>
        <time>2025-01-22T08:55:23.953Z</time>
      </trkpt>
      <trkpt lat="46.73915" lon="-2.00227">
        <ele>5</ele>
        <time>2025-01-22T08:55:24.953Z</time>
      </trkpt>
      <trkpt lat="46.73916" lon="-2.00225">
        <ele>5</ele>
        <time>2025-01-22T08:55:25.952Z</time>
      </trkpt>
      <trkpt lat="46.73918" lon="-2.00223">
        <ele>5</ele>
        <time>2025-01-22T08:55:26.952Z</time>
      </trkpt>
      <trkpt lat="46.73919" lon="-2.00221">
        <ele>4.9</ele>
        <time>2025-01-22T08:55:27.952Z</time>
      </trkpt>
      <trkpt lat="46.7392" lon="-2.00219">
        <ele>4.7</ele>
        <time>2025-01-22T08:55:28.953Z</time>
      </trkpt>
      <trkpt lat="46.73921" lon="-2.00216">
        <ele>4.6</ele>
        <time>2025-01-22T08:55:29.953Z</time>
      </trkpt>
      <trkpt lat="46.73923" lon="-2.00213">
        <ele>4.4</ele>
        <time>2025-01-22T08:55:30.952Z</time>
      </trkpt>
      <trkpt lat="46.73925" lon="-2.00211">
        <ele>4.3</ele>
        <time>2025-01-22T08:55:31.952Z</time>
      </trkpt>
      <trkpt lat="46.73927" lon="-2.00208">
        <ele>4.1</ele>
        <time>2025-01-22T08:55:32.952Z</time>
      </trkpt>
      <trkpt lat="46.73929" lon="-2.00206">
        <ele>4</ele>
        <time>2025-01-22T08:55:33.952Z</time>
      </trkpt>
      <trkpt lat="46.73931" lon="-2.00204">
        <ele>3.8</ele>
        <time>2025-01-22T08:55:34.953Z</time>
      </trkpt>
      <trkpt lat="46.73933" lon="-2.00201">
        <ele>3.6</ele>
        <time>2025-01-22T08:55:35.952Z</time>
      </trkpt>
      <trkpt lat="46.73935" lon="-2.00198">
        <ele>3.5</ele>
        <time>2025-01-22T08:55:36.953Z</time>
      </trkpt>
      <trkpt lat="46.73936" lon="-2.00196">
        <ele>3.4</ele>
        <time>2025-01-22T08:55:37.953Z</time>
      </trkpt>
      <trkpt lat="46.73937" lon="-2.00193">
        <ele>3.3</ele>
        <time>2025-01-22T08:55:38.952Z</time>
      </trkpt>
      <trkpt lat="46.73938" lon="-2.00191">
        <ele>3.4</ele>
        <time>2025-01-22T08:55:39.953Z</time>
      </trkpt>
      <trkpt lat="46.73939" lon="-2.00188">
        <ele>3.5</ele>
        <time>2025-01-22T08:55:40.953Z</time>
      </trkpt>
      <trkpt lat="46.7394" lon="-2.00184">
        <ele>3.6</ele>
        <time>2025-01-22T08:55:41.953Z</time>
      </trkpt>
      <trkpt lat="46.73942" lon="-2.00182">
        <ele>3.6</ele>
        <time>2025-01-22T08:55:42.953Z</time>
      </trkpt>
      <trkpt lat="46.73943" lon="-2.00179">
        <ele>3.7</ele>
        <time>2025-01-22T08:55:43.952Z</time>
      </trkpt>
      <trkpt lat="46.73944" lon="-2.00176">
        <ele>3.7</ele>
        <time>2025-01-22T08:55:44.952Z</time>
      </trkpt>
      <trkpt lat="46.73946" lon="-2.00174">
        <ele>3.8</ele>
        <time>2025-01-22T08:55:45.952Z</time>
      </trkpt>
      <trkpt lat="46.73947" lon="-2.00172">
        <ele>3.9</ele>
        <time>2025-01-22T08:55:46.952Z</time>
      </trkpt>
      <trkpt lat="46.73948" lon="-2.00169">
        <ele>4</ele>
        <time>2025-01-22T08:55:47.953Z</time>
      </trkpt>
      <trkpt lat="46.73949" lon="-2.00167">
        <ele>4.1</ele>
        <time>2025-01-22T08:55:48.953Z</time>
      </trkpt>
      <trkpt lat="46.73949" lon="-2.00165">
        <ele>4.4</ele>
        <time>2025-01-22T08:55:49.952Z</time>
      </trkpt>
      <trkpt lat="46.7395" lon="-2.00162">
        <ele>4.6</ele>
        <time>2025-01-22T08:55:50.952Z</time>
      </trkpt>
      <trkpt lat="46.73951" lon="-2.0016">
        <ele>4.8</ele>
        <time>2025-01-22T08:55:51.953Z</time>
      </trkpt>
      <trkpt lat="46.73952" lon="-2.00158">
        <ele>4.9</ele>
        <time>2025-01-22T08:55:52.953Z</time>
      </trkpt>
      <trkpt lat="46.73953" lon="-2.00156">
        <ele>5.1</ele>
        <time>2025-01-22T08:55:53.953Z</time>
      </trkpt>
      <trkpt lat="46.73954" lon="-2.00154">
        <ele>5.2</ele>
        <time>2025-01-22T08:55:54.952Z</time>
      </trkpt>
      <trkpt lat="46.73955" lon="-2.00153">
        <ele>5.3</ele>
        <time>2025-01-22T08:55:55.953Z</time>
      </trkpt>
      <trkpt lat="46.73956" lon="-2.00151">
        <ele>5.4</ele>
        <time>2025-01-22T08:55:56.952Z</time>
      </trkpt>
      <trkpt lat="46.73957" lon="-2.00149">
        <ele>5.5</ele>
        <time>2025-01-22T08:55:57.953Z</time>
      </trkpt>
      <trkpt lat="46.73958" lon="-2.00148">
        <ele>5.5</ele>
        <time>2025-01-22T08:55:58.953Z</time>
      </trkpt>
      <trkpt lat="46.73959" lon="-2.00146">
        <ele>5.6</ele>
        <time>2025-01-22T08:55:59.953Z</time>
      </trkpt>
      <trkpt lat="46.7396" lon="-2.00145">
        <ele>5.6</ele>
        <time>2025-01-22T08:56:00.953Z</time>
      </trkpt>
      <trkpt lat="46.7396" lon="-2.00143">
        <ele>5.7</ele>
        <time>2025-01-22T08:56:01.953Z</time>
      </trkpt>
      <trkpt lat="46.73961" lon="-2.00143">
        <ele>5.7</ele>
        <time>2025-01-22T08:56:02.953Z</time>
      </trkpt>
      <trkpt lat="46.73962" lon="-2.00141">
        <ele>5.7</ele>
        <time>2025-01-22T08:56:03.952Z</time>
      </trkpt>
      <trkpt lat="46.73963" lon="-2.00139">
        <ele>5.7</ele>
        <time>2025-01-22T08:56:04.952Z</time>
      </trkpt>
      <trkpt lat="46.73964" lon="-2.00137">
        <ele>5.5</ele>
        <time>2025-01-22T08:56:05.953Z</time>
      </trkpt>
      <trkpt lat="46.73966" lon="-2.00134">
        <ele>5.3</ele>
        <time>2025-01-22T08:56:06.953Z</time>
      </trkpt>
      <trkpt lat="46.73967" lon="-2.00132">
        <ele>5.1</ele>
        <time>2025-01-22T08:56:07.952Z</time>
      </trkpt>
      <trkpt lat="46.73969" lon="-2.00129">
        <ele>4.8</ele>
        <time>2025-01-22T08:56:08.953Z</time>
      </trkpt>
      <trkpt lat="46.7397" lon="-2.00126">
        <ele>4.6</ele>
        <time>2025-01-22T08:56:09.952Z</time>
      </trkpt>
      <trkpt lat="46.73972" lon="-2.00123">
        <ele>4.5</ele>
        <time>2025-01-22T08:56:10.952Z</time>
      </trkpt>
      <trkpt lat="46.73973" lon="-2.00121">
        <ele>4.3</ele>
        <time>2025-01-22T08:56:11.952Z</time>
      </trkpt>
      <trkpt lat="46.73975" lon="-2.00118">
        <ele>4.2</ele>
        <time>2025-01-22T08:56:12.952Z</time>
      </trkpt>
      <trkpt lat="46.73977" lon="-2.00115">
        <ele>4.1</ele>
        <time>2025-01-22T08:56:13.953Z</time>
      </trkpt>
      <trkpt lat="46.73979" lon="-2.00112">
        <ele>4</ele>
        <time>2025-01-22T08:56:14.953Z</time>
      </trkpt>
      <trkpt lat="46.7398" lon="-2.00109">
        <ele>4</ele>
        <time>2025-01-22T08:56:15.953Z</time>
      </trkpt>
      <trkpt lat="46.73982" lon="-2.00106">
        <ele>4.1</ele>
        <time>2025-01-22T08:56:16.953Z</time>
      </trkpt>
      <trkpt lat="46.73983" lon="-2.00103">
        <ele>4.1</ele>
        <time>2025-01-22T08:56:17.952Z</time>
      </trkpt>
      <trkpt lat="46.73985" lon="-2.001">
        <ele>4.2</ele>
        <time>2025-01-22T08:56:18.952Z</time>
      </trkpt>
      <trkpt lat="46.73987" lon="-2.00097">
        <ele>4.3</ele>
        <time>2025-01-22T08:56:19.952Z</time>
      </trkpt>
      <trkpt lat="46.73989" lon="-2.00094">
        <ele>4.4</ele>
        <time>2025-01-22T08:56:20.952Z</time>
      </trkpt>
      <trkpt lat="46.73991" lon="-2.00091">
        <ele>4.5</ele>
        <time>2025-01-22T08:56:21.953Z</time>
      </trkpt>
      <trkpt lat="46.73992" lon="-2.00088">
        <ele>4.6</ele>
        <time>2025-01-22T08:56:22.953Z</time>
      </trkpt>
      <trkpt lat="46.73994" lon="-2.00085">
        <ele>4.7</ele>
        <time>2025-01-22T08:56:23.953Z</time>
      </trkpt>
      <trkpt lat="46.73996" lon="-2.00082">
        <ele>4.9</ele>
        <time>2025-01-22T08:56:24.953Z</time>
      </trkpt>
      <trkpt lat="46.73997" lon="-2.00079">
        <ele>4.9</ele>
        <time>2025-01-22T08:56:25.952Z</time>
      </trkpt>
      <trkpt lat="46.73999" lon="-2.00077">
        <ele>5</ele>
        <time>2025-01-22T08:56:26.953Z</time>
      </trkpt>
      <trkpt lat="46.74" lon="-2.00075">
        <ele>5</ele>
        <time>2025-01-22T08:56:27.952Z</time>
      </trkpt>
      <trkpt lat="46.74002" lon="-2.00073">
        <ele>5</ele>
        <time>2025-01-22T08:56:28.952Z</time>
      </trkpt>
      <trkpt lat="46.74003" lon="-2.00071">
        <ele>5</ele>
        <time>2025-01-22T08:56:29.952Z</time>
      </trkpt>
      <trkpt lat="46.74004" lon="-2.00069">
        <ele>5</ele>
        <time>2025-01-22T08:56:30.952Z</time>
      </trkpt>
      <trkpt lat="46.74004" lon="-2.00066">
        <ele>5</ele>
        <time>2025-01-22T08:56:31.953Z</time>
      </trkpt>
      <trkpt lat="46.74005" lon="-2.00063">
        <ele>5</ele>
        <time>2025-01-22T08:56:32.952Z</time>
      </trkpt>
      <trkpt lat="46.74006" lon="-2.0006">
        <ele>5</ele>
        <time>2025-01-22T08:56:33.952Z</time>
      </trkpt>
      <trkpt lat="46.74007" lon="-2.00057">
        <ele>5</ele>
        <time>2025-01-22T08:56:34.952Z</time>
      </trkpt>
      <trkpt lat="46.74009" lon="-2.00054">
        <ele>5</ele>
        <time>2025-01-22T08:56:35.952Z</time>
      </trkpt>
      <trkpt lat="46.7401" lon="-2.00051">
        <ele>5</ele>
        <time>2025-01-22T08:56:36.952Z</time>
      </trkpt>
      <trkpt lat="46.74012" lon="-2.00049">
        <ele>5</ele>
        <time>2025-01-22T08:56:37.953Z</time>
      </trkpt>
      <trkpt lat="46.74013" lon="-2.00047">
        <ele>5</ele>
        <time>2025-01-22T08:56:38.953Z</time>
      </trkpt>
      <trkpt lat="46.74013" lon="-2.00045">
        <ele>5</ele>
        <time>2025-01-22T08:56:39.953Z</time>
      </trkpt>
      <trkpt lat="46.74014" lon="-2.00043">
        <ele>5</ele>
        <time>2025-01-22T08:56:40.953Z</time>
      </trkpt>
      <trkpt lat="46.74015" lon="-2.00041">
        <ele>5</ele>
        <time>2025-01-22T08:56:41.953Z</time>
      </trkpt>
      <trkpt lat="46.74016" lon="-2.00038">
        <ele>5</ele>
        <time>2025-01-22T08:56:42.952Z</time>
      </trkpt>
      <trkpt lat="46.74018" lon="-2.00036">
        <ele>5</ele>
        <time>2025-01-22T08:56:43.952Z</time>
      </trkpt>
      <trkpt lat="46.74019" lon="-2.00034">
        <ele>5</ele>
        <time>2025-01-22T08:56:44.953Z</time>
      </trkpt>
      <trkpt lat="46.74021" lon="-2.00031">
        <ele>5</ele>
        <time>2025-01-22T08:56:45.953Z</time>
      </trkpt>
      <trkpt lat="46.74022" lon="-2.00029">
        <ele>5</ele>
        <time>2025-01-22T08:56:46.952Z</time>
      </trkpt>
      <trkpt lat="46.74023" lon="-2.00027">
        <ele>5</ele>
        <time>2025-01-22T08:56:47.953Z</time>
      </trkpt>
      <trkpt lat="46.74024" lon="-2.00025">
        <ele>4.9</ele>
        <time>2025-01-22T08:56:48.952Z</time>
      </trkpt>
      <trkpt lat="46.74025" lon="-2.00023">
        <ele>4.8</ele>
        <time>2025-01-22T08:56:49.952Z</time>
      </trkpt>
      <trkpt lat="46.74026" lon="-2.0002">
        <ele>4.7</ele>
        <time>2025-01-22T08:56:50.952Z</time>
      </trkpt>
      <trkpt lat="46.74027" lon="-2.00018">
        <ele>4.6</ele>
        <time>2025-01-22T08:56:51.952Z</time>
      </trkpt>
      <trkpt lat="46.74028" lon="-2.00016">
        <ele>4.5</ele>
        <time>2025-01-22T08:56:52.952Z</time>
      </trkpt>
      <trkpt lat="46.7403" lon="-2.00012">
        <ele>4.4</ele>
        <time>2025-01-22T08:56:53.953Z</time>
      </trkpt>
      <trkpt lat="46.74032" lon="-2.00009">
        <ele>4.3</ele>
        <time>2025-01-22T08:56:54.953Z</time>
      </trkpt>
      <trkpt lat="46.74033" lon="-2.00006">
        <ele>4.2</ele>
        <time>2025-01-22T08:56:55.952Z</time>
      </trkpt>
      <trkpt lat="46.74034" lon="-2.00004">
        <ele>4.1</ele>
        <time>2025-01-22T08:56:56.952Z</time>
      </trkpt>
      <trkpt lat="46.74034" lon="-2.00002">
        <ele>4</ele>
        <time>2025-01-22T08:56:57.953Z</time>
      </trkpt>
      <trkpt lat="46.74035" lon="-1.99999">
        <ele>4</ele>
        <time>2025-01-22T08:56:58.952Z</time>
      </trkpt>
      <trkpt lat="46.74037" lon="-1.99997">
        <ele>4</ele>
        <time>2025-01-22T08:56:59.953Z</time>
      </trkpt>
      <trkpt lat="46.74038" lon="-1.99994">
        <ele>4</ele>
        <time>2025-01-22T08:57:00.953Z</time>
      </trkpt>
      <trkpt lat="46.74039" lon="-1.9999">
        <ele>4</ele>
        <time>2025-01-22T08:57:01.953Z</time>
      </trkpt>
      <trkpt lat="46.7404" lon="-1.99987">
        <ele>4</ele>
        <time>2025-01-22T08:57:02.953Z</time>
      </trkpt>
      <trkpt lat="46.74042" lon="-1.99985">
        <ele>4</ele>
        <time>2025-01-22T08:57:03.952Z</time>
      </trkpt>
      <trkpt lat="46.74044" lon="-1.99982">
        <ele>4</ele>
        <time>2025-01-22T08:57:04.952Z</time>
      </trkpt>
      <trkpt lat="46.74046" lon="-1.99979">
        <ele>4</ele>
        <time>2025-01-22T08:57:05.952Z</time>
      </trkpt>
      <trkpt lat="46.74047" lon="-1.99975">
        <ele>4</ele>
        <time>2025-01-22T08:57:06.952Z</time>
      </trkpt>
      <trkpt lat="46.74048" lon="-1.99972">
        <ele>4</ele>
        <time>2025-01-22T08:57:07.953Z</time>
      </trkpt>
      <trkpt lat="46.74049" lon="-1.99969">
        <ele>4</ele>
        <time>2025-01-22T08:57:08.952Z</time>
      </trkpt>
      <trkpt lat="46.74052" lon="-1.99966">
        <ele>4</ele>
        <time>2025-01-22T08:57:09.953Z</time>
      </trkpt>
      <trkpt lat="46.74054" lon="-1.99963">
        <ele>4</ele>
        <time>2025-01-22T08:57:10.952Z</time>
      </trkpt>
      <trkpt lat="46.74056" lon="-1.9996">
        <ele>4</ele>
        <time>2025-01-22T08:57:11.952Z</time>
      </trkpt>
      <trkpt lat="46.74058" lon="-1.99956">
        <ele>4</ele>
        <time>2025-01-22T08:57:12.952Z</time>
      </trkpt>
      <trkpt lat="46.7406" lon="-1.99953">
        <ele>4</ele>
        <time>2025-01-22T08:57:13.953Z</time>
      </trkpt>
      <trkpt lat="46.74062" lon="-1.9995">
        <ele>4</ele>
        <time>2025-01-22T08:57:14.953Z</time>
      </trkpt>
      <trkpt lat="46.74064" lon="-1.99947">
        <ele>4</ele>
        <time>2025-01-22T08:57:15.952Z</time>
      </trkpt>
      <trkpt lat="46.74065" lon="-1.99944">
        <ele>4</ele>
        <time>2025-01-22T08:57:16.953Z</time>
      </trkpt>
      <trkpt lat="46.74065" lon="-1.99942">
        <ele>4</ele>
        <time>2025-01-22T08:57:17.952Z</time>
      </trkpt>
      <trkpt lat="46.74066" lon="-1.99941">
        <ele>4</ele>
        <time>2025-01-22T08:57:18.952Z</time>
      </trkpt>
      <trkpt lat="46.74067" lon="-1.99938">
        <ele>4</ele>
        <time>2025-01-22T08:57:19.952Z</time>
      </trkpt>
      <trkpt lat="46.74068" lon="-1.99936">
        <ele>4</ele>
        <time>2025-01-22T08:57:20.952Z</time>
      </trkpt>
      <trkpt lat="46.74069" lon="-1.99933">
        <ele>4</ele>
        <time>2025-01-22T08:57:21.952Z</time>
      </trkpt>
      <trkpt lat="46.7407" lon="-1.9993">
        <ele>4</ele>
        <time>2025-01-22T08:57:22.952Z</time>
      </trkpt>
      <trkpt lat="46.74072" lon="-1.99927">
        <ele>4</ele>
        <time>2025-01-22T08:57:23.952Z</time>
      </trkpt>
      <trkpt lat="46.74073" lon="-1.99924">
        <ele>4</ele>
        <time>2025-01-22T08:57:24.953Z</time>
      </trkpt>
      <trkpt lat="46.74075" lon="-1.99921">
        <ele>4</ele>
        <time>2025-01-22T08:57:25.953Z</time>
      </trkpt>
      <trkpt lat="46.74075" lon="-1.99919">
        <ele>4</ele>
        <time>2025-01-22T08:57:26.952Z</time>
      </trkpt>
      <trkpt lat="46.74075" lon="-1.99916">
        <ele>4</ele>
        <time>2025-01-22T08:57:27.952Z</time>
      </trkpt>
      <trkpt lat="46.74074" lon="-1.99914">
        <ele>4.1</ele>
        <time>2025-01-22T08:57:28.953Z</time>
      </trkpt>
      <trkpt lat="46.74073" lon="-1.99911">
        <ele>4.1</ele>
        <time>2025-01-22T08:57:29.953Z</time>
      </trkpt>
      <trkpt lat="46.74073" lon="-1.99908">
        <ele>4.2</ele>
        <time>2025-01-22T08:57:30.952Z</time>
      </trkpt>
      <trkpt lat="46.74072" lon="-1.99904">
        <ele>4.3</ele>
        <time>2025-01-22T08:57:31.952Z</time>
      </trkpt>
      <trkpt lat="46.74072" lon="-1.99901">
        <ele>4.3</ele>
        <time>2025-01-22T08:57:32.953Z</time>
      </trkpt>
      <trkpt lat="46.74071" lon="-1.99898">
        <ele>4.4</ele>
        <time>2025-01-22T08:57:33.953Z</time>
      </trkpt>
      <trkpt lat="46.74071" lon="-1.99894">
        <ele>4.4</ele>
        <time>2025-01-22T08:57:34.953Z</time>
      </trkpt>
      <trkpt lat="46.74071" lon="-1.99892">
        <ele>4.5</ele>
        <time>2025-01-22T08:57:35.952Z</time>
      </trkpt>
      <trkpt lat="46.74073" lon="-1.99889">
        <ele>4.6</ele>
        <time>2025-01-22T08:57:36.952Z</time>
      </trkpt>
      <trkpt lat="46.74075" lon="-1.99886">
        <ele>4.8</ele>
        <time>2025-01-22T08:57:37.952Z</time>
      </trkpt>
      <trkpt lat="46.74076" lon="-1.99883">
        <ele>4.9</ele>
        <time>2025-01-22T08:57:38.953Z</time>
      </trkpt>
      <trkpt lat="46.74078" lon="-1.9988">
        <ele>5.1</ele>
        <time>2025-01-22T08:57:39.953Z</time>
      </trkpt>
      <trkpt lat="46.74078" lon="-1.99877">
        <ele>5.2</ele>
        <time>2025-01-22T08:57:40.952Z</time>
      </trkpt>
      <trkpt lat="46.7408" lon="-1.99874">
        <ele>5.3</ele>
        <time>2025-01-22T08:57:41.952Z</time>
      </trkpt>
      <trkpt lat="46.7408" lon="-1.99871">
        <ele>5.5</ele>
        <time>2025-01-22T08:57:42.953Z</time>
      </trkpt>
      <trkpt lat="46.7408" lon="-1.99867">
        <ele>5.5</ele>
        <time>2025-01-22T08:57:43.952Z</time>
      </trkpt>
      <trkpt lat="46.7408" lon="-1.99865">
        <ele>5.6</ele>
        <time>2025-01-22T08:57:44.952Z</time>
      </trkpt>
      <trkpt lat="46.7408" lon="-1.99862">
        <ele>5.7</ele>
        <time>2025-01-22T08:57:45.952Z</time>
      </trkpt>
      <trkpt lat="46.74081" lon="-1.99859">
        <ele>5.7</ele>
        <time>2025-01-22T08:57:46.953Z</time>
      </trkpt>
      <trkpt lat="46.74082" lon="-1.99856">
        <ele>5.7</ele>
        <time>2025-01-22T08:57:47.953Z</time>
      </trkpt>
      <trkpt lat="46.74083" lon="-1.99853">
        <ele>5.7</ele>
        <time>2025-01-22T08:57:48.952Z</time>
      </trkpt>
      <trkpt lat="46.74084" lon="-1.99851">
        <ele>5.7</ele>
        <time>2025-01-22T08:57:49.952Z</time>
      </trkpt>
      <trkpt lat="46.74085" lon="-1.99848">
        <ele>5.6</ele>
        <time>2025-01-22T08:57:50.953Z</time>
      </trkpt>
      <trkpt lat="46.74086" lon="-1.99845">
        <ele>5.5</ele>
        <time>2025-01-22T08:57:51.953Z</time>
      </trkpt>
      <trkpt lat="46.74086" lon="-1.99842">
        <ele>5.4</ele>
        <time>2025-01-22T08:57:52.953Z</time>
      </trkpt>
      <trkpt lat="46.74086" lon="-1.99839">
        <ele>5.3</ele>
        <time>2025-01-22T08:57:53.953Z</time>
      </trkpt>
      <trkpt lat="46.74086" lon="-1.99836">
        <ele>5.2</ele>
        <time>2025-01-22T08:57:54.953Z</time>
      </trkpt>
      <trkpt lat="46.74086" lon="-1.99833">
        <ele>5.1</ele>
        <time>2025-01-22T08:57:55.952Z</time>
      </trkpt>
      <trkpt lat="46.74086" lon="-1.9983">
        <ele>5.2</ele>
        <time>2025-01-22T08:57:56.953Z</time>
      </trkpt>
      <trkpt lat="46.74086" lon="-1.99827">
        <ele>5.3</ele>
        <time>2025-01-22T08:57:57.952Z</time>
      </trkpt>
      <trkpt lat="46.74085" lon="-1.99823">
        <ele>5.4</ele>
        <time>2025-01-22T08:57:58.953Z</time>
      </trkpt>
      <trkpt lat="46.74085" lon="-1.99818">
        <ele>5.6</ele>
        <time>2025-01-22T08:57:59.952Z</time>
      </trkpt>
      <trkpt lat="46.74085" lon="-1.99814">
        <ele>5.7</ele>
        <time>2025-01-22T08:58:00.953Z</time>
      </trkpt>
      <trkpt lat="46.74084" lon="-1.9981">
        <ele>5.9</ele>
        <time>2025-01-22T08:58:01.952Z</time>
      </trkpt>
      <trkpt lat="46.74085" lon="-1.99807">
        <ele>6</ele>
        <time>2025-01-22T08:58:02.952Z</time>
      </trkpt>
      <trkpt lat="46.74085" lon="-1.99803">
        <ele>6.1</ele>
        <time>2025-01-22T08:58:03.952Z</time>
      </trkpt>
      <trkpt lat="46.74085" lon="-1.998">
        <ele>6.2</ele>
        <time>2025-01-22T08:58:04.952Z</time>
      </trkpt>
      <trkpt lat="46.74086" lon="-1.99797">
        <ele>6.3</ele>
        <time>2025-01-22T08:58:05.952Z</time>
      </trkpt>
      <trkpt lat="46.74086" lon="-1.99795">
        <ele>6.3</ele>
        <time>2025-01-22T08:58:06.952Z</time>
      </trkpt>
      <trkpt lat="46.74087" lon="-1.99793">
        <ele>6.3</ele>
        <time>2025-01-22T08:58:07.953Z</time>
      </trkpt>
      <trkpt lat="46.74089" lon="-1.99791">
        <ele>6.3</ele>
        <time>2025-01-22T08:58:08.953Z</time>
      </trkpt>
      <trkpt lat="46.74089" lon="-1.99788">
        <ele>6.4</ele>
        <time>2025-01-22T08:58:09.952Z</time>
      </trkpt>
      <trkpt lat="46.7409" lon="-1.99784">
        <ele>6.4</ele>
        <time>2025-01-22T08:58:10.953Z</time>
      </trkpt>
      <trkpt lat="46.7409" lon="-1.99781">
        <ele>6.5</ele>
        <time>2025-01-22T08:58:11.953Z</time>
      </trkpt>
      <trkpt lat="46.7409" lon="-1.99777">
        <ele>6.5</ele>
        <time>2025-01-22T08:58:12.953Z</time>
      </trkpt>
      <trkpt lat="46.74089" lon="-1.99774">
        <ele>6.6</ele>
        <time>2025-01-22T08:58:13.953Z</time>
      </trkpt>
      <trkpt lat="46.74089" lon="-1.99771">
        <ele>6.6</ele>
        <time>2025-01-22T08:58:14.953Z</time>
      </trkpt>
      <trkpt lat="46.74088" lon="-1.99768">
        <ele>6.7</ele>
        <time>2025-01-22T08:58:15.952Z</time>
      </trkpt>
      <trkpt lat="46.74088" lon="-1.99765">
        <ele>6.7</ele>
        <time>2025-01-22T08:58:16.952Z</time>
      </trkpt>
      <trkpt lat="46.74087" lon="-1.99762">
        <ele>6.7</ele>
        <time>2025-01-22T08:58:17.952Z</time>
      </trkpt>
      <trkpt lat="46.74088" lon="-1.99759">
        <ele>6.7</ele>
        <time>2025-01-22T08:58:18.952Z</time>
      </trkpt>
      <trkpt lat="46.74088" lon="-1.99756">
        <ele>6.7</ele>
        <time>2025-01-22T08:58:19.953Z</time>
      </trkpt>
      <trkpt lat="46.74088" lon="-1.99754">
        <ele>6.7</ele>
        <time>2025-01-22T08:58:20.953Z</time>
      </trkpt>
      <trkpt lat="46.74088" lon="-1.9975">
        <ele>6.7</ele>
        <time>2025-01-22T08:58:21.953Z</time>
      </trkpt>
      <trkpt lat="46.74088" lon="-1.99748">
        <ele>6.6</ele>
        <time>2025-01-22T08:58:22.952Z</time>
      </trkpt>
      <trkpt lat="46.74087" lon="-1.99745">
        <ele>6.6</ele>
        <time>2025-01-22T08:58:23.953Z</time>
      </trkpt>
      <trkpt lat="46.74088" lon="-1.99741">
        <ele>6.4</ele>
        <time>2025-01-22T08:58:24.952Z</time>
      </trkpt>
      <trkpt lat="46.74088" lon="-1.99738">
        <ele>6.3</ele>
        <time>2025-01-22T08:58:25.952Z</time>
      </trkpt>
      <trkpt lat="46.74087" lon="-1.99737">
        <ele>6.3</ele>
        <time>2025-01-22T08:58:26.952Z</time>
      </trkpt>
      <trkpt lat="46.74086" lon="-1.99735">
        <ele>6.3</ele>
        <time>2025-01-22T08:58:27.953Z</time>
      </trkpt>
      <trkpt lat="46.74084" lon="-1.99734">
        <ele>6.4</ele>
        <time>2025-01-22T08:58:28.952Z</time>
      </trkpt>
      <trkpt lat="46.74082" lon="-1.99734">
        <ele>6.4</ele>
        <time>2025-01-22T08:58:29.952Z</time>
      </trkpt>
      <trkpt lat="46.74079" lon="-1.99733">
        <ele>6.4</ele>
        <time>2025-01-22T08:58:30.952Z</time>
      </trkpt>
      <trkpt lat="46.74077" lon="-1.99732">
        <ele>6.4</ele>
        <time>2025-01-22T08:58:31.952Z</time>
      </trkpt>
      <trkpt lat="46.74073" lon="-1.99728">
        <ele>6.3</ele>
        <time>2025-01-22T08:58:32.952Z</time>
      </trkpt>
      <trkpt lat="46.7407" lon="-1.99725">
        <ele>6.2</ele>
        <time>2025-01-22T08:58:33.952Z</time>
      </trkpt>
      <trkpt lat="46.74067" lon="-1.99724">
        <ele>6.1</ele>
        <time>2025-01-22T08:58:34.952Z</time>
      </trkpt>
      <trkpt lat="46.74065" lon="-1.99723">
        <ele>6</ele>
        <time>2025-01-22T08:58:35.953Z</time>
      </trkpt>
      <trkpt lat="46.74062" lon="-1.99723">
        <ele>6</ele>
        <time>2025-01-22T08:58:36.953Z</time>
      </trkpt>
      <trkpt lat="46.7406" lon="-1.99722">
        <ele>6</ele>
        <time>2025-01-22T08:58:37.952Z</time>
      </trkpt>
      <trkpt lat="46.74057" lon="-1.99721">
        <ele>6</ele>
        <time>2025-01-22T08:58:38.952Z</time>
      </trkpt>
      <trkpt lat="46.74055" lon="-1.99721">
        <ele>6</ele>
        <time>2025-01-22T08:58:39.952Z</time>
      </trkpt>
      <trkpt lat="46.74052" lon="-1.99721">
        <ele>6.1</ele>
        <time>2025-01-22T08:58:40.953Z</time>
      </trkpt>
      <trkpt lat="46.74049" lon="-1.99721">
        <ele>6.2</ele>
        <time>2025-01-22T08:58:41.952Z</time>
      </trkpt>
      <trkpt lat="46.74046" lon="-1.99721">
        <ele>6.3</ele>
        <time>2025-01-22T08:58:42.953Z</time>
      </trkpt>
      <trkpt lat="46.74044" lon="-1.99721">
        <ele>6.4</ele>
        <time>2025-01-22T08:58:43.952Z</time>
      </trkpt>
      <trkpt lat="46.74041" lon="-1.99721">
        <ele>6.5</ele>
        <time>2025-01-22T08:58:44.953Z</time>
      </trkpt>
      <trkpt lat="46.74038" lon="-1.99721">
        <ele>6.6</ele>
        <time>2025-01-22T08:58:45.953Z</time>
      </trkpt>
      <trkpt lat="46.74036" lon="-1.99722">
        <ele>6.7</ele>
        <time>2025-01-22T08:58:46.952Z</time>
      </trkpt>
      <trkpt lat="46.74033" lon="-1.99722">
        <ele>6.8</ele>
        <time>2025-01-22T08:58:47.952Z</time>
      </trkpt>
      <trkpt lat="46.74031" lon="-1.99723">
        <ele>6.9</ele>
        <time>2025-01-22T08:58:48.953Z</time>
      </trkpt>
      <trkpt lat="46.74029" lon="-1.99723">
        <ele>7</ele>
        <time>2025-01-22T08:58:49.953Z</time>
      </trkpt>
      <trkpt lat="46.74026" lon="-1.99722">
        <ele>7</ele>
        <time>2025-01-22T08:58:50.953Z</time>
      </trkpt>
      <trkpt lat="46.74024" lon="-1.99721">
        <ele>7</ele>
        <time>2025-01-22T08:58:51.953Z</time>
      </trkpt>
      <trkpt lat="46.74022" lon="-1.99721">
        <ele>7</ele>
        <time>2025-01-22T08:58:52.953Z</time>
      </trkpt>
      <trkpt lat="46.7402" lon="-1.9972">
        <ele>7</ele>
        <time>2025-01-22T08:58:53.953Z</time>
      </trkpt>
      <trkpt lat="46.74018" lon="-1.99719">
        <ele>6.9</ele>
        <time>2025-01-22T08:58:54.952Z</time>
      </trkpt>
      <trkpt lat="46.74016" lon="-1.99719">
        <ele>6.9</ele>
        <time>2025-01-22T08:58:55.952Z</time>
      </trkpt>
      <trkpt lat="46.74014" lon="-1.99718">
        <ele>6.8</ele>
        <time>2025-01-22T08:58:56.952Z</time>
      </trkpt>
      <trkpt lat="46.74011" lon="-1.99718">
        <ele>6.8</ele>
        <time>2025-01-22T08:58:57.952Z</time>
      </trkpt>
      <trkpt lat="46.74009" lon="-1.99717">
        <ele>6.7</ele>
        <time>2025-01-22T08:58:58.952Z</time>
      </trkpt>
      <trkpt lat="46.74007" lon="-1.99716">
        <ele>6.7</ele>
        <time>2025-01-22T08:58:59.953Z</time>
      </trkpt>
      <trkpt lat="46.74005" lon="-1.99715">
        <ele>6.6</ele>
        <time>2025-01-22T08:59:00.953Z</time>
      </trkpt>
      <trkpt lat="46.74004" lon="-1.99713">
        <ele>6.4</ele>
        <time>2025-01-22T08:59:01.953Z</time>
      </trkpt>
      <trkpt lat="46.74002" lon="-1.99711">
        <ele>6.2</ele>
        <time>2025-01-22T08:59:02.952Z</time>
      </trkpt>
      <trkpt lat="46.73999" lon="-1.99708">
        <ele>6</ele>
        <time>2025-01-22T08:59:03.952Z</time>
      </trkpt>
      <trkpt lat="46.73997" lon="-1.99707">
        <ele>5.9</ele>
        <time>2025-01-22T08:59:04.952Z</time>
      </trkpt>
      <trkpt lat="46.73995" lon="-1.99706">
        <ele>5.8</ele>
        <time>2025-01-22T08:59:05.953Z</time>
      </trkpt>
      <trkpt lat="46.73993" lon="-1.99705">
        <ele>5.7</ele>
        <time>2025-01-22T08:59:06.953Z</time>
      </trkpt>
      <trkpt lat="46.7399" lon="-1.99704">
        <ele>5.7</ele>
        <time>2025-01-22T08:59:07.953Z</time>
      </trkpt>
      <trkpt lat="46.73988" lon="-1.99703">
        <ele>5.6</ele>
        <time>2025-01-22T08:59:08.953Z</time>
      </trkpt>
      <trkpt lat="46.73986" lon="-1.99702">
        <ele>5.6</ele>
        <time>2025-01-22T08:59:09.953Z</time>
      </trkpt>
      <trkpt lat="46.73983" lon="-1.99701">
        <ele>5.5</ele>
        <time>2025-01-22T08:59:10.952Z</time>
      </trkpt>
      <trkpt lat="46.73981" lon="-1.997">
        <ele>5.4</ele>
        <time>2025-01-22T08:59:11.952Z</time>
      </trkpt>
      <trkpt lat="46.73978" lon="-1.99699">
        <ele>5.3</ele>
        <time>2025-01-22T08:59:12.953Z</time>
      </trkpt>
      <trkpt lat="46.73976" lon="-1.99698">
        <ele>5.3</ele>
        <time>2025-01-22T08:59:13.953Z</time>
      </trkpt>
      <trkpt lat="46.73973" lon="-1.99698">
        <ele>5.3</ele>
        <time>2025-01-22T08:59:14.953Z</time>
      </trkpt>
      <trkpt lat="46.73971" lon="-1.99697">
        <ele>5.2</ele>
        <time>2025-01-22T08:59:15.953Z</time>
      </trkpt>
      <trkpt lat="46.73969" lon="-1.99696">
        <ele>5.1</ele>
        <time>2025-01-22T08:59:16.952Z</time>
      </trkpt>
      <trkpt lat="46.73967" lon="-1.99694">
        <ele>5</ele>
        <time>2025-01-22T08:59:17.953Z</time>
      </trkpt>
      <trkpt lat="46.73964" lon="-1.99693">
        <ele>5</ele>
        <time>2025-01-22T08:59:18.952Z</time>
      </trkpt>
      <trkpt lat="46.73962" lon="-1.99691">
        <ele>5</ele>
        <time>2025-01-22T08:59:19.953Z</time>
      </trkpt>
      <trkpt lat="46.7396" lon="-1.99688">
        <ele>5</ele>
        <time>2025-01-22T08:59:20.953Z</time>
      </trkpt>
      <trkpt lat="46.73957" lon="-1.99686">
        <ele>5</ele>
        <time>2025-01-22T08:59:21.953Z</time>
      </trkpt>
      <trkpt lat="46.73955" lon="-1.99683">
        <ele>5</ele>
        <time>2025-01-22T08:59:22.952Z</time>
      </trkpt>
      <trkpt lat="46.73953" lon="-1.99681">
        <ele>5</ele>
        <time>2025-01-22T08:59:23.952Z</time>
      </trkpt>
      <trkpt lat="46.7395" lon="-1.99678">
        <ele>5</ele>
        <time>2025-01-22T08:59:24.953Z</time>
      </trkpt>
      <trkpt lat="46.73948" lon="-1.99677">
        <ele>5</ele>
        <time>2025-01-22T08:59:25.953Z</time>
      </trkpt>
      <trkpt lat="46.73945" lon="-1.99674">
        <ele>5</ele>
        <time>2025-01-22T08:59:26.952Z</time>
      </trkpt>
      <trkpt lat="46.73943" lon="-1.99672">
        <ele>5</ele>
        <time>2025-01-22T08:59:27.953Z</time>
      </trkpt>
      <trkpt lat="46.7394" lon="-1.9967">
        <ele>5</ele>
        <time>2025-01-22T08:59:28.953Z</time>
      </trkpt>
      <trkpt lat="46.73938" lon="-1.99669">
        <ele>5</ele>
        <time>2025-01-22T08:59:29.952Z</time>
      </trkpt>
      <trkpt lat="46.73936" lon="-1.99667">
        <ele>5</ele>
        <time>2025-01-22T08:59:30.952Z</time>
      </trkpt>
      <trkpt lat="46.73934" lon="-1.99666">
        <ele>5</ele>
        <time>2025-01-22T08:59:31.952Z</time>
      </trkpt>
      <trkpt lat="46.73931" lon="-1.99665">
        <ele>5</ele>
        <time>2025-01-22T08:59:32.953Z</time>
      </trkpt>
      <trkpt lat="46.73929" lon="-1.99664">
        <ele>5</ele>
        <time>2025-01-22T08:59:33.953Z</time>
      </trkpt>
      <trkpt lat="46.73926" lon="-1.99664">
        <ele>5</ele>
        <time>2025-01-22T08:59:34.953Z</time>
      </trkpt>
      <trkpt lat="46.73924" lon="-1.99664">
        <ele>5</ele>
        <time>2025-01-22T08:59:35.952Z</time>
      </trkpt>
      <trkpt lat="46.73921" lon="-1.99664">
        <ele>5</ele>
        <time>2025-01-22T08:59:36.953Z</time>
      </trkpt>
      <trkpt lat="46.73919" lon="-1.99665">
        <ele>5</ele>
        <time>2025-01-22T08:59:37.952Z</time>
      </trkpt>
      <trkpt lat="46.73917" lon="-1.99666">
        <ele>5</ele>
        <time>2025-01-22T08:59:38.952Z</time>
      </trkpt>
      <trkpt lat="46.73916" lon="-1.99667">
        <ele>5.1</ele>
        <time>2025-01-22T08:59:39.952Z</time>
      </trkpt>
      <trkpt lat="46.73915" lon="-1.99668">
        <ele>5.3</ele>
        <time>2025-01-22T08:59:40.953Z</time>
      </trkpt>
      <trkpt lat="46.73913" lon="-1.99669">
        <ele>5.6</ele>
        <time>2025-01-22T08:59:41.952Z</time>
      </trkpt>
      <trkpt lat="46.73912" lon="-1.9967">
        <ele>5.9</ele>
        <time>2025-01-22T08:59:42.952Z</time>
      </trkpt>
      <trkpt lat="46.7391" lon="-1.99671">
        <ele>6.2</ele>
        <time>2025-01-22T08:59:43.952Z</time>
      </trkpt>
      <trkpt lat="46.73907" lon="-1.99671">
        <ele>6.6</ele>
        <time>2025-01-22T08:59:44.953Z</time>
      </trkpt>
      <trkpt lat="46.73905" lon="-1.99671">
        <ele>7</ele>
        <time>2025-01-22T08:59:45.953Z</time>
      </trkpt>
      <trkpt lat="46.73902" lon="-1.99671">
        <ele>7.4</ele>
        <time>2025-01-22T08:59:46.953Z</time>
      </trkpt>
      <trkpt lat="46.739" lon="-1.99671">
        <ele>7.6</ele>
        <time>2025-01-22T08:59:47.953Z</time>
      </trkpt>
      <trkpt lat="46.73898" lon="-1.9967">
        <ele>7.9</ele>
        <time>2025-01-22T08:59:48.953Z</time>
      </trkpt>
      <trkpt lat="46.73895" lon="-1.99669">
        <ele>8.2</ele>
        <time>2025-01-22T08:59:49.952Z</time>
      </trkpt>
      <trkpt lat="46.73894" lon="-1.99667">
        <ele>8.4</ele>
        <time>2025-01-22T08:59:50.953Z</time>
      </trkpt>
      <trkpt lat="46.73891" lon="-1.99665">
        <ele>8.5</ele>
        <time>2025-01-22T08:59:51.953Z</time>
      </trkpt>
      <trkpt lat="46.7389" lon="-1.99663">
        <ele>8.6</ele>
        <time>2025-01-22T08:59:52.952Z</time>
      </trkpt>
      <trkpt lat="46.73889" lon="-1.99661">
        <ele>8.5</ele>
        <time>2025-01-22T08:59:53.953Z</time>
      </trkpt>
      <trkpt lat="46.73887" lon="-1.99659">
        <ele>8.3</ele>
        <time>2025-01-22T08:59:54.952Z</time>
      </trkpt>
      <trkpt lat="46.73886" lon="-1.99658">
        <ele>8.2</ele>
        <time>2025-01-22T08:59:55.952Z</time>
      </trkpt>
      <trkpt lat="46.73884" lon="-1.99657">
        <ele>8</ele>
        <time>2025-01-22T08:59:56.952Z</time>
      </trkpt>
      <trkpt lat="46.73883" lon="-1.99656">
        <ele>7.9</ele>
        <time>2025-01-22T08:59:57.952Z</time>
      </trkpt>
      <trkpt lat="46.73881" lon="-1.99656">
        <ele>7.8</ele>
        <time>2025-01-22T08:59:58.953Z</time>
      </trkpt>
      <trkpt lat="46.73879" lon="-1.99654">
        <ele>7.7</ele>
        <time>2025-01-22T08:59:59.953Z</time>
      </trkpt>
      <trkpt lat="46.73878" lon="-1.99653">
        <ele>7.6</ele>
        <time>2025-01-22T09:00:00.953Z</time>
      </trkpt>
      <trkpt lat="46.73876" lon="-1.99651">
        <ele>7.5</ele>
        <time>2025-01-22T09:00:01.952Z</time>
      </trkpt>
      <trkpt lat="46.73875" lon="-1.9965">
        <ele>7.5</ele>
        <time>2025-01-22T09:00:02.952Z</time>
      </trkpt>
      <trkpt lat="46.73873" lon="-1.99648">
        <ele>7.5</ele>
        <time>2025-01-22T09:00:03.953Z</time>
      </trkpt>
      <trkpt lat="46.7387" lon="-1.99646">
        <ele>7.5</ele>
        <time>2025-01-22T09:00:04.953Z</time>
      </trkpt>
      <trkpt lat="46.73867" lon="-1.99645">
        <ele>7.5</ele>
        <time>2025-01-22T09:00:05.952Z</time>
      </trkpt>
      <trkpt lat="46.73864" lon="-1.99643">
        <ele>7.7</ele>
        <time>2025-01-22T09:00:06.952Z</time>
      </trkpt>
      <trkpt lat="46.73862" lon="-1.99641">
        <ele>7.8</ele>
        <time>2025-01-22T09:00:07.952Z</time>
      </trkpt>
      <trkpt lat="46.7386" lon="-1.99639">
        <ele>8</ele>
        <time>2025-01-22T09:00:08.953Z</time>
      </trkpt>
      <trkpt lat="46.73859" lon="-1.99637">
        <ele>7.9</ele>
        <time>2025-01-22T09:00:09.953Z</time>
      </trkpt>
      <trkpt lat="46.73857" lon="-1.99635">
        <ele>7.8</ele>
        <time>2025-01-22T09:00:10.952Z</time>
      </trkpt>
      <trkpt lat="46.73855" lon="-1.99633">
        <ele>7.8</ele>
        <time>2025-01-22T09:00:11.952Z</time>
      </trkpt>
      <trkpt lat="46.73854" lon="-1.99632">
        <ele>7.7</ele>
        <time>2025-01-22T09:00:12.952Z</time>
      </trkpt>
      <trkpt lat="46.73852" lon="-1.99629">
        <ele>7.5</ele>
        <time>2025-01-22T09:00:13.952Z</time>
      </trkpt>
      <trkpt lat="46.7385" lon="-1.99627">
        <ele>7.4</ele>
        <time>2025-01-22T09:00:14.952Z</time>
      </trkpt>
      <trkpt lat="46.73848" lon="-1.99624">
        <ele>7.2</ele>
        <time>2025-01-22T09:00:15.953Z</time>
      </trkpt>
      <trkpt lat="46.73846" lon="-1.99622">
        <ele>7</ele>
        <time>2025-01-22T09:00:16.953Z</time>
      </trkpt>
      <trkpt lat="46.73844" lon="-1.99619">
        <ele>6.8</ele>
        <time>2025-01-22T09:00:17.953Z</time>
      </trkpt>
      <trkpt lat="46.73842" lon="-1.99616">
        <ele>6.6</ele>
        <time>2025-01-22T09:00:18.952Z</time>
      </trkpt>
      <trkpt lat="46.7384" lon="-1.99614">
        <ele>6.4</ele>
        <time>2025-01-22T09:00:19.952Z</time>
      </trkpt>
      <trkpt lat="46.73838" lon="-1.99612">
        <ele>6.2</ele>
        <time>2025-01-22T09:00:20.952Z</time>
      </trkpt>
      <trkpt lat="46.73836" lon="-1.9961">
        <ele>6.1</ele>
        <time>2025-01-22T09:00:21.952Z</time>
      </trkpt>
      <trkpt lat="46.73833" lon="-1.99608">
        <ele>6</ele>
        <time>2025-01-22T09:00:22.953Z</time>
      </trkpt>
      <trkpt lat="46.73832" lon="-1.99606">
        <ele>6.3</ele>
        <time>2025-01-22T09:00:23.952Z</time>
      </trkpt>
      <trkpt lat="46.73829" lon="-1.99604">
        <ele>6.7</ele>
        <time>2025-01-22T09:00:24.952Z</time>
      </trkpt>
      <trkpt lat="46.73827" lon="-1.99601">
        <ele>6.9</ele>
        <time>2025-01-22T09:00:25.953Z</time>
      </trkpt>
      <trkpt lat="46.73825" lon="-1.99599">
        <ele>7.2</ele>
        <time>2025-01-22T09:00:26.953Z</time>
      </trkpt>
      <trkpt lat="46.73824" lon="-1.99597">
        <ele>7.4</ele>
        <time>2025-01-22T09:00:27.953Z</time>
      </trkpt>
      <trkpt lat="46.73822" lon="-1.99594">
        <ele>7.5</ele>
        <time>2025-01-22T09:00:28.953Z</time>
      </trkpt>
      <trkpt lat="46.73821" lon="-1.99593">
        <ele>7.6</ele>
        <time>2025-01-22T09:00:29.953Z</time>
      </trkpt>
      <trkpt lat="46.7382" lon="-1.99591">
        <ele>7.7</ele>
        <time>2025-01-22T09:00:30.953Z</time>
      </trkpt>
      <trkpt lat="46.73819" lon="-1.99589">
        <ele>7.8</ele>
        <time>2025-01-22T09:00:31.953Z</time>
      </trkpt>
      <trkpt lat="46.73817" lon="-1.99588">
        <ele>7.9</ele>
        <time>2025-01-22T09:00:32.953Z</time>
      </trkpt>
      <trkpt lat="46.73816" lon="-1.99587">
        <ele>8.1</ele>
        <time>2025-01-22T09:00:33.953Z</time>
      </trkpt>
      <trkpt lat="46.73815" lon="-1.99586">
        <ele>8.1</ele>
        <time>2025-01-22T09:00:34.952Z</time>
      </trkpt>
      <trkpt lat="46.73814" lon="-1.99586">
        <ele>8.3</ele>
        <time>2025-01-22T09:00:35.953Z</time>
      </trkpt>
      <trkpt lat="46.73813" lon="-1.99585">
        <ele>8.3</ele>
        <time>2025-01-22T09:00:36.952Z</time>
      </trkpt>
      <trkpt lat="46.73813" lon="-1.99583">
        <ele>8.2</ele>
        <time>2025-01-22T09:00:37.952Z</time>
      </trkpt>
      <trkpt lat="46.73812" lon="-1.99582">
        <ele>8.2</ele>
        <time>2025-01-22T09:00:38.952Z</time>
      </trkpt>
      <trkpt lat="46.7381" lon="-1.9958">
        <ele>8.2</ele>
        <time>2025-01-22T09:00:39.953Z</time>
      </trkpt>
      <trkpt lat="46.73808" lon="-1.99578">
        <ele>8.2</ele>
        <time>2025-01-22T09:00:40.952Z</time>
      </trkpt>
      <trkpt lat="46.73806" lon="-1.99576">
        <ele>8.2</ele>
        <time>2025-01-22T09:00:41.952Z</time>
      </trkpt>
      <trkpt lat="46.73803" lon="-1.99575">
        <ele>7.9</ele>
        <time>2025-01-22T09:00:42.953Z</time>
      </trkpt>
      <trkpt lat="46.73801" lon="-1.99573">
        <ele>7.6</ele>
        <time>2025-01-22T09:00:43.953Z</time>
      </trkpt>
      <trkpt lat="46.73799" lon="-1.99572">
        <ele>7.3</ele>
        <time>2025-01-22T09:00:44.953Z</time>
      </trkpt>
      <trkpt lat="46.73797" lon="-1.9957">
        <ele>7</ele>
        <time>2025-01-22T09:00:45.952Z</time>
      </trkpt>
      <trkpt lat="46.73795" lon="-1.99568">
        <ele>6.8</ele>
        <time>2025-01-22T09:00:46.953Z</time>
      </trkpt>
      <trkpt lat="46.73793" lon="-1.99566">
        <ele>6.6</ele>
        <time>2025-01-22T09:00:47.953Z</time>
      </trkpt>
      <trkpt lat="46.73792" lon="-1.99565">
        <ele>6.5</ele>
        <time>2025-01-22T09:00:48.953Z</time>
      </trkpt>
      <trkpt lat="46.7379" lon="-1.99564">
        <ele>6.4</ele>
        <time>2025-01-22T09:00:49.953Z</time>
      </trkpt>
      <trkpt lat="46.73788" lon="-1.99563">
        <ele>6.3</ele>
        <time>2025-01-22T09:00:50.952Z</time>
      </trkpt>
      <trkpt lat="46.73787" lon="-1.99561">
        <ele>6.2</ele>
        <time>2025-01-22T09:00:51.953Z</time>
      </trkpt>
      <trkpt lat="46.73785" lon="-1.99561">
        <ele>6.1</ele>
        <time>2025-01-22T09:00:52.953Z</time>
      </trkpt>
      <trkpt lat="46.73782" lon="-1.9956">
        <ele>6.1</ele>
        <time>2025-01-22T09:00:53.952Z</time>
      </trkpt>
      <trkpt lat="46.7378" lon="-1.99558">
        <ele>6</ele>
        <time>2025-01-22T09:00:54.953Z</time>
      </trkpt>
      <trkpt lat="46.73778" lon="-1.99556">
        <ele>6</ele>
        <time>2025-01-22T09:00:55.952Z</time>
      </trkpt>
      <trkpt lat="46.73776" lon="-1.99554">
        <ele>6</ele>
        <time>2025-01-22T09:00:56.953Z</time>
      </trkpt>
      <trkpt lat="46.73774" lon="-1.99553">
        <ele>6</ele>
        <time>2025-01-22T09:00:57.953Z</time>
      </trkpt>
      <trkpt lat="46.73773" lon="-1.99553">
        <ele>6</ele>
        <time>2025-01-22T09:00:58.953Z</time>
      </trkpt>
      <trkpt lat="46.73771" lon="-1.99554">
        <ele>6</ele>
        <time>2025-01-22T09:00:59.953Z</time>
      </trkpt>
      <trkpt lat="46.7377" lon="-1.99556">
        <ele>6</ele>
        <time>2025-01-22T09:01:00.952Z</time>
      </trkpt>
      <trkpt lat="46.73769" lon="-1.99558">
        <ele>6</ele>
        <time>2025-01-22T09:01:01.952Z</time>
      </trkpt>
      <trkpt lat="46.73767" lon="-1.99561">
        <ele>6</ele>
        <time>2025-01-22T09:01:02.952Z</time>
      </trkpt>
      <trkpt lat="46.73765" lon="-1.99564">
        <ele>6</ele>
        <time>2025-01-22T09:01:03.952Z</time>
      </trkpt>
      <trkpt lat="46.73764" lon="-1.99567">
        <ele>6</ele>
        <time>2025-01-22T09:01:04.953Z</time>
      </trkpt>
      <trkpt lat="46.73763" lon="-1.9957">
        <ele>6</ele>
        <time>2025-01-22T09:01:05.952Z</time>
      </trkpt>
      <trkpt lat="46.73762" lon="-1.99573">
        <ele>6</ele>
        <time>2025-01-22T09:01:06.952Z</time>
      </trkpt>
      <trkpt lat="46.73761" lon="-1.99576">
        <ele>6</ele>
        <time>2025-01-22T09:01:07.953Z</time>
      </trkpt>
      <trkpt lat="46.7376" lon="-1.99579">
        <ele>6</ele>
        <time>2025-01-22T09:01:08.953Z</time>
      </trkpt>
      <trkpt lat="46.73758" lon="-1.99581">
        <ele>6</ele>
        <time>2025-01-22T09:01:09.952Z</time>
      </trkpt>
      <trkpt lat="46.73757" lon="-1.99584">
        <ele>6</ele>
        <time>2025-01-22T09:01:10.952Z</time>
      </trkpt>
      <trkpt lat="46.73755" lon="-1.99587">
        <ele>6</ele>
        <time>2025-01-22T09:01:11.953Z</time>
      </trkpt>
      <trkpt lat="46.73754" lon="-1.9959">
        <ele>6.1</ele>
        <time>2025-01-22T09:01:12.952Z</time>
      </trkpt>
      <trkpt lat="46.73753" lon="-1.99594">
        <ele>6.1</ele>
        <time>2025-01-22T09:01:13.953Z</time>
      </trkpt>
      <trkpt lat="46.73753" lon="-1.99597">
        <ele>6.1</ele>
        <time>2025-01-22T09:01:14.953Z</time>
      </trkpt>
      <trkpt lat="46.73752" lon="-1.99601">
        <ele>6.1</ele>
        <time>2025-01-22T09:01:15.952Z</time>
      </trkpt>
      <trkpt lat="46.73751" lon="-1.99604">
        <ele>6.1</ele>
        <time>2025-01-22T09:01:16.952Z</time>
      </trkpt>
      <trkpt lat="46.73751" lon="-1.99607">
        <ele>6</ele>
        <time>2025-01-22T09:01:17.953Z</time>
      </trkpt>
      <trkpt lat="46.7375" lon="-1.99611">
        <ele>6</ele>
        <time>2025-01-22T09:01:18.953Z</time>
      </trkpt>
      <trkpt lat="46.7375" lon="-1.99615">
        <ele>6.2</ele>
        <time>2025-01-22T09:01:19.952Z</time>
      </trkpt>
      <trkpt lat="46.73749" lon="-1.99618">
        <ele>6.3</ele>
        <time>2025-01-22T09:01:20.953Z</time>
      </trkpt>
      <trkpt lat="46.73749" lon="-1.99622">
        <ele>6.5</ele>
        <time>2025-01-22T09:01:21.953Z</time>
      </trkpt>
      <trkpt lat="46.73748" lon="-1.99625">
        <ele>6.7</ele>
        <time>2025-01-22T09:01:22.952Z</time>
      </trkpt>
      <trkpt lat="46.73747" lon="-1.99628">
        <ele>6.9</ele>
        <time>2025-01-22T09:01:23.953Z</time>
      </trkpt>
      <trkpt lat="46.73745" lon="-1.99631">
        <ele>7.1</ele>
        <time>2025-01-22T09:01:24.953Z</time>
      </trkpt>
      <trkpt lat="46.73744" lon="-1.99635">
        <ele>7.3</ele>
        <time>2025-01-22T09:01:25.952Z</time>
      </trkpt>
      <trkpt lat="46.73743" lon="-1.99638">
        <ele>7.5</ele>
        <time>2025-01-22T09:01:26.952Z</time>
      </trkpt>
      <trkpt lat="46.73742" lon="-1.99642">
        <ele>7.6</ele>
        <time>2025-01-22T09:01:27.953Z</time>
      </trkpt>
      <trkpt lat="46.7374" lon="-1.99645">
        <ele>7.8</ele>
        <time>2025-01-22T09:01:28.953Z</time>
      </trkpt>
      <trkpt lat="46.73738" lon="-1.99648">
        <ele>8</ele>
        <time>2025-01-22T09:01:29.953Z</time>
      </trkpt>
      <trkpt lat="46.73736" lon="-1.99651">
        <ele>8.2</ele>
        <time>2025-01-22T09:01:30.952Z</time>
      </trkpt>
      <trkpt lat="46.73736" lon="-1.99654">
        <ele>8.3</ele>
        <time>2025-01-22T09:01:31.952Z</time>
      </trkpt>
      <trkpt lat="46.73735" lon="-1.99658">
        <ele>8.4</ele>
        <time>2025-01-22T09:01:32.952Z</time>
      </trkpt>
      <trkpt lat="46.73734" lon="-1.99661">
        <ele>8.5</ele>
        <time>2025-01-22T09:01:33.953Z</time>
      </trkpt>
      <trkpt lat="46.73733" lon="-1.99664">
        <ele>8.6</ele>
        <time>2025-01-22T09:01:34.953Z</time>
      </trkpt>
      <trkpt lat="46.73732" lon="-1.99667">
        <ele>8.7</ele>
        <time>2025-01-22T09:01:35.953Z</time>
      </trkpt>
      <trkpt lat="46.73731" lon="-1.99671">
        <ele>8.9</ele>
        <time>2025-01-22T09:01:36.953Z</time>
      </trkpt>
      <trkpt lat="46.7373" lon="-1.99675">
        <ele>9.2</ele>
        <time>2025-01-22T09:01:37.952Z</time>
      </trkpt>
      <trkpt lat="46.73729" lon="-1.99678">
        <ele>9.4</ele>
        <time>2025-01-22T09:01:38.952Z</time>
      </trkpt>
      <trkpt lat="46.73727" lon="-1.99681">
        <ele>9.5</ele>
        <time>2025-01-22T09:01:39.952Z</time>
      </trkpt>
      <trkpt lat="46.73726" lon="-1.99684">
        <ele>9.7</ele>
        <time>2025-01-22T09:01:40.953Z</time>
      </trkpt>
      <trkpt lat="46.73725" lon="-1.99686">
        <ele>9.7</ele>
        <time>2025-01-22T09:01:41.953Z</time>
      </trkpt>
      <trkpt lat="46.73723" lon="-1.99688">
        <ele>9.8</ele>
        <time>2025-01-22T09:01:42.952Z</time>
      </trkpt>
      <trkpt lat="46.73723" lon="-1.99691">
        <ele>9.9</ele>
        <time>2025-01-22T09:01:43.952Z</time>
      </trkpt>
      <trkpt lat="46.73722" lon="-1.99694">
        <ele>10.2</ele>
        <time>2025-01-22T09:01:44.953Z</time>
      </trkpt>
      <trkpt lat="46.73721" lon="-1.99696">
        <ele>10.5</ele>
        <time>2025-01-22T09:01:45.952Z</time>
      </trkpt>
      <trkpt lat="46.7372" lon="-1.99699">
        <ele>10.8</ele>
        <time>2025-01-22T09:01:46.953Z</time>
      </trkpt>
      <trkpt lat="46.73719" lon="-1.99702">
        <ele>11.1</ele>
        <time>2025-01-22T09:01:47.952Z</time>
      </trkpt>
      <trkpt lat="46.73719" lon="-1.99704">
        <ele>11.4</ele>
        <time>2025-01-22T09:01:48.952Z</time>
      </trkpt>
      <trkpt lat="46.73718" lon="-1.99707">
        <ele>11.7</ele>
        <time>2025-01-22T09:01:49.952Z</time>
      </trkpt>
      <trkpt lat="46.73716" lon="-1.99709">
        <ele>12</ele>
        <time>2025-01-22T09:01:50.953Z</time>
      </trkpt>
      <trkpt lat="46.73715" lon="-1.99712">
        <ele>12.2</ele>
        <time>2025-01-22T09:01:51.953Z</time>
      </trkpt>
      <trkpt lat="46.73715" lon="-1.99714">
        <ele>12.4</ele>
        <time>2025-01-22T09:01:52.953Z</time>
      </trkpt>
      <trkpt lat="46.73714" lon="-1.99717">
        <ele>12.5</ele>
        <time>2025-01-22T09:01:53.952Z</time>
      </trkpt>
      <trkpt lat="46.73714" lon="-1.99719">
        <ele>12.6</ele>
        <time>2025-01-22T09:01:54.953Z</time>
      </trkpt>
      <trkpt lat="46.73713" lon="-1.99722">
        <ele>12.6</ele>
        <time>2025-01-22T09:01:55.953Z</time>
      </trkpt>
      <trkpt lat="46.73713" lon="-1.99724">
        <ele>12.7</ele>
        <time>2025-01-22T09:01:56.953Z</time>
      </trkpt>
      <trkpt lat="46.73713" lon="-1.99727">
        <ele>12.7</ele>
        <time>2025-01-22T09:01:57.952Z</time>
      </trkpt>
      <trkpt lat="46.73714" lon="-1.99729">
        <ele>12.7</ele>
        <time>2025-01-22T09:01:58.952Z</time>
      </trkpt>
      <trkpt lat="46.73715" lon="-1.99731">
        <ele>12.7</ele>
        <time>2025-01-22T09:01:59.952Z</time>
      </trkpt>
      <trkpt lat="46.73715" lon="-1.99733">
        <ele>12.8</ele>
        <time>2025-01-22T09:02:00.952Z</time>
      </trkpt>
      <trkpt lat="46.73714" lon="-1.99734">
        <ele>12.8</ele>
        <time>2025-01-22T09:02:01.953Z</time>
      </trkpt>
      <trkpt lat="46.73713" lon="-1.99736">
        <ele>12.8</ele>
        <time>2025-01-22T09:02:02.953Z</time>
      </trkpt>
      <trkpt lat="46.73713" lon="-1.99738">
        <ele>12.8</ele>
        <time>2025-01-22T09:02:03.952Z</time>
      </trkpt>
      <trkpt lat="46.73712" lon="-1.99739">
        <ele>12.8</ele>
        <time>2025-01-22T09:02:04.952Z</time>
      </trkpt>
      <trkpt lat="46.73711" lon="-1.99741">
        <ele>12.8</ele>
        <time>2025-01-22T09:02:05.952Z</time>
      </trkpt>
      <trkpt lat="46.73711" lon="-1.99742">
        <ele>12.8</ele>
        <time>2025-01-22T09:02:06.952Z</time>
      </trkpt>
      <trkpt lat="46.7371" lon="-1.99743">
        <ele>12.7</ele>
        <time>2025-01-22T09:02:07.953Z</time>
      </trkpt>
      <trkpt lat="46.73709" lon="-1.99744">
        <ele>12.7</ele>
        <time>2025-01-22T09:02:08.953Z</time>
      </trkpt>
      <trkpt lat="46.73709" lon="-1.99745">
        <ele>12.6</ele>
        <time>2025-01-22T09:02:09.953Z</time>
      </trkpt>
      <trkpt lat="46.73708" lon="-1.99746">
        <ele>12.5</ele>
        <time>2025-01-22T09:02:10.952Z</time>
      </trkpt>
      <trkpt lat="46.73707" lon="-1.99747">
        <ele>12.4</ele>
        <time>2025-01-22T09:02:11.952Z</time>
      </trkpt>
      <trkpt lat="46.73706" lon="-1.99749">
        <ele>12.3</ele>
        <time>2025-01-22T09:02:12.953Z</time>
      </trkpt>
      <trkpt lat="46.73705" lon="-1.9975">
        <ele>12.2</ele>
        <time>2025-01-22T09:02:13.953Z</time>
      </trkpt>
      <trkpt lat="46.73706" lon="-1.99752">
        <ele>12.2</ele>
        <time>2025-01-22T09:02:14.952Z</time>
      </trkpt>
      <trkpt lat="46.73705" lon="-1.99754">
        <ele>12.2</ele>
        <time>2025-01-22T09:02:15.953Z</time>
      </trkpt>
      <trkpt lat="46.73705" lon="-1.99757">
        <ele>12.3</ele>
        <time>2025-01-22T09:02:16.953Z</time>
      </trkpt>
      <trkpt lat="46.73705" lon="-1.99759">
        <ele>12.3</ele>
        <time>2025-01-22T09:02:17.952Z</time>
      </trkpt>
      <trkpt lat="46.73705" lon="-1.99761">
        <ele>12.3</ele>
        <time>2025-01-22T09:02:18.953Z</time>
      </trkpt>
      <trkpt lat="46.73705" lon="-1.99763">
        <ele>12.3</ele>
        <time>2025-01-22T09:02:19.952Z</time>
      </trkpt>
      <trkpt lat="46.73704" lon="-1.99764">
        <ele>12.4</ele>
        <time>2025-01-22T09:02:20.953Z</time>
      </trkpt>
      <trkpt lat="46.73704" lon="-1.99766">
        <ele>12.4</ele>
        <time>2025-01-22T09:02:21.952Z</time>
      </trkpt>
      <trkpt lat="46.73703" lon="-1.99767">
        <ele>12.4</ele>
        <time>2025-01-22T09:02:22.953Z</time>
      </trkpt>
      <trkpt lat="46.73702" lon="-1.99767">
        <ele>12.4</ele>
        <time>2025-01-22T09:02:23.953Z</time>
      </trkpt>
      <trkpt lat="46.73701" lon="-1.99768">
        <ele>12.4</ele>
        <time>2025-01-22T09:02:24.953Z</time>
      </trkpt>
      <trkpt lat="46.737" lon="-1.99769">
        <ele>12.4</ele>
        <time>2025-01-22T09:02:25.953Z</time>
      </trkpt>
      <trkpt lat="46.73698" lon="-1.99771">
        <ele>12.5</ele>
        <time>2025-01-22T09:02:26.953Z</time>
      </trkpt>
      <trkpt lat="46.73697" lon="-1.99773">
        <ele>12.6</ele>
        <time>2025-01-22T09:02:27.952Z</time>
      </trkpt>
      <trkpt lat="46.73696" lon="-1.99775">
        <ele>12.8</ele>
        <time>2025-01-22T09:02:28.953Z</time>
      </trkpt>
      <trkpt lat="46.73695" lon="-1.99778">
        <ele>13</ele>
        <time>2025-01-22T09:02:29.953Z</time>
      </trkpt>
      <trkpt lat="46.73694" lon="-1.99781">
        <ele>13.2</ele>
        <time>2025-01-22T09:02:30.953Z</time>
      </trkpt>
      <trkpt lat="46.73693" lon="-1.99784">
        <ele>13</ele>
        <time>2025-01-22T09:02:31.953Z</time>
      </trkpt>
      <trkpt lat="46.73692" lon="-1.99787">
        <ele>12.9</ele>
        <time>2025-01-22T09:02:32.952Z</time>
      </trkpt>
      <trkpt lat="46.73691" lon="-1.9979">
        <ele>12.7</ele>
        <time>2025-01-22T09:02:33.952Z</time>
      </trkpt>
      <trkpt lat="46.7369" lon="-1.99794">
        <ele>12.5</ele>
        <time>2025-01-22T09:02:34.953Z</time>
      </trkpt>
      <trkpt lat="46.73688" lon="-1.99797">
        <ele>12.1</ele>
        <time>2025-01-22T09:02:35.952Z</time>
      </trkpt>
      <trkpt lat="46.73687" lon="-1.998">
        <ele>11.9</ele>
        <time>2025-01-22T09:02:36.952Z</time>
      </trkpt>
      <trkpt lat="46.73686" lon="-1.99804">
        <ele>11.8</ele>
        <time>2025-01-22T09:02:37.953Z</time>
      </trkpt>
      <trkpt lat="46.73685" lon="-1.99807">
        <ele>11.7</ele>
        <time>2025-01-22T09:02:38.953Z</time>
      </trkpt>
      <trkpt lat="46.73684" lon="-1.9981">
        <ele>11.7</ele>
        <time>2025-01-22T09:02:39.952Z</time>
      </trkpt>
      <trkpt lat="46.73683" lon="-1.99814">
        <ele>11.7</ele>
        <time>2025-01-22T09:02:40.953Z</time>
      </trkpt>
      <trkpt lat="46.73683" lon="-1.99817">
        <ele>11.9</ele>
        <time>2025-01-22T09:02:41.953Z</time>
      </trkpt>
      <trkpt lat="46.73682" lon="-1.9982">
        <ele>12.1</ele>
        <time>2025-01-22T09:02:42.953Z</time>
      </trkpt>
      <trkpt lat="46.73681" lon="-1.99824">
        <ele>12.4</ele>
        <time>2025-01-22T09:02:43.952Z</time>
      </trkpt>
      <trkpt lat="46.7368" lon="-1.99827">
        <ele>12.6</ele>
        <time>2025-01-22T09:02:44.952Z</time>
      </trkpt>
      <trkpt lat="46.73679" lon="-1.9983">
        <ele>12.9</ele>
        <time>2025-01-22T09:02:45.953Z</time>
      </trkpt>
      <trkpt lat="46.73678" lon="-1.99831">
        <ele>13.1</ele>
        <time>2025-01-22T09:02:46.952Z</time>
      </trkpt>
      <trkpt lat="46.73678" lon="-1.99834">
        <ele>13.5</ele>
        <time>2025-01-22T09:02:47.952Z</time>
      </trkpt>
      <trkpt lat="46.73677" lon="-1.99836">
        <ele>13.6</ele>
        <time>2025-01-22T09:02:48.953Z</time>
      </trkpt>
      <trkpt lat="46.73676" lon="-1.99838">
        <ele>13.8</ele>
        <time>2025-01-22T09:02:49.953Z</time>
      </trkpt>
      <trkpt lat="46.73675" lon="-1.9984">
        <ele>13.9</ele>
        <time>2025-01-22T09:02:50.952Z</time>
      </trkpt>
      <trkpt lat="46.73675" lon="-1.99841">
        <ele>14.1</ele>
        <time>2025-01-22T09:02:51.953Z</time>
      </trkpt>
      <trkpt lat="46.73674" lon="-1.99843">
        <ele>14.3</ele>
        <time>2025-01-22T09:02:52.953Z</time>
      </trkpt>
      <trkpt lat="46.73674" lon="-1.99845">
        <ele>14.5</ele>
        <time>2025-01-22T09:02:53.952Z</time>
      </trkpt>
      <trkpt lat="46.73674" lon="-1.99846">
        <ele>14.7</ele>
        <time>2025-01-22T09:02:54.953Z</time>
      </trkpt>
      <trkpt lat="46.73673" lon="-1.99848">
        <ele>14.9</ele>
        <time>2025-01-22T09:02:55.953Z</time>
      </trkpt>
      <trkpt lat="46.73673" lon="-1.9985">
        <ele>15.1</ele>
        <time>2025-01-22T09:02:56.952Z</time>
      </trkpt>
      <trkpt lat="46.73672" lon="-1.99851">
        <ele>15.3</ele>
        <time>2025-01-22T09:02:57.952Z</time>
      </trkpt>
      <trkpt lat="46.73672" lon="-1.99853">
        <ele>15.5</ele>
        <time>2025-01-22T09:02:58.952Z</time>
      </trkpt>
      <trkpt lat="46.73671" lon="-1.99855">
        <ele>15.8</ele>
        <time>2025-01-22T09:02:59.953Z</time>
      </trkpt>
      <trkpt lat="46.73671" lon="-1.99857">
        <ele>16.1</ele>
        <time>2025-01-22T09:03:00.952Z</time>
      </trkpt>
      <trkpt lat="46.7367" lon="-1.9986">
        <ele>16.5</ele>
        <time>2025-01-22T09:03:01.953Z</time>
      </trkpt>
      <trkpt lat="46.73669" lon="-1.99863">
        <ele>16.6</ele>
        <time>2025-01-22T09:03:02.952Z</time>
      </trkpt>
      <trkpt lat="46.73668" lon="-1.99866">
        <ele>16.3</ele>
        <time>2025-01-22T09:03:03.952Z</time>
      </trkpt>
      <trkpt lat="46.73668" lon="-1.99869">
        <ele>16.1</ele>
        <time>2025-01-22T09:03:04.952Z</time>
      </trkpt>
      <trkpt lat="46.73668" lon="-1.99872">
        <ele>15.8</ele>
        <time>2025-01-22T09:03:05.953Z</time>
      </trkpt>
      <trkpt lat="46.73668" lon="-1.99874">
        <ele>15.5</ele>
        <time>2025-01-22T09:03:06.953Z</time>
      </trkpt>
      <trkpt lat="46.73669" lon="-1.99877">
        <ele>15.1</ele>
        <time>2025-01-22T09:03:07.952Z</time>
      </trkpt>
      <trkpt lat="46.7367" lon="-1.9988">
        <ele>14.8</ele>
        <time>2025-01-22T09:03:08.953Z</time>
      </trkpt>
      <trkpt lat="46.7367" lon="-1.99883">
        <ele>14.4</ele>
        <time>2025-01-22T09:03:09.952Z</time>
      </trkpt>
      <trkpt lat="46.73671" lon="-1.99885">
        <ele>14.2</ele>
        <time>2025-01-22T09:03:10.952Z</time>
      </trkpt>
      <trkpt lat="46.73672" lon="-1.99887">
        <ele>14</ele>
        <time>2025-01-22T09:03:11.952Z</time>
      </trkpt>
      <trkpt lat="46.73673" lon="-1.99889">
        <ele>13.8</ele>
        <time>2025-01-22T09:03:12.952Z</time>
      </trkpt>
      <trkpt lat="46.73674" lon="-1.99891">
        <ele>13.4</ele>
        <time>2025-01-22T09:03:13.952Z</time>
      </trkpt>
      <trkpt lat="46.73675" lon="-1.99894">
        <ele>13.1</ele>
        <time>2025-01-22T09:03:14.953Z</time>
      </trkpt>
      <trkpt lat="46.73676" lon="-1.99897">
        <ele>12.8</ele>
        <time>2025-01-22T09:03:15.952Z</time>
      </trkpt>
      <trkpt lat="46.73677" lon="-1.999">
        <ele>12.5</ele>
        <time>2025-01-22T09:03:16.952Z</time>
      </trkpt>
      <trkpt lat="46.73678" lon="-1.99903">
        <ele>12.3</ele>
        <time>2025-01-22T09:03:17.952Z</time>
      </trkpt>
      <trkpt lat="46.73679" lon="-1.99906">
        <ele>12.1</ele>
        <time>2025-01-22T09:03:18.953Z</time>
      </trkpt>
      <trkpt lat="46.7368" lon="-1.99909">
        <ele>11.9</ele>
        <time>2025-01-22T09:03:19.953Z</time>
      </trkpt>
      <trkpt lat="46.73681" lon="-1.99912">
        <ele>11.8</ele>
        <time>2025-01-22T09:03:20.952Z</time>
      </trkpt>
      <trkpt lat="46.73682" lon="-1.99915">
        <ele>11.8</ele>
        <time>2025-01-22T09:03:21.952Z</time>
      </trkpt>
      <trkpt lat="46.73682" lon="-1.99918">
        <ele>11.6</ele>
        <time>2025-01-22T09:03:22.953Z</time>
      </trkpt>
      <trkpt lat="46.73683" lon="-1.99921">
        <ele>11.4</ele>
        <time>2025-01-22T09:03:23.952Z</time>
      </trkpt>
      <trkpt lat="46.73684" lon="-1.99924">
        <ele>11.2</ele>
        <time>2025-01-22T09:03:24.952Z</time>
      </trkpt>
      <trkpt lat="46.73685" lon="-1.99927">
        <ele>11.1</ele>
        <time>2025-01-22T09:03:25.953Z</time>
      </trkpt>
      <trkpt lat="46.73686" lon="-1.9993">
        <ele>10.9</ele>
        <time>2025-01-22T09:03:26.953Z</time>
      </trkpt>
      <trkpt lat="46.73687" lon="-1.99933">
        <ele>10.7</ele>
        <time>2025-01-22T09:03:27.953Z</time>
      </trkpt>
      <trkpt lat="46.73688" lon="-1.99936">
        <ele>10.5</ele>
        <time>2025-01-22T09:03:28.952Z</time>
      </trkpt>
      <trkpt lat="46.73688" lon="-1.99938">
        <ele>10.3</ele>
        <time>2025-01-22T09:03:29.953Z</time>
      </trkpt>
      <trkpt lat="46.73688" lon="-1.99941">
        <ele>10.1</ele>
        <time>2025-01-22T09:03:30.952Z</time>
      </trkpt>
      <trkpt lat="46.73689" lon="-1.99943">
        <ele>10</ele>
        <time>2025-01-22T09:03:31.952Z</time>
      </trkpt>
      <trkpt lat="46.7369" lon="-1.99945">
        <ele>9.9</ele>
        <time>2025-01-22T09:03:32.952Z</time>
      </trkpt>
      <trkpt lat="46.73691" lon="-1.99948">
        <ele>10.1</ele>
        <time>2025-01-22T09:03:33.953Z</time>
      </trkpt>
      <trkpt lat="46.73692" lon="-1.99951">
        <ele>10.2</ele>
        <time>2025-01-22T09:03:34.953Z</time>
      </trkpt>
      <trkpt lat="46.73693" lon="-1.99954">
        <ele>10.4</ele>
        <time>2025-01-22T09:03:35.953Z</time>
      </trkpt>
      <trkpt lat="46.73694" lon="-1.99957">
        <ele>10.5</ele>
        <time>2025-01-22T09:03:36.952Z</time>
      </trkpt>
      <trkpt lat="46.73695" lon="-1.99959">
        <ele>10.6</ele>
        <time>2025-01-22T09:03:37.953Z</time>
      </trkpt>
      <trkpt lat="46.73697" lon="-1.99962">
        <ele>10.8</ele>
        <time>2025-01-22T09:03:38.952Z</time>
      </trkpt>
      <trkpt lat="46.73698" lon="-1.99964">
        <ele>10.9</ele>
        <time>2025-01-22T09:03:39.952Z</time>
      </trkpt>
      <trkpt lat="46.73699" lon="-1.99966">
        <ele>11</ele>
        <time>2025-01-22T09:03:40.952Z</time>
      </trkpt>
      <trkpt lat="46.737" lon="-1.99968">
        <ele>11.2</ele>
        <time>2025-01-22T09:03:41.952Z</time>
      </trkpt>
      <trkpt lat="46.737" lon="-1.9997">
        <ele>11.3</ele>
        <time>2025-01-22T09:03:42.952Z</time>
      </trkpt>
      <trkpt lat="46.73701" lon="-1.99972">
        <ele>11.4</ele>
        <time>2025-01-22T09:03:43.952Z</time>
      </trkpt>
      <trkpt lat="46.73702" lon="-1.99974">
        <ele>11.7</ele>
        <time>2025-01-22T09:03:44.953Z</time>
      </trkpt>
      <trkpt lat="46.73703" lon="-1.99976">
        <ele>12.1</ele>
        <time>2025-01-22T09:03:45.952Z</time>
      </trkpt>
      <trkpt lat="46.73704" lon="-1.99978">
        <ele>12.5</ele>
        <time>2025-01-22T09:03:46.952Z</time>
      </trkpt>
      <trkpt lat="46.73704" lon="-1.99981">
        <ele>12.8</ele>
        <time>2025-01-22T09:03:47.952Z</time>
      </trkpt>
      <trkpt lat="46.73705" lon="-1.99983">
        <ele>13.2</ele>
        <time>2025-01-22T09:03:48.953Z</time>
      </trkpt>
      <trkpt lat="46.73706" lon="-1.99985">
        <ele>13.5</ele>
        <time>2025-01-22T09:03:49.952Z</time>
      </trkpt>
      <trkpt lat="46.73707" lon="-1.99987">
        <ele>13.8</ele>
        <time>2025-01-22T09:03:50.953Z</time>
      </trkpt>
      <trkpt lat="46.73707" lon="-1.9999">
        <ele>14.1</ele>
        <time>2025-01-22T09:03:51.953Z</time>
      </trkpt>
      <trkpt lat="46.73708" lon="-1.99992">
        <ele>14.4</ele>
        <time>2025-01-22T09:03:52.953Z</time>
      </trkpt>
      <trkpt lat="46.73709" lon="-1.99994">
        <ele>14.6</ele>
        <time>2025-01-22T09:03:53.952Z</time>
      </trkpt>
      <trkpt lat="46.7371" lon="-1.99996">
        <ele>14.9</ele>
        <time>2025-01-22T09:03:54.952Z</time>
      </trkpt>
      <trkpt lat="46.7371" lon="-1.99998">
        <ele>15.1</ele>
        <time>2025-01-22T09:03:55.952Z</time>
      </trkpt>
      <trkpt lat="46.73711" lon="-2.00001">
        <ele>15.3</ele>
        <time>2025-01-22T09:03:56.952Z</time>
      </trkpt>
      <trkpt lat="46.73712" lon="-2.00003">
        <ele>15.3</ele>
        <time>2025-01-22T09:03:57.952Z</time>
      </trkpt>
      <trkpt lat="46.73712" lon="-2.00006">
        <ele>15.2</ele>
        <time>2025-01-22T09:03:58.952Z</time>
      </trkpt>
      <trkpt lat="46.73713" lon="-2.00008">
        <ele>15.2</ele>
        <time>2025-01-22T09:03:59.953Z</time>
      </trkpt>
      <trkpt lat="46.73714" lon="-2.0001">
        <ele>15.2</ele>
        <time>2025-01-22T09:04:00.952Z</time>
      </trkpt>
      <trkpt lat="46.73715" lon="-2.00013">
        <ele>15.1</ele>
        <time>2025-01-22T09:04:01.952Z</time>
      </trkpt>
      <trkpt lat="46.73716" lon="-2.00016">
        <ele>15.1</ele>
        <time>2025-01-22T09:04:02.952Z</time>
      </trkpt>
      <trkpt lat="46.73717" lon="-2.00019">
        <ele>15.1</ele>
        <time>2025-01-22T09:04:03.952Z</time>
      </trkpt>
      <trkpt lat="46.73719" lon="-2.00021">
        <ele>15.1</ele>
        <time>2025-01-22T09:04:04.952Z</time>
      </trkpt>
      <trkpt lat="46.7372" lon="-2.00024">
        <ele>15</ele>
        <time>2025-01-22T09:04:05.953Z</time>
      </trkpt>
      <trkpt lat="46.73722" lon="-2.00027">
        <ele>15</ele>
        <time>2025-01-22T09:04:06.952Z</time>
      </trkpt>
      <trkpt lat="46.73723" lon="-2.00029">
        <ele>14.6</ele>
        <time>2025-01-22T09:04:07.952Z</time>
      </trkpt>
      <trkpt lat="46.73725" lon="-2.00032">
        <ele>13.9</ele>
        <time>2025-01-22T09:04:08.952Z</time>
      </trkpt>
      <trkpt lat="46.73726" lon="-2.00034">
        <ele>13.3</ele>
        <time>2025-01-22T09:04:09.952Z</time>
      </trkpt>
      <trkpt lat="46.73728" lon="-2.00036">
        <ele>12.9</ele>
        <time>2025-01-22T09:04:10.952Z</time>
      </trkpt>
      <trkpt lat="46.7373" lon="-2.00037">
        <ele>12.6</ele>
        <time>2025-01-22T09:04:11.952Z</time>
      </trkpt>
      <trkpt lat="46.73731" lon="-2.00038">
        <ele>12.3</ele>
        <time>2025-01-22T09:04:12.952Z</time>
      </trkpt>
      <trkpt lat="46.73733" lon="-2.00039">
        <ele>12.1</ele>
        <time>2025-01-22T09:04:13.953Z</time>
      </trkpt>
      <trkpt lat="46.73736" lon="-2.00041">
        <ele>11.8</ele>
        <time>2025-01-22T09:04:14.953Z</time>
      </trkpt>
      <trkpt lat="46.73737" lon="-2.00043">
        <ele>11.7</ele>
        <time>2025-01-22T09:04:15.952Z</time>
      </trkpt>
      <trkpt lat="46.73739" lon="-2.00045">
        <ele>11.5</ele>
        <time>2025-01-22T09:04:16.952Z</time>
      </trkpt>
      <trkpt lat="46.73741" lon="-2.00047">
        <ele>11.4</ele>
        <time>2025-01-22T09:04:17.952Z</time>
      </trkpt>
      <trkpt lat="46.73743" lon="-2.00049">
        <ele>11.4</ele>
        <time>2025-01-22T09:04:18.953Z</time>
      </trkpt>
      <trkpt lat="46.73745" lon="-2.00051">
        <ele>11.5</ele>
        <time>2025-01-22T09:04:19.952Z</time>
      </trkpt>
      <trkpt lat="46.73746" lon="-2.00053">
        <ele>11.6</ele>
        <time>2025-01-22T09:04:20.953Z</time>
      </trkpt>
      <trkpt lat="46.73748" lon="-2.00056">
        <ele>11.8</ele>
        <time>2025-01-22T09:04:21.952Z</time>
      </trkpt>
      <trkpt lat="46.7375" lon="-2.00058">
        <ele>11.7</ele>
        <time>2025-01-22T09:04:22.952Z</time>
      </trkpt>
      <trkpt lat="46.73752" lon="-2.0006">
        <ele>11.3</ele>
        <time>2025-01-22T09:04:23.952Z</time>
      </trkpt>
      <trkpt lat="46.73754" lon="-2.00062">
        <ele>11</ele>
        <time>2025-01-22T09:04:24.953Z</time>
      </trkpt>
      <trkpt lat="46.73756" lon="-2.00064">
        <ele>10.6</ele>
        <time>2025-01-22T09:04:25.952Z</time>
      </trkpt>
      <trkpt lat="46.73758" lon="-2.00066">
        <ele>10.3</ele>
        <time>2025-01-22T09:04:26.953Z</time>
      </trkpt>
      <trkpt lat="46.7376" lon="-2.00069">
        <ele>10</ele>
        <time>2025-01-22T09:04:27.953Z</time>
      </trkpt>
      <trkpt lat="46.73762" lon="-2.00072">
        <ele>9.7</ele>
        <time>2025-01-22T09:04:28.953Z</time>
      </trkpt>
      <trkpt lat="46.73764" lon="-2.00074">
        <ele>9.5</ele>
        <time>2025-01-22T09:04:29.953Z</time>
      </trkpt>
      <trkpt lat="46.73766" lon="-2.00076">
        <ele>9.4</ele>
        <time>2025-01-22T09:04:30.953Z</time>
      </trkpt>
      <trkpt lat="46.73768" lon="-2.00078">
        <ele>9.2</ele>
        <time>2025-01-22T09:04:31.952Z</time>
      </trkpt>
      <trkpt lat="46.7377" lon="-2.00079">
        <ele>9.1</ele>
        <time>2025-01-22T09:04:32.952Z</time>
      </trkpt>
      <trkpt lat="46.73772" lon="-2.00081">
        <ele>9</ele>
        <time>2025-01-22T09:04:33.952Z</time>
      </trkpt>
      <trkpt lat="46.73774" lon="-2.00082">
        <ele>9</ele>
        <time>2025-01-22T09:04:34.952Z</time>
      </trkpt>
      <trkpt lat="46.73775" lon="-2.00085">
        <ele>9</ele>
        <time>2025-01-22T09:04:35.953Z</time>
      </trkpt>
      <trkpt lat="46.73775" lon="-2.00087">
        <ele>9.1</ele>
        <time>2025-01-22T09:04:36.953Z</time>
      </trkpt>
      <trkpt lat="46.73775" lon="-2.00089">
        <ele>9.1</ele>
        <time>2025-01-22T09:04:37.952Z</time>
      </trkpt>
      <trkpt lat="46.73773" lon="-2.00091">
        <ele>9.1</ele>
        <time>2025-01-22T09:04:38.952Z</time>
      </trkpt>
      <trkpt lat="46.73771" lon="-2.00093">
        <ele>9.1</ele>
        <time>2025-01-22T09:04:39.952Z</time>
      </trkpt>
      <trkpt lat="46.7377" lon="-2.00095">
        <ele>9</ele>
        <time>2025-01-22T09:04:40.952Z</time>
      </trkpt>
      <trkpt lat="46.73767" lon="-2.00097">
        <ele>8.9</ele>
        <time>2025-01-22T09:04:41.952Z</time>
      </trkpt>
      <trkpt lat="46.73765" lon="-2.00098">
        <ele>8.8</ele>
        <time>2025-01-22T09:04:42.952Z</time>
      </trkpt>
      <trkpt lat="46.73763" lon="-2.001">
        <ele>8.6</ele>
        <time>2025-01-22T09:04:43.953Z</time>
      </trkpt>
      <trkpt lat="46.7376" lon="-2.00102">
        <ele>8.4</ele>
        <time>2025-01-22T09:04:44.953Z</time>
      </trkpt>
      <trkpt lat="46.73758" lon="-2.00104">
        <ele>8.2</ele>
        <time>2025-01-22T09:04:45.952Z</time>
      </trkpt>
      <trkpt lat="46.73756" lon="-2.00105">
        <ele>7.9</ele>
        <time>2025-01-22T09:04:46.952Z</time>
      </trkpt>
      <trkpt lat="46.73754" lon="-2.00107">
        <ele>7.6</ele>
        <time>2025-01-22T09:04:47.952Z</time>
      </trkpt>
      <trkpt lat="46.73752" lon="-2.00108">
        <ele>7.4</ele>
        <time>2025-01-22T09:04:48.953Z</time>
      </trkpt>
      <trkpt lat="46.7375" lon="-2.0011">
        <ele>7</ele>
        <time>2025-01-22T09:04:49.953Z</time>
      </trkpt>
      <trkpt lat="46.73747" lon="-2.00113">
        <ele>6.9</ele>
        <time>2025-01-22T09:04:50.953Z</time>
      </trkpt>
      <trkpt lat="46.73745" lon="-2.00115">
        <ele>6.9</ele>
        <time>2025-01-22T09:04:51.952Z</time>
      </trkpt>
      <trkpt lat="46.73742" lon="-2.00117">
        <ele>6.8</ele>
        <time>2025-01-22T09:04:52.952Z</time>
      </trkpt>
      <trkpt lat="46.7374" lon="-2.00119">
        <ele>6.8</ele>
        <time>2025-01-22T09:04:53.952Z</time>
      </trkpt>
      <trkpt lat="46.73738" lon="-2.00121">
        <ele>6.6</ele>
        <time>2025-01-22T09:04:54.952Z</time>
      </trkpt>
      <trkpt lat="46.73736" lon="-2.00124">
        <ele>6.4</ele>
        <time>2025-01-22T09:04:55.952Z</time>
      </trkpt>
      <trkpt lat="46.73734" lon="-2.00126">
        <ele>6.2</ele>
        <time>2025-01-22T09:04:56.952Z</time>
      </trkpt>
      <trkpt lat="46.73731" lon="-2.00129">
        <ele>5.8</ele>
        <time>2025-01-22T09:04:57.953Z</time>
      </trkpt>
      <trkpt lat="46.73729" lon="-2.00131">
        <ele>5.4</ele>
        <time>2025-01-22T09:04:58.953Z</time>
      </trkpt>
      <trkpt lat="46.73727" lon="-2.00133">
        <ele>5</ele>
        <time>2025-01-22T09:04:59.952Z</time>
      </trkpt>
      <trkpt lat="46.73725" lon="-2.00135">
        <ele>4.6</ele>
        <time>2025-01-22T09:05:00.953Z</time>
      </trkpt>
      <trkpt lat="46.73723" lon="-2.00137">
        <ele>4.3</ele>
        <time>2025-01-22T09:05:01.952Z</time>
      </trkpt>
      <trkpt lat="46.73721" lon="-2.00138">
        <ele>4</ele>
        <time>2025-01-22T09:05:02.952Z</time>
      </trkpt>
      <trkpt lat="46.7372" lon="-2.0014">
        <ele>4.1</ele>
        <time>2025-01-22T09:05:03.952Z</time>
      </trkpt>
      <trkpt lat="46.73718" lon="-2.00142">
        <ele>4.2</ele>
        <time>2025-01-22T09:05:04.952Z</time>
      </trkpt>
      <trkpt lat="46.73715" lon="-2.00143">
        <ele>4.2</ele>
        <time>2025-01-22T09:05:05.952Z</time>
      </trkpt>
      <trkpt lat="46.73713" lon="-2.00145">
        <ele>4.3</ele>
        <time>2025-01-22T09:05:06.952Z</time>
      </trkpt>
      <trkpt lat="46.73711" lon="-2.00147">
        <ele>4.4</ele>
        <time>2025-01-22T09:05:07.952Z</time>
      </trkpt>
      <trkpt lat="46.73709" lon="-2.00149">
        <ele>4.4</ele>
        <time>2025-01-22T09:05:08.953Z</time>
      </trkpt>
      <trkpt lat="46.73707" lon="-2.00151">
        <ele>4.4</ele>
        <time>2025-01-22T09:05:09.953Z</time>
      </trkpt>
      <trkpt lat="46.73704" lon="-2.00153">
        <ele>4.4</ele>
        <time>2025-01-22T09:05:10.952Z</time>
      </trkpt>
      <trkpt lat="46.73702" lon="-2.00155">
        <ele>4.3</ele>
        <time>2025-01-22T09:05:11.952Z</time>
      </trkpt>
      <trkpt lat="46.737" lon="-2.00158">
        <ele>4.3</ele>
        <time>2025-01-22T09:05:12.952Z</time>
      </trkpt>
      <trkpt lat="46.73698" lon="-2.0016">
        <ele>4.2</ele>
        <time>2025-01-22T09:05:13.952Z</time>
      </trkpt>
      <trkpt lat="46.73696" lon="-2.00162">
        <ele>4.1</ele>
        <time>2025-01-22T09:05:14.952Z</time>
      </trkpt>
      <trkpt lat="46.73694" lon="-2.00164">
        <ele>4</ele>
        <time>2025-01-22T09:05:15.953Z</time>
      </trkpt>
      <trkpt lat="46.73692" lon="-2.00166">
        <ele>4.1</ele>
        <time>2025-01-22T09:05:16.952Z</time>
      </trkpt>
      <trkpt lat="46.73691" lon="-2.00168">
        <ele>4.3</ele>
        <time>2025-01-22T09:05:17.953Z</time>
      </trkpt>
      <trkpt lat="46.73689" lon="-2.00169">
        <ele>4.4</ele>
        <time>2025-01-22T09:05:18.952Z</time>
      </trkpt>
      <trkpt lat="46.73687" lon="-2.00171">
        <ele>4.5</ele>
        <time>2025-01-22T09:05:19.952Z</time>
      </trkpt>
      <trkpt lat="46.73685" lon="-2.00172">
        <ele>4.6</ele>
        <time>2025-01-22T09:05:20.953Z</time>
      </trkpt>
      <trkpt lat="46.73683" lon="-2.00174">
        <ele>4.8</ele>
        <time>2025-01-22T09:05:21.952Z</time>
      </trkpt>
      <trkpt lat="46.73681" lon="-2.00174">
        <ele>4.9</ele>
        <time>2025-01-22T09:05:22.952Z</time>
      </trkpt>
      <trkpt lat="46.73679" lon="-2.00175">
        <ele>5</ele>
        <time>2025-01-22T09:05:23.952Z</time>
      </trkpt>
      <trkpt lat="46.73676" lon="-2.00176">
        <ele>5.1</ele>
        <time>2025-01-22T09:05:24.953Z</time>
      </trkpt>
      <trkpt lat="46.73674" lon="-2.00177">
        <ele>5.2</ele>
        <time>2025-01-22T09:05:25.953Z</time>
      </trkpt>
      <trkpt lat="46.73672" lon="-2.00178">
        <ele>5.3</ele>
        <time>2025-01-22T09:05:26.953Z</time>
      </trkpt>
      <trkpt lat="46.7367" lon="-2.00179">
        <ele>5.4</ele>
        <time>2025-01-22T09:05:27.953Z</time>
      </trkpt>
      <trkpt lat="46.73668" lon="-2.0018">
        <ele>5.5</ele>
        <time>2025-01-22T09:05:28.952Z</time>
      </trkpt>
      <trkpt lat="46.73666" lon="-2.00181">
        <ele>5.5</ele>
        <time>2025-01-22T09:05:29.953Z</time>
      </trkpt>
      <trkpt lat="46.73664" lon="-2.00182">
        <ele>5.4</ele>
        <time>2025-01-22T09:05:30.952Z</time>
      </trkpt>
      <trkpt lat="46.73662" lon="-2.00184">
        <ele>5.4</ele>
        <time>2025-01-22T09:05:31.952Z</time>
      </trkpt>
      <trkpt lat="46.7366" lon="-2.00185">
        <ele>5.3</ele>
        <time>2025-01-22T09:05:32.952Z</time>
      </trkpt>
      <trkpt lat="46.73658" lon="-2.00186">
        <ele>5.3</ele>
        <time>2025-01-22T09:05:33.952Z</time>
      </trkpt>
      <trkpt lat="46.73656" lon="-2.00188">
        <ele>5.2</ele>
        <time>2025-01-22T09:05:34.952Z</time>
      </trkpt>
      <trkpt lat="46.73654" lon="-2.00188">
        <ele>5.2</ele>
        <time>2025-01-22T09:05:35.952Z</time>
      </trkpt>
      <trkpt lat="46.73653" lon="-2.00189">
        <ele>5.2</ele>
        <time>2025-01-22T09:05:36.952Z</time>
      </trkpt>
      <trkpt lat="46.73651" lon="-2.00189">
        <ele>5.2</ele>
        <time>2025-01-22T09:05:37.952Z</time>
      </trkpt>
      <trkpt lat="46.73649" lon="-2.0019">
        <ele>5.2</ele>
        <time>2025-01-22T09:05:38.953Z</time>
      </trkpt>
      <trkpt lat="46.73647" lon="-2.00189">
        <ele>5.2</ele>
        <time>2025-01-22T09:05:39.952Z</time>
      </trkpt>
      <trkpt lat="46.73645" lon="-2.00189">
        <ele>5.2</ele>
        <time>2025-01-22T09:05:40.952Z</time>
      </trkpt>
      <trkpt lat="46.73644" lon="-2.00188">
        <ele>5.2</ele>
        <time>2025-01-22T09:05:41.953Z</time>
      </trkpt>
      <trkpt lat="46.73642" lon="-2.00187">
        <ele>5.3</ele>
        <time>2025-01-22T09:05:42.953Z</time>
      </trkpt>
      <trkpt lat="46.7364" lon="-2.00185">
        <ele>5.3</ele>
        <time>2025-01-22T09:05:43.953Z</time>
      </trkpt>
      <trkpt lat="46.73638" lon="-2.00183">
        <ele>5.4</ele>
        <time>2025-01-22T09:05:44.953Z</time>
      </trkpt>
      <trkpt lat="46.73637" lon="-2.00181">
        <ele>5.4</ele>
        <time>2025-01-22T09:05:45.952Z</time>
      </trkpt>
      <trkpt lat="46.73636" lon="-2.00179">
        <ele>5.5</ele>
        <time>2025-01-22T09:05:46.952Z</time>
      </trkpt>
      <trkpt lat="46.73634" lon="-2.00177">
        <ele>5.5</ele>
        <time>2025-01-22T09:05:47.953Z</time>
      </trkpt>
      <trkpt lat="46.73633" lon="-2.00176">
        <ele>5.5</ele>
        <time>2025-01-22T09:05:48.953Z</time>
      </trkpt>
      <trkpt lat="46.73631" lon="-2.00174">
        <ele>5.5</ele>
        <time>2025-01-22T09:05:49.953Z</time>
      </trkpt>
      <trkpt lat="46.7363" lon="-2.00171">
        <ele>5.6</ele>
        <time>2025-01-22T09:05:50.953Z</time>
      </trkpt>
      <trkpt lat="46.73629" lon="-2.00169">
        <ele>5.6</ele>
        <time>2025-01-22T09:05:51.952Z</time>
      </trkpt>
      <trkpt lat="46.73627" lon="-2.00166">
        <ele>5.6</ele>
        <time>2025-01-22T09:05:52.952Z</time>
      </trkpt>
      <trkpt lat="46.73626" lon="-2.00164">
        <ele>5.7</ele>
        <time>2025-01-22T09:05:53.952Z</time>
      </trkpt>
      <trkpt lat="46.73624" lon="-2.00161">
        <ele>5.8</ele>
        <time>2025-01-22T09:05:54.952Z</time>
      </trkpt>
      <trkpt lat="46.73623" lon="-2.00159">
        <ele>5.8</ele>
        <time>2025-01-22T09:05:55.952Z</time>
      </trkpt>
      <trkpt lat="46.73621" lon="-2.00157">
        <ele>6</ele>
        <time>2025-01-22T09:05:56.953Z</time>
      </trkpt>
      <trkpt lat="46.7362" lon="-2.00154">
        <ele>6.1</ele>
        <time>2025-01-22T09:05:57.953Z</time>
      </trkpt>
      <trkpt lat="46.73618" lon="-2.00152">
        <ele>6.2</ele>
        <time>2025-01-22T09:05:58.953Z</time>
      </trkpt>
      <trkpt lat="46.73617" lon="-2.00149">
        <ele>6.3</ele>
        <time>2025-01-22T09:05:59.953Z</time>
      </trkpt>
      <trkpt lat="46.73615" lon="-2.00147">
        <ele>6.5</ele>
        <time>2025-01-22T09:06:00.953Z</time>
      </trkpt>
      <trkpt lat="46.73613" lon="-2.00144">
        <ele>6.6</ele>
        <time>2025-01-22T09:06:01.953Z</time>
      </trkpt>
      <trkpt lat="46.73612" lon="-2.00142">
        <ele>6.8</ele>
        <time>2025-01-22T09:06:02.952Z</time>
      </trkpt>
      <trkpt lat="46.7361" lon="-2.00139">
        <ele>7</ele>
        <time>2025-01-22T09:06:03.953Z</time>
      </trkpt>
      <trkpt lat="46.73609" lon="-2.00137">
        <ele>6.8</ele>
        <time>2025-01-22T09:06:04.952Z</time>
      </trkpt>
      <trkpt lat="46.73607" lon="-2.00135">
        <ele>6.7</ele>
        <time>2025-01-22T09:06:05.953Z</time>
      </trkpt>
      <trkpt lat="46.73606" lon="-2.00133">
        <ele>6.6</ele>
        <time>2025-01-22T09:06:06.953Z</time>
      </trkpt>
      <trkpt lat="46.73604" lon="-2.00131">
        <ele>6.5</ele>
        <time>2025-01-22T09:06:07.952Z</time>
      </trkpt>
      <trkpt lat="46.73603" lon="-2.00129">
        <ele>6.4</ele>
        <time>2025-01-22T09:06:08.952Z</time>
      </trkpt>
      <trkpt lat="46.73601" lon="-2.00127">
        <ele>6.3</ele>
        <time>2025-01-22T09:06:09.952Z</time>
      </trkpt>
      <trkpt lat="46.736" lon="-2.00125">
        <ele>6.2</ele>
        <time>2025-01-22T09:06:10.953Z</time>
      </trkpt>
      <trkpt lat="46.73598" lon="-2.00123">
        <ele>6.1</ele>
        <time>2025-01-22T09:06:11.953Z</time>
      </trkpt>
      <trkpt lat="46.73597" lon="-2.0012">
        <ele>6</ele>
        <time>2025-01-22T09:06:12.953Z</time>
      </trkpt>
      <trkpt lat="46.73595" lon="-2.00118">
        <ele>5.9</ele>
        <time>2025-01-22T09:06:13.953Z</time>
      </trkpt>
      <trkpt lat="46.73594" lon="-2.00115">
        <ele>5.8</ele>
        <time>2025-01-22T09:06:14.953Z</time>
      </trkpt>
      <trkpt lat="46.73592" lon="-2.00113">
        <ele>5.8</ele>
        <time>2025-01-22T09:06:15.953Z</time>
      </trkpt>
      <trkpt lat="46.73591" lon="-2.00111">
        <ele>5.7</ele>
        <time>2025-01-22T09:06:16.953Z</time>
      </trkpt>
      <trkpt lat="46.73589" lon="-2.00109">
        <ele>5.8</ele>
        <time>2025-01-22T09:06:17.952Z</time>
      </trkpt>
      <trkpt lat="46.73587" lon="-2.00106">
        <ele>5.8</ele>
        <time>2025-01-22T09:06:18.952Z</time>
      </trkpt>
      <trkpt lat="46.73585" lon="-2.00104">
        <ele>5.9</ele>
        <time>2025-01-22T09:06:19.952Z</time>
      </trkpt>
      <trkpt lat="46.73584" lon="-2.00102">
        <ele>6</ele>
        <time>2025-01-22T09:06:20.952Z</time>
      </trkpt>
      <trkpt lat="46.73582" lon="-2.001">
        <ele>5.9</ele>
        <time>2025-01-22T09:06:21.952Z</time>
      </trkpt>
      <trkpt lat="46.7358" lon="-2.00098">
        <ele>5.8</ele>
        <time>2025-01-22T09:06:22.952Z</time>
      </trkpt>
      <trkpt lat="46.73579" lon="-2.00096">
        <ele>5.7</ele>
        <time>2025-01-22T09:06:23.953Z</time>
      </trkpt>
      <trkpt lat="46.73577" lon="-2.00095">
        <ele>5.6</ele>
        <time>2025-01-22T09:06:24.952Z</time>
      </trkpt>
      <trkpt lat="46.73576" lon="-2.00092">
        <ele>5.5</ele>
        <time>2025-01-22T09:06:25.952Z</time>
      </trkpt>
      <trkpt lat="46.73574" lon="-2.0009">
        <ele>5.3</ele>
        <time>2025-01-22T09:06:26.953Z</time>
      </trkpt>
      <trkpt lat="46.73573" lon="-2.00087">
        <ele>5.2</ele>
        <time>2025-01-22T09:06:27.952Z</time>
      </trkpt>
      <trkpt lat="46.73571" lon="-2.00085">
        <ele>5.1</ele>
        <time>2025-01-22T09:06:28.952Z</time>
      </trkpt>
      <trkpt lat="46.73569" lon="-2.00082">
        <ele>4.9</ele>
        <time>2025-01-22T09:06:29.952Z</time>
      </trkpt>
      <trkpt lat="46.73567" lon="-2.0008">
        <ele>4.8</ele>
        <time>2025-01-22T09:06:30.953Z</time>
      </trkpt>
      <trkpt lat="46.73565" lon="-2.00077">
        <ele>4.7</ele>
        <time>2025-01-22T09:06:31.952Z</time>
      </trkpt>
      <trkpt lat="46.73563" lon="-2.00075">
        <ele>4.6</ele>
        <time>2025-01-22T09:06:32.952Z</time>
      </trkpt>
      <trkpt lat="46.73562" lon="-2.00073">
        <ele>4.6</ele>
        <time>2025-01-22T09:06:33.952Z</time>
      </trkpt>
      <trkpt lat="46.7356" lon="-2.0007">
        <ele>4.6</ele>
        <time>2025-01-22T09:06:34.952Z</time>
      </trkpt>
      <trkpt lat="46.73558" lon="-2.00067">
        <ele>4.6</ele>
        <time>2025-01-22T09:06:35.952Z</time>
      </trkpt>
      <trkpt lat="46.73557" lon="-2.00064">
        <ele>4.7</ele>
        <time>2025-01-22T09:06:36.953Z</time>
      </trkpt>
      <trkpt lat="46.73555" lon="-2.00062">
        <ele>4.8</ele>
        <time>2025-01-22T09:06:37.953Z</time>
      </trkpt>
      <trkpt lat="46.73554" lon="-2.00059">
        <ele>4.8</ele>
        <time>2025-01-22T09:06:38.953Z</time>
      </trkpt>
      <trkpt lat="46.73552" lon="-2.00056">
        <ele>4.7</ele>
        <time>2025-01-22T09:06:39.952Z</time>
      </trkpt>
      <trkpt lat="46.7355" lon="-2.00054">
        <ele>4.6</ele>
        <time>2025-01-22T09:06:40.952Z</time>
      </trkpt>
      <trkpt lat="46.73549" lon="-2.00051">
        <ele>4.5</ele>
        <time>2025-01-22T09:06:41.953Z</time>
      </trkpt>
      <trkpt lat="46.73547" lon="-2.00049">
        <ele>4.4</ele>
        <time>2025-01-22T09:06:42.953Z</time>
      </trkpt>
      <trkpt lat="46.73545" lon="-2.00047">
        <ele>4.2</ele>
        <time>2025-01-22T09:06:43.952Z</time>
      </trkpt>
      <trkpt lat="46.73544" lon="-2.00044">
        <ele>4.1</ele>
        <time>2025-01-22T09:06:44.953Z</time>
      </trkpt>
      <trkpt lat="46.73543" lon="-2.00042">
        <ele>4.1</ele>
        <time>2025-01-22T09:06:45.953Z</time>
      </trkpt>
      <trkpt lat="46.73542" lon="-2.00039">
        <ele>4</ele>
        <time>2025-01-22T09:06:46.952Z</time>
      </trkpt>
      <trkpt lat="46.73541" lon="-2.00036">
        <ele>3.9</ele>
        <time>2025-01-22T09:06:47.952Z</time>
      </trkpt>
      <trkpt lat="46.73541" lon="-2.00034">
        <ele>3.9</ele>
        <time>2025-01-22T09:06:48.952Z</time>
      </trkpt>
      <trkpt lat="46.73541" lon="-2.00032">
        <ele>3.9</ele>
        <time>2025-01-22T09:06:49.953Z</time>
      </trkpt>
      <trkpt lat="46.73541" lon="-2.00032">
        <ele>3.9</ele>
        <time>2025-01-22T09:06:50.953Z</time>
      </trkpt>
      <trkpt lat="46.7354" lon="-2.00031">
        <ele>3.9</ele>
        <time>2025-01-22T09:06:51.953Z</time>
      </trkpt>
      <trkpt lat="46.7354" lon="-2.0003">
        <ele>3.9</ele>
        <time>2025-01-22T09:06:52.953Z</time>
      </trkpt>
      <trkpt lat="46.7354" lon="-2.0003">
        <ele>3.9</ele>
        <time>2025-01-22T09:06:53.953Z</time>
      </trkpt>
      <trkpt lat="46.73539" lon="-2.00029">
        <ele>3.8</ele>
        <time>2025-01-22T09:06:54.952Z</time>
      </trkpt>
      <trkpt lat="46.73539" lon="-2.00029">
        <ele>3.8</ele>
        <time>2025-01-22T09:06:55.952Z</time>
      </trkpt>
      <trkpt lat="46.73539" lon="-2.00029">
        <ele>3.8</ele>
        <time>2025-01-22T09:06:56.952Z</time>
      </trkpt>
      <trkpt lat="46.73539" lon="-2.00028">
        <ele>3.8</ele>
        <time>2025-01-22T09:06:57.953Z</time>
      </trkpt>
      <trkpt lat="46.7354" lon="-2.00026">
        <ele>3.8</ele>
        <time>2025-01-22T09:06:58.953Z</time>
      </trkpt>
      <trkpt lat="46.7354" lon="-2.00023">
        <ele>3.8</ele>
        <time>2025-01-22T09:06:59.953Z</time>
      </trkpt>
      <trkpt lat="46.7354" lon="-2.0002">
        <ele>3.7</ele>
        <time>2025-01-22T09:07:00.953Z</time>
      </trkpt>
      <trkpt lat="46.7354" lon="-2.00016">
        <ele>3.7</ele>
        <time>2025-01-22T09:07:01.953Z</time>
      </trkpt>
      <trkpt lat="46.7354" lon="-2.00013">
        <ele>3.6</ele>
        <time>2025-01-22T09:07:02.952Z</time>
      </trkpt>
      <trkpt lat="46.7354" lon="-2.00009">
        <ele>3.6</ele>
        <time>2025-01-22T09:07:03.952Z</time>
      </trkpt>
      <trkpt lat="46.73539" lon="-2.00005">
        <ele>3.5</ele>
        <time>2025-01-22T09:07:04.952Z</time>
      </trkpt>
      <trkpt lat="46.73539" lon="-2.00002">
        <ele>3.4</ele>
        <time>2025-01-22T09:07:05.952Z</time>
      </trkpt>
      <trkpt lat="46.73539" lon="-1.99998">
        <ele>3.4</ele>
        <time>2025-01-22T09:07:06.953Z</time>
      </trkpt>
      <trkpt lat="46.73539" lon="-1.99995">
        <ele>3.4</ele>
        <time>2025-01-22T09:07:07.953Z</time>
      </trkpt>
      <trkpt lat="46.73539" lon="-1.99991">
        <ele>3.5</ele>
        <time>2025-01-22T09:07:08.953Z</time>
      </trkpt>
      <trkpt lat="46.7354" lon="-1.99988">
        <ele>3.5</ele>
        <time>2025-01-22T09:07:09.953Z</time>
      </trkpt>
      <trkpt lat="46.7354" lon="-1.99985">
        <ele>3.5</ele>
        <time>2025-01-22T09:07:10.953Z</time>
      </trkpt>
      <trkpt lat="46.7354" lon="-1.99981">
        <ele>3.5</ele>
        <time>2025-01-22T09:07:11.952Z</time>
      </trkpt>
      <trkpt lat="46.73541" lon="-1.99978">
        <ele>3.5</ele>
        <time>2025-01-22T09:07:12.952Z</time>
      </trkpt>
      <trkpt lat="46.73542" lon="-1.99974">
        <ele>3.5</ele>
        <time>2025-01-22T09:07:13.952Z</time>
      </trkpt>
      <trkpt lat="46.73543" lon="-1.99971">
        <ele>3.4</ele>
        <time>2025-01-22T09:07:14.953Z</time>
      </trkpt>
      <trkpt lat="46.73544" lon="-1.99968">
        <ele>3.4</ele>
        <time>2025-01-22T09:07:15.952Z</time>
      </trkpt>
      <trkpt lat="46.73545" lon="-1.99964">
        <ele>3.3</ele>
        <time>2025-01-22T09:07:16.952Z</time>
      </trkpt>
      <trkpt lat="46.73546" lon="-1.99961">
        <ele>3.2</ele>
        <time>2025-01-22T09:07:17.953Z</time>
      </trkpt>
      <trkpt lat="46.73547" lon="-1.99958">
        <ele>3.2</ele>
        <time>2025-01-22T09:07:18.953Z</time>
      </trkpt>
      <trkpt lat="46.73548" lon="-1.99955">
        <ele>3.1</ele>
        <time>2025-01-22T09:07:19.953Z</time>
      </trkpt>
      <trkpt lat="46.73549" lon="-1.99951">
        <ele>3.1</ele>
        <time>2025-01-22T09:07:20.952Z</time>
      </trkpt>
      <trkpt lat="46.73551" lon="-1.99948">
        <ele>3</ele>
        <time>2025-01-22T09:07:21.952Z</time>
      </trkpt>
      <trkpt lat="46.73552" lon="-1.99945">
        <ele>3</ele>
        <time>2025-01-22T09:07:22.953Z</time>
      </trkpt>
      <trkpt lat="46.73553" lon="-1.99942">
        <ele>3</ele>
        <time>2025-01-22T09:07:23.952Z</time>
      </trkpt>
      <trkpt lat="46.73554" lon="-1.99939">
        <ele>3</ele>
        <time>2025-01-22T09:07:24.952Z</time>
      </trkpt>
      <trkpt lat="46.73554" lon="-1.99936">
        <ele>3</ele>
        <time>2025-01-22T09:07:25.952Z</time>
      </trkpt>
      <trkpt lat="46.73555" lon="-1.99933">
        <ele>3</ele>
        <time>2025-01-22T09:07:26.952Z</time>
      </trkpt>
      <trkpt lat="46.73557" lon="-1.9993">
        <ele>3.1</ele>
        <time>2025-01-22T09:07:27.953Z</time>
      </trkpt>
      <trkpt lat="46.73558" lon="-1.99927">
        <ele>3.1</ele>
        <time>2025-01-22T09:07:28.953Z</time>
      </trkpt>
      <trkpt lat="46.73559" lon="-1.99924">
        <ele>3.3</ele>
        <time>2025-01-22T09:07:29.953Z</time>
      </trkpt>
      <trkpt lat="46.7356" lon="-1.99921">
        <ele>3.4</ele>
        <time>2025-01-22T09:07:30.953Z</time>
      </trkpt>
      <trkpt lat="46.7356" lon="-1.99918">
        <ele>3.5</ele>
        <time>2025-01-22T09:07:31.953Z</time>
      </trkpt>
      <trkpt lat="46.7356" lon="-1.99914">
        <ele>3.5</ele>
        <time>2025-01-22T09:07:32.953Z</time>
      </trkpt>
      <trkpt lat="46.73561" lon="-1.99911">
        <ele>3.6</ele>
        <time>2025-01-22T09:07:33.952Z</time>
      </trkpt>
      <trkpt lat="46.73561" lon="-1.99907">
        <ele>3.7</ele>
        <time>2025-01-22T09:07:34.952Z</time>
      </trkpt>
      <trkpt lat="46.73561" lon="-1.99904">
        <ele>3.8</ele>
        <time>2025-01-22T09:07:35.952Z</time>
      </trkpt>
      <trkpt lat="46.73561" lon="-1.999">
        <ele>3.9</ele>
        <time>2025-01-22T09:07:36.952Z</time>
      </trkpt>
      <trkpt lat="46.73562" lon="-1.99897">
        <ele>4</ele>
        <time>2025-01-22T09:07:37.952Z</time>
      </trkpt>
      <trkpt lat="46.73562" lon="-1.99893">
        <ele>4.1</ele>
        <time>2025-01-22T09:07:38.953Z</time>
      </trkpt>
      <trkpt lat="46.73562" lon="-1.9989">
        <ele>4.1</ele>
        <time>2025-01-22T09:07:39.952Z</time>
      </trkpt>
      <trkpt lat="46.73562" lon="-1.99887">
        <ele>4.2</ele>
        <time>2025-01-22T09:07:40.953Z</time>
      </trkpt>
      <trkpt lat="46.73563" lon="-1.99883">
        <ele>4.3</ele>
        <time>2025-01-22T09:07:41.953Z</time>
      </trkpt>
      <trkpt lat="46.73563" lon="-1.99879">
        <ele>4.4</ele>
        <time>2025-01-22T09:07:42.953Z</time>
      </trkpt>
      <trkpt lat="46.73564" lon="-1.99876">
        <ele>4.5</ele>
        <time>2025-01-22T09:07:43.953Z</time>
      </trkpt>
      <trkpt lat="46.73564" lon="-1.99872">
        <ele>4.6</ele>
        <time>2025-01-22T09:07:44.953Z</time>
      </trkpt>
      <trkpt lat="46.73565" lon="-1.99868">
        <ele>4.7</ele>
        <time>2025-01-22T09:07:45.953Z</time>
      </trkpt>
      <trkpt lat="46.73566" lon="-1.99865">
        <ele>4.8</ele>
        <time>2025-01-22T09:07:46.952Z</time>
      </trkpt>
      <trkpt lat="46.73566" lon="-1.99862">
        <ele>4.9</ele>
        <time>2025-01-22T09:07:47.952Z</time>
      </trkpt>
      <trkpt lat="46.73567" lon="-1.99859">
        <ele>5</ele>
        <time>2025-01-22T09:07:48.952Z</time>
      </trkpt>
      <trkpt lat="46.73567" lon="-1.99856">
        <ele>5</ele>
        <time>2025-01-22T09:07:49.953Z</time>
      </trkpt>
      <trkpt lat="46.73567" lon="-1.99853">
        <ele>5</ele>
        <time>2025-01-22T09:07:50.953Z</time>
      </trkpt>
      <trkpt lat="46.73567" lon="-1.99849">
        <ele>5</ele>
        <time>2025-01-22T09:07:51.953Z</time>
      </trkpt>
      <trkpt lat="46.73568" lon="-1.99846">
        <ele>5</ele>
        <time>2025-01-22T09:07:52.953Z</time>
      </trkpt>
      <trkpt lat="46.73568" lon="-1.99842">
        <ele>5</ele>
        <time>2025-01-22T09:07:53.953Z</time>
      </trkpt>
      <trkpt lat="46.73569" lon="-1.9984">
        <ele>5</ele>
        <time>2025-01-22T09:07:54.953Z</time>
      </trkpt>
      <trkpt lat="46.7357" lon="-1.99837">
        <ele>5.1</ele>
        <time>2025-01-22T09:07:55.952Z</time>
      </trkpt>
      <trkpt lat="46.73571" lon="-1.99834">
        <ele>5.1</ele>
        <time>2025-01-22T09:07:56.952Z</time>
      </trkpt>
      <trkpt lat="46.73572" lon="-1.99831">
        <ele>5</ele>
        <time>2025-01-22T09:07:57.952Z</time>
      </trkpt>
      <trkpt lat="46.73572" lon="-1.99828">
        <ele>4.9</ele>
        <time>2025-01-22T09:07:58.952Z</time>
      </trkpt>
      <trkpt lat="46.73573" lon="-1.99825">
        <ele>4.9</ele>
        <time>2025-01-22T09:07:59.953Z</time>
      </trkpt>
      <trkpt lat="46.73573" lon="-1.99823">
        <ele>4.8</ele>
        <time>2025-01-22T09:08:00.952Z</time>
      </trkpt>
      <trkpt lat="46.73574" lon="-1.9982">
        <ele>4.7</ele>
        <time>2025-01-22T09:08:01.953Z</time>
      </trkpt>
      <trkpt lat="46.73574" lon="-1.99818">
        <ele>4.6</ele>
        <time>2025-01-22T09:08:02.953Z</time>
      </trkpt>
      <trkpt lat="46.73575" lon="-1.99815">
        <ele>4.5</ele>
        <time>2025-01-22T09:08:03.953Z</time>
      </trkpt>
      <trkpt lat="46.73576" lon="-1.99812">
        <ele>4.4</ele>
        <time>2025-01-22T09:08:04.953Z</time>
      </trkpt>
      <trkpt lat="46.73577" lon="-1.9981">
        <ele>4.2</ele>
        <time>2025-01-22T09:08:05.953Z</time>
      </trkpt>
      <trkpt lat="46.73578" lon="-1.99807">
        <ele>4.1</ele>
        <time>2025-01-22T09:08:06.952Z</time>
      </trkpt>
      <trkpt lat="46.73579" lon="-1.99804">
        <ele>4</ele>
        <time>2025-01-22T09:08:07.953Z</time>
      </trkpt>
      <trkpt lat="46.7358" lon="-1.99802">
        <ele>4</ele>
        <time>2025-01-22T09:08:08.952Z</time>
      </trkpt>
      <trkpt lat="46.7358" lon="-1.998">
        <ele>4</ele>
        <time>2025-01-22T09:08:09.952Z</time>
      </trkpt>
      <trkpt lat="46.73581" lon="-1.99797">
        <ele>4</ele>
        <time>2025-01-22T09:08:10.952Z</time>
      </trkpt>
      <trkpt lat="46.73581" lon="-1.99795">
        <ele>4</ele>
        <time>2025-01-22T09:08:11.952Z</time>
      </trkpt>
      <trkpt lat="46.73581" lon="-1.99793">
        <ele>4</ele>
        <time>2025-01-22T09:08:12.952Z</time>
      </trkpt>
      <trkpt lat="46.73582" lon="-1.99791">
        <ele>4</ele>
        <time>2025-01-22T09:08:13.953Z</time>
      </trkpt>
      <trkpt lat="46.73583" lon="-1.99789">
        <ele>4</ele>
        <time>2025-01-22T09:08:14.953Z</time>
      </trkpt>
      <trkpt lat="46.73584" lon="-1.99787">
        <ele>4</ele>
        <time>2025-01-22T09:08:15.953Z</time>
      </trkpt>
      <trkpt lat="46.73586" lon="-1.99785">
        <ele>3.9</ele>
        <time>2025-01-22T09:08:16.952Z</time>
      </trkpt>
      <trkpt lat="46.73588" lon="-1.99783">
        <ele>3.9</ele>
        <time>2025-01-22T09:08:17.953Z</time>
      </trkpt>
      <trkpt lat="46.7359" lon="-1.9978">
        <ele>3.8</ele>
        <time>2025-01-22T09:08:18.952Z</time>
      </trkpt>
      <trkpt lat="46.73592" lon="-1.99778">
        <ele>3.7</ele>
        <time>2025-01-22T09:08:19.952Z</time>
      </trkpt>
      <trkpt lat="46.73594" lon="-1.99776">
        <ele>3.7</ele>
        <time>2025-01-22T09:08:20.952Z</time>
      </trkpt>
      <trkpt lat="46.73596" lon="-1.99773">
        <ele>3.6</ele>
        <time>2025-01-22T09:08:21.952Z</time>
      </trkpt>
      <trkpt lat="46.73598" lon="-1.99772">
        <ele>3.6</ele>
        <time>2025-01-22T09:08:22.952Z</time>
      </trkpt>
      <trkpt lat="46.73599" lon="-1.99769">
        <ele>3.6</ele>
        <time>2025-01-22T09:08:23.953Z</time>
      </trkpt>
      <trkpt lat="46.736" lon="-1.99766">
        <ele>3.6</ele>
        <time>2025-01-22T09:08:24.952Z</time>
      </trkpt>
      <trkpt lat="46.73602" lon="-1.99763">
        <ele>3.7</ele>
        <time>2025-01-22T09:08:25.952Z</time>
      </trkpt>
      <trkpt lat="46.73604" lon="-1.99761">
        <ele>3.7</ele>
        <time>2025-01-22T09:08:26.953Z</time>
      </trkpt>
      <trkpt lat="46.73606" lon="-1.99758">
        <ele>3.8</ele>
        <time>2025-01-22T09:08:27.952Z</time>
      </trkpt>
      <trkpt lat="46.73607" lon="-1.99755">
        <ele>3.9</ele>
        <time>2025-01-22T09:08:28.952Z</time>
      </trkpt>
      <trkpt lat="46.73608" lon="-1.99751">
        <ele>4</ele>
        <time>2025-01-22T09:08:29.953Z</time>
      </trkpt>
      <trkpt lat="46.7361" lon="-1.99748">
        <ele>3.9</ele>
        <time>2025-01-22T09:08:30.953Z</time>
      </trkpt>
      <trkpt lat="46.73612" lon="-1.99744">
        <ele>3.8</ele>
        <time>2025-01-22T09:08:31.952Z</time>
      </trkpt>
      <trkpt lat="46.73614" lon="-1.99741">
        <ele>3.6</ele>
        <time>2025-01-22T09:08:32.953Z</time>
      </trkpt>
      <trkpt lat="46.73616" lon="-1.99737">
        <ele>3.5</ele>
        <time>2025-01-22T09:08:33.953Z</time>
      </trkpt>
      <trkpt lat="46.73618" lon="-1.99734">
        <ele>3.5</ele>
        <time>2025-01-22T09:08:34.953Z</time>
      </trkpt>
      <trkpt lat="46.7362" lon="-1.99732">
        <ele>3.4</ele>
        <time>2025-01-22T09:08:35.952Z</time>
      </trkpt>
      <trkpt lat="46.73622" lon="-1.99729">
        <ele>3.4</ele>
        <time>2025-01-22T09:08:36.953Z</time>
      </trkpt>
      <trkpt lat="46.73624" lon="-1.99726">
        <ele>3.5</ele>
        <time>2025-01-22T09:08:37.952Z</time>
      </trkpt>
      <trkpt lat="46.73626" lon="-1.99724">
        <ele>3.5</ele>
        <time>2025-01-22T09:08:38.953Z</time>
      </trkpt>
      <trkpt lat="46.73628" lon="-1.99721">
        <ele>3.7</ele>
        <time>2025-01-22T09:08:39.953Z</time>
      </trkpt>
      <trkpt lat="46.7363" lon="-1.99719">
        <ele>4</ele>
        <time>2025-01-22T09:08:40.953Z</time>
      </trkpt>
      <trkpt lat="46.73631" lon="-1.99717">
        <ele>4.2</ele>
        <time>2025-01-22T09:08:41.953Z</time>
      </trkpt>
      <trkpt lat="46.73633" lon="-1.99715">
        <ele>4.5</ele>
        <time>2025-01-22T09:08:42.953Z</time>
      </trkpt>
      <trkpt lat="46.73635" lon="-1.99713">
        <ele>4.8</ele>
        <time>2025-01-22T09:08:43.953Z</time>
      </trkpt>
      <trkpt lat="46.73637" lon="-1.99711">
        <ele>5.1</ele>
        <time>2025-01-22T09:08:44.952Z</time>
      </trkpt>
      <trkpt lat="46.73638" lon="-1.99709">
        <ele>5.4</ele>
        <time>2025-01-22T09:08:45.953Z</time>
      </trkpt>
      <trkpt lat="46.7364" lon="-1.99707">
        <ele>5.8</ele>
        <time>2025-01-22T09:08:46.952Z</time>
      </trkpt>
      <trkpt lat="46.73641" lon="-1.99705">
        <ele>6.1</ele>
        <time>2025-01-22T09:08:47.952Z</time>
      </trkpt>
      <trkpt lat="46.73642" lon="-1.99703">
        <ele>6.4</ele>
        <time>2025-01-22T09:08:48.952Z</time>
      </trkpt>
      <trkpt lat="46.73643" lon="-1.99701">
        <ele>6.7</ele>
        <time>2025-01-22T09:08:49.953Z</time>
      </trkpt>
      <trkpt lat="46.73644" lon="-1.99698">
        <ele>7.1</ele>
        <time>2025-01-22T09:08:50.953Z</time>
      </trkpt>
      <trkpt lat="46.73645" lon="-1.99696">
        <ele>7.5</ele>
        <time>2025-01-22T09:08:51.953Z</time>
      </trkpt>
      <trkpt lat="46.73646" lon="-1.99693">
        <ele>8.1</ele>
        <time>2025-01-22T09:08:52.953Z</time>
      </trkpt>
      <trkpt lat="46.73648" lon="-1.99691">
        <ele>8.6</ele>
        <time>2025-01-22T09:08:53.952Z</time>
      </trkpt>
      <trkpt lat="46.7365" lon="-1.99688">
        <ele>9.1</ele>
        <time>2025-01-22T09:08:54.953Z</time>
      </trkpt>
      <trkpt lat="46.73651" lon="-1.99687">
        <ele>9.5</ele>
        <time>2025-01-22T09:08:55.952Z</time>
      </trkpt>
      <trkpt lat="46.73653" lon="-1.99685">
        <ele>9.9</ele>
        <time>2025-01-22T09:08:56.952Z</time>
      </trkpt>
      <trkpt lat="46.73654" lon="-1.99683">
        <ele>10.3</ele>
        <time>2025-01-22T09:08:57.952Z</time>
      </trkpt>
      <trkpt lat="46.73656" lon="-1.99681">
        <ele>10.7</ele>
        <time>2025-01-22T09:08:58.952Z</time>
      </trkpt>
      <trkpt lat="46.73657" lon="-1.99679">
        <ele>11</ele>
        <time>2025-01-22T09:08:59.953Z</time>
      </trkpt>
      <trkpt lat="46.73658" lon="-1.99677">
        <ele>11.3</ele>
        <time>2025-01-22T09:09:00.953Z</time>
      </trkpt>
      <trkpt lat="46.73659" lon="-1.99675">
        <ele>11.6</ele>
        <time>2025-01-22T09:09:01.953Z</time>
      </trkpt>
      <trkpt lat="46.73661" lon="-1.99674">
        <ele>11.9</ele>
        <time>2025-01-22T09:09:02.953Z</time>
      </trkpt>
      <trkpt lat="46.73662" lon="-1.99672">
        <ele>12.3</ele>
        <time>2025-01-22T09:09:03.953Z</time>
      </trkpt>
      <trkpt lat="46.73663" lon="-1.9967">
        <ele>12.5</ele>
        <time>2025-01-22T09:09:04.953Z</time>
      </trkpt>
      <trkpt lat="46.73664" lon="-1.99669">
        <ele>12.7</ele>
        <time>2025-01-22T09:09:05.952Z</time>
      </trkpt>
      <trkpt lat="46.73665" lon="-1.99667">
        <ele>12.9</ele>
        <time>2025-01-22T09:09:06.953Z</time>
      </trkpt>
      <trkpt lat="46.73665" lon="-1.99666">
        <ele>13.1</ele>
        <time>2025-01-22T09:09:07.953Z</time>
      </trkpt>
      <trkpt lat="46.73666" lon="-1.99664">
        <ele>13.3</ele>
        <time>2025-01-22T09:09:08.953Z</time>
      </trkpt>
      <trkpt lat="46.73666" lon="-1.99663">
        <ele>13.5</ele>
        <time>2025-01-22T09:09:09.952Z</time>
      </trkpt>
      <trkpt lat="46.73666" lon="-1.99662">
        <ele>13.7</ele>
        <time>2025-01-22T09:09:10.953Z</time>
      </trkpt>
      <trkpt lat="46.73667" lon="-1.9966">
        <ele>13.9</ele>
        <time>2025-01-22T09:09:11.952Z</time>
      </trkpt>
      <trkpt lat="46.73668" lon="-1.99659">
        <ele>14.1</ele>
        <time>2025-01-22T09:09:12.952Z</time>
      </trkpt>
      <trkpt lat="46.73668" lon="-1.99658">
        <ele>14.3</ele>
        <time>2025-01-22T09:09:13.952Z</time>
      </trkpt>
      <trkpt lat="46.73669" lon="-1.99658">
        <ele>14.4</ele>
        <time>2025-01-22T09:09:14.952Z</time>
      </trkpt>
      <trkpt lat="46.73669" lon="-1.99656">
        <ele>14.6</ele>
        <time>2025-01-22T09:09:15.953Z</time>
      </trkpt>
      <trkpt lat="46.7367" lon="-1.99655">
        <ele>14.7</ele>
        <time>2025-01-22T09:09:16.952Z</time>
      </trkpt>
      <trkpt lat="46.7367" lon="-1.99655">
        <ele>14.8</ele>
        <time>2025-01-22T09:09:17.953Z</time>
      </trkpt>
      <trkpt lat="46.73671" lon="-1.99654">
        <ele>15</ele>
        <time>2025-01-22T09:09:18.952Z</time>
      </trkpt>
      <trkpt lat="46.73671" lon="-1.99653">
        <ele>15.1</ele>
        <time>2025-01-22T09:09:19.953Z</time>
      </trkpt>
      <trkpt lat="46.73672" lon="-1.99652">
        <ele>15.2</ele>
        <time>2025-01-22T09:09:20.952Z</time>
      </trkpt>
      <trkpt lat="46.73673" lon="-1.9965">
        <ele>15.4</ele>
        <time>2025-01-22T09:09:21.952Z</time>
      </trkpt>
      <trkpt lat="46.73673" lon="-1.99649">
        <ele>15.5</ele>
        <time>2025-01-22T09:09:22.953Z</time>
      </trkpt>
      <trkpt lat="46.73673" lon="-1.99648">
        <ele>15.7</ele>
        <time>2025-01-22T09:09:23.953Z</time>
      </trkpt>
      <trkpt lat="46.73673" lon="-1.99646">
        <ele>15.8</ele>
        <time>2025-01-22T09:09:24.953Z</time>
      </trkpt>
      <trkpt lat="46.73673" lon="-1.99646">
        <ele>15.8</ele>
        <time>2025-01-22T09:09:25.952Z</time>
      </trkpt>
      <trkpt lat="46.73673" lon="-1.99645">
        <ele>15.9</ele>
        <time>2025-01-22T09:09:26.952Z</time>
      </trkpt>
      <trkpt lat="46.73673" lon="-1.99645">
        <ele>16</ele>
        <time>2025-01-22T09:09:27.952Z</time>
      </trkpt>
      <trkpt lat="46.73672" lon="-1.99644">
        <ele>16.1</ele>
        <time>2025-01-22T09:09:28.952Z</time>
      </trkpt>
      <trkpt lat="46.73671" lon="-1.99642">
        <ele>16.3</ele>
        <time>2025-01-22T09:09:29.952Z</time>
      </trkpt>
      <trkpt lat="46.7367" lon="-1.99641">
        <ele>16.5</ele>
        <time>2025-01-22T09:09:30.952Z</time>
      </trkpt>
      <trkpt lat="46.73669" lon="-1.99641">
        <ele>16.6</ele>
        <time>2025-01-22T09:09:31.953Z</time>
      </trkpt>
      <trkpt lat="46.73668" lon="-1.9964">
        <ele>16.7</ele>
        <time>2025-01-22T09:09:32.953Z</time>
      </trkpt>
      <trkpt lat="46.73667" lon="-1.9964">
        <ele>16.8</ele>
        <time>2025-01-22T09:09:33.953Z</time>
      </trkpt>
      <trkpt lat="46.73667" lon="-1.99641">
        <ele>16.8</ele>
        <time>2025-01-22T09:09:34.953Z</time>
      </trkpt>
      <trkpt lat="46.73666" lon="-1.99641">
        <ele>16.8</ele>
        <time>2025-01-22T09:09:35.953Z</time>
      </trkpt>
      <trkpt lat="46.73666" lon="-1.99641">
        <ele>16.8</ele>
        <time>2025-01-22T09:09:36.953Z</time>
      </trkpt>
      <trkpt lat="46.73666" lon="-1.99641">
        <ele>16.8</ele>
        <time>2025-01-22T09:09:37.952Z</time>
      </trkpt>
      <trkpt lat="46.73665" lon="-1.9964">
        <ele>16.9</ele>
        <time>2025-01-22T09:09:38.952Z</time>
      </trkpt>
      <trkpt lat="46.73664" lon="-1.9964">
        <ele>17.1</ele>
        <time>2025-01-22T09:09:39.952Z</time>
      </trkpt>
      <trkpt lat="46.73664" lon="-1.99639">
        <ele>17.2</ele>
        <time>2025-01-22T09:09:40.952Z</time>
      </trkpt>
      <trkpt lat="46.73662" lon="-1.99638">
        <ele>17.3</ele>
        <time>2025-01-22T09:09:41.953Z</time>
      </trkpt>
      <trkpt lat="46.73661" lon="-1.99637">
        <ele>17.3</ele>
        <time>2025-01-22T09:09:42.953Z</time>
      </trkpt>
      <trkpt lat="46.7366" lon="-1.99637">
        <ele>17.4</ele>
        <time>2025-01-22T09:09:43.953Z</time>
      </trkpt>
      <trkpt lat="46.7366" lon="-1.99637">
        <ele>17.4</ele>
        <time>2025-01-22T09:09:44.952Z</time>
      </trkpt>
      <trkpt lat="46.73659" lon="-1.99637">
        <ele>17.5</ele>
        <time>2025-01-22T09:09:45.953Z</time>
      </trkpt>
      <trkpt lat="46.73659" lon="-1.99637">
        <ele>17.5</ele>
        <time>2025-01-22T09:09:46.952Z</time>
      </trkpt>
      <trkpt lat="46.73659" lon="-1.99636">
        <ele>17.5</ele>
        <time>2025-01-22T09:09:47.953Z</time>
      </trkpt>
      <trkpt lat="46.73658" lon="-1.99636">
        <ele>17.5</ele>
        <time>2025-01-22T09:09:48.952Z</time>
      </trkpt>
      <trkpt lat="46.73657" lon="-1.99636">
        <ele>17.6</ele>
        <time>2025-01-22T09:09:49.952Z</time>
      </trkpt>
      <trkpt lat="46.73656" lon="-1.99636">
        <ele>17.7</ele>
        <time>2025-01-22T09:09:50.952Z</time>
      </trkpt>
      <trkpt lat="46.73655" lon="-1.99636">
        <ele>17.8</ele>
        <time>2025-01-22T09:09:51.952Z</time>
      </trkpt>
      <trkpt lat="46.73655" lon="-1.99636">
        <ele>17.8</ele>
        <time>2025-01-22T09:09:52.953Z</time>
      </trkpt>
      <trkpt lat="46.73654" lon="-1.99635">
        <ele>17.8</ele>
        <time>2025-01-22T09:09:53.953Z</time>
      </trkpt>
      <trkpt lat="46.73653" lon="-1.99634">
        <ele>17.9</ele>
        <time>2025-01-22T09:09:54.953Z</time>
      </trkpt>
      <trkpt lat="46.73653" lon="-1.99633">
        <ele>17.9</ele>
        <time>2025-01-22T09:09:55.953Z</time>
      </trkpt>
      <trkpt lat="46.73652" lon="-1.99632">
        <ele>18</ele>
        <time>2025-01-22T09:09:56.953Z</time>
      </trkpt>
      <trkpt lat="46.73651" lon="-1.9963">
        <ele>18</ele>
        <time>2025-01-22T09:09:57.953Z</time>
      </trkpt>
      <trkpt lat="46.7365" lon="-1.99629">
        <ele>18.1</ele>
        <time>2025-01-22T09:09:58.952Z</time>
      </trkpt>
      <trkpt lat="46.73649" lon="-1.99629">
        <ele>18.2</ele>
        <time>2025-01-22T09:09:59.952Z</time>
      </trkpt>
      <trkpt lat="46.73649" lon="-1.99628">
        <ele>18.3</ele>
        <time>2025-01-22T09:10:00.952Z</time>
      </trkpt>
      <trkpt lat="46.73648" lon="-1.99628">
        <ele>18.4</ele>
        <time>2025-01-22T09:10:01.952Z</time>
      </trkpt>
      <trkpt lat="46.73647" lon="-1.99627">
        <ele>18.4</ele>
        <time>2025-01-22T09:10:02.952Z</time>
      </trkpt>
      <trkpt lat="46.73647" lon="-1.99626">
        <ele>18.5</ele>
        <time>2025-01-22T09:10:03.953Z</time>
      </trkpt>
      <trkpt lat="46.73646" lon="-1.99626">
        <ele>18.6</ele>
        <time>2025-01-22T09:10:04.952Z</time>
      </trkpt>
      <trkpt lat="46.73645" lon="-1.99625">
        <ele>18.7</ele>
        <time>2025-01-22T09:10:05.953Z</time>
      </trkpt>
      <trkpt lat="46.73644" lon="-1.99624">
        <ele>18.9</ele>
        <time>2025-01-22T09:10:06.952Z</time>
      </trkpt>
      <trkpt lat="46.73643" lon="-1.99623">
        <ele>19.1</ele>
        <time>2025-01-22T09:10:07.953Z</time>
      </trkpt>
      <trkpt lat="46.73641" lon="-1.99621">
        <ele>19.3</ele>
        <time>2025-01-22T09:10:08.953Z</time>
      </trkpt>
      <trkpt lat="46.73639" lon="-1.9962">
        <ele>19.6</ele>
        <time>2025-01-22T09:10:09.953Z</time>
      </trkpt>
      <trkpt lat="46.73637" lon="-1.9962">
        <ele>19.5</ele>
        <time>2025-01-22T09:10:10.952Z</time>
      </trkpt>
      <trkpt lat="46.73635" lon="-1.9962">
        <ele>19.3</ele>
        <time>2025-01-22T09:10:11.952Z</time>
      </trkpt>
      <trkpt lat="46.73633" lon="-1.99621">
        <ele>19</ele>
        <time>2025-01-22T09:10:12.952Z</time>
      </trkpt>
      <trkpt lat="46.73631" lon="-1.99622">
        <ele>18.7</ele>
        <time>2025-01-22T09:10:13.953Z</time>
      </trkpt>
      <trkpt lat="46.73629" lon="-1.99623">
        <ele>18.4</ele>
        <time>2025-01-22T09:10:14.952Z</time>
      </trkpt>
      <trkpt lat="46.73626" lon="-1.99623">
        <ele>18.1</ele>
        <time>2025-01-22T09:10:15.953Z</time>
      </trkpt>
      <trkpt lat="46.73624" lon="-1.99622">
        <ele>17.9</ele>
        <time>2025-01-22T09:10:16.953Z</time>
      </trkpt>
      <trkpt lat="46.73622" lon="-1.99621">
        <ele>17.8</ele>
        <time>2025-01-22T09:10:17.953Z</time>
      </trkpt>
      <trkpt lat="46.7362" lon="-1.9962">
        <ele>17.7</ele>
        <time>2025-01-22T09:10:18.953Z</time>
      </trkpt>
      <trkpt lat="46.73618" lon="-1.99618">
        <ele>17.7</ele>
        <time>2025-01-22T09:10:19.953Z</time>
      </trkpt>
      <trkpt lat="46.73616" lon="-1.99616">
        <ele>17.8</ele>
        <time>2025-01-22T09:10:20.953Z</time>
      </trkpt>
      <trkpt lat="46.73614" lon="-1.99613">
        <ele>18</ele>
        <time>2025-01-22T09:10:21.952Z</time>
      </trkpt>
      <trkpt lat="46.73613" lon="-1.99612">
        <ele>18</ele>
        <time>2025-01-22T09:10:22.952Z</time>
      </trkpt>
      <trkpt lat="46.73611" lon="-1.9961">
        <ele>18.1</ele>
        <time>2025-01-22T09:10:23.952Z</time>
      </trkpt>
      <trkpt lat="46.7361" lon="-1.99607">
        <ele>18.2</ele>
        <time>2025-01-22T09:10:24.953Z</time>
      </trkpt>
      <trkpt lat="46.73608" lon="-1.99605">
        <ele>18.2</ele>
        <time>2025-01-22T09:10:25.952Z</time>
      </trkpt>
      <trkpt lat="46.73607" lon="-1.99603">
        <ele>18.2</ele>
        <time>2025-01-22T09:10:26.953Z</time>
      </trkpt>
      <trkpt lat="46.73606" lon="-1.996">
        <ele>18.3</ele>
        <time>2025-01-22T09:10:27.953Z</time>
      </trkpt>
      <trkpt lat="46.73604" lon="-1.99598">
        <ele>18.3</ele>
        <time>2025-01-22T09:10:28.953Z</time>
      </trkpt>
      <trkpt lat="46.73602" lon="-1.99597">
        <ele>18.2</ele>
        <time>2025-01-22T09:10:29.952Z</time>
      </trkpt>
      <trkpt lat="46.73601" lon="-1.99597">
        <ele>18.1</ele>
        <time>2025-01-22T09:10:30.952Z</time>
      </trkpt>
      <trkpt lat="46.736" lon="-1.99596">
        <ele>18.1</ele>
        <time>2025-01-22T09:10:31.953Z</time>
      </trkpt>
      <trkpt lat="46.73599" lon="-1.99596">
        <ele>18</ele>
        <time>2025-01-22T09:10:32.953Z</time>
      </trkpt>
      <trkpt lat="46.73597" lon="-1.99595">
        <ele>18</ele>
        <time>2025-01-22T09:10:33.953Z</time>
      </trkpt>
      <trkpt lat="46.73596" lon="-1.99594">
        <ele>18</ele>
        <time>2025-01-22T09:10:34.952Z</time>
      </trkpt>
      <trkpt lat="46.73595" lon="-1.99593">
        <ele>18</ele>
        <time>2025-01-22T09:10:35.953Z</time>
      </trkpt>
      <trkpt lat="46.73594" lon="-1.99592">
        <ele>18</ele>
        <time>2025-01-22T09:10:36.953Z</time>
      </trkpt>
      <trkpt lat="46.73593" lon="-1.99591">
        <ele>18</ele>
        <time>2025-01-22T09:10:37.953Z</time>
      </trkpt>
      <trkpt lat="46.73591" lon="-1.99589">
        <ele>18</ele>
        <time>2025-01-22T09:10:38.953Z</time>
      </trkpt>
      <trkpt lat="46.7359" lon="-1.99588">
        <ele>18</ele>
        <time>2025-01-22T09:10:39.952Z</time>
      </trkpt>
      <trkpt lat="46.73588" lon="-1.99587">
        <ele>18</ele>
        <time>2025-01-22T09:10:40.952Z</time>
      </trkpt>
      <trkpt lat="46.73586" lon="-1.99585">
        <ele>18</ele>
        <time>2025-01-22T09:10:41.952Z</time>
      </trkpt>
      <trkpt lat="46.73585" lon="-1.99583">
        <ele>18.1</ele>
        <time>2025-01-22T09:10:42.952Z</time>
      </trkpt>
      <trkpt lat="46.73583" lon="-1.99581">
        <ele>18.2</ele>
        <time>2025-01-22T09:10:43.952Z</time>
      </trkpt>
      <trkpt lat="46.73581" lon="-1.9958">
        <ele>18.2</ele>
        <time>2025-01-22T09:10:44.953Z</time>
      </trkpt>
      <trkpt lat="46.73579" lon="-1.99578">
        <ele>18.2</ele>
        <time>2025-01-22T09:10:45.952Z</time>
      </trkpt>
      <trkpt lat="46.73576" lon="-1.99576">
        <ele>18.3</ele>
        <time>2025-01-22T09:10:46.953Z</time>
      </trkpt>
      <trkpt lat="46.73574" lon="-1.99575">
        <ele>18.4</ele>
        <time>2025-01-22T09:10:47.953Z</time>
      </trkpt>
      <trkpt lat="46.73572" lon="-1.99573">
        <ele>18.5</ele>
        <time>2025-01-22T09:10:48.953Z</time>
      </trkpt>
      <trkpt lat="46.7357" lon="-1.99571">
        <ele>18.6</ele>
        <time>2025-01-22T09:10:49.952Z</time>
      </trkpt>
      <trkpt lat="46.73568" lon="-1.99569">
        <ele>18.8</ele>
        <time>2025-01-22T09:10:50.952Z</time>
      </trkpt>
      <trkpt lat="46.73566" lon="-1.99568">
        <ele>18.8</ele>
        <time>2025-01-22T09:10:51.952Z</time>
      </trkpt>
      <trkpt lat="46.73564" lon="-1.99567">
        <ele>18.9</ele>
        <time>2025-01-22T09:10:52.952Z</time>
      </trkpt>
      <trkpt lat="46.73562" lon="-1.99566">
        <ele>18.9</ele>
        <time>2025-01-22T09:10:53.952Z</time>
      </trkpt>
      <trkpt lat="46.7356" lon="-1.99566">
        <ele>18.9</ele>
        <time>2025-01-22T09:10:54.952Z</time>
      </trkpt>
      <trkpt lat="46.73557" lon="-1.99565">
        <ele>19</ele>
        <time>2025-01-22T09:10:55.953Z</time>
      </trkpt>
      <trkpt lat="46.73555" lon="-1.99563">
        <ele>19.2</ele>
        <time>2025-01-22T09:10:56.953Z</time>
      </trkpt>
      <trkpt lat="46.73553" lon="-1.99561">
        <ele>19.3</ele>
        <time>2025-01-22T09:10:57.953Z</time>
      </trkpt>
      <trkpt lat="46.73552" lon="-1.99559">
        <ele>19.5</ele>
        <time>2025-01-22T09:10:58.953Z</time>
      </trkpt>
      <trkpt lat="46.7355" lon="-1.99556">
        <ele>19.7</ele>
        <time>2025-01-22T09:10:59.953Z</time>
      </trkpt>
      <trkpt lat="46.73548" lon="-1.99554">
        <ele>19.6</ele>
        <time>2025-01-22T09:11:00.952Z</time>
      </trkpt>
      <trkpt lat="46.73546" lon="-1.99553">
        <ele>19.5</ele>
        <time>2025-01-22T09:11:01.953Z</time>
      </trkpt>
      <trkpt lat="46.73545" lon="-1.99552">
        <ele>19.4</ele>
        <time>2025-01-22T09:11:02.952Z</time>
      </trkpt>
      <trkpt lat="46.73543" lon="-1.9955">
        <ele>19.3</ele>
        <time>2025-01-22T09:11:03.952Z</time>
      </trkpt>
      <trkpt lat="46.73542" lon="-1.99549">
        <ele>19.1</ele>
        <time>2025-01-22T09:11:04.952Z</time>
      </trkpt>
      <trkpt lat="46.73541" lon="-1.99547">
        <ele>19</ele>
        <time>2025-01-22T09:11:05.953Z</time>
      </trkpt>
      <trkpt lat="46.73539" lon="-1.99544">
        <ele>18.8</ele>
        <time>2025-01-22T09:11:06.953Z</time>
      </trkpt>
      <trkpt lat="46.73538" lon="-1.99542">
        <ele>18.7</ele>
        <time>2025-01-22T09:11:07.953Z</time>
      </trkpt>
      <trkpt lat="46.73537" lon="-1.99539">
        <ele>18.5</ele>
        <time>2025-01-22T09:11:08.953Z</time>
      </trkpt>
      <trkpt lat="46.73535" lon="-1.99537">
        <ele>18.4</ele>
        <time>2025-01-22T09:11:09.953Z</time>
      </trkpt>
      <trkpt lat="46.73534" lon="-1.99535">
        <ele>18.3</ele>
        <time>2025-01-22T09:11:10.953Z</time>
      </trkpt>
      <trkpt lat="46.73532" lon="-1.99533">
        <ele>18.2</ele>
        <time>2025-01-22T09:11:11.952Z</time>
      </trkpt>
      <trkpt lat="46.73529" lon="-1.99531">
        <ele>18.1</ele>
        <time>2025-01-22T09:11:12.952Z</time>
      </trkpt>
      <trkpt lat="46.73527" lon="-1.99529">
        <ele>18</ele>
        <time>2025-01-22T09:11:13.952Z</time>
      </trkpt>
      <trkpt lat="46.73525" lon="-1.99527">
        <ele>17.9</ele>
        <time>2025-01-22T09:11:14.952Z</time>
      </trkpt>
      <trkpt lat="46.73523" lon="-1.99524">
        <ele>17.6</ele>
        <time>2025-01-22T09:11:15.953Z</time>
      </trkpt>
      <trkpt lat="46.73522" lon="-1.99522">
        <ele>17.5</ele>
        <time>2025-01-22T09:11:16.952Z</time>
      </trkpt>
      <trkpt lat="46.7352" lon="-1.99519">
        <ele>17.3</ele>
        <time>2025-01-22T09:11:17.952Z</time>
      </trkpt>
      <trkpt lat="46.7352" lon="-1.99516">
        <ele>17.2</ele>
        <time>2025-01-22T09:11:18.952Z</time>
      </trkpt>
      <trkpt lat="46.73518" lon="-1.99513">
        <ele>17.1</ele>
        <time>2025-01-22T09:11:19.952Z</time>
      </trkpt>
      <trkpt lat="46.73516" lon="-1.99511">
        <ele>17.1</ele>
        <time>2025-01-22T09:11:20.953Z</time>
      </trkpt>
      <trkpt lat="46.73514" lon="-1.99508">
        <ele>17.1</ele>
        <time>2025-01-22T09:11:21.953Z</time>
      </trkpt>
      <trkpt lat="46.73513" lon="-1.99506">
        <ele>17.2</ele>
        <time>2025-01-22T09:11:22.953Z</time>
      </trkpt>
      <trkpt lat="46.73512" lon="-1.99505">
        <ele>17.2</ele>
        <time>2025-01-22T09:11:23.952Z</time>
      </trkpt>
      <trkpt lat="46.73512" lon="-1.99504">
        <ele>17.2</ele>
        <time>2025-01-22T09:11:24.952Z</time>
      </trkpt>
      <trkpt lat="46.73511" lon="-1.99502">
        <ele>17.2</ele>
        <time>2025-01-22T09:11:25.952Z</time>
      </trkpt>
      <trkpt lat="46.73509" lon="-1.99499">
        <ele>17.3</ele>
        <time>2025-01-22T09:11:26.952Z</time>
      </trkpt>
      <trkpt lat="46.73507" lon="-1.99496">
        <ele>17.2</ele>
        <time>2025-01-22T09:11:27.952Z</time>
      </trkpt>
      <trkpt lat="46.73504" lon="-1.99492">
        <ele>17.3</ele>
        <time>2025-01-22T09:11:28.952Z</time>
      </trkpt>
      <trkpt lat="46.73501" lon="-1.99488">
        <ele>17.5</ele>
        <time>2025-01-22T09:11:29.952Z</time>
      </trkpt>
      <trkpt lat="46.73499" lon="-1.99483">
        <ele>17.2</ele>
        <time>2025-01-22T09:11:30.952Z</time>
      </trkpt>
      <trkpt lat="46.73497" lon="-1.99479">
        <ele>16.9</ele>
        <time>2025-01-22T09:11:31.953Z</time>
      </trkpt>
      <trkpt lat="46.73495" lon="-1.99475">
        <ele>16.6</ele>
        <time>2025-01-22T09:11:32.953Z</time>
      </trkpt>
      <trkpt lat="46.73494" lon="-1.99469">
        <ele>16.2</ele>
        <time>2025-01-22T09:11:33.953Z</time>
      </trkpt>
      <trkpt lat="46.73491" lon="-1.99465">
        <ele>15.9</ele>
        <time>2025-01-22T09:11:34.953Z</time>
      </trkpt>
      <trkpt lat="46.73489" lon="-1.99463">
        <ele>15.7</ele>
        <time>2025-01-22T09:11:35.953Z</time>
      </trkpt>
      <trkpt lat="46.73489" lon="-1.99461">
        <ele>15.7</ele>
        <time>2025-01-22T09:11:36.953Z</time>
      </trkpt>
      <trkpt lat="46.73489" lon="-1.99458">
        <ele>15.7</ele>
        <time>2025-01-22T09:11:37.952Z</time>
      </trkpt>
      <trkpt lat="46.73488" lon="-1.99456">
        <ele>15.6</ele>
        <time>2025-01-22T09:11:38.952Z</time>
      </trkpt>
      <trkpt lat="46.73487" lon="-1.99452">
        <ele>15.5</ele>
        <time>2025-01-22T09:11:39.952Z</time>
      </trkpt>
      <trkpt lat="46.73486" lon="-1.99448">
        <ele>15.5</ele>
        <time>2025-01-22T09:11:40.953Z</time>
      </trkpt>
      <trkpt lat="46.73483" lon="-1.99444">
        <ele>15.4</ele>
        <time>2025-01-22T09:11:41.953Z</time>
      </trkpt>
      <trkpt lat="46.73481" lon="-1.9944">
        <ele>14.8</ele>
        <time>2025-01-22T09:11:42.953Z</time>
      </trkpt>
      <trkpt lat="46.73478" lon="-1.99438">
        <ele>14.4</ele>
        <time>2025-01-22T09:11:43.952Z</time>
      </trkpt>
      <trkpt lat="46.73477" lon="-1.99435">
        <ele>14.1</ele>
        <time>2025-01-22T09:11:44.952Z</time>
      </trkpt>
      <trkpt lat="46.73477" lon="-1.99433">
        <ele>13.8</ele>
        <time>2025-01-22T09:11:45.952Z</time>
      </trkpt>
      <trkpt lat="46.73476" lon="-1.9943">
        <ele>13.5</ele>
        <time>2025-01-22T09:11:46.952Z</time>
      </trkpt>
      <trkpt lat="46.73475" lon="-1.99428">
        <ele>13.2</ele>
        <time>2025-01-22T09:11:47.953Z</time>
      </trkpt>
      <trkpt lat="46.73474" lon="-1.99426">
        <ele>13</ele>
        <time>2025-01-22T09:11:48.953Z</time>
      </trkpt>
      <trkpt lat="46.73472" lon="-1.99424">
        <ele>12.7</ele>
        <time>2025-01-22T09:11:49.953Z</time>
      </trkpt>
      <trkpt lat="46.7347" lon="-1.9942">
        <ele>12.2</ele>
        <time>2025-01-22T09:11:50.953Z</time>
      </trkpt>
      <trkpt lat="46.73468" lon="-1.99417">
        <ele>11.9</ele>
        <time>2025-01-22T09:11:51.953Z</time>
      </trkpt>
      <trkpt lat="46.73464" lon="-1.99419">
        <ele>11.8</ele>
        <time>2025-01-22T09:11:52.953Z</time>
      </trkpt>
      <trkpt lat="46.73462" lon="-1.99423">
        <ele>11.9</ele>
        <time>2025-01-22T09:11:53.952Z</time>
      </trkpt>
      <trkpt lat="46.73461" lon="-1.99424">
        <ele>11.8</ele>
        <time>2025-01-22T09:11:54.952Z</time>
      </trkpt>
      <trkpt lat="46.73459" lon="-1.99425">
        <ele>11.7</ele>
        <time>2025-01-22T09:11:55.952Z</time>
      </trkpt>
      <trkpt lat="46.73458" lon="-1.99426">
        <ele>11.6</ele>
        <time>2025-01-22T09:11:56.952Z</time>
      </trkpt>
      <trkpt lat="46.73456" lon="-1.99426">
        <ele>11.4</ele>
        <time>2025-01-22T09:11:57.953Z</time>
      </trkpt>
      <trkpt lat="46.73455" lon="-1.99425">
        <ele>11.3</ele>
        <time>2025-01-22T09:11:58.953Z</time>
      </trkpt>
      <trkpt lat="46.73453" lon="-1.99424">
        <ele>11.2</ele>
        <time>2025-01-22T09:11:59.953Z</time>
      </trkpt>
      <trkpt lat="46.73452" lon="-1.99423">
        <ele>11.1</ele>
        <time>2025-01-22T09:12:00.952Z</time>
      </trkpt>
      <trkpt lat="46.73451" lon="-1.99421">
        <ele>11.1</ele>
        <time>2025-01-22T09:12:01.953Z</time>
      </trkpt>
      <trkpt lat="46.73449" lon="-1.9942">
        <ele>11</ele>
        <time>2025-01-22T09:12:02.953Z</time>
      </trkpt>
      <trkpt lat="46.73448" lon="-1.99419">
        <ele>11</ele>
        <time>2025-01-22T09:12:03.952Z</time>
      </trkpt>
      <trkpt lat="46.73446" lon="-1.99418">
        <ele>11</ele>
        <time>2025-01-22T09:12:04.953Z</time>
      </trkpt>
      <trkpt lat="46.73444" lon="-1.99416">
        <ele>11</ele>
        <time>2025-01-22T09:12:05.953Z</time>
      </trkpt>
      <trkpt lat="46.73442" lon="-1.99416">
        <ele>11.1</ele>
        <time>2025-01-22T09:12:06.953Z</time>
      </trkpt>
      <trkpt lat="46.73441" lon="-1.99417">
        <ele>11.1</ele>
        <time>2025-01-22T09:12:07.953Z</time>
      </trkpt>
      <trkpt lat="46.73439" lon="-1.99419">
        <ele>10.9</ele>
        <time>2025-01-22T09:12:08.952Z</time>
      </trkpt>
      <trkpt lat="46.73438" lon="-1.99422">
        <ele>10.7</ele>
        <time>2025-01-22T09:12:09.952Z</time>
      </trkpt>
      <trkpt lat="46.73437" lon="-1.99424">
        <ele>10.5</ele>
        <time>2025-01-22T09:12:10.952Z</time>
      </trkpt>
      <trkpt lat="46.73435" lon="-1.99426">
        <ele>10.2</ele>
        <time>2025-01-22T09:12:11.952Z</time>
      </trkpt>
      <trkpt lat="46.73433" lon="-1.99429">
        <ele>9.8</ele>
        <time>2025-01-22T09:12:12.952Z</time>
      </trkpt>
      <trkpt lat="46.73431" lon="-1.99432">
        <ele>9.3</ele>
        <time>2025-01-22T09:12:13.953Z</time>
      </trkpt>
      <trkpt lat="46.7343" lon="-1.99436">
        <ele>8.7</ele>
        <time>2025-01-22T09:12:14.952Z</time>
      </trkpt>
      <trkpt lat="46.73428" lon="-1.9944">
        <ele>8</ele>
        <time>2025-01-22T09:12:15.953Z</time>
      </trkpt>
      <trkpt lat="46.73427" lon="-1.99444">
        <ele>7.3</ele>
        <time>2025-01-22T09:12:16.952Z</time>
      </trkpt>
      <trkpt lat="46.73426" lon="-1.99448">
        <ele>6.7</ele>
        <time>2025-01-22T09:12:17.952Z</time>
      </trkpt>
      <trkpt lat="46.73425" lon="-1.99452">
        <ele>6.2</ele>
        <time>2025-01-22T09:12:18.952Z</time>
      </trkpt>
      <trkpt lat="46.73425" lon="-1.99456">
        <ele>5.8</ele>
        <time>2025-01-22T09:12:19.952Z</time>
      </trkpt>
      <trkpt lat="46.73423" lon="-1.9946">
        <ele>5.3</ele>
        <time>2025-01-22T09:12:20.953Z</time>
      </trkpt>
      <trkpt lat="46.73421" lon="-1.99465">
        <ele>4.8</ele>
        <time>2025-01-22T09:12:21.953Z</time>
      </trkpt>
      <trkpt lat="46.73418" lon="-1.99469">
        <ele>4.3</ele>
        <time>2025-01-22T09:12:22.952Z</time>
      </trkpt>
      <trkpt lat="46.73416" lon="-1.99472">
        <ele>4</ele>
        <time>2025-01-22T09:12:23.953Z</time>
      </trkpt>
      <trkpt lat="46.73414" lon="-1.99476">
        <ele>4.2</ele>
        <time>2025-01-22T09:12:24.953Z</time>
      </trkpt>
      <trkpt lat="46.73412" lon="-1.9948">
        <ele>4.3</ele>
        <time>2025-01-22T09:12:25.953Z</time>
      </trkpt>
      <trkpt lat="46.73411" lon="-1.99484">
        <ele>4.3</ele>
        <time>2025-01-22T09:12:26.953Z</time>
      </trkpt>
      <trkpt lat="46.7341" lon="-1.99487">
        <ele>4.4</ele>
        <time>2025-01-22T09:12:27.953Z</time>
      </trkpt>
      <trkpt lat="46.73409" lon="-1.9949">
        <ele>4.4</ele>
        <time>2025-01-22T09:12:28.953Z</time>
      </trkpt>
      <trkpt lat="46.73407" lon="-1.99493">
        <ele>4.5</ele>
        <time>2025-01-22T09:12:29.952Z</time>
      </trkpt>
      <trkpt lat="46.73405" lon="-1.99495">
        <ele>4.5</ele>
        <time>2025-01-22T09:12:30.953Z</time>
      </trkpt>
      <trkpt lat="46.73403" lon="-1.99498">
        <ele>4.5</ele>
        <time>2025-01-22T09:12:31.953Z</time>
      </trkpt>
      <trkpt lat="46.73401" lon="-1.99501">
        <ele>4.6</ele>
        <time>2025-01-22T09:12:32.952Z</time>
      </trkpt>
      <trkpt lat="46.734" lon="-1.99504">
        <ele>4.8</ele>
        <time>2025-01-22T09:12:33.953Z</time>
      </trkpt>
      <trkpt lat="46.73398" lon="-1.99507">
        <ele>4.9</ele>
        <time>2025-01-22T09:12:34.952Z</time>
      </trkpt>
      <trkpt lat="46.73397" lon="-1.9951">
        <ele>5</ele>
        <time>2025-01-22T09:12:35.952Z</time>
      </trkpt>
      <trkpt lat="46.73395" lon="-1.99513">
        <ele>5.1</ele>
        <time>2025-01-22T09:12:36.952Z</time>
      </trkpt>
      <trkpt lat="46.73394" lon="-1.99516">
        <ele>5.1</ele>
        <time>2025-01-22T09:12:37.953Z</time>
      </trkpt>
      <trkpt lat="46.73393" lon="-1.9952">
        <ele>5.2</ele>
        <time>2025-01-22T09:12:38.953Z</time>
      </trkpt>
      <trkpt lat="46.73392" lon="-1.99523">
        <ele>5.2</ele>
        <time>2025-01-22T09:12:39.953Z</time>
      </trkpt>
      <trkpt lat="46.73391" lon="-1.99527">
        <ele>5.2</ele>
        <time>2025-01-22T09:12:40.952Z</time>
      </trkpt>
      <trkpt lat="46.73391" lon="-1.99532">
        <ele>5.2</ele>
        <time>2025-01-22T09:12:41.953Z</time>
      </trkpt>
      <trkpt lat="46.7339" lon="-1.99535">
        <ele>5.1</ele>
        <time>2025-01-22T09:12:42.952Z</time>
      </trkpt>
      <trkpt lat="46.7339" lon="-1.99538">
        <ele>5.1</ele>
        <time>2025-01-22T09:12:43.952Z</time>
      </trkpt>
      <trkpt lat="46.73389" lon="-1.99542">
        <ele>5.1</ele>
        <time>2025-01-22T09:12:44.952Z</time>
      </trkpt>
      <trkpt lat="46.73389" lon="-1.99546">
        <ele>5</ele>
        <time>2025-01-22T09:12:45.952Z</time>
      </trkpt>
      <trkpt lat="46.73389" lon="-1.99549">
        <ele>5</ele>
        <time>2025-01-22T09:12:46.953Z</time>
      </trkpt>
      <trkpt lat="46.73388" lon="-1.99553">
        <ele>5</ele>
        <time>2025-01-22T09:12:47.953Z</time>
      </trkpt>
      <trkpt lat="46.73388" lon="-1.99556">
        <ele>4.9</ele>
        <time>2025-01-22T09:12:48.953Z</time>
      </trkpt>
      <trkpt lat="46.73387" lon="-1.99559">
        <ele>5.1</ele>
        <time>2025-01-22T09:12:49.953Z</time>
      </trkpt>
      <trkpt lat="46.73387" lon="-1.99561">
        <ele>5.2</ele>
        <time>2025-01-22T09:12:50.952Z</time>
      </trkpt>
      <trkpt lat="46.73386" lon="-1.99564">
        <ele>5.3</ele>
        <time>2025-01-22T09:12:51.953Z</time>
      </trkpt>
      <trkpt lat="46.73385" lon="-1.99567">
        <ele>5.4</ele>
        <time>2025-01-22T09:12:52.953Z</time>
      </trkpt>
      <trkpt lat="46.73384" lon="-1.9957">
        <ele>5.5</ele>
        <time>2025-01-22T09:12:53.952Z</time>
      </trkpt>
      <trkpt lat="46.73383" lon="-1.99573">
        <ele>5.6</ele>
        <time>2025-01-22T09:12:54.953Z</time>
      </trkpt>
      <trkpt lat="46.73383" lon="-1.99576">
        <ele>5.7</ele>
        <time>2025-01-22T09:12:55.953Z</time>
      </trkpt>
      <trkpt lat="46.73382" lon="-1.99579">
        <ele>5.7</ele>
        <time>2025-01-22T09:12:56.952Z</time>
      </trkpt>
      <trkpt lat="46.73381" lon="-1.99582">
        <ele>5.8</ele>
        <time>2025-01-22T09:12:57.952Z</time>
      </trkpt>
      <trkpt lat="46.7338" lon="-1.99584">
        <ele>5.8</ele>
        <time>2025-01-22T09:12:58.952Z</time>
      </trkpt>
      <trkpt lat="46.73379" lon="-1.99587">
        <ele>6</ele>
        <time>2025-01-22T09:12:59.953Z</time>
      </trkpt>
      <trkpt lat="46.73379" lon="-1.9959">
        <ele>6.2</ele>
        <time>2025-01-22T09:13:00.952Z</time>
      </trkpt>
      <trkpt lat="46.73378" lon="-1.99592">
        <ele>6.2</ele>
        <time>2025-01-22T09:13:01.953Z</time>
      </trkpt>
      <trkpt lat="46.73376" lon="-1.99594">
        <ele>6.2</ele>
        <time>2025-01-22T09:13:02.953Z</time>
      </trkpt>
      <trkpt lat="46.73375" lon="-1.99596">
        <ele>6.1</ele>
        <time>2025-01-22T09:13:03.953Z</time>
      </trkpt>
      <trkpt lat="46.73373" lon="-1.99598">
        <ele>5.9</ele>
        <time>2025-01-22T09:13:04.952Z</time>
      </trkpt>
      <trkpt lat="46.73371" lon="-1.996">
        <ele>5.7</ele>
        <time>2025-01-22T09:13:05.952Z</time>
      </trkpt>
      <trkpt lat="46.73369" lon="-1.99603">
        <ele>5.4</ele>
        <time>2025-01-22T09:13:06.952Z</time>
      </trkpt>
      <trkpt lat="46.73367" lon="-1.99605">
        <ele>5</ele>
        <time>2025-01-22T09:13:07.952Z</time>
      </trkpt>
      <trkpt lat="46.73365" lon="-1.99607">
        <ele>4.7</ele>
        <time>2025-01-22T09:13:08.953Z</time>
      </trkpt>
      <trkpt lat="46.73363" lon="-1.99609">
        <ele>4.3</ele>
        <time>2025-01-22T09:13:09.953Z</time>
      </trkpt>
      <trkpt lat="46.73361" lon="-1.9961">
        <ele>3.9</ele>
        <time>2025-01-22T09:13:10.953Z</time>
      </trkpt>
      <trkpt lat="46.73359" lon="-1.9961">
        <ele>3.9</ele>
        <time>2025-01-22T09:13:11.953Z</time>
      </trkpt>
      <trkpt lat="46.73357" lon="-1.99609">
        <ele>3.8</ele>
        <time>2025-01-22T09:13:12.952Z</time>
      </trkpt>
      <trkpt lat="46.73357" lon="-1.99606">
        <ele>3.7</ele>
        <time>2025-01-22T09:13:13.952Z</time>
      </trkpt>
      <trkpt lat="46.73357" lon="-1.99602">
        <ele>3.6</ele>
        <time>2025-01-22T09:13:14.952Z</time>
      </trkpt>
      <trkpt lat="46.73356" lon="-1.996">
        <ele>3.5</ele>
        <time>2025-01-22T09:13:15.953Z</time>
      </trkpt>
      <trkpt lat="46.73354" lon="-1.99597">
        <ele>3.4</ele>
        <time>2025-01-22T09:13:16.953Z</time>
      </trkpt>
      <trkpt lat="46.73353" lon="-1.99594">
        <ele>3.3</ele>
        <time>2025-01-22T09:13:17.952Z</time>
      </trkpt>
      <trkpt lat="46.73352" lon="-1.99591">
        <ele>3.2</ele>
        <time>2025-01-22T09:13:18.953Z</time>
      </trkpt>
      <trkpt lat="46.73351" lon="-1.99588">
        <ele>3.1</ele>
        <time>2025-01-22T09:13:19.953Z</time>
      </trkpt>
      <trkpt lat="46.73351" lon="-1.99584">
        <ele>3</ele>
        <time>2025-01-22T09:13:20.953Z</time>
      </trkpt>
      <trkpt lat="46.7335" lon="-1.99581">
        <ele>3</ele>
        <time>2025-01-22T09:13:21.953Z</time>
      </trkpt>
      <trkpt lat="46.7335" lon="-1.99577">
        <ele>3</ele>
        <time>2025-01-22T09:13:22.953Z</time>
      </trkpt>
      <trkpt lat="46.7335" lon="-1.99574">
        <ele>3</ele>
        <time>2025-01-22T09:13:23.952Z</time>
      </trkpt>
      <trkpt lat="46.7335" lon="-1.9957">
        <ele>3</ele>
        <time>2025-01-22T09:13:24.952Z</time>
      </trkpt>
      <trkpt lat="46.73351" lon="-1.99567">
        <ele>3</ele>
        <time>2025-01-22T09:13:25.952Z</time>
      </trkpt>
      <trkpt lat="46.73352" lon="-1.99564">
        <ele>3</ele>
        <time>2025-01-22T09:13:26.952Z</time>
      </trkpt>
      <trkpt lat="46.73354" lon="-1.99561">
        <ele>3</ele>
        <time>2025-01-22T09:13:27.953Z</time>
      </trkpt>
      <trkpt lat="46.73356" lon="-1.99559">
        <ele>3</ele>
        <time>2025-01-22T09:13:28.953Z</time>
      </trkpt>
      <trkpt lat="46.73357" lon="-1.99557">
        <ele>3</ele>
        <time>2025-01-22T09:13:29.953Z</time>
      </trkpt>
      <trkpt lat="46.73358" lon="-1.99554">
        <ele>3.1</ele>
        <time>2025-01-22T09:13:30.953Z</time>
      </trkpt>
      <trkpt lat="46.73358" lon="-1.99551">
        <ele>3.1</ele>
        <time>2025-01-22T09:13:31.952Z</time>
      </trkpt>
      <trkpt lat="46.73359" lon="-1.99548">
        <ele>3.2</ele>
        <time>2025-01-22T09:13:32.952Z</time>
      </trkpt>
      <trkpt lat="46.7336" lon="-1.99546">
        <ele>3.3</ele>
        <time>2025-01-22T09:13:33.953Z</time>
      </trkpt>
      <trkpt lat="46.73362" lon="-1.99543">
        <ele>3.5</ele>
        <time>2025-01-22T09:13:34.953Z</time>
      </trkpt>
      <trkpt lat="46.73363" lon="-1.99541">
        <ele>3.6</ele>
        <time>2025-01-22T09:13:35.952Z</time>
      </trkpt>
      <trkpt lat="46.73364" lon="-1.99538">
        <ele>3.8</ele>
        <time>2025-01-22T09:13:36.952Z</time>
      </trkpt>
      <trkpt lat="46.73366" lon="-1.99536">
        <ele>3.9</ele>
        <time>2025-01-22T09:13:37.952Z</time>
      </trkpt>
      <trkpt lat="46.73367" lon="-1.99534">
        <ele>4</ele>
        <time>2025-01-22T09:13:38.953Z</time>
      </trkpt>
      <trkpt lat="46.73369" lon="-1.99532">
        <ele>4.2</ele>
        <time>2025-01-22T09:13:39.952Z</time>
      </trkpt>
      <trkpt lat="46.7337" lon="-1.99529">
        <ele>4.3</ele>
        <time>2025-01-22T09:13:40.952Z</time>
      </trkpt>
      <trkpt lat="46.73372" lon="-1.99527">
        <ele>4.4</ele>
        <time>2025-01-22T09:13:41.953Z</time>
      </trkpt>
      <trkpt lat="46.73373" lon="-1.99524">
        <ele>4.4</ele>
        <time>2025-01-22T09:13:42.953Z</time>
      </trkpt>
      <trkpt lat="46.73375" lon="-1.99521">
        <ele>4.4</ele>
        <time>2025-01-22T09:13:43.953Z</time>
      </trkpt>
      <trkpt lat="46.73376" lon="-1.99518">
        <ele>4.4</ele>
        <time>2025-01-22T09:13:44.953Z</time>
      </trkpt>
      <trkpt lat="46.73378" lon="-1.99515">
        <ele>4.4</ele>
        <time>2025-01-22T09:13:45.952Z</time>
      </trkpt>
      <trkpt lat="46.73379" lon="-1.99513">
        <ele>4.4</ele>
        <time>2025-01-22T09:13:46.952Z</time>
      </trkpt>
      <trkpt lat="46.7338" lon="-1.9951">
        <ele>4.5</ele>
        <time>2025-01-22T09:13:47.952Z</time>
      </trkpt>
      <trkpt lat="46.73382" lon="-1.99507">
        <ele>4.5</ele>
        <time>2025-01-22T09:13:48.953Z</time>
      </trkpt>
      <trkpt lat="46.73384" lon="-1.99503">
        <ele>4.7</ele>
        <time>2025-01-22T09:13:49.953Z</time>
      </trkpt>
      <trkpt lat="46.73386" lon="-1.995">
        <ele>4.8</ele>
        <time>2025-01-22T09:13:50.953Z</time>
      </trkpt>
      <trkpt lat="46.73387" lon="-1.99498">
        <ele>4.9</ele>
        <time>2025-01-22T09:13:51.952Z</time>
      </trkpt>
      <trkpt lat="46.73388" lon="-1.99496">
        <ele>5</ele>
        <time>2025-01-22T09:13:52.953Z</time>
      </trkpt>
      <trkpt lat="46.73388" lon="-1.99494">
        <ele>5.2</ele>
        <time>2025-01-22T09:13:53.952Z</time>
      </trkpt>
      <trkpt lat="46.73389" lon="-1.99491">
        <ele>5.3</ele>
        <time>2025-01-22T09:13:54.952Z</time>
      </trkpt>
      <trkpt lat="46.73391" lon="-1.99489">
        <ele>5.3</ele>
        <time>2025-01-22T09:13:55.952Z</time>
      </trkpt>
      <trkpt lat="46.73392" lon="-1.99486">
        <ele>5.4</ele>
        <time>2025-01-22T09:13:56.953Z</time>
      </trkpt>
      <trkpt lat="46.73393" lon="-1.99482">
        <ele>5.4</ele>
        <time>2025-01-22T09:13:57.953Z</time>
      </trkpt>
      <trkpt lat="46.73393" lon="-1.99479">
        <ele>5.5</ele>
        <time>2025-01-22T09:13:58.953Z</time>
      </trkpt>
      <trkpt lat="46.73393" lon="-1.99475">
        <ele>5.6</ele>
        <time>2025-01-22T09:13:59.953Z</time>
      </trkpt>
      <trkpt lat="46.73393" lon="-1.99471">
        <ele>5.8</ele>
        <time>2025-01-22T09:14:00.953Z</time>
      </trkpt>
      <trkpt lat="46.73393" lon="-1.99468">
        <ele>6.3</ele>
        <time>2025-01-22T09:14:01.952Z</time>
      </trkpt>
      <trkpt lat="46.73393" lon="-1.99466">
        <ele>6.6</ele>
        <time>2025-01-22T09:14:02.953Z</time>
      </trkpt>
      <trkpt lat="46.73392" lon="-1.99463">
        <ele>7</ele>
        <time>2025-01-22T09:14:03.953Z</time>
      </trkpt>
      <trkpt lat="46.73392" lon="-1.99461">
        <ele>7.3</ele>
        <time>2025-01-22T09:14:04.953Z</time>
      </trkpt>
      <trkpt lat="46.73391" lon="-1.99459">
        <ele>7.7</ele>
        <time>2025-01-22T09:14:05.953Z</time>
      </trkpt>
      <trkpt lat="46.73391" lon="-1.99457">
        <ele>8</ele>
        <time>2025-01-22T09:14:06.952Z</time>
      </trkpt>
      <trkpt lat="46.73391" lon="-1.99455">
        <ele>8.3</ele>
        <time>2025-01-22T09:14:07.952Z</time>
      </trkpt>
      <trkpt lat="46.7339" lon="-1.99453">
        <ele>8.6</ele>
        <time>2025-01-22T09:14:08.952Z</time>
      </trkpt>
      <trkpt lat="46.7339" lon="-1.99452">
        <ele>8.8</ele>
        <time>2025-01-22T09:14:09.953Z</time>
      </trkpt>
      <trkpt lat="46.73389" lon="-1.9945">
        <ele>9.1</ele>
        <time>2025-01-22T09:14:10.952Z</time>
      </trkpt>
      <trkpt lat="46.73389" lon="-1.99449">
        <ele>9.2</ele>
        <time>2025-01-22T09:14:11.953Z</time>
      </trkpt>
      <trkpt lat="46.73388" lon="-1.99448">
        <ele>9.4</ele>
        <time>2025-01-22T09:14:12.953Z</time>
      </trkpt>
      <trkpt lat="46.73388" lon="-1.99447">
        <ele>9.5</ele>
        <time>2025-01-22T09:14:13.953Z</time>
      </trkpt>
      <trkpt lat="46.73387" lon="-1.99445">
        <ele>9.6</ele>
        <time>2025-01-22T09:14:14.952Z</time>
      </trkpt>
      <trkpt lat="46.73387" lon="-1.99444">
        <ele>9.8</ele>
        <time>2025-01-22T09:14:15.952Z</time>
      </trkpt>
      <trkpt lat="46.73387" lon="-1.99442">
        <ele>10.1</ele>
        <time>2025-01-22T09:14:16.952Z</time>
      </trkpt>
      <trkpt lat="46.73387" lon="-1.99441">
        <ele>10.3</ele>
        <time>2025-01-22T09:14:17.952Z</time>
      </trkpt>
      <trkpt lat="46.73388" lon="-1.9944">
        <ele>10.6</ele>
        <time>2025-01-22T09:14:18.953Z</time>
      </trkpt>
      <trkpt lat="46.73388" lon="-1.99439">
        <ele>10.9</ele>
        <time>2025-01-22T09:14:19.953Z</time>
      </trkpt>
      <trkpt lat="46.73389" lon="-1.99438">
        <ele>11.2</ele>
        <time>2025-01-22T09:14:20.953Z</time>
      </trkpt>
      <trkpt lat="46.73389" lon="-1.99436">
        <ele>11.5</ele>
        <time>2025-01-22T09:14:21.953Z</time>
      </trkpt>
      <trkpt lat="46.73389" lon="-1.99435">
        <ele>11.7</ele>
        <time>2025-01-22T09:14:22.953Z</time>
      </trkpt>
      <trkpt lat="46.73389" lon="-1.99434">
        <ele>11.9</ele>
        <time>2025-01-22T09:14:23.952Z</time>
      </trkpt>
      <trkpt lat="46.73389" lon="-1.99433">
        <ele>12.1</ele>
        <time>2025-01-22T09:14:24.952Z</time>
      </trkpt>
      <trkpt lat="46.73389" lon="-1.99431">
        <ele>12.4</ele>
        <time>2025-01-22T09:14:25.952Z</time>
      </trkpt>
      <trkpt lat="46.73389" lon="-1.9943">
        <ele>12.6</ele>
        <time>2025-01-22T09:14:26.952Z</time>
      </trkpt>
      <trkpt lat="46.73389" lon="-1.99429">
        <ele>12.8</ele>
        <time>2025-01-22T09:14:27.953Z</time>
      </trkpt>
      <trkpt lat="46.7339" lon="-1.99427">
        <ele>13.1</ele>
        <time>2025-01-22T09:14:28.952Z</time>
      </trkpt>
      <trkpt lat="46.7339" lon="-1.99425">
        <ele>13.4</ele>
        <time>2025-01-22T09:14:29.953Z</time>
      </trkpt>
      <trkpt lat="46.7339" lon="-1.99424">
        <ele>13.6</ele>
        <time>2025-01-22T09:14:30.953Z</time>
      </trkpt>
      <trkpt lat="46.7339" lon="-1.99423">
        <ele>13.8</ele>
        <time>2025-01-22T09:14:31.953Z</time>
      </trkpt>
      <trkpt lat="46.7339" lon="-1.99422">
        <ele>14</ele>
        <time>2025-01-22T09:14:32.952Z</time>
      </trkpt>
      <trkpt lat="46.7339" lon="-1.99421">
        <ele>14.2</ele>
        <time>2025-01-22T09:14:33.952Z</time>
      </trkpt>
      <trkpt lat="46.73389" lon="-1.99419">
        <ele>14.5</ele>
        <time>2025-01-22T09:14:34.952Z</time>
      </trkpt>
      <trkpt lat="46.73389" lon="-1.99418">
        <ele>14.8</ele>
        <time>2025-01-22T09:14:35.952Z</time>
      </trkpt>
      <trkpt lat="46.7339" lon="-1.99416">
        <ele>14.9</ele>
        <time>2025-01-22T09:14:36.952Z</time>
      </trkpt>
      <trkpt lat="46.7339" lon="-1.99415">
        <ele>15</ele>
        <time>2025-01-22T09:14:37.953Z</time>
      </trkpt>
      <trkpt lat="46.7339" lon="-1.99414">
        <ele>15</ele>
        <time>2025-01-22T09:14:38.953Z</time>
      </trkpt>
      <trkpt lat="46.73391" lon="-1.99413">
        <ele>15.1</ele>
        <time>2025-01-22T09:14:39.953Z</time>
      </trkpt>
      <trkpt lat="46.73392" lon="-1.99412">
        <ele>15.1</ele>
        <time>2025-01-22T09:14:40.953Z</time>
      </trkpt>
      <trkpt lat="46.73393" lon="-1.9941">
        <ele>15.1</ele>
        <time>2025-01-22T09:14:41.952Z</time>
      </trkpt>
      <trkpt lat="46.73393" lon="-1.99409">
        <ele>15.3</ele>
        <time>2025-01-22T09:14:42.952Z</time>
      </trkpt>
      <trkpt lat="46.73393" lon="-1.99407">
        <ele>15.4</ele>
        <time>2025-01-22T09:14:43.952Z</time>
      </trkpt>
      <trkpt lat="46.73393" lon="-1.99405">
        <ele>15.5</ele>
        <time>2025-01-22T09:14:44.953Z</time>
      </trkpt>
      <trkpt lat="46.73394" lon="-1.99404">
        <ele>15.6</ele>
        <time>2025-01-22T09:14:45.953Z</time>
      </trkpt>
      <trkpt lat="46.73394" lon="-1.99402">
        <ele>15.7</ele>
        <time>2025-01-22T09:14:46.952Z</time>
      </trkpt>
      <trkpt lat="46.73395" lon="-1.994">
        <ele>15.8</ele>
        <time>2025-01-22T09:14:47.952Z</time>
      </trkpt>
      <trkpt lat="46.73395" lon="-1.99398">
        <ele>16</ele>
        <time>2025-01-22T09:14:48.953Z</time>
      </trkpt>
      <trkpt lat="46.73396" lon="-1.99397">
        <ele>16</ele>
        <time>2025-01-22T09:14:49.953Z</time>
      </trkpt>
      <trkpt lat="46.73397" lon="-1.99395">
        <ele>16.1</ele>
        <time>2025-01-22T09:14:50.953Z</time>
      </trkpt>
      <trkpt lat="46.73398" lon="-1.99393">
        <ele>16.3</ele>
        <time>2025-01-22T09:14:51.953Z</time>
      </trkpt>
      <trkpt lat="46.73399" lon="-1.9939">
        <ele>16.5</ele>
        <time>2025-01-22T09:14:52.953Z</time>
      </trkpt>
      <trkpt lat="46.73399" lon="-1.99387">
        <ele>16.5</ele>
        <time>2025-01-22T09:14:53.953Z</time>
      </trkpt>
      <trkpt lat="46.734" lon="-1.99385">
        <ele>16.4</ele>
        <time>2025-01-22T09:14:54.952Z</time>
      </trkpt>
      <trkpt lat="46.73401" lon="-1.99382">
        <ele>16.2</ele>
        <time>2025-01-22T09:14:55.952Z</time>
      </trkpt>
      <trkpt lat="46.73401" lon="-1.9938">
        <ele>16</ele>
        <time>2025-01-22T09:14:56.952Z</time>
      </trkpt>
      <trkpt lat="46.73402" lon="-1.99377">
        <ele>15.8</ele>
        <time>2025-01-22T09:14:57.952Z</time>
      </trkpt>
      <trkpt lat="46.73402" lon="-1.99375">
        <ele>15.6</ele>
        <time>2025-01-22T09:14:58.953Z</time>
      </trkpt>
      <trkpt lat="46.73403" lon="-1.99374">
        <ele>15.4</ele>
        <time>2025-01-22T09:14:59.953Z</time>
      </trkpt>
      <trkpt lat="46.73404" lon="-1.99372">
        <ele>15.1</ele>
        <time>2025-01-22T09:15:00.953Z</time>
      </trkpt>
      <trkpt lat="46.73405" lon="-1.9937">
        <ele>14.8</ele>
        <time>2025-01-22T09:15:01.952Z</time>
      </trkpt>
      <trkpt lat="46.73407" lon="-1.99367">
        <ele>14.3</ele>
        <time>2025-01-22T09:15:02.953Z</time>
      </trkpt>
      <trkpt lat="46.73409" lon="-1.99365">
        <ele>13.9</ele>
        <time>2025-01-22T09:15:03.953Z</time>
      </trkpt>
      <trkpt lat="46.7341" lon="-1.99363">
        <ele>13.4</ele>
        <time>2025-01-22T09:15:04.952Z</time>
      </trkpt>
      <trkpt lat="46.73412" lon="-1.9936">
        <ele>12.8</ele>
        <time>2025-01-22T09:15:05.952Z</time>
      </trkpt>
      <trkpt lat="46.73413" lon="-1.99357">
        <ele>12</ele>
        <time>2025-01-22T09:15:06.952Z</time>
      </trkpt>
      <trkpt lat="46.73414" lon="-1.99355">
        <ele>11.4</ele>
        <time>2025-01-22T09:15:07.952Z</time>
      </trkpt>
      <trkpt lat="46.73415" lon="-1.99353">
        <ele>11</ele>
        <time>2025-01-22T09:15:08.953Z</time>
      </trkpt>
      <trkpt lat="46.73416" lon="-1.99352">
        <ele>10.4</ele>
        <time>2025-01-22T09:15:09.953Z</time>
      </trkpt>
      <trkpt lat="46.73417" lon="-1.9935">
        <ele>9.9</ele>
        <time>2025-01-22T09:15:10.952Z</time>
      </trkpt>
      <trkpt lat="46.73418" lon="-1.99348">
        <ele>9.5</ele>
        <time>2025-01-22T09:15:11.953Z</time>
      </trkpt>
      <trkpt lat="46.73419" lon="-1.99345">
        <ele>8.9</ele>
        <time>2025-01-22T09:15:12.953Z</time>
      </trkpt>
      <trkpt lat="46.73421" lon="-1.99343">
        <ele>8.5</ele>
        <time>2025-01-22T09:15:13.952Z</time>
      </trkpt>
      <trkpt lat="46.73422" lon="-1.99341">
        <ele>8.1</ele>
        <time>2025-01-22T09:15:14.953Z</time>
      </trkpt>
      <trkpt lat="46.73423" lon="-1.9934">
        <ele>7.7</ele>
        <time>2025-01-22T09:15:15.952Z</time>
      </trkpt>
      <trkpt lat="46.73424" lon="-1.99338">
        <ele>7.4</ele>
        <time>2025-01-22T09:15:16.952Z</time>
      </trkpt>
      <trkpt lat="46.73426" lon="-1.99336">
        <ele>7</ele>
        <time>2025-01-22T09:15:17.953Z</time>
      </trkpt>
      <trkpt lat="46.73427" lon="-1.99333">
        <ele>6.6</ele>
        <time>2025-01-22T09:15:18.953Z</time>
      </trkpt>
      <trkpt lat="46.73428" lon="-1.99331">
        <ele>6.5</ele>
        <time>2025-01-22T09:15:19.953Z</time>
      </trkpt>
      <trkpt lat="46.73429" lon="-1.99329">
        <ele>6.4</ele>
        <time>2025-01-22T09:15:20.953Z</time>
      </trkpt>
      <trkpt lat="46.7343" lon="-1.99326">
        <ele>6.3</ele>
        <time>2025-01-22T09:15:21.953Z</time>
      </trkpt>
      <trkpt lat="46.73431" lon="-1.99324">
        <ele>6.2</ele>
        <time>2025-01-22T09:15:22.952Z</time>
      </trkpt>
      <trkpt lat="46.73432" lon="-1.99322">
        <ele>6.1</ele>
        <time>2025-01-22T09:15:23.952Z</time>
      </trkpt>
      <trkpt lat="46.73433" lon="-1.9932">
        <ele>6</ele>
        <time>2025-01-22T09:15:24.953Z</time>
      </trkpt>
      <trkpt lat="46.73434" lon="-1.99318">
        <ele>6</ele>
        <time>2025-01-22T09:15:25.953Z</time>
      </trkpt>
      <trkpt lat="46.73436" lon="-1.99317">
        <ele>5.9</ele>
        <time>2025-01-22T09:15:26.952Z</time>
      </trkpt>
      <trkpt lat="46.73437" lon="-1.99315">
        <ele>5.9</ele>
        <time>2025-01-22T09:15:27.952Z</time>
      </trkpt>
      <trkpt lat="46.73439" lon="-1.99313">
        <ele>5.9</ele>
        <time>2025-01-22T09:15:28.952Z</time>
      </trkpt>
      <trkpt lat="46.7344" lon="-1.9931">
        <ele>5.9</ele>
        <time>2025-01-22T09:15:29.952Z</time>
      </trkpt>
      <trkpt lat="46.73442" lon="-1.99309">
        <ele>5.9</ele>
        <time>2025-01-22T09:15:30.953Z</time>
      </trkpt>
      <trkpt lat="46.73443" lon="-1.99307">
        <ele>6</ele>
        <time>2025-01-22T09:15:31.952Z</time>
      </trkpt>
      <trkpt lat="46.73445" lon="-1.99305">
        <ele>6</ele>
        <time>2025-01-22T09:15:32.953Z</time>
      </trkpt>
      <trkpt lat="46.73447" lon="-1.99303">
        <ele>5.9</ele>
        <time>2025-01-22T09:15:33.953Z</time>
      </trkpt>
      <trkpt lat="46.73449" lon="-1.99302">
        <ele>5.9</ele>
        <time>2025-01-22T09:15:34.952Z</time>
      </trkpt>
      <trkpt lat="46.73451" lon="-1.993">
        <ele>5.8</ele>
        <time>2025-01-22T09:15:35.952Z</time>
      </trkpt>
      <trkpt lat="46.73453" lon="-1.99298">
        <ele>5.8</ele>
        <time>2025-01-22T09:15:36.952Z</time>
      </trkpt>
      <trkpt lat="46.73455" lon="-1.99296">
        <ele>5.8</ele>
        <time>2025-01-22T09:15:37.952Z</time>
      </trkpt>
      <trkpt lat="46.73456" lon="-1.99294">
        <ele>5.8</ele>
        <time>2025-01-22T09:15:38.952Z</time>
      </trkpt>
      <trkpt lat="46.73458" lon="-1.99292">
        <ele>5.8</ele>
        <time>2025-01-22T09:15:39.952Z</time>
      </trkpt>
      <trkpt lat="46.7346" lon="-1.9929">
        <ele>5.8</ele>
        <time>2025-01-22T09:15:40.953Z</time>
      </trkpt>
      <trkpt lat="46.73463" lon="-1.99289">
        <ele>5.8</ele>
        <time>2025-01-22T09:15:41.952Z</time>
      </trkpt>
      <trkpt lat="46.73466" lon="-1.99287">
        <ele>5.8</ele>
        <time>2025-01-22T09:15:42.953Z</time>
      </trkpt>
      <trkpt lat="46.73469" lon="-1.99286">
        <ele>5.9</ele>
        <time>2025-01-22T09:15:43.953Z</time>
      </trkpt>
      <trkpt lat="46.73471" lon="-1.99286">
        <ele>6</ele>
        <time>2025-01-22T09:15:44.953Z</time>
      </trkpt>
      <trkpt lat="46.73473" lon="-1.99286">
        <ele>6.1</ele>
        <time>2025-01-22T09:15:45.952Z</time>
      </trkpt>
      <trkpt lat="46.73476" lon="-1.99284">
        <ele>6.2</ele>
        <time>2025-01-22T09:15:46.953Z</time>
      </trkpt>
      <trkpt lat="46.73479" lon="-1.99282">
        <ele>6.4</ele>
        <time>2025-01-22T09:15:47.953Z</time>
      </trkpt>
      <trkpt lat="46.73481" lon="-1.99279">
        <ele>6.6</ele>
        <time>2025-01-22T09:15:48.953Z</time>
      </trkpt>
      <trkpt lat="46.73484" lon="-1.99277">
        <ele>6.8</ele>
        <time>2025-01-22T09:15:49.953Z</time>
      </trkpt>
      <trkpt lat="46.73485" lon="-1.99275">
        <ele>6.9</ele>
        <time>2025-01-22T09:15:50.953Z</time>
      </trkpt>
      <trkpt lat="46.73486" lon="-1.99275">
        <ele>7</ele>
        <time>2025-01-22T09:15:51.952Z</time>
      </trkpt>
      <trkpt lat="46.73488" lon="-1.99274">
        <ele>7.1</ele>
        <time>2025-01-22T09:15:52.952Z</time>
      </trkpt>
      <trkpt lat="46.73489" lon="-1.99273">
        <ele>7.2</ele>
        <time>2025-01-22T09:15:53.952Z</time>
      </trkpt>
      <trkpt lat="46.73491" lon="-1.99272">
        <ele>7.3</ele>
        <time>2025-01-22T09:15:54.953Z</time>
      </trkpt>
      <trkpt lat="46.73493" lon="-1.9927">
        <ele>7.4</ele>
        <time>2025-01-22T09:15:55.953Z</time>
      </trkpt>
      <trkpt lat="46.73495" lon="-1.99269">
        <ele>7.4</ele>
        <time>2025-01-22T09:15:56.953Z</time>
      </trkpt>
      <trkpt lat="46.73497" lon="-1.99268">
        <ele>7.5</ele>
        <time>2025-01-22T09:15:57.953Z</time>
      </trkpt>
      <trkpt lat="46.73498" lon="-1.99268">
        <ele>7.5</ele>
        <time>2025-01-22T09:15:58.953Z</time>
      </trkpt>
      <trkpt lat="46.73499" lon="-1.99266">
        <ele>7.5</ele>
        <time>2025-01-22T09:15:59.952Z</time>
      </trkpt>
      <trkpt lat="46.73501" lon="-1.99264">
        <ele>7.5</ele>
        <time>2025-01-22T09:16:00.952Z</time>
      </trkpt>
      <trkpt lat="46.73503" lon="-1.99261">
        <ele>7.3</ele>
        <time>2025-01-22T09:16:01.952Z</time>
      </trkpt>
      <trkpt lat="46.73504" lon="-1.99259">
        <ele>7.2</ele>
        <time>2025-01-22T09:16:02.953Z</time>
      </trkpt>
      <trkpt lat="46.73507" lon="-1.99256">
        <ele>7.1</ele>
        <time>2025-01-22T09:16:03.952Z</time>
      </trkpt>
      <trkpt lat="46.73509" lon="-1.99253">
        <ele>7</ele>
        <time>2025-01-22T09:16:04.952Z</time>
      </trkpt>
      <trkpt lat="46.73512" lon="-1.9925">
        <ele>7</ele>
        <time>2025-01-22T09:16:05.953Z</time>
      </trkpt>
      <trkpt lat="46.73515" lon="-1.99246">
        <ele>6.9</ele>
        <time>2025-01-22T09:16:06.952Z</time>
      </trkpt>
      <trkpt lat="46.73518" lon="-1.99243">
        <ele>7</ele>
        <time>2025-01-22T09:16:07.952Z</time>
      </trkpt>
      <trkpt lat="46.73521" lon="-1.99239">
        <ele>7.1</ele>
        <time>2025-01-22T09:16:08.952Z</time>
      </trkpt>
      <trkpt lat="46.73523" lon="-1.99235">
        <ele>7.2</ele>
        <time>2025-01-22T09:16:09.953Z</time>
      </trkpt>
      <trkpt lat="46.73524" lon="-1.99232">
        <ele>7.4</ele>
        <time>2025-01-22T09:16:10.953Z</time>
      </trkpt>
      <trkpt lat="46.73526" lon="-1.9923">
        <ele>7.6</ele>
        <time>2025-01-22T09:16:11.953Z</time>
      </trkpt>
      <trkpt lat="46.73527" lon="-1.99227">
        <ele>7.8</ele>
        <time>2025-01-22T09:16:12.953Z</time>
      </trkpt>
      <trkpt lat="46.73529" lon="-1.99225">
        <ele>7.9</ele>
        <time>2025-01-22T09:16:13.952Z</time>
      </trkpt>
      <trkpt lat="46.7353" lon="-1.99222">
        <ele>8</ele>
        <time>2025-01-22T09:16:14.952Z</time>
      </trkpt>
      <trkpt lat="46.73531" lon="-1.99219">
        <ele>8.1</ele>
        <time>2025-01-22T09:16:15.952Z</time>
      </trkpt>
      <trkpt lat="46.73533" lon="-1.99213">
        <ele>8.2</ele>
        <time>2025-01-22T09:16:16.953Z</time>
      </trkpt>
      <trkpt lat="46.73534" lon="-1.99209">
        <ele>8.4</ele>
        <time>2025-01-22T09:16:17.952Z</time>
      </trkpt>
      <trkpt lat="46.73535" lon="-1.99206">
        <ele>8.6</ele>
        <time>2025-01-22T09:16:18.952Z</time>
      </trkpt>
      <trkpt lat="46.73537" lon="-1.99203">
        <ele>8.9</ele>
        <time>2025-01-22T09:16:19.952Z</time>
      </trkpt>
      <trkpt lat="46.73538" lon="-1.992">
        <ele>9.2</ele>
        <time>2025-01-22T09:16:20.952Z</time>
      </trkpt>
      <trkpt lat="46.73539" lon="-1.99197">
        <ele>9.5</ele>
        <time>2025-01-22T09:16:21.952Z</time>
      </trkpt>
      <trkpt lat="46.7354" lon="-1.99194">
        <ele>9.7</ele>
        <time>2025-01-22T09:16:22.953Z</time>
      </trkpt>
      <trkpt lat="46.73541" lon="-1.99191">
        <ele>9.6</ele>
        <time>2025-01-22T09:16:23.953Z</time>
      </trkpt>
      <trkpt lat="46.73542" lon="-1.99188">
        <ele>9.7</ele>
        <time>2025-01-22T09:16:24.953Z</time>
      </trkpt>
      <trkpt lat="46.73544" lon="-1.99185">
        <ele>9.8</ele>
        <time>2025-01-22T09:16:25.953Z</time>
      </trkpt>
      <trkpt lat="46.73545" lon="-1.99182">
        <ele>9.9</ele>
        <time>2025-01-22T09:16:26.953Z</time>
      </trkpt>
      <trkpt lat="46.73546" lon="-1.99179">
        <ele>9.9</ele>
        <time>2025-01-22T09:16:27.953Z</time>
      </trkpt>
      <trkpt lat="46.73548" lon="-1.99177">
        <ele>10</ele>
        <time>2025-01-22T09:16:28.953Z</time>
      </trkpt>
      <trkpt lat="46.73549" lon="-1.99174">
        <ele>10.1</ele>
        <time>2025-01-22T09:16:29.953Z</time>
      </trkpt>
      <trkpt lat="46.73549" lon="-1.99172">
        <ele>10.1</ele>
        <time>2025-01-22T09:16:30.953Z</time>
      </trkpt>
      <trkpt lat="46.7355" lon="-1.99169">
        <ele>10.2</ele>
        <time>2025-01-22T09:16:31.952Z</time>
      </trkpt>
      <trkpt lat="46.73551" lon="-1.99167">
        <ele>10.1</ele>
        <time>2025-01-22T09:16:32.952Z</time>
      </trkpt>
      <trkpt lat="46.73552" lon="-1.99164">
        <ele>10.1</ele>
        <time>2025-01-22T09:16:33.952Z</time>
      </trkpt>
      <trkpt lat="46.73553" lon="-1.99162">
        <ele>10.1</ele>
        <time>2025-01-22T09:16:34.953Z</time>
      </trkpt>
      <trkpt lat="46.73554" lon="-1.99161">
        <ele>10.3</ele>
        <time>2025-01-22T09:16:35.953Z</time>
      </trkpt>
      <trkpt lat="46.73555" lon="-1.99159">
        <ele>10.4</ele>
        <time>2025-01-22T09:16:36.953Z</time>
      </trkpt>
      <trkpt lat="46.73557" lon="-1.99157">
        <ele>10.4</ele>
        <time>2025-01-22T09:16:37.953Z</time>
      </trkpt>
      <trkpt lat="46.73559" lon="-1.99155">
        <ele>10.5</ele>
        <time>2025-01-22T09:16:38.952Z</time>
      </trkpt>
      <trkpt lat="46.73561" lon="-1.99153">
        <ele>10.4</ele>
        <time>2025-01-22T09:16:39.952Z</time>
      </trkpt>
      <trkpt lat="46.73563" lon="-1.9915">
        <ele>10.3</ele>
        <time>2025-01-22T09:16:40.952Z</time>
      </trkpt>
      <trkpt lat="46.73565" lon="-1.99148">
        <ele>10.3</ele>
        <time>2025-01-22T09:16:41.953Z</time>
      </trkpt>
      <trkpt lat="46.73568" lon="-1.99146">
        <ele>10.2</ele>
        <time>2025-01-22T09:16:42.953Z</time>
      </trkpt>
      <trkpt lat="46.73571" lon="-1.99144">
        <ele>10.1</ele>
        <time>2025-01-22T09:16:43.953Z</time>
      </trkpt>
      <trkpt lat="46.73573" lon="-1.99143">
        <ele>10.1</ele>
        <time>2025-01-22T09:16:44.953Z</time>
      </trkpt>
      <trkpt lat="46.73575" lon="-1.99141">
        <ele>10</ele>
        <time>2025-01-22T09:16:45.953Z</time>
      </trkpt>
      <trkpt lat="46.73576" lon="-1.9914">
        <ele>9.8</ele>
        <time>2025-01-22T09:16:46.952Z</time>
      </trkpt>
      <trkpt lat="46.73578" lon="-1.99137">
        <ele>9.7</ele>
        <time>2025-01-22T09:16:47.953Z</time>
      </trkpt>
      <trkpt lat="46.7358" lon="-1.99134">
        <ele>9.5</ele>
        <time>2025-01-22T09:16:48.953Z</time>
      </trkpt>
      <trkpt lat="46.73582" lon="-1.99131">
        <ele>9.4</ele>
        <time>2025-01-22T09:16:49.952Z</time>
      </trkpt>
      <trkpt lat="46.73583" lon="-1.99129">
        <ele>9.3</ele>
        <time>2025-01-22T09:16:50.952Z</time>
      </trkpt>
      <trkpt lat="46.73585" lon="-1.99126">
        <ele>9</ele>
        <time>2025-01-22T09:16:51.952Z</time>
      </trkpt>
      <trkpt lat="46.73587" lon="-1.99125">
        <ele>8.7</ele>
        <time>2025-01-22T09:16:52.952Z</time>
      </trkpt>
      <trkpt lat="46.73589" lon="-1.99122">
        <ele>8.5</ele>
        <time>2025-01-22T09:16:53.953Z</time>
      </trkpt>
      <trkpt lat="46.7359" lon="-1.99121">
        <ele>8.3</ele>
        <time>2025-01-22T09:16:54.952Z</time>
      </trkpt>
      <trkpt lat="46.73591" lon="-1.99119">
        <ele>8.1</ele>
        <time>2025-01-22T09:16:55.953Z</time>
      </trkpt>
      <trkpt lat="46.73591" lon="-1.99116">
        <ele>8</ele>
        <time>2025-01-22T09:16:56.953Z</time>
      </trkpt>
      <trkpt lat="46.73592" lon="-1.99114">
        <ele>7.8</ele>
        <time>2025-01-22T09:16:57.953Z</time>
      </trkpt>
      <trkpt lat="46.73593" lon="-1.99111">
        <ele>7.6</ele>
        <time>2025-01-22T09:16:58.952Z</time>
      </trkpt>
      <trkpt lat="46.73594" lon="-1.99105">
        <ele>7.2</ele>
        <time>2025-01-22T09:16:59.952Z</time>
      </trkpt>
      <trkpt lat="46.73596" lon="-1.991">
        <ele>6.8</ele>
        <time>2025-01-22T09:17:00.952Z</time>
      </trkpt>
      <trkpt lat="46.73597" lon="-1.99095">
        <ele>6.6</ele>
        <time>2025-01-22T09:17:01.952Z</time>
      </trkpt>
      <trkpt lat="46.73598" lon="-1.99091">
        <ele>6.4</ele>
        <time>2025-01-22T09:17:02.952Z</time>
      </trkpt>
      <trkpt lat="46.73598" lon="-1.99087">
        <ele>6.3</ele>
        <time>2025-01-22T09:17:03.953Z</time>
      </trkpt>
      <trkpt lat="46.73598" lon="-1.99083">
        <ele>6.1</ele>
        <time>2025-01-22T09:17:04.953Z</time>
      </trkpt>
      <trkpt lat="46.73598" lon="-1.99079">
        <ele>6</ele>
        <time>2025-01-22T09:17:05.953Z</time>
      </trkpt>
      <trkpt lat="46.73598" lon="-1.99075">
        <ele>6</ele>
        <time>2025-01-22T09:17:06.952Z</time>
      </trkpt>
      <trkpt lat="46.73599" lon="-1.99072">
        <ele>6</ele>
        <time>2025-01-22T09:17:07.953Z</time>
      </trkpt>
      <trkpt lat="46.736" lon="-1.99068">
        <ele>6.1</ele>
        <time>2025-01-22T09:17:08.953Z</time>
      </trkpt>
      <trkpt lat="46.73601" lon="-1.99063">
        <ele>6.1</ele>
        <time>2025-01-22T09:17:09.953Z</time>
      </trkpt>
      <trkpt lat="46.73602" lon="-1.99058">
        <ele>6.1</ele>
        <time>2025-01-22T09:17:10.953Z</time>
      </trkpt>
      <trkpt lat="46.73605" lon="-1.99053">
        <ele>6.6</ele>
        <time>2025-01-22T09:17:11.953Z</time>
      </trkpt>
      <trkpt lat="46.73607" lon="-1.99047">
        <ele>7.6</ele>
        <time>2025-01-22T09:17:12.952Z</time>
      </trkpt>
      <trkpt lat="46.7361" lon="-1.99043">
        <ele>8.7</ele>
        <time>2025-01-22T09:17:13.952Z</time>
      </trkpt>
      <trkpt lat="46.73614" lon="-1.99039">
        <ele>9.3</ele>
        <time>2025-01-22T09:17:14.952Z</time>
      </trkpt>
      <trkpt lat="46.73616" lon="-1.99035">
        <ele>9.6</ele>
        <time>2025-01-22T09:17:15.952Z</time>
      </trkpt>
      <trkpt lat="46.73618" lon="-1.99033">
        <ele>9.7</ele>
        <time>2025-01-22T09:17:16.952Z</time>
      </trkpt>
      <trkpt lat="46.7362" lon="-1.9903">
        <ele>9.8</ele>
        <time>2025-01-22T09:17:17.952Z</time>
      </trkpt>
      <trkpt lat="46.73622" lon="-1.99028">
        <ele>9.8</ele>
        <time>2025-01-22T09:17:18.952Z</time>
      </trkpt>
      <trkpt lat="46.73625" lon="-1.99025">
        <ele>9.5</ele>
        <time>2025-01-22T09:17:19.952Z</time>
      </trkpt>
      <trkpt lat="46.73627" lon="-1.99021">
        <ele>9.2</ele>
        <time>2025-01-22T09:17:20.952Z</time>
      </trkpt>
      <trkpt lat="46.73629" lon="-1.99018">
        <ele>8.9</ele>
        <time>2025-01-22T09:17:21.953Z</time>
      </trkpt>
      <trkpt lat="46.7363" lon="-1.99015">
        <ele>8.7</ele>
        <time>2025-01-22T09:17:22.953Z</time>
      </trkpt>
      <trkpt lat="46.7363" lon="-1.99012">
        <ele>8.6</ele>
        <time>2025-01-22T09:17:23.953Z</time>
      </trkpt>
      <trkpt lat="46.73629" lon="-1.99009">
        <ele>8.7</ele>
        <time>2025-01-22T09:17:24.952Z</time>
      </trkpt>
      <trkpt lat="46.73626" lon="-1.99005">
        <ele>9</ele>
        <time>2025-01-22T09:17:25.953Z</time>
      </trkpt>
      <trkpt lat="46.73623" lon="-1.99001">
        <ele>9.3</ele>
        <time>2025-01-22T09:17:26.952Z</time>
      </trkpt>
      <trkpt lat="46.73621" lon="-1.98998">
        <ele>9.4</ele>
        <time>2025-01-22T09:17:27.952Z</time>
      </trkpt>
      <trkpt lat="46.73618" lon="-1.98995">
        <ele>9.5</ele>
        <time>2025-01-22T09:17:28.952Z</time>
      </trkpt>
      <trkpt lat="46.73614" lon="-1.98992">
        <ele>9.8</ele>
        <time>2025-01-22T09:17:29.952Z</time>
      </trkpt>
      <trkpt lat="46.73608" lon="-1.98988">
        <ele>9.8</ele>
        <time>2025-01-22T09:17:30.952Z</time>
      </trkpt>
      <trkpt lat="46.73604" lon="-1.98984">
        <ele>9.5</ele>
        <time>2025-01-22T09:17:31.952Z</time>
      </trkpt>
      <trkpt lat="46.73602" lon="-1.98982">
        <ele>9.3</ele>
        <time>2025-01-22T09:17:32.953Z</time>
      </trkpt>
      <trkpt lat="46.73601" lon="-1.9898">
        <ele>9.2</ele>
        <time>2025-01-22T09:17:33.953Z</time>
      </trkpt>
      <trkpt lat="46.73601" lon="-1.98979">
        <ele>9.2</ele>
        <time>2025-01-22T09:17:34.952Z</time>
      </trkpt>
      <trkpt lat="46.73597" lon="-1.9898">
        <ele>9.4</ele>
        <time>2025-01-22T09:17:35.952Z</time>
      </trkpt>
      <trkpt lat="46.73594" lon="-1.9898">
        <ele>9.6</ele>
        <time>2025-01-22T09:17:36.952Z</time>
      </trkpt>
      <trkpt lat="46.7359" lon="-1.9898">
        <ele>9.7</ele>
        <time>2025-01-22T09:17:37.952Z</time>
      </trkpt>
      <trkpt lat="46.73587" lon="-1.98982">
        <ele>9.9</ele>
        <time>2025-01-22T09:17:38.952Z</time>
      </trkpt>
      <trkpt lat="46.73584" lon="-1.98983">
        <ele>10</ele>
        <time>2025-01-22T09:17:39.952Z</time>
      </trkpt>
      <trkpt lat="46.73581" lon="-1.98984">
        <ele>10.2</ele>
        <time>2025-01-22T09:17:40.953Z</time>
      </trkpt>
      <trkpt lat="46.73579" lon="-1.98984">
        <ele>10.3</ele>
        <time>2025-01-22T09:17:41.953Z</time>
      </trkpt>
      <trkpt lat="46.73577" lon="-1.98984">
        <ele>10.4</ele>
        <time>2025-01-22T09:17:42.953Z</time>
      </trkpt>
      <trkpt lat="46.73576" lon="-1.98982">
        <ele>10.5</ele>
        <time>2025-01-22T09:17:43.953Z</time>
      </trkpt>
      <trkpt lat="46.73576" lon="-1.98981">
        <ele>10.6</ele>
        <time>2025-01-22T09:17:44.952Z</time>
      </trkpt>
      <trkpt lat="46.73575" lon="-1.98979">
        <ele>10.7</ele>
        <time>2025-01-22T09:17:45.952Z</time>
      </trkpt>
      <trkpt lat="46.73573" lon="-1.98978">
        <ele>10.9</ele>
        <time>2025-01-22T09:17:46.952Z</time>
      </trkpt>
      <trkpt lat="46.73572" lon="-1.98976">
        <ele>11.1</ele>
        <time>2025-01-22T09:17:47.952Z</time>
      </trkpt>
      <trkpt lat="46.73569" lon="-1.98975">
        <ele>11.4</ele>
        <time>2025-01-22T09:17:48.952Z</time>
      </trkpt>
      <trkpt lat="46.73567" lon="-1.98974">
        <ele>11.7</ele>
        <time>2025-01-22T09:17:49.953Z</time>
      </trkpt>
      <trkpt lat="46.73564" lon="-1.98974">
        <ele>11.9</ele>
        <time>2025-01-22T09:17:50.953Z</time>
      </trkpt>
      <trkpt lat="46.73561" lon="-1.98975">
        <ele>12.2</ele>
        <time>2025-01-22T09:17:51.953Z</time>
      </trkpt>
      <trkpt lat="46.73559" lon="-1.98976">
        <ele>12.3</ele>
        <time>2025-01-22T09:17:52.952Z</time>
      </trkpt>
      <trkpt lat="46.73556" lon="-1.98978">
        <ele>12.3</ele>
        <time>2025-01-22T09:17:53.953Z</time>
      </trkpt>
      <trkpt lat="46.73555" lon="-1.98979">
        <ele>12.3</ele>
        <time>2025-01-22T09:17:54.953Z</time>
      </trkpt>
      <trkpt lat="46.73553" lon="-1.98981">
        <ele>12.2</ele>
        <time>2025-01-22T09:17:55.953Z</time>
      </trkpt>
      <trkpt lat="46.73551" lon="-1.98982">
        <ele>12.2</ele>
        <time>2025-01-22T09:17:56.953Z</time>
      </trkpt>
      <trkpt lat="46.73549" lon="-1.98982">
        <ele>12.3</ele>
        <time>2025-01-22T09:17:57.953Z</time>
      </trkpt>
      <trkpt lat="46.73547" lon="-1.98982">
        <ele>12.4</ele>
        <time>2025-01-22T09:17:58.952Z</time>
      </trkpt>
      <trkpt lat="46.73545" lon="-1.98983">
        <ele>12.5</ele>
        <time>2025-01-22T09:17:59.952Z</time>
      </trkpt>
      <trkpt lat="46.73542" lon="-1.98984">
        <ele>12.5</ele>
        <time>2025-01-22T09:18:00.952Z</time>
      </trkpt>
      <trkpt lat="46.7354" lon="-1.98986">
        <ele>12.6</ele>
        <time>2025-01-22T09:18:01.952Z</time>
      </trkpt>
      <trkpt lat="46.73537" lon="-1.98989">
        <ele>12.8</ele>
        <time>2025-01-22T09:18:02.953Z</time>
      </trkpt>
      <trkpt lat="46.73536" lon="-1.98992">
        <ele>12.9</ele>
        <time>2025-01-22T09:18:03.952Z</time>
      </trkpt>
      <trkpt lat="46.73534" lon="-1.98995">
        <ele>13.1</ele>
        <time>2025-01-22T09:18:04.952Z</time>
      </trkpt>
      <trkpt lat="46.73533" lon="-1.98998">
        <ele>13.3</ele>
        <time>2025-01-22T09:18:05.953Z</time>
      </trkpt>
      <trkpt lat="46.73532" lon="-1.99">
        <ele>13.5</ele>
        <time>2025-01-22T09:18:06.953Z</time>
      </trkpt>
      <trkpt lat="46.73531" lon="-1.99001">
        <ele>13.6</ele>
        <time>2025-01-22T09:18:07.952Z</time>
      </trkpt>
      <trkpt lat="46.73529" lon="-1.99002">
        <ele>13.7</ele>
        <time>2025-01-22T09:18:08.952Z</time>
      </trkpt>
      <trkpt lat="46.73528" lon="-1.99003">
        <ele>13.9</ele>
        <time>2025-01-22T09:18:09.953Z</time>
      </trkpt>
      <trkpt lat="46.73526" lon="-1.99003">
        <ele>14</ele>
        <time>2025-01-22T09:18:10.952Z</time>
      </trkpt>
      <trkpt lat="46.73524" lon="-1.99004">
        <ele>14</ele>
        <time>2025-01-22T09:18:11.953Z</time>
      </trkpt>
      <trkpt lat="46.73522" lon="-1.99004">
        <ele>14.1</ele>
        <time>2025-01-22T09:18:12.953Z</time>
      </trkpt>
      <trkpt lat="46.73519" lon="-1.99005">
        <ele>14.2</ele>
        <time>2025-01-22T09:18:13.953Z</time>
      </trkpt>
      <trkpt lat="46.73516" lon="-1.99006">
        <ele>14.3</ele>
        <time>2025-01-22T09:18:14.952Z</time>
      </trkpt>
      <trkpt lat="46.73514" lon="-1.99006">
        <ele>14.4</ele>
        <time>2025-01-22T09:18:15.953Z</time>
      </trkpt>
      <trkpt lat="46.73512" lon="-1.99006">
        <ele>14.5</ele>
        <time>2025-01-22T09:18:16.953Z</time>
      </trkpt>
      <trkpt lat="46.7351" lon="-1.99005">
        <ele>14.6</ele>
        <time>2025-01-22T09:18:17.952Z</time>
      </trkpt>
      <trkpt lat="46.73508" lon="-1.99005">
        <ele>14.7</ele>
        <time>2025-01-22T09:18:18.952Z</time>
      </trkpt>
      <trkpt lat="46.73507" lon="-1.99003">
        <ele>14.7</ele>
        <time>2025-01-22T09:18:19.952Z</time>
      </trkpt>
      <trkpt lat="46.73507" lon="-1.99002">
        <ele>14.7</ele>
        <time>2025-01-22T09:18:20.953Z</time>
      </trkpt>
      <trkpt lat="46.73507" lon="-1.99002">
        <ele>14.7</ele>
        <time>2025-01-22T09:18:21.953Z</time>
      </trkpt>
      <trkpt lat="46.73506" lon="-1.99001">
        <ele>14.8</ele>
        <time>2025-01-22T09:18:22.953Z</time>
      </trkpt>
      <trkpt lat="46.73506" lon="-1.99">
        <ele>14.8</ele>
        <time>2025-01-22T09:18:23.953Z</time>
      </trkpt>
      <trkpt lat="46.73505" lon="-1.98998">
        <ele>14.7</ele>
        <time>2025-01-22T09:18:24.952Z</time>
      </trkpt>
      <trkpt lat="46.73503" lon="-1.98997">
        <ele>14.5</ele>
        <time>2025-01-22T09:18:25.952Z</time>
      </trkpt>
      <trkpt lat="46.73501" lon="-1.98996">
        <ele>14.5</ele>
        <time>2025-01-22T09:18:26.953Z</time>
      </trkpt>
      <trkpt lat="46.73499" lon="-1.98995">
        <ele>14.4</ele>
        <time>2025-01-22T09:18:27.953Z</time>
      </trkpt>
      <trkpt lat="46.73497" lon="-1.98994">
        <ele>14.2</ele>
        <time>2025-01-22T09:18:28.952Z</time>
      </trkpt>
      <trkpt lat="46.73496" lon="-1.98993">
        <ele>14</ele>
        <time>2025-01-22T09:18:29.953Z</time>
      </trkpt>
      <trkpt lat="46.73494" lon="-1.98991">
        <ele>13.9</ele>
        <time>2025-01-22T09:18:30.953Z</time>
      </trkpt>
      <trkpt lat="46.73492" lon="-1.98989">
        <ele>13.8</ele>
        <time>2025-01-22T09:18:31.952Z</time>
      </trkpt>
      <trkpt lat="46.73491" lon="-1.98987">
        <ele>13.7</ele>
        <time>2025-01-22T09:18:32.953Z</time>
      </trkpt>
      <trkpt lat="46.73489" lon="-1.98985">
        <ele>13.7</ele>
        <time>2025-01-22T09:18:33.952Z</time>
      </trkpt>
      <trkpt lat="46.73488" lon="-1.98983">
        <ele>13.7</ele>
        <time>2025-01-22T09:18:34.953Z</time>
      </trkpt>
      <trkpt lat="46.73487" lon="-1.98981">
        <ele>13.8</ele>
        <time>2025-01-22T09:18:35.952Z</time>
      </trkpt>
      <trkpt lat="46.73485" lon="-1.98979">
        <ele>14</ele>
        <time>2025-01-22T09:18:36.952Z</time>
      </trkpt>
      <trkpt lat="46.73483" lon="-1.98977">
        <ele>14.2</ele>
        <time>2025-01-22T09:18:37.953Z</time>
      </trkpt>
      <trkpt lat="46.73482" lon="-1.98974">
        <ele>14.5</ele>
        <time>2025-01-22T09:18:38.953Z</time>
      </trkpt>
      <trkpt lat="46.73481" lon="-1.98971">
        <ele>14.7</ele>
        <time>2025-01-22T09:18:39.953Z</time>
      </trkpt>
      <trkpt lat="46.73479" lon="-1.98969">
        <ele>14.8</ele>
        <time>2025-01-22T09:18:40.953Z</time>
      </trkpt>
      <trkpt lat="46.73477" lon="-1.98966">
        <ele>14.9</ele>
        <time>2025-01-22T09:18:41.952Z</time>
      </trkpt>
      <trkpt lat="46.73475" lon="-1.98964">
        <ele>15.1</ele>
        <time>2025-01-22T09:18:42.952Z</time>
      </trkpt>
      <trkpt lat="46.73473" lon="-1.98961">
        <ele>15.1</ele>
        <time>2025-01-22T09:18:43.952Z</time>
      </trkpt>
      <trkpt lat="46.73471" lon="-1.98959">
        <ele>15</ele>
        <time>2025-01-22T09:18:44.953Z</time>
      </trkpt>
      <trkpt lat="46.7347" lon="-1.98957">
        <ele>14.9</ele>
        <time>2025-01-22T09:18:45.952Z</time>
      </trkpt>
      <trkpt lat="46.73469" lon="-1.98955">
        <ele>14.8</ele>
        <time>2025-01-22T09:18:46.952Z</time>
      </trkpt>
      <trkpt lat="46.73468" lon="-1.98953">
        <ele>14.7</ele>
        <time>2025-01-22T09:18:47.952Z</time>
      </trkpt>
      <trkpt lat="46.73467" lon="-1.98951">
        <ele>14.6</ele>
        <time>2025-01-22T09:18:48.953Z</time>
      </trkpt>
      <trkpt lat="46.73466" lon="-1.98949">
        <ele>14.6</ele>
        <time>2025-01-22T09:18:49.952Z</time>
      </trkpt>
      <trkpt lat="46.73464" lon="-1.98948">
        <ele>14.6</ele>
        <time>2025-01-22T09:18:50.953Z</time>
      </trkpt>
      <trkpt lat="46.73463" lon="-1.98946">
        <ele>14.7</ele>
        <time>2025-01-22T09:18:51.952Z</time>
      </trkpt>
      <trkpt lat="46.73462" lon="-1.98943">
        <ele>14.7</ele>
        <time>2025-01-22T09:18:52.953Z</time>
      </trkpt>
      <trkpt lat="46.73462" lon="-1.98941">
        <ele>14.6</ele>
        <time>2025-01-22T09:18:53.952Z</time>
      </trkpt>
      <trkpt lat="46.73462" lon="-1.98939">
        <ele>14.5</ele>
        <time>2025-01-22T09:18:54.953Z</time>
      </trkpt>
      <trkpt lat="46.73461" lon="-1.98937">
        <ele>14.4</ele>
        <time>2025-01-22T09:18:55.953Z</time>
      </trkpt>
      <trkpt lat="46.73461" lon="-1.98935">
        <ele>14.4</ele>
        <time>2025-01-22T09:18:56.953Z</time>
      </trkpt>
      <trkpt lat="46.7346" lon="-1.98933">
        <ele>14.3</ele>
        <time>2025-01-22T09:18:57.952Z</time>
      </trkpt>
      <trkpt lat="46.7346" lon="-1.98932">
        <ele>14.3</ele>
        <time>2025-01-22T09:18:58.952Z</time>
      </trkpt>
      <trkpt lat="46.73459" lon="-1.9893">
        <ele>14.4</ele>
        <time>2025-01-22T09:18:59.953Z</time>
      </trkpt>
      <trkpt lat="46.73456" lon="-1.98927">
        <ele>14.7</ele>
        <time>2025-01-22T09:19:00.952Z</time>
      </trkpt>
      <trkpt lat="46.73453" lon="-1.98925">
        <ele>15.3</ele>
        <time>2025-01-22T09:19:01.953Z</time>
      </trkpt>
      <trkpt lat="46.7345" lon="-1.98923">
        <ele>15.8</ele>
        <time>2025-01-22T09:19:02.953Z</time>
      </trkpt>
      <trkpt lat="46.73446" lon="-1.98922">
        <ele>16.5</ele>
        <time>2025-01-22T09:19:03.953Z</time>
      </trkpt>
      <trkpt lat="46.73443" lon="-1.98921">
        <ele>16.9</ele>
        <time>2025-01-22T09:19:04.953Z</time>
      </trkpt>
      <trkpt lat="46.73441" lon="-1.9892">
        <ele>16.9</ele>
        <time>2025-01-22T09:19:05.952Z</time>
      </trkpt>
      <trkpt lat="46.73438" lon="-1.98919">
        <ele>17</ele>
        <time>2025-01-22T09:19:06.953Z</time>
      </trkpt>
      <trkpt lat="46.73436" lon="-1.98918">
        <ele>17</ele>
        <time>2025-01-22T09:19:07.953Z</time>
      </trkpt>
      <trkpt lat="46.73433" lon="-1.98918">
        <ele>17</ele>
        <time>2025-01-22T09:19:08.952Z</time>
      </trkpt>
      <trkpt lat="46.7343" lon="-1.98918">
        <ele>17</ele>
        <time>2025-01-22T09:19:09.953Z</time>
      </trkpt>
      <trkpt lat="46.73427" lon="-1.98919">
        <ele>17.1</ele>
        <time>2025-01-22T09:19:10.952Z</time>
      </trkpt>
      <trkpt lat="46.73425" lon="-1.98921">
        <ele>17.2</ele>
        <time>2025-01-22T09:19:11.952Z</time>
      </trkpt>
      <trkpt lat="46.73422" lon="-1.98923">
        <ele>17.3</ele>
        <time>2025-01-22T09:19:12.952Z</time>
      </trkpt>
      <trkpt lat="46.7342" lon="-1.98924">
        <ele>17.4</ele>
        <time>2025-01-22T09:19:13.952Z</time>
      </trkpt>
      <trkpt lat="46.73419" lon="-1.98926">
        <ele>17.6</ele>
        <time>2025-01-22T09:19:14.952Z</time>
      </trkpt>
      <trkpt lat="46.73417" lon="-1.98927">
        <ele>17.8</ele>
        <time>2025-01-22T09:19:15.953Z</time>
      </trkpt>
      <trkpt lat="46.73415" lon="-1.98929">
        <ele>17.6</ele>
        <time>2025-01-22T09:19:16.952Z</time>
      </trkpt>
      <trkpt lat="46.73412" lon="-1.9893">
        <ele>17.5</ele>
        <time>2025-01-22T09:19:17.952Z</time>
      </trkpt>
      <trkpt lat="46.73411" lon="-1.9893">
        <ele>17.4</ele>
        <time>2025-01-22T09:19:18.952Z</time>
      </trkpt>
      <trkpt lat="46.73411" lon="-1.9893">
        <ele>17.3</ele>
        <time>2025-01-22T09:19:19.953Z</time>
      </trkpt>
      <trkpt lat="46.7341" lon="-1.98929">
        <ele>17.2</ele>
        <time>2025-01-22T09:19:20.953Z</time>
      </trkpt>
      <trkpt lat="46.73409" lon="-1.98927">
        <ele>17</ele>
        <time>2025-01-22T09:19:21.952Z</time>
      </trkpt>
      <trkpt lat="46.73408" lon="-1.98926">
        <ele>16.7</ele>
        <time>2025-01-22T09:19:22.952Z</time>
      </trkpt>
      <trkpt lat="46.73407" lon="-1.98924">
        <ele>16.4</ele>
        <time>2025-01-22T09:19:23.953Z</time>
      </trkpt>
      <trkpt lat="46.73406" lon="-1.98922">
        <ele>16.2</ele>
        <time>2025-01-22T09:19:24.953Z</time>
      </trkpt>
      <trkpt lat="46.73405" lon="-1.9892">
        <ele>16</ele>
        <time>2025-01-22T09:19:25.953Z</time>
      </trkpt>
      <trkpt lat="46.73404" lon="-1.98918">
        <ele>15.8</ele>
        <time>2025-01-22T09:19:26.953Z</time>
      </trkpt>
      <trkpt lat="46.73404" lon="-1.98916">
        <ele>15.5</ele>
        <time>2025-01-22T09:19:27.953Z</time>
      </trkpt>
      <trkpt lat="46.73404" lon="-1.98914">
        <ele>15.2</ele>
        <time>2025-01-22T09:19:28.953Z</time>
      </trkpt>
      <trkpt lat="46.73403" lon="-1.98911">
        <ele>14.8</ele>
        <time>2025-01-22T09:19:29.952Z</time>
      </trkpt>
      <trkpt lat="46.73402" lon="-1.98908">
        <ele>14.4</ele>
        <time>2025-01-22T09:19:30.953Z</time>
      </trkpt>
      <trkpt lat="46.73401" lon="-1.98905">
        <ele>13.9</ele>
        <time>2025-01-22T09:19:31.952Z</time>
      </trkpt>
      <trkpt lat="46.73399" lon="-1.98901">
        <ele>13.4</ele>
        <time>2025-01-22T09:19:32.953Z</time>
      </trkpt>
      <trkpt lat="46.73397" lon="-1.98897">
        <ele>12.8</ele>
        <time>2025-01-22T09:19:33.952Z</time>
      </trkpt>
      <trkpt lat="46.73396" lon="-1.98894">
        <ele>12.5</ele>
        <time>2025-01-22T09:19:34.952Z</time>
      </trkpt>
      <trkpt lat="46.73395" lon="-1.98891">
        <ele>12.2</ele>
        <time>2025-01-22T09:19:35.953Z</time>
      </trkpt>
      <trkpt lat="46.73394" lon="-1.98888">
        <ele>11.8</ele>
        <time>2025-01-22T09:19:36.952Z</time>
      </trkpt>
      <trkpt lat="46.73394" lon="-1.98885">
        <ele>11.6</ele>
        <time>2025-01-22T09:19:37.953Z</time>
      </trkpt>
      <trkpt lat="46.73393" lon="-1.98883">
        <ele>11.3</ele>
        <time>2025-01-22T09:19:38.953Z</time>
      </trkpt>
      <trkpt lat="46.73393" lon="-1.98881">
        <ele>11.1</ele>
        <time>2025-01-22T09:19:39.952Z</time>
      </trkpt>
      <trkpt lat="46.73392" lon="-1.98879">
        <ele>10.9</ele>
        <time>2025-01-22T09:19:40.953Z</time>
      </trkpt>
      <trkpt lat="46.73391" lon="-1.98876">
        <ele>10.6</ele>
        <time>2025-01-22T09:19:41.953Z</time>
      </trkpt>
      <trkpt lat="46.73391" lon="-1.98874">
        <ele>10.4</ele>
        <time>2025-01-22T09:19:42.952Z</time>
      </trkpt>
      <trkpt lat="46.7339" lon="-1.98872">
        <ele>10.2</ele>
        <time>2025-01-22T09:19:43.953Z</time>
      </trkpt>
      <trkpt lat="46.7339" lon="-1.98869">
        <ele>9.9</ele>
        <time>2025-01-22T09:19:44.953Z</time>
      </trkpt>
      <trkpt lat="46.7339" lon="-1.98867">
        <ele>9.6</ele>
        <time>2025-01-22T09:19:45.953Z</time>
      </trkpt>
      <trkpt lat="46.7339" lon="-1.98865">
        <ele>9.4</ele>
        <time>2025-01-22T09:19:46.953Z</time>
      </trkpt>
      <trkpt lat="46.73391" lon="-1.98863">
        <ele>9.2</ele>
        <time>2025-01-22T09:19:47.953Z</time>
      </trkpt>
      <trkpt lat="46.73391" lon="-1.98861">
        <ele>9</ele>
        <time>2025-01-22T09:19:48.952Z</time>
      </trkpt>
      <trkpt lat="46.73391" lon="-1.98858">
        <ele>8.8</ele>
        <time>2025-01-22T09:19:49.952Z</time>
      </trkpt>
      <trkpt lat="46.73391" lon="-1.98856">
        <ele>8.6</ele>
        <time>2025-01-22T09:19:50.952Z</time>
      </trkpt>
      <trkpt lat="46.73392" lon="-1.98851">
        <ele>8.3</ele>
        <time>2025-01-22T09:19:51.953Z</time>
      </trkpt>
      <trkpt lat="46.73393" lon="-1.98847">
        <ele>8</ele>
        <time>2025-01-22T09:19:52.953Z</time>
      </trkpt>
      <trkpt lat="46.73392" lon="-1.98843">
        <ele>7.7</ele>
        <time>2025-01-22T09:19:53.952Z</time>
      </trkpt>
      <trkpt lat="46.73392" lon="-1.9884">
        <ele>7.4</ele>
        <time>2025-01-22T09:19:54.952Z</time>
      </trkpt>
      <trkpt lat="46.73392" lon="-1.98836">
        <ele>7.2</ele>
        <time>2025-01-22T09:19:55.952Z</time>
      </trkpt>
      <trkpt lat="46.73393" lon="-1.98832">
        <ele>7.1</ele>
        <time>2025-01-22T09:19:56.953Z</time>
      </trkpt>
      <trkpt lat="46.73393" lon="-1.98829">
        <ele>7.3</ele>
        <time>2025-01-22T09:19:57.952Z</time>
      </trkpt>
      <trkpt lat="46.73394" lon="-1.98826">
        <ele>7.6</ele>
        <time>2025-01-22T09:19:58.953Z</time>
      </trkpt>
      <trkpt lat="46.73394" lon="-1.98824">
        <ele>7.7</ele>
        <time>2025-01-22T09:19:59.953Z</time>
      </trkpt>
      <trkpt lat="46.73394" lon="-1.98821">
        <ele>7.9</ele>
        <time>2025-01-22T09:20:00.953Z</time>
      </trkpt>
      <trkpt lat="46.73393" lon="-1.98819">
        <ele>8.2</ele>
        <time>2025-01-22T09:20:01.953Z</time>
      </trkpt>
      <trkpt lat="46.73393" lon="-1.98817">
        <ele>8.3</ele>
        <time>2025-01-22T09:20:02.952Z</time>
      </trkpt>
      <trkpt lat="46.73393" lon="-1.98816">
        <ele>8.4</ele>
        <time>2025-01-22T09:20:03.952Z</time>
      </trkpt>
      <trkpt lat="46.73393" lon="-1.98814">
        <ele>8.6</ele>
        <time>2025-01-22T09:20:04.952Z</time>
      </trkpt>
      <trkpt lat="46.73393" lon="-1.98812">
        <ele>8.7</ele>
        <time>2025-01-22T09:20:05.953Z</time>
      </trkpt>
      <trkpt lat="46.73393" lon="-1.98811">
        <ele>8.8</ele>
        <time>2025-01-22T09:20:06.953Z</time>
      </trkpt>
      <trkpt lat="46.73393" lon="-1.98809">
        <ele>9</ele>
        <time>2025-01-22T09:20:07.952Z</time>
      </trkpt>
      <trkpt lat="46.73393" lon="-1.98807">
        <ele>9.2</ele>
        <time>2025-01-22T09:20:08.952Z</time>
      </trkpt>
      <trkpt lat="46.73392" lon="-1.98805">
        <ele>9.4</ele>
        <time>2025-01-22T09:20:09.952Z</time>
      </trkpt>
      <trkpt lat="46.73392" lon="-1.98803">
        <ele>9.5</ele>
        <time>2025-01-22T09:20:10.952Z</time>
      </trkpt>
      <trkpt lat="46.73392" lon="-1.988">
        <ele>9.7</ele>
        <time>2025-01-22T09:20:11.953Z</time>
      </trkpt>
      <trkpt lat="46.73392" lon="-1.98796">
        <ele>9.8</ele>
        <time>2025-01-22T09:20:12.953Z</time>
      </trkpt>
      <trkpt lat="46.73391" lon="-1.98793">
        <ele>10</ele>
        <time>2025-01-22T09:20:13.952Z</time>
      </trkpt>
      <trkpt lat="46.73391" lon="-1.9879">
        <ele>10.2</ele>
        <time>2025-01-22T09:20:14.953Z</time>
      </trkpt>
      <trkpt lat="46.73391" lon="-1.98786">
        <ele>10.3</ele>
        <time>2025-01-22T09:20:15.952Z</time>
      </trkpt>
      <trkpt lat="46.7339" lon="-1.98782">
        <ele>10.6</ele>
        <time>2025-01-22T09:20:16.952Z</time>
      </trkpt>
      <trkpt lat="46.73389" lon="-1.98778">
        <ele>11</ele>
        <time>2025-01-22T09:20:17.953Z</time>
      </trkpt>
      <trkpt lat="46.73388" lon="-1.98774">
        <ele>10.8</ele>
        <time>2025-01-22T09:20:18.953Z</time>
      </trkpt>
      <trkpt lat="46.73387" lon="-1.98771">
        <ele>10.8</ele>
        <time>2025-01-22T09:20:19.953Z</time>
      </trkpt>
      <trkpt lat="46.73387" lon="-1.98768">
        <ele>10.7</ele>
        <time>2025-01-22T09:20:20.953Z</time>
      </trkpt>
      <trkpt lat="46.73387" lon="-1.98766">
        <ele>10.8</ele>
        <time>2025-01-22T09:20:21.952Z</time>
      </trkpt>
      <trkpt lat="46.73386" lon="-1.98763">
        <ele>10.9</ele>
        <time>2025-01-22T09:20:22.952Z</time>
      </trkpt>
      <trkpt lat="46.73386" lon="-1.98761">
        <ele>11</ele>
        <time>2025-01-22T09:20:23.952Z</time>
      </trkpt>
      <trkpt lat="46.73386" lon="-1.98759">
        <ele>10.9</ele>
        <time>2025-01-22T09:20:24.953Z</time>
      </trkpt>
      <trkpt lat="46.73386" lon="-1.98756">
        <ele>11</ele>
        <time>2025-01-22T09:20:25.953Z</time>
      </trkpt>
      <trkpt lat="46.73385" lon="-1.98755">
        <ele>10.8</ele>
        <time>2025-01-22T09:20:26.953Z</time>
      </trkpt>
      <trkpt lat="46.73385" lon="-1.98752">
        <ele>11</ele>
        <time>2025-01-22T09:20:27.953Z</time>
      </trkpt>
      <trkpt lat="46.73386" lon="-1.98748">
        <ele>11.1</ele>
        <time>2025-01-22T09:20:28.953Z</time>
      </trkpt>
      <trkpt lat="46.73386" lon="-1.98746">
        <ele>11</ele>
        <time>2025-01-22T09:20:29.952Z</time>
      </trkpt>
      <trkpt lat="46.73387" lon="-1.98743">
        <ele>11</ele>
        <time>2025-01-22T09:20:30.952Z</time>
      </trkpt>
      <trkpt lat="46.73388" lon="-1.9874">
        <ele>11</ele>
        <time>2025-01-22T09:20:31.953Z</time>
      </trkpt>
      <trkpt lat="46.73388" lon="-1.98736">
        <ele>10.9</ele>
        <time>2025-01-22T09:20:32.952Z</time>
      </trkpt>
      <trkpt lat="46.73388" lon="-1.98732">
        <ele>10.5</ele>
        <time>2025-01-22T09:20:33.953Z</time>
      </trkpt>
      <trkpt lat="46.73386" lon="-1.98728">
        <ele>10</ele>
        <time>2025-01-22T09:20:34.952Z</time>
      </trkpt>
      <trkpt lat="46.73385" lon="-1.98725">
        <ele>9.7</ele>
        <time>2025-01-22T09:20:35.952Z</time>
      </trkpt>
      <trkpt lat="46.73383" lon="-1.98722">
        <ele>9.4</ele>
        <time>2025-01-22T09:20:36.952Z</time>
      </trkpt>
      <trkpt lat="46.73382" lon="-1.98719">
        <ele>9.1</ele>
        <time>2025-01-22T09:20:37.952Z</time>
      </trkpt>
      <trkpt lat="46.73382" lon="-1.98716">
        <ele>9</ele>
        <time>2025-01-22T09:20:38.953Z</time>
      </trkpt>
      <trkpt lat="46.73382" lon="-1.98714">
        <ele>8.8</ele>
        <time>2025-01-22T09:20:39.953Z</time>
      </trkpt>
      <trkpt lat="46.73382" lon="-1.98711">
        <ele>8.7</ele>
        <time>2025-01-22T09:20:40.953Z</time>
      </trkpt>
      <trkpt lat="46.73382" lon="-1.98708">
        <ele>8.6</ele>
        <time>2025-01-22T09:20:41.953Z</time>
      </trkpt>
      <trkpt lat="46.73382" lon="-1.98705">
        <ele>8.5</ele>
        <time>2025-01-22T09:20:42.953Z</time>
      </trkpt>
      <trkpt lat="46.73382" lon="-1.98702">
        <ele>8.3</ele>
        <time>2025-01-22T09:20:43.953Z</time>
      </trkpt>
      <trkpt lat="46.73382" lon="-1.98698">
        <ele>8.2</ele>
        <time>2025-01-22T09:20:44.953Z</time>
      </trkpt>
      <trkpt lat="46.73382" lon="-1.98694">
        <ele>8</ele>
        <time>2025-01-22T09:20:45.953Z</time>
      </trkpt>
      <trkpt lat="46.7338" lon="-1.9869">
        <ele>8</ele>
        <time>2025-01-22T09:20:46.952Z</time>
      </trkpt>
      <trkpt lat="46.73377" lon="-1.98686">
        <ele>8.2</ele>
        <time>2025-01-22T09:20:47.952Z</time>
      </trkpt>
      <trkpt lat="46.73375" lon="-1.98684">
        <ele>8.4</ele>
        <time>2025-01-22T09:20:48.952Z</time>
      </trkpt>
      <trkpt lat="46.73373" lon="-1.98682">
        <ele>8.6</ele>
        <time>2025-01-22T09:20:49.953Z</time>
      </trkpt>
      <trkpt lat="46.73371" lon="-1.98679">
        <ele>8.9</ele>
        <time>2025-01-22T09:20:50.952Z</time>
      </trkpt>
      <trkpt lat="46.7337" lon="-1.98676">
        <ele>9.2</ele>
        <time>2025-01-22T09:20:51.953Z</time>
      </trkpt>
      <trkpt lat="46.7337" lon="-1.98674">
        <ele>9.3</ele>
        <time>2025-01-22T09:20:52.952Z</time>
      </trkpt>
      <trkpt lat="46.73369" lon="-1.98671">
        <ele>9.5</ele>
        <time>2025-01-22T09:20:53.953Z</time>
      </trkpt>
      <trkpt lat="46.7337" lon="-1.98669">
        <ele>9.6</ele>
        <time>2025-01-22T09:20:54.953Z</time>
      </trkpt>
      <trkpt lat="46.7337" lon="-1.98667">
        <ele>9.7</ele>
        <time>2025-01-22T09:20:55.953Z</time>
      </trkpt>
      <trkpt lat="46.7337" lon="-1.98663">
        <ele>9.9</ele>
        <time>2025-01-22T09:20:56.953Z</time>
      </trkpt>
      <trkpt lat="46.7337" lon="-1.98659">
        <ele>10.2</ele>
        <time>2025-01-22T09:20:57.953Z</time>
      </trkpt>
      <trkpt lat="46.73369" lon="-1.98655">
        <ele>10.6</ele>
        <time>2025-01-22T09:20:58.953Z</time>
      </trkpt>
      <trkpt lat="46.73368" lon="-1.98652">
        <ele>10.9</ele>
        <time>2025-01-22T09:20:59.953Z</time>
      </trkpt>
      <trkpt lat="46.73367" lon="-1.9865">
        <ele>11</ele>
        <time>2025-01-22T09:21:00.953Z</time>
      </trkpt>
      <trkpt lat="46.73368" lon="-1.98649">
        <ele>11</ele>
        <time>2025-01-22T09:21:01.952Z</time>
      </trkpt>
      <trkpt lat="46.73369" lon="-1.98648">
        <ele>10.9</ele>
        <time>2025-01-22T09:21:02.953Z</time>
      </trkpt>
      <trkpt lat="46.73369" lon="-1.98645">
        <ele>11</ele>
        <time>2025-01-22T09:21:03.953Z</time>
      </trkpt>
      <trkpt lat="46.73369" lon="-1.98642">
        <ele>11.1</ele>
        <time>2025-01-22T09:21:04.953Z</time>
      </trkpt>
      <trkpt lat="46.73369" lon="-1.98639">
        <ele>11.3</ele>
        <time>2025-01-22T09:21:05.952Z</time>
      </trkpt>
      <trkpt lat="46.73369" lon="-1.98636">
        <ele>11.2</ele>
        <time>2025-01-22T09:21:06.952Z</time>
      </trkpt>
      <trkpt lat="46.73369" lon="-1.98634">
        <ele>11.2</ele>
        <time>2025-01-22T09:21:07.952Z</time>
      </trkpt>
      <trkpt lat="46.73369" lon="-1.9863">
        <ele>11.1</ele>
        <time>2025-01-22T09:21:08.952Z</time>
      </trkpt>
      <trkpt lat="46.73368" lon="-1.98627">
        <ele>11.1</ele>
        <time>2025-01-22T09:21:09.952Z</time>
      </trkpt>
      <trkpt lat="46.73368" lon="-1.98624">
        <ele>11.2</ele>
        <time>2025-01-22T09:21:10.953Z</time>
      </trkpt>
      <trkpt lat="46.73367" lon="-1.9862">
        <ele>11.2</ele>
        <time>2025-01-22T09:21:11.952Z</time>
      </trkpt>
      <trkpt lat="46.73366" lon="-1.98617">
        <ele>11.2</ele>
        <time>2025-01-22T09:21:12.952Z</time>
      </trkpt>
      <trkpt lat="46.73366" lon="-1.98614">
        <ele>11.3</ele>
        <time>2025-01-22T09:21:13.952Z</time>
      </trkpt>
      <trkpt lat="46.73365" lon="-1.98611">
        <ele>11.3</ele>
        <time>2025-01-22T09:21:14.953Z</time>
      </trkpt>
      <trkpt lat="46.73365" lon="-1.98608">
        <ele>11.4</ele>
        <time>2025-01-22T09:21:15.952Z</time>
      </trkpt>
      <trkpt lat="46.73365" lon="-1.98606">
        <ele>11.5</ele>
        <time>2025-01-22T09:21:16.953Z</time>
      </trkpt>
      <trkpt lat="46.73365" lon="-1.98604">
        <ele>11.6</ele>
        <time>2025-01-22T09:21:17.953Z</time>
      </trkpt>
      <trkpt lat="46.73365" lon="-1.98602">
        <ele>11.7</ele>
        <time>2025-01-22T09:21:18.953Z</time>
      </trkpt>
      <trkpt lat="46.73365" lon="-1.98599">
        <ele>11.7</ele>
        <time>2025-01-22T09:21:19.952Z</time>
      </trkpt>
      <trkpt lat="46.73366" lon="-1.98598">
        <ele>11.6</ele>
        <time>2025-01-22T09:21:20.953Z</time>
      </trkpt>
      <trkpt lat="46.73366" lon="-1.98596">
        <ele>11.6</ele>
        <time>2025-01-22T09:21:21.953Z</time>
      </trkpt>
      <trkpt lat="46.73367" lon="-1.98594">
        <ele>11.5</ele>
        <time>2025-01-22T09:21:22.952Z</time>
      </trkpt>
      <trkpt lat="46.73367" lon="-1.98592">
        <ele>11.4</ele>
        <time>2025-01-22T09:21:23.953Z</time>
      </trkpt>
      <trkpt lat="46.73368" lon="-1.98588">
        <ele>11.4</ele>
        <time>2025-01-22T09:21:24.952Z</time>
      </trkpt>
      <trkpt lat="46.73368" lon="-1.98585">
        <ele>11.4</ele>
        <time>2025-01-22T09:21:25.952Z</time>
      </trkpt>
      <trkpt lat="46.73369" lon="-1.98581">
        <ele>11.3</ele>
        <time>2025-01-22T09:21:26.952Z</time>
      </trkpt>
      <trkpt lat="46.73368" lon="-1.98578">
        <ele>11.3</ele>
        <time>2025-01-22T09:21:27.952Z</time>
      </trkpt>
      <trkpt lat="46.73368" lon="-1.98575">
        <ele>11.3</ele>
        <time>2025-01-22T09:21:28.953Z</time>
      </trkpt>
      <trkpt lat="46.73367" lon="-1.98571">
        <ele>11.5</ele>
        <time>2025-01-22T09:21:29.953Z</time>
      </trkpt>
      <trkpt lat="46.73365" lon="-1.98568">
        <ele>11.6</ele>
        <time>2025-01-22T09:21:30.952Z</time>
      </trkpt>
      <trkpt lat="46.73364" lon="-1.98564">
        <ele>11.8</ele>
        <time>2025-01-22T09:21:31.952Z</time>
      </trkpt>
      <trkpt lat="46.73362" lon="-1.9856">
        <ele>12</ele>
        <time>2025-01-22T09:21:32.952Z</time>
      </trkpt>
      <trkpt lat="46.73361" lon="-1.98556">
        <ele>11.9</ele>
        <time>2025-01-22T09:21:33.953Z</time>
      </trkpt>
      <trkpt lat="46.73359" lon="-1.98553">
        <ele>11.2</ele>
        <time>2025-01-22T09:21:34.952Z</time>
      </trkpt>
      <trkpt lat="46.73358" lon="-1.98551">
        <ele>10.7</ele>
        <time>2025-01-22T09:21:35.952Z</time>
      </trkpt>
      <trkpt lat="46.73357" lon="-1.98548">
        <ele>10.3</ele>
        <time>2025-01-22T09:21:36.953Z</time>
      </trkpt>
      <trkpt lat="46.73357" lon="-1.98545">
        <ele>10</ele>
        <time>2025-01-22T09:21:37.953Z</time>
      </trkpt>
      <trkpt lat="46.73356" lon="-1.98543">
        <ele>9.8</ele>
        <time>2025-01-22T09:21:38.952Z</time>
      </trkpt>
      <trkpt lat="46.73355" lon="-1.98541">
        <ele>9.5</ele>
        <time>2025-01-22T09:21:39.952Z</time>
      </trkpt>
      <trkpt lat="46.73355" lon="-1.98539">
        <ele>9.4</ele>
        <time>2025-01-22T09:21:40.953Z</time>
      </trkpt>
      <trkpt lat="46.73354" lon="-1.98537">
        <ele>9.2</ele>
        <time>2025-01-22T09:21:41.952Z</time>
      </trkpt>
      <trkpt lat="46.73353" lon="-1.98535">
        <ele>9.2</ele>
        <time>2025-01-22T09:21:42.953Z</time>
      </trkpt>
      <trkpt lat="46.73353" lon="-1.98533">
        <ele>9.1</ele>
        <time>2025-01-22T09:21:43.952Z</time>
      </trkpt>
      <trkpt lat="46.73352" lon="-1.98531">
        <ele>9.1</ele>
        <time>2025-01-22T09:21:44.953Z</time>
      </trkpt>
      <trkpt lat="46.73351" lon="-1.98529">
        <ele>9.1</ele>
        <time>2025-01-22T09:21:45.952Z</time>
      </trkpt>
      <trkpt lat="46.7335" lon="-1.98527">
        <ele>9.2</ele>
        <time>2025-01-22T09:21:46.953Z</time>
      </trkpt>
      <trkpt lat="46.73348" lon="-1.98525">
        <ele>9.3</ele>
        <time>2025-01-22T09:21:47.953Z</time>
      </trkpt>
      <trkpt lat="46.73346" lon="-1.98523">
        <ele>9.4</ele>
        <time>2025-01-22T09:21:48.952Z</time>
      </trkpt>
      <trkpt lat="46.73344" lon="-1.98521">
        <ele>9.6</ele>
        <time>2025-01-22T09:21:49.952Z</time>
      </trkpt>
      <trkpt lat="46.73342" lon="-1.98519">
        <ele>9.7</ele>
        <time>2025-01-22T09:21:50.953Z</time>
      </trkpt>
      <trkpt lat="46.73341" lon="-1.98518">
        <ele>9.8</ele>
        <time>2025-01-22T09:21:51.952Z</time>
      </trkpt>
      <trkpt lat="46.7334" lon="-1.98517">
        <ele>9.9</ele>
        <time>2025-01-22T09:21:52.953Z</time>
      </trkpt>
      <trkpt lat="46.73339" lon="-1.98515">
        <ele>10</ele>
        <time>2025-01-22T09:21:53.952Z</time>
      </trkpt>
      <trkpt lat="46.73337" lon="-1.98514">
        <ele>10.1</ele>
        <time>2025-01-22T09:21:54.952Z</time>
      </trkpt>
      <trkpt lat="46.73334" lon="-1.9851">
        <ele>10.3</ele>
        <time>2025-01-22T09:21:55.952Z</time>
      </trkpt>
      <trkpt lat="46.73333" lon="-1.98509">
        <ele>10.3</ele>
        <time>2025-01-22T09:21:56.952Z</time>
      </trkpt>
      <trkpt lat="46.73332" lon="-1.98507">
        <ele>10.2</ele>
        <time>2025-01-22T09:21:57.953Z</time>
      </trkpt>
      <trkpt lat="46.73331" lon="-1.98505">
        <ele>10.2</ele>
        <time>2025-01-22T09:21:58.953Z</time>
      </trkpt>
      <trkpt lat="46.73331" lon="-1.98505">
        <ele>10.2</ele>
        <time>2025-01-22T09:21:59.952Z</time>
      </trkpt>
      <trkpt lat="46.7333" lon="-1.98504">
        <ele>10.2</ele>
        <time>2025-01-22T09:22:00.952Z</time>
      </trkpt>
      <trkpt lat="46.73329" lon="-1.98504">
        <ele>10.2</ele>
        <time>2025-01-22T09:22:01.952Z</time>
      </trkpt>
      <trkpt lat="46.73328" lon="-1.98504">
        <ele>10.2</ele>
        <time>2025-01-22T09:22:02.952Z</time>
      </trkpt>
      <trkpt lat="46.73326" lon="-1.98503">
        <ele>10.3</ele>
        <time>2025-01-22T09:22:03.952Z</time>
      </trkpt>
      <trkpt lat="46.73323" lon="-1.98502">
        <ele>10.3</ele>
        <time>2025-01-22T09:22:04.952Z</time>
      </trkpt>
      <trkpt lat="46.7332" lon="-1.98502">
        <ele>10.4</ele>
        <time>2025-01-22T09:22:05.952Z</time>
      </trkpt>
      <trkpt lat="46.73316" lon="-1.98502">
        <ele>10.5</ele>
        <time>2025-01-22T09:22:06.952Z</time>
      </trkpt>
      <trkpt lat="46.73313" lon="-1.98503">
        <ele>10.5</ele>
        <time>2025-01-22T09:22:07.953Z</time>
      </trkpt>
      <trkpt lat="46.73309" lon="-1.98504">
        <ele>10.5</ele>
        <time>2025-01-22T09:22:08.952Z</time>
      </trkpt>
      <trkpt lat="46.73306" lon="-1.98505">
        <ele>10.5</ele>
        <time>2025-01-22T09:22:09.952Z</time>
      </trkpt>
      <trkpt lat="46.73303" lon="-1.98506">
        <ele>10.1</ele>
        <time>2025-01-22T09:22:10.953Z</time>
      </trkpt>
      <trkpt lat="46.733" lon="-1.98507">
        <ele>9.6</ele>
        <time>2025-01-22T09:22:11.953Z</time>
      </trkpt>
      <trkpt lat="46.73296" lon="-1.98509">
        <ele>9.2</ele>
        <time>2025-01-22T09:22:12.952Z</time>
      </trkpt>
      <trkpt lat="46.73293" lon="-1.98512">
        <ele>8.9</ele>
        <time>2025-01-22T09:22:13.952Z</time>
      </trkpt>
      <trkpt lat="46.7329" lon="-1.98513">
        <ele>8.7</ele>
        <time>2025-01-22T09:22:14.952Z</time>
      </trkpt>
      <trkpt lat="46.73288" lon="-1.98513">
        <ele>8.6</ele>
        <time>2025-01-22T09:22:15.952Z</time>
      </trkpt>
      <trkpt lat="46.73286" lon="-1.98514">
        <ele>8.4</ele>
        <time>2025-01-22T09:22:16.953Z</time>
      </trkpt>
      <trkpt lat="46.73283" lon="-1.98515">
        <ele>8.3</ele>
        <time>2025-01-22T09:22:17.953Z</time>
      </trkpt>
      <trkpt lat="46.73281" lon="-1.98516">
        <ele>8.3</ele>
        <time>2025-01-22T09:22:18.953Z</time>
      </trkpt>
      <trkpt lat="46.73278" lon="-1.98516">
        <ele>8.2</ele>
        <time>2025-01-22T09:22:19.953Z</time>
      </trkpt>
      <trkpt lat="46.73276" lon="-1.98516">
        <ele>8</ele>
        <time>2025-01-22T09:22:20.953Z</time>
      </trkpt>
      <trkpt lat="46.73274" lon="-1.98516">
        <ele>7.7</ele>
        <time>2025-01-22T09:22:21.952Z</time>
      </trkpt>
      <trkpt lat="46.73272" lon="-1.98517">
        <ele>7.4</ele>
        <time>2025-01-22T09:22:22.953Z</time>
      </trkpt>
      <trkpt lat="46.7327" lon="-1.98516">
        <ele>7.1</ele>
        <time>2025-01-22T09:22:23.953Z</time>
      </trkpt>
      <trkpt lat="46.73267" lon="-1.98516">
        <ele>6.8</ele>
        <time>2025-01-22T09:22:24.953Z</time>
      </trkpt>
      <trkpt lat="46.73264" lon="-1.98517">
        <ele>6.4</ele>
        <time>2025-01-22T09:22:25.952Z</time>
      </trkpt>
      <trkpt lat="46.73261" lon="-1.98518">
        <ele>6.1</ele>
        <time>2025-01-22T09:22:26.953Z</time>
      </trkpt>
      <trkpt lat="46.73258" lon="-1.9852">
        <ele>5.8</ele>
        <time>2025-01-22T09:22:27.952Z</time>
      </trkpt>
      <trkpt lat="46.73255" lon="-1.98522">
        <ele>5.5</ele>
        <time>2025-01-22T09:22:28.953Z</time>
      </trkpt>
      <trkpt lat="46.73254" lon="-1.98526">
        <ele>5.5</ele>
        <time>2025-01-22T09:22:29.952Z</time>
      </trkpt>
      <trkpt lat="46.73254" lon="-1.98528">
        <ele>5.5</ele>
        <time>2025-01-22T09:22:30.952Z</time>
      </trkpt>
      <trkpt lat="46.73253" lon="-1.98531">
        <ele>5.5</ele>
        <time>2025-01-22T09:22:31.952Z</time>
      </trkpt>
      <trkpt lat="46.73251" lon="-1.98535">
        <ele>5.6</ele>
        <time>2025-01-22T09:22:32.952Z</time>
      </trkpt>
      <trkpt lat="46.7325" lon="-1.98539">
        <ele>5.8</ele>
        <time>2025-01-22T09:22:33.952Z</time>
      </trkpt>
      <trkpt lat="46.73249" lon="-1.98542">
        <ele>6</ele>
        <time>2025-01-22T09:22:34.953Z</time>
      </trkpt>
      <trkpt lat="46.73249" lon="-1.98546">
        <ele>6.3</ele>
        <time>2025-01-22T09:22:35.952Z</time>
      </trkpt>
      <trkpt lat="46.73247" lon="-1.98549">
        <ele>6.4</ele>
        <time>2025-01-22T09:22:36.952Z</time>
      </trkpt>
      <trkpt lat="46.73247" lon="-1.98552">
        <ele>6.6</ele>
        <time>2025-01-22T09:22:37.952Z</time>
      </trkpt>
      <trkpt lat="46.73246" lon="-1.98556">
        <ele>6.8</ele>
        <time>2025-01-22T09:22:38.953Z</time>
      </trkpt>
      <trkpt lat="46.73245" lon="-1.98559">
        <ele>6.6</ele>
        <time>2025-01-22T09:22:39.953Z</time>
      </trkpt>
      <trkpt lat="46.73246" lon="-1.98563">
        <ele>6.4</ele>
        <time>2025-01-22T09:22:40.953Z</time>
      </trkpt>
      <trkpt lat="46.73246" lon="-1.98567">
        <ele>6.2</ele>
        <time>2025-01-22T09:22:41.952Z</time>
      </trkpt>
      <trkpt lat="46.73246" lon="-1.98571">
        <ele>5.9</ele>
        <time>2025-01-22T09:22:42.952Z</time>
      </trkpt>
      <trkpt lat="46.73245" lon="-1.98575">
        <ele>5.7</ele>
        <time>2025-01-22T09:22:43.952Z</time>
      </trkpt>
      <trkpt lat="46.73245" lon="-1.9858">
        <ele>5.4</ele>
        <time>2025-01-22T09:22:44.952Z</time>
      </trkpt>
      <trkpt lat="46.73245" lon="-1.98586">
        <ele>5.1</ele>
        <time>2025-01-22T09:22:45.953Z</time>
      </trkpt>
      <trkpt lat="46.73245" lon="-1.9859">
        <ele>5</ele>
        <time>2025-01-22T09:22:46.953Z</time>
      </trkpt>
      <trkpt lat="46.73245" lon="-1.98593">
        <ele>4.9</ele>
        <time>2025-01-22T09:22:47.952Z</time>
      </trkpt>
      <trkpt lat="46.73244" lon="-1.98596">
        <ele>4.9</ele>
        <time>2025-01-22T09:22:48.953Z</time>
      </trkpt>
      <trkpt lat="46.73243" lon="-1.98598">
        <ele>4.9</ele>
        <time>2025-01-22T09:22:49.952Z</time>
      </trkpt>
      <trkpt lat="46.73242" lon="-1.986">
        <ele>4.9</ele>
        <time>2025-01-22T09:22:50.952Z</time>
      </trkpt>
      <trkpt lat="46.7324" lon="-1.98604">
        <ele>4.9</ele>
        <time>2025-01-22T09:22:51.953Z</time>
      </trkpt>
      <trkpt lat="46.73239" lon="-1.98607">
        <ele>4.9</ele>
        <time>2025-01-22T09:22:52.952Z</time>
      </trkpt>
      <trkpt lat="46.73238" lon="-1.9861">
        <ele>4.9</ele>
        <time>2025-01-22T09:22:53.952Z</time>
      </trkpt>
      <trkpt lat="46.73238" lon="-1.98613">
        <ele>4.9</ele>
        <time>2025-01-22T09:22:54.952Z</time>
      </trkpt>
      <trkpt lat="46.73237" lon="-1.98616">
        <ele>4.8</ele>
        <time>2025-01-22T09:22:55.953Z</time>
      </trkpt>
      <trkpt lat="46.73236" lon="-1.98619">
        <ele>4.9</ele>
        <time>2025-01-22T09:22:56.952Z</time>
      </trkpt>
      <trkpt lat="46.73235" lon="-1.98622">
        <ele>4.9</ele>
        <time>2025-01-22T09:22:57.953Z</time>
      </trkpt>
      <trkpt lat="46.73235" lon="-1.98625">
        <ele>4.9</ele>
        <time>2025-01-22T09:22:58.952Z</time>
      </trkpt>
      <trkpt lat="46.73234" lon="-1.98629">
        <ele>4.9</ele>
        <time>2025-01-22T09:22:59.953Z</time>
      </trkpt>
      <trkpt lat="46.73235" lon="-1.98632">
        <ele>4.8</ele>
        <time>2025-01-22T09:23:00.952Z</time>
      </trkpt>
      <trkpt lat="46.73234" lon="-1.98636">
        <ele>4.7</ele>
        <time>2025-01-22T09:23:01.952Z</time>
      </trkpt>
      <trkpt lat="46.73234" lon="-1.98638">
        <ele>4.8</ele>
        <time>2025-01-22T09:23:02.953Z</time>
      </trkpt>
      <trkpt lat="46.73233" lon="-1.98641">
        <ele>4.8</ele>
        <time>2025-01-22T09:23:03.953Z</time>
      </trkpt>
      <trkpt lat="46.73233" lon="-1.98643">
        <ele>4.9</ele>
        <time>2025-01-22T09:23:04.953Z</time>
      </trkpt>
      <trkpt lat="46.73234" lon="-1.98646">
        <ele>5</ele>
        <time>2025-01-22T09:23:05.953Z</time>
      </trkpt>
      <trkpt lat="46.73234" lon="-1.98649">
        <ele>5.1</ele>
        <time>2025-01-22T09:23:06.952Z</time>
      </trkpt>
      <trkpt lat="46.73233" lon="-1.98652">
        <ele>5.2</ele>
        <time>2025-01-22T09:23:07.952Z</time>
      </trkpt>
      <trkpt lat="46.73233" lon="-1.98655">
        <ele>5.3</ele>
        <time>2025-01-22T09:23:08.952Z</time>
      </trkpt>
      <trkpt lat="46.73232" lon="-1.98658">
        <ele>5.4</ele>
        <time>2025-01-22T09:23:09.952Z</time>
      </trkpt>
      <trkpt lat="46.73232" lon="-1.98661">
        <ele>5.5</ele>
        <time>2025-01-22T09:23:10.952Z</time>
      </trkpt>
      <trkpt lat="46.73231" lon="-1.98664">
        <ele>5.6</ele>
        <time>2025-01-22T09:23:11.952Z</time>
      </trkpt>
      <trkpt lat="46.7323" lon="-1.98666">
        <ele>5.7</ele>
        <time>2025-01-22T09:23:12.953Z</time>
      </trkpt>
      <trkpt lat="46.73229" lon="-1.98668">
        <ele>5.8</ele>
        <time>2025-01-22T09:23:13.953Z</time>
      </trkpt>
      <trkpt lat="46.73227" lon="-1.98669">
        <ele>5.8</ele>
        <time>2025-01-22T09:23:14.953Z</time>
      </trkpt>
      <trkpt lat="46.73226" lon="-1.9867">
        <ele>5.8</ele>
        <time>2025-01-22T09:23:15.952Z</time>
      </trkpt>
      <trkpt lat="46.73227" lon="-1.98671">
        <ele>5.8</ele>
        <time>2025-01-22T09:23:16.953Z</time>
      </trkpt>
      <trkpt lat="46.73226" lon="-1.9867">
        <ele>5.8</ele>
        <time>2025-01-22T09:23:17.952Z</time>
      </trkpt>
      <trkpt lat="46.73225" lon="-1.9867">
        <ele>5.9</ele>
        <time>2025-01-22T09:23:18.952Z</time>
      </trkpt>
      <trkpt lat="46.73223" lon="-1.98669">
        <ele>6</ele>
        <time>2025-01-22T09:23:19.952Z</time>
      </trkpt>
      <trkpt lat="46.73221" lon="-1.98669">
        <ele>6.2</ele>
        <time>2025-01-22T09:23:20.953Z</time>
      </trkpt>
      <trkpt lat="46.73219" lon="-1.98669">
        <ele>6.4</ele>
        <time>2025-01-22T09:23:21.953Z</time>
      </trkpt>
      <trkpt lat="46.73218" lon="-1.98671">
        <ele>6.7</ele>
        <time>2025-01-22T09:23:22.952Z</time>
      </trkpt>
      <trkpt lat="46.73216" lon="-1.98671">
        <ele>7</ele>
        <time>2025-01-22T09:23:23.952Z</time>
      </trkpt>
      <trkpt lat="46.73215" lon="-1.98671">
        <ele>7.2</ele>
        <time>2025-01-22T09:23:24.953Z</time>
      </trkpt>
      <trkpt lat="46.73213" lon="-1.9867">
        <ele>7.4</ele>
        <time>2025-01-22T09:23:25.952Z</time>
      </trkpt>
      <trkpt lat="46.73211" lon="-1.98669">
        <ele>7.7</ele>
        <time>2025-01-22T09:23:26.953Z</time>
      </trkpt>
      <trkpt lat="46.73209" lon="-1.98669">
        <ele>8</ele>
        <time>2025-01-22T09:23:27.953Z</time>
      </trkpt>
      <trkpt lat="46.73207" lon="-1.98669">
        <ele>8.3</ele>
        <time>2025-01-22T09:23:28.953Z</time>
      </trkpt>
      <trkpt lat="46.73205" lon="-1.98668">
        <ele>8.5</ele>
        <time>2025-01-22T09:23:29.952Z</time>
      </trkpt>
      <trkpt lat="46.73204" lon="-1.98668">
        <ele>8.7</ele>
        <time>2025-01-22T09:23:30.952Z</time>
      </trkpt>
      <trkpt lat="46.73203" lon="-1.98667">
        <ele>8.8</ele>
        <time>2025-01-22T09:23:31.953Z</time>
      </trkpt>
      <trkpt lat="46.73203" lon="-1.98667">
        <ele>8.9</ele>
        <time>2025-01-22T09:23:32.953Z</time>
      </trkpt>
      <trkpt lat="46.73202" lon="-1.98667">
        <ele>9</ele>
        <time>2025-01-22T09:23:33.953Z</time>
      </trkpt>
      <trkpt lat="46.73202" lon="-1.98666">
        <ele>9</ele>
        <time>2025-01-22T09:23:34.953Z</time>
      </trkpt>
      <trkpt lat="46.73202" lon="-1.98665">
        <ele>9</ele>
        <time>2025-01-22T09:23:35.952Z</time>
      </trkpt>
      <trkpt lat="46.73202" lon="-1.98664">
        <ele>9</ele>
        <time>2025-01-22T09:23:36.953Z</time>
      </trkpt>
      <trkpt lat="46.73202" lon="-1.98662">
        <ele>8.9</ele>
        <time>2025-01-22T09:23:37.953Z</time>
      </trkpt>
      <trkpt lat="46.73202" lon="-1.98661">
        <ele>8.9</ele>
        <time>2025-01-22T09:23:38.953Z</time>
      </trkpt>
      <trkpt lat="46.73202" lon="-1.98659">
        <ele>8.9</ele>
        <time>2025-01-22T09:23:39.952Z</time>
      </trkpt>
      <trkpt lat="46.73202" lon="-1.98658">
        <ele>8.9</ele>
        <time>2025-01-22T09:23:40.952Z</time>
      </trkpt>
      <trkpt lat="46.73203" lon="-1.98656">
        <ele>8.7</ele>
        <time>2025-01-22T09:23:41.952Z</time>
      </trkpt>
      <trkpt lat="46.73204" lon="-1.98654">
        <ele>8.7</ele>
        <time>2025-01-22T09:23:42.952Z</time>
      </trkpt>
      <trkpt lat="46.73205" lon="-1.98652">
        <ele>8.6</ele>
        <time>2025-01-22T09:23:43.952Z</time>
      </trkpt>
      <trkpt lat="46.73205" lon="-1.98649">
        <ele>8.4</ele>
        <time>2025-01-22T09:23:44.953Z</time>
      </trkpt>
      <trkpt lat="46.73206" lon="-1.98646">
        <ele>8.3</ele>
        <time>2025-01-22T09:23:45.952Z</time>
      </trkpt>
      <trkpt lat="46.73207" lon="-1.98643">
        <ele>8.2</ele>
        <time>2025-01-22T09:23:46.953Z</time>
      </trkpt>
      <trkpt lat="46.73207" lon="-1.9864">
        <ele>8.2</ele>
        <time>2025-01-22T09:23:47.952Z</time>
      </trkpt>
      <trkpt lat="46.73207" lon="-1.98637">
        <ele>8.3</ele>
        <time>2025-01-22T09:23:48.953Z</time>
      </trkpt>
      <trkpt lat="46.73207" lon="-1.98633">
        <ele>8.5</ele>
        <time>2025-01-22T09:23:49.952Z</time>
      </trkpt>
      <trkpt lat="46.73206" lon="-1.9863">
        <ele>8.7</ele>
        <time>2025-01-22T09:23:50.953Z</time>
      </trkpt>
      <trkpt lat="46.73205" lon="-1.98626">
        <ele>9.1</ele>
        <time>2025-01-22T09:23:51.952Z</time>
      </trkpt>
      <trkpt lat="46.73203" lon="-1.98623">
        <ele>9.5</ele>
        <time>2025-01-22T09:23:52.953Z</time>
      </trkpt>
      <trkpt lat="46.73202" lon="-1.9862">
        <ele>10</ele>
        <time>2025-01-22T09:23:53.953Z</time>
      </trkpt>
      <trkpt lat="46.732" lon="-1.98616">
        <ele>10.4</ele>
        <time>2025-01-22T09:23:54.952Z</time>
      </trkpt>
      <trkpt lat="46.73199" lon="-1.98613">
        <ele>10.8</ele>
        <time>2025-01-22T09:23:55.953Z</time>
      </trkpt>
      <trkpt lat="46.73198" lon="-1.9861">
        <ele>11.3</ele>
        <time>2025-01-22T09:23:56.952Z</time>
      </trkpt>
      <trkpt lat="46.73198" lon="-1.98607">
        <ele>11.3</ele>
        <time>2025-01-22T09:23:57.952Z</time>
      </trkpt>
      <trkpt lat="46.73197" lon="-1.98604">
        <ele>11.4</ele>
        <time>2025-01-22T09:23:58.953Z</time>
      </trkpt>
      <trkpt lat="46.73197" lon="-1.98601">
        <ele>11.6</ele>
        <time>2025-01-22T09:23:59.952Z</time>
      </trkpt>
      <trkpt lat="46.73196" lon="-1.98598">
        <ele>11.6</ele>
        <time>2025-01-22T09:24:00.953Z</time>
      </trkpt>
      <trkpt lat="46.73196" lon="-1.98595">
        <ele>11.7</ele>
        <time>2025-01-22T09:24:01.953Z</time>
      </trkpt>
      <trkpt lat="46.73195" lon="-1.98592">
        <ele>11.8</ele>
        <time>2025-01-22T09:24:02.953Z</time>
      </trkpt>
      <trkpt lat="46.73195" lon="-1.9859">
        <ele>11.9</ele>
        <time>2025-01-22T09:24:03.952Z</time>
      </trkpt>
      <trkpt lat="46.73194" lon="-1.98587">
        <ele>12</ele>
        <time>2025-01-22T09:24:04.952Z</time>
      </trkpt>
      <trkpt lat="46.73192" lon="-1.98584">
        <ele>11.9</ele>
        <time>2025-01-22T09:24:05.952Z</time>
      </trkpt>
      <trkpt lat="46.73191" lon="-1.98582">
        <ele>11.9</ele>
        <time>2025-01-22T09:24:06.953Z</time>
      </trkpt>
      <trkpt lat="46.7319" lon="-1.9858">
        <ele>11.8</ele>
        <time>2025-01-22T09:24:07.953Z</time>
      </trkpt>
      <trkpt lat="46.7319" lon="-1.98578">
        <ele>11.8</ele>
        <time>2025-01-22T09:24:08.952Z</time>
      </trkpt>
      <trkpt lat="46.7319" lon="-1.98575">
        <ele>11.8</ele>
        <time>2025-01-22T09:24:09.953Z</time>
      </trkpt>
      <trkpt lat="46.73189" lon="-1.98573">
        <ele>11.8</ele>
        <time>2025-01-22T09:24:10.953Z</time>
      </trkpt>
      <trkpt lat="46.73189" lon="-1.9857">
        <ele>11.8</ele>
        <time>2025-01-22T09:24:11.952Z</time>
      </trkpt>
      <trkpt lat="46.73187" lon="-1.98566">
        <ele>11.9</ele>
        <time>2025-01-22T09:24:12.953Z</time>
      </trkpt>
      <trkpt lat="46.73186" lon="-1.98564">
        <ele>12.1</ele>
        <time>2025-01-22T09:24:13.953Z</time>
      </trkpt>
      <trkpt lat="46.73184" lon="-1.98561">
        <ele>12.4</ele>
        <time>2025-01-22T09:24:14.952Z</time>
      </trkpt>
      <trkpt lat="46.73183" lon="-1.98558">
        <ele>12.6</ele>
        <time>2025-01-22T09:24:15.952Z</time>
      </trkpt>
      <trkpt lat="46.73182" lon="-1.98555">
        <ele>12.8</ele>
        <time>2025-01-22T09:24:16.953Z</time>
      </trkpt>
      <trkpt lat="46.73181" lon="-1.98552">
        <ele>12.8</ele>
        <time>2025-01-22T09:24:17.952Z</time>
      </trkpt>
      <trkpt lat="46.73181" lon="-1.9855">
        <ele>12.8</ele>
        <time>2025-01-22T09:24:18.953Z</time>
      </trkpt>
      <trkpt lat="46.7318" lon="-1.98546">
        <ele>12.7</ele>
        <time>2025-01-22T09:24:19.952Z</time>
      </trkpt>
      <trkpt lat="46.73179" lon="-1.98542">
        <ele>13</ele>
        <time>2025-01-22T09:24:20.953Z</time>
      </trkpt>
      <trkpt lat="46.73177" lon="-1.98539">
        <ele>13.2</ele>
        <time>2025-01-22T09:24:21.952Z</time>
      </trkpt>
      <trkpt lat="46.73176" lon="-1.98536">
        <ele>13.5</ele>
        <time>2025-01-22T09:24:22.952Z</time>
      </trkpt>
      <trkpt lat="46.73175" lon="-1.98533">
        <ele>13.8</ele>
        <time>2025-01-22T09:24:23.952Z</time>
      </trkpt>
      <trkpt lat="46.73173" lon="-1.98531">
        <ele>14.1</ele>
        <time>2025-01-22T09:24:24.952Z</time>
      </trkpt>
      <trkpt lat="46.73172" lon="-1.98529">
        <ele>14.6</ele>
        <time>2025-01-22T09:24:25.952Z</time>
      </trkpt>
      <trkpt lat="46.73169" lon="-1.98527">
        <ele>15.1</ele>
        <time>2025-01-22T09:24:26.953Z</time>
      </trkpt>
      <trkpt lat="46.73168" lon="-1.98525">
        <ele>15</ele>
        <time>2025-01-22T09:24:27.952Z</time>
      </trkpt>
      <trkpt lat="46.73166" lon="-1.98523">
        <ele>14.7</ele>
        <time>2025-01-22T09:24:28.952Z</time>
      </trkpt>
      <trkpt lat="46.73165" lon="-1.98522">
        <ele>14.4</ele>
        <time>2025-01-22T09:24:29.952Z</time>
      </trkpt>
      <trkpt lat="46.73164" lon="-1.98521">
        <ele>14.3</ele>
        <time>2025-01-22T09:24:30.952Z</time>
      </trkpt>
      <trkpt lat="46.73162" lon="-1.9852">
        <ele>14.2</ele>
        <time>2025-01-22T09:24:31.953Z</time>
      </trkpt>
      <trkpt lat="46.73162" lon="-1.9852">
        <ele>14.2</ele>
        <time>2025-01-22T09:24:32.952Z</time>
      </trkpt>
      <trkpt lat="46.73162" lon="-1.98521">
        <ele>14.3</ele>
        <time>2025-01-22T09:24:33.952Z</time>
      </trkpt>
      <trkpt lat="46.73161" lon="-1.9852">
        <ele>14.2</ele>
        <time>2025-01-22T09:24:34.952Z</time>
      </trkpt>
      <trkpt lat="46.7316" lon="-1.98521">
        <ele>14.4</ele>
        <time>2025-01-22T09:24:35.952Z</time>
      </trkpt>
      <trkpt lat="46.73158" lon="-1.98521">
        <ele>14.4</ele>
        <time>2025-01-22T09:24:36.953Z</time>
      </trkpt>
      <trkpt lat="46.73157" lon="-1.9852">
        <ele>14.2</ele>
        <time>2025-01-22T09:24:37.953Z</time>
      </trkpt>
      <trkpt lat="46.73156" lon="-1.98519">
        <ele>14.1</ele>
        <time>2025-01-22T09:24:38.953Z</time>
      </trkpt>
      <trkpt lat="46.73156" lon="-1.98517">
        <ele>13.8</ele>
        <time>2025-01-22T09:24:39.953Z</time>
      </trkpt>
      <trkpt lat="46.73155" lon="-1.98516">
        <ele>13.6</ele>
        <time>2025-01-22T09:24:40.953Z</time>
      </trkpt>
      <trkpt lat="46.73153" lon="-1.98514">
        <ele>13.5</ele>
        <time>2025-01-22T09:24:41.953Z</time>
      </trkpt>
      <trkpt lat="46.73152" lon="-1.98513">
        <ele>13.5</ele>
        <time>2025-01-22T09:24:42.952Z</time>
      </trkpt>
      <trkpt lat="46.73151" lon="-1.98513">
        <ele>13.4</ele>
        <time>2025-01-22T09:24:43.952Z</time>
      </trkpt>
      <trkpt lat="46.73151" lon="-1.98512">
        <ele>13.4</ele>
        <time>2025-01-22T09:24:44.952Z</time>
      </trkpt>
      <trkpt lat="46.7315" lon="-1.98511">
        <ele>13.3</ele>
        <time>2025-01-22T09:24:45.953Z</time>
      </trkpt>
      <trkpt lat="46.73149" lon="-1.9851">
        <ele>13.3</ele>
        <time>2025-01-22T09:24:46.952Z</time>
      </trkpt>
      <trkpt lat="46.73148" lon="-1.9851">
        <ele>13.3</ele>
        <time>2025-01-22T09:24:47.952Z</time>
      </trkpt>
      <trkpt lat="46.73147" lon="-1.98509">
        <ele>13.3</ele>
        <time>2025-01-22T09:24:48.952Z</time>
      </trkpt>
      <trkpt lat="46.73146" lon="-1.98508">
        <ele>13.4</ele>
        <time>2025-01-22T09:24:49.952Z</time>
      </trkpt>
      <trkpt lat="46.73146" lon="-1.98507">
        <ele>13.4</ele>
        <time>2025-01-22T09:24:50.952Z</time>
      </trkpt>
      <trkpt lat="46.73145" lon="-1.98506">
        <ele>13.5</ele>
        <time>2025-01-22T09:24:51.953Z</time>
      </trkpt>
      <trkpt lat="46.73144" lon="-1.98506">
        <ele>13.5</ele>
        <time>2025-01-22T09:24:52.953Z</time>
      </trkpt>
      <trkpt lat="46.73143" lon="-1.98505">
        <ele>13.6</ele>
        <time>2025-01-22T09:24:53.952Z</time>
      </trkpt>
      <trkpt lat="46.73141" lon="-1.98504">
        <ele>13.8</ele>
        <time>2025-01-22T09:24:54.952Z</time>
      </trkpt>
      <trkpt lat="46.7314" lon="-1.98503">
        <ele>14</ele>
        <time>2025-01-22T09:24:55.953Z</time>
      </trkpt>
      <trkpt lat="46.73139" lon="-1.98502">
        <ele>14.1</ele>
        <time>2025-01-22T09:24:56.952Z</time>
      </trkpt>
      <trkpt lat="46.73137" lon="-1.98501">
        <ele>14</ele>
        <time>2025-01-22T09:24:57.952Z</time>
      </trkpt>
      <trkpt lat="46.73136" lon="-1.985">
        <ele>13.8</ele>
        <time>2025-01-22T09:24:58.952Z</time>
      </trkpt>
      <trkpt lat="46.73134" lon="-1.98499">
        <ele>13.6</ele>
        <time>2025-01-22T09:24:59.952Z</time>
      </trkpt>
      <trkpt lat="46.73133" lon="-1.98499">
        <ele>13.6</ele>
        <time>2025-01-22T09:25:00.953Z</time>
      </trkpt>
      <trkpt lat="46.73132" lon="-1.985">
        <ele>13.7</ele>
        <time>2025-01-22T09:25:01.953Z</time>
      </trkpt>
      <trkpt lat="46.73129" lon="-1.98501">
        <ele>13.7</ele>
        <time>2025-01-22T09:25:02.953Z</time>
      </trkpt>
      <trkpt lat="46.73127" lon="-1.98503">
        <ele>13.8</ele>
        <time>2025-01-22T09:25:03.953Z</time>
      </trkpt>
      <trkpt lat="46.73125" lon="-1.98503">
        <ele>13.8</ele>
        <time>2025-01-22T09:25:04.952Z</time>
      </trkpt>
      <trkpt lat="46.73123" lon="-1.98504">
        <ele>13.8</ele>
        <time>2025-01-22T09:25:05.953Z</time>
      </trkpt>
      <trkpt lat="46.73121" lon="-1.98505">
        <ele>13.8</ele>
        <time>2025-01-22T09:25:06.952Z</time>
      </trkpt>
      <trkpt lat="46.73119" lon="-1.98506">
        <ele>14</ele>
        <time>2025-01-22T09:25:07.953Z</time>
      </trkpt>
      <trkpt lat="46.73117" lon="-1.98507">
        <ele>14.1</ele>
        <time>2025-01-22T09:25:08.952Z</time>
      </trkpt>
      <trkpt lat="46.73115" lon="-1.98508">
        <ele>14.2</ele>
        <time>2025-01-22T09:25:09.952Z</time>
      </trkpt>
      <trkpt lat="46.73113" lon="-1.98509">
        <ele>14.3</ele>
        <time>2025-01-22T09:25:10.953Z</time>
      </trkpt>
      <trkpt lat="46.73111" lon="-1.98509">
        <ele>14.3</ele>
        <time>2025-01-22T09:25:11.953Z</time>
      </trkpt>
      <trkpt lat="46.73109" lon="-1.98508">
        <ele>14</ele>
        <time>2025-01-22T09:25:12.953Z</time>
      </trkpt>
      <trkpt lat="46.73107" lon="-1.98508">
        <ele>13.8</ele>
        <time>2025-01-22T09:25:13.952Z</time>
      </trkpt>
      <trkpt lat="46.73106" lon="-1.98507">
        <ele>13.7</ele>
        <time>2025-01-22T09:25:14.952Z</time>
      </trkpt>
      <trkpt lat="46.73104" lon="-1.98507">
        <ele>13.5</ele>
        <time>2025-01-22T09:25:15.953Z</time>
      </trkpt>
      <trkpt lat="46.73102" lon="-1.98507">
        <ele>13.3</ele>
        <time>2025-01-22T09:25:16.952Z</time>
      </trkpt>
      <trkpt lat="46.73099" lon="-1.98508">
        <ele>13.3</ele>
        <time>2025-01-22T09:25:17.952Z</time>
      </trkpt>
      <trkpt lat="46.73097" lon="-1.98508">
        <ele>13.2</ele>
        <time>2025-01-22T09:25:18.952Z</time>
      </trkpt>
      <trkpt lat="46.73095" lon="-1.98509">
        <ele>13.1</ele>
        <time>2025-01-22T09:25:19.952Z</time>
      </trkpt>
      <trkpt lat="46.73092" lon="-1.9851">
        <ele>13</ele>
        <time>2025-01-22T09:25:20.952Z</time>
      </trkpt>
      <trkpt lat="46.73089" lon="-1.98511">
        <ele>13</ele>
        <time>2025-01-22T09:25:21.953Z</time>
      </trkpt>
      <trkpt lat="46.73087" lon="-1.98513">
        <ele>13.1</ele>
        <time>2025-01-22T09:25:22.952Z</time>
      </trkpt>
      <trkpt lat="46.73085" lon="-1.98514">
        <ele>13.2</ele>
        <time>2025-01-22T09:25:23.952Z</time>
      </trkpt>
      <trkpt lat="46.73083" lon="-1.98515">
        <ele>13.2</ele>
        <time>2025-01-22T09:25:24.953Z</time>
      </trkpt>
      <trkpt lat="46.73082" lon="-1.98516">
        <ele>13.4</ele>
        <time>2025-01-22T09:25:25.952Z</time>
      </trkpt>
      <trkpt lat="46.7308" lon="-1.98516">
        <ele>13.6</ele>
        <time>2025-01-22T09:25:26.953Z</time>
      </trkpt>
      <trkpt lat="46.73079" lon="-1.98517">
        <ele>13.8</ele>
        <time>2025-01-22T09:25:27.952Z</time>
      </trkpt>
      <trkpt lat="46.73077" lon="-1.98517">
        <ele>14</ele>
        <time>2025-01-22T09:25:28.952Z</time>
      </trkpt>
      <trkpt lat="46.73075" lon="-1.98518">
        <ele>14.2</ele>
        <time>2025-01-22T09:25:29.952Z</time>
      </trkpt>
      <trkpt lat="46.73073" lon="-1.98519">
        <ele>14.4</ele>
        <time>2025-01-22T09:25:30.953Z</time>
      </trkpt>
      <trkpt lat="46.73071" lon="-1.98519">
        <ele>14.6</ele>
        <time>2025-01-22T09:25:31.952Z</time>
      </trkpt>
      <trkpt lat="46.73069" lon="-1.98518">
        <ele>14.6</ele>
        <time>2025-01-22T09:25:32.952Z</time>
      </trkpt>
      <trkpt lat="46.73066" lon="-1.98517">
        <ele>14.7</ele>
        <time>2025-01-22T09:25:33.952Z</time>
      </trkpt>
      <trkpt lat="46.73064" lon="-1.98516">
        <ele>14.8</ele>
        <time>2025-01-22T09:25:34.952Z</time>
      </trkpt>
      <trkpt lat="46.73063" lon="-1.98514">
        <ele>14.8</ele>
        <time>2025-01-22T09:25:35.952Z</time>
      </trkpt>
      <trkpt lat="46.73061" lon="-1.98512">
        <ele>14.9</ele>
        <time>2025-01-22T09:25:36.952Z</time>
      </trkpt>
      <trkpt lat="46.7306" lon="-1.98511">
        <ele>14.9</ele>
        <time>2025-01-22T09:25:37.952Z</time>
      </trkpt>
      <trkpt lat="46.73059" lon="-1.98509">
        <ele>15</ele>
        <time>2025-01-22T09:25:38.953Z</time>
      </trkpt>
      <trkpt lat="46.73058" lon="-1.98508">
        <ele>15</ele>
        <time>2025-01-22T09:25:39.953Z</time>
      </trkpt>
      <trkpt lat="46.73057" lon="-1.98505">
        <ele>15</ele>
        <time>2025-01-22T09:25:40.953Z</time>
      </trkpt>
      <trkpt lat="46.73057" lon="-1.98502">
        <ele>14.9</ele>
        <time>2025-01-22T09:25:41.952Z</time>
      </trkpt>
      <trkpt lat="46.73057" lon="-1.98501">
        <ele>14.9</ele>
        <time>2025-01-22T09:25:42.952Z</time>
      </trkpt>
      <trkpt lat="46.73057" lon="-1.98498">
        <ele>14.7</ele>
        <time>2025-01-22T09:25:43.952Z</time>
      </trkpt>
      <trkpt lat="46.73057" lon="-1.98497">
        <ele>14.6</ele>
        <time>2025-01-22T09:25:44.952Z</time>
      </trkpt>
      <trkpt lat="46.73058" lon="-1.98494">
        <ele>14.4</ele>
        <time>2025-01-22T09:25:45.952Z</time>
      </trkpt>
      <trkpt lat="46.73058" lon="-1.98491">
        <ele>14.3</ele>
        <time>2025-01-22T09:25:46.952Z</time>
      </trkpt>
      <trkpt lat="46.73058" lon="-1.98487">
        <ele>14</ele>
        <time>2025-01-22T09:25:47.952Z</time>
      </trkpt>
      <trkpt lat="46.73059" lon="-1.98484">
        <ele>13.6</ele>
        <time>2025-01-22T09:25:48.953Z</time>
      </trkpt>
      <trkpt lat="46.73059" lon="-1.9848">
        <ele>13.5</ele>
        <time>2025-01-22T09:25:49.953Z</time>
      </trkpt>
      <trkpt lat="46.73058" lon="-1.98476">
        <ele>13.7</ele>
        <time>2025-01-22T09:25:50.952Z</time>
      </trkpt>
      <trkpt lat="46.73055" lon="-1.98473">
        <ele>14</ele>
        <time>2025-01-22T09:25:51.952Z</time>
      </trkpt>
      <trkpt lat="46.73053" lon="-1.98471">
        <ele>13.8</ele>
        <time>2025-01-22T09:25:52.952Z</time>
      </trkpt>
      <trkpt lat="46.73052" lon="-1.98469">
        <ele>13.6</ele>
        <time>2025-01-22T09:25:53.953Z</time>
      </trkpt>
      <trkpt lat="46.7305" lon="-1.98468">
        <ele>13.5</ele>
        <time>2025-01-22T09:25:54.953Z</time>
      </trkpt>
      <trkpt lat="46.73048" lon="-1.98465">
        <ele>13.4</ele>
        <time>2025-01-22T09:25:55.952Z</time>
      </trkpt>
      <trkpt lat="46.73046" lon="-1.98464">
        <ele>13.4</ele>
        <time>2025-01-22T09:25:56.953Z</time>
      </trkpt>
      <trkpt lat="46.73045" lon="-1.98462">
        <ele>13.4</ele>
        <time>2025-01-22T09:25:57.952Z</time>
      </trkpt>
      <trkpt lat="46.73043" lon="-1.98461">
        <ele>13.4</ele>
        <time>2025-01-22T09:25:58.953Z</time>
      </trkpt>
      <trkpt lat="46.73042" lon="-1.98459">
        <ele>13.5</ele>
        <time>2025-01-22T09:25:59.953Z</time>
      </trkpt>
      <trkpt lat="46.73041" lon="-1.98457">
        <ele>13.5</ele>
        <time>2025-01-22T09:26:00.953Z</time>
      </trkpt>
      <trkpt lat="46.7304" lon="-1.98456">
        <ele>13.7</ele>
        <time>2025-01-22T09:26:01.953Z</time>
      </trkpt>
      <trkpt lat="46.73037" lon="-1.98456">
        <ele>13.9</ele>
        <time>2025-01-22T09:26:02.952Z</time>
      </trkpt>
      <trkpt lat="46.73035" lon="-1.98457">
        <ele>14.1</ele>
        <time>2025-01-22T09:26:03.952Z</time>
      </trkpt>
      <trkpt lat="46.73031" lon="-1.98458">
        <ele>14.3</ele>
        <time>2025-01-22T09:26:04.952Z</time>
      </trkpt>
      <trkpt lat="46.73029" lon="-1.98459">
        <ele>14.4</ele>
        <time>2025-01-22T09:26:05.952Z</time>
      </trkpt>
      <trkpt lat="46.73027" lon="-1.9846">
        <ele>14.3</ele>
        <time>2025-01-22T09:26:06.953Z</time>
      </trkpt>
      <trkpt lat="46.73025" lon="-1.98462">
        <ele>14.3</ele>
        <time>2025-01-22T09:26:07.952Z</time>
      </trkpt>
      <trkpt lat="46.73023" lon="-1.98464">
        <ele>14.3</ele>
        <time>2025-01-22T09:26:08.952Z</time>
      </trkpt>
      <trkpt lat="46.73021" lon="-1.98465">
        <ele>14.3</ele>
        <time>2025-01-22T09:26:09.952Z</time>
      </trkpt>
      <trkpt lat="46.73019" lon="-1.98466">
        <ele>14.3</ele>
        <time>2025-01-22T09:26:10.953Z</time>
      </trkpt>
      <trkpt lat="46.73017" lon="-1.98468">
        <ele>14.4</ele>
        <time>2025-01-22T09:26:11.952Z</time>
      </trkpt>
      <trkpt lat="46.73016" lon="-1.98469">
        <ele>14.5</ele>
        <time>2025-01-22T09:26:12.953Z</time>
      </trkpt>
      <trkpt lat="46.73014" lon="-1.9847">
        <ele>14.5</ele>
        <time>2025-01-22T09:26:13.953Z</time>
      </trkpt>
      <trkpt lat="46.73013" lon="-1.98472">
        <ele>14.6</ele>
        <time>2025-01-22T09:26:14.952Z</time>
      </trkpt>
      <trkpt lat="46.73011" lon="-1.98474">
        <ele>14.4</ele>
        <time>2025-01-22T09:26:15.952Z</time>
      </trkpt>
      <trkpt lat="46.73009" lon="-1.98476">
        <ele>14.1</ele>
        <time>2025-01-22T09:26:16.953Z</time>
      </trkpt>
      <trkpt lat="46.73007" lon="-1.98477">
        <ele>13.8</ele>
        <time>2025-01-22T09:26:17.953Z</time>
      </trkpt>
      <trkpt lat="46.73007" lon="-1.9848">
        <ele>13.3</ele>
        <time>2025-01-22T09:26:18.952Z</time>
      </trkpt>
      <trkpt lat="46.73006" lon="-1.98483">
        <ele>12.5</ele>
        <time>2025-01-22T09:26:19.952Z</time>
      </trkpt>
      <trkpt lat="46.73005" lon="-1.98487">
        <ele>11.5</ele>
        <time>2025-01-22T09:26:20.952Z</time>
      </trkpt>
      <trkpt lat="46.73005" lon="-1.98489">
        <ele>10.8</ele>
        <time>2025-01-22T09:26:21.953Z</time>
      </trkpt>
      <trkpt lat="46.73005" lon="-1.98492">
        <ele>10</ele>
        <time>2025-01-22T09:26:22.953Z</time>
      </trkpt>
      <trkpt lat="46.73006" lon="-1.98495">
        <ele>9.2</ele>
        <time>2025-01-22T09:26:23.952Z</time>
      </trkpt>
      <trkpt lat="46.73007" lon="-1.98498">
        <ele>8.2</ele>
        <time>2025-01-22T09:26:24.952Z</time>
      </trkpt>
      <trkpt lat="46.73008" lon="-1.98501">
        <ele>7.7</ele>
        <time>2025-01-22T09:26:25.952Z</time>
      </trkpt>
      <trkpt lat="46.73008" lon="-1.98504">
        <ele>7.3</ele>
        <time>2025-01-22T09:26:26.952Z</time>
      </trkpt>
      <trkpt lat="46.73009" lon="-1.98509">
        <ele>6.8</ele>
        <time>2025-01-22T09:26:27.952Z</time>
      </trkpt>
      <trkpt lat="46.7301" lon="-1.98513">
        <ele>6.4</ele>
        <time>2025-01-22T09:26:28.952Z</time>
      </trkpt>
      <trkpt lat="46.73012" lon="-1.98517">
        <ele>6</ele>
        <time>2025-01-22T09:26:29.953Z</time>
      </trkpt>
      <trkpt lat="46.73014" lon="-1.98522">
        <ele>5.5</ele>
        <time>2025-01-22T09:26:30.953Z</time>
      </trkpt>
      <trkpt lat="46.73015" lon="-1.98525">
        <ele>5.2</ele>
        <time>2025-01-22T09:26:31.953Z</time>
      </trkpt>
      <trkpt lat="46.73016" lon="-1.98528">
        <ele>5</ele>
        <time>2025-01-22T09:26:32.952Z</time>
      </trkpt>
      <trkpt lat="46.73017" lon="-1.98532">
        <ele>4.9</ele>
        <time>2025-01-22T09:26:33.952Z</time>
      </trkpt>
      <trkpt lat="46.73017" lon="-1.98534">
        <ele>4.9</ele>
        <time>2025-01-22T09:26:34.952Z</time>
      </trkpt>
      <trkpt lat="46.73017" lon="-1.98537">
        <ele>4.9</ele>
        <time>2025-01-22T09:26:35.952Z</time>
      </trkpt>
      <trkpt lat="46.73018" lon="-1.9854">
        <ele>4.8</ele>
        <time>2025-01-22T09:26:36.952Z</time>
      </trkpt>
      <trkpt lat="46.73018" lon="-1.98542">
        <ele>4.8</ele>
        <time>2025-01-22T09:26:37.952Z</time>
      </trkpt>
      <trkpt lat="46.73019" lon="-1.98545">
        <ele>4.8</ele>
        <time>2025-01-22T09:26:38.953Z</time>
      </trkpt>
      <trkpt lat="46.73019" lon="-1.98548">
        <ele>4.8</ele>
        <time>2025-01-22T09:26:39.953Z</time>
      </trkpt>
      <trkpt lat="46.73018" lon="-1.98551">
        <ele>4.7</ele>
        <time>2025-01-22T09:26:40.952Z</time>
      </trkpt>
      <trkpt lat="46.73018" lon="-1.98555">
        <ele>4.7</ele>
        <time>2025-01-22T09:26:41.953Z</time>
      </trkpt>
      <trkpt lat="46.73019" lon="-1.98558">
        <ele>4.7</ele>
        <time>2025-01-22T09:26:42.952Z</time>
      </trkpt>
      <trkpt lat="46.73019" lon="-1.98561">
        <ele>4.7</ele>
        <time>2025-01-22T09:26:43.952Z</time>
      </trkpt>
      <trkpt lat="46.73019" lon="-1.98564">
        <ele>4.8</ele>
        <time>2025-01-22T09:26:44.952Z</time>
      </trkpt>
      <trkpt lat="46.73019" lon="-1.98568">
        <ele>4.8</ele>
        <time>2025-01-22T09:26:45.952Z</time>
      </trkpt>
      <trkpt lat="46.7302" lon="-1.98571">
        <ele>4.8</ele>
        <time>2025-01-22T09:26:46.953Z</time>
      </trkpt>
      <trkpt lat="46.7302" lon="-1.98574">
        <ele>4.8</ele>
        <time>2025-01-22T09:26:47.952Z</time>
      </trkpt>
      <trkpt lat="46.73021" lon="-1.98577">
        <ele>4.8</ele>
        <time>2025-01-22T09:26:48.952Z</time>
      </trkpt>
      <trkpt lat="46.73022" lon="-1.9858">
        <ele>4.7</ele>
        <time>2025-01-22T09:26:49.952Z</time>
      </trkpt>
      <trkpt lat="46.73022" lon="-1.98584">
        <ele>4.6</ele>
        <time>2025-01-22T09:26:50.952Z</time>
      </trkpt>
      <trkpt lat="46.73022" lon="-1.98587">
        <ele>4.5</ele>
        <time>2025-01-22T09:26:51.952Z</time>
      </trkpt>
      <trkpt lat="46.73022" lon="-1.9859">
        <ele>4.5</ele>
        <time>2025-01-22T09:26:52.952Z</time>
      </trkpt>
      <trkpt lat="46.73021" lon="-1.98592">
        <ele>4.6</ele>
        <time>2025-01-22T09:26:53.952Z</time>
      </trkpt>
      <trkpt lat="46.7302" lon="-1.98593">
        <ele>4.8</ele>
        <time>2025-01-22T09:26:54.952Z</time>
      </trkpt>
      <trkpt lat="46.73018" lon="-1.98594">
        <ele>5</ele>
        <time>2025-01-22T09:26:55.952Z</time>
      </trkpt>
      <trkpt lat="46.73016" lon="-1.98594">
        <ele>5.2</ele>
        <time>2025-01-22T09:26:56.952Z</time>
      </trkpt>
      <trkpt lat="46.73014" lon="-1.98595">
        <ele>5.4</ele>
        <time>2025-01-22T09:26:57.952Z</time>
      </trkpt>
      <trkpt lat="46.73013" lon="-1.98595">
        <ele>5.7</ele>
        <time>2025-01-22T09:26:58.952Z</time>
      </trkpt>
      <trkpt lat="46.73011" lon="-1.98596">
        <ele>5.9</ele>
        <time>2025-01-22T09:26:59.953Z</time>
      </trkpt>
      <trkpt lat="46.73009" lon="-1.98597">
        <ele>6.2</ele>
        <time>2025-01-22T09:27:00.953Z</time>
      </trkpt>
      <trkpt lat="46.73008" lon="-1.98597">
        <ele>6.4</ele>
        <time>2025-01-22T09:27:01.953Z</time>
      </trkpt>
      <trkpt lat="46.73006" lon="-1.98598">
        <ele>6.6</ele>
        <time>2025-01-22T09:27:02.952Z</time>
      </trkpt>
      <trkpt lat="46.73004" lon="-1.98599">
        <ele>6.9</ele>
        <time>2025-01-22T09:27:03.952Z</time>
      </trkpt>
      <trkpt lat="46.73002" lon="-1.98599">
        <ele>7.3</ele>
        <time>2025-01-22T09:27:04.952Z</time>
      </trkpt>
      <trkpt lat="46.73001" lon="-1.986">
        <ele>7.5</ele>
        <time>2025-01-22T09:27:05.952Z</time>
      </trkpt>
      <trkpt lat="46.73" lon="-1.98601">
        <ele>7.6</ele>
        <time>2025-01-22T09:27:06.952Z</time>
      </trkpt>
      <trkpt lat="46.72998" lon="-1.98601">
        <ele>7.5</ele>
        <time>2025-01-22T09:27:07.952Z</time>
      </trkpt>
      <trkpt lat="46.72997" lon="-1.98602">
        <ele>7.5</ele>
        <time>2025-01-22T09:27:08.952Z</time>
      </trkpt>
      <trkpt lat="46.72996" lon="-1.98602">
        <ele>7.4</ele>
        <time>2025-01-22T09:27:09.953Z</time>
      </trkpt>
      <trkpt lat="46.72995" lon="-1.98603">
        <ele>7.3</ele>
        <time>2025-01-22T09:27:10.952Z</time>
      </trkpt>
      <trkpt lat="46.72993" lon="-1.98603">
        <ele>7.1</ele>
        <time>2025-01-22T09:27:11.953Z</time>
      </trkpt>
      <trkpt lat="46.72992" lon="-1.98604">
        <ele>7</ele>
        <time>2025-01-22T09:27:12.953Z</time>
      </trkpt>
      <trkpt lat="46.7299" lon="-1.98605">
        <ele>6.8</ele>
        <time>2025-01-22T09:27:13.952Z</time>
      </trkpt>
      <trkpt lat="46.72989" lon="-1.98607">
        <ele>6.7</ele>
        <time>2025-01-22T09:27:14.953Z</time>
      </trkpt>
      <trkpt lat="46.72988" lon="-1.98609">
        <ele>6.4</ele>
        <time>2025-01-22T09:27:15.952Z</time>
      </trkpt>
      <trkpt lat="46.72987" lon="-1.98612">
        <ele>6.2</ele>
        <time>2025-01-22T09:27:16.953Z</time>
      </trkpt>
      <trkpt lat="46.72986" lon="-1.98615">
        <ele>6.1</ele>
        <time>2025-01-22T09:27:17.952Z</time>
      </trkpt>
      <trkpt lat="46.72986" lon="-1.98618">
        <ele>6.2</ele>
        <time>2025-01-22T09:27:18.953Z</time>
      </trkpt>
      <trkpt lat="46.72986" lon="-1.98622">
        <ele>6.3</ele>
        <time>2025-01-22T09:27:19.952Z</time>
      </trkpt>
      <trkpt lat="46.72986" lon="-1.98626">
        <ele>6.5</ele>
        <time>2025-01-22T09:27:20.953Z</time>
      </trkpt>
      <trkpt lat="46.72986" lon="-1.98629">
        <ele>6.5</ele>
        <time>2025-01-22T09:27:21.952Z</time>
      </trkpt>
      <trkpt lat="46.72985" lon="-1.98632">
        <ele>6.6</ele>
        <time>2025-01-22T09:27:22.953Z</time>
      </trkpt>
      <trkpt lat="46.72986" lon="-1.98636">
        <ele>6.9</ele>
        <time>2025-01-22T09:27:23.952Z</time>
      </trkpt>
      <trkpt lat="46.72987" lon="-1.98639">
        <ele>7.2</ele>
        <time>2025-01-22T09:27:24.953Z</time>
      </trkpt>
      <trkpt lat="46.72987" lon="-1.98641">
        <ele>7.2</ele>
        <time>2025-01-22T09:27:25.953Z</time>
      </trkpt>
      <trkpt lat="46.72986" lon="-1.98644">
        <ele>7.1</ele>
        <time>2025-01-22T09:27:26.952Z</time>
      </trkpt>
      <trkpt lat="46.72985" lon="-1.98646">
        <ele>7</ele>
        <time>2025-01-22T09:27:27.952Z</time>
      </trkpt>
      <trkpt lat="46.72984" lon="-1.98648">
        <ele>6.9</ele>
        <time>2025-01-22T09:27:28.953Z</time>
      </trkpt>
      <trkpt lat="46.72982" lon="-1.9865">
        <ele>6.7</ele>
        <time>2025-01-22T09:27:29.952Z</time>
      </trkpt>
      <trkpt lat="46.72981" lon="-1.98653">
        <ele>6.6</ele>
        <time>2025-01-22T09:27:30.952Z</time>
      </trkpt>
      <trkpt lat="46.72981" lon="-1.98656">
        <ele>6.7</ele>
        <time>2025-01-22T09:27:31.952Z</time>
      </trkpt>
      <trkpt lat="46.72981" lon="-1.9866">
        <ele>6.7</ele>
        <time>2025-01-22T09:27:32.952Z</time>
      </trkpt>
      <trkpt lat="46.72981" lon="-1.98664">
        <ele>6.8</ele>
        <time>2025-01-22T09:27:33.952Z</time>
      </trkpt>
      <trkpt lat="46.72981" lon="-1.98668">
        <ele>6.9</ele>
        <time>2025-01-22T09:27:34.952Z</time>
      </trkpt>
      <trkpt lat="46.72982" lon="-1.98671">
        <ele>6.9</ele>
        <time>2025-01-22T09:27:35.952Z</time>
      </trkpt>
      <trkpt lat="46.72983" lon="-1.98673">
        <ele>6.9</ele>
        <time>2025-01-22T09:27:36.952Z</time>
      </trkpt>
      <trkpt lat="46.72984" lon="-1.98676">
        <ele>7</ele>
        <time>2025-01-22T09:27:37.953Z</time>
      </trkpt>
      <trkpt lat="46.72985" lon="-1.98677">
        <ele>7</ele>
        <time>2025-01-22T09:27:38.953Z</time>
      </trkpt>
      <trkpt lat="46.72986" lon="-1.98679">
        <ele>7</ele>
        <time>2025-01-22T09:27:39.952Z</time>
      </trkpt>
      <trkpt lat="46.72986" lon="-1.9868">
        <ele>7</ele>
        <time>2025-01-22T09:27:40.953Z</time>
      </trkpt>
      <trkpt lat="46.72986" lon="-1.98681">
        <ele>7</ele>
        <time>2025-01-22T09:27:41.953Z</time>
      </trkpt>
      <trkpt lat="46.72985" lon="-1.98682">
        <ele>6.8</ele>
        <time>2025-01-22T09:27:42.952Z</time>
      </trkpt>
      <trkpt lat="46.72984" lon="-1.98684">
        <ele>6.7</ele>
        <time>2025-01-22T09:27:43.953Z</time>
      </trkpt>
      <trkpt lat="46.72984" lon="-1.98687">
        <ele>6.5</ele>
        <time>2025-01-22T09:27:44.953Z</time>
      </trkpt>
      <trkpt lat="46.72985" lon="-1.98689">
        <ele>6.5</ele>
        <time>2025-01-22T09:27:45.953Z</time>
      </trkpt>
      <trkpt lat="46.72986" lon="-1.98692">
        <ele>6.5</ele>
        <time>2025-01-22T09:27:46.953Z</time>
      </trkpt>
      <trkpt lat="46.72987" lon="-1.98694">
        <ele>6.6</ele>
        <time>2025-01-22T09:27:47.953Z</time>
      </trkpt>
      <trkpt lat="46.72988" lon="-1.98696">
        <ele>6.6</ele>
        <time>2025-01-22T09:27:48.952Z</time>
      </trkpt>
      <trkpt lat="46.72989" lon="-1.98698">
        <ele>6.7</ele>
        <time>2025-01-22T09:27:49.952Z</time>
      </trkpt>
      <trkpt lat="46.7299" lon="-1.987">
        <ele>6.7</ele>
        <time>2025-01-22T09:27:50.952Z</time>
      </trkpt>
      <trkpt lat="46.72992" lon="-1.98703">
        <ele>6.8</ele>
        <time>2025-01-22T09:27:51.953Z</time>
      </trkpt>
      <trkpt lat="46.72994" lon="-1.98705">
        <ele>6.9</ele>
        <time>2025-01-22T09:27:52.953Z</time>
      </trkpt>
      <trkpt lat="46.72996" lon="-1.98707">
        <ele>7.1</ele>
        <time>2025-01-22T09:27:53.952Z</time>
      </trkpt>
      <trkpt lat="46.72998" lon="-1.98711">
        <ele>7.2</ele>
        <time>2025-01-22T09:27:54.952Z</time>
      </trkpt>
      <trkpt lat="46.72999" lon="-1.98714">
        <ele>7.2</ele>
        <time>2025-01-22T09:27:55.952Z</time>
      </trkpt>
      <trkpt lat="46.73" lon="-1.98717">
        <ele>7.1</ele>
        <time>2025-01-22T09:27:56.953Z</time>
      </trkpt>
      <trkpt lat="46.73" lon="-1.9872">
        <ele>7</ele>
        <time>2025-01-22T09:27:57.953Z</time>
      </trkpt>
      <trkpt lat="46.73" lon="-1.98724">
        <ele>7</ele>
        <time>2025-01-22T09:27:58.952Z</time>
      </trkpt>
      <trkpt lat="46.73001" lon="-1.98727">
        <ele>7.1</ele>
        <time>2025-01-22T09:27:59.952Z</time>
      </trkpt>
      <trkpt lat="46.73002" lon="-1.9873">
        <ele>7</ele>
        <time>2025-01-22T09:28:00.952Z</time>
      </trkpt>
      <trkpt lat="46.73003" lon="-1.98733">
        <ele>7</ele>
        <time>2025-01-22T09:28:01.952Z</time>
      </trkpt>
      <trkpt lat="46.73004" lon="-1.98736">
        <ele>7.1</ele>
        <time>2025-01-22T09:28:02.953Z</time>
      </trkpt>
      <trkpt lat="46.73004" lon="-1.98739">
        <ele>7.2</ele>
        <time>2025-01-22T09:28:03.953Z</time>
      </trkpt>
      <trkpt lat="46.73003" lon="-1.98741">
        <ele>7.3</ele>
        <time>2025-01-22T09:28:04.953Z</time>
      </trkpt>
      <trkpt lat="46.73003" lon="-1.98743">
        <ele>7.4</ele>
        <time>2025-01-22T09:28:05.953Z</time>
      </trkpt>
      <trkpt lat="46.73003" lon="-1.98745">
        <ele>7.5</ele>
        <time>2025-01-22T09:28:06.952Z</time>
      </trkpt>
      <trkpt lat="46.73003" lon="-1.98748">
        <ele>7.6</ele>
        <time>2025-01-22T09:28:07.952Z</time>
      </trkpt>
      <trkpt lat="46.73004" lon="-1.98751">
        <ele>7.6</ele>
        <time>2025-01-22T09:28:08.953Z</time>
      </trkpt>
      <trkpt lat="46.73004" lon="-1.98753">
        <ele>7.4</ele>
        <time>2025-01-22T09:28:09.953Z</time>
      </trkpt>
      <trkpt lat="46.73004" lon="-1.98756">
        <ele>7.2</ele>
        <time>2025-01-22T09:28:10.953Z</time>
      </trkpt>
      <trkpt lat="46.73003" lon="-1.98758">
        <ele>7.1</ele>
        <time>2025-01-22T09:28:11.952Z</time>
      </trkpt>
      <trkpt lat="46.73003" lon="-1.9876">
        <ele>7</ele>
        <time>2025-01-22T09:28:12.953Z</time>
      </trkpt>
      <trkpt lat="46.73002" lon="-1.98763">
        <ele>6.8</ele>
        <time>2025-01-22T09:28:13.952Z</time>
      </trkpt>
      <trkpt lat="46.73002" lon="-1.98771">
        <ele>6.3</ele>
        <time>2025-01-22T09:29:19.526Z</time>
      </trkpt>
      <trkpt lat="46.73003" lon="-1.98771">
        <ele>6.2</ele>
        <time>2025-01-22T09:29:20.525Z</time>
      </trkpt>
      <trkpt lat="46.73004" lon="-1.98775">
        <ele>5.9</ele>
        <time>2025-01-22T09:29:21.525Z</time>
      </trkpt>
      <trkpt lat="46.73004" lon="-1.98779">
        <ele>5.7</ele>
        <time>2025-01-22T09:29:22.525Z</time>
      </trkpt>
      <trkpt lat="46.73004" lon="-1.98783">
        <ele>5.6</ele>
        <time>2025-01-22T09:29:23.526Z</time>
      </trkpt>
      <trkpt lat="46.73005" lon="-1.98786">
        <ele>5.4</ele>
        <time>2025-01-22T09:29:24.525Z</time>
      </trkpt>
      <trkpt lat="46.73006" lon="-1.98789">
        <ele>5.3</ele>
        <time>2025-01-22T09:29:25.526Z</time>
      </trkpt>
      <trkpt lat="46.73006" lon="-1.98793">
        <ele>5.1</ele>
        <time>2025-01-22T09:29:26.526Z</time>
      </trkpt>
      <trkpt lat="46.73006" lon="-1.98796">
        <ele>5</ele>
        <time>2025-01-22T09:29:27.526Z</time>
      </trkpt>
      <trkpt lat="46.73007" lon="-1.988">
        <ele>4.9</ele>
        <time>2025-01-22T09:29:28.525Z</time>
      </trkpt>
      <trkpt lat="46.73008" lon="-1.98804">
        <ele>4.8</ele>
        <time>2025-01-22T09:29:29.526Z</time>
      </trkpt>
      <trkpt lat="46.73008" lon="-1.98808">
        <ele>4.8</ele>
        <time>2025-01-22T09:29:30.525Z</time>
      </trkpt>
      <trkpt lat="46.73007" lon="-1.98813">
        <ele>4.9</ele>
        <time>2025-01-22T09:29:31.525Z</time>
      </trkpt>
      <trkpt lat="46.73008" lon="-1.98817">
        <ele>5</ele>
        <time>2025-01-22T09:29:32.526Z</time>
      </trkpt>
      <trkpt lat="46.73008" lon="-1.9882">
        <ele>5.1</ele>
        <time>2025-01-22T09:29:33.525Z</time>
      </trkpt>
      <trkpt lat="46.73009" lon="-1.98823">
        <ele>5.1</ele>
        <time>2025-01-22T09:29:34.525Z</time>
      </trkpt>
      <trkpt lat="46.73009" lon="-1.98826">
        <ele>5.2</ele>
        <time>2025-01-22T09:29:35.526Z</time>
      </trkpt>
      <trkpt lat="46.73008" lon="-1.9883">
        <ele>5.4</ele>
        <time>2025-01-22T09:29:36.525Z</time>
      </trkpt>
      <trkpt lat="46.73007" lon="-1.98834">
        <ele>5.5</ele>
        <time>2025-01-22T09:29:37.525Z</time>
      </trkpt>
      <trkpt lat="46.73006" lon="-1.98838">
        <ele>5.4</ele>
        <time>2025-01-22T09:29:38.526Z</time>
      </trkpt>
      <trkpt lat="46.73006" lon="-1.98842">
        <ele>5.3</ele>
        <time>2025-01-22T09:29:39.526Z</time>
      </trkpt>
      <trkpt lat="46.73006" lon="-1.98846">
        <ele>5.2</ele>
        <time>2025-01-22T09:29:40.525Z</time>
      </trkpt>
      <trkpt lat="46.73007" lon="-1.9885">
        <ele>5.1</ele>
        <time>2025-01-22T09:29:41.525Z</time>
      </trkpt>
      <trkpt lat="46.73007" lon="-1.98853">
        <ele>5</ele>
        <time>2025-01-22T09:29:42.525Z</time>
      </trkpt>
      <trkpt lat="46.73007" lon="-1.98856">
        <ele>4.9</ele>
        <time>2025-01-22T09:29:43.525Z</time>
      </trkpt>
      <trkpt lat="46.73007" lon="-1.9886">
        <ele>4.8</ele>
        <time>2025-01-22T09:29:44.526Z</time>
      </trkpt>
      <trkpt lat="46.73006" lon="-1.98864">
        <ele>4.7</ele>
        <time>2025-01-22T09:29:45.526Z</time>
      </trkpt>
      <trkpt lat="46.73006" lon="-1.98867">
        <ele>4.7</ele>
        <time>2025-01-22T09:29:46.525Z</time>
      </trkpt>
      <trkpt lat="46.73006" lon="-1.98871">
        <ele>4.6</ele>
        <time>2025-01-22T09:29:47.526Z</time>
      </trkpt>
      <trkpt lat="46.73005" lon="-1.98876">
        <ele>4.5</ele>
        <time>2025-01-22T09:29:48.525Z</time>
      </trkpt>
      <trkpt lat="46.73005" lon="-1.98878">
        <ele>4.4</ele>
        <time>2025-01-22T09:29:49.526Z</time>
      </trkpt>
      <trkpt lat="46.73005" lon="-1.98881">
        <ele>4.4</ele>
        <time>2025-01-22T09:29:50.526Z</time>
      </trkpt>
      <trkpt lat="46.73005" lon="-1.98883">
        <ele>4.3</ele>
        <time>2025-01-22T09:29:51.526Z</time>
      </trkpt>
      <trkpt lat="46.73005" lon="-1.98885">
        <ele>4.3</ele>
        <time>2025-01-22T09:29:52.526Z</time>
      </trkpt>
      <trkpt lat="46.73006" lon="-1.98885">
        <ele>4.3</ele>
        <time>2025-01-22T09:29:53.526Z</time>
      </trkpt>
      <trkpt lat="46.73006" lon="-1.98886">
        <ele>4.3</ele>
        <time>2025-01-22T09:29:54.525Z</time>
      </trkpt>
      <trkpt lat="46.73006" lon="-1.98886">
        <ele>4.3</ele>
        <time>2025-01-22T09:29:55.525Z</time>
      </trkpt>
      <trkpt lat="46.73006" lon="-1.98886">
        <ele>4.3</ele>
        <time>2025-01-22T09:29:56.525Z</time>
      </trkpt>
      <trkpt lat="46.73005" lon="-1.98886">
        <ele>4.3</ele>
        <time>2025-01-22T09:29:57.526Z</time>
      </trkpt>
      <trkpt lat="46.73006" lon="-1.98886">
        <ele>4.3</ele>
        <time>2025-01-22T09:29:58.526Z</time>
      </trkpt>
      <trkpt lat="46.73006" lon="-1.98886">
        <ele>4.3</ele>
        <time>2025-01-22T09:29:59.526Z</time>
      </trkpt>
      <trkpt lat="46.73007" lon="-1.98888">
        <ele>4.3</ele>
        <time>2025-01-22T09:30:00.526Z</time>
      </trkpt>
      <trkpt lat="46.73007" lon="-1.98888">
        <ele>4.3</ele>
        <time>2025-01-22T09:30:01.526Z</time>
      </trkpt>
      <trkpt lat="46.73008" lon="-1.98889">
        <ele>4.3</ele>
        <time>2025-01-22T09:30:02.526Z</time>
      </trkpt>
      <trkpt lat="46.73008" lon="-1.98889">
        <ele>4.3</ele>
        <time>2025-01-22T09:30:03.525Z</time>
      </trkpt>
      <trkpt lat="46.73008" lon="-1.9889">
        <ele>4.3</ele>
        <time>2025-01-22T09:30:04.525Z</time>
      </trkpt>
      <trkpt lat="46.73008" lon="-1.9889">
        <ele>4.3</ele>
        <time>2025-01-22T09:30:05.525Z</time>
      </trkpt>
      <trkpt lat="46.73008" lon="-1.9889">
        <ele>4.3</ele>
        <time>2025-01-22T09:30:06.525Z</time>
      </trkpt>
      <trkpt lat="46.73008" lon="-1.9889">
        <ele>4.3</ele>
        <time>2025-01-22T09:30:07.526Z</time>
      </trkpt>
      <trkpt lat="46.73008" lon="-1.9889">
        <ele>4.3</ele>
        <time>2025-01-22T09:30:08.526Z</time>
      </trkpt>
      <trkpt lat="46.73008" lon="-1.9889">
        <ele>4.3</ele>
        <time>2025-01-22T09:30:09.526Z</time>
      </trkpt>
      <trkpt lat="46.73008" lon="-1.9889">
        <ele>4.3</ele>
        <time>2025-01-22T09:30:10.525Z</time>
      </trkpt>
      <trkpt lat="46.73008" lon="-1.9889">
        <ele>4.3</ele>
        <time>2025-01-22T09:30:11.526Z</time>
      </trkpt>
      <trkpt lat="46.73008" lon="-1.9889">
        <ele>4.3</ele>
        <time>2025-01-22T09:30:12.526Z</time>
      </trkpt>
      <trkpt lat="46.73008" lon="-1.9889">
        <ele>4.4</ele>
        <time>2025-01-22T09:30:13.525Z</time>
      </trkpt>
      <trkpt lat="46.73008" lon="-1.98893">
        <ele>4.5</ele>
        <time>2025-01-22T09:30:14.525Z</time>
      </trkpt>
      <trkpt lat="46.73007" lon="-1.98897">
        <ele>4.7</ele>
        <time>2025-01-22T09:30:15.525Z</time>
      </trkpt>
      <trkpt lat="46.73006" lon="-1.989">
        <ele>4.9</ele>
        <time>2025-01-22T09:30:16.525Z</time>
      </trkpt>
      <trkpt lat="46.73006" lon="-1.98904">
        <ele>5.1</ele>
        <time>2025-01-22T09:30:17.526Z</time>
      </trkpt>
      <trkpt lat="46.73005" lon="-1.98909">
        <ele>5.3</ele>
        <time>2025-01-22T09:30:18.525Z</time>
      </trkpt>
      <trkpt lat="46.73004" lon="-1.98913">
        <ele>5.6</ele>
        <time>2025-01-22T09:30:19.525Z</time>
      </trkpt>
      <trkpt lat="46.73003" lon="-1.98917">
        <ele>5.9</ele>
        <time>2025-01-22T09:30:20.525Z</time>
      </trkpt>
      <trkpt lat="46.73002" lon="-1.9892">
        <ele>6.2</ele>
        <time>2025-01-22T09:30:21.525Z</time>
      </trkpt>
      <trkpt lat="46.73002" lon="-1.98923">
        <ele>6.6</ele>
        <time>2025-01-22T09:30:22.526Z</time>
      </trkpt>
      <trkpt lat="46.73002" lon="-1.98926">
        <ele>6.8</ele>
        <time>2025-01-22T09:30:23.526Z</time>
      </trkpt>
      <trkpt lat="46.73001" lon="-1.98928">
        <ele>7.1</ele>
        <time>2025-01-22T09:30:24.526Z</time>
      </trkpt>
      <trkpt lat="46.73" lon="-1.98931">
        <ele>7.5</ele>
        <time>2025-01-22T09:30:25.526Z</time>
      </trkpt>
      <trkpt lat="46.72999" lon="-1.98933">
        <ele>7.7</ele>
        <time>2025-01-22T09:30:26.526Z</time>
      </trkpt>
      <trkpt lat="46.72998" lon="-1.98936">
        <ele>7.7</ele>
        <time>2025-01-22T09:30:27.525Z</time>
      </trkpt>
      <trkpt lat="46.72997" lon="-1.98939">
        <ele>7.8</ele>
        <time>2025-01-22T09:30:28.525Z</time>
      </trkpt>
      <trkpt lat="46.72996" lon="-1.98941">
        <ele>7.9</ele>
        <time>2025-01-22T09:30:29.525Z</time>
      </trkpt>
      <trkpt lat="46.72994" lon="-1.98943">
        <ele>7.8</ele>
        <time>2025-01-22T09:30:30.525Z</time>
      </trkpt>
      <trkpt lat="46.72993" lon="-1.98946">
        <ele>7.5</ele>
        <time>2025-01-22T09:30:31.526Z</time>
      </trkpt>
      <trkpt lat="46.72991" lon="-1.98948">
        <ele>7</ele>
        <time>2025-01-22T09:30:32.525Z</time>
      </trkpt>
      <trkpt lat="46.72989" lon="-1.98951">
        <ele>6.5</ele>
        <time>2025-01-22T09:30:33.526Z</time>
      </trkpt>
      <trkpt lat="46.72987" lon="-1.98954">
        <ele>6.1</ele>
        <time>2025-01-22T09:30:34.526Z</time>
      </trkpt>
      <trkpt lat="46.72985" lon="-1.98957">
        <ele>5.7</ele>
        <time>2025-01-22T09:30:35.526Z</time>
      </trkpt>
      <trkpt lat="46.72983" lon="-1.98959">
        <ele>5.4</ele>
        <time>2025-01-22T09:30:36.526Z</time>
      </trkpt>
      <trkpt lat="46.72981" lon="-1.98962">
        <ele>5.2</ele>
        <time>2025-01-22T09:30:37.526Z</time>
      </trkpt>
      <trkpt lat="46.72979" lon="-1.98964">
        <ele>5.1</ele>
        <time>2025-01-22T09:30:38.526Z</time>
      </trkpt>
      <trkpt lat="46.72977" lon="-1.98967">
        <ele>5</ele>
        <time>2025-01-22T09:30:39.526Z</time>
      </trkpt>
      <trkpt lat="46.72976" lon="-1.9897">
        <ele>5</ele>
        <time>2025-01-22T09:30:40.525Z</time>
      </trkpt>
      <trkpt lat="46.72974" lon="-1.98972">
        <ele>5</ele>
        <time>2025-01-22T09:30:41.526Z</time>
      </trkpt>
      <trkpt lat="46.72972" lon="-1.98975">
        <ele>4.9</ele>
        <time>2025-01-22T09:30:42.526Z</time>
      </trkpt>
      <trkpt lat="46.72971" lon="-1.98978">
        <ele>4.8</ele>
        <time>2025-01-22T09:30:43.526Z</time>
      </trkpt>
      <trkpt lat="46.72969" lon="-1.9898">
        <ele>4.6</ele>
        <time>2025-01-22T09:30:44.526Z</time>
      </trkpt>
      <trkpt lat="46.72968" lon="-1.98982">
        <ele>4.5</ele>
        <time>2025-01-22T09:30:45.525Z</time>
      </trkpt>
      <trkpt lat="46.72967" lon="-1.98984">
        <ele>4.5</ele>
        <time>2025-01-22T09:30:46.525Z</time>
      </trkpt>
      <trkpt lat="46.72965" lon="-1.98986">
        <ele>4.4</ele>
        <time>2025-01-22T09:30:47.525Z</time>
      </trkpt>
      <trkpt lat="46.72964" lon="-1.98989">
        <ele>4.3</ele>
        <time>2025-01-22T09:30:48.525Z</time>
      </trkpt>
      <trkpt lat="46.72963" lon="-1.98991">
        <ele>4.2</ele>
        <time>2025-01-22T09:30:49.526Z</time>
      </trkpt>
      <trkpt lat="46.72962" lon="-1.98994">
        <ele>4.1</ele>
        <time>2025-01-22T09:30:50.526Z</time>
      </trkpt>
      <trkpt lat="46.72961" lon="-1.98997">
        <ele>4.1</ele>
        <time>2025-01-22T09:30:51.525Z</time>
      </trkpt>
      <trkpt lat="46.72959" lon="-1.99">
        <ele>4</ele>
        <time>2025-01-22T09:30:52.526Z</time>
      </trkpt>
      <trkpt lat="46.72958" lon="-1.99003">
        <ele>4</ele>
        <time>2025-01-22T09:30:53.526Z</time>
      </trkpt>
      <trkpt lat="46.72957" lon="-1.99007">
        <ele>4</ele>
        <time>2025-01-22T09:30:54.525Z</time>
      </trkpt>
      <trkpt lat="46.72956" lon="-1.99009">
        <ele>4</ele>
        <time>2025-01-22T09:30:55.525Z</time>
      </trkpt>
      <trkpt lat="46.72955" lon="-1.99011">
        <ele>4.1</ele>
        <time>2025-01-22T09:30:56.525Z</time>
      </trkpt>
      <trkpt lat="46.72954" lon="-1.99013">
        <ele>4.2</ele>
        <time>2025-01-22T09:30:57.525Z</time>
      </trkpt>
      <trkpt lat="46.72953" lon="-1.99015">
        <ele>4.2</ele>
        <time>2025-01-22T09:30:58.525Z</time>
      </trkpt>
      <trkpt lat="46.72951" lon="-1.99017">
        <ele>4.3</ele>
        <time>2025-01-22T09:30:59.526Z</time>
      </trkpt>
      <trkpt lat="46.7295" lon="-1.99019">
        <ele>4.4</ele>
        <time>2025-01-22T09:31:00.526Z</time>
      </trkpt>
      <trkpt lat="46.72948" lon="-1.99021">
        <ele>4.5</ele>
        <time>2025-01-22T09:31:01.526Z</time>
      </trkpt>
      <trkpt lat="46.72947" lon="-1.99023">
        <ele>4.7</ele>
        <time>2025-01-22T09:31:02.525Z</time>
      </trkpt>
      <trkpt lat="46.72945" lon="-1.99025">
        <ele>4.9</ele>
        <time>2025-01-22T09:31:03.525Z</time>
      </trkpt>
      <trkpt lat="46.72943" lon="-1.99027">
        <ele>4.9</ele>
        <time>2025-01-22T09:31:04.526Z</time>
      </trkpt>
      <trkpt lat="46.72942" lon="-1.99029">
        <ele>4.8</ele>
        <time>2025-01-22T09:31:05.526Z</time>
      </trkpt>
      <trkpt lat="46.7294" lon="-1.99031">
        <ele>4.6</ele>
        <time>2025-01-22T09:31:06.526Z</time>
      </trkpt>
      <trkpt lat="46.72938" lon="-1.99033">
        <ele>4.5</ele>
        <time>2025-01-22T09:31:07.526Z</time>
      </trkpt>
      <trkpt lat="46.72937" lon="-1.99034">
        <ele>4.4</ele>
        <time>2025-01-22T09:31:08.526Z</time>
      </trkpt>
      <trkpt lat="46.72936" lon="-1.99036">
        <ele>4.3</ele>
        <time>2025-01-22T09:31:09.525Z</time>
      </trkpt>
      <trkpt lat="46.72934" lon="-1.99039">
        <ele>4.1</ele>
        <time>2025-01-22T09:31:10.525Z</time>
      </trkpt>
      <trkpt lat="46.72933" lon="-1.9904">
        <ele>4.1</ele>
        <time>2025-01-22T09:31:11.525Z</time>
      </trkpt>
      <trkpt lat="46.72931" lon="-1.99042">
        <ele>4</ele>
        <time>2025-01-22T09:31:12.525Z</time>
      </trkpt>
      <trkpt lat="46.72929" lon="-1.99043">
        <ele>4</ele>
        <time>2025-01-22T09:31:13.526Z</time>
      </trkpt>
      <trkpt lat="46.72927" lon="-1.99044">
        <ele>3.9</ele>
        <time>2025-01-22T09:31:14.526Z</time>
      </trkpt>
      <trkpt lat="46.72924" lon="-1.99046">
        <ele>3.9</ele>
        <time>2025-01-22T09:31:15.526Z</time>
      </trkpt>
      <trkpt lat="46.72922" lon="-1.99047">
        <ele>3.9</ele>
        <time>2025-01-22T09:31:16.526Z</time>
      </trkpt>
      <trkpt lat="46.7292" lon="-1.99049">
        <ele>3.9</ele>
        <time>2025-01-22T09:31:17.526Z</time>
      </trkpt>
      <trkpt lat="46.72919" lon="-1.99051">
        <ele>4</ele>
        <time>2025-01-22T09:31:18.526Z</time>
      </trkpt>
      <trkpt lat="46.72917" lon="-1.99053">
        <ele>4</ele>
        <time>2025-01-22T09:31:19.525Z</time>
      </trkpt>
      <trkpt lat="46.72914" lon="-1.99055">
        <ele>3.9</ele>
        <time>2025-01-22T09:31:20.525Z</time>
      </trkpt>
      <trkpt lat="46.72912" lon="-1.99056">
        <ele>3.8</ele>
        <time>2025-01-22T09:31:21.525Z</time>
      </trkpt>
      <trkpt lat="46.7291" lon="-1.99058">
        <ele>3.7</ele>
        <time>2025-01-22T09:31:22.525Z</time>
      </trkpt>
      <trkpt lat="46.72907" lon="-1.9906">
        <ele>3.6</ele>
        <time>2025-01-22T09:31:23.525Z</time>
      </trkpt>
      <trkpt lat="46.72904" lon="-1.99061">
        <ele>3.5</ele>
        <time>2025-01-22T09:31:24.525Z</time>
      </trkpt>
      <trkpt lat="46.72901" lon="-1.99063">
        <ele>3.5</ele>
        <time>2025-01-22T09:31:25.525Z</time>
      </trkpt>
      <trkpt lat="46.72898" lon="-1.99066">
        <ele>3.5</ele>
        <time>2025-01-22T09:31:26.525Z</time>
      </trkpt>
      <trkpt lat="46.72896" lon="-1.99068">
        <ele>3.5</ele>
        <time>2025-01-22T09:31:27.526Z</time>
      </trkpt>
      <trkpt lat="46.72893" lon="-1.9907">
        <ele>3.5</ele>
        <time>2025-01-22T09:31:28.525Z</time>
      </trkpt>
      <trkpt lat="46.72891" lon="-1.99072">
        <ele>3.6</ele>
        <time>2025-01-22T09:31:29.526Z</time>
      </trkpt>
      <trkpt lat="46.7289" lon="-1.99074">
        <ele>3.6</ele>
        <time>2025-01-22T09:31:30.525Z</time>
      </trkpt>
      <trkpt lat="46.72888" lon="-1.99076">
        <ele>3.7</ele>
        <time>2025-01-22T09:31:31.525Z</time>
      </trkpt>
      <trkpt lat="46.72886" lon="-1.99078">
        <ele>3.8</ele>
        <time>2025-01-22T09:31:32.525Z</time>
      </trkpt>
      <trkpt lat="46.72884" lon="-1.9908">
        <ele>3.9</ele>
        <time>2025-01-22T09:31:33.525Z</time>
      </trkpt>
      <trkpt lat="46.72882" lon="-1.99082">
        <ele>4</ele>
        <time>2025-01-22T09:31:34.526Z</time>
      </trkpt>
      <trkpt lat="46.7288" lon="-1.99084">
        <ele>4</ele>
        <time>2025-01-22T09:31:35.526Z</time>
      </trkpt>
      <trkpt lat="46.72877" lon="-1.99086">
        <ele>4</ele>
        <time>2025-01-22T09:31:36.526Z</time>
      </trkpt>
      <trkpt lat="46.72875" lon="-1.99087">
        <ele>4</ele>
        <time>2025-01-22T09:31:37.526Z</time>
      </trkpt>
      <trkpt lat="46.72873" lon="-1.99088">
        <ele>4</ele>
        <time>2025-01-22T09:31:38.525Z</time>
      </trkpt>
      <trkpt lat="46.7287" lon="-1.9909">
        <ele>4</ele>
        <time>2025-01-22T09:31:39.525Z</time>
      </trkpt>
      <trkpt lat="46.72868" lon="-1.99092">
        <ele>4</ele>
        <time>2025-01-22T09:31:40.525Z</time>
      </trkpt>
      <trkpt lat="46.72866" lon="-1.99094">
        <ele>4</ele>
        <time>2025-01-22T09:31:41.525Z</time>
      </trkpt>
      <trkpt lat="46.72864" lon="-1.99095">
        <ele>4</ele>
        <time>2025-01-22T09:31:42.526Z</time>
      </trkpt>
      <trkpt lat="46.72862" lon="-1.99096">
        <ele>4</ele>
        <time>2025-01-22T09:31:43.525Z</time>
      </trkpt>
      <trkpt lat="46.72859" lon="-1.99096">
        <ele>4</ele>
        <time>2025-01-22T09:31:44.525Z</time>
      </trkpt>
      <trkpt lat="46.72857" lon="-1.99096">
        <ele>4.1</ele>
        <time>2025-01-22T09:31:45.526Z</time>
      </trkpt>
      <trkpt lat="46.72856" lon="-1.99095">
        <ele>4.1</ele>
        <time>2025-01-22T09:31:46.525Z</time>
      </trkpt>
      <trkpt lat="46.72854" lon="-1.99093">
        <ele>4.1</ele>
        <time>2025-01-22T09:31:47.525Z</time>
      </trkpt>
      <trkpt lat="46.72852" lon="-1.99091">
        <ele>4.1</ele>
        <time>2025-01-22T09:31:48.525Z</time>
      </trkpt>
      <trkpt lat="46.72851" lon="-1.99088">
        <ele>4.1</ele>
        <time>2025-01-22T09:31:49.525Z</time>
      </trkpt>
      <trkpt lat="46.72849" lon="-1.99085">
        <ele>4</ele>
        <time>2025-01-22T09:31:50.525Z</time>
      </trkpt>
      <trkpt lat="46.72848" lon="-1.9908">
        <ele>4</ele>
        <time>2025-01-22T09:31:51.525Z</time>
      </trkpt>
      <trkpt lat="46.72847" lon="-1.99075">
        <ele>4</ele>
        <time>2025-01-22T09:31:52.526Z</time>
      </trkpt>
      <trkpt lat="46.72848" lon="-1.99073">
        <ele>4</ele>
        <time>2025-01-22T09:31:53.526Z</time>
      </trkpt>
      <trkpt lat="46.72847" lon="-1.9907">
        <ele>4</ele>
        <time>2025-01-22T09:31:54.526Z</time>
      </trkpt>
      <trkpt lat="46.72846" lon="-1.99067">
        <ele>4</ele>
        <time>2025-01-22T09:31:55.526Z</time>
      </trkpt>
      <trkpt lat="46.72845" lon="-1.99064">
        <ele>4</ele>
        <time>2025-01-22T09:31:56.525Z</time>
      </trkpt>
      <trkpt lat="46.72844" lon="-1.99062">
        <ele>4</ele>
        <time>2025-01-22T09:31:57.525Z</time>
      </trkpt>
      <trkpt lat="46.72843" lon="-1.99059">
        <ele>4</ele>
        <time>2025-01-22T09:31:58.525Z</time>
      </trkpt>
      <trkpt lat="46.72843" lon="-1.99056">
        <ele>4</ele>
        <time>2025-01-22T09:31:59.526Z</time>
      </trkpt>
      <trkpt lat="46.72842" lon="-1.99053">
        <ele>3.9</ele>
        <time>2025-01-22T09:32:00.525Z</time>
      </trkpt>
      <trkpt lat="46.72842" lon="-1.99049">
        <ele>3.8</ele>
        <time>2025-01-22T09:32:01.525Z</time>
      </trkpt>
      <trkpt lat="46.72841" lon="-1.99046">
        <ele>3.6</ele>
        <time>2025-01-22T09:32:02.526Z</time>
      </trkpt>
      <trkpt lat="46.7284" lon="-1.99042">
        <ele>3.5</ele>
        <time>2025-01-22T09:32:03.526Z</time>
      </trkpt>
      <trkpt lat="46.7284" lon="-1.99038">
        <ele>3.4</ele>
        <time>2025-01-22T09:32:04.525Z</time>
      </trkpt>
      <trkpt lat="46.72839" lon="-1.99035">
        <ele>3.3</ele>
        <time>2025-01-22T09:32:05.525Z</time>
      </trkpt>
      <trkpt lat="46.72839" lon="-1.99031">
        <ele>3.1</ele>
        <time>2025-01-22T09:32:06.525Z</time>
      </trkpt>
      <trkpt lat="46.72838" lon="-1.99028">
        <ele>3</ele>
        <time>2025-01-22T09:32:07.525Z</time>
      </trkpt>
      <trkpt lat="46.72838" lon="-1.99024">
        <ele>3</ele>
        <time>2025-01-22T09:32:08.526Z</time>
      </trkpt>
      <trkpt lat="46.72837" lon="-1.99021">
        <ele>3</ele>
        <time>2025-01-22T09:32:09.526Z</time>
      </trkpt>
      <trkpt lat="46.72837" lon="-1.99018">
        <ele>3</ele>
        <time>2025-01-22T09:32:10.526Z</time>
      </trkpt>
      <trkpt lat="46.72836" lon="-1.99014">
        <ele>3</ele>
        <time>2025-01-22T09:32:11.525Z</time>
      </trkpt>
      <trkpt lat="46.72834" lon="-1.9901">
        <ele>3</ele>
        <time>2025-01-22T09:32:12.525Z</time>
      </trkpt>
      <trkpt lat="46.72833" lon="-1.99007">
        <ele>3</ele>
        <time>2025-01-22T09:32:13.525Z</time>
      </trkpt>
      <trkpt lat="46.72832" lon="-1.99004">
        <ele>3</ele>
        <time>2025-01-22T09:32:14.526Z</time>
      </trkpt>
      <trkpt lat="46.72832" lon="-1.99">
        <ele>3.1</ele>
        <time>2025-01-22T09:32:15.526Z</time>
      </trkpt>
      <trkpt lat="46.72831" lon="-1.98997">
        <ele>3.2</ele>
        <time>2025-01-22T09:32:16.525Z</time>
      </trkpt>
      <trkpt lat="46.72831" lon="-1.98995">
        <ele>3.3</ele>
        <time>2025-01-22T09:32:17.526Z</time>
      </trkpt>
      <trkpt lat="46.72831" lon="-1.98993">
        <ele>3.3</ele>
        <time>2025-01-22T09:32:18.526Z</time>
      </trkpt>
      <trkpt lat="46.72831" lon="-1.9899">
        <ele>3.4</ele>
        <time>2025-01-22T09:32:19.525Z</time>
      </trkpt>
      <trkpt lat="46.72831" lon="-1.98989">
        <ele>3.5</ele>
        <time>2025-01-22T09:32:20.525Z</time>
      </trkpt>
      <trkpt lat="46.72831" lon="-1.98987">
        <ele>3.5</ele>
        <time>2025-01-22T09:32:21.525Z</time>
      </trkpt>
      <trkpt lat="46.72831" lon="-1.98984">
        <ele>3.6</ele>
        <time>2025-01-22T09:32:22.526Z</time>
      </trkpt>
      <trkpt lat="46.72831" lon="-1.98982">
        <ele>3.7</ele>
        <time>2025-01-22T09:32:23.526Z</time>
      </trkpt>
      <trkpt lat="46.7283" lon="-1.98979">
        <ele>3.8</ele>
        <time>2025-01-22T09:32:24.526Z</time>
      </trkpt>
      <trkpt lat="46.72831" lon="-1.98977">
        <ele>3.9</ele>
        <time>2025-01-22T09:32:25.525Z</time>
      </trkpt>
      <trkpt lat="46.72831" lon="-1.98974">
        <ele>3.9</ele>
        <time>2025-01-22T09:32:26.525Z</time>
      </trkpt>
      <trkpt lat="46.7283" lon="-1.98973">
        <ele>4</ele>
        <time>2025-01-22T09:32:27.526Z</time>
      </trkpt>
      <trkpt lat="46.7283" lon="-1.9897">
        <ele>4</ele>
        <time>2025-01-22T09:32:28.525Z</time>
      </trkpt>
      <trkpt lat="46.72829" lon="-1.98968">
        <ele>4</ele>
        <time>2025-01-22T09:32:29.525Z</time>
      </trkpt>
      <trkpt lat="46.72828" lon="-1.98965">
        <ele>4.1</ele>
        <time>2025-01-22T09:32:30.525Z</time>
      </trkpt>
      <trkpt lat="46.72827" lon="-1.98962">
        <ele>4.1</ele>
        <time>2025-01-22T09:32:31.525Z</time>
      </trkpt>
      <trkpt lat="46.72826" lon="-1.98958">
        <ele>4.1</ele>
        <time>2025-01-22T09:32:32.525Z</time>
      </trkpt>
      <trkpt lat="46.72826" lon="-1.98954">
        <ele>4.2</ele>
        <time>2025-01-22T09:32:33.526Z</time>
      </trkpt>
      <trkpt lat="46.72825" lon="-1.9895">
        <ele>4.2</ele>
        <time>2025-01-22T09:32:34.526Z</time>
      </trkpt>
      <trkpt lat="46.72824" lon="-1.98946">
        <ele>4.3</ele>
        <time>2025-01-22T09:32:35.526Z</time>
      </trkpt>
      <trkpt lat="46.72824" lon="-1.98941">
        <ele>4.3</ele>
        <time>2025-01-22T09:32:36.525Z</time>
      </trkpt>
      <trkpt lat="46.72825" lon="-1.98937">
        <ele>4.3</ele>
        <time>2025-01-22T09:32:37.525Z</time>
      </trkpt>
      <trkpt lat="46.72826" lon="-1.98933">
        <ele>4.3</ele>
        <time>2025-01-22T09:32:38.525Z</time>
      </trkpt>
      <trkpt lat="46.72827" lon="-1.98929">
        <ele>4.2</ele>
        <time>2025-01-22T09:32:39.525Z</time>
      </trkpt>
      <trkpt lat="46.72828" lon="-1.98925">
        <ele>4.2</ele>
        <time>2025-01-22T09:32:40.526Z</time>
      </trkpt>
      <trkpt lat="46.72829" lon="-1.9892">
        <ele>4.2</ele>
        <time>2025-01-22T09:32:41.526Z</time>
      </trkpt>
      <trkpt lat="46.72827" lon="-1.98916">
        <ele>4.2</ele>
        <time>2025-01-22T09:32:42.526Z</time>
      </trkpt>
      <trkpt lat="46.72826" lon="-1.98912">
        <ele>4.3</ele>
        <time>2025-01-22T09:32:43.525Z</time>
      </trkpt>
      <trkpt lat="46.72824" lon="-1.98908">
        <ele>4.4</ele>
        <time>2025-01-22T09:32:44.526Z</time>
      </trkpt>
      <trkpt lat="46.72823" lon="-1.98905">
        <ele>4.5</ele>
        <time>2025-01-22T09:32:45.526Z</time>
      </trkpt>
      <trkpt lat="46.72822" lon="-1.98902">
        <ele>4.6</ele>
        <time>2025-01-22T09:32:46.525Z</time>
      </trkpt>
      <trkpt lat="46.72821" lon="-1.989">
        <ele>4.7</ele>
        <time>2025-01-22T09:32:47.526Z</time>
      </trkpt>
      <trkpt lat="46.7282" lon="-1.98898">
        <ele>4.8</ele>
        <time>2025-01-22T09:32:48.526Z</time>
      </trkpt>
      <trkpt lat="46.72819" lon="-1.98896">
        <ele>4.9</ele>
        <time>2025-01-22T09:32:49.525Z</time>
      </trkpt>
      <trkpt lat="46.72818" lon="-1.98894">
        <ele>5</ele>
        <time>2025-01-22T09:32:50.526Z</time>
      </trkpt>
      <trkpt lat="46.72817" lon="-1.98892">
        <ele>5.1</ele>
        <time>2025-01-22T09:32:51.525Z</time>
      </trkpt>
      <trkpt lat="46.72815" lon="-1.98889">
        <ele>5.3</ele>
        <time>2025-01-22T09:32:52.525Z</time>
      </trkpt>
      <trkpt lat="46.72814" lon="-1.98886">
        <ele>5.3</ele>
        <time>2025-01-22T09:32:53.525Z</time>
      </trkpt>
      <trkpt lat="46.72813" lon="-1.98883">
        <ele>5.3</ele>
        <time>2025-01-22T09:32:54.525Z</time>
      </trkpt>
      <trkpt lat="46.72812" lon="-1.9888">
        <ele>5.2</ele>
        <time>2025-01-22T09:32:55.525Z</time>
      </trkpt>
      <trkpt lat="46.72811" lon="-1.98877">
        <ele>5.2</ele>
        <time>2025-01-22T09:32:56.526Z</time>
      </trkpt>
      <trkpt lat="46.72811" lon="-1.98873">
        <ele>5.1</ele>
        <time>2025-01-22T09:32:57.525Z</time>
      </trkpt>
      <trkpt lat="46.72811" lon="-1.9887">
        <ele>5</ele>
        <time>2025-01-22T09:32:58.525Z</time>
      </trkpt>
      <trkpt lat="46.7281" lon="-1.98866">
        <ele>4.9</ele>
        <time>2025-01-22T09:32:59.525Z</time>
      </trkpt>
      <trkpt lat="46.72809" lon="-1.98863">
        <ele>4.8</ele>
        <time>2025-01-22T09:33:00.526Z</time>
      </trkpt>
      <trkpt lat="46.72807" lon="-1.9886">
        <ele>4.8</ele>
        <time>2025-01-22T09:33:01.526Z</time>
      </trkpt>
      <trkpt lat="46.72806" lon="-1.98857">
        <ele>4.8</ele>
        <time>2025-01-22T09:33:02.525Z</time>
      </trkpt>
      <trkpt lat="46.72804" lon="-1.98853">
        <ele>4.8</ele>
        <time>2025-01-22T09:33:03.525Z</time>
      </trkpt>
      <trkpt lat="46.72802" lon="-1.9885">
        <ele>4.8</ele>
        <time>2025-01-22T09:33:04.525Z</time>
      </trkpt>
      <trkpt lat="46.72801" lon="-1.98846">
        <ele>4.8</ele>
        <time>2025-01-22T09:33:05.525Z</time>
      </trkpt>
      <trkpt lat="46.728" lon="-1.98842">
        <ele>4.7</ele>
        <time>2025-01-22T09:33:06.525Z</time>
      </trkpt>
      <trkpt lat="46.72799" lon="-1.98837">
        <ele>4.7</ele>
        <time>2025-01-22T09:33:07.525Z</time>
      </trkpt>
      <trkpt lat="46.72797" lon="-1.98834">
        <ele>4.6</ele>
        <time>2025-01-22T09:33:08.525Z</time>
      </trkpt>
      <trkpt lat="46.72795" lon="-1.98829">
        <ele>4.6</ele>
        <time>2025-01-22T09:33:09.525Z</time>
      </trkpt>
      <trkpt lat="46.72794" lon="-1.98826">
        <ele>4.6</ele>
        <time>2025-01-22T09:33:10.525Z</time>
      </trkpt>
      <trkpt lat="46.72793" lon="-1.98824">
        <ele>4.6</ele>
        <time>2025-01-22T09:33:11.526Z</time>
      </trkpt>
      <trkpt lat="46.72791" lon="-1.98821">
        <ele>4.6</ele>
        <time>2025-01-22T09:33:12.526Z</time>
      </trkpt>
      <trkpt lat="46.7279" lon="-1.98819">
        <ele>4.5</ele>
        <time>2025-01-22T09:33:13.525Z</time>
      </trkpt>
      <trkpt lat="46.72789" lon="-1.98816">
        <ele>4.4</ele>
        <time>2025-01-22T09:33:14.525Z</time>
      </trkpt>
      <trkpt lat="46.72789" lon="-1.98814">
        <ele>4.3</ele>
        <time>2025-01-22T09:33:15.525Z</time>
      </trkpt>
      <trkpt lat="46.72789" lon="-1.98811">
        <ele>4.2</ele>
        <time>2025-01-22T09:33:16.525Z</time>
      </trkpt>
      <trkpt lat="46.72789" lon="-1.9881">
        <ele>4.2</ele>
        <time>2025-01-22T09:33:17.526Z</time>
      </trkpt>
      <trkpt lat="46.7279" lon="-1.98808">
        <ele>4.1</ele>
        <time>2025-01-22T09:33:18.525Z</time>
      </trkpt>
      <trkpt lat="46.72791" lon="-1.98805">
        <ele>4</ele>
        <time>2025-01-22T09:33:19.526Z</time>
      </trkpt>
      <trkpt lat="46.72792" lon="-1.98802">
        <ele>4.1</ele>
        <time>2025-01-22T09:33:20.525Z</time>
      </trkpt>
      <trkpt lat="46.72793" lon="-1.988">
        <ele>4.1</ele>
        <time>2025-01-22T09:33:21.525Z</time>
      </trkpt>
      <trkpt lat="46.72794" lon="-1.98797">
        <ele>4.1</ele>
        <time>2025-01-22T09:33:22.526Z</time>
      </trkpt>
      <trkpt lat="46.72796" lon="-1.98795">
        <ele>4</ele>
        <time>2025-01-22T09:33:23.525Z</time>
      </trkpt>
      <trkpt lat="46.72797" lon="-1.98792">
        <ele>3.9</ele>
        <time>2025-01-22T09:33:24.526Z</time>
      </trkpt>
      <trkpt lat="46.72799" lon="-1.98789">
        <ele>3.8</ele>
        <time>2025-01-22T09:33:25.526Z</time>
      </trkpt>
      <trkpt lat="46.72801" lon="-1.98787">
        <ele>3.7</ele>
        <time>2025-01-22T09:33:26.526Z</time>
      </trkpt>
      <trkpt lat="46.72802" lon="-1.98785">
        <ele>3.6</ele>
        <time>2025-01-22T09:33:27.526Z</time>
      </trkpt>
      <trkpt lat="46.72802" lon="-1.98783">
        <ele>3.5</ele>
        <time>2025-01-22T09:33:28.526Z</time>
      </trkpt>
      <trkpt lat="46.72802" lon="-1.9878">
        <ele>3.4</ele>
        <time>2025-01-22T09:33:29.525Z</time>
      </trkpt>
      <trkpt lat="46.72803" lon="-1.98777">
        <ele>3.4</ele>
        <time>2025-01-22T09:33:30.525Z</time>
      </trkpt>
      <trkpt lat="46.72804" lon="-1.98773">
        <ele>3.4</ele>
        <time>2025-01-22T09:33:31.525Z</time>
      </trkpt>
      <trkpt lat="46.72804" lon="-1.9877">
        <ele>3.5</ele>
        <time>2025-01-22T09:33:32.525Z</time>
      </trkpt>
      <trkpt lat="46.72805" lon="-1.98766">
        <ele>3.5</ele>
        <time>2025-01-22T09:33:33.526Z</time>
      </trkpt>
      <trkpt lat="46.72807" lon="-1.98762">
        <ele>3.5</ele>
        <time>2025-01-22T09:33:34.526Z</time>
      </trkpt>
      <trkpt lat="46.72809" lon="-1.98758">
        <ele>3.6</ele>
        <time>2025-01-22T09:33:35.526Z</time>
      </trkpt>
      <trkpt lat="46.72809" lon="-1.98754">
        <ele>3.8</ele>
        <time>2025-01-22T09:33:36.526Z</time>
      </trkpt>
      <trkpt lat="46.7281" lon="-1.98749">
        <ele>3.9</ele>
        <time>2025-01-22T09:33:37.526Z</time>
      </trkpt>
      <trkpt lat="46.72811" lon="-1.98746">
        <ele>4.1</ele>
        <time>2025-01-22T09:33:38.525Z</time>
      </trkpt>
      <trkpt lat="46.72812" lon="-1.98743">
        <ele>4.2</ele>
        <time>2025-01-22T09:33:39.525Z</time>
      </trkpt>
      <trkpt lat="46.72813" lon="-1.9874">
        <ele>4.4</ele>
        <time>2025-01-22T09:33:40.525Z</time>
      </trkpt>
      <trkpt lat="46.72814" lon="-1.98737">
        <ele>4.5</ele>
        <time>2025-01-22T09:33:41.525Z</time>
      </trkpt>
      <trkpt lat="46.72815" lon="-1.98736">
        <ele>4.5</ele>
        <time>2025-01-22T09:33:42.526Z</time>
      </trkpt>
      <trkpt lat="46.72816" lon="-1.98733">
        <ele>4.6</ele>
        <time>2025-01-22T09:33:43.526Z</time>
      </trkpt>
      <trkpt lat="46.72816" lon="-1.98731">
        <ele>4.7</ele>
        <time>2025-01-22T09:33:44.525Z</time>
      </trkpt>
      <trkpt lat="46.72817" lon="-1.98731">
        <ele>4.7</ele>
        <time>2025-01-22T09:33:45.525Z</time>
      </trkpt>
      <trkpt lat="46.72818" lon="-1.98729">
        <ele>4.7</ele>
        <time>2025-01-22T09:33:46.525Z</time>
      </trkpt>
      <trkpt lat="46.7282" lon="-1.98729">
        <ele>4.7</ele>
        <time>2025-01-22T09:33:47.525Z</time>
      </trkpt>
      <trkpt lat="46.7282" lon="-1.98728">
        <ele>4.6</ele>
        <time>2025-01-22T09:33:48.525Z</time>
      </trkpt>
      <trkpt lat="46.72822" lon="-1.98727">
        <ele>4.6</ele>
        <time>2025-01-22T09:33:49.526Z</time>
      </trkpt>
      <trkpt lat="46.72823" lon="-1.98726">
        <ele>4.6</ele>
        <time>2025-01-22T09:33:50.526Z</time>
      </trkpt>
      <trkpt lat="46.72824" lon="-1.98724">
        <ele>4.6</ele>
        <time>2025-01-22T09:33:51.526Z</time>
      </trkpt>
      <trkpt lat="46.72825" lon="-1.98721">
        <ele>4.6</ele>
        <time>2025-01-22T09:33:52.525Z</time>
      </trkpt>
      <trkpt lat="46.72827" lon="-1.98718">
        <ele>4.6</ele>
        <time>2025-01-22T09:33:53.525Z</time>
      </trkpt>
      <trkpt lat="46.72829" lon="-1.98714">
        <ele>4.5</ele>
        <time>2025-01-22T09:33:54.526Z</time>
      </trkpt>
      <trkpt lat="46.72833" lon="-1.98709">
        <ele>4.1</ele>
        <time>2025-01-22T09:33:55.526Z</time>
      </trkpt>
      <trkpt lat="46.72835" lon="-1.98706">
        <ele>3.9</ele>
        <time>2025-01-22T09:33:56.526Z</time>
      </trkpt>
      <trkpt lat="46.72838" lon="-1.98704">
        <ele>3.9</ele>
        <time>2025-01-22T09:33:57.526Z</time>
      </trkpt>
      <trkpt lat="46.7284" lon="-1.98702">
        <ele>3.8</ele>
        <time>2025-01-22T09:33:58.526Z</time>
      </trkpt>
      <trkpt lat="46.72842" lon="-1.98701">
        <ele>3.7</ele>
        <time>2025-01-22T09:33:59.525Z</time>
      </trkpt>
      <trkpt lat="46.72844" lon="-1.98699">
        <ele>3.6</ele>
        <time>2025-01-22T09:34:00.525Z</time>
      </trkpt>
      <trkpt lat="46.72846" lon="-1.98698">
        <ele>3.5</ele>
        <time>2025-01-22T09:34:01.526Z</time>
      </trkpt>
      <trkpt lat="46.72848" lon="-1.98696">
        <ele>3.5</ele>
        <time>2025-01-22T09:34:02.526Z</time>
      </trkpt>
      <trkpt lat="46.7285" lon="-1.98695">
        <ele>3.4</ele>
        <time>2025-01-22T09:34:03.526Z</time>
      </trkpt>
      <trkpt lat="46.72852" lon="-1.98694">
        <ele>3.4</ele>
        <time>2025-01-22T09:34:04.525Z</time>
      </trkpt>
      <trkpt lat="46.72854" lon="-1.98692">
        <ele>3.5</ele>
        <time>2025-01-22T09:34:05.525Z</time>
      </trkpt>
      <trkpt lat="46.72855" lon="-1.9869">
        <ele>3.7</ele>
        <time>2025-01-22T09:34:06.525Z</time>
      </trkpt>
      <trkpt lat="46.72856" lon="-1.98687">
        <ele>4</ele>
        <time>2025-01-22T09:34:07.526Z</time>
      </trkpt>
      <trkpt lat="46.72857" lon="-1.98684">
        <ele>4.3</ele>
        <time>2025-01-22T09:34:08.525Z</time>
      </trkpt>
      <trkpt lat="46.72859" lon="-1.98681">
        <ele>4.6</ele>
        <time>2025-01-22T09:34:09.526Z</time>
      </trkpt>
      <trkpt lat="46.72861" lon="-1.98678">
        <ele>4.8</ele>
        <time>2025-01-22T09:34:10.526Z</time>
      </trkpt>
      <trkpt lat="46.72863" lon="-1.98676">
        <ele>5.1</ele>
        <time>2025-01-22T09:34:11.525Z</time>
      </trkpt>
      <trkpt lat="46.72864" lon="-1.98674">
        <ele>5.5</ele>
        <time>2025-01-22T09:34:12.525Z</time>
      </trkpt>
      <trkpt lat="46.72865" lon="-1.98672">
        <ele>5.8</ele>
        <time>2025-01-22T09:34:13.525Z</time>
      </trkpt>
      <trkpt lat="46.72865" lon="-1.9867">
        <ele>6.1</ele>
        <time>2025-01-22T09:34:14.525Z</time>
      </trkpt>
      <trkpt lat="46.72865" lon="-1.98668">
        <ele>6.3</ele>
        <time>2025-01-22T09:34:15.526Z</time>
      </trkpt>
      <trkpt lat="46.72866" lon="-1.98666">
        <ele>6.7</ele>
        <time>2025-01-22T09:34:16.525Z</time>
      </trkpt>
      <trkpt lat="46.72866" lon="-1.98664">
        <ele>7.2</ele>
        <time>2025-01-22T09:34:17.526Z</time>
      </trkpt>
      <trkpt lat="46.72868" lon="-1.98663">
        <ele>7.6</ele>
        <time>2025-01-22T09:34:18.525Z</time>
      </trkpt>
      <trkpt lat="46.72869" lon="-1.98661">
        <ele>8</ele>
        <time>2025-01-22T09:34:19.525Z</time>
      </trkpt>
      <trkpt lat="46.72871" lon="-1.98659">
        <ele>8.4</ele>
        <time>2025-01-22T09:34:20.526Z</time>
      </trkpt>
      <trkpt lat="46.72872" lon="-1.98658">
        <ele>8.8</ele>
        <time>2025-01-22T09:34:21.526Z</time>
      </trkpt>
      <trkpt lat="46.72873" lon="-1.98657">
        <ele>9</ele>
        <time>2025-01-22T09:34:22.526Z</time>
      </trkpt>
      <trkpt lat="46.72873" lon="-1.98656">
        <ele>9.1</ele>
        <time>2025-01-22T09:34:23.526Z</time>
      </trkpt>
      <trkpt lat="46.72874" lon="-1.98656">
        <ele>9.2</ele>
        <time>2025-01-22T09:34:24.526Z</time>
      </trkpt>
      <trkpt lat="46.72874" lon="-1.98655">
        <ele>9.3</ele>
        <time>2025-01-22T09:34:25.525Z</time>
      </trkpt>
      <trkpt lat="46.72874" lon="-1.98655">
        <ele>9.4</ele>
        <time>2025-01-22T09:34:26.525Z</time>
      </trkpt>
      <trkpt lat="46.72874" lon="-1.98653">
        <ele>9.7</ele>
        <time>2025-01-22T09:34:27.525Z</time>
      </trkpt>
      <trkpt lat="46.72874" lon="-1.98653">
        <ele>9.8</ele>
        <time>2025-01-22T09:34:28.525Z</time>
      </trkpt>
      <trkpt lat="46.72875" lon="-1.98652">
        <ele>9.9</ele>
        <time>2025-01-22T09:34:29.525Z</time>
      </trkpt>
      <trkpt lat="46.72874" lon="-1.98651">
        <ele>10.1</ele>
        <time>2025-01-22T09:34:30.526Z</time>
      </trkpt>
      <trkpt lat="46.72875" lon="-1.98651">
        <ele>10.1</ele>
        <time>2025-01-22T09:34:31.526Z</time>
      </trkpt>
      <trkpt lat="46.72874" lon="-1.9865">
        <ele>10.2</ele>
        <time>2025-01-22T09:34:32.526Z</time>
      </trkpt>
      <trkpt lat="46.72875" lon="-1.9865">
        <ele>10.2</ele>
        <time>2025-01-22T09:34:33.525Z</time>
      </trkpt>
      <trkpt lat="46.72875" lon="-1.9865">
        <ele>10.2</ele>
        <time>2025-01-22T09:34:34.525Z</time>
      </trkpt>
      <trkpt lat="46.72876" lon="-1.98648">
        <ele>10.5</ele>
        <time>2025-01-22T09:34:35.525Z</time>
      </trkpt>
      <trkpt lat="46.72876" lon="-1.98647">
        <ele>10.7</ele>
        <time>2025-01-22T09:34:36.525Z</time>
      </trkpt>
      <trkpt lat="46.72876" lon="-1.98646">
        <ele>10.9</ele>
        <time>2025-01-22T09:34:37.525Z</time>
      </trkpt>
      <trkpt lat="46.72875" lon="-1.98644">
        <ele>11.2</ele>
        <time>2025-01-22T09:34:38.526Z</time>
      </trkpt>
      <trkpt lat="46.72875" lon="-1.98642">
        <ele>11.5</ele>
        <time>2025-01-22T09:34:39.526Z</time>
      </trkpt>
      <trkpt lat="46.72874" lon="-1.98641">
        <ele>11.7</ele>
        <time>2025-01-22T09:34:40.526Z</time>
      </trkpt>
      <trkpt lat="46.72874" lon="-1.98639">
        <ele>12</ele>
        <time>2025-01-22T09:34:41.526Z</time>
      </trkpt>
      <trkpt lat="46.72874" lon="-1.98638">
        <ele>12.1</ele>
        <time>2025-01-22T09:34:42.525Z</time>
      </trkpt>
      <trkpt lat="46.72874" lon="-1.98636">
        <ele>12</ele>
        <time>2025-01-22T09:34:43.525Z</time>
      </trkpt>
      <trkpt lat="46.72873" lon="-1.98635">
        <ele>12</ele>
        <time>2025-01-22T09:34:44.525Z</time>
      </trkpt>
      <trkpt lat="46.72873" lon="-1.98634">
        <ele>12</ele>
        <time>2025-01-22T09:34:45.526Z</time>
      </trkpt>
      <trkpt lat="46.72874" lon="-1.98632">
        <ele>11.9</ele>
        <time>2025-01-22T09:34:46.526Z</time>
      </trkpt>
      <trkpt lat="46.72874" lon="-1.98632">
        <ele>11.8</ele>
        <time>2025-01-22T09:34:47.526Z</time>
      </trkpt>
      <trkpt lat="46.72874" lon="-1.98631">
        <ele>11.8</ele>
        <time>2025-01-22T09:34:48.526Z</time>
      </trkpt>
      <trkpt lat="46.72875" lon="-1.9863">
        <ele>11.7</ele>
        <time>2025-01-22T09:34:49.526Z</time>
      </trkpt>
      <trkpt lat="46.72874" lon="-1.98632">
        <ele>11.8</ele>
        <time>2025-01-22T09:34:50.525Z</time>
      </trkpt>
      <trkpt lat="46.72874" lon="-1.98634">
        <ele>11.9</ele>
        <time>2025-01-22T09:34:51.525Z</time>
      </trkpt>
      <trkpt lat="46.72873" lon="-1.98635">
        <ele>12</ele>
        <time>2025-01-22T09:34:52.525Z</time>
      </trkpt>
      <trkpt lat="46.72873" lon="-1.98635">
        <ele>12.1</ele>
        <time>2025-01-22T09:34:53.525Z</time>
      </trkpt>
      <trkpt lat="46.72872" lon="-1.98634">
        <ele>12.1</ele>
        <time>2025-01-22T09:34:54.526Z</time>
      </trkpt>
      <trkpt lat="46.72872" lon="-1.98634">
        <ele>12.1</ele>
        <time>2025-01-22T09:34:55.525Z</time>
      </trkpt>
      <trkpt lat="46.72872" lon="-1.98633">
        <ele>12</ele>
        <time>2025-01-22T09:34:56.525Z</time>
      </trkpt>
      <trkpt lat="46.72872" lon="-1.98632">
        <ele>12</ele>
        <time>2025-01-22T09:34:57.525Z</time>
      </trkpt>
      <trkpt lat="46.72872" lon="-1.98631">
        <ele>12</ele>
        <time>2025-01-22T09:34:58.525Z</time>
      </trkpt>
      <trkpt lat="46.72873" lon="-1.98629">
        <ele>11.8</ele>
        <time>2025-01-22T09:34:59.526Z</time>
      </trkpt>
      <trkpt lat="46.72874" lon="-1.98628">
        <ele>11.7</ele>
        <time>2025-01-22T09:35:00.526Z</time>
      </trkpt>
      <trkpt lat="46.72875" lon="-1.98626">
        <ele>11.6</ele>
        <time>2025-01-22T09:35:01.526Z</time>
      </trkpt>
      <trkpt lat="46.72875" lon="-1.98625">
        <ele>11.5</ele>
        <time>2025-01-22T09:35:02.526Z</time>
      </trkpt>
      <trkpt lat="46.72876" lon="-1.98624">
        <ele>11.4</ele>
        <time>2025-01-22T09:35:03.526Z</time>
      </trkpt>
      <trkpt lat="46.72876" lon="-1.98623">
        <ele>11.3</ele>
        <time>2025-01-22T09:35:04.526Z</time>
      </trkpt>
      <trkpt lat="46.72877" lon="-1.98622">
        <ele>11.2</ele>
        <time>2025-01-22T09:35:05.525Z</time>
      </trkpt>
      <trkpt lat="46.72877" lon="-1.98622">
        <ele>11.2</ele>
        <time>2025-01-22T09:35:06.525Z</time>
      </trkpt>
      <trkpt lat="46.72877" lon="-1.98621">
        <ele>11.1</ele>
        <time>2025-01-22T09:35:07.525Z</time>
      </trkpt>
      <trkpt lat="46.72876" lon="-1.98619">
        <ele>11.1</ele>
        <time>2025-01-22T09:35:08.526Z</time>
      </trkpt>
      <trkpt lat="46.72875" lon="-1.98617">
        <ele>11.2</ele>
        <time>2025-01-22T09:35:09.525Z</time>
      </trkpt>
      <trkpt lat="46.72873" lon="-1.98615">
        <ele>11.4</ele>
        <time>2025-01-22T09:35:10.526Z</time>
      </trkpt>
      <trkpt lat="46.72872" lon="-1.98613">
        <ele>11.5</ele>
        <time>2025-01-22T09:35:11.525Z</time>
      </trkpt>
      <trkpt lat="46.72871" lon="-1.98611">
        <ele>11.6</ele>
        <time>2025-01-22T09:35:12.525Z</time>
      </trkpt>
      <trkpt lat="46.7287" lon="-1.9861">
        <ele>11.5</ele>
        <time>2025-01-22T09:35:13.526Z</time>
      </trkpt>
      <trkpt lat="46.72869" lon="-1.98608">
        <ele>11.4</ele>
        <time>2025-01-22T09:35:14.525Z</time>
      </trkpt>
      <trkpt lat="46.72869" lon="-1.98606">
        <ele>11.1</ele>
        <time>2025-01-22T09:35:15.526Z</time>
      </trkpt>
      <trkpt lat="46.72868" lon="-1.98604">
        <ele>10.9</ele>
        <time>2025-01-22T09:35:16.526Z</time>
      </trkpt>
      <trkpt lat="46.72868" lon="-1.98601">
        <ele>10.6</ele>
        <time>2025-01-22T09:35:17.525Z</time>
      </trkpt>
      <trkpt lat="46.72868" lon="-1.98598">
        <ele>10.1</ele>
        <time>2025-01-22T09:35:18.526Z</time>
      </trkpt>
      <trkpt lat="46.72868" lon="-1.98595">
        <ele>9.7</ele>
        <time>2025-01-22T09:35:19.525Z</time>
      </trkpt>
      <trkpt lat="46.72867" lon="-1.98592">
        <ele>9.3</ele>
        <time>2025-01-22T09:35:20.525Z</time>
      </trkpt>
      <trkpt lat="46.72867" lon="-1.98589">
        <ele>8.9</ele>
        <time>2025-01-22T09:35:21.526Z</time>
      </trkpt>
      <trkpt lat="46.72867" lon="-1.98587">
        <ele>8.5</ele>
        <time>2025-01-22T09:35:22.526Z</time>
      </trkpt>
      <trkpt lat="46.72867" lon="-1.98583">
        <ele>8</ele>
        <time>2025-01-22T09:35:23.526Z</time>
      </trkpt>
      <trkpt lat="46.72866" lon="-1.9858">
        <ele>7.9</ele>
        <time>2025-01-22T09:35:24.526Z</time>
      </trkpt>
      <trkpt lat="46.72867" lon="-1.98576">
        <ele>7.7</ele>
        <time>2025-01-22T09:35:25.525Z</time>
      </trkpt>
      <trkpt lat="46.72866" lon="-1.98571">
        <ele>7.5</ele>
        <time>2025-01-22T09:35:26.525Z</time>
      </trkpt>
      <trkpt lat="46.72866" lon="-1.98569">
        <ele>7.4</ele>
        <time>2025-01-22T09:35:27.525Z</time>
      </trkpt>
      <trkpt lat="46.72866" lon="-1.98566">
        <ele>7.3</ele>
        <time>2025-01-22T09:35:28.525Z</time>
      </trkpt>
      <trkpt lat="46.72866" lon="-1.98564">
        <ele>7.2</ele>
        <time>2025-01-22T09:35:29.526Z</time>
      </trkpt>
      <trkpt lat="46.72865" lon="-1.98562">
        <ele>7</ele>
        <time>2025-01-22T09:35:30.525Z</time>
      </trkpt>
      <trkpt lat="46.72864" lon="-1.9856">
        <ele>6.8</ele>
        <time>2025-01-22T09:35:31.526Z</time>
      </trkpt>
      <trkpt lat="46.72863" lon="-1.98557">
        <ele>6.5</ele>
        <time>2025-01-22T09:35:32.525Z</time>
      </trkpt>
      <trkpt lat="46.72863" lon="-1.98555">
        <ele>6.4</ele>
        <time>2025-01-22T09:35:33.525Z</time>
      </trkpt>
      <trkpt lat="46.72863" lon="-1.98553">
        <ele>6.2</ele>
        <time>2025-01-22T09:35:34.526Z</time>
      </trkpt>
      <trkpt lat="46.72863" lon="-1.98553">
        <ele>6.2</ele>
        <time>2025-01-22T09:35:35.525Z</time>
      </trkpt>
      <trkpt lat="46.72862" lon="-1.98552">
        <ele>6</ele>
        <time>2025-01-22T09:35:36.525Z</time>
      </trkpt>
      <trkpt lat="46.72863" lon="-1.98549">
        <ele>6</ele>
        <time>2025-01-22T09:35:37.525Z</time>
      </trkpt>
      <trkpt lat="46.72863" lon="-1.98547">
        <ele>5.9</ele>
        <time>2025-01-22T09:35:38.525Z</time>
      </trkpt>
      <trkpt lat="46.72864" lon="-1.98543">
        <ele>6</ele>
        <time>2025-01-22T09:35:39.526Z</time>
      </trkpt>
      <trkpt lat="46.72865" lon="-1.98541">
        <ele>6.1</ele>
        <time>2025-01-22T09:35:40.526Z</time>
      </trkpt>
      <trkpt lat="46.72866" lon="-1.98538">
        <ele>6.2</ele>
        <time>2025-01-22T09:35:41.526Z</time>
      </trkpt>
      <trkpt lat="46.72868" lon="-1.98535">
        <ele>6.3</ele>
        <time>2025-01-22T09:35:42.526Z</time>
      </trkpt>
      <trkpt lat="46.72869" lon="-1.98534">
        <ele>6.4</ele>
        <time>2025-01-22T09:35:43.526Z</time>
      </trkpt>
      <trkpt lat="46.72869" lon="-1.98533">
        <ele>6.4</ele>
        <time>2025-01-22T09:35:44.525Z</time>
      </trkpt>
      <trkpt lat="46.7287" lon="-1.98532">
        <ele>6.4</ele>
        <time>2025-01-22T09:35:45.525Z</time>
      </trkpt>
      <trkpt lat="46.7287" lon="-1.98531">
        <ele>6.4</ele>
        <time>2025-01-22T09:35:46.525Z</time>
      </trkpt>
      <trkpt lat="46.72871" lon="-1.9853">
        <ele>6.4</ele>
        <time>2025-01-22T09:35:47.525Z</time>
      </trkpt>
      <trkpt lat="46.72871" lon="-1.98527">
        <ele>6.4</ele>
        <time>2025-01-22T09:35:48.526Z</time>
      </trkpt>
      <trkpt lat="46.72872" lon="-1.98525">
        <ele>6.4</ele>
        <time>2025-01-22T09:35:49.526Z</time>
      </trkpt>
      <trkpt lat="46.72873" lon="-1.98521">
        <ele>6.4</ele>
        <time>2025-01-22T09:35:50.525Z</time>
      </trkpt>
      <trkpt lat="46.72874" lon="-1.98518">
        <ele>6.3</ele>
        <time>2025-01-22T09:35:51.525Z</time>
      </trkpt>
      <trkpt lat="46.72874" lon="-1.98514">
        <ele>6.2</ele>
        <time>2025-01-22T09:35:52.525Z</time>
      </trkpt>
      <trkpt lat="46.72875" lon="-1.98511">
        <ele>6.1</ele>
        <time>2025-01-22T09:35:53.525Z</time>
      </trkpt>
      <trkpt lat="46.72875" lon="-1.98507">
        <ele>5.9</ele>
        <time>2025-01-22T09:35:54.526Z</time>
      </trkpt>
      <trkpt lat="46.72876" lon="-1.98504">
        <ele>5.7</ele>
        <time>2025-01-22T09:35:55.526Z</time>
      </trkpt>
      <trkpt lat="46.72877" lon="-1.98501">
        <ele>5.6</ele>
        <time>2025-01-22T09:35:56.526Z</time>
      </trkpt>
      <trkpt lat="46.72879" lon="-1.98498">
        <ele>5.8</ele>
        <time>2025-01-22T09:35:57.525Z</time>
      </trkpt>
      <trkpt lat="46.72881" lon="-1.98495">
        <ele>6</ele>
        <time>2025-01-22T09:35:58.525Z</time>
      </trkpt>
      <trkpt lat="46.72883" lon="-1.98492">
        <ele>6.3</ele>
        <time>2025-01-22T09:35:59.526Z</time>
      </trkpt>
      <trkpt lat="46.72885" lon="-1.98488">
        <ele>6.5</ele>
        <time>2025-01-22T09:36:00.525Z</time>
      </trkpt>
      <trkpt lat="46.72887" lon="-1.98485">
        <ele>6.6</ele>
        <time>2025-01-22T09:36:01.526Z</time>
      </trkpt>
      <trkpt lat="46.72889" lon="-1.98481">
        <ele>6.7</ele>
        <time>2025-01-22T09:36:02.526Z</time>
      </trkpt>
      <trkpt lat="46.72891" lon="-1.98476">
        <ele>7.1</ele>
        <time>2025-01-22T09:36:03.526Z</time>
      </trkpt>
      <trkpt lat="46.72894" lon="-1.98471">
        <ele>7.5</ele>
        <time>2025-01-22T09:36:04.526Z</time>
      </trkpt>
      <trkpt lat="46.72896" lon="-1.98466">
        <ele>7.9</ele>
        <time>2025-01-22T09:36:05.525Z</time>
      </trkpt>
      <trkpt lat="46.72899" lon="-1.9846">
        <ele>8.4</ele>
        <time>2025-01-22T09:36:06.526Z</time>
      </trkpt>
      <trkpt lat="46.72902" lon="-1.98455">
        <ele>9</ele>
        <time>2025-01-22T09:36:07.526Z</time>
      </trkpt>
      <trkpt lat="46.72905" lon="-1.98448">
        <ele>9.7</ele>
        <time>2025-01-22T09:36:08.526Z</time>
      </trkpt>
      <trkpt lat="46.72906" lon="-1.98441">
        <ele>9.7</ele>
        <time>2025-01-22T09:36:09.526Z</time>
      </trkpt>
      <trkpt lat="46.72905" lon="-1.98436">
        <ele>9.3</ele>
        <time>2025-01-22T09:36:10.525Z</time>
      </trkpt>
      <trkpt lat="46.72904" lon="-1.98431">
        <ele>8.7</ele>
        <time>2025-01-22T09:36:11.525Z</time>
      </trkpt>
      <trkpt lat="46.72903" lon="-1.98426">
        <ele>8.2</ele>
        <time>2025-01-22T09:36:12.525Z</time>
      </trkpt>
      <trkpt lat="46.72902" lon="-1.9842">
        <ele>7.7</ele>
        <time>2025-01-22T09:36:13.525Z</time>
      </trkpt>
      <trkpt lat="46.72902" lon="-1.98415">
        <ele>7.3</ele>
        <time>2025-01-22T09:36:14.526Z</time>
      </trkpt>
      <trkpt lat="46.72901" lon="-1.9841">
        <ele>7</ele>
        <time>2025-01-22T09:36:15.526Z</time>
      </trkpt>
      <trkpt lat="46.72899" lon="-1.98406">
        <ele>6.7</ele>
        <time>2025-01-22T09:36:16.526Z</time>
      </trkpt>
      <trkpt lat="46.72898" lon="-1.98403">
        <ele>6.5</ele>
        <time>2025-01-22T09:36:17.525Z</time>
      </trkpt>
      <trkpt lat="46.72897" lon="-1.984">
        <ele>6.4</ele>
        <time>2025-01-22T09:36:18.525Z</time>
      </trkpt>
      <trkpt lat="46.72896" lon="-1.98397">
        <ele>6.2</ele>
        <time>2025-01-22T09:36:19.525Z</time>
      </trkpt>
      <trkpt lat="46.72893" lon="-1.98392">
        <ele>6</ele>
        <time>2025-01-22T09:36:20.526Z</time>
      </trkpt>
      <trkpt lat="46.7289" lon="-1.98387">
        <ele>5.9</ele>
        <time>2025-01-22T09:36:21.526Z</time>
      </trkpt>
      <trkpt lat="46.72887" lon="-1.98383">
        <ele>5.8</ele>
        <time>2025-01-22T09:36:22.526Z</time>
      </trkpt>
      <trkpt lat="46.72884" lon="-1.98381">
        <ele>5.7</ele>
        <time>2025-01-22T09:36:23.526Z</time>
      </trkpt>
      <trkpt lat="46.7288" lon="-1.98379">
        <ele>5.6</ele>
        <time>2025-01-22T09:36:24.526Z</time>
      </trkpt>
      <trkpt lat="46.72876" lon="-1.98376">
        <ele>5.5</ele>
        <time>2025-01-22T09:36:25.525Z</time>
      </trkpt>
      <trkpt lat="46.72871" lon="-1.98373">
        <ele>5.4</ele>
        <time>2025-01-22T09:36:26.525Z</time>
      </trkpt>
      <trkpt lat="46.72866" lon="-1.98371">
        <ele>5.4</ele>
        <time>2025-01-22T09:36:27.525Z</time>
      </trkpt>
      <trkpt lat="46.72864" lon="-1.98369">
        <ele>5.3</ele>
        <time>2025-01-22T09:36:28.525Z</time>
      </trkpt>
      <trkpt lat="46.72862" lon="-1.98369">
        <ele>5.3</ele>
        <time>2025-01-22T09:36:29.525Z</time>
      </trkpt>
      <trkpt lat="46.72859" lon="-1.98367">
        <ele>5.2</ele>
        <time>2025-01-22T09:36:30.525Z</time>
      </trkpt>
      <trkpt lat="46.72857" lon="-1.98367">
        <ele>5.2</ele>
        <time>2025-01-22T09:36:31.525Z</time>
      </trkpt>
      <trkpt lat="46.72854" lon="-1.98367">
        <ele>5.2</ele>
        <time>2025-01-22T09:36:32.525Z</time>
      </trkpt>
      <trkpt lat="46.72851" lon="-1.98367">
        <ele>5.2</ele>
        <time>2025-01-22T09:36:33.525Z</time>
      </trkpt>
      <trkpt lat="46.72849" lon="-1.98366">
        <ele>5.2</ele>
        <time>2025-01-22T09:36:34.525Z</time>
      </trkpt>
      <trkpt lat="46.72848" lon="-1.98365">
        <ele>5.1</ele>
        <time>2025-01-22T09:36:35.526Z</time>
      </trkpt>
      <trkpt lat="46.72846" lon="-1.98363">
        <ele>5.1</ele>
        <time>2025-01-22T09:36:36.526Z</time>
      </trkpt>
      <trkpt lat="46.72845" lon="-1.98361">
        <ele>5</ele>
        <time>2025-01-22T09:36:37.526Z</time>
      </trkpt>
      <trkpt lat="46.72844" lon="-1.98359">
        <ele>4.9</ele>
        <time>2025-01-22T09:36:38.526Z</time>
      </trkpt>
      <trkpt lat="46.72843" lon="-1.98358">
        <ele>4.9</ele>
        <time>2025-01-22T09:36:39.525Z</time>
      </trkpt>
      <trkpt lat="46.72841" lon="-1.98357">
        <ele>4.9</ele>
        <time>2025-01-22T09:36:40.526Z</time>
      </trkpt>
      <trkpt lat="46.72839" lon="-1.98357">
        <ele>4.9</ele>
        <time>2025-01-22T09:36:41.526Z</time>
      </trkpt>
      <trkpt lat="46.72836" lon="-1.98356">
        <ele>4.8</ele>
        <time>2025-01-22T09:36:42.526Z</time>
      </trkpt>
      <trkpt lat="46.72833" lon="-1.98357">
        <ele>4.8</ele>
        <time>2025-01-22T09:36:43.526Z</time>
      </trkpt>
      <trkpt lat="46.72829" lon="-1.98358">
        <ele>4.7</ele>
        <time>2025-01-22T09:36:44.525Z</time>
      </trkpt>
      <trkpt lat="46.72827" lon="-1.98358">
        <ele>4.7</ele>
        <time>2025-01-22T09:36:45.525Z</time>
      </trkpt>
      <trkpt lat="46.72824" lon="-1.98358">
        <ele>4.6</ele>
        <time>2025-01-22T09:36:46.525Z</time>
      </trkpt>
      <trkpt lat="46.72822" lon="-1.98358">
        <ele>4.5</ele>
        <time>2025-01-22T09:36:47.525Z</time>
      </trkpt>
      <trkpt lat="46.72819" lon="-1.98358">
        <ele>4.4</ele>
        <time>2025-01-22T09:36:48.525Z</time>
      </trkpt>
      <trkpt lat="46.72817" lon="-1.98359">
        <ele>4.4</ele>
        <time>2025-01-22T09:36:49.525Z</time>
      </trkpt>
      <trkpt lat="46.72814" lon="-1.98359">
        <ele>4.3</ele>
        <time>2025-01-22T09:36:50.526Z</time>
      </trkpt>
      <trkpt lat="46.72812" lon="-1.98359">
        <ele>4.2</ele>
        <time>2025-01-22T09:36:51.525Z</time>
      </trkpt>
      <trkpt lat="46.72809" lon="-1.98359">
        <ele>4.1</ele>
        <time>2025-01-22T09:36:52.525Z</time>
      </trkpt>
      <trkpt lat="46.72807" lon="-1.9836">
        <ele>4</ele>
        <time>2025-01-22T09:36:53.526Z</time>
      </trkpt>
      <trkpt lat="46.72804" lon="-1.98361">
        <ele>4</ele>
        <time>2025-01-22T09:36:54.525Z</time>
      </trkpt>
      <trkpt lat="46.72802" lon="-1.98362">
        <ele>4</ele>
        <time>2025-01-22T09:36:55.525Z</time>
      </trkpt>
      <trkpt lat="46.728" lon="-1.98364">
        <ele>4</ele>
        <time>2025-01-22T09:36:56.526Z</time>
      </trkpt>
      <trkpt lat="46.72798" lon="-1.98365">
        <ele>4</ele>
        <time>2025-01-22T09:36:57.525Z</time>
      </trkpt>
      <trkpt lat="46.72795" lon="-1.98366">
        <ele>4</ele>
        <time>2025-01-22T09:36:58.525Z</time>
      </trkpt>
      <trkpt lat="46.72793" lon="-1.98367">
        <ele>4</ele>
        <time>2025-01-22T09:36:59.525Z</time>
      </trkpt>
      <trkpt lat="46.72791" lon="-1.98369">
        <ele>4</ele>
        <time>2025-01-22T09:37:00.525Z</time>
      </trkpt>
      <trkpt lat="46.72788" lon="-1.98371">
        <ele>4</ele>
        <time>2025-01-22T09:37:01.526Z</time>
      </trkpt>
      <trkpt lat="46.72786" lon="-1.98373">
        <ele>4</ele>
        <time>2025-01-22T09:37:02.525Z</time>
      </trkpt>
      <trkpt lat="46.72784" lon="-1.98375">
        <ele>4</ele>
        <time>2025-01-22T09:37:03.525Z</time>
      </trkpt>
      <trkpt lat="46.72782" lon="-1.98377">
        <ele>4</ele>
        <time>2025-01-22T09:37:04.525Z</time>
      </trkpt>
      <trkpt lat="46.72779" lon="-1.98378">
        <ele>4</ele>
        <time>2025-01-22T09:37:05.525Z</time>
      </trkpt>
      <trkpt lat="46.72777" lon="-1.98379">
        <ele>4</ele>
        <time>2025-01-22T09:37:06.526Z</time>
      </trkpt>
      <trkpt lat="46.72775" lon="-1.9838">
        <ele>4</ele>
        <time>2025-01-22T09:37:07.525Z</time>
      </trkpt>
      <trkpt lat="46.72773" lon="-1.98379">
        <ele>4</ele>
        <time>2025-01-22T09:37:08.526Z</time>
      </trkpt>
      <trkpt lat="46.72769" lon="-1.98379">
        <ele>4</ele>
        <time>2025-01-22T09:37:09.525Z</time>
      </trkpt>
      <trkpt lat="46.72766" lon="-1.9838">
        <ele>4</ele>
        <time>2025-01-22T09:37:10.525Z</time>
      </trkpt>
      <trkpt lat="46.72763" lon="-1.98381">
        <ele>4</ele>
        <time>2025-01-22T09:37:11.526Z</time>
      </trkpt>
      <trkpt lat="46.72761" lon="-1.98382">
        <ele>4</ele>
        <time>2025-01-22T09:37:12.525Z</time>
      </trkpt>
      <trkpt lat="46.72758" lon="-1.98383">
        <ele>4</ele>
        <time>2025-01-22T09:37:13.525Z</time>
      </trkpt>
      <trkpt lat="46.72755" lon="-1.98385">
        <ele>4</ele>
        <time>2025-01-22T09:37:14.525Z</time>
      </trkpt>
      <trkpt lat="46.72753" lon="-1.98387">
        <ele>4</ele>
        <time>2025-01-22T09:37:15.526Z</time>
      </trkpt>
      <trkpt lat="46.7275" lon="-1.98389">
        <ele>4</ele>
        <time>2025-01-22T09:37:16.526Z</time>
      </trkpt>
      <trkpt lat="46.72748" lon="-1.98391">
        <ele>4</ele>
        <time>2025-01-22T09:37:17.525Z</time>
      </trkpt>
      <trkpt lat="46.72746" lon="-1.98393">
        <ele>4</ele>
        <time>2025-01-22T09:37:18.525Z</time>
      </trkpt>
      <trkpt lat="46.72744" lon="-1.98394">
        <ele>4</ele>
        <time>2025-01-22T09:37:19.525Z</time>
      </trkpt>
      <trkpt lat="46.72742" lon="-1.98396">
        <ele>4</ele>
        <time>2025-01-22T09:37:20.525Z</time>
      </trkpt>
      <trkpt lat="46.7274" lon="-1.98398">
        <ele>4</ele>
        <time>2025-01-22T09:37:21.526Z</time>
      </trkpt>
      <trkpt lat="46.72737" lon="-1.984">
        <ele>4</ele>
        <time>2025-01-22T09:37:22.525Z</time>
      </trkpt>
      <trkpt lat="46.72735" lon="-1.98402">
        <ele>4</ele>
        <time>2025-01-22T09:37:23.525Z</time>
      </trkpt>
      <trkpt lat="46.72734" lon="-1.98405">
        <ele>4</ele>
        <time>2025-01-22T09:37:24.525Z</time>
      </trkpt>
      <trkpt lat="46.72732" lon="-1.98408">
        <ele>4</ele>
        <time>2025-01-22T09:37:25.525Z</time>
      </trkpt>
      <trkpt lat="46.72731" lon="-1.98411">
        <ele>4</ele>
        <time>2025-01-22T09:37:26.525Z</time>
      </trkpt>
      <trkpt lat="46.7273" lon="-1.98414">
        <ele>4</ele>
        <time>2025-01-22T09:37:27.525Z</time>
      </trkpt>
      <trkpt lat="46.72729" lon="-1.98417">
        <ele>4</ele>
        <time>2025-01-22T09:37:28.525Z</time>
      </trkpt>
      <trkpt lat="46.72728" lon="-1.9842">
        <ele>4</ele>
        <time>2025-01-22T09:37:29.525Z</time>
      </trkpt>
      <trkpt lat="46.72727" lon="-1.98424">
        <ele>4</ele>
        <time>2025-01-22T09:37:30.525Z</time>
      </trkpt>
      <trkpt lat="46.72726" lon="-1.98426">
        <ele>4</ele>
        <time>2025-01-22T09:37:31.526Z</time>
      </trkpt>
      <trkpt lat="46.72725" lon="-1.9843">
        <ele>4</ele>
        <time>2025-01-22T09:37:32.526Z</time>
      </trkpt>
      <trkpt lat="46.72723" lon="-1.98432">
        <ele>4</ele>
        <time>2025-01-22T09:37:33.526Z</time>
      </trkpt>
      <trkpt lat="46.72722" lon="-1.98435">
        <ele>4</ele>
        <time>2025-01-22T09:37:34.525Z</time>
      </trkpt>
      <trkpt lat="46.72721" lon="-1.98437">
        <ele>4</ele>
        <time>2025-01-22T09:37:35.525Z</time>
      </trkpt>
      <trkpt lat="46.7272" lon="-1.9844">
        <ele>4</ele>
        <time>2025-01-22T09:37:36.525Z</time>
      </trkpt>
      <trkpt lat="46.72718" lon="-1.98443">
        <ele>4</ele>
        <time>2025-01-22T09:37:37.525Z</time>
      </trkpt>
      <trkpt lat="46.72717" lon="-1.98446">
        <ele>4</ele>
        <time>2025-01-22T09:37:38.525Z</time>
      </trkpt>
      <trkpt lat="46.72716" lon="-1.98448">
        <ele>4</ele>
        <time>2025-01-22T09:37:39.525Z</time>
      </trkpt>
      <trkpt lat="46.72716" lon="-1.98451">
        <ele>4</ele>
        <time>2025-01-22T09:37:40.525Z</time>
      </trkpt>
      <trkpt lat="46.72715" lon="-1.98455">
        <ele>4</ele>
        <time>2025-01-22T09:37:41.525Z</time>
      </trkpt>
      <trkpt lat="46.72713" lon="-1.98458">
        <ele>4</ele>
        <time>2025-01-22T09:37:42.526Z</time>
      </trkpt>
      <trkpt lat="46.72712" lon="-1.98461">
        <ele>4</ele>
        <time>2025-01-22T09:37:43.526Z</time>
      </trkpt>
      <trkpt lat="46.72711" lon="-1.98464">
        <ele>4</ele>
        <time>2025-01-22T09:37:44.525Z</time>
      </trkpt>
      <trkpt lat="46.72709" lon="-1.98467">
        <ele>4</ele>
        <time>2025-01-22T09:37:45.525Z</time>
      </trkpt>
      <trkpt lat="46.72707" lon="-1.98469">
        <ele>4</ele>
        <time>2025-01-22T09:37:46.525Z</time>
      </trkpt>
      <trkpt lat="46.72705" lon="-1.98471">
        <ele>4</ele>
        <time>2025-01-22T09:37:47.526Z</time>
      </trkpt>
      <trkpt lat="46.72703" lon="-1.98473">
        <ele>4</ele>
        <time>2025-01-22T09:37:48.526Z</time>
      </trkpt>
      <trkpt lat="46.72701" lon="-1.98476">
        <ele>4</ele>
        <time>2025-01-22T09:37:49.525Z</time>
      </trkpt>
      <trkpt lat="46.72699" lon="-1.98478">
        <ele>4</ele>
        <time>2025-01-22T09:37:50.525Z</time>
      </trkpt>
      <trkpt lat="46.72698" lon="-1.98481">
        <ele>4</ele>
        <time>2025-01-22T09:37:51.525Z</time>
      </trkpt>
      <trkpt lat="46.72696" lon="-1.98483">
        <ele>4</ele>
        <time>2025-01-22T09:37:52.525Z</time>
      </trkpt>
      <trkpt lat="46.72695" lon="-1.98486">
        <ele>4</ele>
        <time>2025-01-22T09:37:53.525Z</time>
      </trkpt>
      <trkpt lat="46.72693" lon="-1.98489">
        <ele>4</ele>
        <time>2025-01-22T09:37:54.525Z</time>
      </trkpt>
      <trkpt lat="46.72692" lon="-1.98492">
        <ele>4</ele>
        <time>2025-01-22T09:37:55.526Z</time>
      </trkpt>
      <trkpt lat="46.7269" lon="-1.98495">
        <ele>4</ele>
        <time>2025-01-22T09:37:56.526Z</time>
      </trkpt>
      <trkpt lat="46.72688" lon="-1.98498">
        <ele>4</ele>
        <time>2025-01-22T09:37:57.526Z</time>
      </trkpt>
      <trkpt lat="46.72687" lon="-1.98501">
        <ele>4</ele>
        <time>2025-01-22T09:37:58.525Z</time>
      </trkpt>
      <trkpt lat="46.72685" lon="-1.98503">
        <ele>4</ele>
        <time>2025-01-22T09:37:59.525Z</time>
      </trkpt>
      <trkpt lat="46.72683" lon="-1.98506">
        <ele>4</ele>
        <time>2025-01-22T09:38:00.525Z</time>
      </trkpt>
      <trkpt lat="46.72682" lon="-1.98508">
        <ele>4</ele>
        <time>2025-01-22T09:38:01.525Z</time>
      </trkpt>
      <trkpt lat="46.7268" lon="-1.98512">
        <ele>4</ele>
        <time>2025-01-22T09:38:02.526Z</time>
      </trkpt>
      <trkpt lat="46.72679" lon="-1.98516">
        <ele>4</ele>
        <time>2025-01-22T09:38:03.526Z</time>
      </trkpt>
      <trkpt lat="46.72678" lon="-1.98519">
        <ele>4</ele>
        <time>2025-01-22T09:38:04.526Z</time>
      </trkpt>
      <trkpt lat="46.72677" lon="-1.98522">
        <ele>4</ele>
        <time>2025-01-22T09:38:05.525Z</time>
      </trkpt>
      <trkpt lat="46.72676" lon="-1.98526">
        <ele>4</ele>
        <time>2025-01-22T09:38:06.526Z</time>
      </trkpt>
      <trkpt lat="46.72675" lon="-1.9853">
        <ele>4</ele>
        <time>2025-01-22T09:38:07.526Z</time>
      </trkpt>
      <trkpt lat="46.72673" lon="-1.98534">
        <ele>4</ele>
        <time>2025-01-22T09:38:08.526Z</time>
      </trkpt>
      <trkpt lat="46.72671" lon="-1.98537">
        <ele>4</ele>
        <time>2025-01-22T09:38:09.526Z</time>
      </trkpt>
      <trkpt lat="46.72669" lon="-1.9854">
        <ele>4</ele>
        <time>2025-01-22T09:38:10.525Z</time>
      </trkpt>
      <trkpt lat="46.72668" lon="-1.98543">
        <ele>4</ele>
        <time>2025-01-22T09:38:11.525Z</time>
      </trkpt>
      <trkpt lat="46.72667" lon="-1.98546">
        <ele>4</ele>
        <time>2025-01-22T09:38:12.525Z</time>
      </trkpt>
      <trkpt lat="46.72665" lon="-1.98549">
        <ele>4</ele>
        <time>2025-01-22T09:38:13.525Z</time>
      </trkpt>
      <trkpt lat="46.72663" lon="-1.98551">
        <ele>4.1</ele>
        <time>2025-01-22T09:38:14.525Z</time>
      </trkpt>
      <trkpt lat="46.72661" lon="-1.98554">
        <ele>4.2</ele>
        <time>2025-01-22T09:38:15.525Z</time>
      </trkpt>
      <trkpt lat="46.72659" lon="-1.98556">
        <ele>4.3</ele>
        <time>2025-01-22T09:38:16.526Z</time>
      </trkpt>
      <trkpt lat="46.72657" lon="-1.98558">
        <ele>4.4</ele>
        <time>2025-01-22T09:38:17.526Z</time>
      </trkpt>
      <trkpt lat="46.72655" lon="-1.98561">
        <ele>4.5</ele>
        <time>2025-01-22T09:38:18.525Z</time>
      </trkpt>
      <trkpt lat="46.72653" lon="-1.98564">
        <ele>4.6</ele>
        <time>2025-01-22T09:38:19.525Z</time>
      </trkpt>
      <trkpt lat="46.72652" lon="-1.98567">
        <ele>4.7</ele>
        <time>2025-01-22T09:38:20.525Z</time>
      </trkpt>
      <trkpt lat="46.72651" lon="-1.98571">
        <ele>4.8</ele>
        <time>2025-01-22T09:38:21.525Z</time>
      </trkpt>
      <trkpt lat="46.7265" lon="-1.98575">
        <ele>4.9</ele>
        <time>2025-01-22T09:38:22.525Z</time>
      </trkpt>
      <trkpt lat="46.72649" lon="-1.98577">
        <ele>4.9</ele>
        <time>2025-01-22T09:38:23.525Z</time>
      </trkpt>
      <trkpt lat="46.72647" lon="-1.9858">
        <ele>5</ele>
        <time>2025-01-22T09:38:24.526Z</time>
      </trkpt>
      <trkpt lat="46.72646" lon="-1.98582">
        <ele>5</ele>
        <time>2025-01-22T09:38:25.526Z</time>
      </trkpt>
      <trkpt lat="46.72644" lon="-1.98584">
        <ele>5</ele>
        <time>2025-01-22T09:38:26.526Z</time>
      </trkpt>
      <trkpt lat="46.72642" lon="-1.98586">
        <ele>5.1</ele>
        <time>2025-01-22T09:38:27.526Z</time>
      </trkpt>
      <trkpt lat="46.7264" lon="-1.98588">
        <ele>5.2</ele>
        <time>2025-01-22T09:38:28.525Z</time>
      </trkpt>
      <trkpt lat="46.72639" lon="-1.9859">
        <ele>5.3</ele>
        <time>2025-01-22T09:38:29.526Z</time>
      </trkpt>
      <trkpt lat="46.72637" lon="-1.98592">
        <ele>5.4</ele>
        <time>2025-01-22T09:38:30.526Z</time>
      </trkpt>
      <trkpt lat="46.72635" lon="-1.98594">
        <ele>5.5</ele>
        <time>2025-01-22T09:38:31.526Z</time>
      </trkpt>
      <trkpt lat="46.72633" lon="-1.98596">
        <ele>5.6</ele>
        <time>2025-01-22T09:38:32.526Z</time>
      </trkpt>
      <trkpt lat="46.72632" lon="-1.98598">
        <ele>5.6</ele>
        <time>2025-01-22T09:38:33.525Z</time>
      </trkpt>
      <trkpt lat="46.7263" lon="-1.98599">
        <ele>5.7</ele>
        <time>2025-01-22T09:38:34.525Z</time>
      </trkpt>
      <trkpt lat="46.72628" lon="-1.986">
        <ele>5.7</ele>
        <time>2025-01-22T09:38:35.525Z</time>
      </trkpt>
      <trkpt lat="46.72626" lon="-1.986">
        <ele>5.7</ele>
        <time>2025-01-22T09:38:36.525Z</time>
      </trkpt>
      <trkpt lat="46.72625" lon="-1.986">
        <ele>5.7</ele>
        <time>2025-01-22T09:38:37.526Z</time>
      </trkpt>
      <trkpt lat="46.72623" lon="-1.986">
        <ele>5.7</ele>
        <time>2025-01-22T09:38:38.526Z</time>
      </trkpt>
      <trkpt lat="46.72622" lon="-1.98599">
        <ele>5.8</ele>
        <time>2025-01-22T09:38:39.526Z</time>
      </trkpt>
      <trkpt lat="46.7262" lon="-1.98597">
        <ele>5.9</ele>
        <time>2025-01-22T09:38:40.525Z</time>
      </trkpt>
      <trkpt lat="46.72617" lon="-1.98596">
        <ele>6</ele>
        <time>2025-01-22T09:38:41.525Z</time>
      </trkpt>
      <trkpt lat="46.72615" lon="-1.98594">
        <ele>6.1</ele>
        <time>2025-01-22T09:38:42.526Z</time>
      </trkpt>
      <trkpt lat="46.72613" lon="-1.98593">
        <ele>6.3</ele>
        <time>2025-01-22T09:38:43.525Z</time>
      </trkpt>
      <trkpt lat="46.72611" lon="-1.98591">
        <ele>6.4</ele>
        <time>2025-01-22T09:38:44.525Z</time>
      </trkpt>
      <trkpt lat="46.7261" lon="-1.98589">
        <ele>6.6</ele>
        <time>2025-01-22T09:38:45.525Z</time>
      </trkpt>
      <trkpt lat="46.72608" lon="-1.98587">
        <ele>6.7</ele>
        <time>2025-01-22T09:38:46.525Z</time>
      </trkpt>
      <trkpt lat="46.72606" lon="-1.98585">
        <ele>6.9</ele>
        <time>2025-01-22T09:38:47.525Z</time>
      </trkpt>
      <trkpt lat="46.72603" lon="-1.98583">
        <ele>7</ele>
        <time>2025-01-22T09:38:48.525Z</time>
      </trkpt>
      <trkpt lat="46.726" lon="-1.98582">
        <ele>6.9</ele>
        <time>2025-01-22T09:38:49.525Z</time>
      </trkpt>
      <trkpt lat="46.72598" lon="-1.98581">
        <ele>6.9</ele>
        <time>2025-01-22T09:38:50.525Z</time>
      </trkpt>
      <trkpt lat="46.72596" lon="-1.98581">
        <ele>6.9</ele>
        <time>2025-01-22T09:38:51.526Z</time>
      </trkpt>
      <trkpt lat="46.72593" lon="-1.9858">
        <ele>6.8</ele>
        <time>2025-01-22T09:38:52.526Z</time>
      </trkpt>
      <trkpt lat="46.72591" lon="-1.98578">
        <ele>6.7</ele>
        <time>2025-01-22T09:38:53.526Z</time>
      </trkpt>
      <trkpt lat="46.72589" lon="-1.98577">
        <ele>6.6</ele>
        <time>2025-01-22T09:38:54.525Z</time>
      </trkpt>
      <trkpt lat="46.72587" lon="-1.98575">
        <ele>6.4</ele>
        <time>2025-01-22T09:38:55.525Z</time>
      </trkpt>
      <trkpt lat="46.72585" lon="-1.98574">
        <ele>6.3</ele>
        <time>2025-01-22T09:38:56.525Z</time>
      </trkpt>
      <trkpt lat="46.72583" lon="-1.98572">
        <ele>6.2</ele>
        <time>2025-01-22T09:38:57.525Z</time>
      </trkpt>
      <trkpt lat="46.7258" lon="-1.98571">
        <ele>6</ele>
        <time>2025-01-22T09:38:58.525Z</time>
      </trkpt>
      <trkpt lat="46.72578" lon="-1.9857">
        <ele>5.8</ele>
        <time>2025-01-22T09:38:59.525Z</time>
      </trkpt>
      <trkpt lat="46.72575" lon="-1.98569">
        <ele>5.7</ele>
        <time>2025-01-22T09:39:00.526Z</time>
      </trkpt>
      <trkpt lat="46.72574" lon="-1.98568">
        <ele>5.6</ele>
        <time>2025-01-22T09:39:01.525Z</time>
      </trkpt>
      <trkpt lat="46.72572" lon="-1.98566">
        <ele>5.5</ele>
        <time>2025-01-22T09:39:02.526Z</time>
      </trkpt>
      <trkpt lat="46.7257" lon="-1.98564">
        <ele>5.3</ele>
        <time>2025-01-22T09:39:03.525Z</time>
      </trkpt>
      <trkpt lat="46.72568" lon="-1.98563">
        <ele>5.2</ele>
        <time>2025-01-22T09:39:04.526Z</time>
      </trkpt>
      <trkpt lat="46.72566" lon="-1.98561">
        <ele>5.1</ele>
        <time>2025-01-22T09:39:05.525Z</time>
      </trkpt>
      <trkpt lat="46.72564" lon="-1.98559">
        <ele>5.1</ele>
        <time>2025-01-22T09:39:06.526Z</time>
      </trkpt>
      <trkpt lat="46.72563" lon="-1.98557">
        <ele>5</ele>
        <time>2025-01-22T09:39:07.525Z</time>
      </trkpt>
      <trkpt lat="46.72561" lon="-1.98556">
        <ele>5</ele>
        <time>2025-01-22T09:39:08.526Z</time>
      </trkpt>
      <trkpt lat="46.72559" lon="-1.98555">
        <ele>5</ele>
        <time>2025-01-22T09:39:09.525Z</time>
      </trkpt>
      <trkpt lat="46.72557" lon="-1.98554">
        <ele>5</ele>
        <time>2025-01-22T09:39:10.526Z</time>
      </trkpt>
      <trkpt lat="46.72555" lon="-1.98553">
        <ele>5</ele>
        <time>2025-01-22T09:39:11.525Z</time>
      </trkpt>
      <trkpt lat="46.72553" lon="-1.98552">
        <ele>4.9</ele>
        <time>2025-01-22T09:39:12.525Z</time>
      </trkpt>
      <trkpt lat="46.72551" lon="-1.98549">
        <ele>4.8</ele>
        <time>2025-01-22T09:39:13.526Z</time>
      </trkpt>
      <trkpt lat="46.7255" lon="-1.98546">
        <ele>4.8</ele>
        <time>2025-01-22T09:39:14.525Z</time>
      </trkpt>
      <trkpt lat="46.72549" lon="-1.98544">
        <ele>4.8</ele>
        <time>2025-01-22T09:39:15.525Z</time>
      </trkpt>
      <trkpt lat="46.72548" lon="-1.98541">
        <ele>4.7</ele>
        <time>2025-01-22T09:39:16.525Z</time>
      </trkpt>
      <trkpt lat="46.72547" lon="-1.98538">
        <ele>4.7</ele>
        <time>2025-01-22T09:39:17.525Z</time>
      </trkpt>
      <trkpt lat="46.72547" lon="-1.98535">
        <ele>4.7</ele>
        <time>2025-01-22T09:39:18.526Z</time>
      </trkpt>
      <trkpt lat="46.72545" lon="-1.98533">
        <ele>4.6</ele>
        <time>2025-01-22T09:39:19.526Z</time>
      </trkpt>
      <trkpt lat="46.72544" lon="-1.98531">
        <ele>4.6</ele>
        <time>2025-01-22T09:39:20.526Z</time>
      </trkpt>
      <trkpt lat="46.72542" lon="-1.98529">
        <ele>4.5</ele>
        <time>2025-01-22T09:39:21.526Z</time>
      </trkpt>
      <trkpt lat="46.7254" lon="-1.98528">
        <ele>4.4</ele>
        <time>2025-01-22T09:39:22.525Z</time>
      </trkpt>
      <trkpt lat="46.72538" lon="-1.98527">
        <ele>4.4</ele>
        <time>2025-01-22T09:39:23.526Z</time>
      </trkpt>
      <trkpt lat="46.72536" lon="-1.98525">
        <ele>4.3</ele>
        <time>2025-01-22T09:39:24.526Z</time>
      </trkpt>
      <trkpt lat="46.72535" lon="-1.98524">
        <ele>4.3</ele>
        <time>2025-01-22T09:39:25.525Z</time>
      </trkpt>
      <trkpt lat="46.72534" lon="-1.98522">
        <ele>4.2</ele>
        <time>2025-01-22T09:39:26.526Z</time>
      </trkpt>
      <trkpt lat="46.72532" lon="-1.9852">
        <ele>4.2</ele>
        <time>2025-01-22T09:39:27.526Z</time>
      </trkpt>
      <trkpt lat="46.7253" lon="-1.98518">
        <ele>4.1</ele>
        <time>2025-01-22T09:39:28.526Z</time>
      </trkpt>
      <trkpt lat="46.72529" lon="-1.98517">
        <ele>4</ele>
        <time>2025-01-22T09:39:29.525Z</time>
      </trkpt>
      <trkpt lat="46.72526" lon="-1.98515">
        <ele>4</ele>
        <time>2025-01-22T09:39:30.525Z</time>
      </trkpt>
      <trkpt lat="46.72524" lon="-1.98514">
        <ele>4</ele>
        <time>2025-01-22T09:39:31.526Z</time>
      </trkpt>
      <trkpt lat="46.72522" lon="-1.98511">
        <ele>4</ele>
        <time>2025-01-22T09:39:32.525Z</time>
      </trkpt>
      <trkpt lat="46.7252" lon="-1.98509">
        <ele>4</ele>
        <time>2025-01-22T09:39:33.526Z</time>
      </trkpt>
      <trkpt lat="46.72518" lon="-1.98507">
        <ele>4</ele>
        <time>2025-01-22T09:39:34.526Z</time>
      </trkpt>
      <trkpt lat="46.72517" lon="-1.98504">
        <ele>4</ele>
        <time>2025-01-22T09:39:35.525Z</time>
      </trkpt>
      <trkpt lat="46.72516" lon="-1.98502">
        <ele>4</ele>
        <time>2025-01-22T09:39:36.525Z</time>
      </trkpt>
      <trkpt lat="46.72514" lon="-1.985">
        <ele>4</ele>
        <time>2025-01-22T09:39:37.525Z</time>
      </trkpt>
      <trkpt lat="46.72512" lon="-1.98497">
        <ele>4.1</ele>
        <time>2025-01-22T09:39:38.526Z</time>
      </trkpt>
      <trkpt lat="46.7251" lon="-1.98494">
        <ele>4.2</ele>
        <time>2025-01-22T09:39:39.526Z</time>
      </trkpt>
      <trkpt lat="46.72508" lon="-1.98491">
        <ele>4.3</ele>
        <time>2025-01-22T09:39:40.526Z</time>
      </trkpt>
      <trkpt lat="46.72506" lon="-1.9849">
        <ele>4.4</ele>
        <time>2025-01-22T09:39:41.525Z</time>
      </trkpt>
      <trkpt lat="46.72504" lon="-1.98487">
        <ele>4.5</ele>
        <time>2025-01-22T09:39:42.525Z</time>
      </trkpt>
      <trkpt lat="46.72503" lon="-1.98486">
        <ele>4.5</ele>
        <time>2025-01-22T09:39:43.525Z</time>
      </trkpt>
      <trkpt lat="46.72501" lon="-1.98483">
        <ele>4.6</ele>
        <time>2025-01-22T09:39:44.526Z</time>
      </trkpt>
      <trkpt lat="46.72499" lon="-1.98481">
        <ele>4.7</ele>
        <time>2025-01-22T09:39:45.525Z</time>
      </trkpt>
      <trkpt lat="46.72497" lon="-1.9848">
        <ele>4.8</ele>
        <time>2025-01-22T09:39:46.526Z</time>
      </trkpt>
      <trkpt lat="46.72495" lon="-1.98479">
        <ele>4.8</ele>
        <time>2025-01-22T09:39:47.526Z</time>
      </trkpt>
      <trkpt lat="46.72491" lon="-1.98476">
        <ele>4.9</ele>
        <time>2025-01-22T09:39:48.526Z</time>
      </trkpt>
      <trkpt lat="46.72488" lon="-1.98474">
        <ele>5</ele>
        <time>2025-01-22T09:39:49.525Z</time>
      </trkpt>
      <trkpt lat="46.72484" lon="-1.98473">
        <ele>5</ele>
        <time>2025-01-22T09:39:50.525Z</time>
      </trkpt>
      <trkpt lat="46.72482" lon="-1.98472">
        <ele>5</ele>
        <time>2025-01-22T09:39:51.525Z</time>
      </trkpt>
      <trkpt lat="46.72479" lon="-1.98471">
        <ele>5</ele>
        <time>2025-01-22T09:39:52.525Z</time>
      </trkpt>
      <trkpt lat="46.72477" lon="-1.98471">
        <ele>4.9</ele>
        <time>2025-01-22T09:39:53.526Z</time>
      </trkpt>
      <trkpt lat="46.72474" lon="-1.98469">
        <ele>4.9</ele>
        <time>2025-01-22T09:39:54.525Z</time>
      </trkpt>
      <trkpt lat="46.72472" lon="-1.98468">
        <ele>4.8</ele>
        <time>2025-01-22T09:39:55.526Z</time>
      </trkpt>
      <trkpt lat="46.7247" lon="-1.98468">
        <ele>4.8</ele>
        <time>2025-01-22T09:39:56.525Z</time>
      </trkpt>
      <trkpt lat="46.72467" lon="-1.98467">
        <ele>4.7</ele>
        <time>2025-01-22T09:39:57.525Z</time>
      </trkpt>
      <trkpt lat="46.72464" lon="-1.98466">
        <ele>4.5</ele>
        <time>2025-01-22T09:39:58.526Z</time>
      </trkpt>
      <trkpt lat="46.72461" lon="-1.98465">
        <ele>4.4</ele>
        <time>2025-01-22T09:39:59.525Z</time>
      </trkpt>
      <trkpt lat="46.72459" lon="-1.98463">
        <ele>4.3</ele>
        <time>2025-01-22T09:40:00.526Z</time>
      </trkpt>
      <trkpt lat="46.72458" lon="-1.98462">
        <ele>4.3</ele>
        <time>2025-01-22T09:40:01.525Z</time>
      </trkpt>
      <trkpt lat="46.72457" lon="-1.9846">
        <ele>4.2</ele>
        <time>2025-01-22T09:40:02.526Z</time>
      </trkpt>
      <trkpt lat="46.72455" lon="-1.98458">
        <ele>4.2</ele>
        <time>2025-01-22T09:40:03.526Z</time>
      </trkpt>
      <trkpt lat="46.72454" lon="-1.98455">
        <ele>4.1</ele>
        <time>2025-01-22T09:40:04.526Z</time>
      </trkpt>
      <trkpt lat="46.72454" lon="-1.98452">
        <ele>4.1</ele>
        <time>2025-01-22T09:40:05.526Z</time>
      </trkpt>
      <trkpt lat="46.72453" lon="-1.9845">
        <ele>4.1</ele>
        <time>2025-01-22T09:40:06.526Z</time>
      </trkpt>
      <trkpt lat="46.72452" lon="-1.98447">
        <ele>4</ele>
        <time>2025-01-22T09:40:07.526Z</time>
      </trkpt>
      <trkpt lat="46.72452" lon="-1.98444">
        <ele>4</ele>
        <time>2025-01-22T09:40:08.526Z</time>
      </trkpt>
      <trkpt lat="46.72451" lon="-1.9844">
        <ele>4</ele>
        <time>2025-01-22T09:40:09.526Z</time>
      </trkpt>
      <trkpt lat="46.7245" lon="-1.98435">
        <ele>4</ele>
        <time>2025-01-22T09:40:10.526Z</time>
      </trkpt>
      <trkpt lat="46.72448" lon="-1.9843">
        <ele>4</ele>
        <time>2025-01-22T09:40:11.525Z</time>
      </trkpt>
      <trkpt lat="46.72447" lon="-1.98427">
        <ele>4</ele>
        <time>2025-01-22T09:40:12.525Z</time>
      </trkpt>
      <trkpt lat="46.72446" lon="-1.98423">
        <ele>4</ele>
        <time>2025-01-22T09:40:13.526Z</time>
      </trkpt>
      <trkpt lat="46.72446" lon="-1.9842">
        <ele>4</ele>
        <time>2025-01-22T09:40:14.525Z</time>
      </trkpt>
      <trkpt lat="46.72445" lon="-1.98417">
        <ele>4</ele>
        <time>2025-01-22T09:40:15.525Z</time>
      </trkpt>
      <trkpt lat="46.72445" lon="-1.98414">
        <ele>4.1</ele>
        <time>2025-01-22T09:40:16.526Z</time>
      </trkpt>
      <trkpt lat="46.72444" lon="-1.98411">
        <ele>4.2</ele>
        <time>2025-01-22T09:40:17.525Z</time>
      </trkpt>
      <trkpt lat="46.72443" lon="-1.98407">
        <ele>4.3</ele>
        <time>2025-01-22T09:40:18.526Z</time>
      </trkpt>
      <trkpt lat="46.72442" lon="-1.98403">
        <ele>4.5</ele>
        <time>2025-01-22T09:40:19.525Z</time>
      </trkpt>
      <trkpt lat="46.7244" lon="-1.984">
        <ele>4.6</ele>
        <time>2025-01-22T09:40:20.526Z</time>
      </trkpt>
      <trkpt lat="46.72438" lon="-1.98398">
        <ele>4.7</ele>
        <time>2025-01-22T09:40:21.526Z</time>
      </trkpt>
      <trkpt lat="46.72437" lon="-1.98395">
        <ele>4.8</ele>
        <time>2025-01-22T09:40:22.526Z</time>
      </trkpt>
      <trkpt lat="46.72435" lon="-1.98394">
        <ele>4.8</ele>
        <time>2025-01-22T09:40:23.525Z</time>
      </trkpt>
      <trkpt lat="46.72434" lon="-1.98392">
        <ele>4.9</ele>
        <time>2025-01-22T09:40:24.525Z</time>
      </trkpt>
      <trkpt lat="46.72432" lon="-1.98391">
        <ele>4.9</ele>
        <time>2025-01-22T09:40:25.526Z</time>
      </trkpt>
      <trkpt lat="46.72431" lon="-1.9839">
        <ele>5</ele>
        <time>2025-01-22T09:40:26.525Z</time>
      </trkpt>
      <trkpt lat="46.72429" lon="-1.98388">
        <ele>5</ele>
        <time>2025-01-22T09:40:27.526Z</time>
      </trkpt>
      <trkpt lat="46.72428" lon="-1.98386">
        <ele>4.9</ele>
        <time>2025-01-22T09:40:28.525Z</time>
      </trkpt>
      <trkpt lat="46.72427" lon="-1.98382">
        <ele>4.7</ele>
        <time>2025-01-22T09:40:29.525Z</time>
      </trkpt>
      <trkpt lat="46.72427" lon="-1.98378">
        <ele>4.6</ele>
        <time>2025-01-22T09:40:30.526Z</time>
      </trkpt>
      <trkpt lat="46.72426" lon="-1.98374">
        <ele>4.5</ele>
        <time>2025-01-22T09:40:31.526Z</time>
      </trkpt>
      <trkpt lat="46.72426" lon="-1.98371">
        <ele>4.4</ele>
        <time>2025-01-22T09:40:32.525Z</time>
      </trkpt>
      <trkpt lat="46.72427" lon="-1.98368">
        <ele>4.2</ele>
        <time>2025-01-22T09:40:33.525Z</time>
      </trkpt>
      <trkpt lat="46.72426" lon="-1.98365">
        <ele>4.1</ele>
        <time>2025-01-22T09:40:34.526Z</time>
      </trkpt>
      <trkpt lat="46.72426" lon="-1.98361">
        <ele>4</ele>
        <time>2025-01-22T09:40:35.525Z</time>
      </trkpt>
      <trkpt lat="46.72426" lon="-1.98357">
        <ele>4.1</ele>
        <time>2025-01-22T09:40:36.525Z</time>
      </trkpt>
      <trkpt lat="46.72426" lon="-1.98353">
        <ele>4.2</ele>
        <time>2025-01-22T09:40:37.526Z</time>
      </trkpt>
      <trkpt lat="46.72425" lon="-1.98349">
        <ele>4.3</ele>
        <time>2025-01-22T09:40:38.525Z</time>
      </trkpt>
      <trkpt lat="46.72424" lon="-1.98345">
        <ele>4.4</ele>
        <time>2025-01-22T09:40:39.526Z</time>
      </trkpt>
      <trkpt lat="46.72424" lon="-1.98342">
        <ele>4.5</ele>
        <time>2025-01-22T09:40:40.526Z</time>
      </trkpt>
      <trkpt lat="46.72424" lon="-1.98339">
        <ele>4.6</ele>
        <time>2025-01-22T09:40:41.525Z</time>
      </trkpt>
      <trkpt lat="46.72424" lon="-1.98335">
        <ele>4.7</ele>
        <time>2025-01-22T09:40:42.526Z</time>
      </trkpt>
      <trkpt lat="46.72425" lon="-1.98331">
        <ele>4.7</ele>
        <time>2025-01-22T09:40:43.526Z</time>
      </trkpt>
      <trkpt lat="46.72425" lon="-1.98327">
        <ele>4.5</ele>
        <time>2025-01-22T09:40:44.525Z</time>
      </trkpt>
      <trkpt lat="46.72426" lon="-1.98322">
        <ele>4.4</ele>
        <time>2025-01-22T09:40:45.525Z</time>
      </trkpt>
      <trkpt lat="46.72427" lon="-1.98318">
        <ele>4.3</ele>
        <time>2025-01-22T09:40:46.525Z</time>
      </trkpt>
      <trkpt lat="46.72428" lon="-1.98314">
        <ele>4.2</ele>
        <time>2025-01-22T09:40:47.526Z</time>
      </trkpt>
      <trkpt lat="46.72428" lon="-1.9831">
        <ele>4.1</ele>
        <time>2025-01-22T09:40:48.526Z</time>
      </trkpt>
      <trkpt lat="46.72428" lon="-1.98307">
        <ele>4</ele>
        <time>2025-01-22T09:40:49.526Z</time>
      </trkpt>
      <trkpt lat="46.72427" lon="-1.98304">
        <ele>4.1</ele>
        <time>2025-01-22T09:40:50.526Z</time>
      </trkpt>
      <trkpt lat="46.72426" lon="-1.98301">
        <ele>4.2</ele>
        <time>2025-01-22T09:40:51.525Z</time>
      </trkpt>
      <trkpt lat="46.72423" lon="-1.98299">
        <ele>4.3</ele>
        <time>2025-01-22T09:40:52.525Z</time>
      </trkpt>
      <trkpt lat="46.72421" lon="-1.98298">
        <ele>4.5</ele>
        <time>2025-01-22T09:40:53.525Z</time>
      </trkpt>
      <trkpt lat="46.72418" lon="-1.98296">
        <ele>4.7</ele>
        <time>2025-01-22T09:40:54.525Z</time>
      </trkpt>
      <trkpt lat="46.72415" lon="-1.98295">
        <ele>4.8</ele>
        <time>2025-01-22T09:40:55.525Z</time>
      </trkpt>
      <trkpt lat="46.72414" lon="-1.98294">
        <ele>4.9</ele>
        <time>2025-01-22T09:40:56.526Z</time>
      </trkpt>
      <trkpt lat="46.72412" lon="-1.98292">
        <ele>5</ele>
        <time>2025-01-22T09:40:57.526Z</time>
      </trkpt>
      <trkpt lat="46.72411" lon="-1.98291">
        <ele>5.1</ele>
        <time>2025-01-22T09:40:58.526Z</time>
      </trkpt>
      <trkpt lat="46.7241" lon="-1.98289">
        <ele>5.2</ele>
        <time>2025-01-22T09:40:59.526Z</time>
      </trkpt>
      <trkpt lat="46.72408" lon="-1.98286">
        <ele>5.3</ele>
        <time>2025-01-22T09:41:00.525Z</time>
      </trkpt>
      <trkpt lat="46.72406" lon="-1.98285">
        <ele>5.3</ele>
        <time>2025-01-22T09:41:01.526Z</time>
      </trkpt>
      <trkpt lat="46.72404" lon="-1.98283">
        <ele>5.3</ele>
        <time>2025-01-22T09:41:02.526Z</time>
      </trkpt>
      <trkpt lat="46.72403" lon="-1.98281">
        <ele>5.4</ele>
        <time>2025-01-22T09:41:03.525Z</time>
      </trkpt>
      <trkpt lat="46.72402" lon="-1.9828">
        <ele>5.4</ele>
        <time>2025-01-22T09:41:04.526Z</time>
      </trkpt>
      <trkpt lat="46.72402" lon="-1.98278">
        <ele>5.5</ele>
        <time>2025-01-22T09:41:05.526Z</time>
      </trkpt>
      <trkpt lat="46.72401" lon="-1.98275">
        <ele>5.4</ele>
        <time>2025-01-22T09:41:06.526Z</time>
      </trkpt>
      <trkpt lat="46.72399" lon="-1.98271">
        <ele>5.3</ele>
        <time>2025-01-22T09:41:07.526Z</time>
      </trkpt>
      <trkpt lat="46.72397" lon="-1.98267">
        <ele>5.2</ele>
        <time>2025-01-22T09:41:08.525Z</time>
      </trkpt>
      <trkpt lat="46.72395" lon="-1.98264">
        <ele>5.1</ele>
        <time>2025-01-22T09:41:09.525Z</time>
      </trkpt>
      <trkpt lat="46.72393" lon="-1.98261">
        <ele>5.1</ele>
        <time>2025-01-22T09:41:10.526Z</time>
      </trkpt>
      <trkpt lat="46.72391" lon="-1.98257">
        <ele>5</ele>
        <time>2025-01-22T09:41:11.526Z</time>
      </trkpt>
      <trkpt lat="46.72389" lon="-1.98254">
        <ele>5</ele>
        <time>2025-01-22T09:41:12.525Z</time>
      </trkpt>
      <trkpt lat="46.72389" lon="-1.98249">
        <ele>5</ele>
        <time>2025-01-22T09:41:13.525Z</time>
      </trkpt>
      <trkpt lat="46.72388" lon="-1.98245">
        <ele>4.8</ele>
        <time>2025-01-22T09:41:14.525Z</time>
      </trkpt>
      <trkpt lat="46.72388" lon="-1.98241">
        <ele>4.7</ele>
        <time>2025-01-22T09:41:15.525Z</time>
      </trkpt>
      <trkpt lat="46.72389" lon="-1.98238">
        <ele>4.6</ele>
        <time>2025-01-22T09:41:16.525Z</time>
      </trkpt>
      <trkpt lat="46.72389" lon="-1.98234">
        <ele>4.4</ele>
        <time>2025-01-22T09:41:17.525Z</time>
      </trkpt>
      <trkpt lat="46.7239" lon="-1.98231">
        <ele>4.3</ele>
        <time>2025-01-22T09:41:18.526Z</time>
      </trkpt>
      <trkpt lat="46.7239" lon="-1.98228">
        <ele>4.2</ele>
        <time>2025-01-22T09:41:19.526Z</time>
      </trkpt>
      <trkpt lat="46.7239" lon="-1.98224">
        <ele>4.1</ele>
        <time>2025-01-22T09:41:20.526Z</time>
      </trkpt>
      <trkpt lat="46.7239" lon="-1.98221">
        <ele>4</ele>
        <time>2025-01-22T09:41:21.526Z</time>
      </trkpt>
      <trkpt lat="46.7239" lon="-1.98217">
        <ele>4</ele>
        <time>2025-01-22T09:41:22.526Z</time>
      </trkpt>
      <trkpt lat="46.72389" lon="-1.98213">
        <ele>4</ele>
        <time>2025-01-22T09:41:23.525Z</time>
      </trkpt>
      <trkpt lat="46.72389" lon="-1.9821">
        <ele>4</ele>
        <time>2025-01-22T09:41:24.525Z</time>
      </trkpt>
      <trkpt lat="46.72388" lon="-1.98207">
        <ele>4</ele>
        <time>2025-01-22T09:41:25.526Z</time>
      </trkpt>
      <trkpt lat="46.72387" lon="-1.98205">
        <ele>4</ele>
        <time>2025-01-22T09:41:26.526Z</time>
      </trkpt>
      <trkpt lat="46.72386" lon="-1.98202">
        <ele>4</ele>
        <time>2025-01-22T09:41:27.525Z</time>
      </trkpt>
      <trkpt lat="46.72384" lon="-1.982">
        <ele>4</ele>
        <time>2025-01-22T09:41:28.526Z</time>
      </trkpt>
      <trkpt lat="46.72383" lon="-1.98197">
        <ele>4</ele>
        <time>2025-01-22T09:41:29.526Z</time>
      </trkpt>
      <trkpt lat="46.72381" lon="-1.98194">
        <ele>4</ele>
        <time>2025-01-22T09:41:30.525Z</time>
      </trkpt>
      <trkpt lat="46.72379" lon="-1.98191">
        <ele>4</ele>
        <time>2025-01-22T09:41:31.525Z</time>
      </trkpt>
      <trkpt lat="46.72376" lon="-1.98188">
        <ele>4</ele>
        <time>2025-01-22T09:41:32.525Z</time>
      </trkpt>
      <trkpt lat="46.72374" lon="-1.98185">
        <ele>4</ele>
        <time>2025-01-22T09:41:33.526Z</time>
      </trkpt>
      <trkpt lat="46.72372" lon="-1.98181">
        <ele>4</ele>
        <time>2025-01-22T09:41:34.525Z</time>
      </trkpt>
      <trkpt lat="46.7237" lon="-1.98177">
        <ele>4</ele>
        <time>2025-01-22T09:41:35.526Z</time>
      </trkpt>
      <trkpt lat="46.72369" lon="-1.98174">
        <ele>4</ele>
        <time>2025-01-22T09:41:36.525Z</time>
      </trkpt>
      <trkpt lat="46.72369" lon="-1.98171">
        <ele>4</ele>
        <time>2025-01-22T09:41:37.526Z</time>
      </trkpt>
      <trkpt lat="46.72369" lon="-1.98168">
        <ele>4</ele>
        <time>2025-01-22T09:41:38.525Z</time>
      </trkpt>
      <trkpt lat="46.72369" lon="-1.98165">
        <ele>4</ele>
        <time>2025-01-22T09:41:39.525Z</time>
      </trkpt>
      <trkpt lat="46.7237" lon="-1.98162">
        <ele>4</ele>
        <time>2025-01-22T09:41:40.525Z</time>
      </trkpt>
      <trkpt lat="46.7237" lon="-1.9816">
        <ele>4.1</ele>
        <time>2025-01-22T09:41:41.525Z</time>
      </trkpt>
      <trkpt lat="46.7237" lon="-1.98155">
        <ele>4.1</ele>
        <time>2025-01-22T09:41:42.526Z</time>
      </trkpt>
      <trkpt lat="46.72371" lon="-1.98153">
        <ele>4.2</ele>
        <time>2025-01-22T09:41:43.525Z</time>
      </trkpt>
      <trkpt lat="46.72371" lon="-1.9815">
        <ele>4.2</ele>
        <time>2025-01-22T09:41:44.525Z</time>
      </trkpt>
      <trkpt lat="46.72372" lon="-1.98148">
        <ele>4.3</ele>
        <time>2025-01-22T09:41:45.526Z</time>
      </trkpt>
      <trkpt lat="46.72372" lon="-1.98145">
        <ele>4.3</ele>
        <time>2025-01-22T09:41:46.525Z</time>
      </trkpt>
      <trkpt lat="46.72372" lon="-1.98142">
        <ele>4.3</ele>
        <time>2025-01-22T09:41:47.525Z</time>
      </trkpt>
      <trkpt lat="46.72373" lon="-1.98137">
        <ele>4.4</ele>
        <time>2025-01-22T09:41:48.525Z</time>
      </trkpt>
      <trkpt lat="46.72373" lon="-1.98133">
        <ele>4.4</ele>
        <time>2025-01-22T09:41:49.525Z</time>
      </trkpt>
      <trkpt lat="46.72372" lon="-1.98129">
        <ele>4.4</ele>
        <time>2025-01-22T09:41:50.526Z</time>
      </trkpt>
      <trkpt lat="46.7237" lon="-1.98126">
        <ele>4.3</ele>
        <time>2025-01-22T09:41:51.525Z</time>
      </trkpt>
      <trkpt lat="46.72368" lon="-1.98123">
        <ele>4.3</ele>
        <time>2025-01-22T09:41:52.526Z</time>
      </trkpt>
      <trkpt lat="46.72366" lon="-1.98121">
        <ele>4.2</ele>
        <time>2025-01-22T09:41:53.526Z</time>
      </trkpt>
      <trkpt lat="46.72363" lon="-1.98119">
        <ele>4.1</ele>
        <time>2025-01-22T09:41:54.526Z</time>
      </trkpt>
      <trkpt lat="46.72361" lon="-1.98117">
        <ele>4</ele>
        <time>2025-01-22T09:41:55.525Z</time>
      </trkpt>
      <trkpt lat="46.72359" lon="-1.98116">
        <ele>4.1</ele>
        <time>2025-01-22T09:41:56.525Z</time>
      </trkpt>
      <trkpt lat="46.72357" lon="-1.98115">
        <ele>4.1</ele>
        <time>2025-01-22T09:41:57.526Z</time>
      </trkpt>
      <trkpt lat="46.72355" lon="-1.98112">
        <ele>4.2</ele>
        <time>2025-01-22T09:41:58.526Z</time>
      </trkpt>
      <trkpt lat="46.72352" lon="-1.9811">
        <ele>4.4</ele>
        <time>2025-01-22T09:41:59.525Z</time>
      </trkpt>
      <trkpt lat="46.72349" lon="-1.98108">
        <ele>4.5</ele>
        <time>2025-01-22T09:42:00.525Z</time>
      </trkpt>
      <trkpt lat="46.72346" lon="-1.98105">
        <ele>4.6</ele>
        <time>2025-01-22T09:42:01.526Z</time>
      </trkpt>
      <trkpt lat="46.72344" lon="-1.98104">
        <ele>4.7</ele>
        <time>2025-01-22T09:42:02.526Z</time>
      </trkpt>
      <trkpt lat="46.72341" lon="-1.98104">
        <ele>4.8</ele>
        <time>2025-01-22T09:42:03.526Z</time>
      </trkpt>
      <trkpt lat="46.72339" lon="-1.98103">
        <ele>4.9</ele>
        <time>2025-01-22T09:42:04.526Z</time>
      </trkpt>
      <trkpt lat="46.72337" lon="-1.98101">
        <ele>4.9</ele>
        <time>2025-01-22T09:42:05.525Z</time>
      </trkpt>
      <trkpt lat="46.72334" lon="-1.98099">
        <ele>5</ele>
        <time>2025-01-22T09:42:06.526Z</time>
      </trkpt>
      <trkpt lat="46.72332" lon="-1.98096">
        <ele>5</ele>
        <time>2025-01-22T09:42:07.526Z</time>
      </trkpt>
      <trkpt lat="46.72329" lon="-1.98094">
        <ele>5</ele>
        <time>2025-01-22T09:42:08.526Z</time>
      </trkpt>
      <trkpt lat="46.72326" lon="-1.98091">
        <ele>5</ele>
        <time>2025-01-22T09:42:09.526Z</time>
      </trkpt>
      <trkpt lat="46.72323" lon="-1.98089">
        <ele>5</ele>
        <time>2025-01-22T09:42:10.526Z</time>
      </trkpt>
      <trkpt lat="46.72321" lon="-1.98088">
        <ele>5</ele>
        <time>2025-01-22T09:42:11.526Z</time>
      </trkpt>
      <trkpt lat="46.72318" lon="-1.98086">
        <ele>5</ele>
        <time>2025-01-22T09:42:12.525Z</time>
      </trkpt>
      <trkpt lat="46.72316" lon="-1.98085">
        <ele>5</ele>
        <time>2025-01-22T09:42:13.525Z</time>
      </trkpt>
      <trkpt lat="46.72313" lon="-1.98083">
        <ele>5</ele>
        <time>2025-01-22T09:42:14.526Z</time>
      </trkpt>
      <trkpt lat="46.72312" lon="-1.98082">
        <ele>5</ele>
        <time>2025-01-22T09:42:15.526Z</time>
      </trkpt>
      <trkpt lat="46.72312" lon="-1.9808">
        <ele>5</ele>
        <time>2025-01-22T09:42:16.526Z</time>
      </trkpt>
      <trkpt lat="46.72313" lon="-1.98079">
        <ele>5</ele>
        <time>2025-01-22T09:42:17.526Z</time>
      </trkpt>
      <trkpt lat="46.72314" lon="-1.98078">
        <ele>5</ele>
        <time>2025-01-22T09:42:18.525Z</time>
      </trkpt>
      <trkpt lat="46.72315" lon="-1.98077">
        <ele>5</ele>
        <time>2025-01-22T09:42:19.525Z</time>
      </trkpt>
      <trkpt lat="46.72316" lon="-1.98077">
        <ele>5</ele>
        <time>2025-01-22T09:42:20.526Z</time>
      </trkpt>
      <trkpt lat="46.72317" lon="-1.98076">
        <ele>5</ele>
        <time>2025-01-22T09:42:21.526Z</time>
      </trkpt>
      <trkpt lat="46.72319" lon="-1.98076">
        <ele>5</ele>
        <time>2025-01-22T09:42:22.525Z</time>
      </trkpt>
      <trkpt lat="46.72321" lon="-1.98075">
        <ele>5</ele>
        <time>2025-01-22T09:42:23.526Z</time>
      </trkpt>
      <trkpt lat="46.72323" lon="-1.98074">
        <ele>5</ele>
        <time>2025-01-22T09:42:24.526Z</time>
      </trkpt>
      <trkpt lat="46.72325" lon="-1.98073">
        <ele>5</ele>
        <time>2025-01-22T09:42:25.526Z</time>
      </trkpt>
      <trkpt lat="46.72326" lon="-1.98072">
        <ele>5</ele>
        <time>2025-01-22T09:42:26.525Z</time>
      </trkpt>
      <trkpt lat="46.72327" lon="-1.98071">
        <ele>5</ele>
        <time>2025-01-22T09:42:27.525Z</time>
      </trkpt>
      <trkpt lat="46.7233" lon="-1.98068">
        <ele>5</ele>
        <time>2025-01-22T09:42:28.526Z</time>
      </trkpt>
      <trkpt lat="46.72333" lon="-1.98066">
        <ele>5</ele>
        <time>2025-01-22T09:42:29.526Z</time>
      </trkpt>
      <trkpt lat="46.72336" lon="-1.98065">
        <ele>5</ele>
        <time>2025-01-22T09:42:30.525Z</time>
      </trkpt>
      <trkpt lat="46.72339" lon="-1.98063">
        <ele>5</ele>
        <time>2025-01-22T09:42:31.525Z</time>
      </trkpt>
      <trkpt lat="46.72341" lon="-1.98061">
        <ele>5</ele>
        <time>2025-01-22T09:42:32.525Z</time>
      </trkpt>
      <trkpt lat="46.72344" lon="-1.98058">
        <ele>5</ele>
        <time>2025-01-22T09:42:33.525Z</time>
      </trkpt>
      <trkpt lat="46.72346" lon="-1.98055">
        <ele>5</ele>
        <time>2025-01-22T09:42:34.525Z</time>
      </trkpt>
      <trkpt lat="46.72347" lon="-1.98051">
        <ele>5</ele>
        <time>2025-01-22T09:42:35.525Z</time>
      </trkpt>
      <trkpt lat="46.72347" lon="-1.98046">
        <ele>5</ele>
        <time>2025-01-22T09:42:36.526Z</time>
      </trkpt>
      <trkpt lat="46.72348" lon="-1.98042">
        <ele>5</ele>
        <time>2025-01-22T09:42:37.526Z</time>
      </trkpt>
      <trkpt lat="46.72349" lon="-1.98038">
        <ele>5</ele>
        <time>2025-01-22T09:42:38.525Z</time>
      </trkpt>
      <trkpt lat="46.7235" lon="-1.98034">
        <ele>5</ele>
        <time>2025-01-22T09:42:39.525Z</time>
      </trkpt>
      <trkpt lat="46.72352" lon="-1.98031">
        <ele>5</ele>
        <time>2025-01-22T09:42:40.525Z</time>
      </trkpt>
      <trkpt lat="46.72353" lon="-1.98027">
        <ele>5</ele>
        <time>2025-01-22T09:42:41.526Z</time>
      </trkpt>
      <trkpt lat="46.72355" lon="-1.98025">
        <ele>5</ele>
        <time>2025-01-22T09:42:42.525Z</time>
      </trkpt>
      <trkpt lat="46.72357" lon="-1.98023">
        <ele>5</ele>
        <time>2025-01-22T09:42:43.526Z</time>
      </trkpt>
      <trkpt lat="46.72359" lon="-1.98021">
        <ele>5</ele>
        <time>2025-01-22T09:42:44.526Z</time>
      </trkpt>
      <trkpt lat="46.72361" lon="-1.9802">
        <ele>5</ele>
        <time>2025-01-22T09:42:45.526Z</time>
      </trkpt>
      <trkpt lat="46.72363" lon="-1.98019">
        <ele>5</ele>
        <time>2025-01-22T09:42:46.525Z</time>
      </trkpt>
      <trkpt lat="46.72364" lon="-1.98018">
        <ele>5</ele>
        <time>2025-01-22T09:42:47.526Z</time>
      </trkpt>
      <trkpt lat="46.72366" lon="-1.98016">
        <ele>5</ele>
        <time>2025-01-22T09:42:48.526Z</time>
      </trkpt>
      <trkpt lat="46.72368" lon="-1.98015">
        <ele>5</ele>
        <time>2025-01-22T09:42:49.526Z</time>
      </trkpt>
      <trkpt lat="46.7237" lon="-1.98013">
        <ele>5</ele>
        <time>2025-01-22T09:42:50.525Z</time>
      </trkpt>
      <trkpt lat="46.72371" lon="-1.98011">
        <ele>5</ele>
        <time>2025-01-22T09:42:51.525Z</time>
      </trkpt>
      <trkpt lat="46.72372" lon="-1.98009">
        <ele>5</ele>
        <time>2025-01-22T09:42:52.525Z</time>
      </trkpt>
      <trkpt lat="46.72374" lon="-1.98007">
        <ele>5</ele>
        <time>2025-01-22T09:42:53.526Z</time>
      </trkpt>
      <trkpt lat="46.72376" lon="-1.98005">
        <ele>5</ele>
        <time>2025-01-22T09:42:54.526Z</time>
      </trkpt>
      <trkpt lat="46.72378" lon="-1.98002">
        <ele>5</ele>
        <time>2025-01-22T09:42:55.526Z</time>
      </trkpt>
      <trkpt lat="46.72379" lon="-1.97999">
        <ele>5</ele>
        <time>2025-01-22T09:42:56.526Z</time>
      </trkpt>
      <trkpt lat="46.72382" lon="-1.97997">
        <ele>5</ele>
        <time>2025-01-22T09:42:57.526Z</time>
      </trkpt>
      <trkpt lat="46.72383" lon="-1.97994">
        <ele>5</ele>
        <time>2025-01-22T09:42:58.525Z</time>
      </trkpt>
      <trkpt lat="46.72385" lon="-1.97991">
        <ele>5</ele>
        <time>2025-01-22T09:42:59.525Z</time>
      </trkpt>
      <trkpt lat="46.72387" lon="-1.97989">
        <ele>5</ele>
        <time>2025-01-22T09:43:00.525Z</time>
      </trkpt>
      <trkpt lat="46.72389" lon="-1.97987">
        <ele>5</ele>
        <time>2025-01-22T09:43:01.525Z</time>
      </trkpt>
      <trkpt lat="46.7239" lon="-1.97985">
        <ele>5</ele>
        <time>2025-01-22T09:43:02.525Z</time>
      </trkpt>
      <trkpt lat="46.72392" lon="-1.97982">
        <ele>5</ele>
        <time>2025-01-22T09:43:03.526Z</time>
      </trkpt>
      <trkpt lat="46.72394" lon="-1.97979">
        <ele>5</ele>
        <time>2025-01-22T09:43:04.525Z</time>
      </trkpt>
      <trkpt lat="46.72396" lon="-1.97977">
        <ele>5</ele>
        <time>2025-01-22T09:43:05.525Z</time>
      </trkpt>
      <trkpt lat="46.72399" lon="-1.97974">
        <ele>5</ele>
        <time>2025-01-22T09:43:06.525Z</time>
      </trkpt>
      <trkpt lat="46.72401" lon="-1.97971">
        <ele>5</ele>
        <time>2025-01-22T09:43:07.525Z</time>
      </trkpt>
      <trkpt lat="46.72403" lon="-1.97969">
        <ele>5</ele>
        <time>2025-01-22T09:43:08.526Z</time>
      </trkpt>
      <trkpt lat="46.72404" lon="-1.97967">
        <ele>5</ele>
        <time>2025-01-22T09:43:09.525Z</time>
      </trkpt>
      <trkpt lat="46.72406" lon="-1.97965">
        <ele>5</ele>
        <time>2025-01-22T09:43:10.526Z</time>
      </trkpt>
      <trkpt lat="46.72408" lon="-1.97963">
        <ele>5</ele>
        <time>2025-01-22T09:43:11.526Z</time>
      </trkpt>
      <trkpt lat="46.7241" lon="-1.9796">
        <ele>5</ele>
        <time>2025-01-22T09:43:12.526Z</time>
      </trkpt>
      <trkpt lat="46.72413" lon="-1.97956">
        <ele>5</ele>
        <time>2025-01-22T09:43:13.526Z</time>
      </trkpt>
      <trkpt lat="46.72416" lon="-1.97952">
        <ele>5</ele>
        <time>2025-01-22T09:43:14.526Z</time>
      </trkpt>
      <trkpt lat="46.72418" lon="-1.97948">
        <ele>5</ele>
        <time>2025-01-22T09:43:15.526Z</time>
      </trkpt>
      <trkpt lat="46.72419" lon="-1.97944">
        <ele>4.9</ele>
        <time>2025-01-22T09:43:16.525Z</time>
      </trkpt>
      <trkpt lat="46.72421" lon="-1.9794">
        <ele>4.9</ele>
        <time>2025-01-22T09:43:17.525Z</time>
      </trkpt>
      <trkpt lat="46.72422" lon="-1.97936">
        <ele>4.9</ele>
        <time>2025-01-22T09:43:18.525Z</time>
      </trkpt>
      <trkpt lat="46.72423" lon="-1.97931">
        <ele>4.9</ele>
        <time>2025-01-22T09:43:19.525Z</time>
      </trkpt>
      <trkpt lat="46.72424" lon="-1.97926">
        <ele>4.9</ele>
        <time>2025-01-22T09:43:20.526Z</time>
      </trkpt>
      <trkpt lat="46.72424" lon="-1.97921">
        <ele>5</ele>
        <time>2025-01-22T09:43:21.525Z</time>
      </trkpt>
      <trkpt lat="46.72424" lon="-1.97917">
        <ele>5</ele>
        <time>2025-01-22T09:43:22.525Z</time>
      </trkpt>
      <trkpt lat="46.72423" lon="-1.97913">
        <ele>5</ele>
        <time>2025-01-22T09:43:23.525Z</time>
      </trkpt>
      <trkpt lat="46.72422" lon="-1.97908">
        <ele>5</ele>
        <time>2025-01-22T09:43:24.525Z</time>
      </trkpt>
      <trkpt lat="46.72421" lon="-1.97903">
        <ele>5</ele>
        <time>2025-01-22T09:43:25.526Z</time>
      </trkpt>
      <trkpt lat="46.72421" lon="-1.97901">
        <ele>5</ele>
        <time>2025-01-22T09:43:26.525Z</time>
      </trkpt>
      <trkpt lat="46.7242" lon="-1.97898">
        <ele>5</ele>
        <time>2025-01-22T09:43:27.526Z</time>
      </trkpt>
      <trkpt lat="46.7242" lon="-1.97895">
        <ele>5</ele>
        <time>2025-01-22T09:43:28.525Z</time>
      </trkpt>
      <trkpt lat="46.72419" lon="-1.97891">
        <ele>5</ele>
        <time>2025-01-22T09:43:29.526Z</time>
      </trkpt>
      <trkpt lat="46.72419" lon="-1.97887">
        <ele>5</ele>
        <time>2025-01-22T09:43:30.526Z</time>
      </trkpt>
      <trkpt lat="46.72419" lon="-1.97884">
        <ele>5</ele>
        <time>2025-01-22T09:43:31.525Z</time>
      </trkpt>
      <trkpt lat="46.72419" lon="-1.97881">
        <ele>5</ele>
        <time>2025-01-22T09:43:32.525Z</time>
      </trkpt>
      <trkpt lat="46.72418" lon="-1.97878">
        <ele>5</ele>
        <time>2025-01-22T09:43:33.525Z</time>
      </trkpt>
      <trkpt lat="46.72418" lon="-1.97875">
        <ele>5</ele>
        <time>2025-01-22T09:43:34.525Z</time>
      </trkpt>
      <trkpt lat="46.72418" lon="-1.97872">
        <ele>5</ele>
        <time>2025-01-22T09:43:35.526Z</time>
      </trkpt>
      <trkpt lat="46.72419" lon="-1.97869">
        <ele>5</ele>
        <time>2025-01-22T09:43:36.526Z</time>
      </trkpt>
      <trkpt lat="46.72419" lon="-1.97867">
        <ele>5</ele>
        <time>2025-01-22T09:43:37.525Z</time>
      </trkpt>
      <trkpt lat="46.72419" lon="-1.97865">
        <ele>5</ele>
        <time>2025-01-22T09:43:38.525Z</time>
      </trkpt>
      <trkpt lat="46.72419" lon="-1.97863">
        <ele>5</ele>
        <time>2025-01-22T09:43:39.525Z</time>
      </trkpt>
      <trkpt lat="46.7242" lon="-1.97861">
        <ele>5</ele>
        <time>2025-01-22T09:43:40.526Z</time>
      </trkpt>
      <trkpt lat="46.72422" lon="-1.97859">
        <ele>5</ele>
        <time>2025-01-22T09:43:41.526Z</time>
      </trkpt>
      <trkpt lat="46.72423" lon="-1.97857">
        <ele>5</ele>
        <time>2025-01-22T09:43:42.526Z</time>
      </trkpt>
      <trkpt lat="46.72424" lon="-1.97855">
        <ele>5.1</ele>
        <time>2025-01-22T09:43:43.526Z</time>
      </trkpt>
      <trkpt lat="46.72426" lon="-1.97852">
        <ele>5.1</ele>
        <time>2025-01-22T09:43:44.525Z</time>
      </trkpt>
      <trkpt lat="46.72427" lon="-1.97849">
        <ele>5.2</ele>
        <time>2025-01-22T09:43:45.525Z</time>
      </trkpt>
      <trkpt lat="46.72428" lon="-1.97846">
        <ele>5.2</ele>
        <time>2025-01-22T09:43:46.525Z</time>
      </trkpt>
      <trkpt lat="46.72429" lon="-1.97843">
        <ele>5.3</ele>
        <time>2025-01-22T09:43:47.525Z</time>
      </trkpt>
      <trkpt lat="46.7243" lon="-1.97841">
        <ele>5.3</ele>
        <time>2025-01-22T09:43:48.526Z</time>
      </trkpt>
      <trkpt lat="46.72431" lon="-1.97838">
        <ele>5.4</ele>
        <time>2025-01-22T09:43:49.525Z</time>
      </trkpt>
      <trkpt lat="46.72432" lon="-1.97836">
        <ele>5.5</ele>
        <time>2025-01-22T09:43:50.526Z</time>
      </trkpt>
      <trkpt lat="46.72433" lon="-1.97833">
        <ele>5.6</ele>
        <time>2025-01-22T09:43:51.526Z</time>
      </trkpt>
      <trkpt lat="46.72435" lon="-1.9783">
        <ele>5.6</ele>
        <time>2025-01-22T09:43:52.526Z</time>
      </trkpt>
      <trkpt lat="46.72437" lon="-1.97828">
        <ele>5.6</ele>
        <time>2025-01-22T09:43:53.526Z</time>
      </trkpt>
      <trkpt lat="46.72438" lon="-1.97826">
        <ele>5.6</ele>
        <time>2025-01-22T09:43:54.526Z</time>
      </trkpt>
      <trkpt lat="46.7244" lon="-1.97824">
        <ele>5.6</ele>
        <time>2025-01-22T09:43:55.526Z</time>
      </trkpt>
      <trkpt lat="46.72441" lon="-1.97822">
        <ele>5.6</ele>
        <time>2025-01-22T09:43:56.526Z</time>
      </trkpt>
      <trkpt lat="46.72443" lon="-1.9782">
        <ele>5.5</ele>
        <time>2025-01-22T09:43:57.526Z</time>
      </trkpt>
      <trkpt lat="46.72445" lon="-1.97819">
        <ele>5.5</ele>
        <time>2025-01-22T09:43:58.525Z</time>
      </trkpt>
      <trkpt lat="46.72446" lon="-1.97817">
        <ele>5.4</ele>
        <time>2025-01-22T09:43:59.525Z</time>
      </trkpt>
      <trkpt lat="46.72448" lon="-1.97814">
        <ele>5.3</ele>
        <time>2025-01-22T09:44:00.525Z</time>
      </trkpt>
      <trkpt lat="46.72451" lon="-1.97812">
        <ele>5.2</ele>
        <time>2025-01-22T09:44:01.525Z</time>
      </trkpt>
      <trkpt lat="46.72452" lon="-1.97811">
        <ele>5.1</ele>
        <time>2025-01-22T09:44:02.526Z</time>
      </trkpt>
      <trkpt lat="46.72454" lon="-1.97809">
        <ele>5.1</ele>
        <time>2025-01-22T09:44:03.525Z</time>
      </trkpt>
      <trkpt lat="46.72456" lon="-1.97807">
        <ele>5</ele>
        <time>2025-01-22T09:44:04.525Z</time>
      </trkpt>
      <trkpt lat="46.72457" lon="-1.97805">
        <ele>5</ele>
        <time>2025-01-22T09:44:05.525Z</time>
      </trkpt>
      <trkpt lat="46.72459" lon="-1.97803">
        <ele>5</ele>
        <time>2025-01-22T09:44:06.525Z</time>
      </trkpt>
      <trkpt lat="46.72461" lon="-1.97801">
        <ele>5</ele>
        <time>2025-01-22T09:44:07.526Z</time>
      </trkpt>
      <trkpt lat="46.72462" lon="-1.978">
        <ele>5</ele>
        <time>2025-01-22T09:44:08.526Z</time>
      </trkpt>
      <trkpt lat="46.72464" lon="-1.97799">
        <ele>5</ele>
        <time>2025-01-22T09:44:09.526Z</time>
      </trkpt>
      <trkpt lat="46.72466" lon="-1.97797">
        <ele>5</ele>
        <time>2025-01-22T09:44:10.526Z</time>
      </trkpt>
      <trkpt lat="46.72468" lon="-1.97796">
        <ele>5</ele>
        <time>2025-01-22T09:44:11.525Z</time>
      </trkpt>
      <trkpt lat="46.7247" lon="-1.97794">
        <ele>5</ele>
        <time>2025-01-22T09:44:12.525Z</time>
      </trkpt>
      <trkpt lat="46.72472" lon="-1.97792">
        <ele>5</ele>
        <time>2025-01-22T09:44:13.526Z</time>
      </trkpt>
      <trkpt lat="46.72474" lon="-1.97791">
        <ele>5.1</ele>
        <time>2025-01-22T09:44:14.526Z</time>
      </trkpt>
      <trkpt lat="46.72476" lon="-1.97788">
        <ele>5.1</ele>
        <time>2025-01-22T09:44:15.526Z</time>
      </trkpt>
      <trkpt lat="46.72478" lon="-1.97787">
        <ele>5.2</ele>
        <time>2025-01-22T09:44:16.525Z</time>
      </trkpt>
      <trkpt lat="46.7248" lon="-1.97785">
        <ele>5.3</ele>
        <time>2025-01-22T09:44:17.525Z</time>
      </trkpt>
      <trkpt lat="46.72482" lon="-1.97783">
        <ele>5.3</ele>
        <time>2025-01-22T09:44:18.525Z</time>
      </trkpt>
      <trkpt lat="46.72484" lon="-1.97782">
        <ele>5.4</ele>
        <time>2025-01-22T09:44:19.526Z</time>
      </trkpt>
      <trkpt lat="46.72485" lon="-1.9778">
        <ele>5.5</ele>
        <time>2025-01-22T09:44:20.525Z</time>
      </trkpt>
      <trkpt lat="46.72487" lon="-1.97779">
        <ele>5.5</ele>
        <time>2025-01-22T09:44:21.525Z</time>
      </trkpt>
      <trkpt lat="46.72489" lon="-1.97778">
        <ele>5.6</ele>
        <time>2025-01-22T09:44:22.526Z</time>
      </trkpt>
      <trkpt lat="46.72491" lon="-1.97776">
        <ele>5.7</ele>
        <time>2025-01-22T09:44:23.525Z</time>
      </trkpt>
      <trkpt lat="46.72493" lon="-1.97774">
        <ele>5.8</ele>
        <time>2025-01-22T09:44:24.526Z</time>
      </trkpt>
      <trkpt lat="46.72495" lon="-1.97772">
        <ele>5.8</ele>
        <time>2025-01-22T09:44:25.526Z</time>
      </trkpt>
      <trkpt lat="46.72498" lon="-1.97771">
        <ele>5.9</ele>
        <time>2025-01-22T09:44:26.526Z</time>
      </trkpt>
      <trkpt lat="46.725" lon="-1.9777">
        <ele>6</ele>
        <time>2025-01-22T09:44:27.525Z</time>
      </trkpt>
      <trkpt lat="46.72502" lon="-1.97769">
        <ele>6</ele>
        <time>2025-01-22T09:44:28.526Z</time>
      </trkpt>
      <trkpt lat="46.72504" lon="-1.97769">
        <ele>5.9</ele>
        <time>2025-01-22T09:44:29.525Z</time>
      </trkpt>
      <trkpt lat="46.72506" lon="-1.97769">
        <ele>5.9</ele>
        <time>2025-01-22T09:44:30.526Z</time>
      </trkpt>
      <trkpt lat="46.72508" lon="-1.9777">
        <ele>5.8</ele>
        <time>2025-01-22T09:44:31.526Z</time>
      </trkpt>
      <trkpt lat="46.7251" lon="-1.9777">
        <ele>5.7</ele>
        <time>2025-01-22T09:44:32.526Z</time>
      </trkpt>
      <trkpt lat="46.72512" lon="-1.9777">
        <ele>5.7</ele>
        <time>2025-01-22T09:44:33.526Z</time>
      </trkpt>
      <trkpt lat="46.72513" lon="-1.9777">
        <ele>5.7</ele>
        <time>2025-01-22T09:44:34.526Z</time>
      </trkpt>
      <trkpt lat="46.72514" lon="-1.97771">
        <ele>5.6</ele>
        <time>2025-01-22T09:44:35.526Z</time>
      </trkpt>
      <trkpt lat="46.72515" lon="-1.97771">
        <ele>5.6</ele>
        <time>2025-01-22T09:44:36.526Z</time>
      </trkpt>
      <trkpt lat="46.72518" lon="-1.97771">
        <ele>5.5</ele>
        <time>2025-01-22T09:44:37.526Z</time>
      </trkpt>
      <trkpt lat="46.7252" lon="-1.97772">
        <ele>5.4</ele>
        <time>2025-01-22T09:44:38.525Z</time>
      </trkpt>
      <trkpt lat="46.72523" lon="-1.97773">
        <ele>5.3</ele>
        <time>2025-01-22T09:44:39.525Z</time>
      </trkpt>
      <trkpt lat="46.72524" lon="-1.97774">
        <ele>5.2</ele>
        <time>2025-01-22T09:44:40.526Z</time>
      </trkpt>
      <trkpt lat="46.72526" lon="-1.97776">
        <ele>5.1</ele>
        <time>2025-01-22T09:44:41.526Z</time>
      </trkpt>
      <trkpt lat="46.72527" lon="-1.97778">
        <ele>5</ele>
        <time>2025-01-22T09:44:42.526Z</time>
      </trkpt>
      <trkpt lat="46.72529" lon="-1.97779">
        <ele>5</ele>
        <time>2025-01-22T09:44:43.525Z</time>
      </trkpt>
      <trkpt lat="46.7253" lon="-1.97781">
        <ele>5</ele>
        <time>2025-01-22T09:44:44.525Z</time>
      </trkpt>
      <trkpt lat="46.72531" lon="-1.97782">
        <ele>5</ele>
        <time>2025-01-22T09:44:45.525Z</time>
      </trkpt>
      <trkpt lat="46.72532" lon="-1.97784">
        <ele>5</ele>
        <time>2025-01-22T09:44:46.525Z</time>
      </trkpt>
      <trkpt lat="46.72534" lon="-1.97786">
        <ele>5</ele>
        <time>2025-01-22T09:44:47.525Z</time>
      </trkpt>
      <trkpt lat="46.72535" lon="-1.97788">
        <ele>5</ele>
        <time>2025-01-22T09:44:48.525Z</time>
      </trkpt>
      <trkpt lat="46.72537" lon="-1.9779">
        <ele>5</ele>
        <time>2025-01-22T09:44:49.525Z</time>
      </trkpt>
      <trkpt lat="46.72538" lon="-1.97792">
        <ele>5</ele>
        <time>2025-01-22T09:44:50.526Z</time>
      </trkpt>
      <trkpt lat="46.7254" lon="-1.97793">
        <ele>5</ele>
        <time>2025-01-22T09:44:51.526Z</time>
      </trkpt>
      <trkpt lat="46.72543" lon="-1.97794">
        <ele>5</ele>
        <time>2025-01-22T09:44:52.526Z</time>
      </trkpt>
      <trkpt lat="46.72546" lon="-1.97796">
        <ele>5</ele>
        <time>2025-01-22T09:44:53.525Z</time>
      </trkpt>
      <trkpt lat="46.72548" lon="-1.97797">
        <ele>5</ele>
        <time>2025-01-22T09:44:54.526Z</time>
      </trkpt>
      <trkpt lat="46.72551" lon="-1.97798">
        <ele>5</ele>
        <time>2025-01-22T09:44:55.526Z</time>
      </trkpt>
      <trkpt lat="46.72553" lon="-1.97799">
        <ele>5</ele>
        <time>2025-01-22T09:44:56.526Z</time>
      </trkpt>
      <trkpt lat="46.72556" lon="-1.97799">
        <ele>5</ele>
        <time>2025-01-22T09:44:57.525Z</time>
      </trkpt>
      <trkpt lat="46.72558" lon="-1.978">
        <ele>5</ele>
        <time>2025-01-22T09:44:58.526Z</time>
      </trkpt>
      <trkpt lat="46.7256" lon="-1.97801">
        <ele>5</ele>
        <time>2025-01-22T09:44:59.526Z</time>
      </trkpt>
      <trkpt lat="46.72563" lon="-1.97802">
        <ele>5</ele>
        <time>2025-01-22T09:45:00.525Z</time>
      </trkpt>
      <trkpt lat="46.72565" lon="-1.97802">
        <ele>5</ele>
        <time>2025-01-22T09:45:01.525Z</time>
      </trkpt>
      <trkpt lat="46.72567" lon="-1.97801">
        <ele>5</ele>
        <time>2025-01-22T09:45:02.525Z</time>
      </trkpt>
      <trkpt lat="46.7257" lon="-1.978">
        <ele>5</ele>
        <time>2025-01-22T09:45:03.525Z</time>
      </trkpt>
      <trkpt lat="46.72572" lon="-1.97798">
        <ele>5</ele>
        <time>2025-01-22T09:45:04.525Z</time>
      </trkpt>
      <trkpt lat="46.72574" lon="-1.97797">
        <ele>5</ele>
        <time>2025-01-22T09:45:05.526Z</time>
      </trkpt>
      <trkpt lat="46.72576" lon="-1.97797">
        <ele>5</ele>
        <time>2025-01-22T09:45:06.525Z</time>
      </trkpt>
      <trkpt lat="46.72578" lon="-1.97797">
        <ele>5</ele>
        <time>2025-01-22T09:45:07.525Z</time>
      </trkpt>
      <trkpt lat="46.72581" lon="-1.97797">
        <ele>5</ele>
        <time>2025-01-22T09:45:08.525Z</time>
      </trkpt>
      <trkpt lat="46.72584" lon="-1.97797">
        <ele>5</ele>
        <time>2025-01-22T09:45:09.526Z</time>
      </trkpt>
      <trkpt lat="46.72586" lon="-1.97796">
        <ele>5.1</ele>
        <time>2025-01-22T09:45:10.526Z</time>
      </trkpt>
      <trkpt lat="46.72589" lon="-1.97796">
        <ele>5.1</ele>
        <time>2025-01-22T09:45:11.525Z</time>
      </trkpt>
      <trkpt lat="46.72592" lon="-1.97795">
        <ele>5.2</ele>
        <time>2025-01-22T09:45:12.525Z</time>
      </trkpt>
      <trkpt lat="46.72594" lon="-1.97795">
        <ele>5.2</ele>
        <time>2025-01-22T09:45:13.525Z</time>
      </trkpt>
      <trkpt lat="46.72596" lon="-1.97794">
        <ele>5.3</ele>
        <time>2025-01-22T09:45:14.525Z</time>
      </trkpt>
      <trkpt lat="46.72599" lon="-1.97794">
        <ele>5.3</ele>
        <time>2025-01-22T09:45:15.526Z</time>
      </trkpt>
      <trkpt lat="46.72602" lon="-1.97793">
        <ele>5.4</ele>
        <time>2025-01-22T09:45:16.526Z</time>
      </trkpt>
      <trkpt lat="46.72605" lon="-1.97792">
        <ele>5.4</ele>
        <time>2025-01-22T09:45:17.525Z</time>
      </trkpt>
      <trkpt lat="46.72607" lon="-1.97789">
        <ele>5.4</ele>
        <time>2025-01-22T09:45:18.525Z</time>
      </trkpt>
      <trkpt lat="46.72611" lon="-1.97785">
        <ele>5.3</ele>
        <time>2025-01-22T09:45:19.525Z</time>
      </trkpt>
      <trkpt lat="46.72613" lon="-1.97782">
        <ele>5.2</ele>
        <time>2025-01-22T09:45:20.526Z</time>
      </trkpt>
      <trkpt lat="46.72615" lon="-1.97779">
        <ele>5</ele>
        <time>2025-01-22T09:45:21.526Z</time>
      </trkpt>
      <trkpt lat="46.72618" lon="-1.97775">
        <ele>5</ele>
        <time>2025-01-22T09:45:22.525Z</time>
      </trkpt>
      <trkpt lat="46.7262" lon="-1.97772">
        <ele>5</ele>
        <time>2025-01-22T09:45:23.525Z</time>
      </trkpt>
      <trkpt lat="46.72622" lon="-1.97769">
        <ele>5</ele>
        <time>2025-01-22T09:45:24.525Z</time>
      </trkpt>
      <trkpt lat="46.72623" lon="-1.97767">
        <ele>5</ele>
        <time>2025-01-22T09:45:25.526Z</time>
      </trkpt>
      <trkpt lat="46.72625" lon="-1.97764">
        <ele>5</ele>
        <time>2025-01-22T09:45:26.525Z</time>
      </trkpt>
      <trkpt lat="46.72626" lon="-1.97761">
        <ele>5</ele>
        <time>2025-01-22T09:45:27.525Z</time>
      </trkpt>
      <trkpt lat="46.72627" lon="-1.97758">
        <ele>5</ele>
        <time>2025-01-22T09:45:28.525Z</time>
      </trkpt>
      <trkpt lat="46.72629" lon="-1.97756">
        <ele>5</ele>
        <time>2025-01-22T09:45:29.526Z</time>
      </trkpt>
      <trkpt lat="46.7263" lon="-1.97755">
        <ele>5</ele>
        <time>2025-01-22T09:45:30.526Z</time>
      </trkpt>
      <trkpt lat="46.72632" lon="-1.97753">
        <ele>5</ele>
        <time>2025-01-22T09:45:31.526Z</time>
      </trkpt>
      <trkpt lat="46.72634" lon="-1.97752">
        <ele>5</ele>
        <time>2025-01-22T09:45:32.525Z</time>
      </trkpt>
      <trkpt lat="46.72636" lon="-1.9775">
        <ele>5</ele>
        <time>2025-01-22T09:45:33.526Z</time>
      </trkpt>
      <trkpt lat="46.72639" lon="-1.97749">
        <ele>5</ele>
        <time>2025-01-22T09:45:34.526Z</time>
      </trkpt>
      <trkpt lat="46.72641" lon="-1.97748">
        <ele>5</ele>
        <time>2025-01-22T09:45:35.525Z</time>
      </trkpt>
      <trkpt lat="46.72643" lon="-1.97749">
        <ele>5</ele>
        <time>2025-01-22T09:45:36.525Z</time>
      </trkpt>
      <trkpt lat="46.72646" lon="-1.97749">
        <ele>5</ele>
        <time>2025-01-22T09:45:37.526Z</time>
      </trkpt>
      <trkpt lat="46.72648" lon="-1.9775">
        <ele>5</ele>
        <time>2025-01-22T09:45:38.525Z</time>
      </trkpt>
      <trkpt lat="46.72651" lon="-1.97751">
        <ele>5</ele>
        <time>2025-01-22T09:45:39.526Z</time>
      </trkpt>
      <trkpt lat="46.72653" lon="-1.97752">
        <ele>5</ele>
        <time>2025-01-22T09:45:40.526Z</time>
      </trkpt>
      <trkpt lat="46.72655" lon="-1.97753">
        <ele>5</ele>
        <time>2025-01-22T09:45:41.526Z</time>
      </trkpt>
      <trkpt lat="46.72658" lon="-1.97755">
        <ele>5</ele>
        <time>2025-01-22T09:45:42.525Z</time>
      </trkpt>
      <trkpt lat="46.72659" lon="-1.97755">
        <ele>5</ele>
        <time>2025-01-22T09:45:43.525Z</time>
      </trkpt>
      <trkpt lat="46.72661" lon="-1.97755">
        <ele>5</ele>
        <time>2025-01-22T09:45:44.525Z</time>
      </trkpt>
      <trkpt lat="46.72663" lon="-1.97756">
        <ele>5</ele>
        <time>2025-01-22T09:45:45.526Z</time>
      </trkpt>
      <trkpt lat="46.72665" lon="-1.97757">
        <ele>5</ele>
        <time>2025-01-22T09:45:46.526Z</time>
      </trkpt>
      <trkpt lat="46.72668" lon="-1.97759">
        <ele>5</ele>
        <time>2025-01-22T09:45:47.525Z</time>
      </trkpt>
      <trkpt lat="46.7267" lon="-1.97761">
        <ele>5</ele>
        <time>2025-01-22T09:45:48.525Z</time>
      </trkpt>
      <trkpt lat="46.72672" lon="-1.97763">
        <ele>5</ele>
        <time>2025-01-22T09:45:49.526Z</time>
      </trkpt>
      <trkpt lat="46.72674" lon="-1.97765">
        <ele>5</ele>
        <time>2025-01-22T09:45:50.526Z</time>
      </trkpt>
      <trkpt lat="46.72677" lon="-1.97766">
        <ele>5</ele>
        <time>2025-01-22T09:45:51.526Z</time>
      </trkpt>
      <trkpt lat="46.72679" lon="-1.97769">
        <ele>5</ele>
        <time>2025-01-22T09:45:52.526Z</time>
      </trkpt>
      <trkpt lat="46.72681" lon="-1.97771">
        <ele>5</ele>
        <time>2025-01-22T09:45:53.525Z</time>
      </trkpt>
      <trkpt lat="46.72684" lon="-1.97773">
        <ele>5</ele>
        <time>2025-01-22T09:45:54.526Z</time>
      </trkpt>
      <trkpt lat="46.72686" lon="-1.97774">
        <ele>5</ele>
        <time>2025-01-22T09:45:55.525Z</time>
      </trkpt>
      <trkpt lat="46.72689" lon="-1.97775">
        <ele>5</ele>
        <time>2025-01-22T09:45:56.526Z</time>
      </trkpt>
      <trkpt lat="46.72691" lon="-1.97777">
        <ele>5</ele>
        <time>2025-01-22T09:45:57.525Z</time>
      </trkpt>
      <trkpt lat="46.72693" lon="-1.97778">
        <ele>5</ele>
        <time>2025-01-22T09:45:58.526Z</time>
      </trkpt>
      <trkpt lat="46.72695" lon="-1.9778">
        <ele>4.9</ele>
        <time>2025-01-22T09:45:59.525Z</time>
      </trkpt>
      <trkpt lat="46.72697" lon="-1.97781">
        <ele>4.9</ele>
        <time>2025-01-22T09:46:00.525Z</time>
      </trkpt>
      <trkpt lat="46.72699" lon="-1.97783">
        <ele>4.9</ele>
        <time>2025-01-22T09:46:01.526Z</time>
      </trkpt>
      <trkpt lat="46.72701" lon="-1.97785">
        <ele>4.8</ele>
        <time>2025-01-22T09:46:02.525Z</time>
      </trkpt>
      <trkpt lat="46.72702" lon="-1.97786">
        <ele>4.8</ele>
        <time>2025-01-22T09:46:03.526Z</time>
      </trkpt>
      <trkpt lat="46.72704" lon="-1.97788">
        <ele>4.8</ele>
        <time>2025-01-22T09:46:04.526Z</time>
      </trkpt>
      <trkpt lat="46.72706" lon="-1.9779">
        <ele>4.8</ele>
        <time>2025-01-22T09:46:05.525Z</time>
      </trkpt>
      <trkpt lat="46.72708" lon="-1.97792">
        <ele>4.7</ele>
        <time>2025-01-22T09:46:06.526Z</time>
      </trkpt>
      <trkpt lat="46.7271" lon="-1.97794">
        <ele>4.8</ele>
        <time>2025-01-22T09:46:07.525Z</time>
      </trkpt>
      <trkpt lat="46.72713" lon="-1.97795">
        <ele>4.8</ele>
        <time>2025-01-22T09:46:08.526Z</time>
      </trkpt>
      <trkpt lat="46.72716" lon="-1.97797">
        <ele>4.8</ele>
        <time>2025-01-22T09:46:09.525Z</time>
      </trkpt>
      <trkpt lat="46.72717" lon="-1.97799">
        <ele>4.9</ele>
        <time>2025-01-22T09:46:10.526Z</time>
      </trkpt>
      <trkpt lat="46.72719" lon="-1.97801">
        <ele>4.9</ele>
        <time>2025-01-22T09:46:11.526Z</time>
      </trkpt>
      <trkpt lat="46.72721" lon="-1.97802">
        <ele>5</ele>
        <time>2025-01-22T09:46:12.525Z</time>
      </trkpt>
      <trkpt lat="46.72724" lon="-1.97804">
        <ele>5</ele>
        <time>2025-01-22T09:46:13.525Z</time>
      </trkpt>
      <trkpt lat="46.72726" lon="-1.97806">
        <ele>5</ele>
        <time>2025-01-22T09:46:14.526Z</time>
      </trkpt>
      <trkpt lat="46.72727" lon="-1.97808">
        <ele>4.9</ele>
        <time>2025-01-22T09:46:15.525Z</time>
      </trkpt>
      <trkpt lat="46.72729" lon="-1.97811">
        <ele>4.9</ele>
        <time>2025-01-22T09:46:16.525Z</time>
      </trkpt>
      <trkpt lat="46.72731" lon="-1.97813">
        <ele>4.8</ele>
        <time>2025-01-22T09:46:17.526Z</time>
      </trkpt>
      <trkpt lat="46.72733" lon="-1.97815">
        <ele>4.8</ele>
        <time>2025-01-22T09:46:18.525Z</time>
      </trkpt>
      <trkpt lat="46.72734" lon="-1.97817">
        <ele>4.8</ele>
        <time>2025-01-22T09:46:19.525Z</time>
      </trkpt>
      <trkpt lat="46.72736" lon="-1.97819">
        <ele>4.8</ele>
        <time>2025-01-22T09:46:20.526Z</time>
      </trkpt>
      <trkpt lat="46.72737" lon="-1.9782">
        <ele>4.8</ele>
        <time>2025-01-22T09:46:21.526Z</time>
      </trkpt>
      <trkpt lat="46.72738" lon="-1.97822">
        <ele>4.7</ele>
        <time>2025-01-22T09:46:22.525Z</time>
      </trkpt>
      <trkpt lat="46.7274" lon="-1.97824">
        <ele>4.8</ele>
        <time>2025-01-22T09:46:23.525Z</time>
      </trkpt>
      <trkpt lat="46.72741" lon="-1.97826">
        <ele>4.8</ele>
        <time>2025-01-22T09:46:24.525Z</time>
      </trkpt>
      <trkpt lat="46.72743" lon="-1.97829">
        <ele>4.8</ele>
        <time>2025-01-22T09:46:25.525Z</time>
      </trkpt>
      <trkpt lat="46.72745" lon="-1.97831">
        <ele>4.8</ele>
        <time>2025-01-22T09:46:26.525Z</time>
      </trkpt>
      <trkpt lat="46.72747" lon="-1.97833">
        <ele>4.9</ele>
        <time>2025-01-22T09:46:27.525Z</time>
      </trkpt>
      <trkpt lat="46.72749" lon="-1.97836">
        <ele>4.9</ele>
        <time>2025-01-22T09:46:28.525Z</time>
      </trkpt>
      <trkpt lat="46.7275" lon="-1.97838">
        <ele>4.8</ele>
        <time>2025-01-22T09:46:29.525Z</time>
      </trkpt>
      <trkpt lat="46.72752" lon="-1.97842">
        <ele>4.7</ele>
        <time>2025-01-22T09:46:30.526Z</time>
      </trkpt>
      <trkpt lat="46.72753" lon="-1.97846">
        <ele>4.6</ele>
        <time>2025-01-22T09:46:31.526Z</time>
      </trkpt>
      <trkpt lat="46.72756" lon="-1.97849">
        <ele>4.6</ele>
        <time>2025-01-22T09:46:32.526Z</time>
      </trkpt>
      <trkpt lat="46.72759" lon="-1.97852">
        <ele>4.5</ele>
        <time>2025-01-22T09:46:33.525Z</time>
      </trkpt>
      <trkpt lat="46.72761" lon="-1.97855">
        <ele>4.5</ele>
        <time>2025-01-22T09:46:34.526Z</time>
      </trkpt>
      <trkpt lat="46.72762" lon="-1.97859">
        <ele>4.5</ele>
        <time>2025-01-22T09:46:35.526Z</time>
      </trkpt>
      <trkpt lat="46.72763" lon="-1.97862">
        <ele>4.5</ele>
        <time>2025-01-22T09:46:36.526Z</time>
      </trkpt>
      <trkpt lat="46.72765" lon="-1.97865">
        <ele>4.6</ele>
        <time>2025-01-22T09:46:37.525Z</time>
      </trkpt>
      <trkpt lat="46.72766" lon="-1.97868">
        <ele>4.7</ele>
        <time>2025-01-22T09:46:38.526Z</time>
      </trkpt>
      <trkpt lat="46.72767" lon="-1.9787">
        <ele>4.7</ele>
        <time>2025-01-22T09:46:39.526Z</time>
      </trkpt>
      <trkpt lat="46.7277" lon="-1.97873">
        <ele>4.8</ele>
        <time>2025-01-22T09:46:40.525Z</time>
      </trkpt>
      <trkpt lat="46.72772" lon="-1.97875">
        <ele>4.9</ele>
        <time>2025-01-22T09:46:41.525Z</time>
      </trkpt>
      <trkpt lat="46.72775" lon="-1.97877">
        <ele>5</ele>
        <time>2025-01-22T09:46:42.526Z</time>
      </trkpt>
      <trkpt lat="46.72776" lon="-1.97879">
        <ele>5</ele>
        <time>2025-01-22T09:46:43.525Z</time>
      </trkpt>
      <trkpt lat="46.72777" lon="-1.9788">
        <ele>5</ele>
        <time>2025-01-22T09:46:44.525Z</time>
      </trkpt>
      <trkpt lat="46.72779" lon="-1.97882">
        <ele>5</ele>
        <time>2025-01-22T09:46:45.526Z</time>
      </trkpt>
      <trkpt lat="46.7278" lon="-1.97885">
        <ele>4.9</ele>
        <time>2025-01-22T09:46:46.526Z</time>
      </trkpt>
      <trkpt lat="46.72782" lon="-1.97888">
        <ele>4.9</ele>
        <time>2025-01-22T09:46:47.525Z</time>
      </trkpt>
      <trkpt lat="46.72783" lon="-1.97891">
        <ele>4.8</ele>
        <time>2025-01-22T09:46:48.526Z</time>
      </trkpt>
      <trkpt lat="46.72785" lon="-1.97894">
        <ele>4.8</ele>
        <time>2025-01-22T09:46:49.526Z</time>
      </trkpt>
      <trkpt lat="46.72788" lon="-1.97897">
        <ele>4.7</ele>
        <time>2025-01-22T09:46:50.525Z</time>
      </trkpt>
      <trkpt lat="46.72789" lon="-1.979">
        <ele>4.8</ele>
        <time>2025-01-22T09:46:51.525Z</time>
      </trkpt>
      <trkpt lat="46.72791" lon="-1.97903">
        <ele>4.8</ele>
        <time>2025-01-22T09:46:52.526Z</time>
      </trkpt>
      <trkpt lat="46.72793" lon="-1.97905">
        <ele>4.8</ele>
        <time>2025-01-22T09:46:53.525Z</time>
      </trkpt>
      <trkpt lat="46.72795" lon="-1.97908">
        <ele>4.8</ele>
        <time>2025-01-22T09:46:54.525Z</time>
      </trkpt>
      <trkpt lat="46.72797" lon="-1.9791">
        <ele>4.8</ele>
        <time>2025-01-22T09:46:55.526Z</time>
      </trkpt>
      <trkpt lat="46.72799" lon="-1.97912">
        <ele>4.9</ele>
        <time>2025-01-22T09:46:56.526Z</time>
      </trkpt>
      <trkpt lat="46.72801" lon="-1.97914">
        <ele>4.9</ele>
        <time>2025-01-22T09:46:57.526Z</time>
      </trkpt>
      <trkpt lat="46.72803" lon="-1.97916">
        <ele>5</ele>
        <time>2025-01-22T09:46:58.525Z</time>
      </trkpt>
      <trkpt lat="46.72805" lon="-1.97919">
        <ele>4.9</ele>
        <time>2025-01-22T09:46:59.526Z</time>
      </trkpt>
      <trkpt lat="46.72807" lon="-1.9792">
        <ele>4.8</ele>
        <time>2025-01-22T09:47:00.526Z</time>
      </trkpt>
      <trkpt lat="46.7281" lon="-1.97922">
        <ele>4.7</ele>
        <time>2025-01-22T09:47:01.526Z</time>
      </trkpt>
      <trkpt lat="46.72812" lon="-1.97924">
        <ele>4.6</ele>
        <time>2025-01-22T09:47:02.525Z</time>
      </trkpt>
      <trkpt lat="46.72815" lon="-1.97926">
        <ele>4.5</ele>
        <time>2025-01-22T09:47:03.526Z</time>
      </trkpt>
      <trkpt lat="46.72817" lon="-1.97928">
        <ele>4.3</ele>
        <time>2025-01-22T09:47:04.526Z</time>
      </trkpt>
      <trkpt lat="46.7282" lon="-1.9793">
        <ele>4.3</ele>
        <time>2025-01-22T09:47:05.526Z</time>
      </trkpt>
      <trkpt lat="46.72822" lon="-1.97933">
        <ele>4.2</ele>
        <time>2025-01-22T09:47:06.525Z</time>
      </trkpt>
      <trkpt lat="46.72824" lon="-1.97936">
        <ele>4.1</ele>
        <time>2025-01-22T09:47:07.525Z</time>
      </trkpt>
      <trkpt lat="46.72827" lon="-1.97937">
        <ele>4.1</ele>
        <time>2025-01-22T09:47:08.525Z</time>
      </trkpt>
      <trkpt lat="46.7283" lon="-1.97939">
        <ele>4</ele>
        <time>2025-01-22T09:47:09.526Z</time>
      </trkpt>
      <trkpt lat="46.72832" lon="-1.9794">
        <ele>4</ele>
        <time>2025-01-22T09:47:10.526Z</time>
      </trkpt>
      <trkpt lat="46.72834" lon="-1.97941">
        <ele>4</ele>
        <time>2025-01-22T09:47:11.525Z</time>
      </trkpt>
      <trkpt lat="46.72836" lon="-1.97943">
        <ele>4</ele>
        <time>2025-01-22T09:47:12.526Z</time>
      </trkpt>
      <trkpt lat="46.72838" lon="-1.97944">
        <ele>4</ele>
        <time>2025-01-22T09:47:13.526Z</time>
      </trkpt>
      <trkpt lat="46.72842" lon="-1.97947">
        <ele>4</ele>
        <time>2025-01-22T09:47:14.525Z</time>
      </trkpt>
      <trkpt lat="46.72845" lon="-1.97949">
        <ele>4.1</ele>
        <time>2025-01-22T09:47:15.525Z</time>
      </trkpt>
      <trkpt lat="46.72848" lon="-1.97951">
        <ele>4.1</ele>
        <time>2025-01-22T09:47:16.525Z</time>
      </trkpt>
      <trkpt lat="46.72851" lon="-1.97953">
        <ele>4.2</ele>
        <time>2025-01-22T09:47:17.526Z</time>
      </trkpt>
      <trkpt lat="46.72851" lon="-1.97956">
        <ele>4.3</ele>
        <time>2025-01-22T09:47:18.525Z</time>
      </trkpt>
      <trkpt lat="46.72852" lon="-1.97959">
        <ele>4.3</ele>
        <time>2025-01-22T09:47:19.525Z</time>
      </trkpt>
      <trkpt lat="46.72854" lon="-1.97961">
        <ele>4.4</ele>
        <time>2025-01-22T09:47:20.525Z</time>
      </trkpt>
      <trkpt lat="46.72856" lon="-1.97963">
        <ele>4.5</ele>
        <time>2025-01-22T09:47:21.525Z</time>
      </trkpt>
      <trkpt lat="46.72858" lon="-1.97964">
        <ele>4.6</ele>
        <time>2025-01-22T09:47:22.526Z</time>
      </trkpt>
      <trkpt lat="46.7286" lon="-1.97966">
        <ele>4.7</ele>
        <time>2025-01-22T09:47:23.526Z</time>
      </trkpt>
      <trkpt lat="46.72863" lon="-1.97967">
        <ele>4.9</ele>
        <time>2025-01-22T09:47:24.526Z</time>
      </trkpt>
      <trkpt lat="46.72867" lon="-1.97968">
        <ele>5.1</ele>
        <time>2025-01-22T09:47:25.526Z</time>
      </trkpt>
      <trkpt lat="46.72869" lon="-1.97969">
        <ele>5.2</ele>
        <time>2025-01-22T09:47:26.525Z</time>
      </trkpt>
      <trkpt lat="46.72872" lon="-1.97969">
        <ele>5.3</ele>
        <time>2025-01-22T09:47:27.525Z</time>
      </trkpt>
      <trkpt lat="46.72875" lon="-1.97969">
        <ele>5.4</ele>
        <time>2025-01-22T09:47:28.526Z</time>
      </trkpt>
      <trkpt lat="46.72878" lon="-1.97969">
        <ele>5.5</ele>
        <time>2025-01-22T09:47:29.526Z</time>
      </trkpt>
      <trkpt lat="46.72881" lon="-1.97969">
        <ele>5.6</ele>
        <time>2025-01-22T09:47:30.525Z</time>
      </trkpt>
      <trkpt lat="46.72884" lon="-1.9797">
        <ele>5.7</ele>
        <time>2025-01-22T09:47:31.526Z</time>
      </trkpt>
      <trkpt lat="46.72886" lon="-1.97971">
        <ele>5.9</ele>
        <time>2025-01-22T09:47:32.525Z</time>
      </trkpt>
      <trkpt lat="46.72888" lon="-1.97973">
        <ele>6</ele>
        <time>2025-01-22T09:47:33.525Z</time>
      </trkpt>
      <trkpt lat="46.7289" lon="-1.97975">
        <ele>5.9</ele>
        <time>2025-01-22T09:47:34.526Z</time>
      </trkpt>
      <trkpt lat="46.72892" lon="-1.97976">
        <ele>5.8</ele>
        <time>2025-01-22T09:47:35.526Z</time>
      </trkpt>
      <trkpt lat="46.72894" lon="-1.97978">
        <ele>5.6</ele>
        <time>2025-01-22T09:47:36.526Z</time>
      </trkpt>
      <trkpt lat="46.72897" lon="-1.9798">
        <ele>5.4</ele>
        <time>2025-01-22T09:47:37.526Z</time>
      </trkpt>
      <trkpt lat="46.729" lon="-1.9798">
        <ele>5.2</ele>
        <time>2025-01-22T09:47:38.526Z</time>
      </trkpt>
      <trkpt lat="46.72903" lon="-1.9798">
        <ele>5</ele>
        <time>2025-01-22T09:47:39.525Z</time>
      </trkpt>
      <trkpt lat="46.72904" lon="-1.97981">
        <ele>4.9</ele>
        <time>2025-01-22T09:47:40.525Z</time>
      </trkpt>
      <trkpt lat="46.72908" lon="-1.9798">
        <ele>4.6</ele>
        <time>2025-01-22T09:47:41.525Z</time>
      </trkpt>
      <trkpt lat="46.72911" lon="-1.97982">
        <ele>4.4</ele>
        <time>2025-01-22T09:47:42.526Z</time>
      </trkpt>
      <trkpt lat="46.72914" lon="-1.97983">
        <ele>4.2</ele>
        <time>2025-01-22T09:47:43.526Z</time>
      </trkpt>
      <trkpt lat="46.72918" lon="-1.97984">
        <ele>4</ele>
        <time>2025-01-22T09:47:44.526Z</time>
      </trkpt>
      <trkpt lat="46.7292" lon="-1.97986">
        <ele>4</ele>
        <time>2025-01-22T09:47:45.526Z</time>
      </trkpt>
      <trkpt lat="46.72922" lon="-1.97988">
        <ele>4</ele>
        <time>2025-01-22T09:47:46.525Z</time>
      </trkpt>
      <trkpt lat="46.72923" lon="-1.9799">
        <ele>4</ele>
        <time>2025-01-22T09:47:47.525Z</time>
      </trkpt>
      <trkpt lat="46.72926" lon="-1.97992">
        <ele>4</ele>
        <time>2025-01-22T09:47:48.526Z</time>
      </trkpt>
      <trkpt lat="46.72927" lon="-1.97993">
        <ele>4</ele>
        <time>2025-01-22T09:47:49.525Z</time>
      </trkpt>
      <trkpt lat="46.72929" lon="-1.97994">
        <ele>4</ele>
        <time>2025-01-22T09:47:50.525Z</time>
      </trkpt>
      <trkpt lat="46.72932" lon="-1.97994">
        <ele>4</ele>
        <time>2025-01-22T09:47:51.525Z</time>
      </trkpt>
      <trkpt lat="46.72934" lon="-1.97995">
        <ele>4</ele>
        <time>2025-01-22T09:47:52.526Z</time>
      </trkpt>
      <trkpt lat="46.72936" lon="-1.97995">
        <ele>4</ele>
        <time>2025-01-22T09:47:53.526Z</time>
      </trkpt>
      <trkpt lat="46.72938" lon="-1.97995">
        <ele>4</ele>
        <time>2025-01-22T09:47:54.525Z</time>
      </trkpt>
      <trkpt lat="46.72941" lon="-1.97996">
        <ele>4</ele>
        <time>2025-01-22T09:47:55.526Z</time>
      </trkpt>
      <trkpt lat="46.72943" lon="-1.97996">
        <ele>4</ele>
        <time>2025-01-22T09:47:56.525Z</time>
      </trkpt>
      <trkpt lat="46.72945" lon="-1.97997">
        <ele>4</ele>
        <time>2025-01-22T09:47:57.526Z</time>
      </trkpt>
      <trkpt lat="46.72947" lon="-1.97997">
        <ele>4</ele>
        <time>2025-01-22T09:47:58.526Z</time>
      </trkpt>
      <trkpt lat="46.72949" lon="-1.97998">
        <ele>4</ele>
        <time>2025-01-22T09:47:59.526Z</time>
      </trkpt>
      <trkpt lat="46.72951" lon="-1.97999">
        <ele>4</ele>
        <time>2025-01-22T09:48:00.526Z</time>
      </trkpt>
      <trkpt lat="46.72954" lon="-1.97999">
        <ele>4</ele>
        <time>2025-01-22T09:48:01.526Z</time>
      </trkpt>
      <trkpt lat="46.72956" lon="-1.98">
        <ele>4</ele>
        <time>2025-01-22T09:48:02.525Z</time>
      </trkpt>
      <trkpt lat="46.72959" lon="-1.98">
        <ele>4</ele>
        <time>2025-01-22T09:48:03.525Z</time>
      </trkpt>
      <trkpt lat="46.72961" lon="-1.98001">
        <ele>4</ele>
        <time>2025-01-22T09:48:04.525Z</time>
      </trkpt>
      <trkpt lat="46.72963" lon="-1.98002">
        <ele>4</ele>
        <time>2025-01-22T09:48:05.525Z</time>
      </trkpt>
      <trkpt lat="46.72965" lon="-1.98003">
        <ele>4.1</ele>
        <time>2025-01-22T09:48:06.525Z</time>
      </trkpt>
      <trkpt lat="46.72968" lon="-1.98004">
        <ele>4.1</ele>
        <time>2025-01-22T09:48:07.525Z</time>
      </trkpt>
      <trkpt lat="46.72971" lon="-1.98005">
        <ele>4.2</ele>
        <time>2025-01-22T09:48:08.525Z</time>
      </trkpt>
      <trkpt lat="46.72974" lon="-1.98006">
        <ele>4.2</ele>
        <time>2025-01-22T09:48:09.525Z</time>
      </trkpt>
      <trkpt lat="46.72976" lon="-1.98008">
        <ele>4.2</ele>
        <time>2025-01-22T09:48:10.526Z</time>
      </trkpt>
      <trkpt lat="46.72979" lon="-1.98009">
        <ele>4.2</ele>
        <time>2025-01-22T09:48:11.526Z</time>
      </trkpt>
      <trkpt lat="46.72983" lon="-1.98009">
        <ele>4.2</ele>
        <time>2025-01-22T09:48:12.526Z</time>
      </trkpt>
      <trkpt lat="46.72986" lon="-1.98009">
        <ele>4.2</ele>
        <time>2025-01-22T09:48:13.525Z</time>
      </trkpt>
      <trkpt lat="46.72988" lon="-1.9801">
        <ele>4.2</ele>
        <time>2025-01-22T09:48:14.525Z</time>
      </trkpt>
      <trkpt lat="46.72991" lon="-1.98012">
        <ele>4.1</ele>
        <time>2025-01-22T09:48:15.526Z</time>
      </trkpt>
      <trkpt lat="46.72993" lon="-1.98013">
        <ele>4.1</ele>
        <time>2025-01-22T09:48:16.526Z</time>
      </trkpt>
      <trkpt lat="46.72996" lon="-1.98014">
        <ele>4.1</ele>
        <time>2025-01-22T09:48:17.526Z</time>
      </trkpt>
      <trkpt lat="46.72998" lon="-1.98015">
        <ele>4</ele>
        <time>2025-01-22T09:48:18.526Z</time>
      </trkpt>
      <trkpt lat="46.73001" lon="-1.98016">
        <ele>4</ele>
        <time>2025-01-22T09:48:19.525Z</time>
      </trkpt>
      <trkpt lat="46.73003" lon="-1.98017">
        <ele>4</ele>
        <time>2025-01-22T09:48:20.525Z</time>
      </trkpt>
      <trkpt lat="46.73005" lon="-1.98018">
        <ele>4</ele>
        <time>2025-01-22T09:48:21.525Z</time>
      </trkpt>
      <trkpt lat="46.73006" lon="-1.9802">
        <ele>4</ele>
        <time>2025-01-22T09:48:22.525Z</time>
      </trkpt>
      <trkpt lat="46.73009" lon="-1.98022">
        <ele>4</ele>
        <time>2025-01-22T09:48:23.526Z</time>
      </trkpt>
      <trkpt lat="46.73011" lon="-1.98024">
        <ele>4</ele>
        <time>2025-01-22T09:48:24.526Z</time>
      </trkpt>
      <trkpt lat="46.73013" lon="-1.98026">
        <ele>4</ele>
        <time>2025-01-22T09:48:25.526Z</time>
      </trkpt>
      <trkpt lat="46.73015" lon="-1.98028">
        <ele>4</ele>
        <time>2025-01-22T09:48:26.525Z</time>
      </trkpt>
      <trkpt lat="46.73017" lon="-1.9803">
        <ele>4</ele>
        <time>2025-01-22T09:48:27.525Z</time>
      </trkpt>
      <trkpt lat="46.73019" lon="-1.98031">
        <ele>4</ele>
        <time>2025-01-22T09:48:28.525Z</time>
      </trkpt>
      <trkpt lat="46.73022" lon="-1.98032">
        <ele>4</ele>
        <time>2025-01-22T09:48:29.526Z</time>
      </trkpt>
      <trkpt lat="46.73025" lon="-1.98033">
        <ele>4</ele>
        <time>2025-01-22T09:48:30.526Z</time>
      </trkpt>
      <trkpt lat="46.73027" lon="-1.98034">
        <ele>4</ele>
        <time>2025-01-22T09:48:31.526Z</time>
      </trkpt>
      <trkpt lat="46.7303" lon="-1.98035">
        <ele>4.1</ele>
        <time>2025-01-22T09:48:32.526Z</time>
      </trkpt>
      <trkpt lat="46.73033" lon="-1.98036">
        <ele>4.3</ele>
        <time>2025-01-22T09:48:33.526Z</time>
      </trkpt>
      <trkpt lat="46.73035" lon="-1.98038">
        <ele>4.4</ele>
        <time>2025-01-22T09:48:34.525Z</time>
      </trkpt>
      <trkpt lat="46.73037" lon="-1.98039">
        <ele>4.5</ele>
        <time>2025-01-22T09:48:35.525Z</time>
      </trkpt>
      <trkpt lat="46.73038" lon="-1.98042">
        <ele>4.6</ele>
        <time>2025-01-22T09:48:36.525Z</time>
      </trkpt>
      <trkpt lat="46.7304" lon="-1.98044">
        <ele>4.6</ele>
        <time>2025-01-22T09:48:37.526Z</time>
      </trkpt>
      <trkpt lat="46.73041" lon="-1.98046">
        <ele>4.6</ele>
        <time>2025-01-22T09:48:38.526Z</time>
      </trkpt>
      <trkpt lat="46.73043" lon="-1.98049">
        <ele>4.7</ele>
        <time>2025-01-22T09:48:39.526Z</time>
      </trkpt>
      <trkpt lat="46.73045" lon="-1.98051">
        <ele>4.7</ele>
        <time>2025-01-22T09:48:40.526Z</time>
      </trkpt>
      <trkpt lat="46.73046" lon="-1.98053">
        <ele>4.7</ele>
        <time>2025-01-22T09:48:41.526Z</time>
      </trkpt>
      <trkpt lat="46.73048" lon="-1.98055">
        <ele>4.8</ele>
        <time>2025-01-22T09:48:42.525Z</time>
      </trkpt>
      <trkpt lat="46.73051" lon="-1.98056">
        <ele>4.8</ele>
        <time>2025-01-22T09:48:43.525Z</time>
      </trkpt>
      <trkpt lat="46.73054" lon="-1.98058">
        <ele>4.9</ele>
        <time>2025-01-22T09:48:44.525Z</time>
      </trkpt>
      <trkpt lat="46.73056" lon="-1.98059">
        <ele>5</ele>
        <time>2025-01-22T09:48:45.526Z</time>
      </trkpt>
      <trkpt lat="46.73058" lon="-1.9806">
        <ele>4.9</ele>
        <time>2025-01-22T09:48:46.525Z</time>
      </trkpt>
      <trkpt lat="46.7306" lon="-1.98062">
        <ele>4.8</ele>
        <time>2025-01-22T09:48:47.526Z</time>
      </trkpt>
      <trkpt lat="46.73062" lon="-1.98063">
        <ele>4.8</ele>
        <time>2025-01-22T09:48:48.526Z</time>
      </trkpt>
      <trkpt lat="46.73064" lon="-1.98063">
        <ele>4.7</ele>
        <time>2025-01-22T09:48:49.526Z</time>
      </trkpt>
      <trkpt lat="46.73067" lon="-1.98064">
        <ele>4.6</ele>
        <time>2025-01-22T09:48:50.526Z</time>
      </trkpt>
      <trkpt lat="46.73069" lon="-1.98065">
        <ele>4.5</ele>
        <time>2025-01-22T09:48:51.525Z</time>
      </trkpt>
      <trkpt lat="46.73072" lon="-1.98067">
        <ele>4.4</ele>
        <time>2025-01-22T09:48:52.525Z</time>
      </trkpt>
      <trkpt lat="46.73074" lon="-1.98069">
        <ele>4.3</ele>
        <time>2025-01-22T09:48:53.525Z</time>
      </trkpt>
      <trkpt lat="46.73076" lon="-1.9807">
        <ele>4.3</ele>
        <time>2025-01-22T09:48:54.525Z</time>
      </trkpt>
      <trkpt lat="46.73079" lon="-1.98072">
        <ele>4.2</ele>
        <time>2025-01-22T09:48:55.526Z</time>
      </trkpt>
      <trkpt lat="46.73081" lon="-1.98073">
        <ele>4.1</ele>
        <time>2025-01-22T09:48:56.526Z</time>
      </trkpt>
      <trkpt lat="46.73084" lon="-1.98074">
        <ele>4</ele>
        <time>2025-01-22T09:48:57.526Z</time>
      </trkpt>
      <trkpt lat="46.73087" lon="-1.98074">
        <ele>4.2</ele>
        <time>2025-01-22T09:48:58.526Z</time>
      </trkpt>
      <trkpt lat="46.73089" lon="-1.98075">
        <ele>4.4</ele>
        <time>2025-01-22T09:48:59.525Z</time>
      </trkpt>
      <trkpt lat="46.73092" lon="-1.98075">
        <ele>4.6</ele>
        <time>2025-01-22T09:49:00.525Z</time>
      </trkpt>
      <trkpt lat="46.73094" lon="-1.98076">
        <ele>4.8</ele>
        <time>2025-01-22T09:49:01.525Z</time>
      </trkpt>
      <trkpt lat="46.73097" lon="-1.98076">
        <ele>5.1</ele>
        <time>2025-01-22T09:49:02.525Z</time>
      </trkpt>
      <trkpt lat="46.73099" lon="-1.98077">
        <ele>5.3</ele>
        <time>2025-01-22T09:49:03.526Z</time>
      </trkpt>
      <trkpt lat="46.73101" lon="-1.98078">
        <ele>5.5</ele>
        <time>2025-01-22T09:49:04.525Z</time>
      </trkpt>
      <trkpt lat="46.73103" lon="-1.98079">
        <ele>5.8</ele>
        <time>2025-01-22T09:49:05.525Z</time>
      </trkpt>
      <trkpt lat="46.73105" lon="-1.9808">
        <ele>6.1</ele>
        <time>2025-01-22T09:49:06.526Z</time>
      </trkpt>
      <trkpt lat="46.73107" lon="-1.98081">
        <ele>6.4</ele>
        <time>2025-01-22T09:49:07.526Z</time>
      </trkpt>
      <trkpt lat="46.73109" lon="-1.98083">
        <ele>6.7</ele>
        <time>2025-01-22T09:49:08.525Z</time>
      </trkpt>
      <trkpt lat="46.73111" lon="-1.98084">
        <ele>6.9</ele>
        <time>2025-01-22T09:49:09.525Z</time>
      </trkpt>
      <trkpt lat="46.73113" lon="-1.98085">
        <ele>6.8</ele>
        <time>2025-01-22T09:49:10.525Z</time>
      </trkpt>
      <trkpt lat="46.73115" lon="-1.98085">
        <ele>6.6</ele>
        <time>2025-01-22T09:49:11.526Z</time>
      </trkpt>
      <trkpt lat="46.73117" lon="-1.98086">
        <ele>6.5</ele>
        <time>2025-01-22T09:49:12.525Z</time>
      </trkpt>
      <trkpt lat="46.73119" lon="-1.98086">
        <ele>6.3</ele>
        <time>2025-01-22T09:49:13.525Z</time>
      </trkpt>
      <trkpt lat="46.7312" lon="-1.98086">
        <ele>6.2</ele>
        <time>2025-01-22T09:49:14.525Z</time>
      </trkpt>
      <trkpt lat="46.73123" lon="-1.98086">
        <ele>6</ele>
        <time>2025-01-22T09:49:15.525Z</time>
      </trkpt>
      <trkpt lat="46.73125" lon="-1.98087">
        <ele>5.9</ele>
        <time>2025-01-22T09:49:16.526Z</time>
      </trkpt>
      <trkpt lat="46.73126" lon="-1.98088">
        <ele>5.8</ele>
        <time>2025-01-22T09:49:17.526Z</time>
      </trkpt>
      <trkpt lat="46.73127" lon="-1.98091">
        <ele>5.6</ele>
        <time>2025-01-22T09:49:18.526Z</time>
      </trkpt>
      <trkpt lat="46.73127" lon="-1.98093">
        <ele>5.6</ele>
        <time>2025-01-22T09:49:19.526Z</time>
      </trkpt>
      <trkpt lat="46.73128" lon="-1.98095">
        <ele>5.5</ele>
        <time>2025-01-22T09:49:20.525Z</time>
      </trkpt>
      <trkpt lat="46.73128" lon="-1.98098">
        <ele>5.4</ele>
        <time>2025-01-22T09:49:21.525Z</time>
      </trkpt>
      <trkpt lat="46.73128" lon="-1.98101">
        <ele>5.3</ele>
        <time>2025-01-22T09:49:22.525Z</time>
      </trkpt>
      <trkpt lat="46.73127" lon="-1.98104">
        <ele>5.2</ele>
        <time>2025-01-22T09:49:23.525Z</time>
      </trkpt>
      <trkpt lat="46.73127" lon="-1.98107">
        <ele>5.1</ele>
        <time>2025-01-22T09:49:24.525Z</time>
      </trkpt>
      <trkpt lat="46.73127" lon="-1.98111">
        <ele>5</ele>
        <time>2025-01-22T09:49:25.526Z</time>
      </trkpt>
      <trkpt lat="46.73126" lon="-1.98115">
        <ele>4.9</ele>
        <time>2025-01-22T09:49:26.525Z</time>
      </trkpt>
      <trkpt lat="46.73125" lon="-1.98118">
        <ele>4.7</ele>
        <time>2025-01-22T09:49:27.526Z</time>
      </trkpt>
      <trkpt lat="46.73124" lon="-1.98121">
        <ele>4.6</ele>
        <time>2025-01-22T09:49:28.526Z</time>
      </trkpt>
      <trkpt lat="46.73124" lon="-1.98125">
        <ele>4.5</ele>
        <time>2025-01-22T09:49:29.526Z</time>
      </trkpt>
      <trkpt lat="46.73123" lon="-1.98128">
        <ele>4.4</ele>
        <time>2025-01-22T09:49:30.525Z</time>
      </trkpt>
      <trkpt lat="46.73122" lon="-1.98131">
        <ele>4.3</ele>
        <time>2025-01-22T09:49:31.525Z</time>
      </trkpt>
      <trkpt lat="46.73121" lon="-1.98135">
        <ele>4.2</ele>
        <time>2025-01-22T09:49:32.525Z</time>
      </trkpt>
      <trkpt lat="46.73119" lon="-1.98139">
        <ele>4</ele>
        <time>2025-01-22T09:49:33.525Z</time>
      </trkpt>
      <trkpt lat="46.73117" lon="-1.98142">
        <ele>4</ele>
        <time>2025-01-22T09:49:34.526Z</time>
      </trkpt>
      <trkpt lat="46.73117" lon="-1.98146">
        <ele>4</ele>
        <time>2025-01-22T09:49:35.526Z</time>
      </trkpt>
      <trkpt lat="46.73116" lon="-1.98149">
        <ele>4</ele>
        <time>2025-01-22T09:49:36.526Z</time>
      </trkpt>
      <trkpt lat="46.73116" lon="-1.98152">
        <ele>4</ele>
        <time>2025-01-22T09:49:37.526Z</time>
      </trkpt>
      <trkpt lat="46.73116" lon="-1.98155">
        <ele>4</ele>
        <time>2025-01-22T09:49:38.525Z</time>
      </trkpt>
      <trkpt lat="46.73115" lon="-1.98159">
        <ele>4</ele>
        <time>2025-01-22T09:49:39.525Z</time>
      </trkpt>
      <trkpt lat="46.73115" lon="-1.98162">
        <ele>4</ele>
        <time>2025-01-22T09:49:40.525Z</time>
      </trkpt>
      <trkpt lat="46.73114" lon="-1.98166">
        <ele>4</ele>
        <time>2025-01-22T09:49:41.525Z</time>
      </trkpt>
      <trkpt lat="46.73114" lon="-1.98169">
        <ele>4.1</ele>
        <time>2025-01-22T09:49:42.525Z</time>
      </trkpt>
      <trkpt lat="46.73113" lon="-1.98172">
        <ele>4.2</ele>
        <time>2025-01-22T09:49:43.526Z</time>
      </trkpt>
      <trkpt lat="46.73112" lon="-1.98175">
        <ele>4.3</ele>
        <time>2025-01-22T09:49:44.526Z</time>
      </trkpt>
      <trkpt lat="46.73111" lon="-1.98178">
        <ele>4.4</ele>
        <time>2025-01-22T09:49:45.525Z</time>
      </trkpt>
      <trkpt lat="46.7311" lon="-1.98181">
        <ele>4.5</ele>
        <time>2025-01-22T09:49:46.525Z</time>
      </trkpt>
      <trkpt lat="46.73109" lon="-1.98186">
        <ele>4.7</ele>
        <time>2025-01-22T09:49:47.525Z</time>
      </trkpt>
      <trkpt lat="46.73108" lon="-1.98189">
        <ele>4.8</ele>
        <time>2025-01-22T09:49:48.525Z</time>
      </trkpt>
      <trkpt lat="46.73107" lon="-1.98193">
        <ele>4.9</ele>
        <time>2025-01-22T09:49:49.525Z</time>
      </trkpt>
      <trkpt lat="46.73107" lon="-1.98196">
        <ele>5</ele>
        <time>2025-01-22T09:49:50.526Z</time>
      </trkpt>
      <trkpt lat="46.73106" lon="-1.98199">
        <ele>4.9</ele>
        <time>2025-01-22T09:49:51.526Z</time>
      </trkpt>
      <trkpt lat="46.73105" lon="-1.98203">
        <ele>4.8</ele>
        <time>2025-01-22T09:49:52.526Z</time>
      </trkpt>
      <trkpt lat="46.73105" lon="-1.98207">
        <ele>4.7</ele>
        <time>2025-01-22T09:49:53.525Z</time>
      </trkpt>
      <trkpt lat="46.73104" lon="-1.9821">
        <ele>4.6</ele>
        <time>2025-01-22T09:49:54.526Z</time>
      </trkpt>
      <trkpt lat="46.73103" lon="-1.98214">
        <ele>4.5</ele>
        <time>2025-01-22T09:49:55.526Z</time>
      </trkpt>
      <trkpt lat="46.73102" lon="-1.98217">
        <ele>4.4</ele>
        <time>2025-01-22T09:49:56.526Z</time>
      </trkpt>
      <trkpt lat="46.73101" lon="-1.98221">
        <ele>4.4</ele>
        <time>2025-01-22T09:49:57.526Z</time>
      </trkpt>
      <trkpt lat="46.73101" lon="-1.98224">
        <ele>4.4</ele>
        <time>2025-01-22T09:49:58.526Z</time>
      </trkpt>
      <trkpt lat="46.73102" lon="-1.98228">
        <ele>4.3</ele>
        <time>2025-01-22T09:49:59.525Z</time>
      </trkpt>
      <trkpt lat="46.73103" lon="-1.9823">
        <ele>4.3</ele>
        <time>2025-01-22T09:50:00.525Z</time>
      </trkpt>
      <trkpt lat="46.73105" lon="-1.98232">
        <ele>4.2</ele>
        <time>2025-01-22T09:50:01.525Z</time>
      </trkpt>
      <trkpt lat="46.73107" lon="-1.98233">
        <ele>4.1</ele>
        <time>2025-01-22T09:50:02.526Z</time>
      </trkpt>
      <trkpt lat="46.7311" lon="-1.98233">
        <ele>4.1</ele>
        <time>2025-01-22T09:50:03.526Z</time>
      </trkpt>
      <trkpt lat="46.73112" lon="-1.98233">
        <ele>4</ele>
        <time>2025-01-22T09:50:04.525Z</time>
      </trkpt>
      <trkpt lat="46.73114" lon="-1.98233">
        <ele>4</ele>
        <time>2025-01-22T09:50:05.526Z</time>
      </trkpt>
      <trkpt lat="46.73117" lon="-1.98233">
        <ele>4</ele>
        <time>2025-01-22T09:50:06.526Z</time>
      </trkpt>
      <trkpt lat="46.73119" lon="-1.98233">
        <ele>4</ele>
        <time>2025-01-22T09:50:07.526Z</time>
      </trkpt>
      <trkpt lat="46.73112" lon="-1.98233">
        <ele>4</ele>
        <time>2025-01-22T09:56:19.780Z</time>
      </trkpt>
      <trkpt lat="46.73113" lon="-1.98232">
        <ele>4</ele>
        <time>2025-01-22T09:56:20.780Z</time>
      </trkpt>
      <trkpt lat="46.73116" lon="-1.98231">
        <ele>4</ele>
        <time>2025-01-22T09:56:21.780Z</time>
      </trkpt>
      <trkpt lat="46.73119" lon="-1.98229">
        <ele>4</ele>
        <time>2025-01-22T09:56:22.780Z</time>
      </trkpt>
      <trkpt lat="46.73123" lon="-1.98227">
        <ele>4</ele>
        <time>2025-01-22T09:56:23.780Z</time>
      </trkpt>
      <trkpt lat="46.73126" lon="-1.98225">
        <ele>4</ele>
        <time>2025-01-22T09:56:24.780Z</time>
      </trkpt>
      <trkpt lat="46.73129" lon="-1.98223">
        <ele>4</ele>
        <time>2025-01-22T09:56:25.780Z</time>
      </trkpt>
      <trkpt lat="46.73133" lon="-1.98221">
        <ele>4</ele>
        <time>2025-01-22T09:56:26.780Z</time>
      </trkpt>
      <trkpt lat="46.73136" lon="-1.98218">
        <ele>4</ele>
        <time>2025-01-22T09:56:27.780Z</time>
      </trkpt>
      <trkpt lat="46.73139" lon="-1.98216">
        <ele>4</ele>
        <time>2025-01-22T09:56:28.780Z</time>
      </trkpt>
      <trkpt lat="46.73143" lon="-1.98214">
        <ele>4.2</ele>
        <time>2025-01-22T09:56:29.780Z</time>
      </trkpt>
      <trkpt lat="46.73147" lon="-1.98211">
        <ele>4.4</ele>
        <time>2025-01-22T09:56:30.780Z</time>
      </trkpt>
      <trkpt lat="46.73149" lon="-1.98209">
        <ele>4.6</ele>
        <time>2025-01-22T09:56:31.780Z</time>
      </trkpt>
      <trkpt lat="46.73152" lon="-1.98206">
        <ele>4.7</ele>
        <time>2025-01-22T09:56:32.780Z</time>
      </trkpt>
      <trkpt lat="46.73155" lon="-1.98204">
        <ele>4.8</ele>
        <time>2025-01-22T09:56:33.780Z</time>
      </trkpt>
      <trkpt lat="46.73158" lon="-1.98202">
        <ele>4.9</ele>
        <time>2025-01-22T09:56:34.780Z</time>
      </trkpt>
      <trkpt lat="46.7316" lon="-1.98201">
        <ele>4.9</ele>
        <time>2025-01-22T09:56:35.780Z</time>
      </trkpt>
      <trkpt lat="46.73163" lon="-1.98199">
        <ele>5</ele>
        <time>2025-01-22T09:56:36.780Z</time>
      </trkpt>
      <trkpt lat="46.73167" lon="-1.98198">
        <ele>5.1</ele>
        <time>2025-01-22T09:56:37.780Z</time>
      </trkpt>
      <trkpt lat="46.7317" lon="-1.98197">
        <ele>5.2</ele>
        <time>2025-01-22T09:56:38.780Z</time>
      </trkpt>
      <trkpt lat="46.73173" lon="-1.98197">
        <ele>5.3</ele>
        <time>2025-01-22T09:56:39.780Z</time>
      </trkpt>
      <trkpt lat="46.73176" lon="-1.98196">
        <ele>5.4</ele>
        <time>2025-01-22T09:56:40.780Z</time>
      </trkpt>
      <trkpt lat="46.73179" lon="-1.98195">
        <ele>5.5</ele>
        <time>2025-01-22T09:56:41.780Z</time>
      </trkpt>
      <trkpt lat="46.73181" lon="-1.98194">
        <ele>5.5</ele>
        <time>2025-01-22T09:56:42.780Z</time>
      </trkpt>
      <trkpt lat="46.73184" lon="-1.98194">
        <ele>5.6</ele>
        <time>2025-01-22T09:56:43.780Z</time>
      </trkpt>
      <trkpt lat="46.73186" lon="-1.98193">
        <ele>5.7</ele>
        <time>2025-01-22T09:56:44.780Z</time>
      </trkpt>
      <trkpt lat="46.73189" lon="-1.98192">
        <ele>5.7</ele>
        <time>2025-01-22T09:56:45.780Z</time>
      </trkpt>
      <trkpt lat="46.73192" lon="-1.98192">
        <ele>5.8</ele>
        <time>2025-01-22T09:56:46.780Z</time>
      </trkpt>
      <trkpt lat="46.73195" lon="-1.98191">
        <ele>5.9</ele>
        <time>2025-01-22T09:56:47.780Z</time>
      </trkpt>
      <trkpt lat="46.73197" lon="-1.98191">
        <ele>6.1</ele>
        <time>2025-01-22T09:56:48.780Z</time>
      </trkpt>
      <trkpt lat="46.732" lon="-1.9819">
        <ele>6.2</ele>
        <time>2025-01-22T09:56:49.780Z</time>
      </trkpt>
      <trkpt lat="46.73203" lon="-1.98189">
        <ele>6.3</ele>
        <time>2025-01-22T09:56:50.780Z</time>
      </trkpt>
      <trkpt lat="46.73205" lon="-1.98189">
        <ele>6.5</ele>
        <time>2025-01-22T09:56:51.780Z</time>
      </trkpt>
      <trkpt lat="46.73207" lon="-1.98189">
        <ele>6.6</ele>
        <time>2025-01-22T09:56:52.780Z</time>
      </trkpt>
      <trkpt lat="46.7321" lon="-1.98189">
        <ele>6.8</ele>
        <time>2025-01-22T09:56:53.780Z</time>
      </trkpt>
      <trkpt lat="46.73213" lon="-1.98189">
        <ele>7</ele>
        <time>2025-01-22T09:56:54.780Z</time>
      </trkpt>
      <trkpt lat="46.73216" lon="-1.98189">
        <ele>7.2</ele>
        <time>2025-01-22T09:56:55.780Z</time>
      </trkpt>
      <trkpt lat="46.73219" lon="-1.9819">
        <ele>7.5</ele>
        <time>2025-01-22T09:56:56.780Z</time>
      </trkpt>
      <trkpt lat="46.73222" lon="-1.9819">
        <ele>7.7</ele>
        <time>2025-01-22T09:56:57.780Z</time>
      </trkpt>
      <trkpt lat="46.73226" lon="-1.98189">
        <ele>7.5</ele>
        <time>2025-01-22T09:56:58.780Z</time>
      </trkpt>
      <trkpt lat="46.7323" lon="-1.98189">
        <ele>7.3</ele>
        <time>2025-01-22T09:56:59.780Z</time>
      </trkpt>
      <trkpt lat="46.73232" lon="-1.98189">
        <ele>7.2</ele>
        <time>2025-01-22T09:57:00.780Z</time>
      </trkpt>
      <trkpt lat="46.73235" lon="-1.98189">
        <ele>7.1</ele>
        <time>2025-01-22T09:57:01.780Z</time>
      </trkpt>
      <trkpt lat="46.73239" lon="-1.9819">
        <ele>7.1</ele>
        <time>2025-01-22T09:57:02.780Z</time>
      </trkpt>
      <trkpt lat="46.73241" lon="-1.9819">
        <ele>7</ele>
        <time>2025-01-22T09:57:03.780Z</time>
      </trkpt>
      <trkpt lat="46.73244" lon="-1.9819">
        <ele>6.9</ele>
        <time>2025-01-22T09:57:04.780Z</time>
      </trkpt>
      <trkpt lat="46.73246" lon="-1.9819">
        <ele>6.8</ele>
        <time>2025-01-22T09:57:05.780Z</time>
      </trkpt>
      <trkpt lat="46.73249" lon="-1.98191">
        <ele>6.8</ele>
        <time>2025-01-22T09:57:06.780Z</time>
      </trkpt>
      <trkpt lat="46.7325" lon="-1.98193">
        <ele>6.9</ele>
        <time>2025-01-22T09:57:07.780Z</time>
      </trkpt>
      <trkpt lat="46.73252" lon="-1.98195">
        <ele>7</ele>
        <time>2025-01-22T09:57:08.780Z</time>
      </trkpt>
      <trkpt lat="46.73253" lon="-1.98197">
        <ele>7.3</ele>
        <time>2025-01-22T09:57:09.780Z</time>
      </trkpt>
      <trkpt lat="46.73255" lon="-1.98199">
        <ele>7.6</ele>
        <time>2025-01-22T09:57:10.780Z</time>
      </trkpt>
      <trkpt lat="46.73257" lon="-1.98201">
        <ele>7.8</ele>
        <time>2025-01-22T09:57:11.780Z</time>
      </trkpt>
      <trkpt lat="46.7326" lon="-1.98202">
        <ele>7.9</ele>
        <time>2025-01-22T09:57:12.780Z</time>
      </trkpt>
      <trkpt lat="46.73262" lon="-1.98203">
        <ele>8</ele>
        <time>2025-01-22T09:57:13.780Z</time>
      </trkpt>
      <trkpt lat="46.73263" lon="-1.98204">
        <ele>8.1</ele>
        <time>2025-01-22T09:57:14.780Z</time>
      </trkpt>
      <trkpt lat="46.73264" lon="-1.98204">
        <ele>8.1</ele>
        <time>2025-01-22T09:57:15.780Z</time>
      </trkpt>
      <trkpt lat="46.73265" lon="-1.98204">
        <ele>8</ele>
        <time>2025-01-22T09:57:16.780Z</time>
      </trkpt>
      <trkpt lat="46.73267" lon="-1.98206">
        <ele>8.2</ele>
        <time>2025-01-22T09:57:17.780Z</time>
      </trkpt>
      <trkpt lat="46.73268" lon="-1.98208">
        <ele>8.5</ele>
        <time>2025-01-22T09:57:18.780Z</time>
      </trkpt>
      <trkpt lat="46.73269" lon="-1.9821">
        <ele>8.7</ele>
        <time>2025-01-22T09:57:19.780Z</time>
      </trkpt>
      <trkpt lat="46.7327" lon="-1.98212">
        <ele>9</ele>
        <time>2025-01-22T09:57:20.780Z</time>
      </trkpt>
      <trkpt lat="46.7327" lon="-1.98214">
        <ele>9.4</ele>
        <time>2025-01-22T09:57:21.780Z</time>
      </trkpt>
      <trkpt lat="46.7327" lon="-1.98216">
        <ele>9.7</ele>
        <time>2025-01-22T09:57:22.780Z</time>
      </trkpt>
      <trkpt lat="46.73269" lon="-1.98218">
        <ele>10</ele>
        <time>2025-01-22T09:57:23.780Z</time>
      </trkpt>
      <trkpt lat="46.73269" lon="-1.9822">
        <ele>10.3</ele>
        <time>2025-01-22T09:57:24.780Z</time>
      </trkpt>
      <trkpt lat="46.73268" lon="-1.98222">
        <ele>10.7</ele>
        <time>2025-01-22T09:57:25.780Z</time>
      </trkpt>
      <trkpt lat="46.73268" lon="-1.98224">
        <ele>10.9</ele>
        <time>2025-01-22T09:57:26.780Z</time>
      </trkpt>
      <trkpt lat="46.73268" lon="-1.98226">
        <ele>11</ele>
        <time>2025-01-22T09:57:27.780Z</time>
      </trkpt>
      <trkpt lat="46.73268" lon="-1.98229">
        <ele>11.2</ele>
        <time>2025-01-22T09:57:28.780Z</time>
      </trkpt>
      <trkpt lat="46.73268" lon="-1.98232">
        <ele>11.5</ele>
        <time>2025-01-22T09:57:29.780Z</time>
      </trkpt>
      <trkpt lat="46.73269" lon="-1.98235">
        <ele>11.7</ele>
        <time>2025-01-22T09:57:30.780Z</time>
      </trkpt>
      <trkpt lat="46.73269" lon="-1.98237">
        <ele>11.9</ele>
        <time>2025-01-22T09:57:31.780Z</time>
      </trkpt>
      <trkpt lat="46.7327" lon="-1.9824">
        <ele>12.2</ele>
        <time>2025-01-22T09:57:32.780Z</time>
      </trkpt>
      <trkpt lat="46.73271" lon="-1.98242">
        <ele>12.4</ele>
        <time>2025-01-22T09:57:33.780Z</time>
      </trkpt>
      <trkpt lat="46.73272" lon="-1.98244">
        <ele>12.7</ele>
        <time>2025-01-22T09:57:34.780Z</time>
      </trkpt>
      <trkpt lat="46.73273" lon="-1.98246">
        <ele>13</ele>
        <time>2025-01-22T09:57:35.780Z</time>
      </trkpt>
      <trkpt lat="46.73274" lon="-1.98249">
        <ele>13.4</ele>
        <time>2025-01-22T09:57:36.780Z</time>
      </trkpt>
      <trkpt lat="46.73275" lon="-1.98251">
        <ele>13.5</ele>
        <time>2025-01-22T09:57:37.780Z</time>
      </trkpt>
      <trkpt lat="46.73277" lon="-1.98253">
        <ele>13.3</ele>
        <time>2025-01-22T09:57:38.780Z</time>
      </trkpt>
      <trkpt lat="46.73279" lon="-1.98255">
        <ele>12.9</ele>
        <time>2025-01-22T09:57:39.780Z</time>
      </trkpt>
      <trkpt lat="46.7328" lon="-1.98258">
        <ele>12.4</ele>
        <time>2025-01-22T09:57:40.780Z</time>
      </trkpt>
      <trkpt lat="46.73281" lon="-1.9826">
        <ele>11.9</ele>
        <time>2025-01-22T09:57:41.780Z</time>
      </trkpt>
      <trkpt lat="46.73282" lon="-1.98263">
        <ele>11.3</ele>
        <time>2025-01-22T09:57:42.780Z</time>
      </trkpt>
      <trkpt lat="46.73283" lon="-1.98267">
        <ele>10.7</ele>
        <time>2025-01-22T09:57:43.780Z</time>
      </trkpt>
      <trkpt lat="46.73284" lon="-1.9827">
        <ele>10.2</ele>
        <time>2025-01-22T09:57:44.780Z</time>
      </trkpt>
      <trkpt lat="46.73285" lon="-1.98273">
        <ele>9.7</ele>
        <time>2025-01-22T09:57:45.780Z</time>
      </trkpt>
      <trkpt lat="46.73286" lon="-1.98275">
        <ele>9.3</ele>
        <time>2025-01-22T09:57:46.780Z</time>
      </trkpt>
      <trkpt lat="46.73287" lon="-1.98279">
        <ele>9</ele>
        <time>2025-01-22T09:57:47.780Z</time>
      </trkpt>
      <trkpt lat="46.73288" lon="-1.98281">
        <ele>9</ele>
        <time>2025-01-22T09:57:48.780Z</time>
      </trkpt>
      <trkpt lat="46.73289" lon="-1.98283">
        <ele>9.1</ele>
        <time>2025-01-22T09:57:49.780Z</time>
      </trkpt>
      <trkpt lat="46.7329" lon="-1.98286">
        <ele>9.1</ele>
        <time>2025-01-22T09:57:50.780Z</time>
      </trkpt>
      <trkpt lat="46.7329" lon="-1.98289">
        <ele>9.2</ele>
        <time>2025-01-22T09:57:51.780Z</time>
      </trkpt>
      <trkpt lat="46.73289" lon="-1.9829">
        <ele>9.2</ele>
        <time>2025-01-22T09:57:52.780Z</time>
      </trkpt>
      <trkpt lat="46.73289" lon="-1.9829">
        <ele>9.2</ele>
        <time>2025-01-22T09:57:53.780Z</time>
      </trkpt>
      <trkpt lat="46.73288" lon="-1.98291">
        <ele>9.2</ele>
        <time>2025-01-22T09:57:54.780Z</time>
      </trkpt>
      <trkpt lat="46.73288" lon="-1.98294">
        <ele>9.2</ele>
        <time>2025-01-22T09:57:55.780Z</time>
      </trkpt>
      <trkpt lat="46.73287" lon="-1.98297">
        <ele>9.2</ele>
        <time>2025-01-22T09:57:56.780Z</time>
      </trkpt>
      <trkpt lat="46.73287" lon="-1.983">
        <ele>9.3</ele>
        <time>2025-01-22T09:57:57.780Z</time>
      </trkpt>
      <trkpt lat="46.73287" lon="-1.98304">
        <ele>9.3</ele>
        <time>2025-01-22T09:57:58.780Z</time>
      </trkpt>
      <trkpt lat="46.73287" lon="-1.98308">
        <ele>9.6</ele>
        <time>2025-01-22T09:57:59.780Z</time>
      </trkpt>
      <trkpt lat="46.73286" lon="-1.98311">
        <ele>10</ele>
        <time>2025-01-22T09:58:00.780Z</time>
      </trkpt>
      <trkpt lat="46.73287" lon="-1.98314">
        <ele>10.3</ele>
        <time>2025-01-22T09:58:01.780Z</time>
      </trkpt>
      <trkpt lat="46.73286" lon="-1.98316">
        <ele>10.6</ele>
        <time>2025-01-22T09:58:02.780Z</time>
      </trkpt>
      <trkpt lat="46.73286" lon="-1.98319">
        <ele>11</ele>
        <time>2025-01-22T09:58:03.780Z</time>
      </trkpt>
      <trkpt lat="46.73285" lon="-1.98322">
        <ele>11.4</ele>
        <time>2025-01-22T09:58:04.780Z</time>
      </trkpt>
      <trkpt lat="46.73284" lon="-1.98324">
        <ele>11.7</ele>
        <time>2025-01-22T09:58:05.780Z</time>
      </trkpt>
      <trkpt lat="46.73284" lon="-1.98326">
        <ele>12.1</ele>
        <time>2025-01-22T09:58:06.780Z</time>
      </trkpt>
      <trkpt lat="46.73284" lon="-1.98328">
        <ele>12.5</ele>
        <time>2025-01-22T09:58:07.780Z</time>
      </trkpt>
      <trkpt lat="46.73283" lon="-1.98332">
        <ele>13</ele>
        <time>2025-01-22T09:58:08.780Z</time>
      </trkpt>
      <trkpt lat="46.73283" lon="-1.98335">
        <ele>13</ele>
        <time>2025-01-22T09:58:09.780Z</time>
      </trkpt>
      <trkpt lat="46.73284" lon="-1.98338">
        <ele>12.7</ele>
        <time>2025-01-22T09:58:10.780Z</time>
      </trkpt>
      <trkpt lat="46.73284" lon="-1.98341">
        <ele>12.4</ele>
        <time>2025-01-22T09:58:11.780Z</time>
      </trkpt>
      <trkpt lat="46.73285" lon="-1.98344">
        <ele>12.1</ele>
        <time>2025-01-22T09:58:12.780Z</time>
      </trkpt>
      <trkpt lat="46.73286" lon="-1.98347">
        <ele>11.8</ele>
        <time>2025-01-22T09:58:13.780Z</time>
      </trkpt>
      <trkpt lat="46.73288" lon="-1.9835">
        <ele>11.7</ele>
        <time>2025-01-22T09:58:14.780Z</time>
      </trkpt>
      <trkpt lat="46.73289" lon="-1.98352">
        <ele>11.6</ele>
        <time>2025-01-22T09:58:15.780Z</time>
      </trkpt>
      <trkpt lat="46.73291" lon="-1.98354">
        <ele>11.6</ele>
        <time>2025-01-22T09:58:16.780Z</time>
      </trkpt>
      <trkpt lat="46.73292" lon="-1.98356">
        <ele>11.6</ele>
        <time>2025-01-22T09:58:17.780Z</time>
      </trkpt>
      <trkpt lat="46.73293" lon="-1.98357">
        <ele>11.7</ele>
        <time>2025-01-22T09:58:18.780Z</time>
      </trkpt>
      <trkpt lat="46.73295" lon="-1.98359">
        <ele>11.8</ele>
        <time>2025-01-22T09:58:19.780Z</time>
      </trkpt>
      <trkpt lat="46.73297" lon="-1.98362">
        <ele>12</ele>
        <time>2025-01-22T09:58:20.780Z</time>
      </trkpt>
      <trkpt lat="46.73299" lon="-1.98364">
        <ele>12</ele>
        <time>2025-01-22T09:58:21.780Z</time>
      </trkpt>
      <trkpt lat="46.73301" lon="-1.98366">
        <ele>12</ele>
        <time>2025-01-22T09:58:22.780Z</time>
      </trkpt>
      <trkpt lat="46.73303" lon="-1.98369">
        <ele>11.9</ele>
        <time>2025-01-22T09:58:23.780Z</time>
      </trkpt>
      <trkpt lat="46.73305" lon="-1.98372">
        <ele>11.7</ele>
        <time>2025-01-22T09:58:24.780Z</time>
      </trkpt>
      <trkpt lat="46.73306" lon="-1.98375">
        <ele>11.4</ele>
        <time>2025-01-22T09:58:25.780Z</time>
      </trkpt>
      <trkpt lat="46.73307" lon="-1.98378">
        <ele>11.1</ele>
        <time>2025-01-22T09:58:26.780Z</time>
      </trkpt>
      <trkpt lat="46.73308" lon="-1.98381">
        <ele>10.8</ele>
        <time>2025-01-22T09:58:27.780Z</time>
      </trkpt>
      <trkpt lat="46.73309" lon="-1.98384">
        <ele>10.5</ele>
        <time>2025-01-22T09:58:28.780Z</time>
      </trkpt>
      <trkpt lat="46.73309" lon="-1.98388">
        <ele>10.1</ele>
        <time>2025-01-22T09:58:29.780Z</time>
      </trkpt>
      <trkpt lat="46.7331" lon="-1.98391">
        <ele>9.8</ele>
        <time>2025-01-22T09:58:30.780Z</time>
      </trkpt>
      <trkpt lat="46.7331" lon="-1.98394">
        <ele>9.5</ele>
        <time>2025-01-22T09:58:31.780Z</time>
      </trkpt>
      <trkpt lat="46.73311" lon="-1.98397">
        <ele>9.3</ele>
        <time>2025-01-22T09:58:32.780Z</time>
      </trkpt>
      <trkpt lat="46.73311" lon="-1.98398">
        <ele>9.2</ele>
        <time>2025-01-22T09:58:33.780Z</time>
      </trkpt>
      <trkpt lat="46.73311" lon="-1.984">
        <ele>9.1</ele>
        <time>2025-01-22T09:58:34.780Z</time>
      </trkpt>
      <trkpt lat="46.73313" lon="-1.98401">
        <ele>9</ele>
        <time>2025-01-22T09:58:35.780Z</time>
      </trkpt>
      <trkpt lat="46.73314" lon="-1.98403">
        <ele>8.9</ele>
        <time>2025-01-22T09:58:36.780Z</time>
      </trkpt>
      <trkpt lat="46.73316" lon="-1.98405">
        <ele>8.9</ele>
        <time>2025-01-22T09:58:37.780Z</time>
      </trkpt>
      <trkpt lat="46.73317" lon="-1.98407">
        <ele>8.8</ele>
        <time>2025-01-22T09:58:38.780Z</time>
      </trkpt>
      <trkpt lat="46.73317" lon="-1.98409">
        <ele>8.7</ele>
        <time>2025-01-22T09:58:39.780Z</time>
      </trkpt>
      <trkpt lat="46.73318" lon="-1.98412">
        <ele>8.7</ele>
        <time>2025-01-22T09:58:40.780Z</time>
      </trkpt>
      <trkpt lat="46.7332" lon="-1.98415">
        <ele>8.6</ele>
        <time>2025-01-22T09:58:41.780Z</time>
      </trkpt>
      <trkpt lat="46.73321" lon="-1.98417">
        <ele>8.6</ele>
        <time>2025-01-22T09:58:42.780Z</time>
      </trkpt>
      <trkpt lat="46.73322" lon="-1.9842">
        <ele>8.5</ele>
        <time>2025-01-22T09:58:43.780Z</time>
      </trkpt>
      <trkpt lat="46.73322" lon="-1.98422">
        <ele>8.4</ele>
        <time>2025-01-22T09:58:44.780Z</time>
      </trkpt>
      <trkpt lat="46.73322" lon="-1.98423">
        <ele>8.3</ele>
        <time>2025-01-22T09:58:45.780Z</time>
      </trkpt>
      <trkpt lat="46.73322" lon="-1.98424">
        <ele>8.2</ele>
        <time>2025-01-22T09:58:46.780Z</time>
      </trkpt>
      <trkpt lat="46.73321" lon="-1.98425">
        <ele>8.1</ele>
        <time>2025-01-22T09:58:47.780Z</time>
      </trkpt>
      <trkpt lat="46.73321" lon="-1.98427">
        <ele>7.9</ele>
        <time>2025-01-22T09:58:48.780Z</time>
      </trkpt>
      <trkpt lat="46.7332" lon="-1.9843">
        <ele>7.6</ele>
        <time>2025-01-22T09:58:49.780Z</time>
      </trkpt>
      <trkpt lat="46.7332" lon="-1.98435">
        <ele>7.2</ele>
        <time>2025-01-22T09:58:50.780Z</time>
      </trkpt>
      <trkpt lat="46.7332" lon="-1.98441">
        <ele>6.8</ele>
        <time>2025-01-22T09:58:51.780Z</time>
      </trkpt>
      <trkpt lat="46.73322" lon="-1.98446">
        <ele>6.6</ele>
        <time>2025-01-22T09:58:52.780Z</time>
      </trkpt>
      <trkpt lat="46.73324" lon="-1.98449">
        <ele>6.8</ele>
        <time>2025-01-22T09:58:53.780Z</time>
      </trkpt>
      <trkpt lat="46.73326" lon="-1.98453">
        <ele>7</ele>
        <time>2025-01-22T09:58:54.780Z</time>
      </trkpt>
      <trkpt lat="46.73329" lon="-1.98455">
        <ele>7</ele>
        <time>2025-01-22T09:58:55.780Z</time>
      </trkpt>
      <trkpt lat="46.73331" lon="-1.98456">
        <ele>7</ele>
        <time>2025-01-22T09:58:56.780Z</time>
      </trkpt>
      <trkpt lat="46.73334" lon="-1.98456">
        <ele>7</ele>
        <time>2025-01-22T09:58:57.780Z</time>
      </trkpt>
      <trkpt lat="46.73336" lon="-1.98456">
        <ele>6.9</ele>
        <time>2025-01-22T09:58:58.780Z</time>
      </trkpt>
      <trkpt lat="46.73339" lon="-1.98454">
        <ele>6.7</ele>
        <time>2025-01-22T09:58:59.780Z</time>
      </trkpt>
      <trkpt lat="46.73342" lon="-1.98451">
        <ele>6.5</ele>
        <time>2025-01-22T09:59:00.780Z</time>
      </trkpt>
      <trkpt lat="46.73345" lon="-1.98449">
        <ele>6.3</ele>
        <time>2025-01-22T09:59:01.780Z</time>
      </trkpt>
      <trkpt lat="46.73347" lon="-1.98447">
        <ele>6.1</ele>
        <time>2025-01-22T09:59:02.780Z</time>
      </trkpt>
      <trkpt lat="46.73349" lon="-1.98445">
        <ele>5.9</ele>
        <time>2025-01-22T09:59:03.780Z</time>
      </trkpt>
      <trkpt lat="46.73351" lon="-1.98443">
        <ele>5.8</ele>
        <time>2025-01-22T09:59:04.780Z</time>
      </trkpt>
      <trkpt lat="46.73353" lon="-1.98441">
        <ele>5.7</ele>
        <time>2025-01-22T09:59:05.780Z</time>
      </trkpt>
      <trkpt lat="46.73355" lon="-1.98438">
        <ele>5.6</ele>
        <time>2025-01-22T09:59:06.780Z</time>
      </trkpt>
      <trkpt lat="46.73357" lon="-1.98436">
        <ele>5.5</ele>
        <time>2025-01-22T09:59:07.780Z</time>
      </trkpt>
      <trkpt lat="46.73359" lon="-1.98434">
        <ele>5.3</ele>
        <time>2025-01-22T09:59:08.780Z</time>
      </trkpt>
      <trkpt lat="46.7336" lon="-1.98433">
        <ele>5.1</ele>
        <time>2025-01-22T09:59:09.780Z</time>
      </trkpt>
      <trkpt lat="46.73362" lon="-1.98433">
        <ele>5</ele>
        <time>2025-01-22T09:59:10.780Z</time>
      </trkpt>
      <trkpt lat="46.73364" lon="-1.98433">
        <ele>5</ele>
        <time>2025-01-22T09:59:11.780Z</time>
      </trkpt>
      <trkpt lat="46.73365" lon="-1.98435">
        <ele>5</ele>
        <time>2025-01-22T09:59:12.780Z</time>
      </trkpt>
      <trkpt lat="46.73366" lon="-1.98437">
        <ele>4.9</ele>
        <time>2025-01-22T09:59:13.780Z</time>
      </trkpt>
      <trkpt lat="46.73367" lon="-1.9844">
        <ele>4.9</ele>
        <time>2025-01-22T09:59:14.780Z</time>
      </trkpt>
      <trkpt lat="46.73367" lon="-1.98443">
        <ele>4.8</ele>
        <time>2025-01-22T09:59:15.780Z</time>
      </trkpt>
      <trkpt lat="46.73368" lon="-1.98446">
        <ele>4.8</ele>
        <time>2025-01-22T09:59:16.780Z</time>
      </trkpt>
      <trkpt lat="46.73369" lon="-1.98449">
        <ele>5</ele>
        <time>2025-01-22T09:59:17.780Z</time>
      </trkpt>
      <trkpt lat="46.7337" lon="-1.98453">
        <ele>5.2</ele>
        <time>2025-01-22T09:59:18.780Z</time>
      </trkpt>
      <trkpt lat="46.73371" lon="-1.98456">
        <ele>5.4</ele>
        <time>2025-01-22T09:59:19.780Z</time>
      </trkpt>
      <trkpt lat="46.73372" lon="-1.9846">
        <ele>5.5</ele>
        <time>2025-01-22T09:59:20.780Z</time>
      </trkpt>
      <trkpt lat="46.73372" lon="-1.98463">
        <ele>5.7</ele>
        <time>2025-01-22T09:59:21.780Z</time>
      </trkpt>
      <trkpt lat="46.73373" lon="-1.98466">
        <ele>5.8</ele>
        <time>2025-01-22T09:59:22.780Z</time>
      </trkpt>
      <trkpt lat="46.73375" lon="-1.98468">
        <ele>5.8</ele>
        <time>2025-01-22T09:59:23.780Z</time>
      </trkpt>
      <trkpt lat="46.73376" lon="-1.9847">
        <ele>5.8</ele>
        <time>2025-01-22T09:59:24.780Z</time>
      </trkpt>
      <trkpt lat="46.73377" lon="-1.98473">
        <ele>5.8</ele>
        <time>2025-01-22T09:59:25.780Z</time>
      </trkpt>
      <trkpt lat="46.73378" lon="-1.98475">
        <ele>5.8</ele>
        <time>2025-01-22T09:59:26.780Z</time>
      </trkpt>
      <trkpt lat="46.73379" lon="-1.98477">
        <ele>5.8</ele>
        <time>2025-01-22T09:59:27.780Z</time>
      </trkpt>
      <trkpt lat="46.7338" lon="-1.98479">
        <ele>5.8</ele>
        <time>2025-01-22T09:59:28.780Z</time>
      </trkpt>
      <trkpt lat="46.73381" lon="-1.98481">
        <ele>5.8</ele>
        <time>2025-01-22T09:59:29.780Z</time>
      </trkpt>
      <trkpt lat="46.73382" lon="-1.98486">
        <ele>5.9</ele>
        <time>2025-01-22T09:59:30.780Z</time>
      </trkpt>
      <trkpt lat="46.73383" lon="-1.9849">
        <ele>5.9</ele>
        <time>2025-01-22T09:59:31.780Z</time>
      </trkpt>
      <trkpt lat="46.73383" lon="-1.98493">
        <ele>6</ele>
        <time>2025-01-22T09:59:32.780Z</time>
      </trkpt>
      <trkpt lat="46.73384" lon="-1.98496">
        <ele>6.1</ele>
        <time>2025-01-22T09:59:33.780Z</time>
      </trkpt>
      <trkpt lat="46.73385" lon="-1.98499">
        <ele>6.1</ele>
        <time>2025-01-22T09:59:34.780Z</time>
      </trkpt>
      <trkpt lat="46.73387" lon="-1.98502">
        <ele>6.2</ele>
        <time>2025-01-22T09:59:35.780Z</time>
      </trkpt>
      <trkpt lat="46.73387" lon="-1.98505">
        <ele>6.2</ele>
        <time>2025-01-22T09:59:36.780Z</time>
      </trkpt>
      <trkpt lat="46.73389" lon="-1.98507">
        <ele>6.3</ele>
        <time>2025-01-22T09:59:37.780Z</time>
      </trkpt>
      <trkpt lat="46.73389" lon="-1.9851">
        <ele>6.3</ele>
        <time>2025-01-22T09:59:38.780Z</time>
      </trkpt>
      <trkpt lat="46.73391" lon="-1.98513">
        <ele>6.4</ele>
        <time>2025-01-22T09:59:39.780Z</time>
      </trkpt>
      <trkpt lat="46.73392" lon="-1.98515">
        <ele>6.4</ele>
        <time>2025-01-22T09:59:40.780Z</time>
      </trkpt>
      <trkpt lat="46.73394" lon="-1.98517">
        <ele>6.4</ele>
        <time>2025-01-22T09:59:41.780Z</time>
      </trkpt>
      <trkpt lat="46.73395" lon="-1.98519">
        <ele>6.5</ele>
        <time>2025-01-22T09:59:42.780Z</time>
      </trkpt>
      <trkpt lat="46.73397" lon="-1.98522">
        <ele>6.5</ele>
        <time>2025-01-22T09:59:43.780Z</time>
      </trkpt>
      <trkpt lat="46.73398" lon="-1.98525">
        <ele>6.5</ele>
        <time>2025-01-22T09:59:44.780Z</time>
      </trkpt>
      <trkpt lat="46.734" lon="-1.98527">
        <ele>6.6</ele>
        <time>2025-01-22T09:59:45.780Z</time>
      </trkpt>
      <trkpt lat="46.73401" lon="-1.9853">
        <ele>6.5</ele>
        <time>2025-01-22T09:59:46.780Z</time>
      </trkpt>
      <trkpt lat="46.73401" lon="-1.98533">
        <ele>6.5</ele>
        <time>2025-01-22T09:59:47.780Z</time>
      </trkpt>
      <trkpt lat="46.73402" lon="-1.98536">
        <ele>6.4</ele>
        <time>2025-01-22T09:59:48.780Z</time>
      </trkpt>
      <trkpt lat="46.73403" lon="-1.98541">
        <ele>6.3</ele>
        <time>2025-01-22T09:59:49.780Z</time>
      </trkpt>
      <trkpt lat="46.73405" lon="-1.98545">
        <ele>6.1</ele>
        <time>2025-01-22T09:59:50.780Z</time>
      </trkpt>
      <trkpt lat="46.73408" lon="-1.98547">
        <ele>5.8</ele>
        <time>2025-01-22T09:59:51.780Z</time>
      </trkpt>
      <trkpt lat="46.73409" lon="-1.9855">
        <ele>5.7</ele>
        <time>2025-01-22T09:59:52.780Z</time>
      </trkpt>
      <trkpt lat="46.73411" lon="-1.98553">
        <ele>5.5</ele>
        <time>2025-01-22T09:59:53.780Z</time>
      </trkpt>
      <trkpt lat="46.73412" lon="-1.98556">
        <ele>5.3</ele>
        <time>2025-01-22T09:59:54.780Z</time>
      </trkpt>
      <trkpt lat="46.73414" lon="-1.98559">
        <ele>5.1</ele>
        <time>2025-01-22T09:59:55.780Z</time>
      </trkpt>
      <trkpt lat="46.73416" lon="-1.98562">
        <ele>4.9</ele>
        <time>2025-01-22T09:59:56.780Z</time>
      </trkpt>
      <trkpt lat="46.73417" lon="-1.98566">
        <ele>4.6</ele>
        <time>2025-01-22T09:59:57.780Z</time>
      </trkpt>
      <trkpt lat="46.73419" lon="-1.9857">
        <ele>4.6</ele>
        <time>2025-01-22T09:59:58.780Z</time>
      </trkpt>
      <trkpt lat="46.7342" lon="-1.98573">
        <ele>4.5</ele>
        <time>2025-01-22T09:59:59.780Z</time>
      </trkpt>
      <trkpt lat="46.73421" lon="-1.98576">
        <ele>4.4</ele>
        <time>2025-01-22T10:00:00.780Z</time>
      </trkpt>
      <trkpt lat="46.73422" lon="-1.9858">
        <ele>4.3</ele>
        <time>2025-01-22T10:00:01.780Z</time>
      </trkpt>
      <trkpt lat="46.73424" lon="-1.98582">
        <ele>4.3</ele>
        <time>2025-01-22T10:00:02.780Z</time>
      </trkpt>
      <trkpt lat="46.73426" lon="-1.98585">
        <ele>4.4</ele>
        <time>2025-01-22T10:00:03.780Z</time>
      </trkpt>
      <trkpt lat="46.73428" lon="-1.98588">
        <ele>4.6</ele>
        <time>2025-01-22T10:00:04.780Z</time>
      </trkpt>
      <trkpt lat="46.73428" lon="-1.98592">
        <ele>4.7</ele>
        <time>2025-01-22T10:00:05.780Z</time>
      </trkpt>
      <trkpt lat="46.73429" lon="-1.98594">
        <ele>4.8</ele>
        <time>2025-01-22T10:00:06.780Z</time>
      </trkpt>
      <trkpt lat="46.7343" lon="-1.98597">
        <ele>5</ele>
        <time>2025-01-22T10:00:07.780Z</time>
      </trkpt>
      <trkpt lat="46.73431" lon="-1.98599">
        <ele>5.1</ele>
        <time>2025-01-22T10:00:08.780Z</time>
      </trkpt>
      <trkpt lat="46.73433" lon="-1.98602">
        <ele>5.2</ele>
        <time>2025-01-22T10:00:09.780Z</time>
      </trkpt>
      <trkpt lat="46.73435" lon="-1.98603">
        <ele>5.4</ele>
        <time>2025-01-22T10:00:10.780Z</time>
      </trkpt>
      <trkpt lat="46.73438" lon="-1.98604">
        <ele>5.5</ele>
        <time>2025-01-22T10:00:11.780Z</time>
      </trkpt>
      <trkpt lat="46.7344" lon="-1.98605">
        <ele>5.6</ele>
        <time>2025-01-22T10:00:12.780Z</time>
      </trkpt>
      <trkpt lat="46.73442" lon="-1.98604">
        <ele>5.7</ele>
        <time>2025-01-22T10:00:13.780Z</time>
      </trkpt>
      <trkpt lat="46.73444" lon="-1.98604">
        <ele>5.7</ele>
        <time>2025-01-22T10:00:14.780Z</time>
      </trkpt>
      <trkpt lat="46.73448" lon="-1.98603">
        <ele>5.6</ele>
        <time>2025-01-22T10:00:15.780Z</time>
      </trkpt>
      <trkpt lat="46.7345" lon="-1.98603">
        <ele>5.6</ele>
        <time>2025-01-22T10:00:16.780Z</time>
      </trkpt>
      <trkpt lat="46.73453" lon="-1.98603">
        <ele>5.5</ele>
        <time>2025-01-22T10:00:17.780Z</time>
      </trkpt>
      <trkpt lat="46.73456" lon="-1.98603">
        <ele>5.4</ele>
        <time>2025-01-22T10:00:18.780Z</time>
      </trkpt>
      <trkpt lat="46.73458" lon="-1.98603">
        <ele>5.3</ele>
        <time>2025-01-22T10:00:19.780Z</time>
      </trkpt>
      <trkpt lat="46.73461" lon="-1.98602">
        <ele>5.3</ele>
        <time>2025-01-22T10:00:20.780Z</time>
      </trkpt>
      <trkpt lat="46.73464" lon="-1.98602">
        <ele>5.2</ele>
        <time>2025-01-22T10:00:21.780Z</time>
      </trkpt>
      <trkpt lat="46.73467" lon="-1.98601">
        <ele>5.1</ele>
        <time>2025-01-22T10:00:22.780Z</time>
      </trkpt>
      <trkpt lat="46.7347" lon="-1.98601">
        <ele>5.1</ele>
        <time>2025-01-22T10:00:23.780Z</time>
      </trkpt>
      <trkpt lat="46.73472" lon="-1.986">
        <ele>5</ele>
        <time>2025-01-22T10:00:24.780Z</time>
      </trkpt>
      <trkpt lat="46.73474" lon="-1.986">
        <ele>4.9</ele>
        <time>2025-01-22T10:00:25.780Z</time>
      </trkpt>
      <trkpt lat="46.73476" lon="-1.98599">
        <ele>4.9</ele>
        <time>2025-01-22T10:00:26.780Z</time>
      </trkpt>
      <trkpt lat="46.73478" lon="-1.98598">
        <ele>4.8</ele>
        <time>2025-01-22T10:00:27.780Z</time>
      </trkpt>
      <trkpt lat="46.7348" lon="-1.98596">
        <ele>4.7</ele>
        <time>2025-01-22T10:00:28.780Z</time>
      </trkpt>
      <trkpt lat="46.73482" lon="-1.98594">
        <ele>4.6</ele>
        <time>2025-01-22T10:00:29.780Z</time>
      </trkpt>
      <trkpt lat="46.73484" lon="-1.98592">
        <ele>4.6</ele>
        <time>2025-01-22T10:00:30.780Z</time>
      </trkpt>
      <trkpt lat="46.73487" lon="-1.98588">
        <ele>4.5</ele>
        <time>2025-01-22T10:00:31.780Z</time>
      </trkpt>
      <trkpt lat="46.7349" lon="-1.98586">
        <ele>4.3</ele>
        <time>2025-01-22T10:00:32.780Z</time>
      </trkpt>
      <trkpt lat="46.73493" lon="-1.98584">
        <ele>4.3</ele>
        <time>2025-01-22T10:00:33.780Z</time>
      </trkpt>
      <trkpt lat="46.73496" lon="-1.98582">
        <ele>4.2</ele>
        <time>2025-01-22T10:00:34.780Z</time>
      </trkpt>
      <trkpt lat="46.73498" lon="-1.98581">
        <ele>4.2</ele>
        <time>2025-01-22T10:00:35.780Z</time>
      </trkpt>
      <trkpt lat="46.73501" lon="-1.98579">
        <ele>4.2</ele>
        <time>2025-01-22T10:00:36.780Z</time>
      </trkpt>
      <trkpt lat="46.73503" lon="-1.98577">
        <ele>4.2</ele>
        <time>2025-01-22T10:00:37.780Z</time>
      </trkpt>
      <trkpt lat="46.73506" lon="-1.98575">
        <ele>4.2</ele>
        <time>2025-01-22T10:00:38.780Z</time>
      </trkpt>
      <trkpt lat="46.73508" lon="-1.98572">
        <ele>4.3</ele>
        <time>2025-01-22T10:00:39.780Z</time>
      </trkpt>
      <trkpt lat="46.7351" lon="-1.9857">
        <ele>4.3</ele>
        <time>2025-01-22T10:00:40.780Z</time>
      </trkpt>
      <trkpt lat="46.73512" lon="-1.98568">
        <ele>4.3</ele>
        <time>2025-01-22T10:00:41.780Z</time>
      </trkpt>
      <trkpt lat="46.73515" lon="-1.98565">
        <ele>4.3</ele>
        <time>2025-01-22T10:00:42.780Z</time>
      </trkpt>
      <trkpt lat="46.73517" lon="-1.98563">
        <ele>4.3</ele>
        <time>2025-01-22T10:00:43.780Z</time>
      </trkpt>
      <trkpt lat="46.73519" lon="-1.98561">
        <ele>4.2</ele>
        <time>2025-01-22T10:00:44.780Z</time>
      </trkpt>
      <trkpt lat="46.73522" lon="-1.98559">
        <ele>4.2</ele>
        <time>2025-01-22T10:00:45.780Z</time>
      </trkpt>
      <trkpt lat="46.73524" lon="-1.98557">
        <ele>4.1</ele>
        <time>2025-01-22T10:00:46.780Z</time>
      </trkpt>
      <trkpt lat="46.73525" lon="-1.98555">
        <ele>4.1</ele>
        <time>2025-01-22T10:00:47.780Z</time>
      </trkpt>
      <trkpt lat="46.73527" lon="-1.98554">
        <ele>4</ele>
        <time>2025-01-22T10:00:48.780Z</time>
      </trkpt>
      <trkpt lat="46.73529" lon="-1.98552">
        <ele>4</ele>
        <time>2025-01-22T10:00:49.780Z</time>
      </trkpt>
      <trkpt lat="46.73531" lon="-1.9855">
        <ele>4</ele>
        <time>2025-01-22T10:00:50.780Z</time>
      </trkpt>
      <trkpt lat="46.73534" lon="-1.98546">
        <ele>4</ele>
        <time>2025-01-22T10:00:51.780Z</time>
      </trkpt>
      <trkpt lat="46.73537" lon="-1.98543">
        <ele>4</ele>
        <time>2025-01-22T10:00:52.780Z</time>
      </trkpt>
      <trkpt lat="46.73539" lon="-1.98541">
        <ele>4</ele>
        <time>2025-01-22T10:00:53.780Z</time>
      </trkpt>
      <trkpt lat="46.73541" lon="-1.98538">
        <ele>4</ele>
        <time>2025-01-22T10:00:54.780Z</time>
      </trkpt>
      <trkpt lat="46.73543" lon="-1.98536">
        <ele>4</ele>
        <time>2025-01-22T10:00:55.780Z</time>
      </trkpt>
      <trkpt lat="46.73546" lon="-1.98534">
        <ele>4</ele>
        <time>2025-01-22T10:00:56.780Z</time>
      </trkpt>
      <trkpt lat="46.73549" lon="-1.98532">
        <ele>4</ele>
        <time>2025-01-22T10:00:57.780Z</time>
      </trkpt>
      <trkpt lat="46.73551" lon="-1.9853">
        <ele>4</ele>
        <time>2025-01-22T10:00:58.780Z</time>
      </trkpt>
      <trkpt lat="46.73554" lon="-1.98529">
        <ele>4</ele>
        <time>2025-01-22T10:00:59.780Z</time>
      </trkpt>
      <trkpt lat="46.73556" lon="-1.98527">
        <ele>4</ele>
        <time>2025-01-22T10:01:00.780Z</time>
      </trkpt>
      <trkpt lat="46.73558" lon="-1.98524">
        <ele>4.2</ele>
        <time>2025-01-22T10:01:01.780Z</time>
      </trkpt>
      <trkpt lat="46.7356" lon="-1.9852">
        <ele>4.4</ele>
        <time>2025-01-22T10:01:02.780Z</time>
      </trkpt>
      <trkpt lat="46.73563" lon="-1.98516">
        <ele>4.6</ele>
        <time>2025-01-22T10:01:03.780Z</time>
      </trkpt>
      <trkpt lat="46.73565" lon="-1.98512">
        <ele>4.7</ele>
        <time>2025-01-22T10:01:04.780Z</time>
      </trkpt>
      <trkpt lat="46.73567" lon="-1.98509">
        <ele>4.8</ele>
        <time>2025-01-22T10:01:05.780Z</time>
      </trkpt>
      <trkpt lat="46.73568" lon="-1.98506">
        <ele>4.9</ele>
        <time>2025-01-22T10:01:06.780Z</time>
      </trkpt>
      <trkpt lat="46.7357" lon="-1.98503">
        <ele>4.9</ele>
        <time>2025-01-22T10:01:07.780Z</time>
      </trkpt>
      <trkpt lat="46.73572" lon="-1.98501">
        <ele>5</ele>
        <time>2025-01-22T10:01:08.780Z</time>
      </trkpt>
      <trkpt lat="46.73574" lon="-1.98499">
        <ele>5</ele>
        <time>2025-01-22T10:01:09.780Z</time>
      </trkpt>
      <trkpt lat="46.73576" lon="-1.98497">
        <ele>5</ele>
        <time>2025-01-22T10:01:10.780Z</time>
      </trkpt>
      <trkpt lat="46.73579" lon="-1.98495">
        <ele>5.1</ele>
        <time>2025-01-22T10:01:11.780Z</time>
      </trkpt>
      <trkpt lat="46.7358" lon="-1.98493">
        <ele>5.2</ele>
        <time>2025-01-22T10:01:12.780Z</time>
      </trkpt>
      <trkpt lat="46.73582" lon="-1.98491">
        <ele>5.3</ele>
        <time>2025-01-22T10:01:13.780Z</time>
      </trkpt>
      <trkpt lat="46.73584" lon="-1.98489">
        <ele>5.4</ele>
        <time>2025-01-22T10:01:14.780Z</time>
      </trkpt>
      <trkpt lat="46.73584" lon="-1.98486">
        <ele>5.5</ele>
        <time>2025-01-22T10:01:15.780Z</time>
      </trkpt>
      <trkpt lat="46.73585" lon="-1.98484">
        <ele>5.6</ele>
        <time>2025-01-22T10:01:16.780Z</time>
      </trkpt>
      <trkpt lat="46.73587" lon="-1.98482">
        <ele>5.7</ele>
        <time>2025-01-22T10:01:17.780Z</time>
      </trkpt>
      <trkpt lat="46.73588" lon="-1.98479">
        <ele>5.8</ele>
        <time>2025-01-22T10:01:18.780Z</time>
      </trkpt>
      <trkpt lat="46.73589" lon="-1.98476">
        <ele>5.9</ele>
        <time>2025-01-22T10:01:19.780Z</time>
      </trkpt>
      <trkpt lat="46.73589" lon="-1.98472">
        <ele>6</ele>
        <time>2025-01-22T10:01:20.780Z</time>
      </trkpt>
      <trkpt lat="46.7359" lon="-1.98469">
        <ele>5.9</ele>
        <time>2025-01-22T10:01:21.780Z</time>
      </trkpt>
      <trkpt lat="46.73591" lon="-1.98467">
        <ele>5.8</ele>
        <time>2025-01-22T10:01:22.780Z</time>
      </trkpt>
      <trkpt lat="46.73592" lon="-1.98464">
        <ele>5.7</ele>
        <time>2025-01-22T10:01:23.780Z</time>
      </trkpt>
      <trkpt lat="46.73592" lon="-1.9846">
        <ele>5.6</ele>
        <time>2025-01-22T10:01:24.780Z</time>
      </trkpt>
      <trkpt lat="46.73594" lon="-1.98455">
        <ele>5.4</ele>
        <time>2025-01-22T10:01:25.780Z</time>
      </trkpt>
      <trkpt lat="46.73594" lon="-1.9845">
        <ele>5.2</ele>
        <time>2025-01-22T10:01:26.780Z</time>
      </trkpt>
      <trkpt lat="46.73595" lon="-1.98448">
        <ele>5.1</ele>
        <time>2025-01-22T10:01:27.780Z</time>
      </trkpt>
      <trkpt lat="46.73597" lon="-1.98445">
        <ele>5</ele>
        <time>2025-01-22T10:01:28.780Z</time>
      </trkpt>
      <trkpt lat="46.73598" lon="-1.98443">
        <ele>5</ele>
        <time>2025-01-22T10:01:29.780Z</time>
      </trkpt>
      <trkpt lat="46.736" lon="-1.98442">
        <ele>5</ele>
        <time>2025-01-22T10:01:30.780Z</time>
      </trkpt>
      <trkpt lat="46.73602" lon="-1.98441">
        <ele>5</ele>
        <time>2025-01-22T10:01:31.780Z</time>
      </trkpt>
      <trkpt lat="46.73603" lon="-1.98441">
        <ele>5</ele>
        <time>2025-01-22T10:01:32.780Z</time>
      </trkpt>
      <trkpt lat="46.73604" lon="-1.98441">
        <ele>5</ele>
        <time>2025-01-22T10:01:33.780Z</time>
      </trkpt>
      <trkpt lat="46.73605" lon="-1.9844">
        <ele>5</ele>
        <time>2025-01-22T10:01:34.780Z</time>
      </trkpt>
      <trkpt lat="46.73606" lon="-1.98439">
        <ele>5</ele>
        <time>2025-01-22T10:01:35.780Z</time>
      </trkpt>
      <trkpt lat="46.73607" lon="-1.98436">
        <ele>5</ele>
        <time>2025-01-22T10:01:36.780Z</time>
      </trkpt>
      <trkpt lat="46.7361" lon="-1.98433">
        <ele>5</ele>
        <time>2025-01-22T10:01:37.780Z</time>
      </trkpt>
      <trkpt lat="46.73612" lon="-1.9843">
        <ele>5</ele>
        <time>2025-01-22T10:01:38.780Z</time>
      </trkpt>
      <trkpt lat="46.73614" lon="-1.98427">
        <ele>5</ele>
        <time>2025-01-22T10:01:39.780Z</time>
      </trkpt>
      <trkpt lat="46.73616" lon="-1.98424">
        <ele>5</ele>
        <time>2025-01-22T10:01:40.780Z</time>
      </trkpt>
      <trkpt lat="46.73617" lon="-1.98421">
        <ele>5</ele>
        <time>2025-01-22T10:01:41.780Z</time>
      </trkpt>
      <trkpt lat="46.73617" lon="-1.98418">
        <ele>5</ele>
        <time>2025-01-22T10:01:42.780Z</time>
      </trkpt>
      <trkpt lat="46.73618" lon="-1.98415">
        <ele>5</ele>
        <time>2025-01-22T10:01:43.780Z</time>
      </trkpt>
      <trkpt lat="46.73618" lon="-1.98412">
        <ele>4.9</ele>
        <time>2025-01-22T10:01:44.780Z</time>
      </trkpt>
      <trkpt lat="46.73618" lon="-1.98409">
        <ele>4.8</ele>
        <time>2025-01-22T10:01:45.780Z</time>
      </trkpt>
      <trkpt lat="46.73618" lon="-1.98407">
        <ele>4.7</ele>
        <time>2025-01-22T10:01:46.780Z</time>
      </trkpt>
      <trkpt lat="46.73618" lon="-1.98404">
        <ele>4.7</ele>
        <time>2025-01-22T10:01:47.780Z</time>
      </trkpt>
      <trkpt lat="46.73619" lon="-1.98403">
        <ele>4.6</ele>
        <time>2025-01-22T10:01:48.780Z</time>
      </trkpt>
      <trkpt lat="46.73619" lon="-1.98401">
        <ele>4.6</ele>
        <time>2025-01-22T10:01:49.780Z</time>
      </trkpt>
      <trkpt lat="46.7362" lon="-1.98398">
        <ele>4.5</ele>
        <time>2025-01-22T10:01:50.780Z</time>
      </trkpt>
      <trkpt lat="46.73622" lon="-1.98394">
        <ele>4.5</ele>
        <time>2025-01-22T10:01:51.780Z</time>
      </trkpt>
      <trkpt lat="46.73623" lon="-1.9839">
        <ele>4.5</ele>
        <time>2025-01-22T10:01:52.780Z</time>
      </trkpt>
      <trkpt lat="46.73625" lon="-1.98387">
        <ele>4.5</ele>
        <time>2025-01-22T10:01:53.780Z</time>
      </trkpt>
      <trkpt lat="46.73626" lon="-1.98386">
        <ele>4.6</ele>
        <time>2025-01-22T10:01:54.780Z</time>
      </trkpt>
      <trkpt lat="46.73626" lon="-1.98386">
        <ele>4.6</ele>
        <time>2025-01-22T10:01:55.780Z</time>
      </trkpt>
      <trkpt lat="46.7363" lon="-1.98383">
        <ele>4.7</ele>
        <time>2025-01-22T10:01:56.780Z</time>
      </trkpt>
      <trkpt lat="46.73631" lon="-1.98381">
        <ele>4.8</ele>
        <time>2025-01-22T10:01:57.780Z</time>
      </trkpt>
      <trkpt lat="46.73631" lon="-1.98375">
        <ele>4.9</ele>
        <time>2025-01-22T10:01:58.780Z</time>
      </trkpt>
      <trkpt lat="46.73629" lon="-1.98369">
        <ele>4.9</ele>
        <time>2025-01-22T10:01:59.780Z</time>
      </trkpt>
      <trkpt lat="46.73629" lon="-1.98369">
        <ele>4.9</ele>
        <time>2025-01-22T10:02:00.780Z</time>
      </trkpt>
      <trkpt lat="46.73626" lon="-1.98362">
        <ele>5</ele>
        <time>2025-01-22T10:02:01.780Z</time>
      </trkpt>
      <trkpt lat="46.73625" lon="-1.98359">
        <ele>5</ele>
        <time>2025-01-22T10:02:02.780Z</time>
      </trkpt>
      <trkpt lat="46.73624" lon="-1.98357">
        <ele>5</ele>
        <time>2025-01-22T10:02:03.780Z</time>
      </trkpt>
      <trkpt lat="46.73623" lon="-1.98354">
        <ele>5</ele>
        <time>2025-01-22T10:02:04.780Z</time>
      </trkpt>
      <trkpt lat="46.73623" lon="-1.98354">
        <ele>5</ele>
        <time>2025-01-22T10:02:05.780Z</time>
      </trkpt>
      <trkpt lat="46.7362" lon="-1.98347">
        <ele>5</ele>
        <time>2025-01-22T10:02:06.780Z</time>
      </trkpt>
      <trkpt lat="46.73619" lon="-1.98344">
        <ele>5</ele>
        <time>2025-01-22T10:02:07.780Z</time>
      </trkpt>
      <trkpt lat="46.73618" lon="-1.98341">
        <ele>5</ele>
        <time>2025-01-22T10:02:08.780Z</time>
      </trkpt>
      <trkpt lat="46.73618" lon="-1.98338">
        <ele>5</ele>
        <time>2025-01-22T10:02:09.780Z</time>
      </trkpt>
      <trkpt lat="46.73617" lon="-1.98336">
        <ele>5</ele>
        <time>2025-01-22T10:02:10.780Z</time>
      </trkpt>
      <trkpt lat="46.73616" lon="-1.98333">
        <ele>5</ele>
        <time>2025-01-22T10:02:11.780Z</time>
      </trkpt>
      <trkpt lat="46.73614" lon="-1.98331">
        <ele>5.1</ele>
        <time>2025-01-22T10:02:12.780Z</time>
      </trkpt>
      <trkpt lat="46.73613" lon="-1.98328">
        <ele>5.2</ele>
        <time>2025-01-22T10:02:13.780Z</time>
      </trkpt>
      <trkpt lat="46.73611" lon="-1.98325">
        <ele>5.3</ele>
        <time>2025-01-22T10:02:14.780Z</time>
      </trkpt>
      <trkpt lat="46.73609" lon="-1.98321">
        <ele>5.5</ele>
        <time>2025-01-22T10:02:15.780Z</time>
      </trkpt>
      <trkpt lat="46.73607" lon="-1.98318">
        <ele>5.7</ele>
        <time>2025-01-22T10:02:16.780Z</time>
      </trkpt>
      <trkpt lat="46.73606" lon="-1.98315">
        <ele>5.8</ele>
        <time>2025-01-22T10:02:17.780Z</time>
      </trkpt>
      <trkpt lat="46.73604" lon="-1.98311">
        <ele>6</ele>
        <time>2025-01-22T10:02:18.780Z</time>
      </trkpt>
      <trkpt lat="46.73602" lon="-1.98308">
        <ele>6.2</ele>
        <time>2025-01-22T10:02:19.780Z</time>
      </trkpt>
      <trkpt lat="46.73602" lon="-1.98308">
        <ele>6.2</ele>
        <time>2025-01-22T10:02:20.780Z</time>
      </trkpt>
      <trkpt lat="46.73598" lon="-1.98301">
        <ele>6.5</ele>
        <time>2025-01-22T10:02:21.780Z</time>
      </trkpt>
      <trkpt lat="46.73597" lon="-1.98297">
        <ele>6.5</ele>
        <time>2025-01-22T10:02:22.780Z</time>
      </trkpt>
      <trkpt lat="46.73596" lon="-1.98294">
        <ele>6.6</ele>
        <time>2025-01-22T10:02:23.780Z</time>
      </trkpt>
      <trkpt lat="46.73595" lon="-1.98291">
        <ele>6.6</ele>
        <time>2025-01-22T10:02:24.780Z</time>
      </trkpt>
      <trkpt lat="46.73594" lon="-1.98288">
        <ele>6.6</ele>
        <time>2025-01-22T10:02:25.780Z</time>
      </trkpt>
      <trkpt lat="46.73593" lon="-1.98285">
        <ele>6.6</ele>
        <time>2025-01-22T10:02:26.780Z</time>
      </trkpt>
      <trkpt lat="46.73593" lon="-1.98282">
        <ele>6.7</ele>
        <time>2025-01-22T10:02:27.780Z</time>
      </trkpt>
      <trkpt lat="46.73592" lon="-1.9828">
        <ele>6.7</ele>
        <time>2025-01-22T10:02:28.780Z</time>
      </trkpt>
      <trkpt lat="46.73591" lon="-1.98277">
        <ele>6.7</ele>
        <time>2025-01-22T10:02:29.780Z</time>
      </trkpt>
      <trkpt lat="46.7359" lon="-1.98274">
        <ele>6.7</ele>
        <time>2025-01-22T10:02:30.780Z</time>
      </trkpt>
      <trkpt lat="46.73589" lon="-1.98271">
        <ele>6.6</ele>
        <time>2025-01-22T10:02:31.780Z</time>
      </trkpt>
      <trkpt lat="46.73588" lon="-1.98267">
        <ele>6.5</ele>
        <time>2025-01-22T10:02:32.780Z</time>
      </trkpt>
      <trkpt lat="46.73587" lon="-1.98265">
        <ele>6.5</ele>
        <time>2025-01-22T10:02:33.780Z</time>
      </trkpt>
      <trkpt lat="46.73586" lon="-1.98262">
        <ele>6.4</ele>
        <time>2025-01-22T10:02:34.780Z</time>
      </trkpt>
      <trkpt lat="46.73585" lon="-1.9826">
        <ele>6.4</ele>
        <time>2025-01-22T10:02:35.780Z</time>
      </trkpt>
      <trkpt lat="46.73584" lon="-1.98258">
        <ele>6.3</ele>
        <time>2025-01-22T10:02:36.780Z</time>
      </trkpt>
      <trkpt lat="46.73582" lon="-1.98254">
        <ele>6.2</ele>
        <time>2025-01-22T10:02:37.780Z</time>
      </trkpt>
      <trkpt lat="46.73581" lon="-1.9825">
        <ele>6.1</ele>
        <time>2025-01-22T10:02:38.780Z</time>
      </trkpt>
      <trkpt lat="46.73581" lon="-1.98247">
        <ele>6.2</ele>
        <time>2025-01-22T10:02:39.780Z</time>
      </trkpt>
      <trkpt lat="46.73579" lon="-1.98245">
        <ele>6.3</ele>
        <time>2025-01-22T10:02:40.780Z</time>
      </trkpt>
      <trkpt lat="46.73578" lon="-1.98242">
        <ele>6.4</ele>
        <time>2025-01-22T10:02:41.780Z</time>
      </trkpt>
      <trkpt lat="46.73576" lon="-1.9824">
        <ele>6.5</ele>
        <time>2025-01-22T10:02:42.780Z</time>
      </trkpt>
      <trkpt lat="46.73575" lon="-1.98237">
        <ele>6.6</ele>
        <time>2025-01-22T10:02:43.780Z</time>
      </trkpt>
      <trkpt lat="46.73574" lon="-1.98234">
        <ele>6.7</ele>
        <time>2025-01-22T10:02:44.780Z</time>
      </trkpt>
      <trkpt lat="46.73573" lon="-1.98231">
        <ele>6.8</ele>
        <time>2025-01-22T10:02:45.780Z</time>
      </trkpt>
      <trkpt lat="46.73572" lon="-1.98228">
        <ele>6.8</ele>
        <time>2025-01-22T10:02:46.780Z</time>
      </trkpt>
      <trkpt lat="46.73571" lon="-1.98225">
        <ele>6.9</ele>
        <time>2025-01-22T10:02:47.780Z</time>
      </trkpt>
      <trkpt lat="46.73569" lon="-1.98221">
        <ele>7</ele>
        <time>2025-01-22T10:02:48.780Z</time>
      </trkpt>
      <trkpt lat="46.73568" lon="-1.98217">
        <ele>7.1</ele>
        <time>2025-01-22T10:02:49.780Z</time>
      </trkpt>
      <trkpt lat="46.73566" lon="-1.98215">
        <ele>7.2</ele>
        <time>2025-01-22T10:02:50.780Z</time>
      </trkpt>
      <trkpt lat="46.73564" lon="-1.98213">
        <ele>7.4</ele>
        <time>2025-01-22T10:02:51.780Z</time>
      </trkpt>
      <trkpt lat="46.73562" lon="-1.9821">
        <ele>7.6</ele>
        <time>2025-01-22T10:02:52.780Z</time>
      </trkpt>
      <trkpt lat="46.7356" lon="-1.98208">
        <ele>7.7</ele>
        <time>2025-01-22T10:02:53.780Z</time>
      </trkpt>
      <trkpt lat="46.73558" lon="-1.98206">
        <ele>7.8</ele>
        <time>2025-01-22T10:02:54.780Z</time>
      </trkpt>
      <trkpt lat="46.73557" lon="-1.98201">
        <ele>7.9</ele>
        <time>2025-01-22T10:02:55.780Z</time>
      </trkpt>
      <trkpt lat="46.73555" lon="-1.98198">
        <ele>8</ele>
        <time>2025-01-22T10:02:56.780Z</time>
      </trkpt>
      <trkpt lat="46.73553" lon="-1.98196">
        <ele>8</ele>
        <time>2025-01-22T10:02:57.780Z</time>
      </trkpt>
      <trkpt lat="46.73551" lon="-1.98193">
        <ele>7.9</ele>
        <time>2025-01-22T10:02:58.780Z</time>
      </trkpt>
      <trkpt lat="46.7355" lon="-1.98191">
        <ele>7.7</ele>
        <time>2025-01-22T10:02:59.780Z</time>
      </trkpt>
      <trkpt lat="46.73548" lon="-1.98188">
        <ele>7.6</ele>
        <time>2025-01-22T10:03:00.780Z</time>
      </trkpt>
      <trkpt lat="46.73547" lon="-1.98184">
        <ele>7.4</ele>
        <time>2025-01-22T10:03:01.780Z</time>
      </trkpt>
      <trkpt lat="46.73546" lon="-1.98181">
        <ele>7.2</ele>
        <time>2025-01-22T10:03:02.780Z</time>
      </trkpt>
      <trkpt lat="46.73545" lon="-1.98179">
        <ele>7.1</ele>
        <time>2025-01-22T10:03:03.780Z</time>
      </trkpt>
      <trkpt lat="46.73544" lon="-1.98176">
        <ele>7</ele>
        <time>2025-01-22T10:03:04.780Z</time>
      </trkpt>
      <trkpt lat="46.73542" lon="-1.98173">
        <ele>6.8</ele>
        <time>2025-01-22T10:03:05.780Z</time>
      </trkpt>
      <trkpt lat="46.73541" lon="-1.98171">
        <ele>6.8</ele>
        <time>2025-01-22T10:03:06.780Z</time>
      </trkpt>
      <trkpt lat="46.7354" lon="-1.98168">
        <ele>6.7</ele>
        <time>2025-01-22T10:03:07.780Z</time>
      </trkpt>
      <trkpt lat="46.73538" lon="-1.98166">
        <ele>6.6</ele>
        <time>2025-01-22T10:03:08.780Z</time>
      </trkpt>
      <trkpt lat="46.73537" lon="-1.98163">
        <ele>6.6</ele>
        <time>2025-01-22T10:03:09.780Z</time>
      </trkpt>
      <trkpt lat="46.73535" lon="-1.9816">
        <ele>6.6</ele>
        <time>2025-01-22T10:03:10.780Z</time>
      </trkpt>
      <trkpt lat="46.73533" lon="-1.98157">
        <ele>6.5</ele>
        <time>2025-01-22T10:03:11.780Z</time>
      </trkpt>
      <trkpt lat="46.7353" lon="-1.98154">
        <ele>6.5</ele>
        <time>2025-01-22T10:03:12.780Z</time>
      </trkpt>
      <trkpt lat="46.73528" lon="-1.98151">
        <ele>6.4</ele>
        <time>2025-01-22T10:03:13.780Z</time>
      </trkpt>
      <trkpt lat="46.73526" lon="-1.98149">
        <ele>6.4</ele>
        <time>2025-01-22T10:03:14.780Z</time>
      </trkpt>
      <trkpt lat="46.73524" lon="-1.98146">
        <ele>6.3</ele>
        <time>2025-01-22T10:03:15.780Z</time>
      </trkpt>
      <trkpt lat="46.73521" lon="-1.98143">
        <ele>6.2</ele>
        <time>2025-01-22T10:03:16.780Z</time>
      </trkpt>
      <trkpt lat="46.73518" lon="-1.9814">
        <ele>6</ele>
        <time>2025-01-22T10:03:17.780Z</time>
      </trkpt>
      <trkpt lat="46.73516" lon="-1.98137">
        <ele>6</ele>
        <time>2025-01-22T10:03:18.780Z</time>
      </trkpt>
      <trkpt lat="46.73514" lon="-1.98135">
        <ele>6</ele>
        <time>2025-01-22T10:03:19.780Z</time>
      </trkpt>
      <trkpt lat="46.73512" lon="-1.98132">
        <ele>6</ele>
        <time>2025-01-22T10:03:20.780Z</time>
      </trkpt>
      <trkpt lat="46.73511" lon="-1.98129">
        <ele>6</ele>
        <time>2025-01-22T10:03:21.780Z</time>
      </trkpt>
      <trkpt lat="46.73509" lon="-1.98127">
        <ele>6</ele>
        <time>2025-01-22T10:03:22.780Z</time>
      </trkpt>
      <trkpt lat="46.73507" lon="-1.98124">
        <ele>6</ele>
        <time>2025-01-22T10:03:23.780Z</time>
      </trkpt>
      <trkpt lat="46.73505" lon="-1.98122">
        <ele>6</ele>
        <time>2025-01-22T10:03:24.780Z</time>
      </trkpt>
      <trkpt lat="46.73504" lon="-1.9812">
        <ele>6</ele>
        <time>2025-01-22T10:03:25.780Z</time>
      </trkpt>
      <trkpt lat="46.73502" lon="-1.98117">
        <ele>6</ele>
        <time>2025-01-22T10:03:26.780Z</time>
      </trkpt>
      <trkpt lat="46.735" lon="-1.98115">
        <ele>6</ele>
        <time>2025-01-22T10:03:27.780Z</time>
      </trkpt>
      <trkpt lat="46.73498" lon="-1.98113">
        <ele>6.1</ele>
        <time>2025-01-22T10:03:28.780Z</time>
      </trkpt>
      <trkpt lat="46.73497" lon="-1.98111">
        <ele>6.1</ele>
        <time>2025-01-22T10:03:29.780Z</time>
      </trkpt>
      <trkpt lat="46.73495" lon="-1.98109">
        <ele>6.2</ele>
        <time>2025-01-22T10:03:30.780Z</time>
      </trkpt>
      <trkpt lat="46.73494" lon="-1.98107">
        <ele>6.3</ele>
        <time>2025-01-22T10:03:31.780Z</time>
      </trkpt>
      <trkpt lat="46.73492" lon="-1.98105">
        <ele>6.4</ele>
        <time>2025-01-22T10:03:32.780Z</time>
      </trkpt>
      <trkpt lat="46.7349" lon="-1.98103">
        <ele>6.5</ele>
        <time>2025-01-22T10:03:33.780Z</time>
      </trkpt>
      <trkpt lat="46.73488" lon="-1.98101">
        <ele>6.6</ele>
        <time>2025-01-22T10:03:34.780Z</time>
      </trkpt>
      <trkpt lat="46.73486" lon="-1.98098">
        <ele>6.7</ele>
        <time>2025-01-22T10:03:35.780Z</time>
      </trkpt>
      <trkpt lat="46.73484" lon="-1.98096">
        <ele>6.8</ele>
        <time>2025-01-22T10:03:36.780Z</time>
      </trkpt>
      <trkpt lat="46.73482" lon="-1.98093">
        <ele>6.9</ele>
        <time>2025-01-22T10:03:37.780Z</time>
      </trkpt>
      <trkpt lat="46.7348" lon="-1.98091">
        <ele>6.9</ele>
        <time>2025-01-22T10:03:38.780Z</time>
      </trkpt>
      <trkpt lat="46.73478" lon="-1.98089">
        <ele>7</ele>
        <time>2025-01-22T10:03:39.780Z</time>
      </trkpt>
      <trkpt lat="46.73476" lon="-1.98087">
        <ele>7</ele>
        <time>2025-01-22T10:03:40.780Z</time>
      </trkpt>
      <trkpt lat="46.73475" lon="-1.98086">
        <ele>7</ele>
        <time>2025-01-22T10:03:41.780Z</time>
      </trkpt>
      <trkpt lat="46.73473" lon="-1.98084">
        <ele>7</ele>
        <time>2025-01-22T10:03:42.780Z</time>
      </trkpt>
      <trkpt lat="46.73472" lon="-1.98082">
        <ele>7.1</ele>
        <time>2025-01-22T10:03:43.780Z</time>
      </trkpt>
      <trkpt lat="46.7347" lon="-1.9808">
        <ele>7.1</ele>
        <time>2025-01-22T10:03:44.780Z</time>
      </trkpt>
      <trkpt lat="46.73469" lon="-1.98078">
        <ele>7.2</ele>
        <time>2025-01-22T10:03:45.780Z</time>
      </trkpt>
      <trkpt lat="46.73469" lon="-1.98077">
        <ele>7.2</ele>
        <time>2025-01-22T10:03:46.780Z</time>
      </trkpt>
      <trkpt lat="46.73468" lon="-1.98075">
        <ele>7.3</ele>
        <time>2025-01-22T10:03:47.780Z</time>
      </trkpt>
      <trkpt lat="46.73466" lon="-1.98072">
        <ele>7.3</ele>
        <time>2025-01-22T10:03:48.780Z</time>
      </trkpt>
      <trkpt lat="46.73464" lon="-1.98069">
        <ele>7.4</ele>
        <time>2025-01-22T10:03:49.780Z</time>
      </trkpt>
      <trkpt lat="46.73462" lon="-1.98066">
        <ele>7.4</ele>
        <time>2025-01-22T10:03:50.780Z</time>
      </trkpt>
      <trkpt lat="46.7346" lon="-1.98062">
        <ele>7.4</ele>
        <time>2025-01-22T10:03:51.780Z</time>
      </trkpt>
      <trkpt lat="46.73458" lon="-1.98059">
        <ele>7.4</ele>
        <time>2025-01-22T10:03:52.780Z</time>
      </trkpt>
      <trkpt lat="46.73456" lon="-1.98057">
        <ele>7.4</ele>
        <time>2025-01-22T10:03:53.780Z</time>
      </trkpt>
      <trkpt lat="46.73454" lon="-1.98054">
        <ele>7.3</ele>
        <time>2025-01-22T10:03:54.780Z</time>
      </trkpt>
      <trkpt lat="46.73451" lon="-1.9805">
        <ele>7.2</ele>
        <time>2025-01-22T10:03:55.780Z</time>
      </trkpt>
      <trkpt lat="46.7345" lon="-1.98048">
        <ele>7.2</ele>
        <time>2025-01-22T10:03:56.780Z</time>
      </trkpt>
      <trkpt lat="46.73449" lon="-1.98046">
        <ele>7.2</ele>
        <time>2025-01-22T10:03:57.780Z</time>
      </trkpt>
      <trkpt lat="46.73447" lon="-1.98043">
        <ele>7.1</ele>
        <time>2025-01-22T10:03:58.780Z</time>
      </trkpt>
      <trkpt lat="46.73446" lon="-1.9804">
        <ele>7.1</ele>
        <time>2025-01-22T10:03:59.780Z</time>
      </trkpt>
      <trkpt lat="46.73445" lon="-1.98036">
        <ele>7</ele>
        <time>2025-01-22T10:04:00.780Z</time>
      </trkpt>
      <trkpt lat="46.73444" lon="-1.98033">
        <ele>7</ele>
        <time>2025-01-22T10:04:01.780Z</time>
      </trkpt>
      <trkpt lat="46.73442" lon="-1.98031">
        <ele>7.1</ele>
        <time>2025-01-22T10:04:02.780Z</time>
      </trkpt>
      <trkpt lat="46.73441" lon="-1.98028">
        <ele>7.1</ele>
        <time>2025-01-22T10:04:03.780Z</time>
      </trkpt>
      <trkpt lat="46.73439" lon="-1.98026">
        <ele>7.4</ele>
        <time>2025-01-22T10:04:04.780Z</time>
      </trkpt>
      <trkpt lat="46.73438" lon="-1.98023">
        <ele>7.8</ele>
        <time>2025-01-22T10:04:05.780Z</time>
      </trkpt>
      <trkpt lat="46.73436" lon="-1.9802">
        <ele>8.2</ele>
        <time>2025-01-22T10:04:06.780Z</time>
      </trkpt>
      <trkpt lat="46.73434" lon="-1.98017">
        <ele>8.5</ele>
        <time>2025-01-22T10:04:07.780Z</time>
      </trkpt>
      <trkpt lat="46.73433" lon="-1.98014">
        <ele>8.8</ele>
        <time>2025-01-22T10:04:08.780Z</time>
      </trkpt>
      <trkpt lat="46.73431" lon="-1.98012">
        <ele>8.9</ele>
        <time>2025-01-22T10:04:09.780Z</time>
      </trkpt>
      <trkpt lat="46.7343" lon="-1.9801">
        <ele>9.1</ele>
        <time>2025-01-22T10:04:10.780Z</time>
      </trkpt>
      <trkpt lat="46.73429" lon="-1.98008">
        <ele>9.2</ele>
        <time>2025-01-22T10:04:11.780Z</time>
      </trkpt>
      <trkpt lat="46.73428" lon="-1.98007">
        <ele>9.3</ele>
        <time>2025-01-22T10:04:12.780Z</time>
      </trkpt>
      <trkpt lat="46.73427" lon="-1.98005">
        <ele>9.4</ele>
        <time>2025-01-22T10:04:13.780Z</time>
      </trkpt>
      <trkpt lat="46.73426" lon="-1.98002">
        <ele>9.5</ele>
        <time>2025-01-22T10:04:14.780Z</time>
      </trkpt>
      <trkpt lat="46.73424" lon="-1.98">
        <ele>9.5</ele>
        <time>2025-01-22T10:04:15.780Z</time>
      </trkpt>
      <trkpt lat="46.73423" lon="-1.97997">
        <ele>9.3</ele>
        <time>2025-01-22T10:04:16.780Z</time>
      </trkpt>
      <trkpt lat="46.73422" lon="-1.97994">
        <ele>9</ele>
        <time>2025-01-22T10:04:17.780Z</time>
      </trkpt>
      <trkpt lat="46.7342" lon="-1.9799">
        <ele>8.8</ele>
        <time>2025-01-22T10:04:18.780Z</time>
      </trkpt>
      <trkpt lat="46.73419" lon="-1.97987">
        <ele>8.6</ele>
        <time>2025-01-22T10:04:19.780Z</time>
      </trkpt>
      <trkpt lat="46.73418" lon="-1.97984">
        <ele>8.4</ele>
        <time>2025-01-22T10:04:20.780Z</time>
      </trkpt>
      <trkpt lat="46.73416" lon="-1.9798">
        <ele>8.3</ele>
        <time>2025-01-22T10:04:21.780Z</time>
      </trkpt>
      <trkpt lat="46.73415" lon="-1.97978">
        <ele>8.2</ele>
        <time>2025-01-22T10:04:22.780Z</time>
      </trkpt>
      <trkpt lat="46.73414" lon="-1.97974">
        <ele>8.1</ele>
        <time>2025-01-22T10:04:23.780Z</time>
      </trkpt>
      <trkpt lat="46.73413" lon="-1.97971">
        <ele>7.9</ele>
        <time>2025-01-22T10:04:24.780Z</time>
      </trkpt>
      <trkpt lat="46.73412" lon="-1.97968">
        <ele>7.8</ele>
        <time>2025-01-22T10:04:25.780Z</time>
      </trkpt>
      <trkpt lat="46.7341" lon="-1.97965">
        <ele>7.8</ele>
        <time>2025-01-22T10:04:26.780Z</time>
      </trkpt>
      <trkpt lat="46.73409" lon="-1.97962">
        <ele>7.6</ele>
        <time>2025-01-22T10:04:27.780Z</time>
      </trkpt>
      <trkpt lat="46.73408" lon="-1.9796">
        <ele>7.6</ele>
        <time>2025-01-22T10:04:28.780Z</time>
      </trkpt>
      <trkpt lat="46.73407" lon="-1.97957">
        <ele>7.5</ele>
        <time>2025-01-22T10:04:29.780Z</time>
      </trkpt>
      <trkpt lat="46.73406" lon="-1.97955">
        <ele>7.4</ele>
        <time>2025-01-22T10:04:30.780Z</time>
      </trkpt>
      <trkpt lat="46.73406" lon="-1.97952">
        <ele>7.3</ele>
        <time>2025-01-22T10:04:31.780Z</time>
      </trkpt>
      <trkpt lat="46.73405" lon="-1.97949">
        <ele>7.2</ele>
        <time>2025-01-22T10:04:32.780Z</time>
      </trkpt>
      <trkpt lat="46.73403" lon="-1.97945">
        <ele>7</ele>
        <time>2025-01-22T10:04:33.780Z</time>
      </trkpt>
      <trkpt lat="46.73402" lon="-1.97942">
        <ele>6.9</ele>
        <time>2025-01-22T10:04:34.780Z</time>
      </trkpt>
      <trkpt lat="46.73401" lon="-1.9794">
        <ele>6.7</ele>
        <time>2025-01-22T10:04:35.780Z</time>
      </trkpt>
      <trkpt lat="46.734" lon="-1.97938">
        <ele>6.7</ele>
        <time>2025-01-22T10:04:36.780Z</time>
      </trkpt>
      <trkpt lat="46.73399" lon="-1.97935">
        <ele>6.5</ele>
        <time>2025-01-22T10:04:37.780Z</time>
      </trkpt>
      <trkpt lat="46.73398" lon="-1.97931">
        <ele>6.4</ele>
        <time>2025-01-22T10:04:38.780Z</time>
      </trkpt>
      <trkpt lat="46.73397" lon="-1.97928">
        <ele>6.2</ele>
        <time>2025-01-22T10:04:39.780Z</time>
      </trkpt>
      <trkpt lat="46.73398" lon="-1.97926">
        <ele>6.1</ele>
        <time>2025-01-22T10:04:40.780Z</time>
      </trkpt>
      <trkpt lat="46.73397" lon="-1.97922">
        <ele>6</ele>
        <time>2025-01-22T10:04:41.780Z</time>
      </trkpt>
      <trkpt lat="46.73397" lon="-1.97917">
        <ele>5.7</ele>
        <time>2025-01-22T10:04:42.780Z</time>
      </trkpt>
      <trkpt lat="46.73398" lon="-1.97914">
        <ele>5.8</ele>
        <time>2025-01-22T10:04:43.780Z</time>
      </trkpt>
      <trkpt lat="46.73399" lon="-1.97911">
        <ele>5.9</ele>
        <time>2025-01-22T10:04:44.780Z</time>
      </trkpt>
      <trkpt lat="46.734" lon="-1.97908">
        <ele>6</ele>
        <time>2025-01-22T10:04:45.780Z</time>
      </trkpt>
      <trkpt lat="46.73401" lon="-1.97906">
        <ele>6.1</ele>
        <time>2025-01-22T10:04:46.780Z</time>
      </trkpt>
      <trkpt lat="46.73403" lon="-1.97903">
        <ele>6.2</ele>
        <time>2025-01-22T10:04:47.780Z</time>
      </trkpt>
      <trkpt lat="46.73405" lon="-1.97901">
        <ele>6.4</ele>
        <time>2025-01-22T10:04:48.780Z</time>
      </trkpt>
      <trkpt lat="46.73406" lon="-1.97898">
        <ele>6.6</ele>
        <time>2025-01-22T10:04:49.780Z</time>
      </trkpt>
      <trkpt lat="46.73407" lon="-1.97895">
        <ele>6.9</ele>
        <time>2025-01-22T10:04:50.780Z</time>
      </trkpt>
      <trkpt lat="46.73408" lon="-1.97893">
        <ele>7</ele>
        <time>2025-01-22T10:04:51.780Z</time>
      </trkpt>
      <trkpt lat="46.73408" lon="-1.97892">
        <ele>7.2</ele>
        <time>2025-01-22T10:04:52.780Z</time>
      </trkpt>
      <trkpt lat="46.73408" lon="-1.9789">
        <ele>7.3</ele>
        <time>2025-01-22T10:04:53.780Z</time>
      </trkpt>
      <trkpt lat="46.73407" lon="-1.97889">
        <ele>7.3</ele>
        <time>2025-01-22T10:04:54.780Z</time>
      </trkpt>
      <trkpt lat="46.73406" lon="-1.97887">
        <ele>7.3</ele>
        <time>2025-01-22T10:04:55.780Z</time>
      </trkpt>
      <trkpt lat="46.73405" lon="-1.97885">
        <ele>7.2</ele>
        <time>2025-01-22T10:04:56.780Z</time>
      </trkpt>
      <trkpt lat="46.73403" lon="-1.97882">
        <ele>7.2</ele>
        <time>2025-01-22T10:04:57.780Z</time>
      </trkpt>
      <trkpt lat="46.73402" lon="-1.97879">
        <ele>7.1</ele>
        <time>2025-01-22T10:04:58.780Z</time>
      </trkpt>
      <trkpt lat="46.73401" lon="-1.97875">
        <ele>7.1</ele>
        <time>2025-01-22T10:04:59.780Z</time>
      </trkpt>
      <trkpt lat="46.734" lon="-1.97873">
        <ele>7.2</ele>
        <time>2025-01-22T10:05:00.780Z</time>
      </trkpt>
      <trkpt lat="46.734" lon="-1.9787">
        <ele>7.2</ele>
        <time>2025-01-22T10:05:01.780Z</time>
      </trkpt>
      <trkpt lat="46.73399" lon="-1.97869">
        <ele>7.2</ele>
        <time>2025-01-22T10:05:02.780Z</time>
      </trkpt>
      <trkpt lat="46.73397" lon="-1.97866">
        <ele>7.2</ele>
        <time>2025-01-22T10:05:03.780Z</time>
      </trkpt>
      <trkpt lat="46.73396" lon="-1.97864">
        <ele>7.2</ele>
        <time>2025-01-22T10:05:04.780Z</time>
      </trkpt>
      <trkpt lat="46.73395" lon="-1.97861">
        <ele>7.2</ele>
        <time>2025-01-22T10:05:05.780Z</time>
      </trkpt>
      <trkpt lat="46.73394" lon="-1.97859">
        <ele>7.2</ele>
        <time>2025-01-22T10:05:06.780Z</time>
      </trkpt>
      <trkpt lat="46.73393" lon="-1.97857">
        <ele>7.3</ele>
        <time>2025-01-22T10:05:07.780Z</time>
      </trkpt>
      <trkpt lat="46.73392" lon="-1.97854">
        <ele>7.3</ele>
        <time>2025-01-22T10:05:08.780Z</time>
      </trkpt>
      <trkpt lat="46.7339" lon="-1.97851">
        <ele>7.4</ele>
        <time>2025-01-22T10:05:09.780Z</time>
      </trkpt>
      <trkpt lat="46.73389" lon="-1.97849">
        <ele>7.5</ele>
        <time>2025-01-22T10:05:10.780Z</time>
      </trkpt>
      <trkpt lat="46.73389" lon="-1.97847">
        <ele>7.5</ele>
        <time>2025-01-22T10:05:11.780Z</time>
      </trkpt>
      <trkpt lat="46.73388" lon="-1.97845">
        <ele>7.7</ele>
        <time>2025-01-22T10:05:12.780Z</time>
      </trkpt>
      <trkpt lat="46.73387" lon="-1.97843">
        <ele>7.8</ele>
        <time>2025-01-22T10:05:13.780Z</time>
      </trkpt>
      <trkpt lat="46.73386" lon="-1.97841">
        <ele>7.9</ele>
        <time>2025-01-22T10:05:14.780Z</time>
      </trkpt>
      <trkpt lat="46.73385" lon="-1.97838">
        <ele>8.1</ele>
        <time>2025-01-22T10:05:15.780Z</time>
      </trkpt>
      <trkpt lat="46.73385" lon="-1.97834">
        <ele>8.3</ele>
        <time>2025-01-22T10:05:16.780Z</time>
      </trkpt>
      <trkpt lat="46.73384" lon="-1.97833">
        <ele>8.3</ele>
        <time>2025-01-22T10:05:17.780Z</time>
      </trkpt>
      <trkpt lat="46.73384" lon="-1.97831">
        <ele>8.2</ele>
        <time>2025-01-22T10:05:18.780Z</time>
      </trkpt>
      <trkpt lat="46.73382" lon="-1.97827">
        <ele>8.2</ele>
        <time>2025-01-22T10:05:19.780Z</time>
      </trkpt>
      <trkpt lat="46.73381" lon="-1.97823">
        <ele>8.1</ele>
        <time>2025-01-22T10:05:20.780Z</time>
      </trkpt>
      <trkpt lat="46.73379" lon="-1.9782">
        <ele>8.1</ele>
        <time>2025-01-22T10:05:21.780Z</time>
      </trkpt>
      <trkpt lat="46.73378" lon="-1.97818">
        <ele>8.1</ele>
        <time>2025-01-22T10:05:22.780Z</time>
      </trkpt>
      <trkpt lat="46.73376" lon="-1.97815">
        <ele>8.3</ele>
        <time>2025-01-22T10:05:23.780Z</time>
      </trkpt>
      <trkpt lat="46.73374" lon="-1.97812">
        <ele>8.4</ele>
        <time>2025-01-22T10:05:24.780Z</time>
      </trkpt>
      <trkpt lat="46.73372" lon="-1.97809">
        <ele>8.5</ele>
        <time>2025-01-22T10:05:25.780Z</time>
      </trkpt>
      <trkpt lat="46.73371" lon="-1.97806">
        <ele>8.7</ele>
        <time>2025-01-22T10:05:26.780Z</time>
      </trkpt>
      <trkpt lat="46.7337" lon="-1.97803">
        <ele>8.5</ele>
        <time>2025-01-22T10:05:27.780Z</time>
      </trkpt>
      <trkpt lat="46.7337" lon="-1.97801">
        <ele>8.5</ele>
        <time>2025-01-22T10:05:28.780Z</time>
      </trkpt>
      <trkpt lat="46.73369" lon="-1.97799">
        <ele>8.4</ele>
        <time>2025-01-22T10:05:29.780Z</time>
      </trkpt>
      <trkpt lat="46.73368" lon="-1.97796">
        <ele>8.2</ele>
        <time>2025-01-22T10:05:30.780Z</time>
      </trkpt>
      <trkpt lat="46.73367" lon="-1.97793">
        <ele>8.1</ele>
        <time>2025-01-22T10:05:31.780Z</time>
      </trkpt>
      <trkpt lat="46.73366" lon="-1.9779">
        <ele>8</ele>
        <time>2025-01-22T10:05:32.780Z</time>
      </trkpt>
      <trkpt lat="46.73365" lon="-1.97787">
        <ele>7.8</ele>
        <time>2025-01-22T10:05:33.780Z</time>
      </trkpt>
      <trkpt lat="46.73363" lon="-1.97784">
        <ele>7.6</ele>
        <time>2025-01-22T10:05:34.780Z</time>
      </trkpt>
      <trkpt lat="46.73361" lon="-1.97781">
        <ele>7.4</ele>
        <time>2025-01-22T10:05:35.780Z</time>
      </trkpt>
      <trkpt lat="46.7336" lon="-1.97779">
        <ele>7.1</ele>
        <time>2025-01-22T10:05:36.780Z</time>
      </trkpt>
      <trkpt lat="46.73358" lon="-1.97778">
        <ele>6.9</ele>
        <time>2025-01-22T10:05:37.780Z</time>
      </trkpt>
      <trkpt lat="46.73358" lon="-1.97776">
        <ele>6.9</ele>
        <time>2025-01-22T10:05:38.780Z</time>
      </trkpt>
      <trkpt lat="46.73358" lon="-1.97775">
        <ele>6.9</ele>
        <time>2025-01-22T10:05:39.780Z</time>
      </trkpt>
      <trkpt lat="46.73357" lon="-1.97772">
        <ele>6.9</ele>
        <time>2025-01-22T10:05:40.780Z</time>
      </trkpt>
      <trkpt lat="46.73356" lon="-1.97769">
        <ele>6.9</ele>
        <time>2025-01-22T10:05:41.780Z</time>
      </trkpt>
      <trkpt lat="46.73356" lon="-1.97766">
        <ele>7</ele>
        <time>2025-01-22T10:05:42.780Z</time>
      </trkpt>
      <trkpt lat="46.73355" lon="-1.97764">
        <ele>7.1</ele>
        <time>2025-01-22T10:05:43.780Z</time>
      </trkpt>
      <trkpt lat="46.73353" lon="-1.97761">
        <ele>7.3</ele>
        <time>2025-01-22T10:05:44.780Z</time>
      </trkpt>
      <trkpt lat="46.73352" lon="-1.97759">
        <ele>7.5</ele>
        <time>2025-01-22T10:05:45.780Z</time>
      </trkpt>
      <trkpt lat="46.7335" lon="-1.97757">
        <ele>7.9</ele>
        <time>2025-01-22T10:05:46.780Z</time>
      </trkpt>
      <trkpt lat="46.73349" lon="-1.97755">
        <ele>8.3</ele>
        <time>2025-01-22T10:05:47.780Z</time>
      </trkpt>
      <trkpt lat="46.73348" lon="-1.97755">
        <ele>8.5</ele>
        <time>2025-01-22T10:05:48.780Z</time>
      </trkpt>
      <trkpt lat="46.73346" lon="-1.97754">
        <ele>8.8</ele>
        <time>2025-01-22T10:05:49.780Z</time>
      </trkpt>
      <trkpt lat="46.73344" lon="-1.97754">
        <ele>9.3</ele>
        <time>2025-01-22T10:05:50.780Z</time>
      </trkpt>
      <trkpt lat="46.73343" lon="-1.97754">
        <ele>9.5</ele>
        <time>2025-01-22T10:05:51.780Z</time>
      </trkpt>
      <trkpt lat="46.73342" lon="-1.97753">
        <ele>9.8</ele>
        <time>2025-01-22T10:05:52.780Z</time>
      </trkpt>
      <trkpt lat="46.73341" lon="-1.97753">
        <ele>9.9</ele>
        <time>2025-01-22T10:05:53.780Z</time>
      </trkpt>
      <trkpt lat="46.7334" lon="-1.97752">
        <ele>10.2</ele>
        <time>2025-01-22T10:05:54.780Z</time>
      </trkpt>
      <trkpt lat="46.73338" lon="-1.97751">
        <ele>10.8</ele>
        <time>2025-01-22T10:05:55.780Z</time>
      </trkpt>
      <trkpt lat="46.73337" lon="-1.9775">
        <ele>11.1</ele>
        <time>2025-01-22T10:05:56.780Z</time>
      </trkpt>
      <trkpt lat="46.73336" lon="-1.9775">
        <ele>11.4</ele>
        <time>2025-01-22T10:05:57.780Z</time>
      </trkpt>
      <trkpt lat="46.73336" lon="-1.97748">
        <ele>11.6</ele>
        <time>2025-01-22T10:05:58.780Z</time>
      </trkpt>
      <trkpt lat="46.73334" lon="-1.97745">
        <ele>12</ele>
        <time>2025-01-22T10:05:59.780Z</time>
      </trkpt>
      <trkpt lat="46.73332" lon="-1.97743">
        <ele>12.2</ele>
        <time>2025-01-22T10:06:00.780Z</time>
      </trkpt>
      <trkpt lat="46.73332" lon="-1.97741">
        <ele>12.2</ele>
        <time>2025-01-22T10:06:01.780Z</time>
      </trkpt>
      <trkpt lat="46.73332" lon="-1.9774">
        <ele>12.3</ele>
        <time>2025-01-22T10:06:02.780Z</time>
      </trkpt>
      <trkpt lat="46.73331" lon="-1.9774">
        <ele>12.2</ele>
        <time>2025-01-22T10:06:03.780Z</time>
      </trkpt>
      <trkpt lat="46.73331" lon="-1.97741">
        <ele>12.2</ele>
        <time>2025-01-22T10:06:04.780Z</time>
      </trkpt>
      <trkpt lat="46.73331" lon="-1.97741">
        <ele>12.2</ele>
        <time>2025-01-22T10:06:05.780Z</time>
      </trkpt>
      <trkpt lat="46.73331" lon="-1.97739">
        <ele>12.3</ele>
        <time>2025-01-22T10:06:06.780Z</time>
      </trkpt>
      <trkpt lat="46.73331" lon="-1.97736">
        <ele>12.4</ele>
        <time>2025-01-22T10:06:07.780Z</time>
      </trkpt>
      <trkpt lat="46.73331" lon="-1.97734">
        <ele>12.4</ele>
        <time>2025-01-22T10:06:08.780Z</time>
      </trkpt>
      <trkpt lat="46.73331" lon="-1.97733">
        <ele>12.5</ele>
        <time>2025-01-22T10:06:09.780Z</time>
      </trkpt>
      <trkpt lat="46.73332" lon="-1.97732">
        <ele>12.6</ele>
        <time>2025-01-22T10:06:10.780Z</time>
      </trkpt>
      <trkpt lat="46.73332" lon="-1.97732">
        <ele>12.6</ele>
        <time>2025-01-22T10:06:11.780Z</time>
      </trkpt>
      <trkpt lat="46.73332" lon="-1.97732">
        <ele>12.6</ele>
        <time>2025-01-22T10:06:12.780Z</time>
      </trkpt>
      <trkpt lat="46.73332" lon="-1.97731">
        <ele>12.6</ele>
        <time>2025-01-22T10:06:13.780Z</time>
      </trkpt>
      <trkpt lat="46.73331" lon="-1.97729">
        <ele>12.7</ele>
        <time>2025-01-22T10:06:14.780Z</time>
      </trkpt>
      <trkpt lat="46.73329" lon="-1.97727">
        <ele>12.6</ele>
        <time>2025-01-22T10:06:15.780Z</time>
      </trkpt>
      <trkpt lat="46.73327" lon="-1.97726">
        <ele>12.6</ele>
        <time>2025-01-22T10:06:16.780Z</time>
      </trkpt>
      <trkpt lat="46.73325" lon="-1.97725">
        <ele>12.6</ele>
        <time>2025-01-22T10:06:17.780Z</time>
      </trkpt>
      <trkpt lat="46.73323" lon="-1.97725">
        <ele>12.5</ele>
        <time>2025-01-22T10:06:18.780Z</time>
      </trkpt>
      <trkpt lat="46.73322" lon="-1.97725">
        <ele>12.4</ele>
        <time>2025-01-22T10:06:19.780Z</time>
      </trkpt>
      <trkpt lat="46.7332" lon="-1.97725">
        <ele>12.4</ele>
        <time>2025-01-22T10:06:20.780Z</time>
      </trkpt>
      <trkpt lat="46.73318" lon="-1.97724">
        <ele>12.3</ele>
        <time>2025-01-22T10:06:21.780Z</time>
      </trkpt>
      <trkpt lat="46.73316" lon="-1.97723">
        <ele>12.3</ele>
        <time>2025-01-22T10:06:22.780Z</time>
      </trkpt>
      <trkpt lat="46.73314" lon="-1.97722">
        <ele>12.3</ele>
        <time>2025-01-22T10:06:23.780Z</time>
      </trkpt>
      <trkpt lat="46.73313" lon="-1.97722">
        <ele>12.3</ele>
        <time>2025-01-22T10:06:24.780Z</time>
      </trkpt>
      <trkpt lat="46.7331" lon="-1.97721">
        <ele>12.2</ele>
        <time>2025-01-22T10:06:25.780Z</time>
      </trkpt>
      <trkpt lat="46.73308" lon="-1.97721">
        <ele>12.2</ele>
        <time>2025-01-22T10:06:26.780Z</time>
      </trkpt>
      <trkpt lat="46.73306" lon="-1.9772">
        <ele>12.2</ele>
        <time>2025-01-22T10:06:27.780Z</time>
      </trkpt>
      <trkpt lat="46.73304" lon="-1.9772">
        <ele>12</ele>
        <time>2025-01-22T10:06:28.780Z</time>
      </trkpt>
      <trkpt lat="46.73302" lon="-1.97718">
        <ele>11.9</ele>
        <time>2025-01-22T10:06:29.780Z</time>
      </trkpt>
      <trkpt lat="46.733" lon="-1.97717">
        <ele>11.7</ele>
        <time>2025-01-22T10:06:30.780Z</time>
      </trkpt>
      <trkpt lat="46.73299" lon="-1.97717">
        <ele>11.5</ele>
        <time>2025-01-22T10:06:31.780Z</time>
      </trkpt>
      <trkpt lat="46.73296" lon="-1.97716">
        <ele>11.3</ele>
        <time>2025-01-22T10:06:32.780Z</time>
      </trkpt>
      <trkpt lat="46.73294" lon="-1.97716">
        <ele>11</ele>
        <time>2025-01-22T10:06:33.780Z</time>
      </trkpt>
      <trkpt lat="46.73292" lon="-1.97715">
        <ele>10.8</ele>
        <time>2025-01-22T10:06:34.780Z</time>
      </trkpt>
      <trkpt lat="46.73291" lon="-1.97713">
        <ele>10.7</ele>
        <time>2025-01-22T10:06:35.780Z</time>
      </trkpt>
      <trkpt lat="46.73289" lon="-1.97711">
        <ele>10.6</ele>
        <time>2025-01-22T10:06:36.780Z</time>
      </trkpt>
      <trkpt lat="46.73288" lon="-1.97709">
        <ele>10.5</ele>
        <time>2025-01-22T10:06:37.780Z</time>
      </trkpt>
      <trkpt lat="46.73287" lon="-1.97706">
        <ele>10.3</ele>
        <time>2025-01-22T10:06:38.780Z</time>
      </trkpt>
      <trkpt lat="46.73285" lon="-1.97704">
        <ele>10.1</ele>
        <time>2025-01-22T10:06:39.780Z</time>
      </trkpt>
      <trkpt lat="46.73283" lon="-1.97701">
        <ele>9.9</ele>
        <time>2025-01-22T10:06:40.780Z</time>
      </trkpt>
      <trkpt lat="46.73283" lon="-1.97698">
        <ele>9.8</ele>
        <time>2025-01-22T10:06:41.780Z</time>
      </trkpt>
      <trkpt lat="46.73282" lon="-1.97695">
        <ele>9.7</ele>
        <time>2025-01-22T10:06:42.780Z</time>
      </trkpt>
      <trkpt lat="46.73281" lon="-1.97693">
        <ele>9.4</ele>
        <time>2025-01-22T10:06:43.780Z</time>
      </trkpt>
      <trkpt lat="46.7328" lon="-1.97691">
        <ele>9</ele>
        <time>2025-01-22T10:06:44.780Z</time>
      </trkpt>
      <trkpt lat="46.7328" lon="-1.97689">
        <ele>8.8</ele>
        <time>2025-01-22T10:06:45.780Z</time>
      </trkpt>
      <trkpt lat="46.73279" lon="-1.97687">
        <ele>8.4</ele>
        <time>2025-01-22T10:06:46.780Z</time>
      </trkpt>
      <trkpt lat="46.73279" lon="-1.97685">
        <ele>8.3</ele>
        <time>2025-01-22T10:06:47.780Z</time>
      </trkpt>
      <trkpt lat="46.73279" lon="-1.97682">
        <ele>8</ele>
        <time>2025-01-22T10:06:48.780Z</time>
      </trkpt>
      <trkpt lat="46.73279" lon="-1.9768">
        <ele>7.7</ele>
        <time>2025-01-22T10:06:49.780Z</time>
      </trkpt>
      <trkpt lat="46.73279" lon="-1.97676">
        <ele>7.3</ele>
        <time>2025-01-22T10:06:50.780Z</time>
      </trkpt>
      <trkpt lat="46.73278" lon="-1.97673">
        <ele>6.8</ele>
        <time>2025-01-22T10:06:51.780Z</time>
      </trkpt>
      <trkpt lat="46.73277" lon="-1.97669">
        <ele>6.4</ele>
        <time>2025-01-22T10:06:52.780Z</time>
      </trkpt>
      <trkpt lat="46.73276" lon="-1.97665">
        <ele>6.4</ele>
        <time>2025-01-22T10:06:53.780Z</time>
      </trkpt>
      <trkpt lat="46.73275" lon="-1.97662">
        <ele>6.9</ele>
        <time>2025-01-22T10:06:54.780Z</time>
      </trkpt>
      <trkpt lat="46.73273" lon="-1.97659">
        <ele>7.3</ele>
        <time>2025-01-22T10:06:55.780Z</time>
      </trkpt>
      <trkpt lat="46.73272" lon="-1.97655">
        <ele>7.6</ele>
        <time>2025-01-22T10:06:56.780Z</time>
      </trkpt>
      <trkpt lat="46.73271" lon="-1.97652">
        <ele>7.8</ele>
        <time>2025-01-22T10:06:57.780Z</time>
      </trkpt>
      <trkpt lat="46.7327" lon="-1.97649">
        <ele>7.9</ele>
        <time>2025-01-22T10:06:58.780Z</time>
      </trkpt>
      <trkpt lat="46.73269" lon="-1.97645">
        <ele>8</ele>
        <time>2025-01-22T10:06:59.780Z</time>
      </trkpt>
      <trkpt lat="46.73268" lon="-1.97642">
        <ele>8.1</ele>
        <time>2025-01-22T10:07:00.780Z</time>
      </trkpt>
      <trkpt lat="46.73268" lon="-1.9764">
        <ele>8.1</ele>
        <time>2025-01-22T10:07:01.780Z</time>
      </trkpt>
      <trkpt lat="46.73267" lon="-1.97636">
        <ele>8.2</ele>
        <time>2025-01-22T10:07:02.780Z</time>
      </trkpt>
      <trkpt lat="46.73265" lon="-1.97632">
        <ele>8.3</ele>
        <time>2025-01-22T10:07:03.780Z</time>
      </trkpt>
      <trkpt lat="46.73264" lon="-1.97629">
        <ele>8.4</ele>
        <time>2025-01-22T10:07:04.780Z</time>
      </trkpt>
      <trkpt lat="46.73262" lon="-1.97626">
        <ele>8.4</ele>
        <time>2025-01-22T10:07:05.780Z</time>
      </trkpt>
      <trkpt lat="46.73261" lon="-1.97623">
        <ele>8.5</ele>
        <time>2025-01-22T10:07:06.780Z</time>
      </trkpt>
      <trkpt lat="46.7326" lon="-1.9762">
        <ele>8.5</ele>
        <time>2025-01-22T10:07:07.780Z</time>
      </trkpt>
      <trkpt lat="46.73259" lon="-1.97617">
        <ele>8.5</ele>
        <time>2025-01-22T10:07:08.780Z</time>
      </trkpt>
      <trkpt lat="46.73258" lon="-1.97614">
        <ele>8.5</ele>
        <time>2025-01-22T10:07:09.780Z</time>
      </trkpt>
      <trkpt lat="46.73257" lon="-1.97611">
        <ele>8.5</ele>
        <time>2025-01-22T10:07:10.780Z</time>
      </trkpt>
      <trkpt lat="46.73256" lon="-1.97608">
        <ele>8.6</ele>
        <time>2025-01-22T10:07:11.780Z</time>
      </trkpt>
      <trkpt lat="46.73255" lon="-1.97604">
        <ele>8.6</ele>
        <time>2025-01-22T10:07:12.780Z</time>
      </trkpt>
      <trkpt lat="46.73254" lon="-1.97601">
        <ele>8.7</ele>
        <time>2025-01-22T10:07:13.780Z</time>
      </trkpt>
      <trkpt lat="46.73253" lon="-1.97598">
        <ele>8.8</ele>
        <time>2025-01-22T10:07:14.780Z</time>
      </trkpt>
      <trkpt lat="46.73252" lon="-1.97596">
        <ele>8.8</ele>
        <time>2025-01-22T10:07:15.780Z</time>
      </trkpt>
      <trkpt lat="46.73252" lon="-1.97594">
        <ele>8.9</ele>
        <time>2025-01-22T10:07:16.780Z</time>
      </trkpt>
      <trkpt lat="46.73251" lon="-1.97591">
        <ele>8.9</ele>
        <time>2025-01-22T10:07:17.780Z</time>
      </trkpt>
      <trkpt lat="46.73251" lon="-1.97587">
        <ele>8.9</ele>
        <time>2025-01-22T10:07:18.780Z</time>
      </trkpt>
      <trkpt lat="46.73249" lon="-1.97584">
        <ele>9</ele>
        <time>2025-01-22T10:07:19.780Z</time>
      </trkpt>
      <trkpt lat="46.73248" lon="-1.97581">
        <ele>9.1</ele>
        <time>2025-01-22T10:07:20.780Z</time>
      </trkpt>
      <trkpt lat="46.73247" lon="-1.97579">
        <ele>9.3</ele>
        <time>2025-01-22T10:07:21.780Z</time>
      </trkpt>
      <trkpt lat="46.73246" lon="-1.97576">
        <ele>9.5</ele>
        <time>2025-01-22T10:07:22.780Z</time>
      </trkpt>
      <trkpt lat="46.73246" lon="-1.97574">
        <ele>9.7</ele>
        <time>2025-01-22T10:07:23.780Z</time>
      </trkpt>
      <trkpt lat="46.73244" lon="-1.97572">
        <ele>9.9</ele>
        <time>2025-01-22T10:07:24.780Z</time>
      </trkpt>
      <trkpt lat="46.73243" lon="-1.97569">
        <ele>10.2</ele>
        <time>2025-01-22T10:07:25.780Z</time>
      </trkpt>
      <trkpt lat="46.73241" lon="-1.97566">
        <ele>10.4</ele>
        <time>2025-01-22T10:07:26.780Z</time>
      </trkpt>
      <trkpt lat="46.7324" lon="-1.97563">
        <ele>10.7</ele>
        <time>2025-01-22T10:07:27.780Z</time>
      </trkpt>
      <trkpt lat="46.73238" lon="-1.97559">
        <ele>11.1</ele>
        <time>2025-01-22T10:07:28.780Z</time>
      </trkpt>
      <trkpt lat="46.73236" lon="-1.97556">
        <ele>11.5</ele>
        <time>2025-01-22T10:07:29.780Z</time>
      </trkpt>
      <trkpt lat="46.73236" lon="-1.97551">
        <ele>11.7</ele>
        <time>2025-01-22T10:07:30.780Z</time>
      </trkpt>
      <trkpt lat="46.73235" lon="-1.97547">
        <ele>11.9</ele>
        <time>2025-01-22T10:07:31.780Z</time>
      </trkpt>
      <trkpt lat="46.73235" lon="-1.97543">
        <ele>12.1</ele>
        <time>2025-01-22T10:07:32.780Z</time>
      </trkpt>
      <trkpt lat="46.73235" lon="-1.9754">
        <ele>12.3</ele>
        <time>2025-01-22T10:07:33.780Z</time>
      </trkpt>
      <trkpt lat="46.73235" lon="-1.97536">
        <ele>12.6</ele>
        <time>2025-01-22T10:07:34.780Z</time>
      </trkpt>
      <trkpt lat="46.73234" lon="-1.97532">
        <ele>12.8</ele>
        <time>2025-01-22T10:07:35.780Z</time>
      </trkpt>
      <trkpt lat="46.73233" lon="-1.97529">
        <ele>12.9</ele>
        <time>2025-01-22T10:07:36.780Z</time>
      </trkpt>
      <trkpt lat="46.73232" lon="-1.97525">
        <ele>12.9</ele>
        <time>2025-01-22T10:07:37.780Z</time>
      </trkpt>
      <trkpt lat="46.73231" lon="-1.97522">
        <ele>12.9</ele>
        <time>2025-01-22T10:07:38.780Z</time>
      </trkpt>
      <trkpt lat="46.7323" lon="-1.97521">
        <ele>12.9</ele>
        <time>2025-01-22T10:07:39.780Z</time>
      </trkpt>
      <trkpt lat="46.73229" lon="-1.97519">
        <ele>12.8</ele>
        <time>2025-01-22T10:07:40.780Z</time>
      </trkpt>
      <trkpt lat="46.73229" lon="-1.97517">
        <ele>12.8</ele>
        <time>2025-01-22T10:07:41.780Z</time>
      </trkpt>
      <trkpt lat="46.73227" lon="-1.97515">
        <ele>12.8</ele>
        <time>2025-01-22T10:07:42.780Z</time>
      </trkpt>
      <trkpt lat="46.73226" lon="-1.97512">
        <ele>12.9</ele>
        <time>2025-01-22T10:07:43.780Z</time>
      </trkpt>
      <trkpt lat="46.73225" lon="-1.97511">
        <ele>12.9</ele>
        <time>2025-01-22T10:07:44.780Z</time>
      </trkpt>
      <trkpt lat="46.73224" lon="-1.97508">
        <ele>12.9</ele>
        <time>2025-01-22T10:07:45.780Z</time>
      </trkpt>
      <trkpt lat="46.73223" lon="-1.97505">
        <ele>13</ele>
        <time>2025-01-22T10:07:46.780Z</time>
      </trkpt>
      <trkpt lat="46.73222" lon="-1.97502">
        <ele>13</ele>
        <time>2025-01-22T10:07:47.780Z</time>
      </trkpt>
      <trkpt lat="46.73221" lon="-1.97498">
        <ele>12.9</ele>
        <time>2025-01-22T10:07:48.780Z</time>
      </trkpt>
      <trkpt lat="46.7322" lon="-1.97496">
        <ele>12.7</ele>
        <time>2025-01-22T10:07:49.780Z</time>
      </trkpt>
      <trkpt lat="46.73219" lon="-1.97494">
        <ele>12.6</ele>
        <time>2025-01-22T10:07:50.780Z</time>
      </trkpt>
      <trkpt lat="46.73218" lon="-1.97493">
        <ele>12.5</ele>
        <time>2025-01-22T10:07:51.780Z</time>
      </trkpt>
      <trkpt lat="46.73216" lon="-1.97493">
        <ele>12.5</ele>
        <time>2025-01-22T10:07:52.780Z</time>
      </trkpt>
      <trkpt lat="46.73213" lon="-1.97495">
        <ele>12.6</ele>
        <time>2025-01-22T10:07:53.780Z</time>
      </trkpt>
      <trkpt lat="46.73212" lon="-1.97496">
        <ele>12.7</ele>
        <time>2025-01-22T10:07:54.780Z</time>
      </trkpt>
      <trkpt lat="46.73209" lon="-1.97498">
        <ele>12.9</ele>
        <time>2025-01-22T10:07:55.780Z</time>
      </trkpt>
      <trkpt lat="46.73207" lon="-1.975">
        <ele>13</ele>
        <time>2025-01-22T10:07:56.780Z</time>
      </trkpt>
      <trkpt lat="46.73206" lon="-1.97503">
        <ele>13.1</ele>
        <time>2025-01-22T10:07:57.780Z</time>
      </trkpt>
      <trkpt lat="46.73205" lon="-1.97505">
        <ele>13.2</ele>
        <time>2025-01-22T10:07:58.780Z</time>
      </trkpt>
      <trkpt lat="46.73203" lon="-1.97507">
        <ele>13.4</ele>
        <time>2025-01-22T10:07:59.780Z</time>
      </trkpt>
      <trkpt lat="46.73201" lon="-1.97509">
        <ele>13.5</ele>
        <time>2025-01-22T10:08:00.780Z</time>
      </trkpt>
      <trkpt lat="46.732" lon="-1.9751">
        <ele>13.6</ele>
        <time>2025-01-22T10:08:01.780Z</time>
      </trkpt>
      <trkpt lat="46.73199" lon="-1.97512">
        <ele>13.7</ele>
        <time>2025-01-22T10:08:02.780Z</time>
      </trkpt>
      <trkpt lat="46.73199" lon="-1.97513">
        <ele>13.8</ele>
        <time>2025-01-22T10:08:03.780Z</time>
      </trkpt>
      <trkpt lat="46.73198" lon="-1.97512">
        <ele>13.7</ele>
        <time>2025-01-22T10:08:04.780Z</time>
      </trkpt>
      <trkpt lat="46.73197" lon="-1.97512">
        <ele>13.8</ele>
        <time>2025-01-22T10:08:05.780Z</time>
      </trkpt>
      <trkpt lat="46.73196" lon="-1.97511">
        <ele>13.8</ele>
        <time>2025-01-22T10:08:06.780Z</time>
      </trkpt>
      <trkpt lat="46.73195" lon="-1.97511">
        <ele>13.8</ele>
        <time>2025-01-22T10:08:07.780Z</time>
      </trkpt>
      <trkpt lat="46.73193" lon="-1.97511">
        <ele>14.2</ele>
        <time>2025-01-22T10:08:08.780Z</time>
      </trkpt>
      <trkpt lat="46.73191" lon="-1.97512">
        <ele>14.7</ele>
        <time>2025-01-22T10:08:09.780Z</time>
      </trkpt>
      <trkpt lat="46.73189" lon="-1.97511">
        <ele>15</ele>
        <time>2025-01-22T10:08:10.780Z</time>
      </trkpt>
      <trkpt lat="46.73188" lon="-1.97511">
        <ele>15.3</ele>
        <time>2025-01-22T10:08:11.780Z</time>
      </trkpt>
      <trkpt lat="46.73187" lon="-1.97511">
        <ele>15.5</ele>
        <time>2025-01-22T10:08:12.780Z</time>
      </trkpt>
      <trkpt lat="46.73186" lon="-1.97511">
        <ele>15.8</ele>
        <time>2025-01-22T10:08:13.780Z</time>
      </trkpt>
      <trkpt lat="46.73185" lon="-1.9751">
        <ele>16</ele>
        <time>2025-01-22T10:08:14.780Z</time>
      </trkpt>
      <trkpt lat="46.73183" lon="-1.9751">
        <ele>16.3</ele>
        <time>2025-01-22T10:08:15.780Z</time>
      </trkpt>
      <trkpt lat="46.73182" lon="-1.97509">
        <ele>16.5</ele>
        <time>2025-01-22T10:08:16.780Z</time>
      </trkpt>
      <trkpt lat="46.73181" lon="-1.97509">
        <ele>16.8</ele>
        <time>2025-01-22T10:08:17.780Z</time>
      </trkpt>
      <trkpt lat="46.7318" lon="-1.9751">
        <ele>17.2</ele>
        <time>2025-01-22T10:08:18.780Z</time>
      </trkpt>
      <trkpt lat="46.7318" lon="-1.97512">
        <ele>17.4</ele>
        <time>2025-01-22T10:08:19.780Z</time>
      </trkpt>
      <trkpt lat="46.7318" lon="-1.97513">
        <ele>17.7</ele>
        <time>2025-01-22T10:08:20.780Z</time>
      </trkpt>
      <trkpt lat="46.73179" lon="-1.97514">
        <ele>17.9</ele>
        <time>2025-01-22T10:08:21.780Z</time>
      </trkpt>
      <trkpt lat="46.73179" lon="-1.97515">
        <ele>18.1</ele>
        <time>2025-01-22T10:08:22.780Z</time>
      </trkpt>
      <trkpt lat="46.73179" lon="-1.97516">
        <ele>18.2</ele>
        <time>2025-01-22T10:08:23.780Z</time>
      </trkpt>
      <trkpt lat="46.73179" lon="-1.97518">
        <ele>18.4</ele>
        <time>2025-01-22T10:08:24.780Z</time>
      </trkpt>
      <trkpt lat="46.73179" lon="-1.97519">
        <ele>18.6</ele>
        <time>2025-01-22T10:08:25.780Z</time>
      </trkpt>
      <trkpt lat="46.73178" lon="-1.97518">
        <ele>18.9</ele>
        <time>2025-01-22T10:08:26.780Z</time>
      </trkpt>
      <trkpt lat="46.73177" lon="-1.97517">
        <ele>19.1</ele>
        <time>2025-01-22T10:08:27.780Z</time>
      </trkpt>
      <trkpt lat="46.73176" lon="-1.97518">
        <ele>19.3</ele>
        <time>2025-01-22T10:08:28.780Z</time>
      </trkpt>
      <trkpt lat="46.73176" lon="-1.97519">
        <ele>19.4</ele>
        <time>2025-01-22T10:08:29.780Z</time>
      </trkpt>
      <trkpt lat="46.73177" lon="-1.9752">
        <ele>19.5</ele>
        <time>2025-01-22T10:08:30.780Z</time>
      </trkpt>
      <trkpt lat="46.73177" lon="-1.9752">
        <ele>19.5</ele>
        <time>2025-01-22T10:08:31.780Z</time>
      </trkpt>
      <trkpt lat="46.73176" lon="-1.9752">
        <ele>19.6</ele>
        <time>2025-01-22T10:08:32.780Z</time>
      </trkpt>
      <trkpt lat="46.73175" lon="-1.97519">
        <ele>19.9</ele>
        <time>2025-01-22T10:08:33.780Z</time>
      </trkpt>
      <trkpt lat="46.73175" lon="-1.97519">
        <ele>19.9</ele>
        <time>2025-01-22T10:08:34.780Z</time>
      </trkpt>
      <trkpt lat="46.73175" lon="-1.9752">
        <ele>20</ele>
        <time>2025-01-22T10:08:35.780Z</time>
      </trkpt>
      <trkpt lat="46.73176" lon="-1.97522">
        <ele>20.1</ele>
        <time>2025-01-22T10:08:36.780Z</time>
      </trkpt>
      <trkpt lat="46.73176" lon="-1.97523">
        <ele>20.1</ele>
        <time>2025-01-22T10:08:37.780Z</time>
      </trkpt>
      <trkpt lat="46.73175" lon="-1.97523">
        <ele>20.4</ele>
        <time>2025-01-22T10:08:38.780Z</time>
      </trkpt>
      <trkpt lat="46.73175" lon="-1.97524">
        <ele>20.7</ele>
        <time>2025-01-22T10:08:39.780Z</time>
      </trkpt>
      <trkpt lat="46.73175" lon="-1.97525">
        <ele>20.8</ele>
        <time>2025-01-22T10:08:40.780Z</time>
      </trkpt>
      <trkpt lat="46.73175" lon="-1.97526">
        <ele>21</ele>
        <time>2025-01-22T10:08:41.780Z</time>
      </trkpt>
      <trkpt lat="46.73175" lon="-1.97526">
        <ele>21.1</ele>
        <time>2025-01-22T10:08:42.780Z</time>
      </trkpt>
      <trkpt lat="46.73174" lon="-1.97527">
        <ele>21.4</ele>
        <time>2025-01-22T10:08:43.780Z</time>
      </trkpt>
      <trkpt lat="46.73173" lon="-1.97527">
        <ele>21.7</ele>
        <time>2025-01-22T10:08:44.780Z</time>
      </trkpt>
      <trkpt lat="46.73172" lon="-1.97527">
        <ele>22.2</ele>
        <time>2025-01-22T10:08:45.780Z</time>
      </trkpt>
      <trkpt lat="46.73171" lon="-1.97527">
        <ele>22.6</ele>
        <time>2025-01-22T10:08:46.780Z</time>
      </trkpt>
      <trkpt lat="46.7317" lon="-1.97528">
        <ele>23</ele>
        <time>2025-01-22T10:08:47.780Z</time>
      </trkpt>
      <trkpt lat="46.73169" lon="-1.97529">
        <ele>23.3</ele>
        <time>2025-01-22T10:08:48.780Z</time>
      </trkpt>
      <trkpt lat="46.73168" lon="-1.97531">
        <ele>23.8</ele>
        <time>2025-01-22T10:08:49.780Z</time>
      </trkpt>
      <trkpt lat="46.73168" lon="-1.97534">
        <ele>24.2</ele>
        <time>2025-01-22T10:08:50.780Z</time>
      </trkpt>
      <trkpt lat="46.73166" lon="-1.97536">
        <ele>24.6</ele>
        <time>2025-01-22T10:08:51.780Z</time>
      </trkpt>
      <trkpt lat="46.73166" lon="-1.97537">
        <ele>24.6</ele>
        <time>2025-01-22T10:08:52.780Z</time>
      </trkpt>
      <trkpt lat="46.73165" lon="-1.97538">
        <ele>24.6</ele>
        <time>2025-01-22T10:08:53.780Z</time>
      </trkpt>
      <trkpt lat="46.73164" lon="-1.97539">
        <ele>24.6</ele>
        <time>2025-01-22T10:08:54.780Z</time>
      </trkpt>
      <trkpt lat="46.73164" lon="-1.97541">
        <ele>24.7</ele>
        <time>2025-01-22T10:08:55.780Z</time>
      </trkpt>
      <trkpt lat="46.73163" lon="-1.97542">
        <ele>24.7</ele>
        <time>2025-01-22T10:08:56.780Z</time>
      </trkpt>
      <trkpt lat="46.73163" lon="-1.97544">
        <ele>24.8</ele>
        <time>2025-01-22T10:08:57.780Z</time>
      </trkpt>
      <trkpt lat="46.73163" lon="-1.97547">
        <ele>24.9</ele>
        <time>2025-01-22T10:08:58.780Z</time>
      </trkpt>
      <trkpt lat="46.73164" lon="-1.9755">
        <ele>25.2</ele>
        <time>2025-01-22T10:08:59.780Z</time>
      </trkpt>
      <trkpt lat="46.73165" lon="-1.97554">
        <ele>25.6</ele>
        <time>2025-01-22T10:09:00.780Z</time>
      </trkpt>
      <trkpt lat="46.73166" lon="-1.97557">
        <ele>25.4</ele>
        <time>2025-01-22T10:09:01.780Z</time>
      </trkpt>
      <trkpt lat="46.73167" lon="-1.9756">
        <ele>24.9</ele>
        <time>2025-01-22T10:09:02.780Z</time>
      </trkpt>
      <trkpt lat="46.73167" lon="-1.97563">
        <ele>24.1</ele>
        <time>2025-01-22T10:09:03.780Z</time>
      </trkpt>
      <trkpt lat="46.73169" lon="-1.97565">
        <ele>23.3</ele>
        <time>2025-01-22T10:09:04.780Z</time>
      </trkpt>
      <trkpt lat="46.7317" lon="-1.97566">
        <ele>22.7</ele>
        <time>2025-01-22T10:09:05.780Z</time>
      </trkpt>
      <trkpt lat="46.73171" lon="-1.97568">
        <ele>21.9</ele>
        <time>2025-01-22T10:09:06.780Z</time>
      </trkpt>
      <trkpt lat="46.73173" lon="-1.97571">
        <ele>21.1</ele>
        <time>2025-01-22T10:09:07.780Z</time>
      </trkpt>
      <trkpt lat="46.73175" lon="-1.97573">
        <ele>20.5</ele>
        <time>2025-01-22T10:09:08.780Z</time>
      </trkpt>
      <trkpt lat="46.73176" lon="-1.97574">
        <ele>20</ele>
        <time>2025-01-22T10:09:09.780Z</time>
      </trkpt>
      <trkpt lat="46.73177" lon="-1.97576">
        <ele>19.6</ele>
        <time>2025-01-22T10:09:10.780Z</time>
      </trkpt>
      <trkpt lat="46.73178" lon="-1.97578">
        <ele>19.3</ele>
        <time>2025-01-22T10:09:11.780Z</time>
      </trkpt>
      <trkpt lat="46.73179" lon="-1.97581">
        <ele>18.9</ele>
        <time>2025-01-22T10:09:12.780Z</time>
      </trkpt>
      <trkpt lat="46.73179" lon="-1.97583">
        <ele>18.6</ele>
        <time>2025-01-22T10:09:13.780Z</time>
      </trkpt>
      <trkpt lat="46.73178" lon="-1.97585">
        <ele>18.5</ele>
        <time>2025-01-22T10:09:14.780Z</time>
      </trkpt>
      <trkpt lat="46.73178" lon="-1.97587">
        <ele>18.3</ele>
        <time>2025-01-22T10:09:15.780Z</time>
      </trkpt>
      <trkpt lat="46.73177" lon="-1.9759">
        <ele>18.1</ele>
        <time>2025-01-22T10:09:16.780Z</time>
      </trkpt>
      <trkpt lat="46.73177" lon="-1.97593">
        <ele>18</ele>
        <time>2025-01-22T10:09:17.780Z</time>
      </trkpt>
      <trkpt lat="46.73178" lon="-1.97597">
        <ele>17.8</ele>
        <time>2025-01-22T10:09:18.780Z</time>
      </trkpt>
      <trkpt lat="46.7318" lon="-1.97601">
        <ele>17.7</ele>
        <time>2025-01-22T10:09:19.780Z</time>
      </trkpt>
      <trkpt lat="46.73181" lon="-1.97605">
        <ele>17.8</ele>
        <time>2025-01-22T10:09:20.780Z</time>
      </trkpt>
      <trkpt lat="46.73183" lon="-1.97608">
        <ele>18.1</ele>
        <time>2025-01-22T10:09:21.780Z</time>
      </trkpt>
      <trkpt lat="46.73184" lon="-1.97611">
        <ele>18.4</ele>
        <time>2025-01-22T10:09:22.780Z</time>
      </trkpt>
      <trkpt lat="46.73186" lon="-1.97614">
        <ele>18.7</ele>
        <time>2025-01-22T10:09:23.780Z</time>
      </trkpt>
      <trkpt lat="46.73187" lon="-1.97616">
        <ele>19</ele>
        <time>2025-01-22T10:09:24.780Z</time>
      </trkpt>
      <trkpt lat="46.73188" lon="-1.97619">
        <ele>19.2</ele>
        <time>2025-01-22T10:09:25.780Z</time>
      </trkpt>
      <trkpt lat="46.73189" lon="-1.97622">
        <ele>19.3</ele>
        <time>2025-01-22T10:09:26.780Z</time>
      </trkpt>
      <trkpt lat="46.7319" lon="-1.97625">
        <ele>19.6</ele>
        <time>2025-01-22T10:09:27.780Z</time>
      </trkpt>
      <trkpt lat="46.73191" lon="-1.97627">
        <ele>19.9</ele>
        <time>2025-01-22T10:09:28.780Z</time>
      </trkpt>
      <trkpt lat="46.73193" lon="-1.97629">
        <ele>20.4</ele>
        <time>2025-01-22T10:09:29.780Z</time>
      </trkpt>
      <trkpt lat="46.73194" lon="-1.9763">
        <ele>20.9</ele>
        <time>2025-01-22T10:09:30.780Z</time>
      </trkpt>
      <trkpt lat="46.73195" lon="-1.97633">
        <ele>20.8</ele>
        <time>2025-01-22T10:09:31.780Z</time>
      </trkpt>
      <trkpt lat="46.73197" lon="-1.97636">
        <ele>20.3</ele>
        <time>2025-01-22T10:09:32.780Z</time>
      </trkpt>
      <trkpt lat="46.73199" lon="-1.97639">
        <ele>19.8</ele>
        <time>2025-01-22T10:09:33.780Z</time>
      </trkpt>
      <trkpt lat="46.732" lon="-1.97641">
        <ele>19.1</ele>
        <time>2025-01-22T10:09:34.780Z</time>
      </trkpt>
      <trkpt lat="46.73202" lon="-1.97643">
        <ele>18.4</ele>
        <time>2025-01-22T10:09:35.780Z</time>
      </trkpt>
      <trkpt lat="46.73203" lon="-1.97645">
        <ele>17.9</ele>
        <time>2025-01-22T10:09:36.780Z</time>
      </trkpt>
      <trkpt lat="46.73203" lon="-1.97648">
        <ele>17.5</ele>
        <time>2025-01-22T10:09:37.780Z</time>
      </trkpt>
      <trkpt lat="46.73204" lon="-1.9765">
        <ele>17</ele>
        <time>2025-01-22T10:09:38.780Z</time>
      </trkpt>
      <trkpt lat="46.73205" lon="-1.97653">
        <ele>16.7</ele>
        <time>2025-01-22T10:09:39.780Z</time>
      </trkpt>
      <trkpt lat="46.73205" lon="-1.97657">
        <ele>16.3</ele>
        <time>2025-01-22T10:09:40.780Z</time>
      </trkpt>
      <trkpt lat="46.73206" lon="-1.97661">
        <ele>15.9</ele>
        <time>2025-01-22T10:09:41.780Z</time>
      </trkpt>
      <trkpt lat="46.73207" lon="-1.97664">
        <ele>15.7</ele>
        <time>2025-01-22T10:09:42.780Z</time>
      </trkpt>
      <trkpt lat="46.73207" lon="-1.97668">
        <ele>15.5</ele>
        <time>2025-01-22T10:09:43.780Z</time>
      </trkpt>
      <trkpt lat="46.73207" lon="-1.97672">
        <ele>15.6</ele>
        <time>2025-01-22T10:09:44.780Z</time>
      </trkpt>
      <trkpt lat="46.73208" lon="-1.97676">
        <ele>15.6</ele>
        <time>2025-01-22T10:09:45.780Z</time>
      </trkpt>
      <trkpt lat="46.73208" lon="-1.97679">
        <ele>15.7</ele>
        <time>2025-01-22T10:09:46.780Z</time>
      </trkpt>
      <trkpt lat="46.73209" lon="-1.97681">
        <ele>15.8</ele>
        <time>2025-01-22T10:09:47.780Z</time>
      </trkpt>
      <trkpt lat="46.73209" lon="-1.97684">
        <ele>15.9</ele>
        <time>2025-01-22T10:09:48.780Z</time>
      </trkpt>
      <trkpt lat="46.7321" lon="-1.97686">
        <ele>15.9</ele>
        <time>2025-01-22T10:09:49.780Z</time>
      </trkpt>
      <trkpt lat="46.7321" lon="-1.97689">
        <ele>16</ele>
        <time>2025-01-22T10:09:50.780Z</time>
      </trkpt>
      <trkpt lat="46.7321" lon="-1.97691">
        <ele>16</ele>
        <time>2025-01-22T10:09:51.780Z</time>
      </trkpt>
      <trkpt lat="46.73209" lon="-1.97693">
        <ele>16</ele>
        <time>2025-01-22T10:09:52.780Z</time>
      </trkpt>
      <trkpt lat="46.73209" lon="-1.97696">
        <ele>16.2</ele>
        <time>2025-01-22T10:09:53.780Z</time>
      </trkpt>
      <trkpt lat="46.73209" lon="-1.97699">
        <ele>16.6</ele>
        <time>2025-01-22T10:09:54.780Z</time>
      </trkpt>
      <trkpt lat="46.73209" lon="-1.97702">
        <ele>16.9</ele>
        <time>2025-01-22T10:09:55.780Z</time>
      </trkpt>
      <trkpt lat="46.73209" lon="-1.97704">
        <ele>17.1</ele>
        <time>2025-01-22T10:09:56.780Z</time>
      </trkpt>
      <trkpt lat="46.73209" lon="-1.97706">
        <ele>17.3</ele>
        <time>2025-01-22T10:09:57.780Z</time>
      </trkpt>
      <trkpt lat="46.73209" lon="-1.97709">
        <ele>17.6</ele>
        <time>2025-01-22T10:09:58.780Z</time>
      </trkpt>
      <trkpt lat="46.73209" lon="-1.97711">
        <ele>17.8</ele>
        <time>2025-01-22T10:09:59.780Z</time>
      </trkpt>
      <trkpt lat="46.73209" lon="-1.97715">
        <ele>18.2</ele>
        <time>2025-01-22T10:10:00.780Z</time>
      </trkpt>
      <trkpt lat="46.73209" lon="-1.97717">
        <ele>18.5</ele>
        <time>2025-01-22T10:10:01.780Z</time>
      </trkpt>
      <trkpt lat="46.7321" lon="-1.9772">
        <ele>18.9</ele>
        <time>2025-01-22T10:10:02.780Z</time>
      </trkpt>
      <trkpt lat="46.73211" lon="-1.97723">
        <ele>19.4</ele>
        <time>2025-01-22T10:10:03.780Z</time>
      </trkpt>
      <trkpt lat="46.73213" lon="-1.97726">
        <ele>19.7</ele>
        <time>2025-01-22T10:10:04.780Z</time>
      </trkpt>
      <trkpt lat="46.73215" lon="-1.97727">
        <ele>20</ele>
        <time>2025-01-22T10:10:05.780Z</time>
      </trkpt>
      <trkpt lat="46.73216" lon="-1.97728">
        <ele>20.2</ele>
        <time>2025-01-22T10:10:06.780Z</time>
      </trkpt>
      <trkpt lat="46.73217" lon="-1.9773">
        <ele>20.3</ele>
        <time>2025-01-22T10:10:07.780Z</time>
      </trkpt>
      <trkpt lat="46.73218" lon="-1.97731">
        <ele>20.4</ele>
        <time>2025-01-22T10:10:08.780Z</time>
      </trkpt>
      <trkpt lat="46.73218" lon="-1.97733">
        <ele>20.5</ele>
        <time>2025-01-22T10:10:09.780Z</time>
      </trkpt>
      <trkpt lat="46.73219" lon="-1.97735">
        <ele>20.7</ele>
        <time>2025-01-22T10:10:10.780Z</time>
      </trkpt>
      <trkpt lat="46.73221" lon="-1.97737">
        <ele>20.8</ele>
        <time>2025-01-22T10:10:11.780Z</time>
      </trkpt>
      <trkpt lat="46.73222" lon="-1.97739">
        <ele>21</ele>
        <time>2025-01-22T10:10:12.780Z</time>
      </trkpt>
      <trkpt lat="46.73223" lon="-1.97741">
        <ele>21</ele>
        <time>2025-01-22T10:10:13.780Z</time>
      </trkpt>
      <trkpt lat="46.73225" lon="-1.97743">
        <ele>20.9</ele>
        <time>2025-01-22T10:10:14.780Z</time>
      </trkpt>
      <trkpt lat="46.73226" lon="-1.97746">
        <ele>20.9</ele>
        <time>2025-01-22T10:10:15.780Z</time>
      </trkpt>
      <trkpt lat="46.73228" lon="-1.97749">
        <ele>21</ele>
        <time>2025-01-22T10:10:16.780Z</time>
      </trkpt>
      <trkpt lat="46.7323" lon="-1.97751">
        <ele>20.9</ele>
        <time>2025-01-22T10:10:17.780Z</time>
      </trkpt>
      <trkpt lat="46.73232" lon="-1.97753">
        <ele>20.7</ele>
        <time>2025-01-22T10:10:18.780Z</time>
      </trkpt>
      <trkpt lat="46.73233" lon="-1.97755">
        <ele>20.6</ele>
        <time>2025-01-22T10:10:19.780Z</time>
      </trkpt>
      <trkpt lat="46.73235" lon="-1.97758">
        <ele>20.4</ele>
        <time>2025-01-22T10:10:20.780Z</time>
      </trkpt>
      <trkpt lat="46.73238" lon="-1.9776">
        <ele>20.4</ele>
        <time>2025-01-22T10:10:21.780Z</time>
      </trkpt>
      <trkpt lat="46.7324" lon="-1.97761">
        <ele>20.4</ele>
        <time>2025-01-22T10:10:22.780Z</time>
      </trkpt>
      <trkpt lat="46.73242" lon="-1.97763">
        <ele>20.5</ele>
        <time>2025-01-22T10:10:23.780Z</time>
      </trkpt>
      <trkpt lat="46.73244" lon="-1.97765">
        <ele>20.5</ele>
        <time>2025-01-22T10:10:24.780Z</time>
      </trkpt>
      <trkpt lat="46.73245" lon="-1.97768">
        <ele>20.5</ele>
        <time>2025-01-22T10:10:25.780Z</time>
      </trkpt>
      <trkpt lat="46.73246" lon="-1.97772">
        <ele>20.5</ele>
        <time>2025-01-22T10:10:26.780Z</time>
      </trkpt>
      <trkpt lat="46.73247" lon="-1.97774">
        <ele>20.6</ele>
        <time>2025-01-22T10:10:27.780Z</time>
      </trkpt>
      <trkpt lat="46.73248" lon="-1.97776">
        <ele>20.7</ele>
        <time>2025-01-22T10:10:28.780Z</time>
      </trkpt>
      <trkpt lat="46.73249" lon="-1.97779">
        <ele>20.7</ele>
        <time>2025-01-22T10:10:29.780Z</time>
      </trkpt>
      <trkpt lat="46.7325" lon="-1.97782">
        <ele>20.6</ele>
        <time>2025-01-22T10:10:30.780Z</time>
      </trkpt>
      <trkpt lat="46.73251" lon="-1.97785">
        <ele>20</ele>
        <time>2025-01-22T10:10:31.780Z</time>
      </trkpt>
      <trkpt lat="46.73252" lon="-1.97788">
        <ele>19.5</ele>
        <time>2025-01-22T10:10:32.780Z</time>
      </trkpt>
      <trkpt lat="46.73253" lon="-1.97791">
        <ele>19.1</ele>
        <time>2025-01-22T10:10:33.780Z</time>
      </trkpt>
      <trkpt lat="46.73254" lon="-1.97794">
        <ele>18.6</ele>
        <time>2025-01-22T10:10:34.780Z</time>
      </trkpt>
      <trkpt lat="46.73254" lon="-1.97799">
        <ele>18.2</ele>
        <time>2025-01-22T10:10:35.780Z</time>
      </trkpt>
      <trkpt lat="46.73255" lon="-1.97802">
        <ele>17.8</ele>
        <time>2025-01-22T10:10:36.780Z</time>
      </trkpt>
      <trkpt lat="46.73256" lon="-1.97804">
        <ele>17.5</ele>
        <time>2025-01-22T10:10:37.780Z</time>
      </trkpt>
      <trkpt lat="46.73256" lon="-1.97807">
        <ele>17.2</ele>
        <time>2025-01-22T10:10:38.780Z</time>
      </trkpt>
      <trkpt lat="46.73257" lon="-1.97811">
        <ele>16.8</ele>
        <time>2025-01-22T10:10:39.780Z</time>
      </trkpt>
      <trkpt lat="46.73258" lon="-1.97815">
        <ele>16.5</ele>
        <time>2025-01-22T10:10:40.780Z</time>
      </trkpt>
      <trkpt lat="46.73259" lon="-1.97819">
        <ele>16.2</ele>
        <time>2025-01-22T10:10:41.780Z</time>
      </trkpt>
      <trkpt lat="46.73259" lon="-1.97823">
        <ele>15.9</ele>
        <time>2025-01-22T10:10:42.780Z</time>
      </trkpt>
      <trkpt lat="46.7326" lon="-1.97828">
        <ele>15.7</ele>
        <time>2025-01-22T10:10:43.780Z</time>
      </trkpt>
      <trkpt lat="46.7326" lon="-1.97831">
        <ele>15.5</ele>
        <time>2025-01-22T10:10:44.780Z</time>
      </trkpt>
      <trkpt lat="46.73261" lon="-1.97834">
        <ele>15.3</ele>
        <time>2025-01-22T10:10:45.780Z</time>
      </trkpt>
      <trkpt lat="46.73263" lon="-1.97837">
        <ele>15.2</ele>
        <time>2025-01-22T10:10:46.780Z</time>
      </trkpt>
      <trkpt lat="46.73264" lon="-1.97841">
        <ele>15</ele>
        <time>2025-01-22T10:10:47.780Z</time>
      </trkpt>
      <trkpt lat="46.73266" lon="-1.97844">
        <ele>14.9</ele>
        <time>2025-01-22T10:10:48.780Z</time>
      </trkpt>
      <trkpt lat="46.73269" lon="-1.97849">
        <ele>15</ele>
        <time>2025-01-22T10:10:49.780Z</time>
      </trkpt>
      <trkpt lat="46.7327" lon="-1.97852">
        <ele>15</ele>
        <time>2025-01-22T10:10:50.780Z</time>
      </trkpt>
      <trkpt lat="46.73271" lon="-1.97856">
        <ele>15</ele>
        <time>2025-01-22T10:10:51.780Z</time>
      </trkpt>
      <trkpt lat="46.73272" lon="-1.97859">
        <ele>15.1</ele>
        <time>2025-01-22T10:10:52.780Z</time>
      </trkpt>
      <trkpt lat="46.73273" lon="-1.97862">
        <ele>15.1</ele>
        <time>2025-01-22T10:10:53.780Z</time>
      </trkpt>
      <trkpt lat="46.73273" lon="-1.97865">
        <ele>15.1</ele>
        <time>2025-01-22T10:10:54.780Z</time>
      </trkpt>
      <trkpt lat="46.73274" lon="-1.97868">
        <ele>15.1</ele>
        <time>2025-01-22T10:10:55.780Z</time>
      </trkpt>
      <trkpt lat="46.73274" lon="-1.9787">
        <ele>15.1</ele>
        <time>2025-01-22T10:10:56.780Z</time>
      </trkpt>
      <trkpt lat="46.73274" lon="-1.97873">
        <ele>15</ele>
        <time>2025-01-22T10:10:57.780Z</time>
      </trkpt>
      <trkpt lat="46.73274" lon="-1.97876">
        <ele>15.1</ele>
        <time>2025-01-22T10:10:58.780Z</time>
      </trkpt>
      <trkpt lat="46.73274" lon="-1.97879">
        <ele>15.1</ele>
        <time>2025-01-22T10:10:59.780Z</time>
      </trkpt>
      <trkpt lat="46.73275" lon="-1.97881">
        <ele>15.3</ele>
        <time>2025-01-22T10:11:00.780Z</time>
      </trkpt>
      <trkpt lat="46.73276" lon="-1.97884">
        <ele>15.4</ele>
        <time>2025-01-22T10:11:01.780Z</time>
      </trkpt>
      <trkpt lat="46.73276" lon="-1.97888">
        <ele>15.5</ele>
        <time>2025-01-22T10:11:02.780Z</time>
      </trkpt>
      <trkpt lat="46.73276" lon="-1.97891">
        <ele>15.3</ele>
        <time>2025-01-22T10:11:03.780Z</time>
      </trkpt>
      <trkpt lat="46.73275" lon="-1.97894">
        <ele>15</ele>
        <time>2025-01-22T10:11:04.780Z</time>
      </trkpt>
      <trkpt lat="46.73274" lon="-1.97898">
        <ele>14.7</ele>
        <time>2025-01-22T10:11:05.780Z</time>
      </trkpt>
      <trkpt lat="46.73274" lon="-1.97903">
        <ele>14.3</ele>
        <time>2025-01-22T10:11:06.780Z</time>
      </trkpt>
      <trkpt lat="46.73274" lon="-1.97907">
        <ele>14.1</ele>
        <time>2025-01-22T10:11:07.780Z</time>
      </trkpt>
      <trkpt lat="46.73274" lon="-1.97911">
        <ele>14</ele>
        <time>2025-01-22T10:11:08.780Z</time>
      </trkpt>
      <trkpt lat="46.73274" lon="-1.97915">
        <ele>13.8</ele>
        <time>2025-01-22T10:11:09.780Z</time>
      </trkpt>
      <trkpt lat="46.73274" lon="-1.97918">
        <ele>13.7</ele>
        <time>2025-01-22T10:11:10.780Z</time>
      </trkpt>
      <trkpt lat="46.73274" lon="-1.9792">
        <ele>13.8</ele>
        <time>2025-01-22T10:11:11.780Z</time>
      </trkpt>
      <trkpt lat="46.73274" lon="-1.97925">
        <ele>13.6</ele>
        <time>2025-01-22T10:11:12.780Z</time>
      </trkpt>
      <trkpt lat="46.73274" lon="-1.97929">
        <ele>13.5</ele>
        <time>2025-01-22T10:11:13.780Z</time>
      </trkpt>
      <trkpt lat="46.73274" lon="-1.97933">
        <ele>13.3</ele>
        <time>2025-01-22T10:11:14.780Z</time>
      </trkpt>
      <trkpt lat="46.73274" lon="-1.97937">
        <ele>13.2</ele>
        <time>2025-01-22T10:11:15.780Z</time>
      </trkpt>
      <trkpt lat="46.73274" lon="-1.97942">
        <ele>13.1</ele>
        <time>2025-01-22T10:11:16.780Z</time>
      </trkpt>
      <trkpt lat="46.73275" lon="-1.97946">
        <ele>13.2</ele>
        <time>2025-01-22T10:11:17.780Z</time>
      </trkpt>
      <trkpt lat="46.73275" lon="-1.97949">
        <ele>13.4</ele>
        <time>2025-01-22T10:11:18.780Z</time>
      </trkpt>
      <trkpt lat="46.73276" lon="-1.97953">
        <ele>13.7</ele>
        <time>2025-01-22T10:11:19.780Z</time>
      </trkpt>
      <trkpt lat="46.73277" lon="-1.97956">
        <ele>14.2</ele>
        <time>2025-01-22T10:11:20.780Z</time>
      </trkpt>
      <trkpt lat="46.73278" lon="-1.9796">
        <ele>14.5</ele>
        <time>2025-01-22T10:11:21.780Z</time>
      </trkpt>
      <trkpt lat="46.73279" lon="-1.97963">
        <ele>14.6</ele>
        <time>2025-01-22T10:11:22.780Z</time>
      </trkpt>
      <trkpt lat="46.7328" lon="-1.97967">
        <ele>14.6</ele>
        <time>2025-01-22T10:11:23.780Z</time>
      </trkpt>
      <trkpt lat="46.73281" lon="-1.97969">
        <ele>14.7</ele>
        <time>2025-01-22T10:11:24.780Z</time>
      </trkpt>
      <trkpt lat="46.73281" lon="-1.97972">
        <ele>14.7</ele>
        <time>2025-01-22T10:11:25.780Z</time>
      </trkpt>
      <trkpt lat="46.73282" lon="-1.97976">
        <ele>14.3</ele>
        <time>2025-01-22T10:11:26.780Z</time>
      </trkpt>
      <trkpt lat="46.73282" lon="-1.9798">
        <ele>13.8</ele>
        <time>2025-01-22T10:11:27.780Z</time>
      </trkpt>
      <trkpt lat="46.73283" lon="-1.97984">
        <ele>13.3</ele>
        <time>2025-01-22T10:11:28.780Z</time>
      </trkpt>
      <trkpt lat="46.73283" lon="-1.97988">
        <ele>12.8</ele>
        <time>2025-01-22T10:11:29.780Z</time>
      </trkpt>
      <trkpt lat="46.73285" lon="-1.97992">
        <ele>12.4</ele>
        <time>2025-01-22T10:11:30.780Z</time>
      </trkpt>
      <trkpt lat="46.73286" lon="-1.97995">
        <ele>12.1</ele>
        <time>2025-01-22T10:11:31.780Z</time>
      </trkpt>
      <trkpt lat="46.73286" lon="-1.97997">
        <ele>11.9</ele>
        <time>2025-01-22T10:11:32.780Z</time>
      </trkpt>
      <trkpt lat="46.73287" lon="-1.97999">
        <ele>11.8</ele>
        <time>2025-01-22T10:11:33.780Z</time>
      </trkpt>
      <trkpt lat="46.73287" lon="-1.98001">
        <ele>11.6</ele>
        <time>2025-01-22T10:11:34.780Z</time>
      </trkpt>
      <trkpt lat="46.73288" lon="-1.98003">
        <ele>11.6</ele>
        <time>2025-01-22T10:11:35.780Z</time>
      </trkpt>
      <trkpt lat="46.73289" lon="-1.98005">
        <ele>11.5</ele>
        <time>2025-01-22T10:11:36.780Z</time>
      </trkpt>
      <trkpt lat="46.7329" lon="-1.98008">
        <ele>11.5</ele>
        <time>2025-01-22T10:11:37.780Z</time>
      </trkpt>
      <trkpt lat="46.73292" lon="-1.98012">
        <ele>11.6</ele>
        <time>2025-01-22T10:11:38.780Z</time>
      </trkpt>
      <trkpt lat="46.73293" lon="-1.98015">
        <ele>11.6</ele>
        <time>2025-01-22T10:11:39.780Z</time>
      </trkpt>
      <trkpt lat="46.73294" lon="-1.98019">
        <ele>11.6</ele>
        <time>2025-01-22T10:11:40.780Z</time>
      </trkpt>
      <trkpt lat="46.73294" lon="-1.98023">
        <ele>11.7</ele>
        <time>2025-01-22T10:11:41.780Z</time>
      </trkpt>
      <trkpt lat="46.73295" lon="-1.98026">
        <ele>11.6</ele>
        <time>2025-01-22T10:11:42.780Z</time>
      </trkpt>
      <trkpt lat="46.73294" lon="-1.98029">
        <ele>11.5</ele>
        <time>2025-01-22T10:11:43.780Z</time>
      </trkpt>
      <trkpt lat="46.73293" lon="-1.98032">
        <ele>11.1</ele>
        <time>2025-01-22T10:11:44.780Z</time>
      </trkpt>
      <trkpt lat="46.73292" lon="-1.98033">
        <ele>10.8</ele>
        <time>2025-01-22T10:11:45.780Z</time>
      </trkpt>
      <trkpt lat="46.7329" lon="-1.98034">
        <ele>10.4</ele>
        <time>2025-01-22T10:11:46.780Z</time>
      </trkpt>
      <trkpt lat="46.73288" lon="-1.98036">
        <ele>9.8</ele>
        <time>2025-01-22T10:11:47.780Z</time>
      </trkpt>
      <trkpt lat="46.73286" lon="-1.98039">
        <ele>9.3</ele>
        <time>2025-01-22T10:11:48.780Z</time>
      </trkpt>
      <trkpt lat="46.73283" lon="-1.98042">
        <ele>8.5</ele>
        <time>2025-01-22T10:11:49.780Z</time>
      </trkpt>
      <trkpt lat="46.73281" lon="-1.98044">
        <ele>7.9</ele>
        <time>2025-01-22T10:11:50.780Z</time>
      </trkpt>
      <trkpt lat="46.73279" lon="-1.98046">
        <ele>7.6</ele>
        <time>2025-01-22T10:11:51.780Z</time>
      </trkpt>
      <trkpt lat="46.73277" lon="-1.98047">
        <ele>7.3</ele>
        <time>2025-01-22T10:11:52.780Z</time>
      </trkpt>
      <trkpt lat="46.73276" lon="-1.98048">
        <ele>7.1</ele>
        <time>2025-01-22T10:11:53.780Z</time>
      </trkpt>
      <trkpt lat="46.73274" lon="-1.98048">
        <ele>7</ele>
        <time>2025-01-22T10:11:54.780Z</time>
      </trkpt>
      <trkpt lat="46.73271" lon="-1.98046">
        <ele>6.8</ele>
        <time>2025-01-22T10:11:55.780Z</time>
      </trkpt>
      <trkpt lat="46.73269" lon="-1.98045">
        <ele>6.6</ele>
        <time>2025-01-22T10:11:56.780Z</time>
      </trkpt>
      <trkpt lat="46.73265" lon="-1.98043">
        <ele>6.4</ele>
        <time>2025-01-22T10:11:57.780Z</time>
      </trkpt>
      <trkpt lat="46.73263" lon="-1.98042">
        <ele>6.1</ele>
        <time>2025-01-22T10:11:58.780Z</time>
      </trkpt>
      <trkpt lat="46.7326" lon="-1.9804">
        <ele>5.9</ele>
        <time>2025-01-22T10:11:59.780Z</time>
      </trkpt>
      <trkpt lat="46.73258" lon="-1.98039">
        <ele>5.7</ele>
        <time>2025-01-22T10:12:00.780Z</time>
      </trkpt>
      <trkpt lat="46.73256" lon="-1.98038">
        <ele>5.5</ele>
        <time>2025-01-22T10:12:01.780Z</time>
      </trkpt>
      <trkpt lat="46.73253" lon="-1.98037">
        <ele>5.3</ele>
        <time>2025-01-22T10:12:02.780Z</time>
      </trkpt>
      <trkpt lat="46.73251" lon="-1.98037">
        <ele>5.1</ele>
        <time>2025-01-22T10:12:03.780Z</time>
      </trkpt>
      <trkpt lat="46.73248" lon="-1.98036">
        <ele>4.9</ele>
        <time>2025-01-22T10:12:04.780Z</time>
      </trkpt>
      <trkpt lat="46.73246" lon="-1.98036">
        <ele>4.8</ele>
        <time>2025-01-22T10:12:05.780Z</time>
      </trkpt>
      <trkpt lat="46.73246" lon="-1.98036">
        <ele>4.8</ele>
        <time>2025-01-22T10:12:06.780Z</time>
      </trkpt>
      <trkpt lat="46.7324" lon="-1.98036">
        <ele>4.6</ele>
        <time>2025-01-22T10:12:07.780Z</time>
      </trkpt>
      <trkpt lat="46.73236" lon="-1.98036">
        <ele>4.5</ele>
        <time>2025-01-22T10:12:08.780Z</time>
      </trkpt>
      <trkpt lat="46.73234" lon="-1.98038">
        <ele>4.4</ele>
        <time>2025-01-22T10:12:09.780Z</time>
      </trkpt>
      <trkpt lat="46.73231" lon="-1.98039">
        <ele>4.3</ele>
        <time>2025-01-22T10:12:10.780Z</time>
      </trkpt>
      <trkpt lat="46.73229" lon="-1.98041">
        <ele>4.2</ele>
        <time>2025-01-22T10:12:11.780Z</time>
      </trkpt>
      <trkpt lat="46.73226" lon="-1.98042">
        <ele>4.1</ele>
        <time>2025-01-22T10:12:12.780Z</time>
      </trkpt>
      <trkpt lat="46.73224" lon="-1.98044">
        <ele>4.1</ele>
        <time>2025-01-22T10:12:13.780Z</time>
      </trkpt>
      <trkpt lat="46.73221" lon="-1.98045">
        <ele>4</ele>
        <time>2025-01-22T10:12:14.780Z</time>
      </trkpt>
      <trkpt lat="46.73219" lon="-1.98046">
        <ele>4</ele>
        <time>2025-01-22T10:12:15.780Z</time>
      </trkpt>
      <trkpt lat="46.73217" lon="-1.98047">
        <ele>4</ele>
        <time>2025-01-22T10:12:16.780Z</time>
      </trkpt>
      <trkpt lat="46.73214" lon="-1.98048">
        <ele>4</ele>
        <time>2025-01-22T10:12:17.780Z</time>
      </trkpt>
      <trkpt lat="46.73212" lon="-1.98049">
        <ele>4</ele>
        <time>2025-01-22T10:12:18.780Z</time>
      </trkpt>
      <trkpt lat="46.73209" lon="-1.98051">
        <ele>4</ele>
        <time>2025-01-22T10:12:19.780Z</time>
      </trkpt>
      <trkpt lat="46.73207" lon="-1.98053">
        <ele>4</ele>
        <time>2025-01-22T10:12:20.780Z</time>
      </trkpt>
      <trkpt lat="46.73205" lon="-1.98054">
        <ele>4</ele>
        <time>2025-01-22T10:12:21.780Z</time>
      </trkpt>
      <trkpt lat="46.73203" lon="-1.98055">
        <ele>4</ele>
        <time>2025-01-22T10:12:22.780Z</time>
      </trkpt>
      <trkpt lat="46.73201" lon="-1.98056">
        <ele>4</ele>
        <time>2025-01-22T10:12:23.780Z</time>
      </trkpt>
      <trkpt lat="46.73199" lon="-1.98056">
        <ele>4</ele>
        <time>2025-01-22T10:12:24.780Z</time>
      </trkpt>
      <trkpt lat="46.73196" lon="-1.98057">
        <ele>4</ele>
        <time>2025-01-22T10:12:25.780Z</time>
      </trkpt>
      <trkpt lat="46.73194" lon="-1.98058">
        <ele>4</ele>
        <time>2025-01-22T10:12:26.780Z</time>
      </trkpt>
      <trkpt lat="46.73191" lon="-1.98058">
        <ele>4</ele>
        <time>2025-01-22T10:12:27.780Z</time>
      </trkpt>
      <trkpt lat="46.73189" lon="-1.98058">
        <ele>4</ele>
        <time>2025-01-22T10:12:28.780Z</time>
      </trkpt>
      <trkpt lat="46.73186" lon="-1.98059">
        <ele>4</ele>
        <time>2025-01-22T10:12:29.780Z</time>
      </trkpt>
      <trkpt lat="46.73184" lon="-1.9806">
        <ele>4.1</ele>
        <time>2025-01-22T10:12:30.780Z</time>
      </trkpt>
      <trkpt lat="46.73182" lon="-1.9806">
        <ele>4.1</ele>
        <time>2025-01-22T10:12:31.780Z</time>
      </trkpt>
      <trkpt lat="46.7318" lon="-1.98061">
        <ele>4.1</ele>
        <time>2025-01-22T10:12:32.780Z</time>
      </trkpt>
      <trkpt lat="46.73178" lon="-1.98061">
        <ele>4.1</ele>
        <time>2025-01-22T10:12:33.780Z</time>
      </trkpt>
      <trkpt lat="46.73175" lon="-1.98059">
        <ele>4.1</ele>
        <time>2025-01-22T10:12:34.780Z</time>
      </trkpt>
      <trkpt lat="46.73173" lon="-1.98058">
        <ele>4.1</ele>
        <time>2025-01-22T10:12:35.780Z</time>
      </trkpt>
      <trkpt lat="46.73172" lon="-1.98056">
        <ele>4</ele>
        <time>2025-01-22T10:12:36.780Z</time>
      </trkpt>
      <trkpt lat="46.7317" lon="-1.98052">
        <ele>4</ele>
        <time>2025-01-22T10:12:37.780Z</time>
      </trkpt>
      <trkpt lat="46.73169" lon="-1.98049">
        <ele>4</ele>
        <time>2025-01-22T10:12:38.780Z</time>
      </trkpt>
      <trkpt lat="46.73167" lon="-1.98045">
        <ele>4</ele>
        <time>2025-01-22T10:12:39.780Z</time>
      </trkpt>
      <trkpt lat="46.73166" lon="-1.98042">
        <ele>4.1</ele>
        <time>2025-01-22T10:12:40.780Z</time>
      </trkpt>
      <trkpt lat="46.73165" lon="-1.98039">
        <ele>4.2</ele>
        <time>2025-01-22T10:12:41.780Z</time>
      </trkpt>
      <trkpt lat="46.73164" lon="-1.98036">
        <ele>4.2</ele>
        <time>2025-01-22T10:12:42.780Z</time>
      </trkpt>
      <trkpt lat="46.73163" lon="-1.98033">
        <ele>4.3</ele>
        <time>2025-01-22T10:12:43.780Z</time>
      </trkpt>
      <trkpt lat="46.73162" lon="-1.98029">
        <ele>4.4</ele>
        <time>2025-01-22T10:12:44.780Z</time>
      </trkpt>
      <trkpt lat="46.73162" lon="-1.98026">
        <ele>4.4</ele>
        <time>2025-01-22T10:12:45.780Z</time>
      </trkpt>
      <trkpt lat="46.73161" lon="-1.98022">
        <ele>4.4</ele>
        <time>2025-01-22T10:12:46.780Z</time>
      </trkpt>
      <trkpt lat="46.7316" lon="-1.98018">
        <ele>4.4</ele>
        <time>2025-01-22T10:12:47.780Z</time>
      </trkpt>
      <trkpt lat="46.7316" lon="-1.98015">
        <ele>4.4</ele>
        <time>2025-01-22T10:12:48.780Z</time>
      </trkpt>
      <trkpt lat="46.73158" lon="-1.98012">
        <ele>4.4</ele>
        <time>2025-01-22T10:12:49.780Z</time>
      </trkpt>
      <trkpt lat="46.73157" lon="-1.9801">
        <ele>4.5</ele>
        <time>2025-01-22T10:12:50.780Z</time>
      </trkpt>
      <trkpt lat="46.73156" lon="-1.98007">
        <ele>4.5</ele>
        <time>2025-01-22T10:12:51.780Z</time>
      </trkpt>
      <trkpt lat="46.73154" lon="-1.98005">
        <ele>4.5</ele>
        <time>2025-01-22T10:12:52.780Z</time>
      </trkpt>
      <trkpt lat="46.73153" lon="-1.98003">
        <ele>4.6</ele>
        <time>2025-01-22T10:12:53.780Z</time>
      </trkpt>
      <trkpt lat="46.73151" lon="-1.98001">
        <ele>4.6</ele>
        <time>2025-01-22T10:12:54.780Z</time>
      </trkpt>
      <trkpt lat="46.7315" lon="-1.98">
        <ele>4.6</ele>
        <time>2025-01-22T10:12:55.780Z</time>
      </trkpt>
      <trkpt lat="46.73148" lon="-1.97998">
        <ele>4.7</ele>
        <time>2025-01-22T10:12:56.780Z</time>
      </trkpt>
      <trkpt lat="46.73146" lon="-1.97996">
        <ele>4.8</ele>
        <time>2025-01-22T10:12:57.780Z</time>
      </trkpt>
      <trkpt lat="46.73144" lon="-1.97994">
        <ele>5</ele>
        <time>2025-01-22T10:12:58.780Z</time>
      </trkpt>
      <trkpt lat="46.73143" lon="-1.97991">
        <ele>5.1</ele>
        <time>2025-01-22T10:12:59.780Z</time>
      </trkpt>
      <trkpt lat="46.73142" lon="-1.97988">
        <ele>5.3</ele>
        <time>2025-01-22T10:13:00.780Z</time>
      </trkpt>
      <trkpt lat="46.73141" lon="-1.97986">
        <ele>5.4</ele>
        <time>2025-01-22T10:13:01.780Z</time>
      </trkpt>
      <trkpt lat="46.73139" lon="-1.97984">
        <ele>5.5</ele>
        <time>2025-01-22T10:13:02.780Z</time>
      </trkpt>
      <trkpt lat="46.73138" lon="-1.97983">
        <ele>5.6</ele>
        <time>2025-01-22T10:13:03.780Z</time>
      </trkpt>
      <trkpt lat="46.73138" lon="-1.97982">
        <ele>5.6</ele>
        <time>2025-01-22T10:13:04.780Z</time>
      </trkpt>
      <trkpt lat="46.73137" lon="-1.9798">
        <ele>5.6</ele>
        <time>2025-01-22T10:13:05.780Z</time>
      </trkpt>
      <trkpt lat="46.73137" lon="-1.97978">
        <ele>5.7</ele>
        <time>2025-01-22T10:13:06.780Z</time>
      </trkpt>
      <trkpt lat="46.73137" lon="-1.97976">
        <ele>5.7</ele>
        <time>2025-01-22T10:13:07.780Z</time>
      </trkpt>
      <trkpt lat="46.73136" lon="-1.97972">
        <ele>5.8</ele>
        <time>2025-01-22T10:13:08.780Z</time>
      </trkpt>
      <trkpt lat="46.73136" lon="-1.97969">
        <ele>5.9</ele>
        <time>2025-01-22T10:13:09.780Z</time>
      </trkpt>
      <trkpt lat="46.73135" lon="-1.97966">
        <ele>6</ele>
        <time>2025-01-22T10:13:10.780Z</time>
      </trkpt>
      <trkpt lat="46.73135" lon="-1.97963">
        <ele>6.1</ele>
        <time>2025-01-22T10:13:11.780Z</time>
      </trkpt>
      <trkpt lat="46.73135" lon="-1.97959">
        <ele>6.2</ele>
        <time>2025-01-22T10:13:12.780Z</time>
      </trkpt>
      <trkpt lat="46.73136" lon="-1.97956">
        <ele>6.3</ele>
        <time>2025-01-22T10:13:13.780Z</time>
      </trkpt>
      <trkpt lat="46.73136" lon="-1.97953">
        <ele>6.5</ele>
        <time>2025-01-22T10:13:14.780Z</time>
      </trkpt>
      <trkpt lat="46.73136" lon="-1.9795">
        <ele>6.6</ele>
        <time>2025-01-22T10:13:15.780Z</time>
      </trkpt>
      <trkpt lat="46.73136" lon="-1.97946">
        <ele>6.7</ele>
        <time>2025-01-22T10:13:16.780Z</time>
      </trkpt>
      <trkpt lat="46.73136" lon="-1.97944">
        <ele>6.9</ele>
        <time>2025-01-22T10:13:17.780Z</time>
      </trkpt>
      <trkpt lat="46.73136" lon="-1.97941">
        <ele>7</ele>
        <time>2025-01-22T10:13:18.780Z</time>
      </trkpt>
      <trkpt lat="46.73136" lon="-1.97939">
        <ele>7.2</ele>
        <time>2025-01-22T10:13:19.780Z</time>
      </trkpt>
      <trkpt lat="46.73136" lon="-1.97936">
        <ele>7.4</ele>
        <time>2025-01-22T10:13:20.780Z</time>
      </trkpt>
      <trkpt lat="46.73136" lon="-1.97933">
        <ele>7.6</ele>
        <time>2025-01-22T10:13:21.780Z</time>
      </trkpt>
      <trkpt lat="46.73135" lon="-1.97929">
        <ele>7.8</ele>
        <time>2025-01-22T10:13:22.780Z</time>
      </trkpt>
      <trkpt lat="46.73135" lon="-1.97926">
        <ele>8.1</ele>
        <time>2025-01-22T10:13:23.780Z</time>
      </trkpt>
      <trkpt lat="46.73135" lon="-1.97922">
        <ele>8.3</ele>
        <time>2025-01-22T10:13:24.780Z</time>
      </trkpt>
      <trkpt lat="46.73135" lon="-1.97919">
        <ele>8.6</ele>
        <time>2025-01-22T10:13:25.780Z</time>
      </trkpt>
      <trkpt lat="46.73136" lon="-1.97915">
        <ele>8.8</ele>
        <time>2025-01-22T10:13:26.780Z</time>
      </trkpt>
      <trkpt lat="46.73135" lon="-1.97912">
        <ele>8.7</ele>
        <time>2025-01-22T10:13:27.780Z</time>
      </trkpt>
      <trkpt lat="46.73135" lon="-1.97909">
        <ele>8.7</ele>
        <time>2025-01-22T10:13:28.780Z</time>
      </trkpt>
      <trkpt lat="46.73135" lon="-1.97906">
        <ele>8.7</ele>
        <time>2025-01-22T10:13:29.780Z</time>
      </trkpt>
      <trkpt lat="46.73135" lon="-1.97902">
        <ele>8.7</ele>
        <time>2025-01-22T10:13:30.780Z</time>
      </trkpt>
      <trkpt lat="46.73135" lon="-1.97899">
        <ele>8.7</ele>
        <time>2025-01-22T10:13:31.780Z</time>
      </trkpt>
      <trkpt lat="46.73135" lon="-1.97895">
        <ele>8.7</ele>
        <time>2025-01-22T10:13:32.780Z</time>
      </trkpt>
      <trkpt lat="46.73135" lon="-1.97892">
        <ele>8.7</ele>
        <time>2025-01-22T10:13:33.780Z</time>
      </trkpt>
      <trkpt lat="46.73134" lon="-1.97888">
        <ele>8.7</ele>
        <time>2025-01-22T10:13:34.780Z</time>
      </trkpt>
      <trkpt lat="46.73134" lon="-1.97885">
        <ele>8.7</ele>
        <time>2025-01-22T10:13:35.780Z</time>
      </trkpt>
      <trkpt lat="46.73134" lon="-1.97881">
        <ele>8.8</ele>
        <time>2025-01-22T10:13:36.780Z</time>
      </trkpt>
      <trkpt lat="46.73134" lon="-1.97878">
        <ele>8.8</ele>
        <time>2025-01-22T10:13:37.780Z</time>
      </trkpt>
      <trkpt lat="46.73134" lon="-1.97875">
        <ele>8.9</ele>
        <time>2025-01-22T10:13:38.780Z</time>
      </trkpt>
      <trkpt lat="46.73134" lon="-1.97871">
        <ele>9</ele>
        <time>2025-01-22T10:13:39.780Z</time>
      </trkpt>
      <trkpt lat="46.73135" lon="-1.97867">
        <ele>9.1</ele>
        <time>2025-01-22T10:13:40.780Z</time>
      </trkpt>
      <trkpt lat="46.73135" lon="-1.97864">
        <ele>9.1</ele>
        <time>2025-01-22T10:13:41.780Z</time>
      </trkpt>
      <trkpt lat="46.73136" lon="-1.97861">
        <ele>9.2</ele>
        <time>2025-01-22T10:13:42.780Z</time>
      </trkpt>
      <trkpt lat="46.73136" lon="-1.97858">
        <ele>9.5</ele>
        <time>2025-01-22T10:13:43.780Z</time>
      </trkpt>
      <trkpt lat="46.73136" lon="-1.97855">
        <ele>9.8</ele>
        <time>2025-01-22T10:13:44.780Z</time>
      </trkpt>
      <trkpt lat="46.73137" lon="-1.97853">
        <ele>10</ele>
        <time>2025-01-22T10:13:45.780Z</time>
      </trkpt>
      <trkpt lat="46.73137" lon="-1.9785">
        <ele>10.3</ele>
        <time>2025-01-22T10:13:46.780Z</time>
      </trkpt>
      <trkpt lat="46.73137" lon="-1.97847">
        <ele>10.6</ele>
        <time>2025-01-22T10:13:47.780Z</time>
      </trkpt>
      <trkpt lat="46.73137" lon="-1.97844">
        <ele>11</ele>
        <time>2025-01-22T10:13:48.780Z</time>
      </trkpt>
      <trkpt lat="46.73138" lon="-1.97841">
        <ele>11.3</ele>
        <time>2025-01-22T10:13:49.780Z</time>
      </trkpt>
      <trkpt lat="46.73138" lon="-1.97838">
        <ele>11.6</ele>
        <time>2025-01-22T10:13:50.780Z</time>
      </trkpt>
      <trkpt lat="46.73138" lon="-1.97835">
        <ele>11.8</ele>
        <time>2025-01-22T10:13:51.780Z</time>
      </trkpt>
      <trkpt lat="46.73139" lon="-1.97833">
        <ele>12</ele>
        <time>2025-01-22T10:13:52.780Z</time>
      </trkpt>
      <trkpt lat="46.7314" lon="-1.97831">
        <ele>11.9</ele>
        <time>2025-01-22T10:13:53.780Z</time>
      </trkpt>
      <trkpt lat="46.7314" lon="-1.97829">
        <ele>11.8</ele>
        <time>2025-01-22T10:13:54.780Z</time>
      </trkpt>
      <trkpt lat="46.7314" lon="-1.97827">
        <ele>11.8</ele>
        <time>2025-01-22T10:13:55.780Z</time>
      </trkpt>
      <trkpt lat="46.73141" lon="-1.97825">
        <ele>11.7</ele>
        <time>2025-01-22T10:13:56.780Z</time>
      </trkpt>
      <trkpt lat="46.73142" lon="-1.97824">
        <ele>11.7</ele>
        <time>2025-01-22T10:13:57.780Z</time>
      </trkpt>
      <trkpt lat="46.73142" lon="-1.97822">
        <ele>11.6</ele>
        <time>2025-01-22T10:13:58.780Z</time>
      </trkpt>
      <trkpt lat="46.73143" lon="-1.9782">
        <ele>11.6</ele>
        <time>2025-01-22T10:13:59.780Z</time>
      </trkpt>
      <trkpt lat="46.73143" lon="-1.97819">
        <ele>11.5</ele>
        <time>2025-01-22T10:14:00.780Z</time>
      </trkpt>
      <trkpt lat="46.73143" lon="-1.97817">
        <ele>11.6</ele>
        <time>2025-01-22T10:14:01.780Z</time>
      </trkpt>
      <trkpt lat="46.73144" lon="-1.97816">
        <ele>11.6</ele>
        <time>2025-01-22T10:14:02.780Z</time>
      </trkpt>
      <trkpt lat="46.73143" lon="-1.97814">
        <ele>11.7</ele>
        <time>2025-01-22T10:14:03.780Z</time>
      </trkpt>
      <trkpt lat="46.73143" lon="-1.97812">
        <ele>11.8</ele>
        <time>2025-01-22T10:14:04.780Z</time>
      </trkpt>
      <trkpt lat="46.73142" lon="-1.97808">
        <ele>11.9</ele>
        <time>2025-01-22T10:14:05.780Z</time>
      </trkpt>
      <trkpt lat="46.73141" lon="-1.97805">
        <ele>11.9</ele>
        <time>2025-01-22T10:14:06.780Z</time>
      </trkpt>
      <trkpt lat="46.7314" lon="-1.97802">
        <ele>11.6</ele>
        <time>2025-01-22T10:14:07.780Z</time>
      </trkpt>
      <trkpt lat="46.7314" lon="-1.97799">
        <ele>11.3</ele>
        <time>2025-01-22T10:14:08.780Z</time>
      </trkpt>
      <trkpt lat="46.7314" lon="-1.97794">
        <ele>10.8</ele>
        <time>2025-01-22T10:14:09.780Z</time>
      </trkpt>
      <trkpt lat="46.73141" lon="-1.97791">
        <ele>10.5</ele>
        <time>2025-01-22T10:14:10.780Z</time>
      </trkpt>
      <trkpt lat="46.73142" lon="-1.97788">
        <ele>10.3</ele>
        <time>2025-01-22T10:14:11.780Z</time>
      </trkpt>
      <trkpt lat="46.73142" lon="-1.97785">
        <ele>10.1</ele>
        <time>2025-01-22T10:14:12.780Z</time>
      </trkpt>
      <trkpt lat="46.73142" lon="-1.97781">
        <ele>9.8</ele>
        <time>2025-01-22T10:14:13.780Z</time>
      </trkpt>
      <trkpt lat="46.73141" lon="-1.97779">
        <ele>9.5</ele>
        <time>2025-01-22T10:14:14.780Z</time>
      </trkpt>
      <trkpt lat="46.73141" lon="-1.97775">
        <ele>9.2</ele>
        <time>2025-01-22T10:14:15.780Z</time>
      </trkpt>
      <trkpt lat="46.7314" lon="-1.97771">
        <ele>9</ele>
        <time>2025-01-22T10:14:16.780Z</time>
      </trkpt>
      <trkpt lat="46.73141" lon="-1.97767">
        <ele>8.9</ele>
        <time>2025-01-22T10:14:17.780Z</time>
      </trkpt>
      <trkpt lat="46.73141" lon="-1.97764">
        <ele>8.8</ele>
        <time>2025-01-22T10:14:18.780Z</time>
      </trkpt>
      <trkpt lat="46.73141" lon="-1.97761">
        <ele>8.7</ele>
        <time>2025-01-22T10:14:19.780Z</time>
      </trkpt>
      <trkpt lat="46.7314" lon="-1.97757">
        <ele>8.4</ele>
        <time>2025-01-22T10:14:20.780Z</time>
      </trkpt>
      <trkpt lat="46.73139" lon="-1.97754">
        <ele>8.2</ele>
        <time>2025-01-22T10:14:21.780Z</time>
      </trkpt>
      <trkpt lat="46.73138" lon="-1.9775">
        <ele>8.1</ele>
        <time>2025-01-22T10:14:22.780Z</time>
      </trkpt>
      <trkpt lat="46.73136" lon="-1.97745">
        <ele>7.8</ele>
        <time>2025-01-22T10:14:23.780Z</time>
      </trkpt>
      <trkpt lat="46.73135" lon="-1.97742">
        <ele>7.6</ele>
        <time>2025-01-22T10:14:24.780Z</time>
      </trkpt>
      <trkpt lat="46.73134" lon="-1.97739">
        <ele>7.4</ele>
        <time>2025-01-22T10:14:25.780Z</time>
      </trkpt>
      <trkpt lat="46.73133" lon="-1.97737">
        <ele>7.2</ele>
        <time>2025-01-22T10:14:26.780Z</time>
      </trkpt>
      <trkpt lat="46.73131" lon="-1.97733">
        <ele>7</ele>
        <time>2025-01-22T10:14:27.780Z</time>
      </trkpt>
      <trkpt lat="46.7313" lon="-1.97729">
        <ele>6.7</ele>
        <time>2025-01-22T10:14:28.780Z</time>
      </trkpt>
      <trkpt lat="46.73129" lon="-1.97725">
        <ele>6.4</ele>
        <time>2025-01-22T10:14:29.780Z</time>
      </trkpt>
      <trkpt lat="46.73128" lon="-1.97722">
        <ele>6.1</ele>
        <time>2025-01-22T10:14:30.780Z</time>
      </trkpt>
      <trkpt lat="46.73128" lon="-1.97719">
        <ele>6.1</ele>
        <time>2025-01-22T10:14:31.780Z</time>
      </trkpt>
      <trkpt lat="46.73128" lon="-1.97716">
        <ele>5.9</ele>
        <time>2025-01-22T10:14:32.780Z</time>
      </trkpt>
      <trkpt lat="46.73127" lon="-1.97712">
        <ele>5.8</ele>
        <time>2025-01-22T10:14:33.780Z</time>
      </trkpt>
      <trkpt lat="46.73127" lon="-1.97708">
        <ele>5.7</ele>
        <time>2025-01-22T10:14:34.780Z</time>
      </trkpt>
      <trkpt lat="46.73126" lon="-1.97703">
        <ele>5.5</ele>
        <time>2025-01-22T10:14:35.780Z</time>
      </trkpt>
      <trkpt lat="46.73125" lon="-1.97699">
        <ele>5.2</ele>
        <time>2025-01-22T10:14:36.780Z</time>
      </trkpt>
      <trkpt lat="46.73124" lon="-1.97695">
        <ele>5.1</ele>
        <time>2025-01-22T10:14:37.780Z</time>
      </trkpt>
      <trkpt lat="46.73123" lon="-1.97692">
        <ele>5</ele>
        <time>2025-01-22T10:14:38.780Z</time>
      </trkpt>
      <trkpt lat="46.73122" lon="-1.9769">
        <ele>4.9</ele>
        <time>2025-01-22T10:14:39.780Z</time>
      </trkpt>
      <trkpt lat="46.73121" lon="-1.97687">
        <ele>4.9</ele>
        <time>2025-01-22T10:14:40.780Z</time>
      </trkpt>
      <trkpt lat="46.7312" lon="-1.97684">
        <ele>4.9</ele>
        <time>2025-01-22T10:14:41.780Z</time>
      </trkpt>
      <trkpt lat="46.73119" lon="-1.97682">
        <ele>4.9</ele>
        <time>2025-01-22T10:14:42.780Z</time>
      </trkpt>
      <trkpt lat="46.73118" lon="-1.97679">
        <ele>4.9</ele>
        <time>2025-01-22T10:14:43.780Z</time>
      </trkpt>
      <trkpt lat="46.73116" lon="-1.97677">
        <ele>4.9</ele>
        <time>2025-01-22T10:14:44.780Z</time>
      </trkpt>
      <trkpt lat="46.73115" lon="-1.97674">
        <ele>4.9</ele>
        <time>2025-01-22T10:14:45.780Z</time>
      </trkpt>
      <trkpt lat="46.73113" lon="-1.97672">
        <ele>4.9</ele>
        <time>2025-01-22T10:14:46.780Z</time>
      </trkpt>
      <trkpt lat="46.73113" lon="-1.9767">
        <ele>5</ele>
        <time>2025-01-22T10:14:47.780Z</time>
      </trkpt>
      <trkpt lat="46.73111" lon="-1.97668">
        <ele>5</ele>
        <time>2025-01-22T10:14:48.780Z</time>
      </trkpt>
      <trkpt lat="46.7311" lon="-1.97664">
        <ele>5.1</ele>
        <time>2025-01-22T10:14:49.780Z</time>
      </trkpt>
      <trkpt lat="46.73108" lon="-1.9766">
        <ele>5.5</ele>
        <time>2025-01-22T10:14:50.780Z</time>
      </trkpt>
      <trkpt lat="46.73106" lon="-1.97657">
        <ele>5.7</ele>
        <time>2025-01-22T10:14:51.780Z</time>
      </trkpt>
      <trkpt lat="46.73105" lon="-1.97655">
        <ele>5.8</ele>
        <time>2025-01-22T10:14:52.780Z</time>
      </trkpt>
      <trkpt lat="46.73103" lon="-1.97652">
        <ele>5.8</ele>
        <time>2025-01-22T10:14:53.780Z</time>
      </trkpt>
      <trkpt lat="46.73101" lon="-1.97648">
        <ele>5.9</ele>
        <time>2025-01-22T10:14:54.780Z</time>
      </trkpt>
      <trkpt lat="46.73099" lon="-1.97644">
        <ele>5.8</ele>
        <time>2025-01-22T10:14:55.780Z</time>
      </trkpt>
      <trkpt lat="46.73098" lon="-1.97641">
        <ele>5.7</ele>
        <time>2025-01-22T10:14:56.780Z</time>
      </trkpt>
      <trkpt lat="46.73096" lon="-1.97637">
        <ele>5.7</ele>
        <time>2025-01-22T10:14:57.780Z</time>
      </trkpt>
      <trkpt lat="46.73093" lon="-1.97633">
        <ele>5.9</ele>
        <time>2025-01-22T10:14:58.780Z</time>
      </trkpt>
      <trkpt lat="46.73091" lon="-1.9763">
        <ele>6.1</ele>
        <time>2025-01-22T10:14:59.780Z</time>
      </trkpt>
      <trkpt lat="46.73089" lon="-1.97626">
        <ele>6.1</ele>
        <time>2025-01-22T10:15:00.780Z</time>
      </trkpt>
      <trkpt lat="46.73087" lon="-1.97623">
        <ele>6.2</ele>
        <time>2025-01-22T10:15:01.780Z</time>
      </trkpt>
      <trkpt lat="46.73085" lon="-1.97621">
        <ele>6.3</ele>
        <time>2025-01-22T10:15:02.780Z</time>
      </trkpt>
      <trkpt lat="46.73083" lon="-1.97619">
        <ele>6.3</ele>
        <time>2025-01-22T10:15:03.780Z</time>
      </trkpt>
      <trkpt lat="46.73082" lon="-1.97617">
        <ele>6.6</ele>
        <time>2025-01-22T10:15:04.780Z</time>
      </trkpt>
      <trkpt lat="46.7308" lon="-1.97615">
        <ele>6.9</ele>
        <time>2025-01-22T10:15:05.780Z</time>
      </trkpt>
      <trkpt lat="46.73078" lon="-1.97613">
        <ele>7.3</ele>
        <time>2025-01-22T10:15:06.780Z</time>
      </trkpt>
      <trkpt lat="46.73076" lon="-1.97612">
        <ele>7.7</ele>
        <time>2025-01-22T10:15:07.780Z</time>
      </trkpt>
      <trkpt lat="46.73074" lon="-1.9761">
        <ele>8.2</ele>
        <time>2025-01-22T10:15:08.780Z</time>
      </trkpt>
      <trkpt lat="46.73071" lon="-1.97609">
        <ele>8.8</ele>
        <time>2025-01-22T10:15:09.780Z</time>
      </trkpt>
      <trkpt lat="46.73069" lon="-1.97607">
        <ele>9.3</ele>
        <time>2025-01-22T10:15:10.780Z</time>
      </trkpt>
      <trkpt lat="46.73068" lon="-1.97606">
        <ele>9.7</ele>
        <time>2025-01-22T10:15:11.780Z</time>
      </trkpt>
      <trkpt lat="46.73066" lon="-1.97606">
        <ele>9.9</ele>
        <time>2025-01-22T10:15:12.780Z</time>
      </trkpt>
      <trkpt lat="46.73064" lon="-1.97605">
        <ele>10.4</ele>
        <time>2025-01-22T10:15:13.780Z</time>
      </trkpt>
      <trkpt lat="46.73063" lon="-1.97603">
        <ele>10.9</ele>
        <time>2025-01-22T10:15:14.780Z</time>
      </trkpt>
      <trkpt lat="46.73061" lon="-1.97602">
        <ele>11.2</ele>
        <time>2025-01-22T10:15:15.780Z</time>
      </trkpt>
      <trkpt lat="46.7306" lon="-1.97601">
        <ele>11.6</ele>
        <time>2025-01-22T10:15:16.780Z</time>
      </trkpt>
      <trkpt lat="46.73058" lon="-1.97601">
        <ele>11.8</ele>
        <time>2025-01-22T10:15:17.780Z</time>
      </trkpt>
      <trkpt lat="46.73057" lon="-1.976">
        <ele>12.1</ele>
        <time>2025-01-22T10:15:18.780Z</time>
      </trkpt>
      <trkpt lat="46.73056" lon="-1.97599">
        <ele>12.4</ele>
        <time>2025-01-22T10:15:19.780Z</time>
      </trkpt>
      <trkpt lat="46.73055" lon="-1.97599">
        <ele>12.5</ele>
        <time>2025-01-22T10:15:20.780Z</time>
      </trkpt>
      <trkpt lat="46.73054" lon="-1.97599">
        <ele>12.6</ele>
        <time>2025-01-22T10:15:21.780Z</time>
      </trkpt>
      <trkpt lat="46.73053" lon="-1.97598">
        <ele>12.6</ele>
        <time>2025-01-22T10:15:22.780Z</time>
      </trkpt>
      <trkpt lat="46.73052" lon="-1.97598">
        <ele>12.7</ele>
        <time>2025-01-22T10:15:23.780Z</time>
      </trkpt>
      <trkpt lat="46.73051" lon="-1.97597">
        <ele>12.7</ele>
        <time>2025-01-22T10:15:24.780Z</time>
      </trkpt>
      <trkpt lat="46.73051" lon="-1.97597">
        <ele>12.8</ele>
        <time>2025-01-22T10:15:25.780Z</time>
      </trkpt>
      <trkpt lat="46.73051" lon="-1.97597">
        <ele>12.8</ele>
        <time>2025-01-22T10:15:26.780Z</time>
      </trkpt>
      <trkpt lat="46.73049" lon="-1.97596">
        <ele>12.8</ele>
        <time>2025-01-22T10:15:27.780Z</time>
      </trkpt>
      <trkpt lat="46.73048" lon="-1.97595">
        <ele>12.8</ele>
        <time>2025-01-22T10:15:28.780Z</time>
      </trkpt>
      <trkpt lat="46.73048" lon="-1.97595">
        <ele>12.8</ele>
        <time>2025-01-22T10:15:29.780Z</time>
      </trkpt>
      <trkpt lat="46.73047" lon="-1.97595">
        <ele>12.9</ele>
        <time>2025-01-22T10:15:30.780Z</time>
      </trkpt>
      <trkpt lat="46.73046" lon="-1.97594">
        <ele>12.8</ele>
        <time>2025-01-22T10:15:31.780Z</time>
      </trkpt>
      <trkpt lat="46.73046" lon="-1.97593">
        <ele>12.8</ele>
        <time>2025-01-22T10:15:32.780Z</time>
      </trkpt>
      <trkpt lat="46.73046" lon="-1.97591">
        <ele>12.7</ele>
        <time>2025-01-22T10:15:33.780Z</time>
      </trkpt>
      <trkpt lat="46.73047" lon="-1.9759">
        <ele>12.7</ele>
        <time>2025-01-22T10:15:34.780Z</time>
      </trkpt>
      <trkpt lat="46.73048" lon="-1.9759">
        <ele>12.7</ele>
        <time>2025-01-22T10:15:35.780Z</time>
      </trkpt>
      <trkpt lat="46.73049" lon="-1.9759">
        <ele>12.7</ele>
        <time>2025-01-22T10:15:36.780Z</time>
      </trkpt>
      <trkpt lat="46.7305" lon="-1.97591">
        <ele>12.7</ele>
        <time>2025-01-22T10:15:37.780Z</time>
      </trkpt>
      <trkpt lat="46.7305" lon="-1.97589">
        <ele>12.7</ele>
        <time>2025-01-22T10:15:38.780Z</time>
      </trkpt>
      <trkpt lat="46.73051" lon="-1.97588">
        <ele>12.7</ele>
        <time>2025-01-22T10:15:39.780Z</time>
      </trkpt>
      <trkpt lat="46.73051" lon="-1.97586">
        <ele>12.7</ele>
        <time>2025-01-22T10:15:40.780Z</time>
      </trkpt>
      <trkpt lat="46.73051" lon="-1.97585">
        <ele>12.7</ele>
        <time>2025-01-22T10:15:41.780Z</time>
      </trkpt>
      <trkpt lat="46.73051" lon="-1.97584">
        <ele>12.7</ele>
        <time>2025-01-22T10:15:42.780Z</time>
      </trkpt>
      <trkpt lat="46.73052" lon="-1.97583">
        <ele>12.8</ele>
        <time>2025-01-22T10:15:43.780Z</time>
      </trkpt>
      <trkpt lat="46.73053" lon="-1.97582">
        <ele>13</ele>
        <time>2025-01-22T10:15:44.780Z</time>
      </trkpt>
      <trkpt lat="46.73053" lon="-1.97581">
        <ele>13.2</ele>
        <time>2025-01-22T10:15:45.780Z</time>
      </trkpt>
      <trkpt lat="46.73054" lon="-1.9758">
        <ele>13.3</ele>
        <time>2025-01-22T10:15:46.780Z</time>
      </trkpt>
      <trkpt lat="46.73054" lon="-1.97579">
        <ele>13.4</ele>
        <time>2025-01-22T10:15:47.780Z</time>
      </trkpt>
      <trkpt lat="46.73054" lon="-1.97578">
        <ele>13.6</ele>
        <time>2025-01-22T10:15:48.780Z</time>
      </trkpt>
      <trkpt lat="46.73055" lon="-1.97577">
        <ele>13.8</ele>
        <time>2025-01-22T10:15:49.780Z</time>
      </trkpt>
      <trkpt lat="46.73056" lon="-1.97575">
        <ele>14.1</ele>
        <time>2025-01-22T10:15:50.780Z</time>
      </trkpt>
      <trkpt lat="46.73056" lon="-1.97574">
        <ele>14.3</ele>
        <time>2025-01-22T10:15:51.780Z</time>
      </trkpt>
      <trkpt lat="46.73057" lon="-1.97572">
        <ele>14.4</ele>
        <time>2025-01-22T10:15:52.780Z</time>
      </trkpt>
      <trkpt lat="46.73057" lon="-1.9757">
        <ele>14.6</ele>
        <time>2025-01-22T10:15:53.780Z</time>
      </trkpt>
      <trkpt lat="46.73057" lon="-1.97569">
        <ele>14.8</ele>
        <time>2025-01-22T10:15:54.780Z</time>
      </trkpt>
      <trkpt lat="46.73058" lon="-1.97567">
        <ele>15</ele>
        <time>2025-01-22T10:15:55.780Z</time>
      </trkpt>
      <trkpt lat="46.73058" lon="-1.97566">
        <ele>15.1</ele>
        <time>2025-01-22T10:15:56.780Z</time>
      </trkpt>
      <trkpt lat="46.73059" lon="-1.97565">
        <ele>15.1</ele>
        <time>2025-01-22T10:15:57.780Z</time>
      </trkpt>
      <trkpt lat="46.73059" lon="-1.97564">
        <ele>15.1</ele>
        <time>2025-01-22T10:15:58.780Z</time>
      </trkpt>
      <trkpt lat="46.73059" lon="-1.97564">
        <ele>15.2</ele>
        <time>2025-01-22T10:15:59.780Z</time>
      </trkpt>
      <trkpt lat="46.73058" lon="-1.97563">
        <ele>15.5</ele>
        <time>2025-01-22T10:16:00.780Z</time>
      </trkpt>
      <trkpt lat="46.73058" lon="-1.97561">
        <ele>15.6</ele>
        <time>2025-01-22T10:16:01.780Z</time>
      </trkpt>
      <trkpt lat="46.73059" lon="-1.9756">
        <ele>15.7</ele>
        <time>2025-01-22T10:16:02.780Z</time>
      </trkpt>
      <trkpt lat="46.7306" lon="-1.97558">
        <ele>15.8</ele>
        <time>2025-01-22T10:16:03.780Z</time>
      </trkpt>
      <trkpt lat="46.7306" lon="-1.97557">
        <ele>15.9</ele>
        <time>2025-01-22T10:16:04.780Z</time>
      </trkpt>
      <trkpt lat="46.73061" lon="-1.97555">
        <ele>15.9</ele>
        <time>2025-01-22T10:16:05.780Z</time>
      </trkpt>
      <trkpt lat="46.73061" lon="-1.97554">
        <ele>15.9</ele>
        <time>2025-01-22T10:16:06.780Z</time>
      </trkpt>
      <trkpt lat="46.73061" lon="-1.97552">
        <ele>15.9</ele>
        <time>2025-01-22T10:16:07.780Z</time>
      </trkpt>
      <trkpt lat="46.73061" lon="-1.97551">
        <ele>15.8</ele>
        <time>2025-01-22T10:16:08.780Z</time>
      </trkpt>
      <trkpt lat="46.73061" lon="-1.97549">
        <ele>15.8</ele>
        <time>2025-01-22T10:16:09.780Z</time>
      </trkpt>
      <trkpt lat="46.73061" lon="-1.97548">
        <ele>15.8</ele>
        <time>2025-01-22T10:16:10.780Z</time>
      </trkpt>
      <trkpt lat="46.73061" lon="-1.97546">
        <ele>15.8</ele>
        <time>2025-01-22T10:16:11.780Z</time>
      </trkpt>
      <trkpt lat="46.73062" lon="-1.97544">
        <ele>15.7</ele>
        <time>2025-01-22T10:16:12.780Z</time>
      </trkpt>
      <trkpt lat="46.73062" lon="-1.97541">
        <ele>15.7</ele>
        <time>2025-01-22T10:16:13.780Z</time>
      </trkpt>
      <trkpt lat="46.73062" lon="-1.97539">
        <ele>15.7</ele>
        <time>2025-01-22T10:16:14.780Z</time>
      </trkpt>
      <trkpt lat="46.73062" lon="-1.97536">
        <ele>15.7</ele>
        <time>2025-01-22T10:16:15.780Z</time>
      </trkpt>
      <trkpt lat="46.73062" lon="-1.97533">
        <ele>15.8</ele>
        <time>2025-01-22T10:16:16.780Z</time>
      </trkpt>
      <trkpt lat="46.73062" lon="-1.9753">
        <ele>15.8</ele>
        <time>2025-01-22T10:16:17.780Z</time>
      </trkpt>
      <trkpt lat="46.73062" lon="-1.97527">
        <ele>15.8</ele>
        <time>2025-01-22T10:16:18.780Z</time>
      </trkpt>
      <trkpt lat="46.73063" lon="-1.97524">
        <ele>15.7</ele>
        <time>2025-01-22T10:16:19.780Z</time>
      </trkpt>
      <trkpt lat="46.73065" lon="-1.9752">
        <ele>15.7</ele>
        <time>2025-01-22T10:16:20.780Z</time>
      </trkpt>
      <trkpt lat="46.73067" lon="-1.97517">
        <ele>15.8</ele>
        <time>2025-01-22T10:16:21.780Z</time>
      </trkpt>
      <trkpt lat="46.73069" lon="-1.97514">
        <ele>16</ele>
        <time>2025-01-22T10:16:22.780Z</time>
      </trkpt>
      <trkpt lat="46.73071" lon="-1.97513">
        <ele>16.2</ele>
        <time>2025-01-22T10:16:23.780Z</time>
      </trkpt>
      <trkpt lat="46.73072" lon="-1.97511">
        <ele>16.4</ele>
        <time>2025-01-22T10:16:24.780Z</time>
      </trkpt>
      <trkpt lat="46.73074" lon="-1.97509">
        <ele>16.6</ele>
        <time>2025-01-22T10:16:25.780Z</time>
      </trkpt>
      <trkpt lat="46.73076" lon="-1.97507">
        <ele>17</ele>
        <time>2025-01-22T10:16:26.780Z</time>
      </trkpt>
      <trkpt lat="46.73077" lon="-1.97505">
        <ele>17.4</ele>
        <time>2025-01-22T10:16:27.780Z</time>
      </trkpt>
      <trkpt lat="46.73079" lon="-1.97504">
        <ele>17.8</ele>
        <time>2025-01-22T10:16:28.780Z</time>
      </trkpt>
      <trkpt lat="46.73081" lon="-1.97503">
        <ele>18.2</ele>
        <time>2025-01-22T10:16:29.780Z</time>
      </trkpt>
      <trkpt lat="46.73083" lon="-1.97502">
        <ele>18.6</ele>
        <time>2025-01-22T10:16:30.780Z</time>
      </trkpt>
      <trkpt lat="46.73084" lon="-1.97501">
        <ele>18.9</ele>
        <time>2025-01-22T10:16:31.780Z</time>
      </trkpt>
      <trkpt lat="46.73087" lon="-1.97501">
        <ele>19.1</ele>
        <time>2025-01-22T10:16:32.780Z</time>
      </trkpt>
      <trkpt lat="46.73089" lon="-1.97501">
        <ele>19.3</ele>
        <time>2025-01-22T10:16:33.780Z</time>
      </trkpt>
      <trkpt lat="46.73091" lon="-1.975">
        <ele>19.5</ele>
        <time>2025-01-22T10:16:34.780Z</time>
      </trkpt>
      <trkpt lat="46.73093" lon="-1.97499">
        <ele>19.6</ele>
        <time>2025-01-22T10:16:35.780Z</time>
      </trkpt>
      <trkpt lat="46.73095" lon="-1.975">
        <ele>19.8</ele>
        <time>2025-01-22T10:16:36.780Z</time>
      </trkpt>
      <trkpt lat="46.73097" lon="-1.975">
        <ele>19.9</ele>
        <time>2025-01-22T10:16:37.780Z</time>
      </trkpt>
      <trkpt lat="46.73099" lon="-1.975">
        <ele>20.1</ele>
        <time>2025-01-22T10:16:38.780Z</time>
      </trkpt>
      <trkpt lat="46.73102" lon="-1.97499">
        <ele>20.3</ele>
        <time>2025-01-22T10:16:39.780Z</time>
      </trkpt>
      <trkpt lat="46.73105" lon="-1.97498">
        <ele>20.4</ele>
        <time>2025-01-22T10:16:40.780Z</time>
      </trkpt>
      <trkpt lat="46.73106" lon="-1.97498">
        <ele>20.6</ele>
        <time>2025-01-22T10:16:41.780Z</time>
      </trkpt>
      <trkpt lat="46.73108" lon="-1.97498">
        <ele>20.7</ele>
        <time>2025-01-22T10:16:42.780Z</time>
      </trkpt>
      <trkpt lat="46.73109" lon="-1.97498">
        <ele>20.8</ele>
        <time>2025-01-22T10:16:43.780Z</time>
      </trkpt>
      <trkpt lat="46.7311" lon="-1.97497">
        <ele>20.9</ele>
        <time>2025-01-22T10:16:44.780Z</time>
      </trkpt>
      <trkpt lat="46.73112" lon="-1.97495">
        <ele>21</ele>
        <time>2025-01-22T10:16:45.780Z</time>
      </trkpt>
      <trkpt lat="46.73113" lon="-1.97491">
        <ele>20.8</ele>
        <time>2025-01-22T10:16:46.780Z</time>
      </trkpt>
      <trkpt lat="46.73114" lon="-1.97488">
        <ele>20.7</ele>
        <time>2025-01-22T10:16:47.780Z</time>
      </trkpt>
      <trkpt lat="46.73116" lon="-1.97485">
        <ele>20.6</ele>
        <time>2025-01-22T10:16:48.780Z</time>
      </trkpt>
      <trkpt lat="46.73117" lon="-1.97483">
        <ele>20.5</ele>
        <time>2025-01-22T10:16:49.780Z</time>
      </trkpt>
      <trkpt lat="46.73117" lon="-1.9748">
        <ele>20.4</ele>
        <time>2025-01-22T10:16:50.780Z</time>
      </trkpt>
      <trkpt lat="46.73117" lon="-1.97477">
        <ele>20.5</ele>
        <time>2025-01-22T10:16:51.780Z</time>
      </trkpt>
      <trkpt lat="46.73116" lon="-1.97474">
        <ele>20.5</ele>
        <time>2025-01-22T10:16:52.780Z</time>
      </trkpt>
      <trkpt lat="46.73116" lon="-1.97472">
        <ele>20.4</ele>
        <time>2025-01-22T10:16:53.780Z</time>
      </trkpt>
      <trkpt lat="46.73116" lon="-1.97469">
        <ele>20.3</ele>
        <time>2025-01-22T10:16:54.780Z</time>
      </trkpt>
      <trkpt lat="46.73117" lon="-1.97466">
        <ele>20.2</ele>
        <time>2025-01-22T10:16:55.780Z</time>
      </trkpt>
      <trkpt lat="46.73117" lon="-1.97463">
        <ele>20</ele>
        <time>2025-01-22T10:16:56.780Z</time>
      </trkpt>
      <trkpt lat="46.73118" lon="-1.9746">
        <ele>19.8</ele>
        <time>2025-01-22T10:16:57.780Z</time>
      </trkpt>
      <trkpt lat="46.73119" lon="-1.97457">
        <ele>19.7</ele>
        <time>2025-01-22T10:16:58.780Z</time>
      </trkpt>
      <trkpt lat="46.73119" lon="-1.97454">
        <ele>19.5</ele>
        <time>2025-01-22T10:16:59.780Z</time>
      </trkpt>
      <trkpt lat="46.73119" lon="-1.97452">
        <ele>19.4</ele>
        <time>2025-01-22T10:17:00.780Z</time>
      </trkpt>
      <trkpt lat="46.73119" lon="-1.9745">
        <ele>19.3</ele>
        <time>2025-01-22T10:17:01.780Z</time>
      </trkpt>
      <trkpt lat="46.73119" lon="-1.97447">
        <ele>19.2</ele>
        <time>2025-01-22T10:17:02.780Z</time>
      </trkpt>
      <trkpt lat="46.73119" lon="-1.97444">
        <ele>19.1</ele>
        <time>2025-01-22T10:17:03.780Z</time>
      </trkpt>
      <trkpt lat="46.73119" lon="-1.97441">
        <ele>19.1</ele>
        <time>2025-01-22T10:17:04.780Z</time>
      </trkpt>
      <trkpt lat="46.73119" lon="-1.97438">
        <ele>19.1</ele>
        <time>2025-01-22T10:17:05.780Z</time>
      </trkpt>
      <trkpt lat="46.73119" lon="-1.97435">
        <ele>19</ele>
        <time>2025-01-22T10:17:06.780Z</time>
      </trkpt>
      <trkpt lat="46.73119" lon="-1.97432">
        <ele>19</ele>
        <time>2025-01-22T10:17:07.780Z</time>
      </trkpt>
      <trkpt lat="46.73119" lon="-1.97428">
        <ele>18.9</ele>
        <time>2025-01-22T10:17:08.780Z</time>
      </trkpt>
      <trkpt lat="46.73119" lon="-1.97424">
        <ele>18.8</ele>
        <time>2025-01-22T10:17:09.780Z</time>
      </trkpt>
      <trkpt lat="46.7312" lon="-1.9742">
        <ele>18.7</ele>
        <time>2025-01-22T10:17:10.780Z</time>
      </trkpt>
      <trkpt lat="46.73121" lon="-1.97417">
        <ele>18.7</ele>
        <time>2025-01-22T10:17:11.780Z</time>
      </trkpt>
      <trkpt lat="46.73122" lon="-1.97415">
        <ele>18.7</ele>
        <time>2025-01-22T10:17:12.780Z</time>
      </trkpt>
      <trkpt lat="46.73123" lon="-1.97412">
        <ele>18.9</ele>
        <time>2025-01-22T10:17:13.780Z</time>
      </trkpt>
      <trkpt lat="46.73123" lon="-1.97409">
        <ele>19</ele>
        <time>2025-01-22T10:17:14.780Z</time>
      </trkpt>
      <trkpt lat="46.73125" lon="-1.97405">
        <ele>19.4</ele>
        <time>2025-01-22T10:17:15.780Z</time>
      </trkpt>
      <trkpt lat="46.73126" lon="-1.97401">
        <ele>19.7</ele>
        <time>2025-01-22T10:17:16.780Z</time>
      </trkpt>
      <trkpt lat="46.73126" lon="-1.97397">
        <ele>20</ele>
        <time>2025-01-22T10:17:17.780Z</time>
      </trkpt>
      <trkpt lat="46.73127" lon="-1.97393">
        <ele>20.4</ele>
        <time>2025-01-22T10:17:18.780Z</time>
      </trkpt>
      <trkpt lat="46.73128" lon="-1.97388">
        <ele>20.9</ele>
        <time>2025-01-22T10:17:19.780Z</time>
      </trkpt>
      <trkpt lat="46.73129" lon="-1.97384">
        <ele>21.3</ele>
        <time>2025-01-22T10:17:20.780Z</time>
      </trkpt>
      <trkpt lat="46.73129" lon="-1.9738">
        <ele>21.7</ele>
        <time>2025-01-22T10:17:21.780Z</time>
      </trkpt>
      <trkpt lat="46.73129" lon="-1.97377">
        <ele>22</ele>
        <time>2025-01-22T10:17:22.780Z</time>
      </trkpt>
      <trkpt lat="46.7313" lon="-1.97374">
        <ele>22.3</ele>
        <time>2025-01-22T10:17:23.780Z</time>
      </trkpt>
      <trkpt lat="46.73131" lon="-1.97371">
        <ele>22.7</ele>
        <time>2025-01-22T10:17:24.780Z</time>
      </trkpt>
      <trkpt lat="46.73131" lon="-1.97367">
        <ele>23.1</ele>
        <time>2025-01-22T10:17:25.780Z</time>
      </trkpt>
      <trkpt lat="46.73132" lon="-1.97364">
        <ele>23.5</ele>
        <time>2025-01-22T10:17:26.780Z</time>
      </trkpt>
      <trkpt lat="46.73132" lon="-1.9736">
        <ele>23.7</ele>
        <time>2025-01-22T10:17:27.780Z</time>
      </trkpt>
      <trkpt lat="46.73131" lon="-1.97357">
        <ele>23.9</ele>
        <time>2025-01-22T10:17:28.780Z</time>
      </trkpt>
      <trkpt lat="46.73131" lon="-1.97353">
        <ele>24</ele>
        <time>2025-01-22T10:17:29.780Z</time>
      </trkpt>
      <trkpt lat="46.73131" lon="-1.9735">
        <ele>24.2</ele>
        <time>2025-01-22T10:17:30.780Z</time>
      </trkpt>
      <trkpt lat="46.73131" lon="-1.97347">
        <ele>24.4</ele>
        <time>2025-01-22T10:17:31.780Z</time>
      </trkpt>
      <trkpt lat="46.73131" lon="-1.97345">
        <ele>24.6</ele>
        <time>2025-01-22T10:17:32.780Z</time>
      </trkpt>
      <trkpt lat="46.73131" lon="-1.97343">
        <ele>24.7</ele>
        <time>2025-01-22T10:17:33.780Z</time>
      </trkpt>
      <trkpt lat="46.73131" lon="-1.97341">
        <ele>24.7</ele>
        <time>2025-01-22T10:17:34.780Z</time>
      </trkpt>
      <trkpt lat="46.7313" lon="-1.97339">
        <ele>24.8</ele>
        <time>2025-01-22T10:17:35.780Z</time>
      </trkpt>
      <trkpt lat="46.73129" lon="-1.97336">
        <ele>24.8</ele>
        <time>2025-01-22T10:17:36.780Z</time>
      </trkpt>
      <trkpt lat="46.73129" lon="-1.97333">
        <ele>24.8</ele>
        <time>2025-01-22T10:17:37.780Z</time>
      </trkpt>
      <trkpt lat="46.73128" lon="-1.9733">
        <ele>24.9</ele>
        <time>2025-01-22T10:17:38.780Z</time>
      </trkpt>
      <trkpt lat="46.73128" lon="-1.97327">
        <ele>25</ele>
        <time>2025-01-22T10:17:39.780Z</time>
      </trkpt>
      <trkpt lat="46.73129" lon="-1.97324">
        <ele>25.2</ele>
        <time>2025-01-22T10:17:40.780Z</time>
      </trkpt>
      <trkpt lat="46.73129" lon="-1.97321">
        <ele>25.5</ele>
        <time>2025-01-22T10:17:41.780Z</time>
      </trkpt>
      <trkpt lat="46.73129" lon="-1.97318">
        <ele>25.7</ele>
        <time>2025-01-22T10:17:42.780Z</time>
      </trkpt>
      <trkpt lat="46.73129" lon="-1.97315">
        <ele>25.8</ele>
        <time>2025-01-22T10:17:43.780Z</time>
      </trkpt>
      <trkpt lat="46.73129" lon="-1.97313">
        <ele>25.9</ele>
        <time>2025-01-22T10:17:44.780Z</time>
      </trkpt>
      <trkpt lat="46.73128" lon="-1.9731">
        <ele>26</ele>
        <time>2025-01-22T10:17:45.780Z</time>
      </trkpt>
      <trkpt lat="46.73128" lon="-1.97308">
        <ele>26.1</ele>
        <time>2025-01-22T10:17:46.780Z</time>
      </trkpt>
      <trkpt lat="46.73128" lon="-1.97306">
        <ele>26.2</ele>
        <time>2025-01-22T10:17:47.780Z</time>
      </trkpt>
      <trkpt lat="46.73128" lon="-1.97303">
        <ele>26.4</ele>
        <time>2025-01-22T10:17:48.780Z</time>
      </trkpt>
      <trkpt lat="46.73127" lon="-1.973">
        <ele>26.6</ele>
        <time>2025-01-22T10:17:49.780Z</time>
      </trkpt>
      <trkpt lat="46.73126" lon="-1.97296">
        <ele>26.9</ele>
        <time>2025-01-22T10:17:50.780Z</time>
      </trkpt>
      <trkpt lat="46.73124" lon="-1.97293">
        <ele>27.1</ele>
        <time>2025-01-22T10:17:51.780Z</time>
      </trkpt>
      <trkpt lat="46.73123" lon="-1.9729">
        <ele>27.4</ele>
        <time>2025-01-22T10:17:52.780Z</time>
      </trkpt>
      <trkpt lat="46.73122" lon="-1.97288">
        <ele>27.6</ele>
        <time>2025-01-22T10:17:53.780Z</time>
      </trkpt>
      <trkpt lat="46.73121" lon="-1.97286">
        <ele>27.8</ele>
        <time>2025-01-22T10:17:54.780Z</time>
      </trkpt>
      <trkpt lat="46.73121" lon="-1.97283">
        <ele>28.1</ele>
        <time>2025-01-22T10:17:55.780Z</time>
      </trkpt>
      <trkpt lat="46.73121" lon="-1.97281">
        <ele>28.3</ele>
        <time>2025-01-22T10:17:56.780Z</time>
      </trkpt>
      <trkpt lat="46.73121" lon="-1.97279">
        <ele>28.5</ele>
        <time>2025-01-22T10:17:57.780Z</time>
      </trkpt>
      <trkpt lat="46.73121" lon="-1.97277">
        <ele>28.6</ele>
        <time>2025-01-22T10:17:58.780Z</time>
      </trkpt>
      <trkpt lat="46.73122" lon="-1.97275">
        <ele>28.6</ele>
        <time>2025-01-22T10:17:59.780Z</time>
      </trkpt>
      <trkpt lat="46.73123" lon="-1.97274">
        <ele>28.5</ele>
        <time>2025-01-22T10:18:00.780Z</time>
      </trkpt>
      <trkpt lat="46.73123" lon="-1.97273">
        <ele>28.4</ele>
        <time>2025-01-22T10:18:01.780Z</time>
      </trkpt>
      <trkpt lat="46.73124" lon="-1.97272">
        <ele>28.3</ele>
        <time>2025-01-22T10:18:02.780Z</time>
      </trkpt>
      <trkpt lat="46.73125" lon="-1.9727">
        <ele>28.2</ele>
        <time>2025-01-22T10:18:03.780Z</time>
      </trkpt>
      <trkpt lat="46.73126" lon="-1.97268">
        <ele>28.1</ele>
        <time>2025-01-22T10:18:04.780Z</time>
      </trkpt>
      <trkpt lat="46.73126" lon="-1.97266">
        <ele>28</ele>
        <time>2025-01-22T10:18:05.780Z</time>
      </trkpt>
      <trkpt lat="46.73128" lon="-1.97264">
        <ele>27.8</ele>
        <time>2025-01-22T10:18:06.780Z</time>
      </trkpt>
      <trkpt lat="46.73129" lon="-1.97262">
        <ele>27.6</ele>
        <time>2025-01-22T10:18:07.780Z</time>
      </trkpt>
      <trkpt lat="46.7313" lon="-1.97259">
        <ele>27.4</ele>
        <time>2025-01-22T10:18:08.780Z</time>
      </trkpt>
      <trkpt lat="46.7313" lon="-1.97257">
        <ele>27.3</ele>
        <time>2025-01-22T10:18:09.780Z</time>
      </trkpt>
      <trkpt lat="46.73129" lon="-1.97253">
        <ele>27.2</ele>
        <time>2025-01-22T10:18:10.780Z</time>
      </trkpt>
      <trkpt lat="46.73128" lon="-1.97249">
        <ele>27.1</ele>
        <time>2025-01-22T10:18:11.780Z</time>
      </trkpt>
      <trkpt lat="46.73127" lon="-1.97246">
        <ele>26.9</ele>
        <time>2025-01-22T10:18:12.780Z</time>
      </trkpt>
      <trkpt lat="46.73126" lon="-1.97242">
        <ele>26.7</ele>
        <time>2025-01-22T10:18:13.780Z</time>
      </trkpt>
      <trkpt lat="46.73124" lon="-1.97238">
        <ele>26.6</ele>
        <time>2025-01-22T10:18:14.780Z</time>
      </trkpt>
      <trkpt lat="46.73122" lon="-1.97235">
        <ele>26.6</ele>
        <time>2025-01-22T10:18:15.780Z</time>
      </trkpt>
      <trkpt lat="46.73121" lon="-1.97232">
        <ele>26.6</ele>
        <time>2025-01-22T10:18:16.780Z</time>
      </trkpt>
      <trkpt lat="46.7312" lon="-1.97229">
        <ele>26.6</ele>
        <time>2025-01-22T10:18:17.780Z</time>
      </trkpt>
      <trkpt lat="46.73119" lon="-1.97226">
        <ele>26.6</ele>
        <time>2025-01-22T10:18:18.780Z</time>
      </trkpt>
      <trkpt lat="46.73117" lon="-1.97223">
        <ele>26.7</ele>
        <time>2025-01-22T10:18:19.780Z</time>
      </trkpt>
      <trkpt lat="46.73116" lon="-1.9722">
        <ele>26.8</ele>
        <time>2025-01-22T10:18:20.780Z</time>
      </trkpt>
      <trkpt lat="46.73114" lon="-1.97217">
        <ele>26.9</ele>
        <time>2025-01-22T10:18:21.780Z</time>
      </trkpt>
      <trkpt lat="46.73113" lon="-1.97214">
        <ele>27</ele>
        <time>2025-01-22T10:18:22.780Z</time>
      </trkpt>
      <trkpt lat="46.73111" lon="-1.97211">
        <ele>27.2</ele>
        <time>2025-01-22T10:18:23.780Z</time>
      </trkpt>
      <trkpt lat="46.7311" lon="-1.97209">
        <ele>26.9</ele>
        <time>2025-01-22T10:18:24.780Z</time>
      </trkpt>
      <trkpt lat="46.73109" lon="-1.97205">
        <ele>26.3</ele>
        <time>2025-01-22T10:18:25.780Z</time>
      </trkpt>
      <trkpt lat="46.73107" lon="-1.972">
        <ele>25.8</ele>
        <time>2025-01-22T10:18:26.780Z</time>
      </trkpt>
      <trkpt lat="46.73106" lon="-1.97196">
        <ele>25.4</ele>
        <time>2025-01-22T10:18:27.780Z</time>
      </trkpt>
      <trkpt lat="46.73105" lon="-1.97192">
        <ele>24.8</ele>
        <time>2025-01-22T10:18:28.780Z</time>
      </trkpt>
      <trkpt lat="46.73103" lon="-1.97188">
        <ele>24.2</ele>
        <time>2025-01-22T10:18:29.780Z</time>
      </trkpt>
      <trkpt lat="46.73101" lon="-1.97184">
        <ele>23.6</ele>
        <time>2025-01-22T10:18:30.780Z</time>
      </trkpt>
      <trkpt lat="46.731" lon="-1.97182">
        <ele>23.3</ele>
        <time>2025-01-22T10:18:31.780Z</time>
      </trkpt>
      <trkpt lat="46.73099" lon="-1.97179">
        <ele>23</ele>
        <time>2025-01-22T10:18:32.780Z</time>
      </trkpt>
      <trkpt lat="46.73098" lon="-1.97177">
        <ele>22.8</ele>
        <time>2025-01-22T10:18:33.780Z</time>
      </trkpt>
      <trkpt lat="46.73097" lon="-1.97175">
        <ele>22.6</ele>
        <time>2025-01-22T10:18:34.780Z</time>
      </trkpt>
      <trkpt lat="46.73095" lon="-1.97173">
        <ele>22.4</ele>
        <time>2025-01-22T10:18:35.780Z</time>
      </trkpt>
      <trkpt lat="46.73093" lon="-1.97171">
        <ele>22.2</ele>
        <time>2025-01-22T10:18:36.780Z</time>
      </trkpt>
      <trkpt lat="46.73092" lon="-1.97169">
        <ele>22.1</ele>
        <time>2025-01-22T10:18:37.780Z</time>
      </trkpt>
      <trkpt lat="46.73091" lon="-1.97168">
        <ele>22.1</ele>
        <time>2025-01-22T10:18:38.780Z</time>
      </trkpt>
      <trkpt lat="46.73089" lon="-1.97167">
        <ele>22</ele>
        <time>2025-01-22T10:18:39.780Z</time>
      </trkpt>
      <trkpt lat="46.73087" lon="-1.97167">
        <ele>22</ele>
        <time>2025-01-22T10:18:40.780Z</time>
      </trkpt>
      <trkpt lat="46.73084" lon="-1.97167">
        <ele>22</ele>
        <time>2025-01-22T10:18:41.780Z</time>
      </trkpt>
      <trkpt lat="46.73082" lon="-1.97166">
        <ele>21.9</ele>
        <time>2025-01-22T10:18:42.780Z</time>
      </trkpt>
      <trkpt lat="46.7308" lon="-1.97166">
        <ele>21.9</ele>
        <time>2025-01-22T10:18:43.780Z</time>
      </trkpt>
      <trkpt lat="46.73078" lon="-1.97165">
        <ele>21.8</ele>
        <time>2025-01-22T10:18:44.780Z</time>
      </trkpt>
      <trkpt lat="46.73076" lon="-1.97164">
        <ele>21.8</ele>
        <time>2025-01-22T10:18:45.780Z</time>
      </trkpt>
      <trkpt lat="46.73074" lon="-1.97163">
        <ele>21.7</ele>
        <time>2025-01-22T10:18:46.780Z</time>
      </trkpt>
      <trkpt lat="46.73072" lon="-1.97163">
        <ele>21.6</ele>
        <time>2025-01-22T10:18:47.780Z</time>
      </trkpt>
      <trkpt lat="46.7307" lon="-1.97162">
        <ele>21.6</ele>
        <time>2025-01-22T10:18:48.780Z</time>
      </trkpt>
      <trkpt lat="46.73068" lon="-1.97161">
        <ele>21.5</ele>
        <time>2025-01-22T10:18:49.780Z</time>
      </trkpt>
      <trkpt lat="46.73066" lon="-1.97161">
        <ele>21.5</ele>
        <time>2025-01-22T10:18:50.780Z</time>
      </trkpt>
      <trkpt lat="46.73065" lon="-1.97161">
        <ele>21.5</ele>
        <time>2025-01-22T10:18:51.780Z</time>
      </trkpt>
      <trkpt lat="46.73063" lon="-1.97161">
        <ele>21.4</ele>
        <time>2025-01-22T10:18:52.780Z</time>
      </trkpt>
      <trkpt lat="46.73061" lon="-1.9716">
        <ele>21.4</ele>
        <time>2025-01-22T10:18:53.780Z</time>
      </trkpt>
      <trkpt lat="46.73058" lon="-1.97159">
        <ele>21.3</ele>
        <time>2025-01-22T10:18:54.780Z</time>
      </trkpt>
      <trkpt lat="46.73054" lon="-1.97158">
        <ele>21.3</ele>
        <time>2025-01-22T10:18:55.780Z</time>
      </trkpt>
      <trkpt lat="46.73051" lon="-1.97159">
        <ele>21.4</ele>
        <time>2025-01-22T10:18:56.780Z</time>
      </trkpt>
      <trkpt lat="46.73047" lon="-1.97158">
        <ele>21.5</ele>
        <time>2025-01-22T10:18:57.780Z</time>
      </trkpt>
      <trkpt lat="46.73045" lon="-1.97159">
        <ele>21.5</ele>
        <time>2025-01-22T10:18:58.780Z</time>
      </trkpt>
      <trkpt lat="46.73043" lon="-1.97159">
        <ele>21.5</ele>
        <time>2025-01-22T10:18:59.780Z</time>
      </trkpt>
      <trkpt lat="46.73041" lon="-1.9716">
        <ele>21.5</ele>
        <time>2025-01-22T10:19:00.780Z</time>
      </trkpt>
      <trkpt lat="46.73038" lon="-1.97161">
        <ele>21.5</ele>
        <time>2025-01-22T10:19:01.780Z</time>
      </trkpt>
      <trkpt lat="46.73037" lon="-1.97161">
        <ele>21.5</ele>
        <time>2025-01-22T10:19:02.780Z</time>
      </trkpt>
      <trkpt lat="46.73034" lon="-1.9716">
        <ele>21.6</ele>
        <time>2025-01-22T10:19:03.780Z</time>
      </trkpt>
      <trkpt lat="46.73033" lon="-1.9716">
        <ele>21.6</ele>
        <time>2025-01-22T10:19:04.780Z</time>
      </trkpt>
      <trkpt lat="46.73032" lon="-1.9716">
        <ele>21.6</ele>
        <time>2025-01-22T10:19:05.780Z</time>
      </trkpt>
      <trkpt lat="46.7303" lon="-1.9716">
        <ele>21.7</ele>
        <time>2025-01-22T10:19:06.780Z</time>
      </trkpt>
      <trkpt lat="46.73029" lon="-1.97159">
        <ele>21.8</ele>
        <time>2025-01-22T10:19:07.780Z</time>
      </trkpt>
      <trkpt lat="46.73027" lon="-1.97158">
        <ele>21.9</ele>
        <time>2025-01-22T10:19:08.780Z</time>
      </trkpt>
      <trkpt lat="46.73026" lon="-1.97158">
        <ele>22</ele>
        <time>2025-01-22T10:19:09.780Z</time>
      </trkpt>
      <trkpt lat="46.73024" lon="-1.97157">
        <ele>22.1</ele>
        <time>2025-01-22T10:19:10.780Z</time>
      </trkpt>
      <trkpt lat="46.73023" lon="-1.97156">
        <ele>22.3</ele>
        <time>2025-01-22T10:19:11.780Z</time>
      </trkpt>
      <trkpt lat="46.73021" lon="-1.97154">
        <ele>22.4</ele>
        <time>2025-01-22T10:19:12.780Z</time>
      </trkpt>
      <trkpt lat="46.73018" lon="-1.97153">
        <ele>22.6</ele>
        <time>2025-01-22T10:19:13.780Z</time>
      </trkpt>
      <trkpt lat="46.73015" lon="-1.97151">
        <ele>23</ele>
        <time>2025-01-22T10:19:14.780Z</time>
      </trkpt>
      <trkpt lat="46.73013" lon="-1.97149">
        <ele>23.3</ele>
        <time>2025-01-22T10:19:15.780Z</time>
      </trkpt>
      <trkpt lat="46.73012" lon="-1.9715">
        <ele>23.2</ele>
        <time>2025-01-22T10:19:16.780Z</time>
      </trkpt>
      <trkpt lat="46.7301" lon="-1.97151">
        <ele>23.1</ele>
        <time>2025-01-22T10:19:17.780Z</time>
      </trkpt>
      <trkpt lat="46.73008" lon="-1.97152">
        <ele>22.9</ele>
        <time>2025-01-22T10:19:18.780Z</time>
      </trkpt>
      <trkpt lat="46.73007" lon="-1.97154">
        <ele>22.7</ele>
        <time>2025-01-22T10:19:19.780Z</time>
      </trkpt>
      <trkpt lat="46.73005" lon="-1.97156">
        <ele>22.5</ele>
        <time>2025-01-22T10:19:20.780Z</time>
      </trkpt>
      <trkpt lat="46.73003" lon="-1.97159">
        <ele>22.1</ele>
        <time>2025-01-22T10:19:21.780Z</time>
      </trkpt>
      <trkpt lat="46.73002" lon="-1.97161">
        <ele>21.8</ele>
        <time>2025-01-22T10:19:22.780Z</time>
      </trkpt>
      <trkpt lat="46.73001" lon="-1.97162">
        <ele>21.6</ele>
        <time>2025-01-22T10:19:23.780Z</time>
      </trkpt>
      <trkpt lat="46.73001" lon="-1.97165">
        <ele>21.3</ele>
        <time>2025-01-22T10:19:24.780Z</time>
      </trkpt>
      <trkpt lat="46.73001" lon="-1.97167">
        <ele>21</ele>
        <time>2025-01-22T10:19:25.780Z</time>
      </trkpt>
      <trkpt lat="46.73" lon="-1.97169">
        <ele>20.8</ele>
        <time>2025-01-22T10:19:26.780Z</time>
      </trkpt>
      <trkpt lat="46.73" lon="-1.97172">
        <ele>20.5</ele>
        <time>2025-01-22T10:19:27.780Z</time>
      </trkpt>
      <trkpt lat="46.73" lon="-1.97175">
        <ele>20.2</ele>
        <time>2025-01-22T10:19:28.780Z</time>
      </trkpt>
      <trkpt lat="46.73" lon="-1.97178">
        <ele>19.8</ele>
        <time>2025-01-22T10:19:29.780Z</time>
      </trkpt>
      <trkpt lat="46.73" lon="-1.97182">
        <ele>19.4</ele>
        <time>2025-01-22T10:19:30.780Z</time>
      </trkpt>
      <trkpt lat="46.73001" lon="-1.97185">
        <ele>19.1</ele>
        <time>2025-01-22T10:19:31.780Z</time>
      </trkpt>
      <trkpt lat="46.73001" lon="-1.97188">
        <ele>18.7</ele>
        <time>2025-01-22T10:19:32.780Z</time>
      </trkpt>
      <trkpt lat="46.73" lon="-1.97193">
        <ele>18.2</ele>
        <time>2025-01-22T10:19:33.780Z</time>
      </trkpt>
      <trkpt lat="46.73001" lon="-1.97197">
        <ele>17.7</ele>
        <time>2025-01-22T10:19:34.780Z</time>
      </trkpt>
      <trkpt lat="46.73001" lon="-1.972">
        <ele>17.2</ele>
        <time>2025-01-22T10:19:35.780Z</time>
      </trkpt>
      <trkpt lat="46.73002" lon="-1.97203">
        <ele>16.8</ele>
        <time>2025-01-22T10:19:36.780Z</time>
      </trkpt>
      <trkpt lat="46.73003" lon="-1.97205">
        <ele>16.5</ele>
        <time>2025-01-22T10:19:37.780Z</time>
      </trkpt>
      <trkpt lat="46.73003" lon="-1.97208">
        <ele>16.2</ele>
        <time>2025-01-22T10:19:38.780Z</time>
      </trkpt>
      <trkpt lat="46.73003" lon="-1.9721">
        <ele>15.8</ele>
        <time>2025-01-22T10:19:39.780Z</time>
      </trkpt>
      <trkpt lat="46.73003" lon="-1.97214">
        <ele>15.2</ele>
        <time>2025-01-22T10:19:40.780Z</time>
      </trkpt>
      <trkpt lat="46.73002" lon="-1.97219">
        <ele>14.6</ele>
        <time>2025-01-22T10:19:41.780Z</time>
      </trkpt>
      <trkpt lat="46.73002" lon="-1.97225">
        <ele>13.9</ele>
        <time>2025-01-22T10:19:42.780Z</time>
      </trkpt>
      <trkpt lat="46.73003" lon="-1.9723">
        <ele>13.5</ele>
        <time>2025-01-22T10:19:43.780Z</time>
      </trkpt>
      <trkpt lat="46.73004" lon="-1.97236">
        <ele>13.2</ele>
        <time>2025-01-22T10:19:44.780Z</time>
      </trkpt>
      <trkpt lat="46.73004" lon="-1.97239">
        <ele>13</ele>
        <time>2025-01-22T10:19:45.780Z</time>
      </trkpt>
      <trkpt lat="46.73003" lon="-1.9724">
        <ele>12.8</ele>
        <time>2025-01-22T10:19:46.780Z</time>
      </trkpt>
      <trkpt lat="46.73001" lon="-1.97242">
        <ele>12.6</ele>
        <time>2025-01-22T10:19:47.780Z</time>
      </trkpt>
      <trkpt lat="46.72999" lon="-1.97244">
        <ele>12.4</ele>
        <time>2025-01-22T10:19:48.780Z</time>
      </trkpt>
      <trkpt lat="46.72997" lon="-1.97245">
        <ele>12.4</ele>
        <time>2025-01-22T10:19:49.780Z</time>
      </trkpt>
      <trkpt lat="46.72996" lon="-1.97248">
        <ele>12.2</ele>
        <time>2025-01-22T10:19:50.780Z</time>
      </trkpt>
      <trkpt lat="46.72995" lon="-1.97251">
        <ele>12</ele>
        <time>2025-01-22T10:19:51.780Z</time>
      </trkpt>
      <trkpt lat="46.72995" lon="-1.97253">
        <ele>11.9</ele>
        <time>2025-01-22T10:19:52.780Z</time>
      </trkpt>
      <trkpt lat="46.72994" lon="-1.97255">
        <ele>11.8</ele>
        <time>2025-01-22T10:19:53.780Z</time>
      </trkpt>
      <trkpt lat="46.72993" lon="-1.97256">
        <ele>11.8</ele>
        <time>2025-01-22T10:19:54.780Z</time>
      </trkpt>
      <trkpt lat="46.72991" lon="-1.97257">
        <ele>11.7</ele>
        <time>2025-01-22T10:19:55.780Z</time>
      </trkpt>
      <trkpt lat="46.72989" lon="-1.97258">
        <ele>11.7</ele>
        <time>2025-01-22T10:19:56.780Z</time>
      </trkpt>
      <trkpt lat="46.72987" lon="-1.97258">
        <ele>11.7</ele>
        <time>2025-01-22T10:19:57.780Z</time>
      </trkpt>
      <trkpt lat="46.72984" lon="-1.97257">
        <ele>11.8</ele>
        <time>2025-01-22T10:19:58.780Z</time>
      </trkpt>
      <trkpt lat="46.72982" lon="-1.97256">
        <ele>11.8</ele>
        <time>2025-01-22T10:19:59.780Z</time>
      </trkpt>
      <trkpt lat="46.7298" lon="-1.97254">
        <ele>11.8</ele>
        <time>2025-01-22T10:20:00.780Z</time>
      </trkpt>
      <trkpt lat="46.72979" lon="-1.97253">
        <ele>11.9</ele>
        <time>2025-01-22T10:20:01.780Z</time>
      </trkpt>
      <trkpt lat="46.72978" lon="-1.9725">
        <ele>12</ele>
        <time>2025-01-22T10:20:02.780Z</time>
      </trkpt>
      <trkpt lat="46.72977" lon="-1.97247">
        <ele>12.4</ele>
        <time>2025-01-22T10:20:03.780Z</time>
      </trkpt>
      <trkpt lat="46.72976" lon="-1.97245">
        <ele>12.6</ele>
        <time>2025-01-22T10:20:04.780Z</time>
      </trkpt>
      <trkpt lat="46.72974" lon="-1.97244">
        <ele>12.8</ele>
        <time>2025-01-22T10:20:05.780Z</time>
      </trkpt>
      <trkpt lat="46.72971" lon="-1.97243">
        <ele>13.1</ele>
        <time>2025-01-22T10:20:06.780Z</time>
      </trkpt>
      <trkpt lat="46.72967" lon="-1.97241">
        <ele>13.5</ele>
        <time>2025-01-22T10:20:07.780Z</time>
      </trkpt>
      <trkpt lat="46.72966" lon="-1.9724">
        <ele>13.6</ele>
        <time>2025-01-22T10:20:08.780Z</time>
      </trkpt>
      <trkpt lat="46.72963" lon="-1.97238">
        <ele>14</ele>
        <time>2025-01-22T10:20:09.780Z</time>
      </trkpt>
      <trkpt lat="46.72961" lon="-1.97236">
        <ele>14.5</ele>
        <time>2025-01-22T10:20:10.780Z</time>
      </trkpt>
      <trkpt lat="46.72959" lon="-1.97233">
        <ele>15</ele>
        <time>2025-01-22T10:20:11.780Z</time>
      </trkpt>
      <trkpt lat="46.72957" lon="-1.97231">
        <ele>15.5</ele>
        <time>2025-01-22T10:20:12.780Z</time>
      </trkpt>
      <trkpt lat="46.72954" lon="-1.97228">
        <ele>16.3</ele>
        <time>2025-01-22T10:20:13.780Z</time>
      </trkpt>
      <trkpt lat="46.72953" lon="-1.97225">
        <ele>16.8</ele>
        <time>2025-01-22T10:20:14.780Z</time>
      </trkpt>
      <trkpt lat="46.72951" lon="-1.97224">
        <ele>17.2</ele>
        <time>2025-01-22T10:20:15.780Z</time>
      </trkpt>
      <trkpt lat="46.7295" lon="-1.97223">
        <ele>17.5</ele>
        <time>2025-01-22T10:20:16.780Z</time>
      </trkpt>
      <trkpt lat="46.7295" lon="-1.97222">
        <ele>17.7</ele>
        <time>2025-01-22T10:20:17.780Z</time>
      </trkpt>
      <trkpt lat="46.72949" lon="-1.97221">
        <ele>17.8</ele>
        <time>2025-01-22T10:20:18.780Z</time>
      </trkpt>
      <trkpt lat="46.72948" lon="-1.9722">
        <ele>18.1</ele>
        <time>2025-01-22T10:20:19.780Z</time>
      </trkpt>
      <trkpt lat="46.72948" lon="-1.97219">
        <ele>18.3</ele>
        <time>2025-01-22T10:20:20.780Z</time>
      </trkpt>
      <trkpt lat="46.72947" lon="-1.97217">
        <ele>18.6</ele>
        <time>2025-01-22T10:20:21.780Z</time>
      </trkpt>
      <trkpt lat="46.72945" lon="-1.97216">
        <ele>18.9</ele>
        <time>2025-01-22T10:20:22.780Z</time>
      </trkpt>
      <trkpt lat="46.72944" lon="-1.97214">
        <ele>19.2</ele>
        <time>2025-01-22T10:20:23.780Z</time>
      </trkpt>
      <trkpt lat="46.72944" lon="-1.97213">
        <ele>19.3</ele>
        <time>2025-01-22T10:20:24.780Z</time>
      </trkpt>
      <trkpt lat="46.72943" lon="-1.97213">
        <ele>19.3</ele>
        <time>2025-01-22T10:20:25.780Z</time>
      </trkpt>
      <trkpt lat="46.72943" lon="-1.97213">
        <ele>19.3</ele>
        <time>2025-01-22T10:20:26.780Z</time>
      </trkpt>
      <trkpt lat="46.72944" lon="-1.97213">
        <ele>19.3</ele>
        <time>2025-01-22T10:20:27.780Z</time>
      </trkpt>
      <trkpt lat="46.72944" lon="-1.97214">
        <ele>19.3</ele>
        <time>2025-01-22T10:20:28.780Z</time>
      </trkpt>
      <trkpt lat="46.72945" lon="-1.97213">
        <ele>19.4</ele>
        <time>2025-01-22T10:20:29.780Z</time>
      </trkpt>
      <trkpt lat="46.72945" lon="-1.97211">
        <ele>19.5</ele>
        <time>2025-01-22T10:20:30.780Z</time>
      </trkpt>
      <trkpt lat="46.72946" lon="-1.9721">
        <ele>19.6</ele>
        <time>2025-01-22T10:20:31.780Z</time>
      </trkpt>
      <trkpt lat="46.72946" lon="-1.97209">
        <ele>19.8</ele>
        <time>2025-01-22T10:20:32.780Z</time>
      </trkpt>
      <trkpt lat="46.72947" lon="-1.97208">
        <ele>19.9</ele>
        <time>2025-01-22T10:20:33.780Z</time>
      </trkpt>
      <trkpt lat="46.72948" lon="-1.97207">
        <ele>19.9</ele>
        <time>2025-01-22T10:20:34.780Z</time>
      </trkpt>
      <trkpt lat="46.72948" lon="-1.97206">
        <ele>20.1</ele>
        <time>2025-01-22T10:20:35.780Z</time>
      </trkpt>
      <trkpt lat="46.72949" lon="-1.97204">
        <ele>20.3</ele>
        <time>2025-01-22T10:20:36.780Z</time>
      </trkpt>
      <trkpt lat="46.7295" lon="-1.97203">
        <ele>20.4</ele>
        <time>2025-01-22T10:20:37.780Z</time>
      </trkpt>
      <trkpt lat="46.7295" lon="-1.97201">
        <ele>20.6</ele>
        <time>2025-01-22T10:20:38.780Z</time>
      </trkpt>
      <trkpt lat="46.72951" lon="-1.972">
        <ele>20.8</ele>
        <time>2025-01-22T10:20:39.780Z</time>
      </trkpt>
      <trkpt lat="46.72952" lon="-1.97198">
        <ele>21</ele>
        <time>2025-01-22T10:20:40.780Z</time>
      </trkpt>
      <trkpt lat="46.72952" lon="-1.97197">
        <ele>21.1</ele>
        <time>2025-01-22T10:20:41.780Z</time>
      </trkpt>
      <trkpt lat="46.72952" lon="-1.97197">
        <ele>21.2</ele>
        <time>2025-01-22T10:20:42.780Z</time>
      </trkpt>
      <trkpt lat="46.72951" lon="-1.97196">
        <ele>21.4</ele>
        <time>2025-01-22T10:20:43.780Z</time>
      </trkpt>
      <trkpt lat="46.72951" lon="-1.97194">
        <ele>21.6</ele>
        <time>2025-01-22T10:20:44.780Z</time>
      </trkpt>
      <trkpt lat="46.72951" lon="-1.97193">
        <ele>21.8</ele>
        <time>2025-01-22T10:20:45.780Z</time>
      </trkpt>
      <trkpt lat="46.72951" lon="-1.97192">
        <ele>22</ele>
        <time>2025-01-22T10:20:46.780Z</time>
      </trkpt>
      <trkpt lat="46.72951" lon="-1.97191">
        <ele>22.2</ele>
        <time>2025-01-22T10:20:47.780Z</time>
      </trkpt>
      <trkpt lat="46.72952" lon="-1.9719">
        <ele>22.5</ele>
        <time>2025-01-22T10:20:48.780Z</time>
      </trkpt>
      <trkpt lat="46.72952" lon="-1.97188">
        <ele>22.9</ele>
        <time>2025-01-22T10:20:49.780Z</time>
      </trkpt>
      <trkpt lat="46.72953" lon="-1.97187">
        <ele>23.1</ele>
        <time>2025-01-22T10:20:50.780Z</time>
      </trkpt>
      <trkpt lat="46.72953" lon="-1.97186">
        <ele>23.2</ele>
        <time>2025-01-22T10:20:51.780Z</time>
      </trkpt>
      <trkpt lat="46.72952" lon="-1.97185">
        <ele>23.4</ele>
        <time>2025-01-22T10:20:52.780Z</time>
      </trkpt>
      <trkpt lat="46.72952" lon="-1.97184">
        <ele>23.8</ele>
        <time>2025-01-22T10:20:53.780Z</time>
      </trkpt>
      <trkpt lat="46.72952" lon="-1.97181">
        <ele>24.4</ele>
        <time>2025-01-22T10:20:54.780Z</time>
      </trkpt>
      <trkpt lat="46.72951" lon="-1.9718">
        <ele>24.7</ele>
        <time>2025-01-22T10:20:55.780Z</time>
      </trkpt>
      <trkpt lat="46.72951" lon="-1.97178">
        <ele>25</ele>
        <time>2025-01-22T10:20:56.780Z</time>
      </trkpt>
      <trkpt lat="46.7295" lon="-1.97178">
        <ele>25.3</ele>
        <time>2025-01-22T10:20:57.780Z</time>
      </trkpt>
      <trkpt lat="46.72949" lon="-1.97177">
        <ele>25.4</ele>
        <time>2025-01-22T10:20:58.780Z</time>
      </trkpt>
      <trkpt lat="46.72949" lon="-1.97177">
        <ele>25.5</ele>
        <time>2025-01-22T10:20:59.780Z</time>
      </trkpt>
      <trkpt lat="46.72948" lon="-1.97177">
        <ele>25.5</ele>
        <time>2025-01-22T10:21:00.780Z</time>
      </trkpt>
      <trkpt lat="46.72948" lon="-1.97177">
        <ele>25.5</ele>
        <time>2025-01-22T10:21:01.780Z</time>
      </trkpt>
      <trkpt lat="46.72947" lon="-1.97177">
        <ele>25.7</ele>
        <time>2025-01-22T10:21:02.780Z</time>
      </trkpt>
      <trkpt lat="46.72947" lon="-1.97176">
        <ele>25.9</ele>
        <time>2025-01-22T10:21:03.780Z</time>
      </trkpt>
      <trkpt lat="46.72947" lon="-1.97175">
        <ele>26</ele>
        <time>2025-01-22T10:21:04.780Z</time>
      </trkpt>
      <trkpt lat="46.72947" lon="-1.97174">
        <ele>26.2</ele>
        <time>2025-01-22T10:21:05.780Z</time>
      </trkpt>
      <trkpt lat="46.72948" lon="-1.97173">
        <ele>26.4</ele>
        <time>2025-01-22T10:21:06.780Z</time>
      </trkpt>
      <trkpt lat="46.72948" lon="-1.97172">
        <ele>26.6</ele>
        <time>2025-01-22T10:21:07.780Z</time>
      </trkpt>
      <trkpt lat="46.72948" lon="-1.97172">
        <ele>26.7</ele>
        <time>2025-01-22T10:21:08.780Z</time>
      </trkpt>
      <trkpt lat="46.72948" lon="-1.97171">
        <ele>26.9</ele>
        <time>2025-01-22T10:21:09.780Z</time>
      </trkpt>
      <trkpt lat="46.72948" lon="-1.9717">
        <ele>27.1</ele>
        <time>2025-01-22T10:21:10.780Z</time>
      </trkpt>
      <trkpt lat="46.72948" lon="-1.97169">
        <ele>27.2</ele>
        <time>2025-01-22T10:21:11.780Z</time>
      </trkpt>
      <trkpt lat="46.72947" lon="-1.97169">
        <ele>27.4</ele>
        <time>2025-01-22T10:21:12.780Z</time>
      </trkpt>
      <trkpt lat="46.72947" lon="-1.97168">
        <ele>27.7</ele>
        <time>2025-01-22T10:21:13.780Z</time>
      </trkpt>
      <trkpt lat="46.72946" lon="-1.97167">
        <ele>27.9</ele>
        <time>2025-01-22T10:21:14.780Z</time>
      </trkpt>
      <trkpt lat="46.72946" lon="-1.97166">
        <ele>28</ele>
        <time>2025-01-22T10:21:15.780Z</time>
      </trkpt>
      <trkpt lat="46.72946" lon="-1.97166">
        <ele>28</ele>
        <time>2025-01-22T10:21:16.780Z</time>
      </trkpt>
      <trkpt lat="46.72945" lon="-1.97165">
        <ele>28.1</ele>
        <time>2025-01-22T10:21:17.780Z</time>
      </trkpt>
      <trkpt lat="46.72944" lon="-1.97165">
        <ele>28.2</ele>
        <time>2025-01-22T10:21:18.780Z</time>
      </trkpt>
      <trkpt lat="46.72956" lon="-1.97167">
        <ele>27.1</ele>
        <time>2025-01-22T10:24:39.771Z</time>
      </trkpt>
      <trkpt lat="46.72955" lon="-1.97167">
        <ele>27.3</ele>
        <time>2025-01-22T10:24:40.772Z</time>
      </trkpt>
      <trkpt lat="46.72954" lon="-1.97165">
        <ele>27.6</ele>
        <time>2025-01-22T10:24:41.772Z</time>
      </trkpt>
      <trkpt lat="46.72953" lon="-1.97163">
        <ele>28</ele>
        <time>2025-01-22T10:24:42.771Z</time>
      </trkpt>
      <trkpt lat="46.72953" lon="-1.97161">
        <ele>28.2</ele>
        <time>2025-01-22T10:24:43.771Z</time>
      </trkpt>
      <trkpt lat="46.72953" lon="-1.9716">
        <ele>28.5</ele>
        <time>2025-01-22T10:24:44.772Z</time>
      </trkpt>
      <trkpt lat="46.72951" lon="-1.97157">
        <ele>28.9</ele>
        <time>2025-01-22T10:24:45.772Z</time>
      </trkpt>
      <trkpt lat="46.72949" lon="-1.97155">
        <ele>29.3</ele>
        <time>2025-01-22T10:24:46.771Z</time>
      </trkpt>
      <trkpt lat="46.72947" lon="-1.97154">
        <ele>29.4</ele>
        <time>2025-01-22T10:24:47.771Z</time>
      </trkpt>
      <trkpt lat="46.72945" lon="-1.97154">
        <ele>29.4</ele>
        <time>2025-01-22T10:24:48.771Z</time>
      </trkpt>
      <trkpt lat="46.72942" lon="-1.97153">
        <ele>29.3</ele>
        <time>2025-01-22T10:24:49.771Z</time>
      </trkpt>
      <trkpt lat="46.72942" lon="-1.97153">
        <ele>29.3</ele>
        <time>2025-01-22T10:24:50.772Z</time>
      </trkpt>
      <trkpt lat="46.72937" lon="-1.97151">
        <ele>28.9</ele>
        <time>2025-01-22T10:24:51.771Z</time>
      </trkpt>
      <trkpt lat="46.72935" lon="-1.97149">
        <ele>28.8</ele>
        <time>2025-01-22T10:24:52.771Z</time>
      </trkpt>
      <trkpt lat="46.72934" lon="-1.97148">
        <ele>28.8</ele>
        <time>2025-01-22T10:24:53.771Z</time>
      </trkpt>
      <trkpt lat="46.72933" lon="-1.97145">
        <ele>28.7</ele>
        <time>2025-01-22T10:24:54.771Z</time>
      </trkpt>
      <trkpt lat="46.72932" lon="-1.97142">
        <ele>28.7</ele>
        <time>2025-01-22T10:24:55.772Z</time>
      </trkpt>
      <trkpt lat="46.72932" lon="-1.97139">
        <ele>28.7</ele>
        <time>2025-01-22T10:24:56.771Z</time>
      </trkpt>
      <trkpt lat="46.72932" lon="-1.97134">
        <ele>28.1</ele>
        <time>2025-01-22T10:24:57.771Z</time>
      </trkpt>
      <trkpt lat="46.72931" lon="-1.97131">
        <ele>27.6</ele>
        <time>2025-01-22T10:24:58.771Z</time>
      </trkpt>
      <trkpt lat="46.72931" lon="-1.97127">
        <ele>27</ele>
        <time>2025-01-22T10:24:59.772Z</time>
      </trkpt>
      <trkpt lat="46.7293" lon="-1.97123">
        <ele>26.5</ele>
        <time>2025-01-22T10:25:00.771Z</time>
      </trkpt>
      <trkpt lat="46.7293" lon="-1.97117">
        <ele>25.7</ele>
        <time>2025-01-22T10:25:01.772Z</time>
      </trkpt>
      <trkpt lat="46.7293" lon="-1.97117">
        <ele>25.7</ele>
        <time>2025-01-22T10:25:02.772Z</time>
      </trkpt>
      <trkpt lat="46.7293" lon="-1.97109">
        <ele>24.8</ele>
        <time>2025-01-22T10:25:03.771Z</time>
      </trkpt>
      <trkpt lat="46.7293" lon="-1.97105">
        <ele>24.7</ele>
        <time>2025-01-22T10:25:04.772Z</time>
      </trkpt>
      <trkpt lat="46.72931" lon="-1.97102">
        <ele>24.5</ele>
        <time>2025-01-22T10:25:05.771Z</time>
      </trkpt>
      <trkpt lat="46.72931" lon="-1.97099">
        <ele>24.3</ele>
        <time>2025-01-22T10:25:06.771Z</time>
      </trkpt>
      <trkpt lat="46.72932" lon="-1.97097">
        <ele>24.2</ele>
        <time>2025-01-22T10:25:07.771Z</time>
      </trkpt>
      <trkpt lat="46.72932" lon="-1.97094">
        <ele>24.1</ele>
        <time>2025-01-22T10:25:08.771Z</time>
      </trkpt>
      <trkpt lat="46.72931" lon="-1.97091">
        <ele>23.9</ele>
        <time>2025-01-22T10:25:09.772Z</time>
      </trkpt>
      <trkpt lat="46.72931" lon="-1.97088">
        <ele>23.7</ele>
        <time>2025-01-22T10:25:10.771Z</time>
      </trkpt>
      <trkpt lat="46.72931" lon="-1.97085">
        <ele>23.6</ele>
        <time>2025-01-22T10:25:11.771Z</time>
      </trkpt>
      <trkpt lat="46.72931" lon="-1.97082">
        <ele>23.5</ele>
        <time>2025-01-22T10:25:12.771Z</time>
      </trkpt>
      <trkpt lat="46.72931" lon="-1.97079">
        <ele>23.4</ele>
        <time>2025-01-22T10:25:13.772Z</time>
      </trkpt>
      <trkpt lat="46.72932" lon="-1.97077">
        <ele>23.4</ele>
        <time>2025-01-22T10:25:14.772Z</time>
      </trkpt>
      <trkpt lat="46.72932" lon="-1.97075">
        <ele>23.3</ele>
        <time>2025-01-22T10:25:15.771Z</time>
      </trkpt>
      <trkpt lat="46.72932" lon="-1.9707">
        <ele>23.2</ele>
        <time>2025-01-22T10:25:16.771Z</time>
      </trkpt>
      <trkpt lat="46.72932" lon="-1.97066">
        <ele>23.2</ele>
        <time>2025-01-22T10:25:17.771Z</time>
      </trkpt>
      <trkpt lat="46.72932" lon="-1.97062">
        <ele>23.1</ele>
        <time>2025-01-22T10:25:18.772Z</time>
      </trkpt>
      <trkpt lat="46.72932" lon="-1.97059">
        <ele>23.1</ele>
        <time>2025-01-22T10:25:19.771Z</time>
      </trkpt>
      <trkpt lat="46.72932" lon="-1.97054">
        <ele>23</ele>
        <time>2025-01-22T10:25:20.772Z</time>
      </trkpt>
      <trkpt lat="46.72932" lon="-1.97051">
        <ele>23</ele>
        <time>2025-01-22T10:25:21.772Z</time>
      </trkpt>
      <trkpt lat="46.72933" lon="-1.97047">
        <ele>23</ele>
        <time>2025-01-22T10:25:22.771Z</time>
      </trkpt>
      <trkpt lat="46.72933" lon="-1.97044">
        <ele>23</ele>
        <time>2025-01-22T10:25:23.771Z</time>
      </trkpt>
      <trkpt lat="46.72934" lon="-1.97041">
        <ele>23.1</ele>
        <time>2025-01-22T10:25:24.772Z</time>
      </trkpt>
      <trkpt lat="46.72936" lon="-1.97037">
        <ele>23.4</ele>
        <time>2025-01-22T10:25:25.772Z</time>
      </trkpt>
      <trkpt lat="46.72938" lon="-1.97034">
        <ele>23.6</ele>
        <time>2025-01-22T10:25:26.772Z</time>
      </trkpt>
      <trkpt lat="46.72939" lon="-1.97032">
        <ele>23.9</ele>
        <time>2025-01-22T10:25:27.771Z</time>
      </trkpt>
      <trkpt lat="46.72941" lon="-1.97029">
        <ele>24.2</ele>
        <time>2025-01-22T10:25:28.771Z</time>
      </trkpt>
      <trkpt lat="46.72942" lon="-1.97027">
        <ele>24.4</ele>
        <time>2025-01-22T10:25:29.771Z</time>
      </trkpt>
      <trkpt lat="46.72943" lon="-1.97023">
        <ele>24.5</ele>
        <time>2025-01-22T10:25:30.771Z</time>
      </trkpt>
      <trkpt lat="46.72944" lon="-1.9702">
        <ele>24.6</ele>
        <time>2025-01-22T10:25:31.771Z</time>
      </trkpt>
      <trkpt lat="46.72945" lon="-1.97016">
        <ele>24.4</ele>
        <time>2025-01-22T10:25:32.771Z</time>
      </trkpt>
      <trkpt lat="46.72946" lon="-1.97012">
        <ele>23.9</ele>
        <time>2025-01-22T10:25:33.772Z</time>
      </trkpt>
      <trkpt lat="46.72947" lon="-1.97009">
        <ele>23.6</ele>
        <time>2025-01-22T10:25:34.771Z</time>
      </trkpt>
      <trkpt lat="46.72947" lon="-1.97006">
        <ele>23.3</ele>
        <time>2025-01-22T10:25:35.771Z</time>
      </trkpt>
      <trkpt lat="46.72947" lon="-1.97002">
        <ele>23.1</ele>
        <time>2025-01-22T10:25:36.771Z</time>
      </trkpt>
      <trkpt lat="46.72947" lon="-1.96999">
        <ele>23.1</ele>
        <time>2025-01-22T10:25:37.771Z</time>
      </trkpt>
      <trkpt lat="46.72946" lon="-1.96995">
        <ele>23.2</ele>
        <time>2025-01-22T10:25:38.772Z</time>
      </trkpt>
      <trkpt lat="46.72944" lon="-1.96992">
        <ele>23.4</ele>
        <time>2025-01-22T10:25:39.771Z</time>
      </trkpt>
      <trkpt lat="46.72943" lon="-1.96988">
        <ele>22.9</ele>
        <time>2025-01-22T10:25:40.771Z</time>
      </trkpt>
      <trkpt lat="46.72943" lon="-1.96987">
        <ele>22.8</ele>
        <time>2025-01-22T10:25:41.771Z</time>
      </trkpt>
      <trkpt lat="46.72942" lon="-1.96985">
        <ele>22.5</ele>
        <time>2025-01-22T10:25:42.771Z</time>
      </trkpt>
      <trkpt lat="46.7294" lon="-1.96982">
        <ele>22.1</ele>
        <time>2025-01-22T10:25:43.771Z</time>
      </trkpt>
      <trkpt lat="46.7294" lon="-1.96979">
        <ele>22</ele>
        <time>2025-01-22T10:25:44.771Z</time>
      </trkpt>
      <trkpt lat="46.7294" lon="-1.96976">
        <ele>21.7</ele>
        <time>2025-01-22T10:25:45.771Z</time>
      </trkpt>
      <trkpt lat="46.72939" lon="-1.96973">
        <ele>21.5</ele>
        <time>2025-01-22T10:25:46.771Z</time>
      </trkpt>
      <trkpt lat="46.72939" lon="-1.9697">
        <ele>21.4</ele>
        <time>2025-01-22T10:25:47.771Z</time>
      </trkpt>
      <trkpt lat="46.72939" lon="-1.96967">
        <ele>21.3</ele>
        <time>2025-01-22T10:25:48.772Z</time>
      </trkpt>
      <trkpt lat="46.72939" lon="-1.96964">
        <ele>21.2</ele>
        <time>2025-01-22T10:25:49.771Z</time>
      </trkpt>
      <trkpt lat="46.72938" lon="-1.96962">
        <ele>21.1</ele>
        <time>2025-01-22T10:25:50.771Z</time>
      </trkpt>
      <trkpt lat="46.72938" lon="-1.96959">
        <ele>21</ele>
        <time>2025-01-22T10:25:51.771Z</time>
      </trkpt>
      <trkpt lat="46.72937" lon="-1.96955">
        <ele>20.9</ele>
        <time>2025-01-22T10:25:52.771Z</time>
      </trkpt>
      <trkpt lat="46.72935" lon="-1.96951">
        <ele>20.7</ele>
        <time>2025-01-22T10:25:53.772Z</time>
      </trkpt>
      <trkpt lat="46.72934" lon="-1.96946">
        <ele>20.6</ele>
        <time>2025-01-22T10:25:54.771Z</time>
      </trkpt>
      <trkpt lat="46.72932" lon="-1.96941">
        <ele>20.6</ele>
        <time>2025-01-22T10:25:55.771Z</time>
      </trkpt>
      <trkpt lat="46.72931" lon="-1.96937">
        <ele>20.7</ele>
        <time>2025-01-22T10:25:56.771Z</time>
      </trkpt>
      <trkpt lat="46.7293" lon="-1.96933">
        <ele>20.7</ele>
        <time>2025-01-22T10:25:57.771Z</time>
      </trkpt>
      <trkpt lat="46.72928" lon="-1.9693">
        <ele>20.7</ele>
        <time>2025-01-22T10:25:58.771Z</time>
      </trkpt>
      <trkpt lat="46.72926" lon="-1.96926">
        <ele>20.8</ele>
        <time>2025-01-22T10:25:59.771Z</time>
      </trkpt>
      <trkpt lat="46.72925" lon="-1.96922">
        <ele>20.9</ele>
        <time>2025-01-22T10:26:00.771Z</time>
      </trkpt>
      <trkpt lat="46.72924" lon="-1.96918">
        <ele>21</ele>
        <time>2025-01-22T10:26:01.771Z</time>
      </trkpt>
      <trkpt lat="46.72923" lon="-1.96914">
        <ele>21.1</ele>
        <time>2025-01-22T10:26:02.772Z</time>
      </trkpt>
      <trkpt lat="46.72921" lon="-1.9691">
        <ele>21.2</ele>
        <time>2025-01-22T10:26:03.771Z</time>
      </trkpt>
      <trkpt lat="46.7292" lon="-1.96908">
        <ele>21.2</ele>
        <time>2025-01-22T10:26:04.771Z</time>
      </trkpt>
      <trkpt lat="46.72919" lon="-1.96904">
        <ele>21.4</ele>
        <time>2025-01-22T10:26:05.772Z</time>
      </trkpt>
      <trkpt lat="46.72919" lon="-1.969">
        <ele>21.5</ele>
        <time>2025-01-22T10:26:06.771Z</time>
      </trkpt>
      <trkpt lat="46.72918" lon="-1.96897">
        <ele>21.6</ele>
        <time>2025-01-22T10:26:07.771Z</time>
      </trkpt>
      <trkpt lat="46.72917" lon="-1.96894">
        <ele>21.8</ele>
        <time>2025-01-22T10:26:08.772Z</time>
      </trkpt>
      <trkpt lat="46.72917" lon="-1.96891">
        <ele>21.9</ele>
        <time>2025-01-22T10:26:09.772Z</time>
      </trkpt>
      <trkpt lat="46.72916" lon="-1.96889">
        <ele>22</ele>
        <time>2025-01-22T10:26:10.771Z</time>
      </trkpt>
      <trkpt lat="46.72913" lon="-1.96887">
        <ele>21.9</ele>
        <time>2025-01-22T10:26:11.771Z</time>
      </trkpt>
      <trkpt lat="46.72911" lon="-1.96886">
        <ele>21.9</ele>
        <time>2025-01-22T10:26:12.771Z</time>
      </trkpt>
      <trkpt lat="46.72908" lon="-1.96885">
        <ele>21.9</ele>
        <time>2025-01-22T10:26:13.771Z</time>
      </trkpt>
      <trkpt lat="46.72906" lon="-1.96884">
        <ele>21.9</ele>
        <time>2025-01-22T10:26:14.771Z</time>
      </trkpt>
      <trkpt lat="46.72903" lon="-1.96884">
        <ele>21.9</ele>
        <time>2025-01-22T10:26:15.771Z</time>
      </trkpt>
      <trkpt lat="46.72901" lon="-1.96884">
        <ele>21.9</ele>
        <time>2025-01-22T10:26:16.771Z</time>
      </trkpt>
      <trkpt lat="46.72899" lon="-1.96884">
        <ele>21.9</ele>
        <time>2025-01-22T10:26:17.771Z</time>
      </trkpt>
      <trkpt lat="46.72897" lon="-1.96884">
        <ele>21.9</ele>
        <time>2025-01-22T10:26:18.772Z</time>
      </trkpt>
      <trkpt lat="46.72895" lon="-1.96884">
        <ele>22</ele>
        <time>2025-01-22T10:26:19.772Z</time>
      </trkpt>
      <trkpt lat="46.72894" lon="-1.96883">
        <ele>22</ele>
        <time>2025-01-22T10:26:20.772Z</time>
      </trkpt>
      <trkpt lat="46.72892" lon="-1.96883">
        <ele>22</ele>
        <time>2025-01-22T10:26:21.771Z</time>
      </trkpt>
      <trkpt lat="46.7289" lon="-1.96882">
        <ele>22</ele>
        <time>2025-01-22T10:26:22.771Z</time>
      </trkpt>
      <trkpt lat="46.72889" lon="-1.96882">
        <ele>22</ele>
        <time>2025-01-22T10:26:23.772Z</time>
      </trkpt>
      <trkpt lat="46.72887" lon="-1.96882">
        <ele>22</ele>
        <time>2025-01-22T10:26:24.772Z</time>
      </trkpt>
      <trkpt lat="46.72885" lon="-1.96882">
        <ele>22</ele>
        <time>2025-01-22T10:26:25.771Z</time>
      </trkpt>
      <trkpt lat="46.72884" lon="-1.96882">
        <ele>22</ele>
        <time>2025-01-22T10:26:26.771Z</time>
      </trkpt>
      <trkpt lat="46.72882" lon="-1.96883">
        <ele>22.1</ele>
        <time>2025-01-22T10:26:27.771Z</time>
      </trkpt>
      <trkpt lat="46.7288" lon="-1.96883">
        <ele>22.1</ele>
        <time>2025-01-22T10:26:28.771Z</time>
      </trkpt>
      <trkpt lat="46.72878" lon="-1.96883">
        <ele>22.1</ele>
        <time>2025-01-22T10:26:29.771Z</time>
      </trkpt>
      <trkpt lat="46.72876" lon="-1.96884">
        <ele>22.1</ele>
        <time>2025-01-22T10:26:30.772Z</time>
      </trkpt>
      <trkpt lat="46.72875" lon="-1.96883">
        <ele>22.1</ele>
        <time>2025-01-22T10:26:31.771Z</time>
      </trkpt>
      <trkpt lat="46.72873" lon="-1.96883">
        <ele>22.1</ele>
        <time>2025-01-22T10:26:32.771Z</time>
      </trkpt>
      <trkpt lat="46.72871" lon="-1.96882">
        <ele>22.2</ele>
        <time>2025-01-22T10:26:33.772Z</time>
      </trkpt>
      <trkpt lat="46.72868" lon="-1.96882">
        <ele>22.2</ele>
        <time>2025-01-22T10:26:34.771Z</time>
      </trkpt>
      <trkpt lat="46.72865" lon="-1.96881">
        <ele>22.3</ele>
        <time>2025-01-22T10:26:35.771Z</time>
      </trkpt>
      <trkpt lat="46.72862" lon="-1.96879">
        <ele>22.3</ele>
        <time>2025-01-22T10:26:36.771Z</time>
      </trkpt>
      <trkpt lat="46.72859" lon="-1.96877">
        <ele>22.4</ele>
        <time>2025-01-22T10:26:37.771Z</time>
      </trkpt>
      <trkpt lat="46.72855" lon="-1.96876">
        <ele>22.4</ele>
        <time>2025-01-22T10:26:38.772Z</time>
      </trkpt>
      <trkpt lat="46.72852" lon="-1.96875">
        <ele>22.3</ele>
        <time>2025-01-22T10:26:39.771Z</time>
      </trkpt>
      <trkpt lat="46.72848" lon="-1.96876">
        <ele>22.3</ele>
        <time>2025-01-22T10:26:40.771Z</time>
      </trkpt>
      <trkpt lat="46.72845" lon="-1.96877">
        <ele>22.2</ele>
        <time>2025-01-22T10:26:41.771Z</time>
      </trkpt>
      <trkpt lat="46.72842" lon="-1.96877">
        <ele>22.1</ele>
        <time>2025-01-22T10:26:42.772Z</time>
      </trkpt>
      <trkpt lat="46.72838" lon="-1.96876">
        <ele>22.1</ele>
        <time>2025-01-22T10:26:43.772Z</time>
      </trkpt>
      <trkpt lat="46.72834" lon="-1.96876">
        <ele>22</ele>
        <time>2025-01-22T10:26:44.772Z</time>
      </trkpt>
      <trkpt lat="46.72829" lon="-1.96876">
        <ele>22.4</ele>
        <time>2025-01-22T10:26:45.771Z</time>
      </trkpt>
      <trkpt lat="46.72825" lon="-1.96877">
        <ele>22.9</ele>
        <time>2025-01-22T10:26:46.771Z</time>
      </trkpt>
      <trkpt lat="46.72821" lon="-1.9688">
        <ele>23.4</ele>
        <time>2025-01-22T10:26:47.771Z</time>
      </trkpt>
      <trkpt lat="46.72816" lon="-1.96879">
        <ele>23.9</ele>
        <time>2025-01-22T10:26:48.771Z</time>
      </trkpt>
      <trkpt lat="46.72811" lon="-1.96877">
        <ele>24.4</ele>
        <time>2025-01-22T10:26:49.772Z</time>
      </trkpt>
      <trkpt lat="46.72808" lon="-1.96878">
        <ele>24.8</ele>
        <time>2025-01-22T10:26:50.771Z</time>
      </trkpt>
      <trkpt lat="46.72805" lon="-1.9688">
        <ele>25</ele>
        <time>2025-01-22T10:26:51.771Z</time>
      </trkpt>
      <trkpt lat="46.72804" lon="-1.96883">
        <ele>25.2</ele>
        <time>2025-01-22T10:26:52.771Z</time>
      </trkpt>
      <trkpt lat="46.72803" lon="-1.96886">
        <ele>25.3</ele>
        <time>2025-01-22T10:26:53.771Z</time>
      </trkpt>
      <trkpt lat="46.72803" lon="-1.96891">
        <ele>25.2</ele>
        <time>2025-01-22T10:26:54.771Z</time>
      </trkpt>
      <trkpt lat="46.72804" lon="-1.96895">
        <ele>25</ele>
        <time>2025-01-22T10:26:55.771Z</time>
      </trkpt>
      <trkpt lat="46.72805" lon="-1.96899">
        <ele>24.7</ele>
        <time>2025-01-22T10:26:56.772Z</time>
      </trkpt>
      <trkpt lat="46.72808" lon="-1.96905">
        <ele>24.1</ele>
        <time>2025-01-22T10:26:57.772Z</time>
      </trkpt>
      <trkpt lat="46.72811" lon="-1.96908">
        <ele>23.6</ele>
        <time>2025-01-22T10:26:58.771Z</time>
      </trkpt>
      <trkpt lat="46.72813" lon="-1.96912">
        <ele>23.2</ele>
        <time>2025-01-22T10:26:59.771Z</time>
      </trkpt>
      <trkpt lat="46.72816" lon="-1.96915">
        <ele>22.6</ele>
        <time>2025-01-22T10:27:00.772Z</time>
      </trkpt>
      <trkpt lat="46.72818" lon="-1.96917">
        <ele>22.2</ele>
        <time>2025-01-22T10:27:01.771Z</time>
      </trkpt>
      <trkpt lat="46.7282" lon="-1.96919">
        <ele>21.7</ele>
        <time>2025-01-22T10:27:02.772Z</time>
      </trkpt>
      <trkpt lat="46.72823" lon="-1.96921">
        <ele>21.1</ele>
        <time>2025-01-22T10:27:03.771Z</time>
      </trkpt>
      <trkpt lat="46.72826" lon="-1.96922">
        <ele>20.5</ele>
        <time>2025-01-22T10:27:04.772Z</time>
      </trkpt>
      <trkpt lat="46.72829" lon="-1.96925">
        <ele>19.7</ele>
        <time>2025-01-22T10:27:05.771Z</time>
      </trkpt>
      <trkpt lat="46.72832" lon="-1.96928">
        <ele>19</ele>
        <time>2025-01-22T10:27:06.772Z</time>
      </trkpt>
      <trkpt lat="46.72834" lon="-1.96931">
        <ele>18.5</ele>
        <time>2025-01-22T10:27:07.772Z</time>
      </trkpt>
      <trkpt lat="46.72838" lon="-1.96934">
        <ele>18.2</ele>
        <time>2025-01-22T10:27:08.772Z</time>
      </trkpt>
      <trkpt lat="46.7284" lon="-1.96935">
        <ele>18</ele>
        <time>2025-01-22T10:27:09.772Z</time>
      </trkpt>
      <trkpt lat="46.72842" lon="-1.96938">
        <ele>17.7</ele>
        <time>2025-01-22T10:27:10.771Z</time>
      </trkpt>
      <trkpt lat="46.72845" lon="-1.9694">
        <ele>17.5</ele>
        <time>2025-01-22T10:27:11.772Z</time>
      </trkpt>
      <trkpt lat="46.72847" lon="-1.96944">
        <ele>17.1</ele>
        <time>2025-01-22T10:27:12.771Z</time>
      </trkpt>
      <trkpt lat="46.72848" lon="-1.96947">
        <ele>16.8</ele>
        <time>2025-01-22T10:27:13.772Z</time>
      </trkpt>
      <trkpt lat="46.7285" lon="-1.9695">
        <ele>16.5</ele>
        <time>2025-01-22T10:27:14.771Z</time>
      </trkpt>
      <trkpt lat="46.72852" lon="-1.96954">
        <ele>16.1</ele>
        <time>2025-01-22T10:27:15.772Z</time>
      </trkpt>
      <trkpt lat="46.72854" lon="-1.96958">
        <ele>15.7</ele>
        <time>2025-01-22T10:27:16.772Z</time>
      </trkpt>
      <trkpt lat="46.72855" lon="-1.96961">
        <ele>15.3</ele>
        <time>2025-01-22T10:27:17.772Z</time>
      </trkpt>
      <trkpt lat="46.72857" lon="-1.96965">
        <ele>14.9</ele>
        <time>2025-01-22T10:27:18.772Z</time>
      </trkpt>
      <trkpt lat="46.72859" lon="-1.96969">
        <ele>14.4</ele>
        <time>2025-01-22T10:27:19.772Z</time>
      </trkpt>
      <trkpt lat="46.72861" lon="-1.96972">
        <ele>14.1</ele>
        <time>2025-01-22T10:27:20.772Z</time>
      </trkpt>
      <trkpt lat="46.72863" lon="-1.96974">
        <ele>13.9</ele>
        <time>2025-01-22T10:27:21.771Z</time>
      </trkpt>
      <trkpt lat="46.72864" lon="-1.96977">
        <ele>13.7</ele>
        <time>2025-01-22T10:27:22.771Z</time>
      </trkpt>
      <trkpt lat="46.72865" lon="-1.96981">
        <ele>13.4</ele>
        <time>2025-01-22T10:27:23.771Z</time>
      </trkpt>
      <trkpt lat="46.72866" lon="-1.96984">
        <ele>13.1</ele>
        <time>2025-01-22T10:27:24.772Z</time>
      </trkpt>
      <trkpt lat="46.72868" lon="-1.96987">
        <ele>12.8</ele>
        <time>2025-01-22T10:27:25.771Z</time>
      </trkpt>
      <trkpt lat="46.72869" lon="-1.96991">
        <ele>12.5</ele>
        <time>2025-01-22T10:27:26.771Z</time>
      </trkpt>
      <trkpt lat="46.7287" lon="-1.96994">
        <ele>12.3</ele>
        <time>2025-01-22T10:27:27.772Z</time>
      </trkpt>
      <trkpt lat="46.7287" lon="-1.96996">
        <ele>12.1</ele>
        <time>2025-01-22T10:27:28.771Z</time>
      </trkpt>
      <trkpt lat="46.7287" lon="-1.96999">
        <ele>11.8</ele>
        <time>2025-01-22T10:27:29.771Z</time>
      </trkpt>
      <trkpt lat="46.7287" lon="-1.97001">
        <ele>11.6</ele>
        <time>2025-01-22T10:27:30.772Z</time>
      </trkpt>
      <trkpt lat="46.72869" lon="-1.97004">
        <ele>11.3</ele>
        <time>2025-01-22T10:27:31.771Z</time>
      </trkpt>
      <trkpt lat="46.72867" lon="-1.97007">
        <ele>11</ele>
        <time>2025-01-22T10:27:32.772Z</time>
      </trkpt>
      <trkpt lat="46.72865" lon="-1.9701">
        <ele>10.6</ele>
        <time>2025-01-22T10:27:33.771Z</time>
      </trkpt>
      <trkpt lat="46.72864" lon="-1.97013">
        <ele>10.3</ele>
        <time>2025-01-22T10:27:34.771Z</time>
      </trkpt>
      <trkpt lat="46.72863" lon="-1.97015">
        <ele>10</ele>
        <time>2025-01-22T10:27:35.771Z</time>
      </trkpt>
      <trkpt lat="46.72862" lon="-1.97018">
        <ele>9.8</ele>
        <time>2025-01-22T10:27:36.772Z</time>
      </trkpt>
      <trkpt lat="46.72861" lon="-1.9702">
        <ele>9.6</ele>
        <time>2025-01-22T10:27:37.772Z</time>
      </trkpt>
      <trkpt lat="46.72859" lon="-1.97024">
        <ele>9.3</ele>
        <time>2025-01-22T10:27:38.771Z</time>
      </trkpt>
      <trkpt lat="46.72858" lon="-1.97027">
        <ele>9.1</ele>
        <time>2025-01-22T10:27:39.771Z</time>
      </trkpt>
      <trkpt lat="46.72856" lon="-1.97031">
        <ele>8.8</ele>
        <time>2025-01-22T10:27:40.771Z</time>
      </trkpt>
      <trkpt lat="46.72854" lon="-1.97034">
        <ele>8.6</ele>
        <time>2025-01-22T10:27:41.771Z</time>
      </trkpt>
      <trkpt lat="46.72852" lon="-1.97038">
        <ele>8.3</ele>
        <time>2025-01-22T10:27:42.772Z</time>
      </trkpt>
      <trkpt lat="46.7285" lon="-1.97041">
        <ele>8.1</ele>
        <time>2025-01-22T10:27:43.772Z</time>
      </trkpt>
      <trkpt lat="46.72849" lon="-1.97044">
        <ele>7.8</ele>
        <time>2025-01-22T10:27:44.771Z</time>
      </trkpt>
      <trkpt lat="46.72848" lon="-1.97048">
        <ele>7.6</ele>
        <time>2025-01-22T10:27:45.772Z</time>
      </trkpt>
      <trkpt lat="46.72847" lon="-1.97051">
        <ele>7.3</ele>
        <time>2025-01-22T10:27:46.772Z</time>
      </trkpt>
      <trkpt lat="46.72848" lon="-1.97053">
        <ele>7.2</ele>
        <time>2025-01-22T10:27:47.771Z</time>
      </trkpt>
      <trkpt lat="46.72848" lon="-1.97056">
        <ele>6.9</ele>
        <time>2025-01-22T10:27:48.772Z</time>
      </trkpt>
      <trkpt lat="46.72847" lon="-1.97061">
        <ele>6.6</ele>
        <time>2025-01-22T10:27:49.771Z</time>
      </trkpt>
      <trkpt lat="46.72847" lon="-1.97066">
        <ele>6.3</ele>
        <time>2025-01-22T10:27:50.771Z</time>
      </trkpt>
      <trkpt lat="46.72846" lon="-1.97071">
        <ele>5.9</ele>
        <time>2025-01-22T10:27:51.771Z</time>
      </trkpt>
      <trkpt lat="46.72846" lon="-1.97076">
        <ele>5.5</ele>
        <time>2025-01-22T10:27:52.772Z</time>
      </trkpt>
      <trkpt lat="46.72846" lon="-1.97081">
        <ele>5.2</ele>
        <time>2025-01-22T10:27:53.771Z</time>
      </trkpt>
      <trkpt lat="46.72846" lon="-1.97085">
        <ele>5</ele>
        <time>2025-01-22T10:27:54.772Z</time>
      </trkpt>
      <trkpt lat="46.72847" lon="-1.97088">
        <ele>5</ele>
        <time>2025-01-22T10:27:55.772Z</time>
      </trkpt>
      <trkpt lat="46.72846" lon="-1.9709">
        <ele>5</ele>
        <time>2025-01-22T10:27:56.772Z</time>
      </trkpt>
      <trkpt lat="46.72845" lon="-1.97095">
        <ele>5</ele>
        <time>2025-01-22T10:27:57.772Z</time>
      </trkpt>
      <trkpt lat="46.72845" lon="-1.97098">
        <ele>5</ele>
        <time>2025-01-22T10:27:58.771Z</time>
      </trkpt>
      <trkpt lat="46.72844" lon="-1.97101">
        <ele>5</ele>
        <time>2025-01-22T10:27:59.771Z</time>
      </trkpt>
      <trkpt lat="46.72842" lon="-1.97105">
        <ele>5</ele>
        <time>2025-01-22T10:28:00.772Z</time>
      </trkpt>
      <trkpt lat="46.72841" lon="-1.97109">
        <ele>5</ele>
        <time>2025-01-22T10:28:01.772Z</time>
      </trkpt>
      <trkpt lat="46.7284" lon="-1.97111">
        <ele>5</ele>
        <time>2025-01-22T10:28:02.772Z</time>
      </trkpt>
      <trkpt lat="46.7284" lon="-1.97113">
        <ele>5</ele>
        <time>2025-01-22T10:28:03.772Z</time>
      </trkpt>
      <trkpt lat="46.72841" lon="-1.97115">
        <ele>5.1</ele>
        <time>2025-01-22T10:28:04.771Z</time>
      </trkpt>
      <trkpt lat="46.72842" lon="-1.97116">
        <ele>5.1</ele>
        <time>2025-01-22T10:28:05.772Z</time>
      </trkpt>
      <trkpt lat="46.72842" lon="-1.97117">
        <ele>5.1</ele>
        <time>2025-01-22T10:28:06.772Z</time>
      </trkpt>
      <trkpt lat="46.72843" lon="-1.97117">
        <ele>5.1</ele>
        <time>2025-01-22T10:28:07.772Z</time>
      </trkpt>
      <trkpt lat="46.72842" lon="-1.97118">
        <ele>5.1</ele>
        <time>2025-01-22T10:28:08.771Z</time>
      </trkpt>
      <trkpt lat="46.72841" lon="-1.97117">
        <ele>5.1</ele>
        <time>2025-01-22T10:28:09.772Z</time>
      </trkpt>
      <trkpt lat="46.7284" lon="-1.97117">
        <ele>5.1</ele>
        <time>2025-01-22T10:28:10.771Z</time>
      </trkpt>
      <trkpt lat="46.72839" lon="-1.97116">
        <ele>5.1</ele>
        <time>2025-01-22T10:28:11.771Z</time>
      </trkpt>
      <trkpt lat="46.72839" lon="-1.97114">
        <ele>5</ele>
        <time>2025-01-22T10:28:12.771Z</time>
      </trkpt>
      <trkpt lat="46.72839" lon="-1.97112">
        <ele>5</ele>
        <time>2025-01-22T10:28:13.772Z</time>
      </trkpt>
      <trkpt lat="46.72838" lon="-1.9711">
        <ele>5</ele>
        <time>2025-01-22T10:28:14.772Z</time>
      </trkpt>
      <trkpt lat="46.72838" lon="-1.97109">
        <ele>5</ele>
        <time>2025-01-22T10:28:15.772Z</time>
      </trkpt>
      <trkpt lat="46.72837" lon="-1.97109">
        <ele>5</ele>
        <time>2025-01-22T10:28:16.772Z</time>
      </trkpt>
      <trkpt lat="46.72835" lon="-1.97108">
        <ele>5</ele>
        <time>2025-01-22T10:28:17.772Z</time>
      </trkpt>
      <trkpt lat="46.72834" lon="-1.97106">
        <ele>5</ele>
        <time>2025-01-22T10:28:18.772Z</time>
      </trkpt>
      <trkpt lat="46.72833" lon="-1.97105">
        <ele>5</ele>
        <time>2025-01-22T10:28:19.772Z</time>
      </trkpt>
      <trkpt lat="46.72831" lon="-1.97105">
        <ele>5</ele>
        <time>2025-01-22T10:28:20.772Z</time>
      </trkpt>
      <trkpt lat="46.7283" lon="-1.97104">
        <ele>5</ele>
        <time>2025-01-22T10:28:21.772Z</time>
      </trkpt>
      <trkpt lat="46.72828" lon="-1.97104">
        <ele>5</ele>
        <time>2025-01-22T10:28:22.772Z</time>
      </trkpt>
      <trkpt lat="46.72827" lon="-1.97104">
        <ele>5</ele>
        <time>2025-01-22T10:28:23.772Z</time>
      </trkpt>
      <trkpt lat="46.72826" lon="-1.97103">
        <ele>5</ele>
        <time>2025-01-22T10:28:24.771Z</time>
      </trkpt>
      <trkpt lat="46.72824" lon="-1.97104">
        <ele>5</ele>
        <time>2025-01-22T10:28:25.772Z</time>
      </trkpt>
      <trkpt lat="46.72822" lon="-1.97105">
        <ele>5</ele>
        <time>2025-01-22T10:28:26.772Z</time>
      </trkpt>
      <trkpt lat="46.7282" lon="-1.97106">
        <ele>5</ele>
        <time>2025-01-22T10:28:27.772Z</time>
      </trkpt>
      <trkpt lat="46.72819" lon="-1.97106">
        <ele>5</ele>
        <time>2025-01-22T10:28:28.771Z</time>
      </trkpt>
      <trkpt lat="46.72817" lon="-1.97106">
        <ele>5</ele>
        <time>2025-01-22T10:28:29.772Z</time>
      </trkpt>
      <trkpt lat="46.72815" lon="-1.97105">
        <ele>5</ele>
        <time>2025-01-22T10:28:30.771Z</time>
      </trkpt>
      <trkpt lat="46.72811" lon="-1.97105">
        <ele>5</ele>
        <time>2025-01-22T10:28:31.771Z</time>
      </trkpt>
      <trkpt lat="46.72808" lon="-1.97104">
        <ele>5</ele>
        <time>2025-01-22T10:28:32.771Z</time>
      </trkpt>
      <trkpt lat="46.72805" lon="-1.97102">
        <ele>5</ele>
        <time>2025-01-22T10:28:33.771Z</time>
      </trkpt>
      <trkpt lat="46.72803" lon="-1.97099">
        <ele>5.1</ele>
        <time>2025-01-22T10:28:34.772Z</time>
      </trkpt>
      <trkpt lat="46.728" lon="-1.97097">
        <ele>5.1</ele>
        <time>2025-01-22T10:28:35.772Z</time>
      </trkpt>
      <trkpt lat="46.72798" lon="-1.97095">
        <ele>5.1</ele>
        <time>2025-01-22T10:28:36.772Z</time>
      </trkpt>
      <trkpt lat="46.72795" lon="-1.97094">
        <ele>5.1</ele>
        <time>2025-01-22T10:28:37.772Z</time>
      </trkpt>
      <trkpt lat="46.72793" lon="-1.97094">
        <ele>5.2</ele>
        <time>2025-01-22T10:28:38.772Z</time>
      </trkpt>
      <trkpt lat="46.7279" lon="-1.97096">
        <ele>5.2</ele>
        <time>2025-01-22T10:28:39.772Z</time>
      </trkpt>
      <trkpt lat="46.72787" lon="-1.97097">
        <ele>5.3</ele>
        <time>2025-01-22T10:28:40.771Z</time>
      </trkpt>
      <trkpt lat="46.72784" lon="-1.97095">
        <ele>5.3</ele>
        <time>2025-01-22T10:28:41.771Z</time>
      </trkpt>
      <trkpt lat="46.72782" lon="-1.97094">
        <ele>5.3</ele>
        <time>2025-01-22T10:28:42.771Z</time>
      </trkpt>
      <trkpt lat="46.72781" lon="-1.97093">
        <ele>5.3</ele>
        <time>2025-01-22T10:28:43.771Z</time>
      </trkpt>
      <trkpt lat="46.72779" lon="-1.97093">
        <ele>5.3</ele>
        <time>2025-01-22T10:28:44.772Z</time>
      </trkpt>
      <trkpt lat="46.72778" lon="-1.97092">
        <ele>5.3</ele>
        <time>2025-01-22T10:28:45.771Z</time>
      </trkpt>
      <trkpt lat="46.72776" lon="-1.97092">
        <ele>5.5</ele>
        <time>2025-01-22T10:28:46.771Z</time>
      </trkpt>
      <trkpt lat="46.72774" lon="-1.97091">
        <ele>5.7</ele>
        <time>2025-01-22T10:28:47.771Z</time>
      </trkpt>
      <trkpt lat="46.72772" lon="-1.97091">
        <ele>5.9</ele>
        <time>2025-01-22T10:28:48.771Z</time>
      </trkpt>
      <trkpt lat="46.7277" lon="-1.97091">
        <ele>6.1</ele>
        <time>2025-01-22T10:28:49.772Z</time>
      </trkpt>
      <trkpt lat="46.72768" lon="-1.97092">
        <ele>6.3</ele>
        <time>2025-01-22T10:28:50.771Z</time>
      </trkpt>
      <trkpt lat="46.72765" lon="-1.97093">
        <ele>6.6</ele>
        <time>2025-01-22T10:28:51.771Z</time>
      </trkpt>
      <trkpt lat="46.72762" lon="-1.97093">
        <ele>6.8</ele>
        <time>2025-01-22T10:28:52.771Z</time>
      </trkpt>
      <trkpt lat="46.72758" lon="-1.97091">
        <ele>7.3</ele>
        <time>2025-01-22T10:28:53.772Z</time>
      </trkpt>
      <trkpt lat="46.72755" lon="-1.97091">
        <ele>7.7</ele>
        <time>2025-01-22T10:28:54.771Z</time>
      </trkpt>
      <trkpt lat="46.72752" lon="-1.9709">
        <ele>8.1</ele>
        <time>2025-01-22T10:28:55.771Z</time>
      </trkpt>
      <trkpt lat="46.72748" lon="-1.97088">
        <ele>8.5</ele>
        <time>2025-01-22T10:28:56.772Z</time>
      </trkpt>
      <trkpt lat="46.72745" lon="-1.97087">
        <ele>8.6</ele>
        <time>2025-01-22T10:28:57.771Z</time>
      </trkpt>
      <trkpt lat="46.72742" lon="-1.97089">
        <ele>8.5</ele>
        <time>2025-01-22T10:28:58.771Z</time>
      </trkpt>
      <trkpt lat="46.7274" lon="-1.97092">
        <ele>8.4</ele>
        <time>2025-01-22T10:28:59.771Z</time>
      </trkpt>
      <trkpt lat="46.72737" lon="-1.97093">
        <ele>8.5</ele>
        <time>2025-01-22T10:29:00.772Z</time>
      </trkpt>
      <trkpt lat="46.72736" lon="-1.97091">
        <ele>8.5</ele>
        <time>2025-01-22T10:29:01.772Z</time>
      </trkpt>
      <trkpt lat="46.72733" lon="-1.97087">
        <ele>8.5</ele>
        <time>2025-01-22T10:29:02.772Z</time>
      </trkpt>
      <trkpt lat="46.72731" lon="-1.97084">
        <ele>8.3</ele>
        <time>2025-01-22T10:29:03.772Z</time>
      </trkpt>
      <trkpt lat="46.72729" lon="-1.97082">
        <ele>8.3</ele>
        <time>2025-01-22T10:29:04.771Z</time>
      </trkpt>
      <trkpt lat="46.72728" lon="-1.97079">
        <ele>8.4</ele>
        <time>2025-01-22T10:29:05.772Z</time>
      </trkpt>
      <trkpt lat="46.72727" lon="-1.97076">
        <ele>8.5</ele>
        <time>2025-01-22T10:29:06.771Z</time>
      </trkpt>
      <trkpt lat="46.72726" lon="-1.97074">
        <ele>8.5</ele>
        <time>2025-01-22T10:29:07.771Z</time>
      </trkpt>
      <trkpt lat="46.72724" lon="-1.97072">
        <ele>8.5</ele>
        <time>2025-01-22T10:29:08.771Z</time>
      </trkpt>
      <trkpt lat="46.72722" lon="-1.97071">
        <ele>8.4</ele>
        <time>2025-01-22T10:29:09.772Z</time>
      </trkpt>
      <trkpt lat="46.72722" lon="-1.97071">
        <ele>8.4</ele>
        <time>2025-01-22T10:29:10.771Z</time>
      </trkpt>
      <trkpt lat="46.72722" lon="-1.97071">
        <ele>8.4</ele>
        <time>2025-01-22T10:29:11.772Z</time>
      </trkpt>
      <trkpt lat="46.72721" lon="-1.97069">
        <ele>8.4</ele>
        <time>2025-01-22T10:29:12.772Z</time>
      </trkpt>
      <trkpt lat="46.72719" lon="-1.97069">
        <ele>8.4</ele>
        <time>2025-01-22T10:29:13.772Z</time>
      </trkpt>
      <trkpt lat="46.72718" lon="-1.97067">
        <ele>8.3</ele>
        <time>2025-01-22T10:29:14.771Z</time>
      </trkpt>
      <trkpt lat="46.72716" lon="-1.97065">
        <ele>8.3</ele>
        <time>2025-01-22T10:29:15.772Z</time>
      </trkpt>
      <trkpt lat="46.72714" lon="-1.97061">
        <ele>8.2</ele>
        <time>2025-01-22T10:29:16.771Z</time>
      </trkpt>
      <trkpt lat="46.72712" lon="-1.97059">
        <ele>8.2</ele>
        <time>2025-01-22T10:29:17.771Z</time>
      </trkpt>
      <trkpt lat="46.7271" lon="-1.97057">
        <ele>8.1</ele>
        <time>2025-01-22T10:29:18.771Z</time>
      </trkpt>
      <trkpt lat="46.72708" lon="-1.97056">
        <ele>8</ele>
        <time>2025-01-22T10:29:19.772Z</time>
      </trkpt>
      <trkpt lat="46.72706" lon="-1.97055">
        <ele>8</ele>
        <time>2025-01-22T10:29:20.771Z</time>
      </trkpt>
      <trkpt lat="46.72704" lon="-1.97053">
        <ele>8.1</ele>
        <time>2025-01-22T10:29:21.772Z</time>
      </trkpt>
      <trkpt lat="46.72701" lon="-1.97051">
        <ele>8.1</ele>
        <time>2025-01-22T10:29:22.772Z</time>
      </trkpt>
      <trkpt lat="46.72698" lon="-1.9705">
        <ele>8.2</ele>
        <time>2025-01-22T10:29:23.772Z</time>
      </trkpt>
      <trkpt lat="46.72695" lon="-1.97048">
        <ele>8.1</ele>
        <time>2025-01-22T10:29:24.771Z</time>
      </trkpt>
      <trkpt lat="46.72693" lon="-1.97047">
        <ele>8.2</ele>
        <time>2025-01-22T10:29:25.772Z</time>
      </trkpt>
      <trkpt lat="46.72691" lon="-1.97045">
        <ele>8.2</ele>
        <time>2025-01-22T10:29:26.771Z</time>
      </trkpt>
      <trkpt lat="46.72689" lon="-1.97044">
        <ele>8.3</ele>
        <time>2025-01-22T10:29:27.772Z</time>
      </trkpt>
      <trkpt lat="46.72688" lon="-1.97042">
        <ele>8.3</ele>
        <time>2025-01-22T10:29:28.772Z</time>
      </trkpt>
      <trkpt lat="46.72687" lon="-1.97041">
        <ele>8.4</ele>
        <time>2025-01-22T10:29:29.772Z</time>
      </trkpt>
      <trkpt lat="46.72684" lon="-1.97039">
        <ele>8.3</ele>
        <time>2025-01-22T10:29:30.771Z</time>
      </trkpt>
      <trkpt lat="46.72682" lon="-1.97038">
        <ele>8.3</ele>
        <time>2025-01-22T10:29:31.772Z</time>
      </trkpt>
      <trkpt lat="46.7268" lon="-1.97036">
        <ele>8.1</ele>
        <time>2025-01-22T10:29:32.771Z</time>
      </trkpt>
      <trkpt lat="46.72677" lon="-1.97034">
        <ele>8</ele>
        <time>2025-01-22T10:29:33.771Z</time>
      </trkpt>
      <trkpt lat="46.72674" lon="-1.97033">
        <ele>7.7</ele>
        <time>2025-01-22T10:29:34.772Z</time>
      </trkpt>
      <trkpt lat="46.7267" lon="-1.9703">
        <ele>7.3</ele>
        <time>2025-01-22T10:29:35.772Z</time>
      </trkpt>
      <trkpt lat="46.72665" lon="-1.97026">
        <ele>7.2</ele>
        <time>2025-01-22T10:29:36.771Z</time>
      </trkpt>
      <trkpt lat="46.72661" lon="-1.97022">
        <ele>7.7</ele>
        <time>2025-01-22T10:29:37.771Z</time>
      </trkpt>
      <trkpt lat="46.72657" lon="-1.97018">
        <ele>8</ele>
        <time>2025-01-22T10:29:38.771Z</time>
      </trkpt>
      <trkpt lat="46.72654" lon="-1.97019">
        <ele>7.7</ele>
        <time>2025-01-22T10:29:39.771Z</time>
      </trkpt>
      <trkpt lat="46.72651" lon="-1.97018">
        <ele>7.7</ele>
        <time>2025-01-22T10:29:40.771Z</time>
      </trkpt>
      <trkpt lat="46.72649" lon="-1.97016">
        <ele>7.7</ele>
        <time>2025-01-22T10:29:41.771Z</time>
      </trkpt>
      <trkpt lat="46.72645" lon="-1.97015">
        <ele>7.4</ele>
        <time>2025-01-22T10:29:42.772Z</time>
      </trkpt>
      <trkpt lat="46.72642" lon="-1.97016">
        <ele>7.1</ele>
        <time>2025-01-22T10:29:43.771Z</time>
      </trkpt>
      <trkpt lat="46.72641" lon="-1.97016">
        <ele>7</ele>
        <time>2025-01-22T10:29:44.771Z</time>
      </trkpt>
      <trkpt lat="46.72639" lon="-1.97014">
        <ele>7</ele>
        <time>2025-01-22T10:29:45.772Z</time>
      </trkpt>
      <trkpt lat="46.72636" lon="-1.97013">
        <ele>7.1</ele>
        <time>2025-01-22T10:29:46.772Z</time>
      </trkpt>
      <trkpt lat="46.72634" lon="-1.97007">
        <ele>7.4</ele>
        <time>2025-01-22T10:29:47.772Z</time>
      </trkpt>
      <trkpt lat="46.72632" lon="-1.97004">
        <ele>7.6</ele>
        <time>2025-01-22T10:29:48.772Z</time>
      </trkpt>
      <trkpt lat="46.72631" lon="-1.97002">
        <ele>7.6</ele>
        <time>2025-01-22T10:29:49.771Z</time>
      </trkpt>
      <trkpt lat="46.72629" lon="-1.97">
        <ele>7.6</ele>
        <time>2025-01-22T10:29:50.771Z</time>
      </trkpt>
      <trkpt lat="46.72627" lon="-1.96999">
        <ele>7.7</ele>
        <time>2025-01-22T10:29:51.772Z</time>
      </trkpt>
      <trkpt lat="46.72625" lon="-1.96998">
        <ele>7.7</ele>
        <time>2025-01-22T10:29:52.772Z</time>
      </trkpt>
      <trkpt lat="46.72622" lon="-1.96997">
        <ele>7.8</ele>
        <time>2025-01-22T10:29:53.772Z</time>
      </trkpt>
      <trkpt lat="46.72618" lon="-1.96998">
        <ele>7.4</ele>
        <time>2025-01-22T10:29:54.771Z</time>
      </trkpt>
      <trkpt lat="46.72616" lon="-1.96997">
        <ele>7.5</ele>
        <time>2025-01-22T10:29:55.772Z</time>
      </trkpt>
      <trkpt lat="46.72614" lon="-1.96995">
        <ele>7.6</ele>
        <time>2025-01-22T10:29:56.771Z</time>
      </trkpt>
      <trkpt lat="46.72612" lon="-1.96993">
        <ele>7.8</ele>
        <time>2025-01-22T10:29:57.771Z</time>
      </trkpt>
      <trkpt lat="46.72614" lon="-1.96991">
        <ele>8.1</ele>
        <time>2025-01-22T10:29:58.771Z</time>
      </trkpt>
      <trkpt lat="46.72616" lon="-1.96991">
        <ele>8.2</ele>
        <time>2025-01-22T10:29:59.772Z</time>
      </trkpt>
      <trkpt lat="46.72618" lon="-1.96991">
        <ele>8.3</ele>
        <time>2025-01-22T10:30:00.771Z</time>
      </trkpt>
      <trkpt lat="46.72619" lon="-1.9699">
        <ele>8.3</ele>
        <time>2025-01-22T10:30:01.772Z</time>
      </trkpt>
      <trkpt lat="46.7262" lon="-1.9699">
        <ele>8.4</ele>
        <time>2025-01-22T10:30:02.771Z</time>
      </trkpt>
      <trkpt lat="46.72621" lon="-1.96989">
        <ele>8.6</ele>
        <time>2025-01-22T10:30:03.771Z</time>
      </trkpt>
      <trkpt lat="46.72622" lon="-1.96987">
        <ele>8.8</ele>
        <time>2025-01-22T10:30:04.771Z</time>
      </trkpt>
      <trkpt lat="46.72623" lon="-1.96985">
        <ele>9</ele>
        <time>2025-01-22T10:30:05.771Z</time>
      </trkpt>
      <trkpt lat="46.72624" lon="-1.96985">
        <ele>9.1</ele>
        <time>2025-01-22T10:30:06.771Z</time>
      </trkpt>
      <trkpt lat="46.72625" lon="-1.96983">
        <ele>9.3</ele>
        <time>2025-01-22T10:30:07.771Z</time>
      </trkpt>
      <trkpt lat="46.72626" lon="-1.96981">
        <ele>9.6</ele>
        <time>2025-01-22T10:30:08.772Z</time>
      </trkpt>
      <trkpt lat="46.72628" lon="-1.96979">
        <ele>9.9</ele>
        <time>2025-01-22T10:30:09.771Z</time>
      </trkpt>
      <trkpt lat="46.7263" lon="-1.96978">
        <ele>10.1</ele>
        <time>2025-01-22T10:30:10.771Z</time>
      </trkpt>
      <trkpt lat="46.72632" lon="-1.96977">
        <ele>10.3</ele>
        <time>2025-01-22T10:30:11.771Z</time>
      </trkpt>
      <trkpt lat="46.72633" lon="-1.96975">
        <ele>10.5</ele>
        <time>2025-01-22T10:30:12.772Z</time>
      </trkpt>
      <trkpt lat="46.72635" lon="-1.96974">
        <ele>10.7</ele>
        <time>2025-01-22T10:30:13.771Z</time>
      </trkpt>
      <trkpt lat="46.72637" lon="-1.96972">
        <ele>10.9</ele>
        <time>2025-01-22T10:30:14.771Z</time>
      </trkpt>
      <trkpt lat="46.72638" lon="-1.9697">
        <ele>11.2</ele>
        <time>2025-01-22T10:30:15.771Z</time>
      </trkpt>
      <trkpt lat="46.72638" lon="-1.96968">
        <ele>11.4</ele>
        <time>2025-01-22T10:30:16.771Z</time>
      </trkpt>
      <trkpt lat="46.72639" lon="-1.96967">
        <ele>11.6</ele>
        <time>2025-01-22T10:30:17.771Z</time>
      </trkpt>
      <trkpt lat="46.7264" lon="-1.96964">
        <ele>12</ele>
        <time>2025-01-22T10:30:18.771Z</time>
      </trkpt>
      <trkpt lat="46.7264" lon="-1.96962">
        <ele>12.3</ele>
        <time>2025-01-22T10:30:19.771Z</time>
      </trkpt>
      <trkpt lat="46.72641" lon="-1.9696">
        <ele>12.6</ele>
        <time>2025-01-22T10:30:20.771Z</time>
      </trkpt>
      <trkpt lat="46.72642" lon="-1.96959">
        <ele>13</ele>
        <time>2025-01-22T10:30:21.772Z</time>
      </trkpt>
      <trkpt lat="46.72642" lon="-1.96959">
        <ele>13.2</ele>
        <time>2025-01-22T10:30:22.772Z</time>
      </trkpt>
      <trkpt lat="46.72642" lon="-1.96959">
        <ele>13.2</ele>
        <time>2025-01-22T10:30:23.771Z</time>
      </trkpt>
      <trkpt lat="46.72643" lon="-1.96959">
        <ele>13.4</ele>
        <time>2025-01-22T10:30:24.771Z</time>
      </trkpt>
      <trkpt lat="46.72645" lon="-1.96959">
        <ele>13.7</ele>
        <time>2025-01-22T10:30:25.771Z</time>
      </trkpt>
      <trkpt lat="46.72646" lon="-1.96959">
        <ele>13.9</ele>
        <time>2025-01-22T10:30:26.771Z</time>
      </trkpt>
      <trkpt lat="46.72647" lon="-1.96958">
        <ele>14.4</ele>
        <time>2025-01-22T10:30:27.772Z</time>
      </trkpt>
      <trkpt lat="46.72649" lon="-1.96957">
        <ele>14.9</ele>
        <time>2025-01-22T10:30:28.771Z</time>
      </trkpt>
      <trkpt lat="46.7265" lon="-1.96956">
        <ele>15.3</ele>
        <time>2025-01-22T10:30:29.772Z</time>
      </trkpt>
      <trkpt lat="46.72652" lon="-1.96955">
        <ele>15.7</ele>
        <time>2025-01-22T10:30:30.772Z</time>
      </trkpt>
      <trkpt lat="46.72653" lon="-1.96955">
        <ele>16.1</ele>
        <time>2025-01-22T10:30:31.772Z</time>
      </trkpt>
      <trkpt lat="46.72655" lon="-1.96954">
        <ele>16.5</ele>
        <time>2025-01-22T10:30:32.772Z</time>
      </trkpt>
      <trkpt lat="46.72656" lon="-1.96954">
        <ele>16.9</ele>
        <time>2025-01-22T10:30:33.771Z</time>
      </trkpt>
      <trkpt lat="46.72658" lon="-1.96955">
        <ele>17.2</ele>
        <time>2025-01-22T10:30:34.771Z</time>
      </trkpt>
      <trkpt lat="46.7266" lon="-1.96955">
        <ele>17.5</ele>
        <time>2025-01-22T10:30:35.771Z</time>
      </trkpt>
      <trkpt lat="46.72661" lon="-1.96954">
        <ele>18</ele>
        <time>2025-01-22T10:30:36.771Z</time>
      </trkpt>
      <trkpt lat="46.72662" lon="-1.96953">
        <ele>18.4</ele>
        <time>2025-01-22T10:30:37.772Z</time>
      </trkpt>
      <trkpt lat="46.72663" lon="-1.96952">
        <ele>18.9</ele>
        <time>2025-01-22T10:30:38.771Z</time>
      </trkpt>
      <trkpt lat="46.72664" lon="-1.9695">
        <ele>19.3</ele>
        <time>2025-01-22T10:30:39.772Z</time>
      </trkpt>
      <trkpt lat="46.72665" lon="-1.96949">
        <ele>19.7</ele>
        <time>2025-01-22T10:30:40.772Z</time>
      </trkpt>
      <trkpt lat="46.72666" lon="-1.96947">
        <ele>20.4</ele>
        <time>2025-01-22T10:30:41.772Z</time>
      </trkpt>
      <trkpt lat="46.72667" lon="-1.96946">
        <ele>20.8</ele>
        <time>2025-01-22T10:30:42.771Z</time>
      </trkpt>
      <trkpt lat="46.72668" lon="-1.96945">
        <ele>21.2</ele>
        <time>2025-01-22T10:30:43.771Z</time>
      </trkpt>
      <trkpt lat="46.72669" lon="-1.96944">
        <ele>21.5</ele>
        <time>2025-01-22T10:30:44.771Z</time>
      </trkpt>
      <trkpt lat="46.7267" lon="-1.96942">
        <ele>21.8</ele>
        <time>2025-01-22T10:30:45.771Z</time>
      </trkpt>
      <trkpt lat="46.72672" lon="-1.96941">
        <ele>22.1</ele>
        <time>2025-01-22T10:30:46.772Z</time>
      </trkpt>
      <trkpt lat="46.72673" lon="-1.9694">
        <ele>22.4</ele>
        <time>2025-01-22T10:30:47.772Z</time>
      </trkpt>
      <trkpt lat="46.72674" lon="-1.96938">
        <ele>22.6</ele>
        <time>2025-01-22T10:30:48.771Z</time>
      </trkpt>
      <trkpt lat="46.72675" lon="-1.96937">
        <ele>22.8</ele>
        <time>2025-01-22T10:30:49.772Z</time>
      </trkpt>
      <trkpt lat="46.72675" lon="-1.96934">
        <ele>23</ele>
        <time>2025-01-22T10:30:50.772Z</time>
      </trkpt>
      <trkpt lat="46.72676" lon="-1.96932">
        <ele>23.1</ele>
        <time>2025-01-22T10:30:51.771Z</time>
      </trkpt>
      <trkpt lat="46.72677" lon="-1.9693">
        <ele>23.3</ele>
        <time>2025-01-22T10:30:52.771Z</time>
      </trkpt>
      <trkpt lat="46.72678" lon="-1.96927">
        <ele>23.4</ele>
        <time>2025-01-22T10:30:53.771Z</time>
      </trkpt>
      <trkpt lat="46.7268" lon="-1.96924">
        <ele>23.5</ele>
        <time>2025-01-22T10:30:54.771Z</time>
      </trkpt>
      <trkpt lat="46.72681" lon="-1.96921">
        <ele>23.5</ele>
        <time>2025-01-22T10:30:55.772Z</time>
      </trkpt>
      <trkpt lat="46.72682" lon="-1.96918">
        <ele>23.5</ele>
        <time>2025-01-22T10:30:56.772Z</time>
      </trkpt>
      <trkpt lat="46.72683" lon="-1.96915">
        <ele>23.2</ele>
        <time>2025-01-22T10:30:57.772Z</time>
      </trkpt>
      <trkpt lat="46.72684" lon="-1.96912">
        <ele>22.9</ele>
        <time>2025-01-22T10:30:58.771Z</time>
      </trkpt>
      <trkpt lat="46.72685" lon="-1.96909">
        <ele>22.5</ele>
        <time>2025-01-22T10:30:59.771Z</time>
      </trkpt>
      <trkpt lat="46.72686" lon="-1.96906">
        <ele>22.2</ele>
        <time>2025-01-22T10:31:00.771Z</time>
      </trkpt>
      <trkpt lat="46.72687" lon="-1.96904">
        <ele>22</ele>
        <time>2025-01-22T10:31:01.771Z</time>
      </trkpt>
      <trkpt lat="46.72688" lon="-1.96901">
        <ele>21.7</ele>
        <time>2025-01-22T10:31:02.771Z</time>
      </trkpt>
      <trkpt lat="46.7269" lon="-1.96898">
        <ele>21.5</ele>
        <time>2025-01-22T10:31:03.771Z</time>
      </trkpt>
      <trkpt lat="46.72691" lon="-1.96897">
        <ele>21.4</ele>
        <time>2025-01-22T10:31:04.771Z</time>
      </trkpt>
      <trkpt lat="46.72692" lon="-1.96895">
        <ele>21.3</ele>
        <time>2025-01-22T10:31:05.771Z</time>
      </trkpt>
      <trkpt lat="46.72694" lon="-1.96892">
        <ele>21.2</ele>
        <time>2025-01-22T10:31:06.772Z</time>
      </trkpt>
      <trkpt lat="46.72697" lon="-1.9689">
        <ele>21</ele>
        <time>2025-01-22T10:31:07.772Z</time>
      </trkpt>
      <trkpt lat="46.72699" lon="-1.96887">
        <ele>20.8</ele>
        <time>2025-01-22T10:31:08.771Z</time>
      </trkpt>
      <trkpt lat="46.72701" lon="-1.96886">
        <ele>20.8</ele>
        <time>2025-01-22T10:31:09.771Z</time>
      </trkpt>
      <trkpt lat="46.72703" lon="-1.96885">
        <ele>20.7</ele>
        <time>2025-01-22T10:31:10.771Z</time>
      </trkpt>
      <trkpt lat="46.72705" lon="-1.96885">
        <ele>20.5</ele>
        <time>2025-01-22T10:31:11.771Z</time>
      </trkpt>
      <trkpt lat="46.72707" lon="-1.96884">
        <ele>20.4</ele>
        <time>2025-01-22T10:31:12.771Z</time>
      </trkpt>
      <trkpt lat="46.7271" lon="-1.96885">
        <ele>20.3</ele>
        <time>2025-01-22T10:31:13.772Z</time>
      </trkpt>
      <trkpt lat="46.72712" lon="-1.96883">
        <ele>20</ele>
        <time>2025-01-22T10:31:14.772Z</time>
      </trkpt>
      <trkpt lat="46.72715" lon="-1.96881">
        <ele>19.7</ele>
        <time>2025-01-22T10:31:15.772Z</time>
      </trkpt>
      <trkpt lat="46.72718" lon="-1.96877">
        <ele>19.1</ele>
        <time>2025-01-22T10:31:16.772Z</time>
      </trkpt>
      <trkpt lat="46.72721" lon="-1.96874">
        <ele>18.5</ele>
        <time>2025-01-22T10:31:17.772Z</time>
      </trkpt>
      <trkpt lat="46.72723" lon="-1.9687">
        <ele>18.1</ele>
        <time>2025-01-22T10:31:18.771Z</time>
      </trkpt>
      <trkpt lat="46.72725" lon="-1.96868">
        <ele>18.2</ele>
        <time>2025-01-22T10:31:19.771Z</time>
      </trkpt>
      <trkpt lat="46.72727" lon="-1.96866">
        <ele>18.1</ele>
        <time>2025-01-22T10:31:20.771Z</time>
      </trkpt>
      <trkpt lat="46.72728" lon="-1.96864">
        <ele>18</ele>
        <time>2025-01-22T10:31:21.771Z</time>
      </trkpt>
      <trkpt lat="46.72729" lon="-1.96862">
        <ele>17.9</ele>
        <time>2025-01-22T10:31:22.772Z</time>
      </trkpt>
      <trkpt lat="46.72731" lon="-1.96858">
        <ele>17.8</ele>
        <time>2025-01-22T10:31:23.771Z</time>
      </trkpt>
      <trkpt lat="46.72733" lon="-1.96855">
        <ele>17.7</ele>
        <time>2025-01-22T10:31:24.772Z</time>
      </trkpt>
      <trkpt lat="46.72733" lon="-1.96851">
        <ele>17.5</ele>
        <time>2025-01-22T10:31:25.772Z</time>
      </trkpt>
      <trkpt lat="46.72734" lon="-1.96848">
        <ele>17.3</ele>
        <time>2025-01-22T10:31:26.772Z</time>
      </trkpt>
      <trkpt lat="46.72736" lon="-1.96845">
        <ele>17.1</ele>
        <time>2025-01-22T10:31:27.772Z</time>
      </trkpt>
      <trkpt lat="46.72737" lon="-1.96843">
        <ele>16.8</ele>
        <time>2025-01-22T10:31:28.771Z</time>
      </trkpt>
      <trkpt lat="46.72736" lon="-1.96838">
        <ele>16.4</ele>
        <time>2025-01-22T10:31:29.772Z</time>
      </trkpt>
      <trkpt lat="46.72735" lon="-1.96834">
        <ele>16.1</ele>
        <time>2025-01-22T10:31:30.772Z</time>
      </trkpt>
      <trkpt lat="46.72735" lon="-1.9683">
        <ele>15.7</ele>
        <time>2025-01-22T10:31:31.771Z</time>
      </trkpt>
      <trkpt lat="46.72736" lon="-1.96826">
        <ele>15.2</ele>
        <time>2025-01-22T10:31:32.772Z</time>
      </trkpt>
      <trkpt lat="46.72736" lon="-1.96823">
        <ele>14.8</ele>
        <time>2025-01-22T10:31:33.771Z</time>
      </trkpt>
      <trkpt lat="46.72737" lon="-1.9682">
        <ele>14.5</ele>
        <time>2025-01-22T10:31:34.771Z</time>
      </trkpt>
      <trkpt lat="46.72739" lon="-1.96818">
        <ele>14.1</ele>
        <time>2025-01-22T10:31:35.771Z</time>
      </trkpt>
      <trkpt lat="46.7274" lon="-1.96815">
        <ele>13.7</ele>
        <time>2025-01-22T10:31:36.772Z</time>
      </trkpt>
      <trkpt lat="46.72741" lon="-1.96811">
        <ele>13.2</ele>
        <time>2025-01-22T10:31:37.772Z</time>
      </trkpt>
      <trkpt lat="46.72743" lon="-1.96808">
        <ele>12.8</ele>
        <time>2025-01-22T10:31:38.772Z</time>
      </trkpt>
      <trkpt lat="46.72744" lon="-1.96805">
        <ele>12.4</ele>
        <time>2025-01-22T10:31:39.772Z</time>
      </trkpt>
      <trkpt lat="46.72745" lon="-1.968">
        <ele>12.3</ele>
        <time>2025-01-22T10:31:40.771Z</time>
      </trkpt>
      <trkpt lat="46.72745" lon="-1.96796">
        <ele>12.3</ele>
        <time>2025-01-22T10:31:41.771Z</time>
      </trkpt>
      <trkpt lat="46.72744" lon="-1.96792">
        <ele>12.3</ele>
        <time>2025-01-22T10:31:42.771Z</time>
      </trkpt>
      <trkpt lat="46.72744" lon="-1.96788">
        <ele>12.3</ele>
        <time>2025-01-22T10:31:43.772Z</time>
      </trkpt>
      <trkpt lat="46.72744" lon="-1.96783">
        <ele>12.2</ele>
        <time>2025-01-22T10:31:44.772Z</time>
      </trkpt>
      <trkpt lat="46.72744" lon="-1.9678">
        <ele>12.2</ele>
        <time>2025-01-22T10:31:45.772Z</time>
      </trkpt>
      <trkpt lat="46.72743" lon="-1.96777">
        <ele>12.3</ele>
        <time>2025-01-22T10:31:46.772Z</time>
      </trkpt>
      <trkpt lat="46.72743" lon="-1.96775">
        <ele>12.3</ele>
        <time>2025-01-22T10:31:47.772Z</time>
      </trkpt>
      <trkpt lat="46.72743" lon="-1.96772">
        <ele>12.4</ele>
        <time>2025-01-22T10:31:48.771Z</time>
      </trkpt>
      <trkpt lat="46.72743" lon="-1.96771">
        <ele>12.5</ele>
        <time>2025-01-22T10:31:49.771Z</time>
      </trkpt>
      <trkpt lat="46.72743" lon="-1.96769">
        <ele>12.5</ele>
        <time>2025-01-22T10:31:50.771Z</time>
      </trkpt>
      <trkpt lat="46.72742" lon="-1.96767">
        <ele>12.6</ele>
        <time>2025-01-22T10:31:51.771Z</time>
      </trkpt>
      <trkpt lat="46.72742" lon="-1.96764">
        <ele>12.7</ele>
        <time>2025-01-22T10:31:52.772Z</time>
      </trkpt>
      <trkpt lat="46.72741" lon="-1.96761">
        <ele>12.7</ele>
        <time>2025-01-22T10:31:53.772Z</time>
      </trkpt>
      <trkpt lat="46.72741" lon="-1.96757">
        <ele>12.8</ele>
        <time>2025-01-22T10:31:54.772Z</time>
      </trkpt>
      <trkpt lat="46.72741" lon="-1.96753">
        <ele>12.9</ele>
        <time>2025-01-22T10:31:55.772Z</time>
      </trkpt>
      <trkpt lat="46.72741" lon="-1.96749">
        <ele>13</ele>
        <time>2025-01-22T10:31:56.772Z</time>
      </trkpt>
      <trkpt lat="46.72741" lon="-1.96746">
        <ele>13.1</ele>
        <time>2025-01-22T10:31:57.771Z</time>
      </trkpt>
      <trkpt lat="46.72741" lon="-1.96743">
        <ele>13.2</ele>
        <time>2025-01-22T10:31:58.771Z</time>
      </trkpt>
      <trkpt lat="46.72741" lon="-1.9674">
        <ele>13.2</ele>
        <time>2025-01-22T10:31:59.771Z</time>
      </trkpt>
      <trkpt lat="46.7274" lon="-1.96737">
        <ele>13.3</ele>
        <time>2025-01-22T10:32:00.771Z</time>
      </trkpt>
      <trkpt lat="46.7274" lon="-1.96734">
        <ele>13.4</ele>
        <time>2025-01-22T10:32:01.772Z</time>
      </trkpt>
      <trkpt lat="46.72739" lon="-1.96731">
        <ele>13.4</ele>
        <time>2025-01-22T10:32:02.772Z</time>
      </trkpt>
      <trkpt lat="46.72738" lon="-1.96728">
        <ele>13.5</ele>
        <time>2025-01-22T10:32:03.772Z</time>
      </trkpt>
      <trkpt lat="46.72737" lon="-1.96724">
        <ele>13.5</ele>
        <time>2025-01-22T10:32:04.771Z</time>
      </trkpt>
      <trkpt lat="46.72737" lon="-1.96721">
        <ele>13.5</ele>
        <time>2025-01-22T10:32:05.772Z</time>
      </trkpt>
      <trkpt lat="46.72736" lon="-1.96719">
        <ele>13.4</ele>
        <time>2025-01-22T10:32:06.771Z</time>
      </trkpt>
      <trkpt lat="46.72736" lon="-1.96717">
        <ele>13.4</ele>
        <time>2025-01-22T10:32:07.772Z</time>
      </trkpt>
      <trkpt lat="46.72736" lon="-1.96714">
        <ele>13.4</ele>
        <time>2025-01-22T10:32:08.771Z</time>
      </trkpt>
      <trkpt lat="46.72736" lon="-1.96712">
        <ele>13.3</ele>
        <time>2025-01-22T10:32:09.771Z</time>
      </trkpt>
      <trkpt lat="46.72735" lon="-1.9671">
        <ele>13.3</ele>
        <time>2025-01-22T10:32:10.772Z</time>
      </trkpt>
      <trkpt lat="46.72735" lon="-1.96707">
        <ele>13.2</ele>
        <time>2025-01-22T10:32:11.771Z</time>
      </trkpt>
      <trkpt lat="46.72735" lon="-1.96704">
        <ele>13.1</ele>
        <time>2025-01-22T10:32:12.771Z</time>
      </trkpt>
      <trkpt lat="46.72735" lon="-1.967">
        <ele>13.1</ele>
        <time>2025-01-22T10:32:13.772Z</time>
      </trkpt>
      <trkpt lat="46.72735" lon="-1.96697">
        <ele>13</ele>
        <time>2025-01-22T10:32:14.772Z</time>
      </trkpt>
      <trkpt lat="46.72735" lon="-1.96695">
        <ele>13</ele>
        <time>2025-01-22T10:32:15.772Z</time>
      </trkpt>
      <trkpt lat="46.72736" lon="-1.96691">
        <ele>12.8</ele>
        <time>2025-01-22T10:32:16.772Z</time>
      </trkpt>
      <trkpt lat="46.72737" lon="-1.96688">
        <ele>12.5</ele>
        <time>2025-01-22T10:32:17.772Z</time>
      </trkpt>
      <trkpt lat="46.72738" lon="-1.96685">
        <ele>12.3</ele>
        <time>2025-01-22T10:32:18.771Z</time>
      </trkpt>
      <trkpt lat="46.72738" lon="-1.96682">
        <ele>12</ele>
        <time>2025-01-22T10:32:19.771Z</time>
      </trkpt>
      <trkpt lat="46.72739" lon="-1.96679">
        <ele>11.8</ele>
        <time>2025-01-22T10:32:20.771Z</time>
      </trkpt>
      <trkpt lat="46.72739" lon="-1.96675">
        <ele>11.5</ele>
        <time>2025-01-22T10:32:21.771Z</time>
      </trkpt>
      <trkpt lat="46.72739" lon="-1.96672">
        <ele>11.2</ele>
        <time>2025-01-22T10:32:22.772Z</time>
      </trkpt>
      <trkpt lat="46.72739" lon="-1.96669">
        <ele>11</ele>
        <time>2025-01-22T10:32:23.772Z</time>
      </trkpt>
      <trkpt lat="46.72739" lon="-1.96666">
        <ele>10.8</ele>
        <time>2025-01-22T10:32:24.771Z</time>
      </trkpt>
      <trkpt lat="46.72738" lon="-1.96664">
        <ele>10.9</ele>
        <time>2025-01-22T10:32:25.772Z</time>
      </trkpt>
      <trkpt lat="46.72737" lon="-1.96661">
        <ele>10.9</ele>
        <time>2025-01-22T10:32:26.772Z</time>
      </trkpt>
      <trkpt lat="46.72736" lon="-1.9666">
        <ele>11</ele>
        <time>2025-01-22T10:32:27.771Z</time>
      </trkpt>
      <trkpt lat="46.72735" lon="-1.96658">
        <ele>11.1</ele>
        <time>2025-01-22T10:32:28.771Z</time>
      </trkpt>
      <trkpt lat="46.72735" lon="-1.96657">
        <ele>11.1</ele>
        <time>2025-01-22T10:32:29.771Z</time>
      </trkpt>
      <trkpt lat="46.72735" lon="-1.96656">
        <ele>11.1</ele>
        <time>2025-01-22T10:32:30.771Z</time>
      </trkpt>
      <trkpt lat="46.72734" lon="-1.96654">
        <ele>11.2</ele>
        <time>2025-01-22T10:32:31.772Z</time>
      </trkpt>
      <trkpt lat="46.72734" lon="-1.96652">
        <ele>11.1</ele>
        <time>2025-01-22T10:32:32.771Z</time>
      </trkpt>
      <trkpt lat="46.72734" lon="-1.9665">
        <ele>11.1</ele>
        <time>2025-01-22T10:32:33.771Z</time>
      </trkpt>
      <trkpt lat="46.72735" lon="-1.96647">
        <ele>11.1</ele>
        <time>2025-01-22T10:32:34.771Z</time>
      </trkpt>
      <trkpt lat="46.72735" lon="-1.96645">
        <ele>11.1</ele>
        <time>2025-01-22T10:32:35.772Z</time>
      </trkpt>
      <trkpt lat="46.72735" lon="-1.96642">
        <ele>11.1</ele>
        <time>2025-01-22T10:32:36.772Z</time>
      </trkpt>
      <trkpt lat="46.72736" lon="-1.9664">
        <ele>11</ele>
        <time>2025-01-22T10:32:37.771Z</time>
      </trkpt>
      <trkpt lat="46.72737" lon="-1.96637">
        <ele>11</ele>
        <time>2025-01-22T10:32:38.772Z</time>
      </trkpt>
      <trkpt lat="46.72738" lon="-1.96636">
        <ele>11</ele>
        <time>2025-01-22T10:32:39.771Z</time>
      </trkpt>
      <trkpt lat="46.7274" lon="-1.96634">
        <ele>11</ele>
        <time>2025-01-22T10:32:40.771Z</time>
      </trkpt>
      <trkpt lat="46.7274" lon="-1.96631">
        <ele>11.1</ele>
        <time>2025-01-22T10:32:41.771Z</time>
      </trkpt>
      <trkpt lat="46.7274" lon="-1.96628">
        <ele>11.2</ele>
        <time>2025-01-22T10:32:42.772Z</time>
      </trkpt>
      <trkpt lat="46.7274" lon="-1.96625">
        <ele>11.4</ele>
        <time>2025-01-22T10:32:43.772Z</time>
      </trkpt>
      <trkpt lat="46.72739" lon="-1.96623">
        <ele>11.5</ele>
        <time>2025-01-22T10:32:44.771Z</time>
      </trkpt>
      <trkpt lat="46.72738" lon="-1.9662">
        <ele>11.7</ele>
        <time>2025-01-22T10:32:45.772Z</time>
      </trkpt>
      <trkpt lat="46.72736" lon="-1.96618">
        <ele>11.8</ele>
        <time>2025-01-22T10:32:46.771Z</time>
      </trkpt>
      <trkpt lat="46.72735" lon="-1.96618">
        <ele>11.8</ele>
        <time>2025-01-22T10:32:47.772Z</time>
      </trkpt>
      <trkpt lat="46.72734" lon="-1.96617">
        <ele>11.8</ele>
        <time>2025-01-22T10:32:48.771Z</time>
      </trkpt>
      <trkpt lat="46.72733" lon="-1.96618">
        <ele>11.8</ele>
        <time>2025-01-22T10:32:49.771Z</time>
      </trkpt>
      <trkpt lat="46.72731" lon="-1.96617">
        <ele>11.9</ele>
        <time>2025-01-22T10:32:50.771Z</time>
      </trkpt>
      <trkpt lat="46.72729" lon="-1.96615">
        <ele>11.9</ele>
        <time>2025-01-22T10:32:51.772Z</time>
      </trkpt>
      <trkpt lat="46.72727" lon="-1.96613">
        <ele>12</ele>
        <time>2025-01-22T10:32:52.772Z</time>
      </trkpt>
      <trkpt lat="46.72724" lon="-1.96612">
        <ele>12</ele>
        <time>2025-01-22T10:32:53.771Z</time>
      </trkpt>
      <trkpt lat="46.72722" lon="-1.9661">
        <ele>12</ele>
        <time>2025-01-22T10:32:54.771Z</time>
      </trkpt>
      <trkpt lat="46.72721" lon="-1.9661">
        <ele>12.1</ele>
        <time>2025-01-22T10:32:55.771Z</time>
      </trkpt>
      <trkpt lat="46.7272" lon="-1.9661">
        <ele>12.2</ele>
        <time>2025-01-22T10:32:56.771Z</time>
      </trkpt>
      <trkpt lat="46.72718" lon="-1.9661">
        <ele>12.3</ele>
        <time>2025-01-22T10:32:57.772Z</time>
      </trkpt>
      <trkpt lat="46.72717" lon="-1.9661">
        <ele>12.4</ele>
        <time>2025-01-22T10:32:58.771Z</time>
      </trkpt>
      <trkpt lat="46.72715" lon="-1.9661">
        <ele>12.6</ele>
        <time>2025-01-22T10:32:59.771Z</time>
      </trkpt>
      <trkpt lat="46.72715" lon="-1.96611">
        <ele>12.6</ele>
        <time>2025-01-22T10:33:00.772Z</time>
      </trkpt>
      <trkpt lat="46.72714" lon="-1.96611">
        <ele>12.6</ele>
        <time>2025-01-22T10:33:01.772Z</time>
      </trkpt>
      <trkpt lat="46.72713" lon="-1.96611">
        <ele>12.7</ele>
        <time>2025-01-22T10:33:02.771Z</time>
      </trkpt>
      <trkpt lat="46.72713" lon="-1.96611">
        <ele>12.7</ele>
        <time>2025-01-22T10:33:03.771Z</time>
      </trkpt>
      <trkpt lat="46.72712" lon="-1.96611">
        <ele>12.7</ele>
        <time>2025-01-22T10:33:04.772Z</time>
      </trkpt>
      <trkpt lat="46.7271" lon="-1.9661">
        <ele>12.9</ele>
        <time>2025-01-22T10:33:05.771Z</time>
      </trkpt>
      <trkpt lat="46.72709" lon="-1.9661">
        <ele>13.1</ele>
        <time>2025-01-22T10:33:06.772Z</time>
      </trkpt>
      <trkpt lat="46.72707" lon="-1.96609">
        <ele>13.2</ele>
        <time>2025-01-22T10:33:07.772Z</time>
      </trkpt>
      <trkpt lat="46.72705" lon="-1.96609">
        <ele>13.4</ele>
        <time>2025-01-22T10:33:08.772Z</time>
      </trkpt>
      <trkpt lat="46.72703" lon="-1.96608">
        <ele>13.6</ele>
        <time>2025-01-22T10:33:09.772Z</time>
      </trkpt>
      <trkpt lat="46.72702" lon="-1.96608">
        <ele>13.7</ele>
        <time>2025-01-22T10:33:10.772Z</time>
      </trkpt>
      <trkpt lat="46.72702" lon="-1.96608">
        <ele>13.7</ele>
        <time>2025-01-22T10:33:11.771Z</time>
      </trkpt>
      <trkpt lat="46.72701" lon="-1.96608">
        <ele>13.7</ele>
        <time>2025-01-22T10:33:12.771Z</time>
      </trkpt>
      <trkpt lat="46.727" lon="-1.96607">
        <ele>13.8</ele>
        <time>2025-01-22T10:33:13.771Z</time>
      </trkpt>
      <trkpt lat="46.72698" lon="-1.96606">
        <ele>14.1</ele>
        <time>2025-01-22T10:33:14.771Z</time>
      </trkpt>
      <trkpt lat="46.72696" lon="-1.96604">
        <ele>14.4</ele>
        <time>2025-01-22T10:33:15.771Z</time>
      </trkpt>
      <trkpt lat="46.72695" lon="-1.96604">
        <ele>14.5</ele>
        <time>2025-01-22T10:33:16.771Z</time>
      </trkpt>
      <trkpt lat="46.72694" lon="-1.96603">
        <ele>14.6</ele>
        <time>2025-01-22T10:33:17.771Z</time>
      </trkpt>
      <trkpt lat="46.72694" lon="-1.96603">
        <ele>14.6</ele>
        <time>2025-01-22T10:33:18.771Z</time>
      </trkpt>
      <trkpt lat="46.72692" lon="-1.96603">
        <ele>14.6</ele>
        <time>2025-01-22T10:33:19.772Z</time>
      </trkpt>
      <trkpt lat="46.7269" lon="-1.96602">
        <ele>14.7</ele>
        <time>2025-01-22T10:33:20.772Z</time>
      </trkpt>
      <trkpt lat="46.72688" lon="-1.96601">
        <ele>14.7</ele>
        <time>2025-01-22T10:33:21.772Z</time>
      </trkpt>
      <trkpt lat="46.72687" lon="-1.96602">
        <ele>14.7</ele>
        <time>2025-01-22T10:33:22.772Z</time>
      </trkpt>
      <trkpt lat="46.72687" lon="-1.96602">
        <ele>14.7</ele>
        <time>2025-01-22T10:33:23.771Z</time>
      </trkpt>
      <trkpt lat="46.72687" lon="-1.96601">
        <ele>14.7</ele>
        <time>2025-01-22T10:33:24.771Z</time>
      </trkpt>
      <trkpt lat="46.72687" lon="-1.96601">
        <ele>14.7</ele>
        <time>2025-01-22T10:33:25.771Z</time>
      </trkpt>
      <trkpt lat="46.72686" lon="-1.96601">
        <ele>14.7</ele>
        <time>2025-01-22T10:33:26.771Z</time>
      </trkpt>
      <trkpt lat="46.72685" lon="-1.96601">
        <ele>14.7</ele>
        <time>2025-01-22T10:33:27.772Z</time>
      </trkpt>
      <trkpt lat="46.72685" lon="-1.96602">
        <ele>14.7</ele>
        <time>2025-01-22T10:33:28.772Z</time>
      </trkpt>
      <trkpt lat="46.72687" lon="-1.96603">
        <ele>14.6</ele>
        <time>2025-01-22T10:33:29.772Z</time>
      </trkpt>
      <trkpt lat="46.72687" lon="-1.96603">
        <ele>14.6</ele>
        <time>2025-01-22T10:33:30.772Z</time>
      </trkpt>
      <trkpt lat="46.72688" lon="-1.96603">
        <ele>14.6</ele>
        <time>2025-01-22T10:33:31.771Z</time>
      </trkpt>
      <trkpt lat="46.72689" lon="-1.96604">
        <ele>14.6</ele>
        <time>2025-01-22T10:33:32.771Z</time>
      </trkpt>
      <trkpt lat="46.7269" lon="-1.96603">
        <ele>14.6</ele>
        <time>2025-01-22T10:33:33.771Z</time>
      </trkpt>
      <trkpt lat="46.72722" lon="-1.9665">
        <ele>12.1</ele>
        <time>2025-01-22T10:34:58.273Z</time>
      </trkpt>
      <trkpt lat="46.72722" lon="-1.9665">
        <ele>12</ele>
        <time>2025-01-22T10:34:59.272Z</time>
      </trkpt>
      <trkpt lat="46.72722" lon="-1.96649">
        <ele>12.1</ele>
        <time>2025-01-22T10:35:00.272Z</time>
      </trkpt>
      <trkpt lat="46.72721" lon="-1.96648">
        <ele>12.3</ele>
        <time>2025-01-22T10:35:01.272Z</time>
      </trkpt>
      <trkpt lat="46.72719" lon="-1.96648">
        <ele>12.5</ele>
        <time>2025-01-22T10:35:02.272Z</time>
      </trkpt>
      <trkpt lat="46.72717" lon="-1.96648">
        <ele>12.8</ele>
        <time>2025-01-22T10:35:03.272Z</time>
      </trkpt>
      <trkpt lat="46.72715" lon="-1.96648">
        <ele>13.1</ele>
        <time>2025-01-22T10:35:04.273Z</time>
      </trkpt>
      <trkpt lat="46.72714" lon="-1.96649">
        <ele>13.4</ele>
        <time>2025-01-22T10:35:05.273Z</time>
      </trkpt>
      <trkpt lat="46.72713" lon="-1.96649">
        <ele>13.5</ele>
        <time>2025-01-22T10:35:06.272Z</time>
      </trkpt>
      <trkpt lat="46.72712" lon="-1.9665">
        <ele>13.7</ele>
        <time>2025-01-22T10:35:07.273Z</time>
      </trkpt>
      <trkpt lat="46.72712" lon="-1.9665">
        <ele>13.7</ele>
        <time>2025-01-22T10:35:08.272Z</time>
      </trkpt>
      <trkpt lat="46.72711" lon="-1.9665">
        <ele>13.8</ele>
        <time>2025-01-22T10:35:09.272Z</time>
      </trkpt>
      <trkpt lat="46.7271" lon="-1.96651">
        <ele>14</ele>
        <time>2025-01-22T10:35:10.272Z</time>
      </trkpt>
      <trkpt lat="46.72708" lon="-1.96651">
        <ele>14.2</ele>
        <time>2025-01-22T10:35:11.273Z</time>
      </trkpt>
      <trkpt lat="46.72707" lon="-1.96651">
        <ele>14.5</ele>
        <time>2025-01-22T10:35:12.272Z</time>
      </trkpt>
      <trkpt lat="46.72705" lon="-1.96651">
        <ele>14.7</ele>
        <time>2025-01-22T10:35:13.272Z</time>
      </trkpt>
      <trkpt lat="46.72703" lon="-1.96652">
        <ele>15</ele>
        <time>2025-01-22T10:35:14.272Z</time>
      </trkpt>
      <trkpt lat="46.72702" lon="-1.96652">
        <ele>15.2</ele>
        <time>2025-01-22T10:35:15.272Z</time>
      </trkpt>
      <trkpt lat="46.72702" lon="-1.96653">
        <ele>15.2</ele>
        <time>2025-01-22T10:35:16.272Z</time>
      </trkpt>
      <trkpt lat="46.72702" lon="-1.96654">
        <ele>15.3</ele>
        <time>2025-01-22T10:35:17.272Z</time>
      </trkpt>
      <trkpt lat="46.72702" lon="-1.96654">
        <ele>15.4</ele>
        <time>2025-01-22T10:35:18.272Z</time>
      </trkpt>
      <trkpt lat="46.72701" lon="-1.96655">
        <ele>15.5</ele>
        <time>2025-01-22T10:35:19.273Z</time>
      </trkpt>
      <trkpt lat="46.727" lon="-1.96657">
        <ele>15.7</ele>
        <time>2025-01-22T10:35:20.272Z</time>
      </trkpt>
      <trkpt lat="46.72699" lon="-1.96658">
        <ele>16</ele>
        <time>2025-01-22T10:35:21.273Z</time>
      </trkpt>
      <trkpt lat="46.72698" lon="-1.96658">
        <ele>16.1</ele>
        <time>2025-01-22T10:35:22.272Z</time>
      </trkpt>
      <trkpt lat="46.72697" lon="-1.96659">
        <ele>16.4</ele>
        <time>2025-01-22T10:35:23.272Z</time>
      </trkpt>
      <trkpt lat="46.72696" lon="-1.9666">
        <ele>16.5</ele>
        <time>2025-01-22T10:35:24.272Z</time>
      </trkpt>
      <trkpt lat="46.72695" lon="-1.9666">
        <ele>16.8</ele>
        <time>2025-01-22T10:35:25.273Z</time>
      </trkpt>
      <trkpt lat="46.72694" lon="-1.96661">
        <ele>16.8</ele>
        <time>2025-01-22T10:35:26.272Z</time>
      </trkpt>
      <trkpt lat="46.72693" lon="-1.96661">
        <ele>16.8</ele>
        <time>2025-01-22T10:35:27.272Z</time>
      </trkpt>
      <trkpt lat="46.72691" lon="-1.96661">
        <ele>16.8</ele>
        <time>2025-01-22T10:35:28.272Z</time>
      </trkpt>
      <trkpt lat="46.7269" lon="-1.96661">
        <ele>16.8</ele>
        <time>2025-01-22T10:35:29.272Z</time>
      </trkpt>
      <trkpt lat="46.72689" lon="-1.96661">
        <ele>16.8</ele>
        <time>2025-01-22T10:35:30.272Z</time>
      </trkpt>
      <trkpt lat="46.72689" lon="-1.9666">
        <ele>16.8</ele>
        <time>2025-01-22T10:35:31.273Z</time>
      </trkpt>
      <trkpt lat="46.72688" lon="-1.96661">
        <ele>16.8</ele>
        <time>2025-01-22T10:35:32.272Z</time>
      </trkpt>
      <trkpt lat="46.72687" lon="-1.96662">
        <ele>16.9</ele>
        <time>2025-01-22T10:35:33.273Z</time>
      </trkpt>
      <trkpt lat="46.72686" lon="-1.96664">
        <ele>16.9</ele>
        <time>2025-01-22T10:35:34.273Z</time>
      </trkpt>
      <trkpt lat="46.72684" lon="-1.96666">
        <ele>17</ele>
        <time>2025-01-22T10:35:35.272Z</time>
      </trkpt>
      <trkpt lat="46.72682" lon="-1.96667">
        <ele>17</ele>
        <time>2025-01-22T10:35:36.273Z</time>
      </trkpt>
      <trkpt lat="46.72681" lon="-1.96666">
        <ele>17</ele>
        <time>2025-01-22T10:35:37.273Z</time>
      </trkpt>
      <trkpt lat="46.7268" lon="-1.96665">
        <ele>17</ele>
        <time>2025-01-22T10:35:38.273Z</time>
      </trkpt>
      <trkpt lat="46.72679" lon="-1.96665">
        <ele>17</ele>
        <time>2025-01-22T10:35:39.272Z</time>
      </trkpt>
      <trkpt lat="46.72678" lon="-1.96664">
        <ele>17</ele>
        <time>2025-01-22T10:35:40.272Z</time>
      </trkpt>
      <trkpt lat="46.72677" lon="-1.96664">
        <ele>17</ele>
        <time>2025-01-22T10:35:41.272Z</time>
      </trkpt>
      <trkpt lat="46.72676" lon="-1.96664">
        <ele>17</ele>
        <time>2025-01-22T10:35:42.272Z</time>
      </trkpt>
      <trkpt lat="46.72675" lon="-1.96664">
        <ele>17</ele>
        <time>2025-01-22T10:35:43.272Z</time>
      </trkpt>
      <trkpt lat="46.72673" lon="-1.96664">
        <ele>17</ele>
        <time>2025-01-22T10:35:44.272Z</time>
      </trkpt>
      <trkpt lat="46.72672" lon="-1.96665">
        <ele>17</ele>
        <time>2025-01-22T10:35:45.273Z</time>
      </trkpt>
      <trkpt lat="46.7267" lon="-1.96665">
        <ele>17</ele>
        <time>2025-01-22T10:35:46.273Z</time>
      </trkpt>
      <trkpt lat="46.72667" lon="-1.96664">
        <ele>17</ele>
        <time>2025-01-22T10:35:47.272Z</time>
      </trkpt>
      <trkpt lat="46.72665" lon="-1.96664">
        <ele>16.9</ele>
        <time>2025-01-22T10:35:48.273Z</time>
      </trkpt>
      <trkpt lat="46.72662" lon="-1.96663">
        <ele>16.9</ele>
        <time>2025-01-22T10:35:49.272Z</time>
      </trkpt>
      <trkpt lat="46.7266" lon="-1.96662">
        <ele>16.8</ele>
        <time>2025-01-22T10:35:50.273Z</time>
      </trkpt>
      <trkpt lat="46.72657" lon="-1.96661">
        <ele>16.7</ele>
        <time>2025-01-22T10:35:51.273Z</time>
      </trkpt>
      <trkpt lat="46.72657" lon="-1.96662">
        <ele>16.7</ele>
        <time>2025-01-22T10:35:52.273Z</time>
      </trkpt>
      <trkpt lat="46.72657" lon="-1.96662">
        <ele>16.7</ele>
        <time>2025-01-22T10:35:53.272Z</time>
      </trkpt>
      <trkpt lat="46.72656" lon="-1.96662">
        <ele>16.7</ele>
        <time>2025-01-22T10:35:54.272Z</time>
      </trkpt>
      <trkpt lat="46.72656" lon="-1.96662">
        <ele>16.7</ele>
        <time>2025-01-22T10:35:55.272Z</time>
      </trkpt>
      <trkpt lat="46.72654" lon="-1.96659">
        <ele>16.7</ele>
        <time>2025-01-22T10:35:56.272Z</time>
      </trkpt>
      <trkpt lat="46.72653" lon="-1.96657">
        <ele>16.7</ele>
        <time>2025-01-22T10:35:57.272Z</time>
      </trkpt>
      <trkpt lat="46.72653" lon="-1.96656">
        <ele>16.7</ele>
        <time>2025-01-22T10:35:58.272Z</time>
      </trkpt>
      <trkpt lat="46.72652" lon="-1.96654">
        <ele>16.7</ele>
        <time>2025-01-22T10:35:59.272Z</time>
      </trkpt>
      <trkpt lat="46.72652" lon="-1.96653">
        <ele>16.7</ele>
        <time>2025-01-22T10:36:00.272Z</time>
      </trkpt>
      <trkpt lat="46.72652" lon="-1.96651">
        <ele>16.8</ele>
        <time>2025-01-22T10:36:01.273Z</time>
      </trkpt>
      <trkpt lat="46.72651" lon="-1.9665">
        <ele>16.8</ele>
        <time>2025-01-22T10:36:02.272Z</time>
      </trkpt>
      <trkpt lat="46.72651" lon="-1.96649">
        <ele>16.8</ele>
        <time>2025-01-22T10:36:03.272Z</time>
      </trkpt>
      <trkpt lat="46.7265" lon="-1.96648">
        <ele>16.8</ele>
        <time>2025-01-22T10:36:04.272Z</time>
      </trkpt>
      <trkpt lat="46.72649" lon="-1.96648">
        <ele>16.8</ele>
        <time>2025-01-22T10:36:05.272Z</time>
      </trkpt>
      <trkpt lat="46.72649" lon="-1.96648">
        <ele>16.8</ele>
        <time>2025-01-22T10:36:06.272Z</time>
      </trkpt>
      <trkpt lat="46.72649" lon="-1.96649">
        <ele>16.8</ele>
        <time>2025-01-22T10:36:07.272Z</time>
      </trkpt>
      <trkpt lat="46.72647" lon="-1.96648">
        <ele>16.8</ele>
        <time>2025-01-22T10:36:08.273Z</time>
      </trkpt>
      <trkpt lat="46.72646" lon="-1.96647">
        <ele>16.8</ele>
        <time>2025-01-22T10:36:09.273Z</time>
      </trkpt>
      <trkpt lat="46.72643" lon="-1.96646">
        <ele>16.8</ele>
        <time>2025-01-22T10:36:10.273Z</time>
      </trkpt>
      <trkpt lat="46.7264" lon="-1.96646">
        <ele>16.7</ele>
        <time>2025-01-22T10:36:11.272Z</time>
      </trkpt>
      <trkpt lat="46.72638" lon="-1.96647">
        <ele>16.7</ele>
        <time>2025-01-22T10:36:12.272Z</time>
      </trkpt>
      <trkpt lat="46.72637" lon="-1.96648">
        <ele>16.8</ele>
        <time>2025-01-22T10:36:13.272Z</time>
      </trkpt>
      <trkpt lat="46.72636" lon="-1.96649">
        <ele>16.8</ele>
        <time>2025-01-22T10:36:14.272Z</time>
      </trkpt>
      <trkpt lat="46.72634" lon="-1.9665">
        <ele>16.9</ele>
        <time>2025-01-22T10:36:15.273Z</time>
      </trkpt>
      <trkpt lat="46.72633" lon="-1.96651">
        <ele>17</ele>
        <time>2025-01-22T10:36:16.272Z</time>
      </trkpt>
      <trkpt lat="46.72631" lon="-1.96651">
        <ele>17.1</ele>
        <time>2025-01-22T10:36:17.272Z</time>
      </trkpt>
      <trkpt lat="46.72629" lon="-1.96652">
        <ele>17.2</ele>
        <time>2025-01-22T10:36:18.272Z</time>
      </trkpt>
      <trkpt lat="46.72627" lon="-1.96652">
        <ele>17.3</ele>
        <time>2025-01-22T10:36:19.272Z</time>
      </trkpt>
      <trkpt lat="46.72626" lon="-1.96652">
        <ele>17.4</ele>
        <time>2025-01-22T10:36:20.272Z</time>
      </trkpt>
      <trkpt lat="46.72624" lon="-1.96653">
        <ele>17.6</ele>
        <time>2025-01-22T10:36:21.272Z</time>
      </trkpt>
      <trkpt lat="46.72623" lon="-1.96654">
        <ele>17.6</ele>
        <time>2025-01-22T10:36:22.273Z</time>
      </trkpt>
      <trkpt lat="46.72622" lon="-1.96655">
        <ele>17.8</ele>
        <time>2025-01-22T10:36:23.272Z</time>
      </trkpt>
      <trkpt lat="46.72619" lon="-1.96657">
        <ele>18</ele>
        <time>2025-01-22T10:36:24.273Z</time>
      </trkpt>
      <trkpt lat="46.72617" lon="-1.96658">
        <ele>18.2</ele>
        <time>2025-01-22T10:36:25.273Z</time>
      </trkpt>
      <trkpt lat="46.72614" lon="-1.96658">
        <ele>18.5</ele>
        <time>2025-01-22T10:36:26.272Z</time>
      </trkpt>
      <trkpt lat="46.72611" lon="-1.96659">
        <ele>18.8</ele>
        <time>2025-01-22T10:36:27.272Z</time>
      </trkpt>
      <trkpt lat="46.72608" lon="-1.96658">
        <ele>19.2</ele>
        <time>2025-01-22T10:36:28.272Z</time>
      </trkpt>
      <trkpt lat="46.72604" lon="-1.96657">
        <ele>19.6</ele>
        <time>2025-01-22T10:36:29.272Z</time>
      </trkpt>
      <trkpt lat="46.72602" lon="-1.96657">
        <ele>19.9</ele>
        <time>2025-01-22T10:36:30.273Z</time>
      </trkpt>
      <trkpt lat="46.726" lon="-1.96659">
        <ele>20.5</ele>
        <time>2025-01-22T10:36:31.273Z</time>
      </trkpt>
      <trkpt lat="46.72597" lon="-1.96662">
        <ele>21.1</ele>
        <time>2025-01-22T10:36:32.273Z</time>
      </trkpt>
      <trkpt lat="46.72595" lon="-1.96663">
        <ele>21.6</ele>
        <time>2025-01-22T10:36:33.272Z</time>
      </trkpt>
      <trkpt lat="46.72593" lon="-1.96665">
        <ele>22</ele>
        <time>2025-01-22T10:36:34.272Z</time>
      </trkpt>
      <trkpt lat="46.72593" lon="-1.96667">
        <ele>22.2</ele>
        <time>2025-01-22T10:36:35.272Z</time>
      </trkpt>
      <trkpt lat="46.72593" lon="-1.96668">
        <ele>22.3</ele>
        <time>2025-01-22T10:36:36.272Z</time>
      </trkpt>
      <trkpt lat="46.72594" lon="-1.9667">
        <ele>22.2</ele>
        <time>2025-01-22T10:36:37.272Z</time>
      </trkpt>
      <trkpt lat="46.72595" lon="-1.96672">
        <ele>22.1</ele>
        <time>2025-01-22T10:36:38.272Z</time>
      </trkpt>
      <trkpt lat="46.72595" lon="-1.96674">
        <ele>21.9</ele>
        <time>2025-01-22T10:36:39.273Z</time>
      </trkpt>
      <trkpt lat="46.72596" lon="-1.96675">
        <ele>21.8</ele>
        <time>2025-01-22T10:36:40.272Z</time>
      </trkpt>
      <trkpt lat="46.72596" lon="-1.96677">
        <ele>21.8</ele>
        <time>2025-01-22T10:36:41.272Z</time>
      </trkpt>
      <trkpt lat="46.72595" lon="-1.96679">
        <ele>22</ele>
        <time>2025-01-22T10:36:42.272Z</time>
      </trkpt>
      <trkpt lat="46.72594" lon="-1.96681">
        <ele>22.4</ele>
        <time>2025-01-22T10:36:43.272Z</time>
      </trkpt>
      <trkpt lat="46.72592" lon="-1.96683">
        <ele>22.8</ele>
        <time>2025-01-22T10:36:44.273Z</time>
      </trkpt>
      <trkpt lat="46.72591" lon="-1.96685">
        <ele>23.3</ele>
        <time>2025-01-22T10:36:45.273Z</time>
      </trkpt>
      <trkpt lat="46.72589" lon="-1.96687">
        <ele>23.9</ele>
        <time>2025-01-22T10:36:46.272Z</time>
      </trkpt>
      <trkpt lat="46.72587" lon="-1.96687">
        <ele>24.6</ele>
        <time>2025-01-22T10:36:47.272Z</time>
      </trkpt>
      <trkpt lat="46.72585" lon="-1.96688">
        <ele>25.1</ele>
        <time>2025-01-22T10:36:48.272Z</time>
      </trkpt>
      <trkpt lat="46.72583" lon="-1.96689">
        <ele>25.6</ele>
        <time>2025-01-22T10:36:49.272Z</time>
      </trkpt>
      <trkpt lat="46.72582" lon="-1.96691">
        <ele>25.6</ele>
        <time>2025-01-22T10:36:50.272Z</time>
      </trkpt>
      <trkpt lat="46.72581" lon="-1.96693">
        <ele>25.6</ele>
        <time>2025-01-22T10:36:51.272Z</time>
      </trkpt>
      <trkpt lat="46.72579" lon="-1.96696">
        <ele>25.4</ele>
        <time>2025-01-22T10:36:52.272Z</time>
      </trkpt>
      <trkpt lat="46.72578" lon="-1.96698">
        <ele>24.8</ele>
        <time>2025-01-22T10:36:53.273Z</time>
      </trkpt>
      <trkpt lat="46.72577" lon="-1.967">
        <ele>24.3</ele>
        <time>2025-01-22T10:36:54.273Z</time>
      </trkpt>
      <trkpt lat="46.72576" lon="-1.96702">
        <ele>23.8</ele>
        <time>2025-01-22T10:36:55.273Z</time>
      </trkpt>
      <trkpt lat="46.72576" lon="-1.96706">
        <ele>23.2</ele>
        <time>2025-01-22T10:36:56.272Z</time>
      </trkpt>
      <trkpt lat="46.72576" lon="-1.96711">
        <ele>22.2</ele>
        <time>2025-01-22T10:36:57.272Z</time>
      </trkpt>
      <trkpt lat="46.72577" lon="-1.96715">
        <ele>21.6</ele>
        <time>2025-01-22T10:36:58.272Z</time>
      </trkpt>
      <trkpt lat="46.72577" lon="-1.96718">
        <ele>21.1</ele>
        <time>2025-01-22T10:36:59.272Z</time>
      </trkpt>
      <trkpt lat="46.72577" lon="-1.9672">
        <ele>20.7</ele>
        <time>2025-01-22T10:37:00.272Z</time>
      </trkpt>
      <trkpt lat="46.72577" lon="-1.96722">
        <ele>20.3</ele>
        <time>2025-01-22T10:37:01.272Z</time>
      </trkpt>
      <trkpt lat="46.72577" lon="-1.96722">
        <ele>20.3</ele>
        <time>2025-01-22T10:37:02.273Z</time>
      </trkpt>
      <trkpt lat="46.72576" lon="-1.96723">
        <ele>20.2</ele>
        <time>2025-01-22T10:37:03.273Z</time>
      </trkpt>
      <trkpt lat="46.72576" lon="-1.96723">
        <ele>20</ele>
        <time>2025-01-22T10:37:04.273Z</time>
      </trkpt>
      <trkpt lat="46.72576" lon="-1.96725">
        <ele>19.6</ele>
        <time>2025-01-22T10:37:05.272Z</time>
      </trkpt>
      <trkpt lat="46.72576" lon="-1.96726">
        <ele>19.1</ele>
        <time>2025-01-22T10:37:06.272Z</time>
      </trkpt>
      <trkpt lat="46.72576" lon="-1.96729">
        <ele>18.3</ele>
        <time>2025-01-22T10:37:07.272Z</time>
      </trkpt>
      <trkpt lat="46.72576" lon="-1.96731">
        <ele>17.9</ele>
        <time>2025-01-22T10:37:08.272Z</time>
      </trkpt>
      <trkpt lat="46.72576" lon="-1.96733">
        <ele>17.3</ele>
        <time>2025-01-22T10:37:09.272Z</time>
      </trkpt>
      <trkpt lat="46.72576" lon="-1.96734">
        <ele>17</ele>
        <time>2025-01-22T10:37:10.273Z</time>
      </trkpt>
      <trkpt lat="46.72575" lon="-1.96735">
        <ele>16.7</ele>
        <time>2025-01-22T10:37:11.273Z</time>
      </trkpt>
      <trkpt lat="46.72575" lon="-1.96736">
        <ele>16.3</ele>
        <time>2025-01-22T10:37:12.273Z</time>
      </trkpt>
      <trkpt lat="46.72573" lon="-1.96737">
        <ele>15.9</ele>
        <time>2025-01-22T10:37:13.272Z</time>
      </trkpt>
      <trkpt lat="46.72572" lon="-1.96738">
        <ele>15.5</ele>
        <time>2025-01-22T10:37:14.272Z</time>
      </trkpt>
      <trkpt lat="46.72571" lon="-1.96738">
        <ele>15.3</ele>
        <time>2025-01-22T10:37:15.272Z</time>
      </trkpt>
      <trkpt lat="46.7257" lon="-1.96739">
        <ele>14.9</ele>
        <time>2025-01-22T10:37:16.272Z</time>
      </trkpt>
      <trkpt lat="46.72569" lon="-1.96741">
        <ele>14.4</ele>
        <time>2025-01-22T10:37:17.272Z</time>
      </trkpt>
      <trkpt lat="46.72567" lon="-1.96742">
        <ele>13.9</ele>
        <time>2025-01-22T10:37:18.273Z</time>
      </trkpt>
      <trkpt lat="46.72567" lon="-1.96743">
        <ele>13.6</ele>
        <time>2025-01-22T10:37:19.272Z</time>
      </trkpt>
      <trkpt lat="46.72566" lon="-1.96743">
        <ele>13.5</ele>
        <time>2025-01-22T10:37:20.273Z</time>
      </trkpt>
      <trkpt lat="46.72565" lon="-1.96743">
        <ele>13.5</ele>
        <time>2025-01-22T10:37:21.272Z</time>
      </trkpt>
      <trkpt lat="46.72564" lon="-1.96743">
        <ele>13.6</ele>
        <time>2025-01-22T10:37:22.272Z</time>
      </trkpt>
      <trkpt lat="46.72563" lon="-1.96742">
        <ele>13.6</ele>
        <time>2025-01-22T10:37:23.272Z</time>
      </trkpt>
      <trkpt lat="46.72563" lon="-1.96741">
        <ele>13.8</ele>
        <time>2025-01-22T10:37:24.273Z</time>
      </trkpt>
      <trkpt lat="46.72562" lon="-1.96741">
        <ele>13.8</ele>
        <time>2025-01-22T10:37:25.273Z</time>
      </trkpt>
      <trkpt lat="46.72561" lon="-1.96741">
        <ele>13.6</ele>
        <time>2025-01-22T10:37:26.273Z</time>
      </trkpt>
      <trkpt lat="46.72559" lon="-1.96742">
        <ele>13.4</ele>
        <time>2025-01-22T10:37:27.272Z</time>
      </trkpt>
      <trkpt lat="46.72557" lon="-1.96742">
        <ele>13.2</ele>
        <time>2025-01-22T10:37:28.272Z</time>
      </trkpt>
      <trkpt lat="46.72557" lon="-1.96742">
        <ele>13.1</ele>
        <time>2025-01-22T10:37:29.272Z</time>
      </trkpt>
      <trkpt lat="46.72556" lon="-1.96742">
        <ele>13</ele>
        <time>2025-01-22T10:37:30.272Z</time>
      </trkpt>
      <trkpt lat="46.72554" lon="-1.96743">
        <ele>12.8</ele>
        <time>2025-01-22T10:37:31.272Z</time>
      </trkpt>
      <trkpt lat="46.72552" lon="-1.96741">
        <ele>13</ele>
        <time>2025-01-22T10:37:32.272Z</time>
      </trkpt>
      <trkpt lat="46.72549" lon="-1.96741">
        <ele>12.9</ele>
        <time>2025-01-22T10:37:33.273Z</time>
      </trkpt>
      <trkpt lat="46.72546" lon="-1.96741">
        <ele>12.8</ele>
        <time>2025-01-22T10:37:34.273Z</time>
      </trkpt>
      <trkpt lat="46.72543" lon="-1.96741">
        <ele>12.7</ele>
        <time>2025-01-22T10:37:35.273Z</time>
      </trkpt>
      <trkpt lat="46.7254" lon="-1.96741">
        <ele>12.6</ele>
        <time>2025-01-22T10:37:36.272Z</time>
      </trkpt>
      <trkpt lat="46.72537" lon="-1.9674">
        <ele>12.6</ele>
        <time>2025-01-22T10:37:37.272Z</time>
      </trkpt>
      <trkpt lat="46.72534" lon="-1.96739">
        <ele>12.8</ele>
        <time>2025-01-22T10:37:38.272Z</time>
      </trkpt>
      <trkpt lat="46.72531" lon="-1.96737">
        <ele>13</ele>
        <time>2025-01-22T10:37:39.272Z</time>
      </trkpt>
      <trkpt lat="46.72528" lon="-1.96735">
        <ele>13.3</ele>
        <time>2025-01-22T10:37:40.273Z</time>
      </trkpt>
      <trkpt lat="46.72525" lon="-1.96733">
        <ele>13.4</ele>
        <time>2025-01-22T10:37:41.272Z</time>
      </trkpt>
      <trkpt lat="46.72522" lon="-1.96732">
        <ele>13.4</ele>
        <time>2025-01-22T10:37:42.272Z</time>
      </trkpt>
      <trkpt lat="46.72519" lon="-1.96731">
        <ele>13.1</ele>
        <time>2025-01-22T10:37:43.272Z</time>
      </trkpt>
      <trkpt lat="46.72516" lon="-1.96731">
        <ele>12.9</ele>
        <time>2025-01-22T10:37:44.272Z</time>
      </trkpt>
      <trkpt lat="46.72513" lon="-1.96731">
        <ele>12.8</ele>
        <time>2025-01-22T10:37:45.272Z</time>
      </trkpt>
      <trkpt lat="46.72511" lon="-1.9673">
        <ele>12.6</ele>
        <time>2025-01-22T10:37:46.273Z</time>
      </trkpt>
      <trkpt lat="46.72509" lon="-1.96731">
        <ele>12.4</ele>
        <time>2025-01-22T10:37:47.273Z</time>
      </trkpt>
      <trkpt lat="46.72507" lon="-1.96731">
        <ele>12.1</ele>
        <time>2025-01-22T10:37:48.273Z</time>
      </trkpt>
      <trkpt lat="46.72505" lon="-1.96731">
        <ele>12</ele>
        <time>2025-01-22T10:37:49.272Z</time>
      </trkpt>
      <trkpt lat="46.72503" lon="-1.9673">
        <ele>12</ele>
        <time>2025-01-22T10:37:50.272Z</time>
      </trkpt>
      <trkpt lat="46.72501" lon="-1.96729">
        <ele>11.8</ele>
        <time>2025-01-22T10:37:51.273Z</time>
      </trkpt>
      <trkpt lat="46.72499" lon="-1.96729">
        <ele>11.6</ele>
        <time>2025-01-22T10:37:52.273Z</time>
      </trkpt>
      <trkpt lat="46.72497" lon="-1.9673">
        <ele>11.3</ele>
        <time>2025-01-22T10:37:53.273Z</time>
      </trkpt>
      <trkpt lat="46.72495" lon="-1.9673">
        <ele>11</ele>
        <time>2025-01-22T10:37:54.272Z</time>
      </trkpt>
      <trkpt lat="46.72492" lon="-1.96729">
        <ele>10.8</ele>
        <time>2025-01-22T10:37:55.273Z</time>
      </trkpt>
      <trkpt lat="46.72491" lon="-1.9673">
        <ele>10.6</ele>
        <time>2025-01-22T10:37:56.272Z</time>
      </trkpt>
      <trkpt lat="46.72489" lon="-1.9673">
        <ele>10.4</ele>
        <time>2025-01-22T10:37:57.273Z</time>
      </trkpt>
      <trkpt lat="46.72487" lon="-1.9673">
        <ele>10.1</ele>
        <time>2025-01-22T10:37:58.272Z</time>
      </trkpt>
      <trkpt lat="46.72484" lon="-1.9673">
        <ele>9.9</ele>
        <time>2025-01-22T10:37:59.272Z</time>
      </trkpt>
      <trkpt lat="46.72482" lon="-1.96729">
        <ele>9.7</ele>
        <time>2025-01-22T10:38:00.273Z</time>
      </trkpt>
      <trkpt lat="46.72479" lon="-1.96729">
        <ele>9.4</ele>
        <time>2025-01-22T10:38:01.272Z</time>
      </trkpt>
      <trkpt lat="46.72476" lon="-1.96729">
        <ele>9</ele>
        <time>2025-01-22T10:38:02.273Z</time>
      </trkpt>
      <trkpt lat="46.72473" lon="-1.96729">
        <ele>8.7</ele>
        <time>2025-01-22T10:38:03.272Z</time>
      </trkpt>
      <trkpt lat="46.7247" lon="-1.96731">
        <ele>8.3</ele>
        <time>2025-01-22T10:38:04.272Z</time>
      </trkpt>
      <trkpt lat="46.72467" lon="-1.96734">
        <ele>8.2</ele>
        <time>2025-01-22T10:38:05.272Z</time>
      </trkpt>
      <trkpt lat="46.72465" lon="-1.96737">
        <ele>8</ele>
        <time>2025-01-22T10:38:06.272Z</time>
      </trkpt>
      <trkpt lat="46.72464" lon="-1.96739">
        <ele>7.8</ele>
        <time>2025-01-22T10:38:07.273Z</time>
      </trkpt>
      <trkpt lat="46.72464" lon="-1.96742">
        <ele>7.7</ele>
        <time>2025-01-22T10:38:08.273Z</time>
      </trkpt>
      <trkpt lat="46.72463" lon="-1.96745">
        <ele>7.6</ele>
        <time>2025-01-22T10:38:09.272Z</time>
      </trkpt>
      <trkpt lat="46.72463" lon="-1.96748">
        <ele>7.4</ele>
        <time>2025-01-22T10:38:10.273Z</time>
      </trkpt>
      <trkpt lat="46.72464" lon="-1.96751">
        <ele>7.3</ele>
        <time>2025-01-22T10:38:11.273Z</time>
      </trkpt>
      <trkpt lat="46.72464" lon="-1.96754">
        <ele>7.3</ele>
        <time>2025-01-22T10:38:12.272Z</time>
      </trkpt>
      <trkpt lat="46.72464" lon="-1.96757">
        <ele>7.3</ele>
        <time>2025-01-22T10:38:13.272Z</time>
      </trkpt>
      <trkpt lat="46.72466" lon="-1.96759">
        <ele>7.2</ele>
        <time>2025-01-22T10:38:14.272Z</time>
      </trkpt>
      <trkpt lat="46.72467" lon="-1.96761">
        <ele>7.2</ele>
        <time>2025-01-22T10:38:15.272Z</time>
      </trkpt>
      <trkpt lat="46.72469" lon="-1.96764">
        <ele>7.1</ele>
        <time>2025-01-22T10:38:16.273Z</time>
      </trkpt>
      <trkpt lat="46.72471" lon="-1.96766">
        <ele>7.1</ele>
        <time>2025-01-22T10:38:17.273Z</time>
      </trkpt>
      <trkpt lat="46.72473" lon="-1.96769">
        <ele>7</ele>
        <time>2025-01-22T10:38:18.273Z</time>
      </trkpt>
      <trkpt lat="46.72475" lon="-1.96772">
        <ele>7</ele>
        <time>2025-01-22T10:38:19.272Z</time>
      </trkpt>
      <trkpt lat="46.72476" lon="-1.96775">
        <ele>7</ele>
        <time>2025-01-22T10:38:20.272Z</time>
      </trkpt>
      <trkpt lat="46.72478" lon="-1.96778">
        <ele>7</ele>
        <time>2025-01-22T10:38:21.272Z</time>
      </trkpt>
      <trkpt lat="46.7248" lon="-1.96782">
        <ele>7</ele>
        <time>2025-01-22T10:38:22.273Z</time>
      </trkpt>
      <trkpt lat="46.72481" lon="-1.96786">
        <ele>7</ele>
        <time>2025-01-22T10:38:23.272Z</time>
      </trkpt>
      <trkpt lat="46.72482" lon="-1.96791">
        <ele>7</ele>
        <time>2025-01-22T10:38:24.272Z</time>
      </trkpt>
      <trkpt lat="46.72484" lon="-1.96793">
        <ele>7</ele>
        <time>2025-01-22T10:38:25.272Z</time>
      </trkpt>
      <trkpt lat="46.72485" lon="-1.96795">
        <ele>7</ele>
        <time>2025-01-22T10:38:26.273Z</time>
      </trkpt>
      <trkpt lat="46.72487" lon="-1.96799">
        <ele>7</ele>
        <time>2025-01-22T10:38:27.273Z</time>
      </trkpt>
      <trkpt lat="46.7249" lon="-1.96802">
        <ele>7</ele>
        <time>2025-01-22T10:38:28.272Z</time>
      </trkpt>
      <trkpt lat="46.72492" lon="-1.96805">
        <ele>7</ele>
        <time>2025-01-22T10:38:29.273Z</time>
      </trkpt>
      <trkpt lat="46.72494" lon="-1.96807">
        <ele>7</ele>
        <time>2025-01-22T10:38:30.273Z</time>
      </trkpt>
      <trkpt lat="46.72496" lon="-1.96811">
        <ele>7</ele>
        <time>2025-01-22T10:38:31.273Z</time>
      </trkpt>
      <trkpt lat="46.72498" lon="-1.96814">
        <ele>7</ele>
        <time>2025-01-22T10:38:32.273Z</time>
      </trkpt>
      <trkpt lat="46.72499" lon="-1.96817">
        <ele>7</ele>
        <time>2025-01-22T10:38:33.272Z</time>
      </trkpt>
      <trkpt lat="46.72501" lon="-1.9682">
        <ele>7</ele>
        <time>2025-01-22T10:38:34.272Z</time>
      </trkpt>
      <trkpt lat="46.72502" lon="-1.96824">
        <ele>7</ele>
        <time>2025-01-22T10:38:35.272Z</time>
      </trkpt>
      <trkpt lat="46.72503" lon="-1.96828">
        <ele>7</ele>
        <time>2025-01-22T10:38:36.272Z</time>
      </trkpt>
      <trkpt lat="46.72505" lon="-1.96831">
        <ele>7</ele>
        <time>2025-01-22T10:38:37.273Z</time>
      </trkpt>
      <trkpt lat="46.72508" lon="-1.96834">
        <ele>7</ele>
        <time>2025-01-22T10:38:38.272Z</time>
      </trkpt>
      <trkpt lat="46.72509" lon="-1.96836">
        <ele>7</ele>
        <time>2025-01-22T10:38:39.272Z</time>
      </trkpt>
      <trkpt lat="46.72511" lon="-1.96839">
        <ele>7</ele>
        <time>2025-01-22T10:38:40.273Z</time>
      </trkpt>
      <trkpt lat="46.72512" lon="-1.96841">
        <ele>7</ele>
        <time>2025-01-22T10:38:41.273Z</time>
      </trkpt>
      <trkpt lat="46.72514" lon="-1.96843">
        <ele>7</ele>
        <time>2025-01-22T10:38:42.273Z</time>
      </trkpt>
      <trkpt lat="46.72515" lon="-1.96846">
        <ele>7</ele>
        <time>2025-01-22T10:38:43.273Z</time>
      </trkpt>
      <trkpt lat="46.72517" lon="-1.9685">
        <ele>7</ele>
        <time>2025-01-22T10:38:44.273Z</time>
      </trkpt>
      <trkpt lat="46.72519" lon="-1.96854">
        <ele>7</ele>
        <time>2025-01-22T10:38:45.272Z</time>
      </trkpt>
      <trkpt lat="46.72522" lon="-1.96858">
        <ele>7</ele>
        <time>2025-01-22T10:38:46.273Z</time>
      </trkpt>
      <trkpt lat="46.72526" lon="-1.96865">
        <ele>7</ele>
        <time>2025-01-22T10:38:47.273Z</time>
      </trkpt>
      <trkpt lat="46.7253" lon="-1.96868">
        <ele>7</ele>
        <time>2025-01-22T10:38:48.273Z</time>
      </trkpt>
      <trkpt lat="46.72533" lon="-1.9687">
        <ele>7</ele>
        <time>2025-01-22T10:38:49.272Z</time>
      </trkpt>
      <trkpt lat="46.72535" lon="-1.96874">
        <ele>7</ele>
        <time>2025-01-22T10:38:50.272Z</time>
      </trkpt>
      <trkpt lat="46.72536" lon="-1.96877">
        <ele>7</ele>
        <time>2025-01-22T10:38:51.272Z</time>
      </trkpt>
      <trkpt lat="46.7254" lon="-1.96881">
        <ele>7</ele>
        <time>2025-01-22T10:38:52.273Z</time>
      </trkpt>
      <trkpt lat="46.72541" lon="-1.96885">
        <ele>7</ele>
        <time>2025-01-22T10:38:53.273Z</time>
      </trkpt>
      <trkpt lat="46.72545" lon="-1.9689">
        <ele>7</ele>
        <time>2025-01-22T10:38:54.272Z</time>
      </trkpt>
      <trkpt lat="46.72547" lon="-1.96896">
        <ele>6.9</ele>
        <time>2025-01-22T10:38:55.273Z</time>
      </trkpt>
      <trkpt lat="46.7255" lon="-1.96901">
        <ele>6.9</ele>
        <time>2025-01-22T10:38:56.273Z</time>
      </trkpt>
      <trkpt lat="46.72553" lon="-1.96905">
        <ele>6.9</ele>
        <time>2025-01-22T10:38:57.272Z</time>
      </trkpt>
      <trkpt lat="46.72555" lon="-1.96907">
        <ele>7</ele>
        <time>2025-01-22T10:38:58.272Z</time>
      </trkpt>
      <trkpt lat="46.72555" lon="-1.96908">
        <ele>7</ele>
        <time>2025-01-22T10:38:59.273Z</time>
      </trkpt>
      <trkpt lat="46.72556" lon="-1.96909">
        <ele>7</ele>
        <time>2025-01-22T10:39:00.273Z</time>
      </trkpt>
      <trkpt lat="46.72555" lon="-1.9691">
        <ele>7</ele>
        <time>2025-01-22T10:39:01.273Z</time>
      </trkpt>
      <trkpt lat="46.72555" lon="-1.96912">
        <ele>7</ele>
        <time>2025-01-22T10:39:02.273Z</time>
      </trkpt>
      <trkpt lat="46.72556" lon="-1.96913">
        <ele>7</ele>
        <time>2025-01-22T10:39:03.272Z</time>
      </trkpt>
      <trkpt lat="46.72556" lon="-1.96914">
        <ele>7</ele>
        <time>2025-01-22T10:39:04.272Z</time>
      </trkpt>
      <trkpt lat="46.72558" lon="-1.96916">
        <ele>7</ele>
        <time>2025-01-22T10:39:05.272Z</time>
      </trkpt>
      <trkpt lat="46.72559" lon="-1.96918">
        <ele>7</ele>
        <time>2025-01-22T10:39:06.273Z</time>
      </trkpt>
      <trkpt lat="46.72561" lon="-1.9692">
        <ele>6.9</ele>
        <time>2025-01-22T10:39:07.272Z</time>
      </trkpt>
      <trkpt lat="46.72561" lon="-1.96922">
        <ele>6.9</ele>
        <time>2025-01-22T10:39:08.272Z</time>
      </trkpt>
      <trkpt lat="46.72562" lon="-1.96925">
        <ele>6.8</ele>
        <time>2025-01-22T10:39:09.272Z</time>
      </trkpt>
      <trkpt lat="46.72564" lon="-1.96927">
        <ele>6.8</ele>
        <time>2025-01-22T10:39:10.273Z</time>
      </trkpt>
      <trkpt lat="46.72566" lon="-1.9693">
        <ele>6.9</ele>
        <time>2025-01-22T10:39:11.273Z</time>
      </trkpt>
      <trkpt lat="46.72568" lon="-1.96933">
        <ele>6.9</ele>
        <time>2025-01-22T10:39:12.273Z</time>
      </trkpt>
      <trkpt lat="46.7257" lon="-1.96936">
        <ele>7</ele>
        <time>2025-01-22T10:39:13.272Z</time>
      </trkpt>
      <trkpt lat="46.72571" lon="-1.96938">
        <ele>7.1</ele>
        <time>2025-01-22T10:39:14.272Z</time>
      </trkpt>
      <trkpt lat="46.72572" lon="-1.96939">
        <ele>7.2</ele>
        <time>2025-01-22T10:39:15.272Z</time>
      </trkpt>
      <trkpt lat="46.72574" lon="-1.96941">
        <ele>7.3</ele>
        <time>2025-01-22T10:39:16.272Z</time>
      </trkpt>
      <trkpt lat="46.72574" lon="-1.96943">
        <ele>7.3</ele>
        <time>2025-01-22T10:39:17.272Z</time>
      </trkpt>
      <trkpt lat="46.72575" lon="-1.96945">
        <ele>7.4</ele>
        <time>2025-01-22T10:39:18.273Z</time>
      </trkpt>
      <trkpt lat="46.72575" lon="-1.96948">
        <ele>7.5</ele>
        <time>2025-01-22T10:39:19.272Z</time>
      </trkpt>
      <trkpt lat="46.72575" lon="-1.96951">
        <ele>7.6</ele>
        <time>2025-01-22T10:39:20.273Z</time>
      </trkpt>
      <trkpt lat="46.72575" lon="-1.96953">
        <ele>7.6</ele>
        <time>2025-01-22T10:39:21.273Z</time>
      </trkpt>
      <trkpt lat="46.72574" lon="-1.96954">
        <ele>7.5</ele>
        <time>2025-01-22T10:39:22.273Z</time>
      </trkpt>
      <trkpt lat="46.72572" lon="-1.96957">
        <ele>7.4</ele>
        <time>2025-01-22T10:39:23.272Z</time>
      </trkpt>
      <trkpt lat="46.72571" lon="-1.96961">
        <ele>7.4</ele>
        <time>2025-01-22T10:39:24.272Z</time>
      </trkpt>
      <trkpt lat="46.72569" lon="-1.96966">
        <ele>7.3</ele>
        <time>2025-01-22T10:39:25.272Z</time>
      </trkpt>
      <trkpt lat="46.72568" lon="-1.9697">
        <ele>7.3</ele>
        <time>2025-01-22T10:39:26.272Z</time>
      </trkpt>
      <trkpt lat="46.72568" lon="-1.96973">
        <ele>7.3</ele>
        <time>2025-01-22T10:39:27.273Z</time>
      </trkpt>
      <trkpt lat="46.72568" lon="-1.96976">
        <ele>7.4</ele>
        <time>2025-01-22T10:39:28.273Z</time>
      </trkpt>
      <trkpt lat="46.72569" lon="-1.96979">
        <ele>7.5</ele>
        <time>2025-01-22T10:39:29.273Z</time>
      </trkpt>
      <trkpt lat="46.72569" lon="-1.96982">
        <ele>7.6</ele>
        <time>2025-01-22T10:39:30.272Z</time>
      </trkpt>
      <trkpt lat="46.7257" lon="-1.96984">
        <ele>7.7</ele>
        <time>2025-01-22T10:39:31.272Z</time>
      </trkpt>
      <trkpt lat="46.72569" lon="-1.96986">
        <ele>7.7</ele>
        <time>2025-01-22T10:39:32.272Z</time>
      </trkpt>
      <trkpt lat="46.72568" lon="-1.96988">
        <ele>7.6</ele>
        <time>2025-01-22T10:39:33.272Z</time>
      </trkpt>
      <trkpt lat="46.72566" lon="-1.96991">
        <ele>7.6</ele>
        <time>2025-01-22T10:39:34.273Z</time>
      </trkpt>
      <trkpt lat="46.72566" lon="-1.96993">
        <ele>7.6</ele>
        <time>2025-01-22T10:39:35.273Z</time>
      </trkpt>
      <trkpt lat="46.72565" lon="-1.96995">
        <ele>7.6</ele>
        <time>2025-01-22T10:39:36.273Z</time>
      </trkpt>
      <trkpt lat="46.72565" lon="-1.96998">
        <ele>7.6</ele>
        <time>2025-01-22T10:39:37.273Z</time>
      </trkpt>
      <trkpt lat="46.72565" lon="-1.97001">
        <ele>7.7</ele>
        <time>2025-01-22T10:39:38.273Z</time>
      </trkpt>
      <trkpt lat="46.72566" lon="-1.97004">
        <ele>7.7</ele>
        <time>2025-01-22T10:39:39.273Z</time>
      </trkpt>
      <trkpt lat="46.72566" lon="-1.97007">
        <ele>7.7</ele>
        <time>2025-01-22T10:39:40.272Z</time>
      </trkpt>
      <trkpt lat="46.72566" lon="-1.97012">
        <ele>7.6</ele>
        <time>2025-01-22T10:39:41.272Z</time>
      </trkpt>
      <trkpt lat="46.72566" lon="-1.97016">
        <ele>7.5</ele>
        <time>2025-01-22T10:39:42.273Z</time>
      </trkpt>
      <trkpt lat="46.72566" lon="-1.9702">
        <ele>7.5</ele>
        <time>2025-01-22T10:39:43.273Z</time>
      </trkpt>
      <trkpt lat="46.72566" lon="-1.97024">
        <ele>7.4</ele>
        <time>2025-01-22T10:39:44.272Z</time>
      </trkpt>
      <trkpt lat="46.72566" lon="-1.97027">
        <ele>7.4</ele>
        <time>2025-01-22T10:39:45.272Z</time>
      </trkpt>
      <trkpt lat="46.72566" lon="-1.9703">
        <ele>7.3</ele>
        <time>2025-01-22T10:39:46.273Z</time>
      </trkpt>
      <trkpt lat="46.72567" lon="-1.97033">
        <ele>7.2</ele>
        <time>2025-01-22T10:39:47.272Z</time>
      </trkpt>
      <trkpt lat="46.72567" lon="-1.97036">
        <ele>7.2</ele>
        <time>2025-01-22T10:39:48.273Z</time>
      </trkpt>
      <trkpt lat="46.72567" lon="-1.97039">
        <ele>7.1</ele>
        <time>2025-01-22T10:39:49.273Z</time>
      </trkpt>
      <trkpt lat="46.72568" lon="-1.97042">
        <ele>7</ele>
        <time>2025-01-22T10:39:50.273Z</time>
      </trkpt>
      <trkpt lat="46.72568" lon="-1.97045">
        <ele>6.9</ele>
        <time>2025-01-22T10:39:51.273Z</time>
      </trkpt>
      <trkpt lat="46.72568" lon="-1.97048">
        <ele>6.8</ele>
        <time>2025-01-22T10:39:52.272Z</time>
      </trkpt>
      <trkpt lat="46.72568" lon="-1.97051">
        <ele>6.7</ele>
        <time>2025-01-22T10:39:53.273Z</time>
      </trkpt>
      <trkpt lat="46.72568" lon="-1.97054">
        <ele>6.6</ele>
        <time>2025-01-22T10:39:54.272Z</time>
      </trkpt>
      <trkpt lat="46.72567" lon="-1.97058">
        <ele>6.5</ele>
        <time>2025-01-22T10:39:55.272Z</time>
      </trkpt>
      <trkpt lat="46.72567" lon="-1.97061">
        <ele>6.5</ele>
        <time>2025-01-22T10:39:56.273Z</time>
      </trkpt>
      <trkpt lat="46.72567" lon="-1.97065">
        <ele>6.4</ele>
        <time>2025-01-22T10:39:57.273Z</time>
      </trkpt>
      <trkpt lat="46.72566" lon="-1.9707">
        <ele>6.3</ele>
        <time>2025-01-22T10:39:58.273Z</time>
      </trkpt>
      <trkpt lat="46.72566" lon="-1.97075">
        <ele>6.2</ele>
        <time>2025-01-22T10:39:59.272Z</time>
      </trkpt>
      <trkpt lat="46.72565" lon="-1.97079">
        <ele>6.1</ele>
        <time>2025-01-22T10:40:00.272Z</time>
      </trkpt>
      <trkpt lat="46.72564" lon="-1.97082">
        <ele>6</ele>
        <time>2025-01-22T10:40:01.272Z</time>
      </trkpt>
      <trkpt lat="46.72563" lon="-1.97085">
        <ele>6</ele>
        <time>2025-01-22T10:40:02.273Z</time>
      </trkpt>
      <trkpt lat="46.72562" lon="-1.97088">
        <ele>6</ele>
        <time>2025-01-22T10:40:03.273Z</time>
      </trkpt>
      <trkpt lat="46.72562" lon="-1.97091">
        <ele>6</ele>
        <time>2025-01-22T10:40:04.273Z</time>
      </trkpt>
      <trkpt lat="46.72562" lon="-1.97094">
        <ele>6</ele>
        <time>2025-01-22T10:40:05.273Z</time>
      </trkpt>
      <trkpt lat="46.72563" lon="-1.97098">
        <ele>6</ele>
        <time>2025-01-22T10:40:06.273Z</time>
      </trkpt>
      <trkpt lat="46.72564" lon="-1.97102">
        <ele>6</ele>
        <time>2025-01-22T10:40:07.272Z</time>
      </trkpt>
      <trkpt lat="46.72565" lon="-1.97106">
        <ele>6</ele>
        <time>2025-01-22T10:40:08.272Z</time>
      </trkpt>
      <trkpt lat="46.72566" lon="-1.9711">
        <ele>6</ele>
        <time>2025-01-22T10:40:09.272Z</time>
      </trkpt>
      <trkpt lat="46.72565" lon="-1.97113">
        <ele>6</ele>
        <time>2025-01-22T10:40:10.273Z</time>
      </trkpt>
      <trkpt lat="46.72564" lon="-1.97116">
        <ele>6.1</ele>
        <time>2025-01-22T10:40:11.272Z</time>
      </trkpt>
      <trkpt lat="46.72563" lon="-1.97121">
        <ele>6.3</ele>
        <time>2025-01-22T10:40:12.272Z</time>
      </trkpt>
      <trkpt lat="46.72562" lon="-1.97125">
        <ele>6.4</ele>
        <time>2025-01-22T10:40:13.272Z</time>
      </trkpt>
      <trkpt lat="46.72561" lon="-1.9713">
        <ele>6.6</ele>
        <time>2025-01-22T10:40:14.273Z</time>
      </trkpt>
      <trkpt lat="46.7256" lon="-1.97134">
        <ele>6.7</ele>
        <time>2025-01-22T10:40:15.273Z</time>
      </trkpt>
      <trkpt lat="46.7256" lon="-1.97138">
        <ele>6.8</ele>
        <time>2025-01-22T10:40:16.273Z</time>
      </trkpt>
      <trkpt lat="46.72559" lon="-1.9714">
        <ele>6.8</ele>
        <time>2025-01-22T10:40:17.273Z</time>
      </trkpt>
      <trkpt lat="46.72559" lon="-1.97143">
        <ele>6.8</ele>
        <time>2025-01-22T10:40:18.273Z</time>
      </trkpt>
      <trkpt lat="46.72559" lon="-1.97145">
        <ele>6.7</ele>
        <time>2025-01-22T10:40:19.272Z</time>
      </trkpt>
      <trkpt lat="46.72559" lon="-1.97148">
        <ele>6.6</ele>
        <time>2025-01-22T10:40:20.272Z</time>
      </trkpt>
      <trkpt lat="46.72559" lon="-1.97152">
        <ele>6.5</ele>
        <time>2025-01-22T10:40:21.272Z</time>
      </trkpt>
      <trkpt lat="46.72558" lon="-1.97157">
        <ele>6.3</ele>
        <time>2025-01-22T10:40:22.272Z</time>
      </trkpt>
      <trkpt lat="46.72558" lon="-1.97161">
        <ele>6.2</ele>
        <time>2025-01-22T10:40:23.273Z</time>
      </trkpt>
      <trkpt lat="46.72558" lon="-1.97166">
        <ele>6</ele>
        <time>2025-01-22T10:40:24.272Z</time>
      </trkpt>
      <trkpt lat="46.72558" lon="-1.97169">
        <ele>6</ele>
        <time>2025-01-22T10:40:25.273Z</time>
      </trkpt>
      <trkpt lat="46.72558" lon="-1.97173">
        <ele>6</ele>
        <time>2025-01-22T10:40:26.273Z</time>
      </trkpt>
      <trkpt lat="46.72558" lon="-1.97177">
        <ele>6</ele>
        <time>2025-01-22T10:40:27.273Z</time>
      </trkpt>
      <trkpt lat="46.72558" lon="-1.97182">
        <ele>6</ele>
        <time>2025-01-22T10:40:28.273Z</time>
      </trkpt>
      <trkpt lat="46.72558" lon="-1.97185">
        <ele>6</ele>
        <time>2025-01-22T10:40:29.272Z</time>
      </trkpt>
      <trkpt lat="46.72558" lon="-1.97188">
        <ele>6</ele>
        <time>2025-01-22T10:40:30.272Z</time>
      </trkpt>
      <trkpt lat="46.72557" lon="-1.97191">
        <ele>6</ele>
        <time>2025-01-22T10:40:31.272Z</time>
      </trkpt>
      <trkpt lat="46.72556" lon="-1.97193">
        <ele>6</ele>
        <time>2025-01-22T10:40:32.273Z</time>
      </trkpt>
      <trkpt lat="46.72556" lon="-1.97196">
        <ele>6</ele>
        <time>2025-01-22T10:40:33.272Z</time>
      </trkpt>
      <trkpt lat="46.72556" lon="-1.97198">
        <ele>6</ele>
        <time>2025-01-22T10:40:34.272Z</time>
      </trkpt>
      <trkpt lat="46.72557" lon="-1.97201">
        <ele>6</ele>
        <time>2025-01-22T10:40:35.272Z</time>
      </trkpt>
      <trkpt lat="46.72557" lon="-1.97204">
        <ele>6</ele>
        <time>2025-01-22T10:40:36.272Z</time>
      </trkpt>
      <trkpt lat="46.72557" lon="-1.97209">
        <ele>6</ele>
        <time>2025-01-22T10:40:37.272Z</time>
      </trkpt>
      <trkpt lat="46.72558" lon="-1.97214">
        <ele>6</ele>
        <time>2025-01-22T10:40:38.272Z</time>
      </trkpt>
      <trkpt lat="46.72558" lon="-1.97217">
        <ele>6</ele>
        <time>2025-01-22T10:40:39.273Z</time>
      </trkpt>
      <trkpt lat="46.72557" lon="-1.97221">
        <ele>6</ele>
        <time>2025-01-22T10:40:40.273Z</time>
      </trkpt>
      <trkpt lat="46.72557" lon="-1.97224">
        <ele>6</ele>
        <time>2025-01-22T10:40:41.273Z</time>
      </trkpt>
      <trkpt lat="46.72555" lon="-1.97227">
        <ele>6</ele>
        <time>2025-01-22T10:40:42.273Z</time>
      </trkpt>
      <trkpt lat="46.72554" lon="-1.9723">
        <ele>6</ele>
        <time>2025-01-22T10:40:43.273Z</time>
      </trkpt>
      <trkpt lat="46.72553" lon="-1.97234">
        <ele>6</ele>
        <time>2025-01-22T10:40:44.272Z</time>
      </trkpt>
      <trkpt lat="46.72553" lon="-1.97237">
        <ele>6</ele>
        <time>2025-01-22T10:40:45.272Z</time>
      </trkpt>
      <trkpt lat="46.72552" lon="-1.9724">
        <ele>6</ele>
        <time>2025-01-22T10:40:46.272Z</time>
      </trkpt>
      <trkpt lat="46.72551" lon="-1.97244">
        <ele>6</ele>
        <time>2025-01-22T10:40:47.272Z</time>
      </trkpt>
      <trkpt lat="46.72551" lon="-1.97248">
        <ele>6</ele>
        <time>2025-01-22T10:40:48.272Z</time>
      </trkpt>
      <trkpt lat="46.7255" lon="-1.97252">
        <ele>6</ele>
        <time>2025-01-22T10:40:49.272Z</time>
      </trkpt>
      <trkpt lat="46.7255" lon="-1.97256">
        <ele>6</ele>
        <time>2025-01-22T10:40:50.273Z</time>
      </trkpt>
      <trkpt lat="46.7255" lon="-1.97259">
        <ele>6</ele>
        <time>2025-01-22T10:40:51.273Z</time>
      </trkpt>
      <trkpt lat="46.72551" lon="-1.97263">
        <ele>6</ele>
        <time>2025-01-22T10:40:52.273Z</time>
      </trkpt>
      <trkpt lat="46.72552" lon="-1.97268">
        <ele>6</ele>
        <time>2025-01-22T10:40:53.272Z</time>
      </trkpt>
      <trkpt lat="46.72554" lon="-1.97273">
        <ele>6</ele>
        <time>2025-01-22T10:40:54.272Z</time>
      </trkpt>
      <trkpt lat="46.72555" lon="-1.97277">
        <ele>6</ele>
        <time>2025-01-22T10:40:55.272Z</time>
      </trkpt>
      <trkpt lat="46.72556" lon="-1.97281">
        <ele>6</ele>
        <time>2025-01-22T10:40:56.272Z</time>
      </trkpt>
      <trkpt lat="46.72558" lon="-1.97284">
        <ele>6.1</ele>
        <time>2025-01-22T10:40:57.272Z</time>
      </trkpt>
      <trkpt lat="46.7256" lon="-1.97285">
        <ele>6.2</ele>
        <time>2025-01-22T10:40:58.272Z</time>
      </trkpt>
      <trkpt lat="46.72562" lon="-1.97286">
        <ele>6.2</ele>
        <time>2025-01-22T10:40:59.272Z</time>
      </trkpt>
      <trkpt lat="46.72565" lon="-1.97288">
        <ele>6.3</ele>
        <time>2025-01-22T10:41:00.273Z</time>
      </trkpt>
      <trkpt lat="46.72568" lon="-1.97289">
        <ele>6.4</ele>
        <time>2025-01-22T10:41:01.273Z</time>
      </trkpt>
      <trkpt lat="46.72571" lon="-1.9729">
        <ele>6.5</ele>
        <time>2025-01-22T10:41:02.273Z</time>
      </trkpt>
      <trkpt lat="46.72573" lon="-1.97291">
        <ele>6.6</ele>
        <time>2025-01-22T10:41:03.273Z</time>
      </trkpt>
      <trkpt lat="46.72575" lon="-1.97291">
        <ele>6.7</ele>
        <time>2025-01-22T10:41:04.273Z</time>
      </trkpt>
      <trkpt lat="46.72578" lon="-1.97291">
        <ele>6.8</ele>
        <time>2025-01-22T10:41:05.273Z</time>
      </trkpt>
      <trkpt lat="46.72581" lon="-1.97291">
        <ele>6.9</ele>
        <time>2025-01-22T10:41:06.272Z</time>
      </trkpt>
      <trkpt lat="46.72583" lon="-1.97291">
        <ele>7</ele>
        <time>2025-01-22T10:41:07.272Z</time>
      </trkpt>
      <trkpt lat="46.72586" lon="-1.9729">
        <ele>7</ele>
        <time>2025-01-22T10:41:08.272Z</time>
      </trkpt>
      <trkpt lat="46.72588" lon="-1.9729">
        <ele>6.9</ele>
        <time>2025-01-22T10:41:09.272Z</time>
      </trkpt>
      <trkpt lat="46.7259" lon="-1.9729">
        <ele>6.9</ele>
        <time>2025-01-22T10:41:10.272Z</time>
      </trkpt>
      <trkpt lat="46.72593" lon="-1.9729">
        <ele>6.8</ele>
        <time>2025-01-22T10:41:11.273Z</time>
      </trkpt>
      <trkpt lat="46.72594" lon="-1.9729">
        <ele>6.8</ele>
        <time>2025-01-22T10:41:12.273Z</time>
      </trkpt>
      <trkpt lat="46.72597" lon="-1.9729">
        <ele>6.7</ele>
        <time>2025-01-22T10:41:13.273Z</time>
      </trkpt>
      <trkpt lat="46.72599" lon="-1.97291">
        <ele>6.7</ele>
        <time>2025-01-22T10:41:14.273Z</time>
      </trkpt>
      <trkpt lat="46.72602" lon="-1.97293">
        <ele>6.7</ele>
        <time>2025-01-22T10:41:15.272Z</time>
      </trkpt>
      <trkpt lat="46.72604" lon="-1.97295">
        <ele>6.7</ele>
        <time>2025-01-22T10:41:16.272Z</time>
      </trkpt>
      <trkpt lat="46.72607" lon="-1.97296">
        <ele>6.7</ele>
        <time>2025-01-22T10:41:17.272Z</time>
      </trkpt>
      <trkpt lat="46.7261" lon="-1.97297">
        <ele>6.7</ele>
        <time>2025-01-22T10:41:18.273Z</time>
      </trkpt>
      <trkpt lat="46.72612" lon="-1.97297">
        <ele>6.6</ele>
        <time>2025-01-22T10:41:19.273Z</time>
      </trkpt>
      <trkpt lat="46.72615" lon="-1.97298">
        <ele>6.6</ele>
        <time>2025-01-22T10:41:20.273Z</time>
      </trkpt>
      <trkpt lat="46.72619" lon="-1.97296">
        <ele>6.4</ele>
        <time>2025-01-22T10:41:21.273Z</time>
      </trkpt>
      <trkpt lat="46.72623" lon="-1.97294">
        <ele>6.1</ele>
        <time>2025-01-22T10:41:22.272Z</time>
      </trkpt>
      <trkpt lat="46.72627" lon="-1.97293">
        <ele>6</ele>
        <time>2025-01-22T10:41:23.272Z</time>
      </trkpt>
      <trkpt lat="46.72631" lon="-1.97294">
        <ele>5.9</ele>
        <time>2025-01-22T10:41:24.272Z</time>
      </trkpt>
      <trkpt lat="46.72632" lon="-1.97296">
        <ele>5.9</ele>
        <time>2025-01-22T10:41:25.272Z</time>
      </trkpt>
      <trkpt lat="46.72635" lon="-1.97296">
        <ele>5.8</ele>
        <time>2025-01-22T10:41:26.272Z</time>
      </trkpt>
      <trkpt lat="46.72637" lon="-1.97296">
        <ele>5.7</ele>
        <time>2025-01-22T10:41:27.273Z</time>
      </trkpt>
      <trkpt lat="46.72638" lon="-1.97294">
        <ele>5.6</ele>
        <time>2025-01-22T10:41:28.273Z</time>
      </trkpt>
      <trkpt lat="46.72639" lon="-1.97291">
        <ele>5.5</ele>
        <time>2025-01-22T10:41:29.272Z</time>
      </trkpt>
      <trkpt lat="46.72641" lon="-1.97289">
        <ele>5.4</ele>
        <time>2025-01-22T10:41:30.273Z</time>
      </trkpt>
      <trkpt lat="46.72641" lon="-1.97288">
        <ele>5.4</ele>
        <time>2025-01-22T10:41:31.272Z</time>
      </trkpt>
      <trkpt lat="46.72643" lon="-1.97287">
        <ele>5.3</ele>
        <time>2025-01-22T10:41:32.272Z</time>
      </trkpt>
      <trkpt lat="46.72644" lon="-1.97288">
        <ele>5.4</ele>
        <time>2025-01-22T10:41:33.272Z</time>
      </trkpt>
      <trkpt lat="46.72646" lon="-1.97288">
        <ele>5.4</ele>
        <time>2025-01-22T10:41:34.273Z</time>
      </trkpt>
      <trkpt lat="46.72649" lon="-1.97289">
        <ele>5.4</ele>
        <time>2025-01-22T10:41:35.273Z</time>
      </trkpt>
      <trkpt lat="46.72651" lon="-1.9729">
        <ele>5.4</ele>
        <time>2025-01-22T10:41:36.273Z</time>
      </trkpt>
      <trkpt lat="46.7265" lon="-1.97288">
        <ele>5.4</ele>
        <time>2025-01-22T10:41:37.272Z</time>
      </trkpt>
      <trkpt lat="46.72652" lon="-1.97289">
        <ele>5.4</ele>
        <time>2025-01-22T10:41:38.272Z</time>
      </trkpt>
      <trkpt lat="46.72653" lon="-1.97289">
        <ele>5.4</ele>
        <time>2025-01-22T10:41:39.272Z</time>
      </trkpt>
      <trkpt lat="46.72655" lon="-1.9729">
        <ele>5.4</ele>
        <time>2025-01-22T10:41:40.272Z</time>
      </trkpt>
      <trkpt lat="46.72656" lon="-1.97291">
        <ele>5.5</ele>
        <time>2025-01-22T10:41:41.273Z</time>
      </trkpt>
      <trkpt lat="46.72658" lon="-1.97293">
        <ele>5.5</ele>
        <time>2025-01-22T10:41:42.273Z</time>
      </trkpt>
      <trkpt lat="46.7266" lon="-1.97295">
        <ele>5.6</ele>
        <time>2025-01-22T10:41:43.273Z</time>
      </trkpt>
      <trkpt lat="46.72661" lon="-1.97297">
        <ele>5.7</ele>
        <time>2025-01-22T10:41:44.272Z</time>
      </trkpt>
      <trkpt lat="46.72662" lon="-1.97299">
        <ele>5.8</ele>
        <time>2025-01-22T10:41:45.273Z</time>
      </trkpt>
      <trkpt lat="46.72665" lon="-1.97301">
        <ele>5.8</ele>
        <time>2025-01-22T10:41:46.273Z</time>
      </trkpt>
      <trkpt lat="46.72667" lon="-1.97303">
        <ele>6</ele>
        <time>2025-01-22T10:41:47.272Z</time>
      </trkpt>
      <trkpt lat="46.7267" lon="-1.97306">
        <ele>6.2</ele>
        <time>2025-01-22T10:41:48.272Z</time>
      </trkpt>
      <trkpt lat="46.72671" lon="-1.97308">
        <ele>6.5</ele>
        <time>2025-01-22T10:41:49.272Z</time>
      </trkpt>
      <trkpt lat="46.72673" lon="-1.9731">
        <ele>6.9</ele>
        <time>2025-01-22T10:41:50.273Z</time>
      </trkpt>
      <trkpt lat="46.72676" lon="-1.97312">
        <ele>7.3</ele>
        <time>2025-01-22T10:41:51.273Z</time>
      </trkpt>
      <trkpt lat="46.72678" lon="-1.97313">
        <ele>7.6</ele>
        <time>2025-01-22T10:41:52.272Z</time>
      </trkpt>
      <trkpt lat="46.7268" lon="-1.97314">
        <ele>8</ele>
        <time>2025-01-22T10:41:53.273Z</time>
      </trkpt>
      <trkpt lat="46.72682" lon="-1.97315">
        <ele>8.3</ele>
        <time>2025-01-22T10:41:54.273Z</time>
      </trkpt>
      <trkpt lat="46.72685" lon="-1.97316">
        <ele>8.8</ele>
        <time>2025-01-22T10:41:55.273Z</time>
      </trkpt>
      <trkpt lat="46.72686" lon="-1.97318">
        <ele>9.2</ele>
        <time>2025-01-22T10:41:56.272Z</time>
      </trkpt>
      <trkpt lat="46.72688" lon="-1.9732">
        <ele>9.7</ele>
        <time>2025-01-22T10:41:57.273Z</time>
      </trkpt>
      <trkpt lat="46.7269" lon="-1.97321">
        <ele>10.3</ele>
        <time>2025-01-22T10:41:58.273Z</time>
      </trkpt>
      <trkpt lat="46.72693" lon="-1.97323">
        <ele>10.8</ele>
        <time>2025-01-22T10:41:59.273Z</time>
      </trkpt>
      <trkpt lat="46.72694" lon="-1.97324">
        <ele>11.2</ele>
        <time>2025-01-22T10:42:00.273Z</time>
      </trkpt>
      <trkpt lat="46.72695" lon="-1.97325">
        <ele>11.5</ele>
        <time>2025-01-22T10:42:01.273Z</time>
      </trkpt>
      <trkpt lat="46.72696" lon="-1.97325">
        <ele>11.7</ele>
        <time>2025-01-22T10:42:02.273Z</time>
      </trkpt>
      <trkpt lat="46.72696" lon="-1.97326">
        <ele>11.9</ele>
        <time>2025-01-22T10:42:03.272Z</time>
      </trkpt>
      <trkpt lat="46.72697" lon="-1.97328">
        <ele>12.2</ele>
        <time>2025-01-22T10:42:04.272Z</time>
      </trkpt>
      <trkpt lat="46.72697" lon="-1.9733">
        <ele>12.7</ele>
        <time>2025-01-22T10:42:05.272Z</time>
      </trkpt>
      <trkpt lat="46.72698" lon="-1.97333">
        <ele>13.4</ele>
        <time>2025-01-22T10:42:06.272Z</time>
      </trkpt>
      <trkpt lat="46.72699" lon="-1.97336">
        <ele>14.2</ele>
        <time>2025-01-22T10:42:07.272Z</time>
      </trkpt>
      <trkpt lat="46.72702" lon="-1.97337">
        <ele>14.9</ele>
        <time>2025-01-22T10:42:08.273Z</time>
      </trkpt>
      <trkpt lat="46.72704" lon="-1.97339">
        <ele>15.4</ele>
        <time>2025-01-22T10:42:09.273Z</time>
      </trkpt>
      <trkpt lat="46.72705" lon="-1.9734">
        <ele>15.8</ele>
        <time>2025-01-22T10:42:10.273Z</time>
      </trkpt>
      <trkpt lat="46.72706" lon="-1.97341">
        <ele>16.1</ele>
        <time>2025-01-22T10:42:11.273Z</time>
      </trkpt>
      <trkpt lat="46.72707" lon="-1.97341">
        <ele>16.2</ele>
        <time>2025-01-22T10:42:12.272Z</time>
      </trkpt>
      <trkpt lat="46.72707" lon="-1.97343">
        <ele>16.5</ele>
        <time>2025-01-22T10:42:13.272Z</time>
      </trkpt>
      <trkpt lat="46.72708" lon="-1.97344">
        <ele>16.9</ele>
        <time>2025-01-22T10:42:14.272Z</time>
      </trkpt>
      <trkpt lat="46.72709" lon="-1.97345">
        <ele>17.2</ele>
        <time>2025-01-22T10:42:15.273Z</time>
      </trkpt>
      <trkpt lat="46.7271" lon="-1.97346">
        <ele>17.5</ele>
        <time>2025-01-22T10:42:16.272Z</time>
      </trkpt>
      <trkpt lat="46.72711" lon="-1.97348">
        <ele>17.7</ele>
        <time>2025-01-22T10:42:17.272Z</time>
      </trkpt>
      <trkpt lat="46.72712" lon="-1.97349">
        <ele>18</ele>
        <time>2025-01-22T10:42:18.273Z</time>
      </trkpt>
      <trkpt lat="46.72713" lon="-1.9735">
        <ele>18.3</ele>
        <time>2025-01-22T10:42:19.273Z</time>
      </trkpt>
      <trkpt lat="46.72715" lon="-1.97351">
        <ele>18.5</ele>
        <time>2025-01-22T10:42:20.273Z</time>
      </trkpt>
      <trkpt lat="46.72716" lon="-1.97353">
        <ele>18.8</ele>
        <time>2025-01-22T10:42:21.273Z</time>
      </trkpt>
      <trkpt lat="46.72716" lon="-1.97354">
        <ele>19</ele>
        <time>2025-01-22T10:42:22.272Z</time>
      </trkpt>
      <trkpt lat="46.72717" lon="-1.97355">
        <ele>19.2</ele>
        <time>2025-01-22T10:42:23.272Z</time>
      </trkpt>
      <trkpt lat="46.72717" lon="-1.97355">
        <ele>19.2</ele>
        <time>2025-01-22T10:42:24.273Z</time>
      </trkpt>
      <trkpt lat="46.72718" lon="-1.97355">
        <ele>19.2</ele>
        <time>2025-01-22T10:42:25.272Z</time>
      </trkpt>
      <trkpt lat="46.72718" lon="-1.97356">
        <ele>19.3</ele>
        <time>2025-01-22T10:42:26.272Z</time>
      </trkpt>
      <trkpt lat="46.72719" lon="-1.97355">
        <ele>19.3</ele>
        <time>2025-01-22T10:42:27.272Z</time>
      </trkpt>
      <trkpt lat="46.72719" lon="-1.97355">
        <ele>19.2</ele>
        <time>2025-01-22T10:42:28.273Z</time>
      </trkpt>
      <trkpt lat="46.72719" lon="-1.97355">
        <ele>19.3</ele>
        <time>2025-01-22T10:42:29.273Z</time>
      </trkpt>
      <trkpt lat="46.72719" lon="-1.97355">
        <ele>19.3</ele>
        <time>2025-01-22T10:42:30.273Z</time>
      </trkpt>
      <trkpt lat="46.7272" lon="-1.97356">
        <ele>19.4</ele>
        <time>2025-01-22T10:42:31.273Z</time>
      </trkpt>
      <trkpt lat="46.7272" lon="-1.97356">
        <ele>19.3</ele>
        <time>2025-01-22T10:42:32.273Z</time>
      </trkpt>
      <trkpt lat="46.72721" lon="-1.97356">
        <ele>19.3</ele>
        <time>2025-01-22T10:42:33.273Z</time>
      </trkpt>
      <trkpt lat="46.72721" lon="-1.97356">
        <ele>19.4</ele>
        <time>2025-01-22T10:42:34.272Z</time>
      </trkpt>
      <trkpt lat="46.72722" lon="-1.97357">
        <ele>19.6</ele>
        <time>2025-01-22T10:42:35.273Z</time>
      </trkpt>
      <trkpt lat="46.72723" lon="-1.97358">
        <ele>19.7</ele>
        <time>2025-01-22T10:42:36.272Z</time>
      </trkpt>
      <trkpt lat="46.72724" lon="-1.97359">
        <ele>19.8</ele>
        <time>2025-01-22T10:42:37.272Z</time>
      </trkpt>
      <trkpt lat="46.72724" lon="-1.97359">
        <ele>19.9</ele>
        <time>2025-01-22T10:42:38.272Z</time>
      </trkpt>
      <trkpt lat="46.72724" lon="-1.97359">
        <ele>19.9</ele>
        <time>2025-01-22T10:42:39.273Z</time>
      </trkpt>
      <trkpt lat="46.72725" lon="-1.9736">
        <ele>20.1</ele>
        <time>2025-01-22T10:42:40.272Z</time>
      </trkpt>
      <trkpt lat="46.72726" lon="-1.97362">
        <ele>20.2</ele>
        <time>2025-01-22T10:42:41.272Z</time>
      </trkpt>
      <trkpt lat="46.72727" lon="-1.97363">
        <ele>20.2</ele>
        <time>2025-01-22T10:42:42.272Z</time>
      </trkpt>
      <trkpt lat="46.72728" lon="-1.97363">
        <ele>20.3</ele>
        <time>2025-01-22T10:42:43.272Z</time>
      </trkpt>
      <trkpt lat="46.72729" lon="-1.97364">
        <ele>20.3</ele>
        <time>2025-01-22T10:42:44.272Z</time>
      </trkpt>
      <trkpt lat="46.7273" lon="-1.97364">
        <ele>20.3</ele>
        <time>2025-01-22T10:42:45.273Z</time>
      </trkpt>
      <trkpt lat="46.7273" lon="-1.97366">
        <ele>20.2</ele>
        <time>2025-01-22T10:42:46.273Z</time>
      </trkpt>
      <trkpt lat="46.72731" lon="-1.97368">
        <ele>20.1</ele>
        <time>2025-01-22T10:42:47.273Z</time>
      </trkpt>
      <trkpt lat="46.72731" lon="-1.97371">
        <ele>20</ele>
        <time>2025-01-22T10:42:48.273Z</time>
      </trkpt>
      <trkpt lat="46.72732" lon="-1.97372">
        <ele>19.9</ele>
        <time>2025-01-22T10:42:49.273Z</time>
      </trkpt>
      <trkpt lat="46.72733" lon="-1.97374">
        <ele>19.9</ele>
        <time>2025-01-22T10:42:50.273Z</time>
      </trkpt>
      <trkpt lat="46.72735" lon="-1.97375">
        <ele>19.9</ele>
        <time>2025-01-22T10:42:51.273Z</time>
      </trkpt>
      <trkpt lat="46.72735" lon="-1.97376">
        <ele>19.9</ele>
        <time>2025-01-22T10:42:52.272Z</time>
      </trkpt>
      <trkpt lat="46.72736" lon="-1.97376">
        <ele>19.9</ele>
        <time>2025-01-22T10:42:53.272Z</time>
      </trkpt>
      <trkpt lat="46.72737" lon="-1.97377">
        <ele>19.9</ele>
        <time>2025-01-22T10:42:54.273Z</time>
      </trkpt>
      <trkpt lat="46.72738" lon="-1.97377">
        <ele>20</ele>
        <time>2025-01-22T10:42:55.272Z</time>
      </trkpt>
      <trkpt lat="46.72739" lon="-1.97378">
        <ele>20</ele>
        <time>2025-01-22T10:42:56.272Z</time>
      </trkpt>
      <trkpt lat="46.7274" lon="-1.97378">
        <ele>20</ele>
        <time>2025-01-22T10:42:57.273Z</time>
      </trkpt>
      <trkpt lat="46.72741" lon="-1.97379">
        <ele>20.1</ele>
        <time>2025-01-22T10:42:58.272Z</time>
      </trkpt>
      <trkpt lat="46.72741" lon="-1.97379">
        <ele>20.1</ele>
        <time>2025-01-22T10:42:59.273Z</time>
      </trkpt>
      <trkpt lat="46.72742" lon="-1.9738">
        <ele>20.1</ele>
        <time>2025-01-22T10:43:00.272Z</time>
      </trkpt>
      <trkpt lat="46.72743" lon="-1.97382">
        <ele>20</ele>
        <time>2025-01-22T10:43:01.273Z</time>
      </trkpt>
      <trkpt lat="46.72744" lon="-1.97383">
        <ele>20</ele>
        <time>2025-01-22T10:43:02.273Z</time>
      </trkpt>
      <trkpt lat="46.72745" lon="-1.97384">
        <ele>20</ele>
        <time>2025-01-22T10:43:03.273Z</time>
      </trkpt>
      <trkpt lat="46.72746" lon="-1.97385">
        <ele>20</ele>
        <time>2025-01-22T10:43:04.273Z</time>
      </trkpt>
      <trkpt lat="46.72747" lon="-1.97386">
        <ele>20</ele>
        <time>2025-01-22T10:43:05.273Z</time>
      </trkpt>
      <trkpt lat="46.72748" lon="-1.97386">
        <ele>20.1</ele>
        <time>2025-01-22T10:43:06.272Z</time>
      </trkpt>
      <trkpt lat="46.7275" lon="-1.97387">
        <ele>20.1</ele>
        <time>2025-01-22T10:43:07.272Z</time>
      </trkpt>
      <trkpt lat="46.72752" lon="-1.97388">
        <ele>20</ele>
        <time>2025-01-22T10:43:08.272Z</time>
      </trkpt>
      <trkpt lat="46.72754" lon="-1.9739">
        <ele>19.9</ele>
        <time>2025-01-22T10:43:09.272Z</time>
      </trkpt>
      <trkpt lat="46.72755" lon="-1.97392">
        <ele>19.6</ele>
        <time>2025-01-22T10:43:10.272Z</time>
      </trkpt>
      <trkpt lat="46.72757" lon="-1.97394">
        <ele>19.4</ele>
        <time>2025-01-22T10:43:11.273Z</time>
      </trkpt>
      <trkpt lat="46.72759" lon="-1.97396">
        <ele>19.2</ele>
        <time>2025-01-22T10:43:12.273Z</time>
      </trkpt>
      <trkpt lat="46.72761" lon="-1.97399">
        <ele>19.1</ele>
        <time>2025-01-22T10:43:13.273Z</time>
      </trkpt>
      <trkpt lat="46.72763" lon="-1.97402">
        <ele>19</ele>
        <time>2025-01-22T10:43:14.272Z</time>
      </trkpt>
      <trkpt lat="46.72764" lon="-1.97404">
        <ele>19</ele>
        <time>2025-01-22T10:43:15.273Z</time>
      </trkpt>
      <trkpt lat="46.72766" lon="-1.97406">
        <ele>19</ele>
        <time>2025-01-22T10:43:16.272Z</time>
      </trkpt>
      <trkpt lat="46.72767" lon="-1.97408">
        <ele>19.1</ele>
        <time>2025-01-22T10:43:17.272Z</time>
      </trkpt>
      <trkpt lat="46.72768" lon="-1.9741">
        <ele>19.1</ele>
        <time>2025-01-22T10:43:18.272Z</time>
      </trkpt>
      <trkpt lat="46.72769" lon="-1.97411">
        <ele>19.3</ele>
        <time>2025-01-22T10:43:19.273Z</time>
      </trkpt>
      <trkpt lat="46.7277" lon="-1.97412">
        <ele>19.4</ele>
        <time>2025-01-22T10:43:20.273Z</time>
      </trkpt>
      <trkpt lat="46.72771" lon="-1.97413">
        <ele>19.7</ele>
        <time>2025-01-22T10:43:21.273Z</time>
      </trkpt>
      <trkpt lat="46.72773" lon="-1.97415">
        <ele>19.9</ele>
        <time>2025-01-22T10:43:22.272Z</time>
      </trkpt>
      <trkpt lat="46.72774" lon="-1.97417">
        <ele>20.2</ele>
        <time>2025-01-22T10:43:23.272Z</time>
      </trkpt>
      <trkpt lat="46.72775" lon="-1.97418">
        <ele>20.3</ele>
        <time>2025-01-22T10:43:24.273Z</time>
      </trkpt>
      <trkpt lat="46.72777" lon="-1.97419">
        <ele>20.5</ele>
        <time>2025-01-22T10:43:25.272Z</time>
      </trkpt>
      <trkpt lat="46.72778" lon="-1.9742">
        <ele>20.7</ele>
        <time>2025-01-22T10:43:26.273Z</time>
      </trkpt>
      <trkpt lat="46.72779" lon="-1.97422">
        <ele>20.6</ele>
        <time>2025-01-22T10:43:27.273Z</time>
      </trkpt>
      <trkpt lat="46.72781" lon="-1.97423">
        <ele>20.5</ele>
        <time>2025-01-22T10:43:28.273Z</time>
      </trkpt>
      <trkpt lat="46.72782" lon="-1.97425">
        <ele>20.4</ele>
        <time>2025-01-22T10:43:29.272Z</time>
      </trkpt>
      <trkpt lat="46.72784" lon="-1.97427">
        <ele>20.4</ele>
        <time>2025-01-22T10:43:30.272Z</time>
      </trkpt>
      <trkpt lat="46.72785" lon="-1.97429">
        <ele>20.3</ele>
        <time>2025-01-22T10:43:31.272Z</time>
      </trkpt>
      <trkpt lat="46.72787" lon="-1.97431">
        <ele>20.3</ele>
        <time>2025-01-22T10:43:32.272Z</time>
      </trkpt>
      <trkpt lat="46.72788" lon="-1.97433">
        <ele>20.3</ele>
        <time>2025-01-22T10:43:33.273Z</time>
      </trkpt>
      <trkpt lat="46.7279" lon="-1.97435">
        <ele>20.4</ele>
        <time>2025-01-22T10:43:34.273Z</time>
      </trkpt>
      <trkpt lat="46.72792" lon="-1.97438">
        <ele>20.5</ele>
        <time>2025-01-22T10:43:35.272Z</time>
      </trkpt>
      <trkpt lat="46.72794" lon="-1.9744">
        <ele>20.7</ele>
        <time>2025-01-22T10:43:36.273Z</time>
      </trkpt>
      <trkpt lat="46.72797" lon="-1.97442">
        <ele>21</ele>
        <time>2025-01-22T10:43:37.273Z</time>
      </trkpt>
      <trkpt lat="46.72798" lon="-1.97445">
        <ele>21.2</ele>
        <time>2025-01-22T10:43:38.273Z</time>
      </trkpt>
      <trkpt lat="46.728" lon="-1.97447">
        <ele>21.3</ele>
        <time>2025-01-22T10:43:39.273Z</time>
      </trkpt>
      <trkpt lat="46.72801" lon="-1.97449">
        <ele>21.4</ele>
        <time>2025-01-22T10:43:40.272Z</time>
      </trkpt>
      <trkpt lat="46.72803" lon="-1.97451">
        <ele>21.5</ele>
        <time>2025-01-22T10:43:41.272Z</time>
      </trkpt>
      <trkpt lat="46.72804" lon="-1.97453">
        <ele>21.7</ele>
        <time>2025-01-22T10:43:42.272Z</time>
      </trkpt>
      <trkpt lat="46.72805" lon="-1.97455">
        <ele>21.8</ele>
        <time>2025-01-22T10:43:43.272Z</time>
      </trkpt>
      <trkpt lat="46.72806" lon="-1.97456">
        <ele>22</ele>
        <time>2025-01-22T10:43:44.273Z</time>
      </trkpt>
      <trkpt lat="46.72807" lon="-1.97458">
        <ele>21.9</ele>
        <time>2025-01-22T10:43:45.273Z</time>
      </trkpt>
      <trkpt lat="46.72808" lon="-1.97459">
        <ele>21.9</ele>
        <time>2025-01-22T10:43:46.273Z</time>
      </trkpt>
      <trkpt lat="46.72809" lon="-1.97459">
        <ele>21.8</ele>
        <time>2025-01-22T10:43:47.272Z</time>
      </trkpt>
      <trkpt lat="46.72811" lon="-1.97461">
        <ele>21.7</ele>
        <time>2025-01-22T10:43:48.272Z</time>
      </trkpt>
      <trkpt lat="46.72812" lon="-1.97463">
        <ele>21.7</ele>
        <time>2025-01-22T10:43:49.273Z</time>
      </trkpt>
      <trkpt lat="46.72814" lon="-1.97464">
        <ele>21.6</ele>
        <time>2025-01-22T10:43:50.273Z</time>
      </trkpt>
      <trkpt lat="46.72816" lon="-1.97464">
        <ele>21.5</ele>
        <time>2025-01-22T10:43:51.273Z</time>
      </trkpt>
      <trkpt lat="46.72818" lon="-1.97465">
        <ele>21.4</ele>
        <time>2025-01-22T10:43:52.272Z</time>
      </trkpt>
      <trkpt lat="46.72821" lon="-1.97465">
        <ele>21.3</ele>
        <time>2025-01-22T10:43:53.272Z</time>
      </trkpt>
      <trkpt lat="46.72823" lon="-1.97465">
        <ele>21.2</ele>
        <time>2025-01-22T10:43:54.272Z</time>
      </trkpt>
      <trkpt lat="46.72826" lon="-1.97466">
        <ele>21.1</ele>
        <time>2025-01-22T10:43:55.272Z</time>
      </trkpt>
      <trkpt lat="46.72829" lon="-1.97466">
        <ele>21</ele>
        <time>2025-01-22T10:43:56.272Z</time>
      </trkpt>
      <trkpt lat="46.7283" lon="-1.97468">
        <ele>21</ele>
        <time>2025-01-22T10:43:57.272Z</time>
      </trkpt>
      <trkpt lat="46.72833" lon="-1.9747">
        <ele>20.9</ele>
        <time>2025-01-22T10:43:58.272Z</time>
      </trkpt>
      <trkpt lat="46.72835" lon="-1.97472">
        <ele>20.9</ele>
        <time>2025-01-22T10:43:59.273Z</time>
      </trkpt>
      <trkpt lat="46.72838" lon="-1.97473">
        <ele>20.6</ele>
        <time>2025-01-22T10:44:00.273Z</time>
      </trkpt>
      <trkpt lat="46.7284" lon="-1.97475">
        <ele>20.2</ele>
        <time>2025-01-22T10:44:01.273Z</time>
      </trkpt>
      <trkpt lat="46.72842" lon="-1.97476">
        <ele>20</ele>
        <time>2025-01-22T10:44:02.273Z</time>
      </trkpt>
      <trkpt lat="46.72845" lon="-1.97476">
        <ele>19.7</ele>
        <time>2025-01-22T10:44:03.273Z</time>
      </trkpt>
      <trkpt lat="46.72847" lon="-1.97478">
        <ele>19.4</ele>
        <time>2025-01-22T10:44:04.272Z</time>
      </trkpt>
      <trkpt lat="46.7285" lon="-1.9748">
        <ele>18.9</ele>
        <time>2025-01-22T10:44:05.273Z</time>
      </trkpt>
      <trkpt lat="46.72853" lon="-1.97482">
        <ele>18.5</ele>
        <time>2025-01-22T10:44:06.273Z</time>
      </trkpt>
      <trkpt lat="46.72857" lon="-1.97485">
        <ele>18</ele>
        <time>2025-01-22T10:44:07.273Z</time>
      </trkpt>
      <trkpt lat="46.72859" lon="-1.97488">
        <ele>17.5</ele>
        <time>2025-01-22T10:44:08.273Z</time>
      </trkpt>
      <trkpt lat="46.72862" lon="-1.97489">
        <ele>17.1</ele>
        <time>2025-01-22T10:44:09.273Z</time>
      </trkpt>
      <trkpt lat="46.72864" lon="-1.97491">
        <ele>16.8</ele>
        <time>2025-01-22T10:44:10.272Z</time>
      </trkpt>
      <trkpt lat="46.72866" lon="-1.97493">
        <ele>16.5</ele>
        <time>2025-01-22T10:44:11.273Z</time>
      </trkpt>
      <trkpt lat="46.72868" lon="-1.97495">
        <ele>16.3</ele>
        <time>2025-01-22T10:44:12.272Z</time>
      </trkpt>
      <trkpt lat="46.7287" lon="-1.97497">
        <ele>16.2</ele>
        <time>2025-01-22T10:44:13.272Z</time>
      </trkpt>
      <trkpt lat="46.72871" lon="-1.97499">
        <ele>16.1</ele>
        <time>2025-01-22T10:44:14.272Z</time>
      </trkpt>
      <trkpt lat="46.72871" lon="-1.975">
        <ele>16</ele>
        <time>2025-01-22T10:44:15.273Z</time>
      </trkpt>
      <trkpt lat="46.72871" lon="-1.97502">
        <ele>16</ele>
        <time>2025-01-22T10:44:16.273Z</time>
      </trkpt>
      <trkpt lat="46.72871" lon="-1.97504">
        <ele>16.1</ele>
        <time>2025-01-22T10:44:17.273Z</time>
      </trkpt>
      <trkpt lat="46.72871" lon="-1.97507">
        <ele>16.1</ele>
        <time>2025-01-22T10:44:18.273Z</time>
      </trkpt>
      <trkpt lat="46.72871" lon="-1.9751">
        <ele>16.2</ele>
        <time>2025-01-22T10:44:19.273Z</time>
      </trkpt>
      <trkpt lat="46.72873" lon="-1.97513">
        <ele>16.3</ele>
        <time>2025-01-22T10:44:20.272Z</time>
      </trkpt>
      <trkpt lat="46.72875" lon="-1.97516">
        <ele>16.5</ele>
        <time>2025-01-22T10:44:21.272Z</time>
      </trkpt>
      <trkpt lat="46.72877" lon="-1.97519">
        <ele>16.8</ele>
        <time>2025-01-22T10:44:22.272Z</time>
      </trkpt>
      <trkpt lat="46.72879" lon="-1.97521">
        <ele>17.2</ele>
        <time>2025-01-22T10:44:23.272Z</time>
      </trkpt>
      <trkpt lat="46.72881" lon="-1.97523">
        <ele>17.5</ele>
        <time>2025-01-22T10:44:24.272Z</time>
      </trkpt>
      <trkpt lat="46.72883" lon="-1.97525">
        <ele>17.9</ele>
        <time>2025-01-22T10:44:25.273Z</time>
      </trkpt>
      <trkpt lat="46.72885" lon="-1.97526">
        <ele>18.3</ele>
        <time>2025-01-22T10:44:26.273Z</time>
      </trkpt>
      <trkpt lat="46.72887" lon="-1.97528">
        <ele>18.7</ele>
        <time>2025-01-22T10:44:27.272Z</time>
      </trkpt>
      <trkpt lat="46.72889" lon="-1.9753">
        <ele>18.9</ele>
        <time>2025-01-22T10:44:28.272Z</time>
      </trkpt>
      <trkpt lat="46.72891" lon="-1.97531">
        <ele>18.8</ele>
        <time>2025-01-22T10:44:29.272Z</time>
      </trkpt>
      <trkpt lat="46.72893" lon="-1.97532">
        <ele>18.5</ele>
        <time>2025-01-22T10:44:30.272Z</time>
      </trkpt>
      <trkpt lat="46.72896" lon="-1.97533">
        <ele>18.1</ele>
        <time>2025-01-22T10:44:31.273Z</time>
      </trkpt>
      <trkpt lat="46.729" lon="-1.97534">
        <ele>17.8</ele>
        <time>2025-01-22T10:44:32.272Z</time>
      </trkpt>
      <trkpt lat="46.72903" lon="-1.97535">
        <ele>17.5</ele>
        <time>2025-01-22T10:44:33.273Z</time>
      </trkpt>
      <trkpt lat="46.72907" lon="-1.97536">
        <ele>17.2</ele>
        <time>2025-01-22T10:44:34.273Z</time>
      </trkpt>
      <trkpt lat="46.7291" lon="-1.97538">
        <ele>17.1</ele>
        <time>2025-01-22T10:44:35.273Z</time>
      </trkpt>
      <trkpt lat="46.72913" lon="-1.97539">
        <ele>17</ele>
        <time>2025-01-22T10:44:36.273Z</time>
      </trkpt>
      <trkpt lat="46.72916" lon="-1.97541">
        <ele>16.9</ele>
        <time>2025-01-22T10:44:37.273Z</time>
      </trkpt>
      <trkpt lat="46.72919" lon="-1.97542">
        <ele>17.1</ele>
        <time>2025-01-22T10:44:38.272Z</time>
      </trkpt>
      <trkpt lat="46.72921" lon="-1.97544">
        <ele>17.4</ele>
        <time>2025-01-22T10:44:39.272Z</time>
      </trkpt>
      <trkpt lat="46.72923" lon="-1.97545">
        <ele>17.6</ele>
        <time>2025-01-22T10:44:40.272Z</time>
      </trkpt>
      <trkpt lat="46.72924" lon="-1.97547">
        <ele>17.9</ele>
        <time>2025-01-22T10:44:41.272Z</time>
      </trkpt>
      <trkpt lat="46.72926" lon="-1.97548">
        <ele>17.9</ele>
        <time>2025-01-22T10:44:42.273Z</time>
      </trkpt>
      <trkpt lat="46.72928" lon="-1.97549">
        <ele>18.1</ele>
        <time>2025-01-22T10:44:43.273Z</time>
      </trkpt>
      <trkpt lat="46.72929" lon="-1.9755">
        <ele>18.3</ele>
        <time>2025-01-22T10:44:44.273Z</time>
      </trkpt>
      <trkpt lat="46.72931" lon="-1.97551">
        <ele>18.4</ele>
        <time>2025-01-22T10:44:45.272Z</time>
      </trkpt>
      <trkpt lat="46.72932" lon="-1.97552">
        <ele>18.5</ele>
        <time>2025-01-22T10:44:46.272Z</time>
      </trkpt>
      <trkpt lat="46.72933" lon="-1.97553">
        <ele>18.7</ele>
        <time>2025-01-22T10:44:47.272Z</time>
      </trkpt>
      <trkpt lat="46.72934" lon="-1.97554">
        <ele>18.8</ele>
        <time>2025-01-22T10:44:48.273Z</time>
      </trkpt>
      <trkpt lat="46.72936" lon="-1.97555">
        <ele>18.9</ele>
        <time>2025-01-22T10:44:49.273Z</time>
      </trkpt>
      <trkpt lat="46.72937" lon="-1.97556">
        <ele>19</ele>
        <time>2025-01-22T10:44:50.273Z</time>
      </trkpt>
      <trkpt lat="46.72939" lon="-1.97558">
        <ele>19</ele>
        <time>2025-01-22T10:44:51.272Z</time>
      </trkpt>
      <trkpt lat="46.7294" lon="-1.9756">
        <ele>19</ele>
        <time>2025-01-22T10:44:52.273Z</time>
      </trkpt>
      <trkpt lat="46.72941" lon="-1.97562">
        <ele>19</ele>
        <time>2025-01-22T10:44:53.272Z</time>
      </trkpt>
      <trkpt lat="46.72942" lon="-1.97564">
        <ele>19</ele>
        <time>2025-01-22T10:44:54.272Z</time>
      </trkpt>
      <trkpt lat="46.72942" lon="-1.97566">
        <ele>19</ele>
        <time>2025-01-22T10:44:55.272Z</time>
      </trkpt>
      <trkpt lat="46.72941" lon="-1.97567">
        <ele>19</ele>
        <time>2025-01-22T10:44:56.272Z</time>
      </trkpt>
      <trkpt lat="46.7294" lon="-1.97568">
        <ele>19</ele>
        <time>2025-01-22T10:44:57.272Z</time>
      </trkpt>
      <trkpt lat="46.72938" lon="-1.97569">
        <ele>19</ele>
        <time>2025-01-22T10:44:58.273Z</time>
      </trkpt>
      <trkpt lat="46.72936" lon="-1.9757">
        <ele>19</ele>
        <time>2025-01-22T10:44:59.273Z</time>
      </trkpt>
      <trkpt lat="46.72935" lon="-1.97571">
        <ele>19</ele>
        <time>2025-01-22T10:45:00.273Z</time>
      </trkpt>
      <trkpt lat="46.72934" lon="-1.97572">
        <ele>19</ele>
        <time>2025-01-22T10:45:01.273Z</time>
      </trkpt>
      <trkpt lat="46.72932" lon="-1.97573">
        <ele>19</ele>
        <time>2025-01-22T10:45:02.272Z</time>
      </trkpt>
      <trkpt lat="46.72929" lon="-1.97575">
        <ele>19</ele>
        <time>2025-01-22T10:45:03.273Z</time>
      </trkpt>
      <trkpt lat="46.72927" lon="-1.97577">
        <ele>19</ele>
        <time>2025-01-22T10:45:04.273Z</time>
      </trkpt>
      <trkpt lat="46.72926" lon="-1.97578">
        <ele>19</ele>
        <time>2025-01-22T10:45:05.272Z</time>
      </trkpt>
      <trkpt lat="46.72924" lon="-1.97579">
        <ele>19</ele>
        <time>2025-01-22T10:45:06.272Z</time>
      </trkpt>
      <trkpt lat="46.72922" lon="-1.97581">
        <ele>19</ele>
        <time>2025-01-22T10:45:07.273Z</time>
      </trkpt>
      <trkpt lat="46.7292" lon="-1.97582">
        <ele>19</ele>
        <time>2025-01-22T10:45:08.272Z</time>
      </trkpt>
      <trkpt lat="46.72919" lon="-1.97583">
        <ele>19</ele>
        <time>2025-01-22T10:45:09.272Z</time>
      </trkpt>
      <trkpt lat="46.72919" lon="-1.97585">
        <ele>18.7</ele>
        <time>2025-01-22T10:45:10.272Z</time>
      </trkpt>
      <trkpt lat="46.72918" lon="-1.97587">
        <ele>18.4</ele>
        <time>2025-01-22T10:45:11.272Z</time>
      </trkpt>
      <trkpt lat="46.72916" lon="-1.97588">
        <ele>18.2</ele>
        <time>2025-01-22T10:45:12.273Z</time>
      </trkpt>
      <trkpt lat="46.72914" lon="-1.9759">
        <ele>18.1</ele>
        <time>2025-01-22T10:45:13.273Z</time>
      </trkpt>
      <trkpt lat="46.72912" lon="-1.9759">
        <ele>18.1</ele>
        <time>2025-01-22T10:45:14.273Z</time>
      </trkpt>
      <trkpt lat="46.72911" lon="-1.97591">
        <ele>18.2</ele>
        <time>2025-01-22T10:45:15.273Z</time>
      </trkpt>
      <trkpt lat="46.7291" lon="-1.97591">
        <ele>18.2</ele>
        <time>2025-01-22T10:45:16.272Z</time>
      </trkpt>
      <trkpt lat="46.7291" lon="-1.97591">
        <ele>18.2</ele>
        <time>2025-01-22T10:45:17.273Z</time>
      </trkpt>
      <trkpt lat="46.72909" lon="-1.97591">
        <ele>18.4</ele>
        <time>2025-01-22T10:45:18.273Z</time>
      </trkpt>
      <trkpt lat="46.72908" lon="-1.9759">
        <ele>18.6</ele>
        <time>2025-01-22T10:45:19.272Z</time>
      </trkpt>
      <trkpt lat="46.72906" lon="-1.9759">
        <ele>18.8</ele>
        <time>2025-01-22T10:45:20.273Z</time>
      </trkpt>
      <trkpt lat="46.72905" lon="-1.9759">
        <ele>18.9</ele>
        <time>2025-01-22T10:45:21.273Z</time>
      </trkpt>
      <trkpt lat="46.72903" lon="-1.9759">
        <ele>19</ele>
        <time>2025-01-22T10:45:22.272Z</time>
      </trkpt>
      <trkpt lat="46.72902" lon="-1.97591">
        <ele>19.1</ele>
        <time>2025-01-22T10:45:23.273Z</time>
      </trkpt>
      <trkpt lat="46.729" lon="-1.97592">
        <ele>19.1</ele>
        <time>2025-01-22T10:45:24.272Z</time>
      </trkpt>
      <trkpt lat="46.72899" lon="-1.97594">
        <ele>19.2</ele>
        <time>2025-01-22T10:45:25.272Z</time>
      </trkpt>
      <trkpt lat="46.72898" lon="-1.97596">
        <ele>19.2</ele>
        <time>2025-01-22T10:45:26.273Z</time>
      </trkpt>
      <trkpt lat="46.72898" lon="-1.97598">
        <ele>19.2</ele>
        <time>2025-01-22T10:45:27.273Z</time>
      </trkpt>
      <trkpt lat="46.72897" lon="-1.976">
        <ele>19.2</ele>
        <time>2025-01-22T10:45:28.272Z</time>
      </trkpt>
      <trkpt lat="46.72897" lon="-1.97602">
        <ele>19.3</ele>
        <time>2025-01-22T10:45:29.273Z</time>
      </trkpt>
      <trkpt lat="46.72896" lon="-1.97605">
        <ele>19.4</ele>
        <time>2025-01-22T10:45:30.272Z</time>
      </trkpt>
      <trkpt lat="46.72896" lon="-1.97608">
        <ele>19.4</ele>
        <time>2025-01-22T10:45:31.273Z</time>
      </trkpt>
      <trkpt lat="46.72895" lon="-1.97611">
        <ele>19.4</ele>
        <time>2025-01-22T10:45:32.272Z</time>
      </trkpt>
      <trkpt lat="46.72895" lon="-1.97614">
        <ele>19.3</ele>
        <time>2025-01-22T10:45:33.273Z</time>
      </trkpt>
      <trkpt lat="46.72895" lon="-1.97617">
        <ele>19.1</ele>
        <time>2025-01-22T10:45:34.272Z</time>
      </trkpt>
      <trkpt lat="46.72895" lon="-1.9762">
        <ele>19.1</ele>
        <time>2025-01-22T10:45:35.272Z</time>
      </trkpt>
      <trkpt lat="46.72894" lon="-1.97625">
        <ele>19.1</ele>
        <time>2025-01-22T10:45:36.273Z</time>
      </trkpt>
      <trkpt lat="46.72892" lon="-1.97629">
        <ele>19.4</ele>
        <time>2025-01-22T10:45:37.273Z</time>
      </trkpt>
      <trkpt lat="46.72891" lon="-1.97633">
        <ele>19.7</ele>
        <time>2025-01-22T10:45:38.272Z</time>
      </trkpt>
      <trkpt lat="46.72889" lon="-1.97637">
        <ele>20</ele>
        <time>2025-01-22T10:45:39.272Z</time>
      </trkpt>
      <trkpt lat="46.72888" lon="-1.97641">
        <ele>19.6</ele>
        <time>2025-01-22T10:45:40.272Z</time>
      </trkpt>
      <trkpt lat="46.72887" lon="-1.97644">
        <ele>19.2</ele>
        <time>2025-01-22T10:45:41.273Z</time>
      </trkpt>
      <trkpt lat="46.72887" lon="-1.97647">
        <ele>18.7</ele>
        <time>2025-01-22T10:45:42.272Z</time>
      </trkpt>
      <trkpt lat="46.72887" lon="-1.9765">
        <ele>18.4</ele>
        <time>2025-01-22T10:45:43.272Z</time>
      </trkpt>
      <trkpt lat="46.72888" lon="-1.97654">
        <ele>18.1</ele>
        <time>2025-01-22T10:45:44.272Z</time>
      </trkpt>
      <trkpt lat="46.72889" lon="-1.97657">
        <ele>18</ele>
        <time>2025-01-22T10:45:45.273Z</time>
      </trkpt>
      <trkpt lat="46.7289" lon="-1.97659">
        <ele>17.6</ele>
        <time>2025-01-22T10:45:46.272Z</time>
      </trkpt>
      <trkpt lat="46.72892" lon="-1.97661">
        <ele>17.1</ele>
        <time>2025-01-22T10:45:47.272Z</time>
      </trkpt>
      <trkpt lat="46.72894" lon="-1.97663">
        <ele>16.4</ele>
        <time>2025-01-22T10:45:48.273Z</time>
      </trkpt>
      <trkpt lat="46.72896" lon="-1.97666">
        <ele>15.8</ele>
        <time>2025-01-22T10:45:49.272Z</time>
      </trkpt>
      <trkpt lat="46.72898" lon="-1.97668">
        <ele>15.3</ele>
        <time>2025-01-22T10:45:50.272Z</time>
      </trkpt>
      <trkpt lat="46.72899" lon="-1.97669">
        <ele>14.9</ele>
        <time>2025-01-22T10:45:51.272Z</time>
      </trkpt>
      <trkpt lat="46.729" lon="-1.9767">
        <ele>14.6</ele>
        <time>2025-01-22T10:45:52.273Z</time>
      </trkpt>
      <trkpt lat="46.72902" lon="-1.9767">
        <ele>14.3</ele>
        <time>2025-01-22T10:45:53.273Z</time>
      </trkpt>
      <trkpt lat="46.72903" lon="-1.97672">
        <ele>13.9</ele>
        <time>2025-01-22T10:45:54.272Z</time>
      </trkpt>
      <trkpt lat="46.72904" lon="-1.97674">
        <ele>13.6</ele>
        <time>2025-01-22T10:45:55.272Z</time>
      </trkpt>
      <trkpt lat="46.72905" lon="-1.97676">
        <ele>13.3</ele>
        <time>2025-01-22T10:45:56.273Z</time>
      </trkpt>
      <trkpt lat="46.72906" lon="-1.97679">
        <ele>12.9</ele>
        <time>2025-01-22T10:45:57.273Z</time>
      </trkpt>
      <trkpt lat="46.72907" lon="-1.97683">
        <ele>12.5</ele>
        <time>2025-01-22T10:45:58.273Z</time>
      </trkpt>
      <trkpt lat="46.72908" lon="-1.97687">
        <ele>12.2</ele>
        <time>2025-01-22T10:45:59.272Z</time>
      </trkpt>
      <trkpt lat="46.72909" lon="-1.97691">
        <ele>11.9</ele>
        <time>2025-01-22T10:46:00.273Z</time>
      </trkpt>
      <trkpt lat="46.7291" lon="-1.97695">
        <ele>11.8</ele>
        <time>2025-01-22T10:46:01.273Z</time>
      </trkpt>
      <trkpt lat="46.72911" lon="-1.97697">
        <ele>11.7</ele>
        <time>2025-01-22T10:46:02.272Z</time>
      </trkpt>
      <trkpt lat="46.72912" lon="-1.977">
        <ele>11.7</ele>
        <time>2025-01-22T10:46:03.273Z</time>
      </trkpt>
      <trkpt lat="46.72913" lon="-1.97703">
        <ele>11.7</ele>
        <time>2025-01-22T10:46:04.273Z</time>
      </trkpt>
      <trkpt lat="46.72915" lon="-1.97706">
        <ele>11.8</ele>
        <time>2025-01-22T10:46:05.273Z</time>
      </trkpt>
      <trkpt lat="46.72915" lon="-1.97709">
        <ele>11.8</ele>
        <time>2025-01-22T10:46:06.272Z</time>
      </trkpt>
      <trkpt lat="46.72915" lon="-1.97712">
        <ele>11.8</ele>
        <time>2025-01-22T10:46:07.273Z</time>
      </trkpt>
      <trkpt lat="46.72915" lon="-1.97715">
        <ele>11.8</ele>
        <time>2025-01-22T10:46:08.272Z</time>
      </trkpt>
      <trkpt lat="46.72915" lon="-1.97718">
        <ele>11.8</ele>
        <time>2025-01-22T10:46:09.272Z</time>
      </trkpt>
      <trkpt lat="46.72915" lon="-1.97721">
        <ele>11.8</ele>
        <time>2025-01-22T10:46:10.273Z</time>
      </trkpt>
      <trkpt lat="46.72916" lon="-1.97724">
        <ele>11.9</ele>
        <time>2025-01-22T10:46:11.272Z</time>
      </trkpt>
      <trkpt lat="46.72917" lon="-1.97727">
        <ele>12</ele>
        <time>2025-01-22T10:46:12.273Z</time>
      </trkpt>
      <trkpt lat="46.72918" lon="-1.9773">
        <ele>11.7</ele>
        <time>2025-01-22T10:46:13.272Z</time>
      </trkpt>
      <trkpt lat="46.72918" lon="-1.97733">
        <ele>11.7</ele>
        <time>2025-01-22T10:46:14.273Z</time>
      </trkpt>
      <trkpt lat="46.72917" lon="-1.97737">
        <ele>11.8</ele>
        <time>2025-01-22T10:46:15.273Z</time>
      </trkpt>
      <trkpt lat="46.72917" lon="-1.97741">
        <ele>12</ele>
        <time>2025-01-22T10:46:16.272Z</time>
      </trkpt>
      <trkpt lat="46.72916" lon="-1.97744">
        <ele>11.9</ele>
        <time>2025-01-22T10:46:17.273Z</time>
      </trkpt>
      <trkpt lat="46.72915" lon="-1.97747">
        <ele>11.7</ele>
        <time>2025-01-22T10:46:18.273Z</time>
      </trkpt>
      <trkpt lat="46.72914" lon="-1.97751">
        <ele>11.5</ele>
        <time>2025-01-22T10:46:19.272Z</time>
      </trkpt>
      <trkpt lat="46.72914" lon="-1.97755">
        <ele>11.5</ele>
        <time>2025-01-22T10:46:20.273Z</time>
      </trkpt>
      <trkpt lat="46.72914" lon="-1.97759">
        <ele>11.3</ele>
        <time>2025-01-22T10:46:21.272Z</time>
      </trkpt>
      <trkpt lat="46.72913" lon="-1.97762">
        <ele>11.2</ele>
        <time>2025-01-22T10:46:22.272Z</time>
      </trkpt>
      <trkpt lat="46.72914" lon="-1.97765">
        <ele>11.4</ele>
        <time>2025-01-22T10:46:23.273Z</time>
      </trkpt>
      <trkpt lat="46.72915" lon="-1.97768">
        <ele>11.6</ele>
        <time>2025-01-22T10:46:24.272Z</time>
      </trkpt>
      <trkpt lat="46.72915" lon="-1.97772">
        <ele>11.6</ele>
        <time>2025-01-22T10:46:25.273Z</time>
      </trkpt>
      <trkpt lat="46.72915" lon="-1.97775">
        <ele>11.5</ele>
        <time>2025-01-22T10:46:26.273Z</time>
      </trkpt>
      <trkpt lat="46.72915" lon="-1.97777">
        <ele>11.5</ele>
        <time>2025-01-22T10:46:27.273Z</time>
      </trkpt>
      <trkpt lat="46.72914" lon="-1.9778">
        <ele>11.2</ele>
        <time>2025-01-22T10:46:28.272Z</time>
      </trkpt>
      <trkpt lat="46.72915" lon="-1.97785">
        <ele>11</ele>
        <time>2025-01-22T10:46:29.273Z</time>
      </trkpt>
      <trkpt lat="46.72915" lon="-1.97788">
        <ele>10.9</ele>
        <time>2025-01-22T10:46:30.272Z</time>
      </trkpt>
      <trkpt lat="46.72916" lon="-1.97792">
        <ele>10.8</ele>
        <time>2025-01-22T10:46:31.273Z</time>
      </trkpt>
      <trkpt lat="46.72917" lon="-1.97795">
        <ele>10.8</ele>
        <time>2025-01-22T10:46:32.272Z</time>
      </trkpt>
      <trkpt lat="46.72918" lon="-1.97798">
        <ele>10.4</ele>
        <time>2025-01-22T10:46:33.272Z</time>
      </trkpt>
      <trkpt lat="46.72918" lon="-1.97801">
        <ele>10</ele>
        <time>2025-01-22T10:46:34.273Z</time>
      </trkpt>
      <trkpt lat="46.7292" lon="-1.97804">
        <ele>9.5</ele>
        <time>2025-01-22T10:46:35.273Z</time>
      </trkpt>
      <trkpt lat="46.7292" lon="-1.97807">
        <ele>9.1</ele>
        <time>2025-01-22T10:46:36.273Z</time>
      </trkpt>
      <trkpt lat="46.72921" lon="-1.9781">
        <ele>8.7</ele>
        <time>2025-01-22T10:46:37.272Z</time>
      </trkpt>
      <trkpt lat="46.72921" lon="-1.97814">
        <ele>8.3</ele>
        <time>2025-01-22T10:46:38.273Z</time>
      </trkpt>
      <trkpt lat="46.7292" lon="-1.97817">
        <ele>7.9</ele>
        <time>2025-01-22T10:46:39.273Z</time>
      </trkpt>
      <trkpt lat="46.72919" lon="-1.9782">
        <ele>7.7</ele>
        <time>2025-01-22T10:46:40.272Z</time>
      </trkpt>
      <trkpt lat="46.72918" lon="-1.97821">
        <ele>7.6</ele>
        <time>2025-01-22T10:46:41.273Z</time>
      </trkpt>
      <trkpt lat="46.72918" lon="-1.97821">
        <ele>7.7</ele>
        <time>2025-01-22T10:46:42.273Z</time>
      </trkpt>
      <trkpt lat="46.72916" lon="-1.97823">
        <ele>7.5</ele>
        <time>2025-01-22T10:46:43.273Z</time>
      </trkpt>
      <trkpt lat="46.72915" lon="-1.97824">
        <ele>7.2</ele>
        <time>2025-01-22T10:46:44.273Z</time>
      </trkpt>
      <trkpt lat="46.72912" lon="-1.97823">
        <ele>7.1</ele>
        <time>2025-01-22T10:46:45.272Z</time>
      </trkpt>
      <trkpt lat="46.7291" lon="-1.97822">
        <ele>7.1</ele>
        <time>2025-01-22T10:46:46.272Z</time>
      </trkpt>
      <trkpt lat="46.72908" lon="-1.9782">
        <ele>7</ele>
        <time>2025-01-22T10:46:47.273Z</time>
      </trkpt>
      <trkpt lat="46.72907" lon="-1.97819">
        <ele>7</ele>
        <time>2025-01-22T10:46:48.273Z</time>
      </trkpt>
      <trkpt lat="46.72906" lon="-1.97817">
        <ele>7</ele>
        <time>2025-01-22T10:46:49.272Z</time>
      </trkpt>
      <trkpt lat="46.72905" lon="-1.97816">
        <ele>7.1</ele>
        <time>2025-01-22T10:46:50.273Z</time>
      </trkpt>
      <trkpt lat="46.72904" lon="-1.97814">
        <ele>7.1</ele>
        <time>2025-01-22T10:46:51.273Z</time>
      </trkpt>
      <trkpt lat="46.72904" lon="-1.97811">
        <ele>7.2</ele>
        <time>2025-01-22T10:46:52.273Z</time>
      </trkpt>
      <trkpt lat="46.72903" lon="-1.97809">
        <ele>7.2</ele>
        <time>2025-01-22T10:46:53.272Z</time>
      </trkpt>
      <trkpt lat="46.72902" lon="-1.97808">
        <ele>7.2</ele>
        <time>2025-01-22T10:46:54.272Z</time>
      </trkpt>
      <trkpt lat="46.72901" lon="-1.97804">
        <ele>7.2</ele>
        <time>2025-01-22T10:46:55.272Z</time>
      </trkpt>
      <trkpt lat="46.729" lon="-1.978">
        <ele>7.1</ele>
        <time>2025-01-22T10:46:56.272Z</time>
      </trkpt>
      <trkpt lat="46.72898" lon="-1.97796">
        <ele>6.9</ele>
        <time>2025-01-22T10:46:57.272Z</time>
      </trkpt>
      <trkpt lat="46.72896" lon="-1.97792">
        <ele>6.6</ele>
        <time>2025-01-22T10:46:58.273Z</time>
      </trkpt>
      <trkpt lat="46.72894" lon="-1.97789">
        <ele>6.2</ele>
        <time>2025-01-22T10:46:59.273Z</time>
      </trkpt>
      <trkpt lat="46.72892" lon="-1.97786">
        <ele>5.8</ele>
        <time>2025-01-22T10:47:00.273Z</time>
      </trkpt>
      <trkpt lat="46.72891" lon="-1.97784">
        <ele>5.5</ele>
        <time>2025-01-22T10:47:01.272Z</time>
      </trkpt>
      <trkpt lat="46.7289" lon="-1.97783">
        <ele>5.1</ele>
        <time>2025-01-22T10:47:02.273Z</time>
      </trkpt>
      <trkpt lat="46.72888" lon="-1.97781">
        <ele>5</ele>
        <time>2025-01-22T10:47:03.273Z</time>
      </trkpt>
      <trkpt lat="46.72886" lon="-1.97779">
        <ele>5</ele>
        <time>2025-01-22T10:47:04.272Z</time>
      </trkpt>
      <trkpt lat="46.72885" lon="-1.97778">
        <ele>5</ele>
        <time>2025-01-22T10:47:05.272Z</time>
      </trkpt>
      <trkpt lat="46.72884" lon="-1.97776">
        <ele>5.1</ele>
        <time>2025-01-22T10:47:06.273Z</time>
      </trkpt>
      <trkpt lat="46.72883" lon="-1.97775">
        <ele>5.1</ele>
        <time>2025-01-22T10:47:07.272Z</time>
      </trkpt>
      <trkpt lat="46.72881" lon="-1.97773">
        <ele>5.1</ele>
        <time>2025-01-22T10:47:08.272Z</time>
      </trkpt>
      <trkpt lat="46.72879" lon="-1.97771">
        <ele>5.2</ele>
        <time>2025-01-22T10:47:09.272Z</time>
      </trkpt>
      <trkpt lat="46.72878" lon="-1.9777">
        <ele>5.2</ele>
        <time>2025-01-22T10:47:10.272Z</time>
      </trkpt>
      <trkpt lat="46.72877" lon="-1.97768">
        <ele>5.2</ele>
        <time>2025-01-22T10:47:11.273Z</time>
      </trkpt>
      <trkpt lat="46.72875" lon="-1.97765">
        <ele>5.2</ele>
        <time>2025-01-22T10:47:12.273Z</time>
      </trkpt>
      <trkpt lat="46.72873" lon="-1.97763">
        <ele>5.2</ele>
        <time>2025-01-22T10:47:13.272Z</time>
      </trkpt>
      <trkpt lat="46.72873" lon="-1.97762">
        <ele>5.2</ele>
        <time>2025-01-22T10:47:14.272Z</time>
      </trkpt>
      <trkpt lat="46.72873" lon="-1.97761">
        <ele>5.3</ele>
        <time>2025-01-22T10:47:15.272Z</time>
      </trkpt>
      <trkpt lat="46.72874" lon="-1.97761">
        <ele>5.3</ele>
        <time>2025-01-22T10:47:16.273Z</time>
      </trkpt>
      <trkpt lat="46.72874" lon="-1.9776">
        <ele>5.3</ele>
        <time>2025-01-22T10:47:17.272Z</time>
      </trkpt>
      <trkpt lat="46.72873" lon="-1.97759">
        <ele>5.3</ele>
        <time>2025-01-22T10:47:18.272Z</time>
      </trkpt>
      <trkpt lat="46.72872" lon="-1.97757">
        <ele>5.3</ele>
        <time>2025-01-22T10:47:19.272Z</time>
      </trkpt>
      <trkpt lat="46.72871" lon="-1.97755">
        <ele>5.3</ele>
        <time>2025-01-22T10:47:20.273Z</time>
      </trkpt>
      <trkpt lat="46.72869" lon="-1.97753">
        <ele>5.3</ele>
        <time>2025-01-22T10:47:21.272Z</time>
      </trkpt>
      <trkpt lat="46.72868" lon="-1.97751">
        <ele>5.2</ele>
        <time>2025-01-22T10:47:22.272Z</time>
      </trkpt>
      <trkpt lat="46.72866" lon="-1.97748">
        <ele>5.2</ele>
        <time>2025-01-22T10:47:23.273Z</time>
      </trkpt>
      <trkpt lat="46.72863" lon="-1.97745">
        <ele>5.1</ele>
        <time>2025-01-22T10:47:24.272Z</time>
      </trkpt>
      <trkpt lat="46.7286" lon="-1.97742">
        <ele>5</ele>
        <time>2025-01-22T10:47:25.272Z</time>
      </trkpt>
      <trkpt lat="46.72858" lon="-1.97738">
        <ele>5</ele>
        <time>2025-01-22T10:47:26.273Z</time>
      </trkpt>
      <trkpt lat="46.72856" lon="-1.97735">
        <ele>5</ele>
        <time>2025-01-22T10:47:27.272Z</time>
      </trkpt>
      <trkpt lat="46.72853" lon="-1.97732">
        <ele>5</ele>
        <time>2025-01-22T10:47:28.272Z</time>
      </trkpt>
      <trkpt lat="46.72851" lon="-1.97729">
        <ele>5</ele>
        <time>2025-01-22T10:47:29.272Z</time>
      </trkpt>
      <trkpt lat="46.72849" lon="-1.97726">
        <ele>5</ele>
        <time>2025-01-22T10:47:30.273Z</time>
      </trkpt>
      <trkpt lat="46.72846" lon="-1.97723">
        <ele>5</ele>
        <time>2025-01-22T10:47:31.273Z</time>
      </trkpt>
      <trkpt lat="46.72844" lon="-1.9772">
        <ele>5</ele>
        <time>2025-01-22T10:47:32.273Z</time>
      </trkpt>
      <trkpt lat="46.72842" lon="-1.97718">
        <ele>4.9</ele>
        <time>2025-01-22T10:47:33.272Z</time>
      </trkpt>
      <trkpt lat="46.72839" lon="-1.97716">
        <ele>4.7</ele>
        <time>2025-01-22T10:47:34.272Z</time>
      </trkpt>
      <trkpt lat="46.72838" lon="-1.97714">
        <ele>4.6</ele>
        <time>2025-01-22T10:47:35.273Z</time>
      </trkpt>
      <trkpt lat="46.72836" lon="-1.97712">
        <ele>4.4</ele>
        <time>2025-01-22T10:47:36.272Z</time>
      </trkpt>
      <trkpt lat="46.72834" lon="-1.97709">
        <ele>4.1</ele>
        <time>2025-01-22T10:47:37.273Z</time>
      </trkpt>
      <trkpt lat="46.72832" lon="-1.97706">
        <ele>3.9</ele>
        <time>2025-01-22T10:47:38.273Z</time>
      </trkpt>
      <trkpt lat="46.72829" lon="-1.97704">
        <ele>3.9</ele>
        <time>2025-01-22T10:47:39.273Z</time>
      </trkpt>
      <trkpt lat="46.72827" lon="-1.97701">
        <ele>3.8</ele>
        <time>2025-01-22T10:47:40.272Z</time>
      </trkpt>
      <trkpt lat="46.72824" lon="-1.97697">
        <ele>3.8</ele>
        <time>2025-01-22T10:47:41.272Z</time>
      </trkpt>
      <trkpt lat="46.72822" lon="-1.97694">
        <ele>3.8</ele>
        <time>2025-01-22T10:47:42.272Z</time>
      </trkpt>
      <trkpt lat="46.7282" lon="-1.97691">
        <ele>4.1</ele>
        <time>2025-01-22T10:47:43.273Z</time>
      </trkpt>
      <trkpt lat="46.72819" lon="-1.97688">
        <ele>4.3</ele>
        <time>2025-01-22T10:47:44.273Z</time>
      </trkpt>
      <trkpt lat="46.72817" lon="-1.97685">
        <ele>4.5</ele>
        <time>2025-01-22T10:47:45.272Z</time>
      </trkpt>
      <trkpt lat="46.72814" lon="-1.97682">
        <ele>4.7</ele>
        <time>2025-01-22T10:47:46.272Z</time>
      </trkpt>
      <trkpt lat="46.72812" lon="-1.9768">
        <ele>4.8</ele>
        <time>2025-01-22T10:47:47.273Z</time>
      </trkpt>
      <trkpt lat="46.7281" lon="-1.97678">
        <ele>4.9</ele>
        <time>2025-01-22T10:47:48.272Z</time>
      </trkpt>
      <trkpt lat="46.72808" lon="-1.97676">
        <ele>4.9</ele>
        <time>2025-01-22T10:47:49.272Z</time>
      </trkpt>
      <trkpt lat="46.72806" lon="-1.97675">
        <ele>5</ele>
        <time>2025-01-22T10:47:50.272Z</time>
      </trkpt>
      <trkpt lat="46.72805" lon="-1.97673">
        <ele>5</ele>
        <time>2025-01-22T10:47:51.273Z</time>
      </trkpt>
      <trkpt lat="46.72803" lon="-1.97671">
        <ele>5</ele>
        <time>2025-01-22T10:47:52.273Z</time>
      </trkpt>
      <trkpt lat="46.72801" lon="-1.97669">
        <ele>5</ele>
        <time>2025-01-22T10:47:53.273Z</time>
      </trkpt>
      <trkpt lat="46.72798" lon="-1.97665">
        <ele>5</ele>
        <time>2025-01-22T10:47:54.272Z</time>
      </trkpt>
      <trkpt lat="46.72796" lon="-1.97663">
        <ele>5</ele>
        <time>2025-01-22T10:47:55.272Z</time>
      </trkpt>
      <trkpt lat="46.72794" lon="-1.97661">
        <ele>5</ele>
        <time>2025-01-22T10:47:56.273Z</time>
      </trkpt>
      <trkpt lat="46.72792" lon="-1.97658">
        <ele>5</ele>
        <time>2025-01-22T10:47:57.273Z</time>
      </trkpt>
      <trkpt lat="46.7279" lon="-1.97656">
        <ele>5</ele>
        <time>2025-01-22T10:47:58.273Z</time>
      </trkpt>
      <trkpt lat="46.72787" lon="-1.97653">
        <ele>5</ele>
        <time>2025-01-22T10:47:59.273Z</time>
      </trkpt>
      <trkpt lat="46.72786" lon="-1.97649">
        <ele>5</ele>
        <time>2025-01-22T10:48:00.272Z</time>
      </trkpt>
      <trkpt lat="46.72784" lon="-1.97647">
        <ele>5</ele>
        <time>2025-01-22T10:48:01.273Z</time>
      </trkpt>
      <trkpt lat="46.72783" lon="-1.97644">
        <ele>5</ele>
        <time>2025-01-22T10:48:02.272Z</time>
      </trkpt>
      <trkpt lat="46.72781" lon="-1.97642">
        <ele>5</ele>
        <time>2025-01-22T10:48:03.272Z</time>
      </trkpt>
      <trkpt lat="46.72779" lon="-1.9764">
        <ele>5</ele>
        <time>2025-01-22T10:48:04.272Z</time>
      </trkpt>
      <trkpt lat="46.72777" lon="-1.97638">
        <ele>5</ele>
        <time>2025-01-22T10:48:05.272Z</time>
      </trkpt>
      <trkpt lat="46.72775" lon="-1.97636">
        <ele>5.1</ele>
        <time>2025-01-22T10:48:06.272Z</time>
      </trkpt>
      <trkpt lat="46.72773" lon="-1.97632">
        <ele>5.2</ele>
        <time>2025-01-22T10:48:07.272Z</time>
      </trkpt>
      <trkpt lat="46.72771" lon="-1.97629">
        <ele>5.2</ele>
        <time>2025-01-22T10:48:08.272Z</time>
      </trkpt>
      <trkpt lat="46.7277" lon="-1.97627">
        <ele>5.3</ele>
        <time>2025-01-22T10:48:09.272Z</time>
      </trkpt>
      <trkpt lat="46.72769" lon="-1.97625">
        <ele>5.3</ele>
        <time>2025-01-22T10:48:10.273Z</time>
      </trkpt>
      <trkpt lat="46.72767" lon="-1.97624">
        <ele>5.4</ele>
        <time>2025-01-22T10:48:11.273Z</time>
      </trkpt>
      <trkpt lat="46.72764" lon="-1.97621">
        <ele>5.5</ele>
        <time>2025-01-22T10:48:12.272Z</time>
      </trkpt>
      <trkpt lat="46.72762" lon="-1.97619">
        <ele>5.6</ele>
        <time>2025-01-22T10:48:13.273Z</time>
      </trkpt>
      <trkpt lat="46.7276" lon="-1.97617">
        <ele>5.7</ele>
        <time>2025-01-22T10:48:14.273Z</time>
      </trkpt>
      <trkpt lat="46.72759" lon="-1.97615">
        <ele>5.7</ele>
        <time>2025-01-22T10:48:15.272Z</time>
      </trkpt>
      <trkpt lat="46.72758" lon="-1.97613">
        <ele>5.7</ele>
        <time>2025-01-22T10:48:16.273Z</time>
      </trkpt>
      <trkpt lat="46.72756" lon="-1.97609">
        <ele>5.8</ele>
        <time>2025-01-22T10:48:17.272Z</time>
      </trkpt>
      <trkpt lat="46.72753" lon="-1.97606">
        <ele>6.1</ele>
        <time>2025-01-22T10:48:18.272Z</time>
      </trkpt>
      <trkpt lat="46.72752" lon="-1.97603">
        <ele>6.2</ele>
        <time>2025-01-22T10:48:19.273Z</time>
      </trkpt>
      <trkpt lat="46.7275" lon="-1.97601">
        <ele>6.3</ele>
        <time>2025-01-22T10:48:20.272Z</time>
      </trkpt>
      <trkpt lat="46.72749" lon="-1.976">
        <ele>6.4</ele>
        <time>2025-01-22T10:48:21.273Z</time>
      </trkpt>
      <trkpt lat="46.72747" lon="-1.97598">
        <ele>6.3</ele>
        <time>2025-01-22T10:48:22.273Z</time>
      </trkpt>
      <trkpt lat="46.72745" lon="-1.97596">
        <ele>6.3</ele>
        <time>2025-01-22T10:48:23.272Z</time>
      </trkpt>
      <trkpt lat="46.72743" lon="-1.97594">
        <ele>6.2</ele>
        <time>2025-01-22T10:48:24.272Z</time>
      </trkpt>
      <trkpt lat="46.72742" lon="-1.97593">
        <ele>6.2</ele>
        <time>2025-01-22T10:48:25.273Z</time>
      </trkpt>
      <trkpt lat="46.7274" lon="-1.9759">
        <ele>6.1</ele>
        <time>2025-01-22T10:48:26.272Z</time>
      </trkpt>
      <trkpt lat="46.72737" lon="-1.97587">
        <ele>6</ele>
        <time>2025-01-22T10:48:27.272Z</time>
      </trkpt>
      <trkpt lat="46.72734" lon="-1.97584">
        <ele>5.8</ele>
        <time>2025-01-22T10:48:28.273Z</time>
      </trkpt>
      <trkpt lat="46.72732" lon="-1.97581">
        <ele>5.7</ele>
        <time>2025-01-22T10:48:29.272Z</time>
      </trkpt>
      <trkpt lat="46.7273" lon="-1.97579">
        <ele>5.6</ele>
        <time>2025-01-22T10:48:30.272Z</time>
      </trkpt>
      <trkpt lat="46.72728" lon="-1.97577">
        <ele>5.4</ele>
        <time>2025-01-22T10:48:31.272Z</time>
      </trkpt>
      <trkpt lat="46.72727" lon="-1.97577">
        <ele>5.3</ele>
        <time>2025-01-22T10:48:32.273Z</time>
      </trkpt>
      <trkpt lat="46.72726" lon="-1.97577">
        <ele>5.2</ele>
        <time>2025-01-22T10:48:33.272Z</time>
      </trkpt>
      <trkpt lat="46.72724" lon="-1.97576">
        <ele>5.1</ele>
        <time>2025-01-22T10:48:34.273Z</time>
      </trkpt>
      <trkpt lat="46.72722" lon="-1.97576">
        <ele>5</ele>
        <time>2025-01-22T10:48:35.272Z</time>
      </trkpt>
      <trkpt lat="46.72721" lon="-1.97576">
        <ele>5</ele>
        <time>2025-01-22T10:48:36.273Z</time>
      </trkpt>
      <trkpt lat="46.7272" lon="-1.97576">
        <ele>5</ele>
        <time>2025-01-22T10:48:37.272Z</time>
      </trkpt>
      <trkpt lat="46.72719" lon="-1.97576">
        <ele>5</ele>
        <time>2025-01-22T10:48:38.272Z</time>
      </trkpt>
      <trkpt lat="46.72717" lon="-1.97574">
        <ele>5</ele>
        <time>2025-01-22T10:48:39.273Z</time>
      </trkpt>
      <trkpt lat="46.72714" lon="-1.9757">
        <ele>5</ele>
        <time>2025-01-22T10:48:40.273Z</time>
      </trkpt>
      <trkpt lat="46.72712" lon="-1.97567">
        <ele>5</ele>
        <time>2025-01-22T10:48:41.273Z</time>
      </trkpt>
      <trkpt lat="46.7271" lon="-1.97565">
        <ele>5</ele>
        <time>2025-01-22T10:48:42.273Z</time>
      </trkpt>
      <trkpt lat="46.72708" lon="-1.97564">
        <ele>5</ele>
        <time>2025-01-22T10:48:43.272Z</time>
      </trkpt>
      <trkpt lat="46.72706" lon="-1.97563">
        <ele>5</ele>
        <time>2025-01-22T10:48:44.272Z</time>
      </trkpt>
      <trkpt lat="46.72703" lon="-1.97563">
        <ele>5</ele>
        <time>2025-01-22T10:48:45.273Z</time>
      </trkpt>
      <trkpt lat="46.72702" lon="-1.97564">
        <ele>5</ele>
        <time>2025-01-22T10:48:46.272Z</time>
      </trkpt>
      <trkpt lat="46.72699" lon="-1.97564">
        <ele>5</ele>
        <time>2025-01-22T10:48:47.272Z</time>
      </trkpt>
      <trkpt lat="46.72696" lon="-1.97564">
        <ele>5</ele>
        <time>2025-01-22T10:48:48.272Z</time>
      </trkpt>
      <trkpt lat="46.72693" lon="-1.97564">
        <ele>5</ele>
        <time>2025-01-22T10:48:49.272Z</time>
      </trkpt>
      <trkpt lat="46.72691" lon="-1.97564">
        <ele>5</ele>
        <time>2025-01-22T10:48:50.272Z</time>
      </trkpt>
      <trkpt lat="46.72688" lon="-1.97565">
        <ele>5</ele>
        <time>2025-01-22T10:48:51.273Z</time>
      </trkpt>
      <trkpt lat="46.72687" lon="-1.97566">
        <ele>5</ele>
        <time>2025-01-22T10:48:52.272Z</time>
      </trkpt>
      <trkpt lat="46.72686" lon="-1.97568">
        <ele>5</ele>
        <time>2025-01-22T10:48:53.272Z</time>
      </trkpt>
      <trkpt lat="46.72685" lon="-1.97569">
        <ele>5</ele>
        <time>2025-01-22T10:48:54.273Z</time>
      </trkpt>
      <trkpt lat="46.72682" lon="-1.9757">
        <ele>5</ele>
        <time>2025-01-22T10:48:55.273Z</time>
      </trkpt>
      <trkpt lat="46.72678" lon="-1.97571">
        <ele>5</ele>
        <time>2025-01-22T10:48:56.272Z</time>
      </trkpt>
      <trkpt lat="46.72676" lon="-1.97573">
        <ele>5</ele>
        <time>2025-01-22T10:48:57.273Z</time>
      </trkpt>
      <trkpt lat="46.72674" lon="-1.97575">
        <ele>5</ele>
        <time>2025-01-22T10:48:58.272Z</time>
      </trkpt>
      <trkpt lat="46.72673" lon="-1.97576">
        <ele>5</ele>
        <time>2025-01-22T10:48:59.272Z</time>
      </trkpt>
      <trkpt lat="46.72672" lon="-1.97578">
        <ele>5</ele>
        <time>2025-01-22T10:49:00.272Z</time>
      </trkpt>
      <trkpt lat="46.72671" lon="-1.9758">
        <ele>5</ele>
        <time>2025-01-22T10:49:01.273Z</time>
      </trkpt>
      <trkpt lat="46.72669" lon="-1.97581">
        <ele>5</ele>
        <time>2025-01-22T10:49:02.273Z</time>
      </trkpt>
      <trkpt lat="46.72667" lon="-1.97582">
        <ele>5</ele>
        <time>2025-01-22T10:49:03.273Z</time>
      </trkpt>
      <trkpt lat="46.72665" lon="-1.97583">
        <ele>5</ele>
        <time>2025-01-22T10:49:04.272Z</time>
      </trkpt>
      <trkpt lat="46.72664" lon="-1.97584">
        <ele>5</ele>
        <time>2025-01-22T10:49:05.272Z</time>
      </trkpt>
      <trkpt lat="46.72663" lon="-1.97586">
        <ele>5</ele>
        <time>2025-01-22T10:49:06.273Z</time>
      </trkpt>
      <trkpt lat="46.72661" lon="-1.97588">
        <ele>5</ele>
        <time>2025-01-22T10:49:07.273Z</time>
      </trkpt>
      <trkpt lat="46.72658" lon="-1.9759">
        <ele>5</ele>
        <time>2025-01-22T10:49:08.273Z</time>
      </trkpt>
      <trkpt lat="46.72655" lon="-1.97592">
        <ele>5</ele>
        <time>2025-01-22T10:49:09.273Z</time>
      </trkpt>
      <trkpt lat="46.7265" lon="-1.97593">
        <ele>5</ele>
        <time>2025-01-22T10:49:10.273Z</time>
      </trkpt>
      <trkpt lat="46.72647" lon="-1.97594">
        <ele>5</ele>
        <time>2025-01-22T10:49:11.272Z</time>
      </trkpt>
      <trkpt lat="46.72645" lon="-1.97596">
        <ele>5</ele>
        <time>2025-01-22T10:49:12.272Z</time>
      </trkpt>
      <trkpt lat="46.7264" lon="-1.976">
        <ele>5</ele>
        <time>2025-01-22T10:49:13.272Z</time>
      </trkpt>
      <trkpt lat="46.72637" lon="-1.97603">
        <ele>5</ele>
        <time>2025-01-22T10:49:14.273Z</time>
      </trkpt>
      <trkpt lat="46.72634" lon="-1.97604">
        <ele>5</ele>
        <time>2025-01-22T10:49:15.272Z</time>
      </trkpt>
      <trkpt lat="46.72631" lon="-1.97606">
        <ele>5</ele>
        <time>2025-01-22T10:49:16.273Z</time>
      </trkpt>
      <trkpt lat="46.72629" lon="-1.97607">
        <ele>5</ele>
        <time>2025-01-22T10:49:17.273Z</time>
      </trkpt>
      <trkpt lat="46.72627" lon="-1.97608">
        <ele>5</ele>
        <time>2025-01-22T10:49:18.273Z</time>
      </trkpt>
      <trkpt lat="46.72626" lon="-1.97609">
        <ele>5</ele>
        <time>2025-01-22T10:49:19.272Z</time>
      </trkpt>
      <trkpt lat="46.72623" lon="-1.97612">
        <ele>5</ele>
        <time>2025-01-22T10:49:20.273Z</time>
      </trkpt>
      <trkpt lat="46.72621" lon="-1.97615">
        <ele>5</ele>
        <time>2025-01-22T10:49:21.272Z</time>
      </trkpt>
      <trkpt lat="46.72618" lon="-1.97619">
        <ele>5</ele>
        <time>2025-01-22T10:49:22.273Z</time>
      </trkpt>
      <trkpt lat="46.72614" lon="-1.97622">
        <ele>5</ele>
        <time>2025-01-22T10:49:23.273Z</time>
      </trkpt>
      <trkpt lat="46.72611" lon="-1.97623">
        <ele>5</ele>
        <time>2025-01-22T10:49:24.272Z</time>
      </trkpt>
      <trkpt lat="46.72606" lon="-1.97624">
        <ele>5</ele>
        <time>2025-01-22T10:49:25.272Z</time>
      </trkpt>
      <trkpt lat="46.72601" lon="-1.97627">
        <ele>5</ele>
        <time>2025-01-22T10:49:26.273Z</time>
      </trkpt>
      <trkpt lat="46.72599" lon="-1.97631">
        <ele>5</ele>
        <time>2025-01-22T10:49:27.273Z</time>
      </trkpt>
      <trkpt lat="46.72597" lon="-1.97633">
        <ele>5</ele>
        <time>2025-01-22T10:49:28.273Z</time>
      </trkpt>
      <trkpt lat="46.72594" lon="-1.97634">
        <ele>5</ele>
        <time>2025-01-22T10:49:29.272Z</time>
      </trkpt>
      <trkpt lat="46.72592" lon="-1.97637">
        <ele>5</ele>
        <time>2025-01-22T10:49:30.273Z</time>
      </trkpt>
      <trkpt lat="46.72589" lon="-1.97641">
        <ele>4.9</ele>
        <time>2025-01-22T10:49:31.273Z</time>
      </trkpt>
      <trkpt lat="46.72587" lon="-1.97645">
        <ele>4.8</ele>
        <time>2025-01-22T10:49:32.273Z</time>
      </trkpt>
      <trkpt lat="46.72585" lon="-1.97648">
        <ele>4.7</ele>
        <time>2025-01-22T10:49:33.272Z</time>
      </trkpt>
      <trkpt lat="46.72582" lon="-1.97649">
        <ele>4.7</ele>
        <time>2025-01-22T10:49:34.272Z</time>
      </trkpt>
      <trkpt lat="46.72579" lon="-1.9765">
        <ele>4.8</ele>
        <time>2025-01-22T10:49:35.273Z</time>
      </trkpt>
      <trkpt lat="46.72576" lon="-1.97654">
        <ele>4.9</ele>
        <time>2025-01-22T10:49:36.272Z</time>
      </trkpt>
      <trkpt lat="46.72572" lon="-1.97656">
        <ele>5.1</ele>
        <time>2025-01-22T10:49:37.273Z</time>
      </trkpt>
      <trkpt lat="46.72568" lon="-1.97656">
        <ele>5.3</ele>
        <time>2025-01-22T10:49:38.273Z</time>
      </trkpt>
      <trkpt lat="46.72564" lon="-1.97658">
        <ele>5.5</ele>
        <time>2025-01-22T10:49:39.273Z</time>
      </trkpt>
      <trkpt lat="46.72561" lon="-1.97661">
        <ele>5.7</ele>
        <time>2025-01-22T10:49:40.272Z</time>
      </trkpt>
      <trkpt lat="46.72559" lon="-1.97662">
        <ele>5.8</ele>
        <time>2025-01-22T10:49:41.272Z</time>
      </trkpt>
      <trkpt lat="46.72558" lon="-1.97664">
        <ele>5.9</ele>
        <time>2025-01-22T10:49:42.272Z</time>
      </trkpt>
      <trkpt lat="46.72556" lon="-1.97667">
        <ele>6</ele>
        <time>2025-01-22T10:49:43.272Z</time>
      </trkpt>
      <trkpt lat="46.72556" lon="-1.9767">
        <ele>6</ele>
        <time>2025-01-22T10:49:44.272Z</time>
      </trkpt>
      <trkpt lat="46.72554" lon="-1.97672">
        <ele>6.1</ele>
        <time>2025-01-22T10:49:45.273Z</time>
      </trkpt>
      <trkpt lat="46.72552" lon="-1.97675">
        <ele>6.3</ele>
        <time>2025-01-22T10:49:46.272Z</time>
      </trkpt>
      <trkpt lat="46.72549" lon="-1.97676">
        <ele>6.5</ele>
        <time>2025-01-22T10:49:47.272Z</time>
      </trkpt>
      <trkpt lat="46.72547" lon="-1.97678">
        <ele>6.6</ele>
        <time>2025-01-22T10:49:48.272Z</time>
      </trkpt>
      <trkpt lat="46.72546" lon="-1.97681">
        <ele>6.7</ele>
        <time>2025-01-22T10:49:49.273Z</time>
      </trkpt>
      <trkpt lat="46.72547" lon="-1.97682">
        <ele>6.6</ele>
        <time>2025-01-22T10:49:50.273Z</time>
      </trkpt>
      <trkpt lat="46.72548" lon="-1.97684">
        <ele>6.5</ele>
        <time>2025-01-22T10:49:51.272Z</time>
      </trkpt>
      <trkpt lat="46.72549" lon="-1.97684">
        <ele>6.5</ele>
        <time>2025-01-22T10:49:52.272Z</time>
      </trkpt>
      <trkpt lat="46.72549" lon="-1.97684">
        <ele>6.5</ele>
        <time>2025-01-22T10:49:53.272Z</time>
      </trkpt>
      <trkpt lat="46.72549" lon="-1.97685">
        <ele>6.5</ele>
        <time>2025-01-22T10:49:54.272Z</time>
      </trkpt>
      <trkpt lat="46.72549" lon="-1.97686">
        <ele>6.5</ele>
        <time>2025-01-22T10:49:55.273Z</time>
      </trkpt>
      <trkpt lat="46.72549" lon="-1.97687">
        <ele>6.5</ele>
        <time>2025-01-22T10:49:56.273Z</time>
      </trkpt>
      <trkpt lat="46.72548" lon="-1.97689">
        <ele>6.6</ele>
        <time>2025-01-22T10:49:57.272Z</time>
      </trkpt>
      <trkpt lat="46.72547" lon="-1.97691">
        <ele>6.7</ele>
        <time>2025-01-22T10:49:58.273Z</time>
      </trkpt>
      <trkpt lat="46.72545" lon="-1.97695">
        <ele>6.7</ele>
        <time>2025-01-22T10:49:59.272Z</time>
      </trkpt>
      <trkpt lat="46.72545" lon="-1.97698">
        <ele>6.8</ele>
        <time>2025-01-22T10:50:00.273Z</time>
      </trkpt>
      <trkpt lat="46.72544" lon="-1.97701">
        <ele>6.8</ele>
        <time>2025-01-22T10:50:01.273Z</time>
      </trkpt>
      <trkpt lat="46.72543" lon="-1.97702">
        <ele>6.8</ele>
        <time>2025-01-22T10:50:02.273Z</time>
      </trkpt>
      <trkpt lat="46.72542" lon="-1.97703">
        <ele>6.8</ele>
        <time>2025-01-22T10:50:03.273Z</time>
      </trkpt>
      <trkpt lat="46.72541" lon="-1.97704">
        <ele>6.9</ele>
        <time>2025-01-22T10:50:04.272Z</time>
      </trkpt>
      <trkpt lat="46.72539" lon="-1.97705">
        <ele>6.9</ele>
        <time>2025-01-22T10:50:05.273Z</time>
      </trkpt>
      <trkpt lat="46.72537" lon="-1.97706">
        <ele>6.9</ele>
        <time>2025-01-22T10:50:06.272Z</time>
      </trkpt>
      <trkpt lat="46.72535" lon="-1.97707">
        <ele>6.9</ele>
        <time>2025-01-22T10:50:07.273Z</time>
      </trkpt>
      <trkpt lat="46.72533" lon="-1.97708">
        <ele>6.9</ele>
        <time>2025-01-22T10:50:08.273Z</time>
      </trkpt>
      <trkpt lat="46.72531" lon="-1.9771">
        <ele>6.8</ele>
        <time>2025-01-22T10:50:09.273Z</time>
      </trkpt>
      <trkpt lat="46.72529" lon="-1.97712">
        <ele>6.8</ele>
        <time>2025-01-22T10:50:10.272Z</time>
      </trkpt>
      <trkpt lat="46.72526" lon="-1.97713">
        <ele>6.6</ele>
        <time>2025-01-22T10:50:11.272Z</time>
      </trkpt>
      <trkpt lat="46.72524" lon="-1.97714">
        <ele>6.4</ele>
        <time>2025-01-22T10:50:12.273Z</time>
      </trkpt>
      <trkpt lat="46.72521" lon="-1.97716">
        <ele>6.3</ele>
        <time>2025-01-22T10:50:13.273Z</time>
      </trkpt>
      <trkpt lat="46.7252" lon="-1.97718">
        <ele>6.2</ele>
        <time>2025-01-22T10:50:14.273Z</time>
      </trkpt>
      <trkpt lat="46.72519" lon="-1.97719">
        <ele>6.1</ele>
        <time>2025-01-22T10:50:15.273Z</time>
      </trkpt>
      <trkpt lat="46.72518" lon="-1.97721">
        <ele>6</ele>
        <time>2025-01-22T10:50:16.273Z</time>
      </trkpt>
      <trkpt lat="46.72518" lon="-1.97723">
        <ele>6</ele>
        <time>2025-01-22T10:50:17.273Z</time>
      </trkpt>
      <trkpt lat="46.72517" lon="-1.97723">
        <ele>6</ele>
        <time>2025-01-22T10:50:18.272Z</time>
      </trkpt>
      <trkpt lat="46.72516" lon="-1.97724">
        <ele>6</ele>
        <time>2025-01-22T10:50:19.272Z</time>
      </trkpt>
      <trkpt lat="46.72516" lon="-1.97724">
        <ele>6</ele>
        <time>2025-01-22T10:50:20.272Z</time>
      </trkpt>
      <trkpt lat="46.72516" lon="-1.97724">
        <ele>6</ele>
        <time>2025-01-22T10:50:21.272Z</time>
      </trkpt>
      <trkpt lat="46.72516" lon="-1.97724">
        <ele>6</ele>
        <time>2025-01-22T10:50:22.272Z</time>
      </trkpt>
      <trkpt lat="46.72517" lon="-1.97723">
        <ele>6</ele>
        <time>2025-01-22T10:50:23.273Z</time>
      </trkpt>
      <trkpt lat="46.72516" lon="-1.97722">
        <ele>6</ele>
        <time>2025-01-22T10:50:24.273Z</time>
      </trkpt>
      <trkpt lat="46.72515" lon="-1.9772">
        <ele>6</ele>
        <time>2025-01-22T10:50:25.272Z</time>
      </trkpt>
      <trkpt lat="46.72514" lon="-1.97719">
        <ele>6.1</ele>
        <time>2025-01-22T10:50:26.273Z</time>
      </trkpt>
      <trkpt lat="46.72512" lon="-1.97716">
        <ele>6.1</ele>
        <time>2025-01-22T10:50:27.272Z</time>
      </trkpt>
      <trkpt lat="46.72511" lon="-1.97712">
        <ele>6</ele>
        <time>2025-01-22T10:50:28.273Z</time>
      </trkpt>
      <trkpt lat="46.7251" lon="-1.97709">
        <ele>6</ele>
        <time>2025-01-22T10:50:29.272Z</time>
      </trkpt>
      <trkpt lat="46.72509" lon="-1.97707">
        <ele>6</ele>
        <time>2025-01-22T10:50:30.273Z</time>
      </trkpt>
      <trkpt lat="46.72509" lon="-1.97706">
        <ele>6</ele>
        <time>2025-01-22T10:50:31.272Z</time>
      </trkpt>
      <trkpt lat="46.72509" lon="-1.97704">
        <ele>6</ele>
        <time>2025-01-22T10:50:32.273Z</time>
      </trkpt>
      <trkpt lat="46.72509" lon="-1.97703">
        <ele>6</ele>
        <time>2025-01-22T10:50:33.273Z</time>
      </trkpt>
      <trkpt lat="46.7251" lon="-1.97701">
        <ele>6</ele>
        <time>2025-01-22T10:50:34.273Z</time>
      </trkpt>
      <trkpt lat="46.72511" lon="-1.97698">
        <ele>6.1</ele>
        <time>2025-01-22T10:50:35.272Z</time>
      </trkpt>
      <trkpt lat="46.72512" lon="-1.97695">
        <ele>6.3</ele>
        <time>2025-01-22T10:50:36.273Z</time>
      </trkpt>
      <trkpt lat="46.72512" lon="-1.97692">
        <ele>6.3</ele>
        <time>2025-01-22T10:50:37.273Z</time>
      </trkpt>
      <trkpt lat="46.72513" lon="-1.97689">
        <ele>6.4</ele>
        <time>2025-01-22T10:50:38.273Z</time>
      </trkpt>
      <trkpt lat="46.72513" lon="-1.97687">
        <ele>6.4</ele>
        <time>2025-01-22T10:50:39.272Z</time>
      </trkpt>
      <trkpt lat="46.72513" lon="-1.97684">
        <ele>6.4</ele>
        <time>2025-01-22T10:50:40.272Z</time>
      </trkpt>
      <trkpt lat="46.72513" lon="-1.97681">
        <ele>6.4</ele>
        <time>2025-01-22T10:50:41.273Z</time>
      </trkpt>
      <trkpt lat="46.72513" lon="-1.97678">
        <ele>6.4</ele>
        <time>2025-01-22T10:50:42.273Z</time>
      </trkpt>
      <trkpt lat="46.72513" lon="-1.97673">
        <ele>6.4</ele>
        <time>2025-01-22T10:50:43.272Z</time>
      </trkpt>
      <trkpt lat="46.72513" lon="-1.97669">
        <ele>6.4</ele>
        <time>2025-01-22T10:50:44.272Z</time>
      </trkpt>
      <trkpt lat="46.72513" lon="-1.97666">
        <ele>6.4</ele>
        <time>2025-01-22T10:50:45.273Z</time>
      </trkpt>
      <trkpt lat="46.72513" lon="-1.97663">
        <ele>6.5</ele>
        <time>2025-01-22T10:50:46.272Z</time>
      </trkpt>
      <trkpt lat="46.72513" lon="-1.97661">
        <ele>6.6</ele>
        <time>2025-01-22T10:50:47.272Z</time>
      </trkpt>
      <trkpt lat="46.72513" lon="-1.97658">
        <ele>6.7</ele>
        <time>2025-01-22T10:50:48.273Z</time>
      </trkpt>
      <trkpt lat="46.72512" lon="-1.97653">
        <ele>6.8</ele>
        <time>2025-01-22T10:50:49.273Z</time>
      </trkpt>
      <trkpt lat="46.7251" lon="-1.97648">
        <ele>6.9</ele>
        <time>2025-01-22T10:50:50.272Z</time>
      </trkpt>
      <trkpt lat="46.72509" lon="-1.97644">
        <ele>7.1</ele>
        <time>2025-01-22T10:50:51.273Z</time>
      </trkpt>
      <trkpt lat="46.72508" lon="-1.97641">
        <ele>7.2</ele>
        <time>2025-01-22T10:50:52.273Z</time>
      </trkpt>
      <trkpt lat="46.72509" lon="-1.97639">
        <ele>7.3</ele>
        <time>2025-01-22T10:50:53.272Z</time>
      </trkpt>
      <trkpt lat="46.72509" lon="-1.97637">
        <ele>7.2</ele>
        <time>2025-01-22T10:50:54.272Z</time>
      </trkpt>
      <trkpt lat="46.72508" lon="-1.97635">
        <ele>7.1</ele>
        <time>2025-01-22T10:50:55.272Z</time>
      </trkpt>
      <trkpt lat="46.72508" lon="-1.97632">
        <ele>7</ele>
        <time>2025-01-22T10:50:56.273Z</time>
      </trkpt>
      <trkpt lat="46.72508" lon="-1.9763">
        <ele>6.9</ele>
        <time>2025-01-22T10:50:57.272Z</time>
      </trkpt>
      <trkpt lat="46.72506" lon="-1.97628">
        <ele>6.7</ele>
        <time>2025-01-22T10:50:58.273Z</time>
      </trkpt>
      <trkpt lat="46.72505" lon="-1.97625">
        <ele>6.6</ele>
        <time>2025-01-22T10:50:59.272Z</time>
      </trkpt>
      <trkpt lat="46.72502" lon="-1.9762">
        <ele>6.3</ele>
        <time>2025-01-22T10:51:00.272Z</time>
      </trkpt>
      <trkpt lat="46.725" lon="-1.97615">
        <ele>6.2</ele>
        <time>2025-01-22T10:51:01.272Z</time>
      </trkpt>
      <trkpt lat="46.72497" lon="-1.9761">
        <ele>5.8</ele>
        <time>2025-01-22T10:51:02.273Z</time>
      </trkpt>
      <trkpt lat="46.72494" lon="-1.97603">
        <ele>5.5</ele>
        <time>2025-01-22T10:51:03.273Z</time>
      </trkpt>
      <trkpt lat="46.72492" lon="-1.97598">
        <ele>5.4</ele>
        <time>2025-01-22T10:51:04.272Z</time>
      </trkpt>
      <trkpt lat="46.72492" lon="-1.97595">
        <ele>5.3</ele>
        <time>2025-01-22T10:51:05.272Z</time>
      </trkpt>
      <trkpt lat="46.72494" lon="-1.97592">
        <ele>5.2</ele>
        <time>2025-01-22T10:51:06.273Z</time>
      </trkpt>
      <trkpt lat="46.72493" lon="-1.97588">
        <ele>5.1</ele>
        <time>2025-01-22T10:51:07.272Z</time>
      </trkpt>
      <trkpt lat="46.72492" lon="-1.97584">
        <ele>5</ele>
        <time>2025-01-22T10:51:08.272Z</time>
      </trkpt>
      <trkpt lat="46.7249" lon="-1.97578">
        <ele>5.1</ele>
        <time>2025-01-22T10:51:09.272Z</time>
      </trkpt>
      <trkpt lat="46.7249" lon="-1.97575">
        <ele>5.1</ele>
        <time>2025-01-22T10:51:10.272Z</time>
      </trkpt>
      <trkpt lat="46.7249" lon="-1.97572">
        <ele>5.1</ele>
        <time>2025-01-22T10:51:11.273Z</time>
      </trkpt>
      <trkpt lat="46.72488" lon="-1.97568">
        <ele>5.2</ele>
        <time>2025-01-22T10:51:12.273Z</time>
      </trkpt>
      <trkpt lat="46.72487" lon="-1.97564">
        <ele>5.3</ele>
        <time>2025-01-22T10:51:13.273Z</time>
      </trkpt>
      <trkpt lat="46.72487" lon="-1.9756">
        <ele>5.4</ele>
        <time>2025-01-22T10:51:14.273Z</time>
      </trkpt>
      <trkpt lat="46.72486" lon="-1.97556">
        <ele>5.5</ele>
        <time>2025-01-22T10:51:15.273Z</time>
      </trkpt>
      <trkpt lat="46.72485" lon="-1.9755">
        <ele>5.8</ele>
        <time>2025-01-22T10:51:16.272Z</time>
      </trkpt>
      <trkpt lat="46.72483" lon="-1.97544">
        <ele>6</ele>
        <time>2025-01-22T10:51:17.272Z</time>
      </trkpt>
      <trkpt lat="46.7248" lon="-1.97538">
        <ele>6.3</ele>
        <time>2025-01-22T10:51:18.272Z</time>
      </trkpt>
      <trkpt lat="46.72478" lon="-1.97534">
        <ele>6.6</ele>
        <time>2025-01-22T10:51:19.273Z</time>
      </trkpt>
      <trkpt lat="46.72475" lon="-1.97531">
        <ele>6.8</ele>
        <time>2025-01-22T10:51:20.272Z</time>
      </trkpt>
      <trkpt lat="46.72474" lon="-1.97527">
        <ele>7</ele>
        <time>2025-01-22T10:51:21.273Z</time>
      </trkpt>
      <trkpt lat="46.72473" lon="-1.97523">
        <ele>7</ele>
        <time>2025-01-22T10:51:22.273Z</time>
      </trkpt>
      <trkpt lat="46.72472" lon="-1.9752">
        <ele>7</ele>
        <time>2025-01-22T10:51:23.272Z</time>
      </trkpt>
      <trkpt lat="46.72471" lon="-1.97517">
        <ele>7</ele>
        <time>2025-01-22T10:51:24.273Z</time>
      </trkpt>
      <trkpt lat="46.7247" lon="-1.97514">
        <ele>7</ele>
        <time>2025-01-22T10:51:25.272Z</time>
      </trkpt>
      <trkpt lat="46.7247" lon="-1.97511">
        <ele>7</ele>
        <time>2025-01-22T10:51:26.273Z</time>
      </trkpt>
      <trkpt lat="46.7247" lon="-1.97509">
        <ele>7</ele>
        <time>2025-01-22T10:51:27.273Z</time>
      </trkpt>
      <trkpt lat="46.72469" lon="-1.97507">
        <ele>7</ele>
        <time>2025-01-22T10:51:28.273Z</time>
      </trkpt>
      <trkpt lat="46.7247" lon="-1.97506">
        <ele>7</ele>
        <time>2025-01-22T10:51:29.273Z</time>
      </trkpt>
      <trkpt lat="46.7247" lon="-1.97505">
        <ele>7</ele>
        <time>2025-01-22T10:51:30.272Z</time>
      </trkpt>
      <trkpt lat="46.72471" lon="-1.97504">
        <ele>7</ele>
        <time>2025-01-22T10:51:31.273Z</time>
      </trkpt>
      <trkpt lat="46.72469" lon="-1.97499">
        <ele>6.9</ele>
        <time>2025-01-22T10:51:32.273Z</time>
      </trkpt>
      <trkpt lat="46.72468" lon="-1.97493">
        <ele>6.7</ele>
        <time>2025-01-22T10:51:33.273Z</time>
      </trkpt>
      <trkpt lat="46.72467" lon="-1.97488">
        <ele>6.6</ele>
        <time>2025-01-22T10:51:34.273Z</time>
      </trkpt>
      <trkpt lat="46.72466" lon="-1.97485">
        <ele>6.5</ele>
        <time>2025-01-22T10:51:35.273Z</time>
      </trkpt>
      <trkpt lat="46.72466" lon="-1.97482">
        <ele>6.4</ele>
        <time>2025-01-22T10:51:36.272Z</time>
      </trkpt>
      <trkpt lat="46.72466" lon="-1.9748">
        <ele>6.3</ele>
        <time>2025-01-22T10:51:37.272Z</time>
      </trkpt>
      <trkpt lat="46.72466" lon="-1.97478">
        <ele>6.2</ele>
        <time>2025-01-22T10:51:38.272Z</time>
      </trkpt>
      <trkpt lat="46.72466" lon="-1.97476">
        <ele>6.1</ele>
        <time>2025-01-22T10:51:39.273Z</time>
      </trkpt>
      <trkpt lat="46.72465" lon="-1.97474">
        <ele>6.1</ele>
        <time>2025-01-22T10:51:40.273Z</time>
      </trkpt>
      <trkpt lat="46.72464" lon="-1.97472">
        <ele>6</ele>
        <time>2025-01-22T10:51:41.272Z</time>
      </trkpt>
      <trkpt lat="46.72463" lon="-1.97471">
        <ele>6</ele>
        <time>2025-01-22T10:51:42.272Z</time>
      </trkpt>
      <trkpt lat="46.72461" lon="-1.97469">
        <ele>6.1</ele>
        <time>2025-01-22T10:51:43.272Z</time>
      </trkpt>
      <trkpt lat="46.7246" lon="-1.97468">
        <ele>6.1</ele>
        <time>2025-01-22T10:51:44.273Z</time>
      </trkpt>
      <trkpt lat="46.72457" lon="-1.97465">
        <ele>6.1</ele>
        <time>2025-01-22T10:51:45.273Z</time>
      </trkpt>
      <trkpt lat="46.72453" lon="-1.97463">
        <ele>6.1</ele>
        <time>2025-01-22T10:51:46.272Z</time>
      </trkpt>
      <trkpt lat="46.7245" lon="-1.97462">
        <ele>6.1</ele>
        <time>2025-01-22T10:51:47.272Z</time>
      </trkpt>
      <trkpt lat="46.72448" lon="-1.9746">
        <ele>6.1</ele>
        <time>2025-01-22T10:51:48.272Z</time>
      </trkpt>
      <trkpt lat="46.72446" lon="-1.97459">
        <ele>6</ele>
        <time>2025-01-22T10:51:49.273Z</time>
      </trkpt>
      <trkpt lat="46.72445" lon="-1.97458">
        <ele>6</ele>
        <time>2025-01-22T10:51:50.272Z</time>
      </trkpt>
      <trkpt lat="46.72442" lon="-1.97458">
        <ele>6</ele>
        <time>2025-01-22T10:51:51.272Z</time>
      </trkpt>
      <trkpt lat="46.72439" lon="-1.97456">
        <ele>6.1</ele>
        <time>2025-01-22T10:51:52.272Z</time>
      </trkpt>
      <trkpt lat="46.72436" lon="-1.97454">
        <ele>6.2</ele>
        <time>2025-01-22T10:51:53.273Z</time>
      </trkpt>
      <trkpt lat="46.72434" lon="-1.97453">
        <ele>6.3</ele>
        <time>2025-01-22T10:51:54.273Z</time>
      </trkpt>
      <trkpt lat="46.72432" lon="-1.97451">
        <ele>6.3</ele>
        <time>2025-01-22T10:51:55.272Z</time>
      </trkpt>
      <trkpt lat="46.7243" lon="-1.97448">
        <ele>6.5</ele>
        <time>2025-01-22T10:51:56.272Z</time>
      </trkpt>
      <trkpt lat="46.72428" lon="-1.97447">
        <ele>6.5</ele>
        <time>2025-01-22T10:51:57.272Z</time>
      </trkpt>
      <trkpt lat="46.72427" lon="-1.97448">
        <ele>6.5</ele>
        <time>2025-01-22T10:51:58.273Z</time>
      </trkpt>
      <trkpt lat="46.72427" lon="-1.97448">
        <ele>6.6</ele>
        <time>2025-01-22T10:51:59.272Z</time>
      </trkpt>
      <trkpt lat="46.72426" lon="-1.97448">
        <ele>6.6</ele>
        <time>2025-01-22T10:52:00.273Z</time>
      </trkpt>
      <trkpt lat="46.72424" lon="-1.97448">
        <ele>6.6</ele>
        <time>2025-01-22T10:52:01.273Z</time>
      </trkpt>
      <trkpt lat="46.72422" lon="-1.97448">
        <ele>6.7</ele>
        <time>2025-01-22T10:52:02.272Z</time>
      </trkpt>
      <trkpt lat="46.7242" lon="-1.97446">
        <ele>6.8</ele>
        <time>2025-01-22T10:52:03.272Z</time>
      </trkpt>
      <trkpt lat="46.72417" lon="-1.97444">
        <ele>6.9</ele>
        <time>2025-01-22T10:52:04.273Z</time>
      </trkpt>
      <trkpt lat="46.72414" lon="-1.97441">
        <ele>6.9</ele>
        <time>2025-01-22T10:52:05.273Z</time>
      </trkpt>
      <trkpt lat="46.72411" lon="-1.97437">
        <ele>6.7</ele>
        <time>2025-01-22T10:52:06.273Z</time>
      </trkpt>
      <trkpt lat="46.72406" lon="-1.97432">
        <ele>6.5</ele>
        <time>2025-01-22T10:52:07.273Z</time>
      </trkpt>
      <trkpt lat="46.72404" lon="-1.97427">
        <ele>6.4</ele>
        <time>2025-01-22T10:52:08.272Z</time>
      </trkpt>
      <trkpt lat="46.72402" lon="-1.97425">
        <ele>6.3</ele>
        <time>2025-01-22T10:52:09.272Z</time>
      </trkpt>
      <trkpt lat="46.72401" lon="-1.97424">
        <ele>6.3</ele>
        <time>2025-01-22T10:52:10.272Z</time>
      </trkpt>
      <trkpt lat="46.724" lon="-1.97423">
        <ele>6.2</ele>
        <time>2025-01-22T10:52:11.273Z</time>
      </trkpt>
      <trkpt lat="46.72397" lon="-1.97421">
        <ele>6.2</ele>
        <time>2025-01-22T10:52:12.273Z</time>
      </trkpt>
      <trkpt lat="46.72394" lon="-1.97418">
        <ele>6.1</ele>
        <time>2025-01-22T10:52:13.273Z</time>
      </trkpt>
      <trkpt lat="46.72391" lon="-1.97416">
        <ele>6</ele>
        <time>2025-01-22T10:52:14.273Z</time>
      </trkpt>
      <trkpt lat="46.72389" lon="-1.97414">
        <ele>6</ele>
        <time>2025-01-22T10:52:15.272Z</time>
      </trkpt>
      <trkpt lat="46.72386" lon="-1.97414">
        <ele>6.1</ele>
        <time>2025-01-22T10:52:16.272Z</time>
      </trkpt>
      <trkpt lat="46.72384" lon="-1.97416">
        <ele>6.2</ele>
        <time>2025-01-22T10:52:17.272Z</time>
      </trkpt>
      <trkpt lat="46.72382" lon="-1.97417">
        <ele>6.3</ele>
        <time>2025-01-22T10:52:18.272Z</time>
      </trkpt>
      <trkpt lat="46.72379" lon="-1.97417">
        <ele>6.4</ele>
        <time>2025-01-22T10:52:19.273Z</time>
      </trkpt>
      <trkpt lat="46.72377" lon="-1.97417">
        <ele>6.4</ele>
        <time>2025-01-22T10:52:20.272Z</time>
      </trkpt>
      <trkpt lat="46.72375" lon="-1.97417">
        <ele>6.5</ele>
        <time>2025-01-22T10:52:21.272Z</time>
      </trkpt>
      <trkpt lat="46.72374" lon="-1.97417">
        <ele>6.6</ele>
        <time>2025-01-22T10:52:22.272Z</time>
      </trkpt>
      <trkpt lat="46.72372" lon="-1.97415">
        <ele>6.6</ele>
        <time>2025-01-22T10:52:23.273Z</time>
      </trkpt>
      <trkpt lat="46.72369" lon="-1.97412">
        <ele>6.7</ele>
        <time>2025-01-22T10:52:24.273Z</time>
      </trkpt>
      <trkpt lat="46.72367" lon="-1.97411">
        <ele>6.8</ele>
        <time>2025-01-22T10:52:25.272Z</time>
      </trkpt>
      <trkpt lat="46.72366" lon="-1.97411">
        <ele>6.8</ele>
        <time>2025-01-22T10:52:26.272Z</time>
      </trkpt>
      <trkpt lat="46.72363" lon="-1.9741">
        <ele>6.9</ele>
        <time>2025-01-22T10:52:27.272Z</time>
      </trkpt>
      <trkpt lat="46.72361" lon="-1.9741">
        <ele>7</ele>
        <time>2025-01-22T10:52:28.272Z</time>
      </trkpt>
      <trkpt lat="46.72359" lon="-1.97409">
        <ele>7</ele>
        <time>2025-01-22T10:52:29.273Z</time>
      </trkpt>
      <trkpt lat="46.72357" lon="-1.97408">
        <ele>6.9</ele>
        <time>2025-01-22T10:52:30.273Z</time>
      </trkpt>
      <trkpt lat="46.72353" lon="-1.97405">
        <ele>6.9</ele>
        <time>2025-01-22T10:52:31.273Z</time>
      </trkpt>
      <trkpt lat="46.72352" lon="-1.97404">
        <ele>6.9</ele>
        <time>2025-01-22T10:52:32.272Z</time>
      </trkpt>
      <trkpt lat="46.72351" lon="-1.97404">
        <ele>6.8</ele>
        <time>2025-01-22T10:52:33.273Z</time>
      </trkpt>
      <trkpt lat="46.72348" lon="-1.97405">
        <ele>6.8</ele>
        <time>2025-01-22T10:52:34.272Z</time>
      </trkpt>
      <trkpt lat="46.72345" lon="-1.97409">
        <ele>6.8</ele>
        <time>2025-01-22T10:52:35.272Z</time>
      </trkpt>
      <trkpt lat="46.72341" lon="-1.9741">
        <ele>6.8</ele>
        <time>2025-01-22T10:52:36.273Z</time>
      </trkpt>
      <trkpt lat="46.72337" lon="-1.97412">
        <ele>6.8</ele>
        <time>2025-01-22T10:52:37.273Z</time>
      </trkpt>
      <trkpt lat="46.72334" lon="-1.97413">
        <ele>6.9</ele>
        <time>2025-01-22T10:52:38.273Z</time>
      </trkpt>
      <trkpt lat="46.72332" lon="-1.97413">
        <ele>6.9</ele>
        <time>2025-01-22T10:52:39.272Z</time>
      </trkpt>
      <trkpt lat="46.72331" lon="-1.97412">
        <ele>6.9</ele>
        <time>2025-01-22T10:52:40.272Z</time>
      </trkpt>
      <trkpt lat="46.72329" lon="-1.97412">
        <ele>6.9</ele>
        <time>2025-01-22T10:52:41.272Z</time>
      </trkpt>
      <trkpt lat="46.72328" lon="-1.97414">
        <ele>6.9</ele>
        <time>2025-01-22T10:52:42.273Z</time>
      </trkpt>
      <trkpt lat="46.72326" lon="-1.97413">
        <ele>6.9</ele>
        <time>2025-01-22T10:52:43.273Z</time>
      </trkpt>
      <trkpt lat="46.72324" lon="-1.9741">
        <ele>6.9</ele>
        <time>2025-01-22T10:52:44.273Z</time>
      </trkpt>
      <trkpt lat="46.72321" lon="-1.97409">
        <ele>6.8</ele>
        <time>2025-01-22T10:52:45.273Z</time>
      </trkpt>
      <trkpt lat="46.72319" lon="-1.97409">
        <ele>6.9</ele>
        <time>2025-01-22T10:52:46.273Z</time>
      </trkpt>
      <trkpt lat="46.72316" lon="-1.97411">
        <ele>6.9</ele>
        <time>2025-01-22T10:52:47.273Z</time>
      </trkpt>
      <trkpt lat="46.72315" lon="-1.97412">
        <ele>6.9</ele>
        <time>2025-01-22T10:52:48.273Z</time>
      </trkpt>
      <trkpt lat="46.72313" lon="-1.97412">
        <ele>7</ele>
        <time>2025-01-22T10:52:49.272Z</time>
      </trkpt>
      <trkpt lat="46.72312" lon="-1.97411">
        <ele>7</ele>
        <time>2025-01-22T10:52:50.272Z</time>
      </trkpt>
      <trkpt lat="46.7231" lon="-1.97411">
        <ele>7</ele>
        <time>2025-01-22T10:52:51.272Z</time>
      </trkpt>
      <trkpt lat="46.72307" lon="-1.9741">
        <ele>7</ele>
        <time>2025-01-22T10:52:52.272Z</time>
      </trkpt>
      <trkpt lat="46.72305" lon="-1.9741">
        <ele>7</ele>
        <time>2025-01-22T10:52:53.273Z</time>
      </trkpt>
      <trkpt lat="46.72303" lon="-1.97408">
        <ele>7</ele>
        <time>2025-01-22T10:52:54.272Z</time>
      </trkpt>
      <trkpt lat="46.723" lon="-1.97405">
        <ele>7.1</ele>
        <time>2025-01-22T10:52:55.273Z</time>
      </trkpt>
      <trkpt lat="46.72297" lon="-1.97401">
        <ele>7.2</ele>
        <time>2025-01-22T10:52:56.273Z</time>
      </trkpt>
      <trkpt lat="46.72297" lon="-1.97398">
        <ele>7.2</ele>
        <time>2025-01-22T10:52:57.273Z</time>
      </trkpt>
      <trkpt lat="46.72298" lon="-1.97396">
        <ele>7.2</ele>
        <time>2025-01-22T10:52:58.272Z</time>
      </trkpt>
      <trkpt lat="46.72299" lon="-1.9739">
        <ele>7.2</ele>
        <time>2025-01-22T10:52:59.272Z</time>
      </trkpt>
      <trkpt lat="46.72299" lon="-1.97386">
        <ele>7.2</ele>
        <time>2025-01-22T10:53:00.272Z</time>
      </trkpt>
      <trkpt lat="46.72299" lon="-1.97381">
        <ele>7.2</ele>
        <time>2025-01-22T10:53:01.272Z</time>
      </trkpt>
      <trkpt lat="46.72298" lon="-1.97378">
        <ele>7.2</ele>
        <time>2025-01-22T10:53:02.273Z</time>
      </trkpt>
      <trkpt lat="46.72297" lon="-1.97376">
        <ele>7.2</ele>
        <time>2025-01-22T10:53:03.272Z</time>
      </trkpt>
      <trkpt lat="46.72295" lon="-1.97373">
        <ele>7.2</ele>
        <time>2025-01-22T10:53:04.272Z</time>
      </trkpt>
      <trkpt lat="46.72293" lon="-1.97372">
        <ele>7.2</ele>
        <time>2025-01-22T10:53:05.273Z</time>
      </trkpt>
      <trkpt lat="46.72292" lon="-1.9737">
        <ele>7.2</ele>
        <time>2025-01-22T10:53:06.272Z</time>
      </trkpt>
      <trkpt lat="46.72291" lon="-1.97368">
        <ele>7.1</ele>
        <time>2025-01-22T10:53:07.272Z</time>
      </trkpt>
      <trkpt lat="46.7229" lon="-1.97367">
        <ele>7.1</ele>
        <time>2025-01-22T10:53:08.273Z</time>
      </trkpt>
      <trkpt lat="46.72289" lon="-1.97365">
        <ele>7.1</ele>
        <time>2025-01-22T10:53:09.273Z</time>
      </trkpt>
      <trkpt lat="46.72287" lon="-1.97363">
        <ele>7</ele>
        <time>2025-01-22T10:53:10.273Z</time>
      </trkpt>
      <trkpt lat="46.72284" lon="-1.9736">
        <ele>7</ele>
        <time>2025-01-22T10:53:11.273Z</time>
      </trkpt>
      <trkpt lat="46.72282" lon="-1.97357">
        <ele>7</ele>
        <time>2025-01-22T10:53:12.273Z</time>
      </trkpt>
      <trkpt lat="46.72281" lon="-1.97353">
        <ele>7</ele>
        <time>2025-01-22T10:53:13.273Z</time>
      </trkpt>
      <trkpt lat="46.72279" lon="-1.97347">
        <ele>7</ele>
        <time>2025-01-22T10:53:14.272Z</time>
      </trkpt>
      <trkpt lat="46.72277" lon="-1.97341">
        <ele>7</ele>
        <time>2025-01-22T10:53:15.272Z</time>
      </trkpt>
      <trkpt lat="46.72276" lon="-1.97335">
        <ele>7.1</ele>
        <time>2025-01-22T10:53:16.273Z</time>
      </trkpt>
      <trkpt lat="46.72276" lon="-1.97331">
        <ele>7.1</ele>
        <time>2025-01-22T10:53:17.273Z</time>
      </trkpt>
      <trkpt lat="46.72275" lon="-1.97328">
        <ele>7.1</ele>
        <time>2025-01-22T10:53:18.273Z</time>
      </trkpt>
      <trkpt lat="46.72274" lon="-1.97321">
        <ele>7.1</ele>
        <time>2025-01-22T10:53:19.272Z</time>
      </trkpt>
      <trkpt lat="46.72273" lon="-1.97315">
        <ele>7.1</ele>
        <time>2025-01-22T10:53:20.272Z</time>
      </trkpt>
      <trkpt lat="46.72271" lon="-1.97311">
        <ele>7</ele>
        <time>2025-01-22T10:53:21.272Z</time>
      </trkpt>
      <trkpt lat="46.7227" lon="-1.97307">
        <ele>7</ele>
        <time>2025-01-22T10:53:22.273Z</time>
      </trkpt>
      <trkpt lat="46.72268" lon="-1.97304">
        <ele>7</ele>
        <time>2025-01-22T10:53:23.272Z</time>
      </trkpt>
      <trkpt lat="46.72268" lon="-1.97301">
        <ele>7.1</ele>
        <time>2025-01-22T10:53:24.273Z</time>
      </trkpt>
      <trkpt lat="46.72266" lon="-1.97298">
        <ele>7.2</ele>
        <time>2025-01-22T10:53:25.272Z</time>
      </trkpt>
      <trkpt lat="46.72265" lon="-1.97294">
        <ele>7.2</ele>
        <time>2025-01-22T10:53:26.272Z</time>
      </trkpt>
      <trkpt lat="46.72263" lon="-1.9729">
        <ele>7.3</ele>
        <time>2025-01-22T10:53:27.272Z</time>
      </trkpt>
      <trkpt lat="46.72262" lon="-1.97287">
        <ele>7.3</ele>
        <time>2025-01-22T10:53:28.272Z</time>
      </trkpt>
      <trkpt lat="46.7226" lon="-1.97283">
        <ele>7.3</ele>
        <time>2025-01-22T10:53:29.272Z</time>
      </trkpt>
      <trkpt lat="46.72258" lon="-1.97278">
        <ele>7.3</ele>
        <time>2025-01-22T10:53:30.272Z</time>
      </trkpt>
      <trkpt lat="46.72253" lon="-1.97272">
        <ele>6.9</ele>
        <time>2025-01-22T10:53:31.273Z</time>
      </trkpt>
      <trkpt lat="46.7225" lon="-1.97269">
        <ele>6.7</ele>
        <time>2025-01-22T10:53:32.272Z</time>
      </trkpt>
      <trkpt lat="46.72249" lon="-1.97267">
        <ele>6.6</ele>
        <time>2025-01-22T10:53:33.273Z</time>
      </trkpt>
      <trkpt lat="46.72248" lon="-1.97264">
        <ele>6.5</ele>
        <time>2025-01-22T10:53:34.273Z</time>
      </trkpt>
      <trkpt lat="46.72246" lon="-1.97261">
        <ele>6.5</ele>
        <time>2025-01-22T10:53:35.273Z</time>
      </trkpt>
      <trkpt lat="46.72245" lon="-1.97259">
        <ele>6.4</ele>
        <time>2025-01-22T10:53:36.272Z</time>
      </trkpt>
      <trkpt lat="46.72245" lon="-1.9726">
        <ele>6.5</ele>
        <time>2025-01-22T10:53:37.273Z</time>
      </trkpt>
      <trkpt lat="46.72244" lon="-1.97259">
        <ele>6.5</ele>
        <time>2025-01-22T10:53:38.272Z</time>
      </trkpt>
      <trkpt lat="46.72243" lon="-1.97256">
        <ele>6.4</ele>
        <time>2025-01-22T10:53:39.272Z</time>
      </trkpt>
      <trkpt lat="46.7224" lon="-1.97253">
        <ele>6.4</ele>
        <time>2025-01-22T10:53:40.272Z</time>
      </trkpt>
      <trkpt lat="46.72239" lon="-1.97251">
        <ele>6.4</ele>
        <time>2025-01-22T10:53:41.272Z</time>
      </trkpt>
      <trkpt lat="46.72237" lon="-1.97249">
        <ele>6.5</ele>
        <time>2025-01-22T10:53:42.272Z</time>
      </trkpt>
      <trkpt lat="46.72235" lon="-1.97248">
        <ele>6.5</ele>
        <time>2025-01-22T10:53:43.272Z</time>
      </trkpt>
      <trkpt lat="46.72234" lon="-1.97246">
        <ele>6.5</ele>
        <time>2025-01-22T10:53:44.273Z</time>
      </trkpt>
      <trkpt lat="46.72234" lon="-1.97244">
        <ele>6.5</ele>
        <time>2025-01-22T10:53:45.272Z</time>
      </trkpt>
      <trkpt lat="46.72234" lon="-1.97243">
        <ele>6.4</ele>
        <time>2025-01-22T10:53:46.272Z</time>
      </trkpt>
      <trkpt lat="46.72234" lon="-1.97242">
        <ele>6.4</ele>
        <time>2025-01-22T10:53:47.272Z</time>
      </trkpt>
      <trkpt lat="46.72234" lon="-1.97239">
        <ele>6.3</ele>
        <time>2025-01-22T10:53:48.272Z</time>
      </trkpt>
      <trkpt lat="46.72233" lon="-1.97236">
        <ele>6.3</ele>
        <time>2025-01-22T10:53:49.273Z</time>
      </trkpt>
      <trkpt lat="46.72232" lon="-1.97233">
        <ele>6.2</ele>
        <time>2025-01-22T10:53:50.273Z</time>
      </trkpt>
      <trkpt lat="46.7223" lon="-1.9723">
        <ele>6.2</ele>
        <time>2025-01-22T10:53:51.273Z</time>
      </trkpt>
      <trkpt lat="46.72228" lon="-1.97227">
        <ele>6.1</ele>
        <time>2025-01-22T10:53:52.273Z</time>
      </trkpt>
      <trkpt lat="46.72227" lon="-1.97225">
        <ele>6.1</ele>
        <time>2025-01-22T10:53:53.272Z</time>
      </trkpt>
      <trkpt lat="46.72225" lon="-1.97222">
        <ele>6</ele>
        <time>2025-01-22T10:53:54.272Z</time>
      </trkpt>
      <trkpt lat="46.72224" lon="-1.97218">
        <ele>6</ele>
        <time>2025-01-22T10:53:55.272Z</time>
      </trkpt>
      <trkpt lat="46.72223" lon="-1.97215">
        <ele>6</ele>
        <time>2025-01-22T10:53:56.273Z</time>
      </trkpt>
      <trkpt lat="46.72222" lon="-1.97213">
        <ele>6</ele>
        <time>2025-01-22T10:53:57.273Z</time>
      </trkpt>
      <trkpt lat="46.72221" lon="-1.97209">
        <ele>6</ele>
        <time>2025-01-22T10:53:58.272Z</time>
      </trkpt>
      <trkpt lat="46.72222" lon="-1.97205">
        <ele>6</ele>
        <time>2025-01-22T10:53:59.272Z</time>
      </trkpt>
      <trkpt lat="46.72223" lon="-1.97201">
        <ele>6</ele>
        <time>2025-01-22T10:54:00.272Z</time>
      </trkpt>
      <trkpt lat="46.72224" lon="-1.97197">
        <ele>6</ele>
        <time>2025-01-22T10:54:01.272Z</time>
      </trkpt>
      <trkpt lat="46.72225" lon="-1.97194">
        <ele>6</ele>
        <time>2025-01-22T10:54:02.273Z</time>
      </trkpt>
      <trkpt lat="46.72227" lon="-1.97191">
        <ele>6</ele>
        <time>2025-01-22T10:54:03.273Z</time>
      </trkpt>
      <trkpt lat="46.72229" lon="-1.97187">
        <ele>6.1</ele>
        <time>2025-01-22T10:54:04.272Z</time>
      </trkpt>
      <trkpt lat="46.7223" lon="-1.97184">
        <ele>6.1</ele>
        <time>2025-01-22T10:54:05.273Z</time>
      </trkpt>
      <trkpt lat="46.72231" lon="-1.97181">
        <ele>6.1</ele>
        <time>2025-01-22T10:54:06.272Z</time>
      </trkpt>
      <trkpt lat="46.72232" lon="-1.97179">
        <ele>6.2</ele>
        <time>2025-01-22T10:54:07.272Z</time>
      </trkpt>
      <trkpt lat="46.72234" lon="-1.97176">
        <ele>6.3</ele>
        <time>2025-01-22T10:54:08.273Z</time>
      </trkpt>
      <trkpt lat="46.72236" lon="-1.97174">
        <ele>6.4</ele>
        <time>2025-01-22T10:54:09.273Z</time>
      </trkpt>
      <trkpt lat="46.72238" lon="-1.9717">
        <ele>6.5</ele>
        <time>2025-01-22T10:54:10.273Z</time>
      </trkpt>
      <trkpt lat="46.72241" lon="-1.97168">
        <ele>6.6</ele>
        <time>2025-01-22T10:54:11.273Z</time>
      </trkpt>
      <trkpt lat="46.72243" lon="-1.97165">
        <ele>6.7</ele>
        <time>2025-01-22T10:54:12.272Z</time>
      </trkpt>
      <trkpt lat="46.72245" lon="-1.97162">
        <ele>6.8</ele>
        <time>2025-01-22T10:54:13.272Z</time>
      </trkpt>
      <trkpt lat="46.72246" lon="-1.97159">
        <ele>6.8</ele>
        <time>2025-01-22T10:54:14.272Z</time>
      </trkpt>
      <trkpt lat="46.72247" lon="-1.97156">
        <ele>6.9</ele>
        <time>2025-01-22T10:54:15.273Z</time>
      </trkpt>
      <trkpt lat="46.72248" lon="-1.97153">
        <ele>6.9</ele>
        <time>2025-01-22T10:54:16.273Z</time>
      </trkpt>
      <trkpt lat="46.72249" lon="-1.97149">
        <ele>7</ele>
        <time>2025-01-22T10:54:17.273Z</time>
      </trkpt>
      <trkpt lat="46.72249" lon="-1.97144">
        <ele>7</ele>
        <time>2025-01-22T10:54:18.273Z</time>
      </trkpt>
      <trkpt lat="46.72249" lon="-1.97141">
        <ele>7</ele>
        <time>2025-01-22T10:54:19.273Z</time>
      </trkpt>
      <trkpt lat="46.72248" lon="-1.97137">
        <ele>6.9</ele>
        <time>2025-01-22T10:54:20.272Z</time>
      </trkpt>
      <trkpt lat="46.72246" lon="-1.97131">
        <ele>6.8</ele>
        <time>2025-01-22T10:54:21.273Z</time>
      </trkpt>
      <trkpt lat="46.72245" lon="-1.97128">
        <ele>6.8</ele>
        <time>2025-01-22T10:54:22.272Z</time>
      </trkpt>
      <trkpt lat="46.72244" lon="-1.97124">
        <ele>6.8</ele>
        <time>2025-01-22T10:54:23.273Z</time>
      </trkpt>
      <trkpt lat="46.72243" lon="-1.9712">
        <ele>6.8</ele>
        <time>2025-01-22T10:54:24.272Z</time>
      </trkpt>
      <trkpt lat="46.72242" lon="-1.97116">
        <ele>6.7</ele>
        <time>2025-01-22T10:54:25.272Z</time>
      </trkpt>
      <trkpt lat="46.72241" lon="-1.97114">
        <ele>6.7</ele>
        <time>2025-01-22T10:54:26.272Z</time>
      </trkpt>
      <trkpt lat="46.7224" lon="-1.97111">
        <ele>6.6</ele>
        <time>2025-01-22T10:54:27.272Z</time>
      </trkpt>
      <trkpt lat="46.72239" lon="-1.97108">
        <ele>6.7</ele>
        <time>2025-01-22T10:54:28.273Z</time>
      </trkpt>
      <trkpt lat="46.72238" lon="-1.97103">
        <ele>6.9</ele>
        <time>2025-01-22T10:54:29.272Z</time>
      </trkpt>
      <trkpt lat="46.72237" lon="-1.97099">
        <ele>7</ele>
        <time>2025-01-22T10:54:30.272Z</time>
      </trkpt>
      <trkpt lat="46.72237" lon="-1.97096">
        <ele>7.1</ele>
        <time>2025-01-22T10:54:31.272Z</time>
      </trkpt>
      <trkpt lat="46.72237" lon="-1.97095">
        <ele>7.1</ele>
        <time>2025-01-22T10:54:32.273Z</time>
      </trkpt>
      <trkpt lat="46.72237" lon="-1.97092">
        <ele>7.2</ele>
        <time>2025-01-22T10:54:33.272Z</time>
      </trkpt>
      <trkpt lat="46.72237" lon="-1.97089">
        <ele>7.3</ele>
        <time>2025-01-22T10:54:34.273Z</time>
      </trkpt>
      <trkpt lat="46.72235" lon="-1.97086">
        <ele>7.4</ele>
        <time>2025-01-22T10:54:35.273Z</time>
      </trkpt>
      <trkpt lat="46.72234" lon="-1.97082">
        <ele>7.4</ele>
        <time>2025-01-22T10:54:36.273Z</time>
      </trkpt>
      <trkpt lat="46.72231" lon="-1.97078">
        <ele>7.2</ele>
        <time>2025-01-22T10:54:37.273Z</time>
      </trkpt>
      <trkpt lat="46.72229" lon="-1.97072">
        <ele>6.9</ele>
        <time>2025-01-22T10:54:38.272Z</time>
      </trkpt>
      <trkpt lat="46.72228" lon="-1.97068">
        <ele>6.8</ele>
        <time>2025-01-22T10:54:39.272Z</time>
      </trkpt>
      <trkpt lat="46.72229" lon="-1.97064">
        <ele>6.7</ele>
        <time>2025-01-22T10:54:40.272Z</time>
      </trkpt>
      <trkpt lat="46.7223" lon="-1.97062">
        <ele>6.7</ele>
        <time>2025-01-22T10:54:41.272Z</time>
      </trkpt>
      <trkpt lat="46.7223" lon="-1.9706">
        <ele>6.7</ele>
        <time>2025-01-22T10:54:42.273Z</time>
      </trkpt>
      <trkpt lat="46.7223" lon="-1.97057">
        <ele>6.6</ele>
        <time>2025-01-22T10:54:43.273Z</time>
      </trkpt>
      <trkpt lat="46.72231" lon="-1.97054">
        <ele>6.6</ele>
        <time>2025-01-22T10:54:44.273Z</time>
      </trkpt>
      <trkpt lat="46.72231" lon="-1.97051">
        <ele>6.7</ele>
        <time>2025-01-22T10:54:45.273Z</time>
      </trkpt>
      <trkpt lat="46.7223" lon="-1.97048">
        <ele>6.8</ele>
        <time>2025-01-22T10:54:46.272Z</time>
      </trkpt>
      <trkpt lat="46.72231" lon="-1.97045">
        <ele>6.9</ele>
        <time>2025-01-22T10:54:47.272Z</time>
      </trkpt>
      <trkpt lat="46.72231" lon="-1.97042">
        <ele>6.9</ele>
        <time>2025-01-22T10:54:48.272Z</time>
      </trkpt>
      <trkpt lat="46.72231" lon="-1.97039">
        <ele>7</ele>
        <time>2025-01-22T10:54:49.272Z</time>
      </trkpt>
      <trkpt lat="46.72231" lon="-1.97037">
        <ele>7.1</ele>
        <time>2025-01-22T10:54:50.272Z</time>
      </trkpt>
      <trkpt lat="46.72231" lon="-1.97035">
        <ele>7.2</ele>
        <time>2025-01-22T10:54:51.272Z</time>
      </trkpt>
      <trkpt lat="46.72231" lon="-1.97032">
        <ele>7.2</ele>
        <time>2025-01-22T10:54:52.272Z</time>
      </trkpt>
      <trkpt lat="46.72231" lon="-1.97029">
        <ele>7.3</ele>
        <time>2025-01-22T10:54:53.272Z</time>
      </trkpt>
      <trkpt lat="46.72231" lon="-1.97027">
        <ele>7.3</ele>
        <time>2025-01-22T10:54:54.272Z</time>
      </trkpt>
      <trkpt lat="46.72231" lon="-1.97023">
        <ele>7.2</ele>
        <time>2025-01-22T10:54:55.273Z</time>
      </trkpt>
      <trkpt lat="46.72232" lon="-1.97021">
        <ele>7.1</ele>
        <time>2025-01-22T10:54:56.273Z</time>
      </trkpt>
      <trkpt lat="46.72232" lon="-1.97018">
        <ele>7</ele>
        <time>2025-01-22T10:54:57.273Z</time>
      </trkpt>
      <trkpt lat="46.72233" lon="-1.97015">
        <ele>6.9</ele>
        <time>2025-01-22T10:54:58.273Z</time>
      </trkpt>
      <trkpt lat="46.72235" lon="-1.97012">
        <ele>6.9</ele>
        <time>2025-01-22T10:54:59.272Z</time>
      </trkpt>
      <trkpt lat="46.72237" lon="-1.97008">
        <ele>6.8</ele>
        <time>2025-01-22T10:55:00.272Z</time>
      </trkpt>
      <trkpt lat="46.72239" lon="-1.97004">
        <ele>6.7</ele>
        <time>2025-01-22T10:55:01.273Z</time>
      </trkpt>
      <trkpt lat="46.72239" lon="-1.97001">
        <ele>6.6</ele>
        <time>2025-01-22T10:55:02.272Z</time>
      </trkpt>
      <trkpt lat="46.72238" lon="-1.96996">
        <ele>6.6</ele>
        <time>2025-01-22T10:55:03.272Z</time>
      </trkpt>
      <trkpt lat="46.72237" lon="-1.96992">
        <ele>6.7</ele>
        <time>2025-01-22T10:55:04.273Z</time>
      </trkpt>
      <trkpt lat="46.72235" lon="-1.96986">
        <ele>6.7</ele>
        <time>2025-01-22T10:55:05.273Z</time>
      </trkpt>
      <trkpt lat="46.72235" lon="-1.96982">
        <ele>6.8</ele>
        <time>2025-01-22T10:55:06.273Z</time>
      </trkpt>
      <trkpt lat="46.72234" lon="-1.96978">
        <ele>6.9</ele>
        <time>2025-01-22T10:55:07.273Z</time>
      </trkpt>
      <trkpt lat="46.72233" lon="-1.96975">
        <ele>6.9</ele>
        <time>2025-01-22T10:55:08.272Z</time>
      </trkpt>
      <trkpt lat="46.72231" lon="-1.96971">
        <ele>7</ele>
        <time>2025-01-22T10:55:09.272Z</time>
      </trkpt>
      <trkpt lat="46.7223" lon="-1.96967">
        <ele>7.1</ele>
        <time>2025-01-22T10:55:10.273Z</time>
      </trkpt>
      <trkpt lat="46.72229" lon="-1.96965">
        <ele>7.2</ele>
        <time>2025-01-22T10:55:11.272Z</time>
      </trkpt>
      <trkpt lat="46.72228" lon="-1.96962">
        <ele>7.3</ele>
        <time>2025-01-22T10:55:12.272Z</time>
      </trkpt>
      <trkpt lat="46.72226" lon="-1.96959">
        <ele>7.4</ele>
        <time>2025-01-22T10:55:13.272Z</time>
      </trkpt>
      <trkpt lat="46.72225" lon="-1.96955">
        <ele>7.5</ele>
        <time>2025-01-22T10:55:14.273Z</time>
      </trkpt>
      <trkpt lat="46.72224" lon="-1.96952">
        <ele>7.7</ele>
        <time>2025-01-22T10:55:15.273Z</time>
      </trkpt>
      <trkpt lat="46.72223" lon="-1.9695">
        <ele>7.8</ele>
        <time>2025-01-22T10:55:16.273Z</time>
      </trkpt>
      <trkpt lat="46.72221" lon="-1.96948">
        <ele>7.8</ele>
        <time>2025-01-22T10:55:17.273Z</time>
      </trkpt>
      <trkpt lat="46.72221" lon="-1.96947">
        <ele>7.9</ele>
        <time>2025-01-22T10:55:18.272Z</time>
      </trkpt>
      <trkpt lat="46.72221" lon="-1.96946">
        <ele>7.9</ele>
        <time>2025-01-22T10:55:19.272Z</time>
      </trkpt>
      <trkpt lat="46.7222" lon="-1.96944">
        <ele>8</ele>
        <time>2025-01-22T10:55:20.272Z</time>
      </trkpt>
      <trkpt lat="46.7222" lon="-1.96942">
        <ele>8.1</ele>
        <time>2025-01-22T10:55:21.272Z</time>
      </trkpt>
      <trkpt lat="46.7222" lon="-1.9694">
        <ele>8.3</ele>
        <time>2025-01-22T10:55:22.273Z</time>
      </trkpt>
      <trkpt lat="46.72219" lon="-1.96937">
        <ele>8.5</ele>
        <time>2025-01-22T10:55:23.273Z</time>
      </trkpt>
      <trkpt lat="46.72217" lon="-1.96935">
        <ele>8.6</ele>
        <time>2025-01-22T10:55:24.273Z</time>
      </trkpt>
      <trkpt lat="46.72216" lon="-1.96934">
        <ele>8.7</ele>
        <time>2025-01-22T10:55:25.273Z</time>
      </trkpt>
      <trkpt lat="46.72215" lon="-1.96933">
        <ele>8.7</ele>
        <time>2025-01-22T10:55:26.272Z</time>
      </trkpt>
      <trkpt lat="46.72214" lon="-1.96932">
        <ele>8.8</ele>
        <time>2025-01-22T10:55:27.272Z</time>
      </trkpt>
      <trkpt lat="46.72214" lon="-1.9693">
        <ele>9.1</ele>
        <time>2025-01-22T10:55:28.272Z</time>
      </trkpt>
      <trkpt lat="46.72213" lon="-1.96927">
        <ele>9.4</ele>
        <time>2025-01-22T10:55:29.272Z</time>
      </trkpt>
      <trkpt lat="46.72214" lon="-1.96923">
        <ele>9.7</ele>
        <time>2025-01-22T10:55:30.272Z</time>
      </trkpt>
      <trkpt lat="46.72215" lon="-1.96919">
        <ele>10.1</ele>
        <time>2025-01-22T10:55:31.273Z</time>
      </trkpt>
      <trkpt lat="46.72214" lon="-1.96915">
        <ele>10.2</ele>
        <time>2025-01-22T10:55:32.272Z</time>
      </trkpt>
      <trkpt lat="46.72214" lon="-1.96911">
        <ele>10.1</ele>
        <time>2025-01-22T10:55:33.272Z</time>
      </trkpt>
      <trkpt lat="46.72213" lon="-1.96908">
        <ele>10</ele>
        <time>2025-01-22T10:55:34.273Z</time>
      </trkpt>
      <trkpt lat="46.72213" lon="-1.96906">
        <ele>9.9</ele>
        <time>2025-01-22T10:55:35.273Z</time>
      </trkpt>
      <trkpt lat="46.72214" lon="-1.96904">
        <ele>9.8</ele>
        <time>2025-01-22T10:55:36.273Z</time>
      </trkpt>
      <trkpt lat="46.72214" lon="-1.96903">
        <ele>9.7</ele>
        <time>2025-01-22T10:55:37.272Z</time>
      </trkpt>
      <trkpt lat="46.72214" lon="-1.96901">
        <ele>9.7</ele>
        <time>2025-01-22T10:55:38.273Z</time>
      </trkpt>
      <trkpt lat="46.72213" lon="-1.969">
        <ele>9.7</ele>
        <time>2025-01-22T10:55:39.272Z</time>
      </trkpt>
      <trkpt lat="46.72212" lon="-1.96897">
        <ele>9.8</ele>
        <time>2025-01-22T10:55:40.272Z</time>
      </trkpt>
      <trkpt lat="46.72209" lon="-1.96894">
        <ele>10.1</ele>
        <time>2025-01-22T10:55:41.272Z</time>
      </trkpt>
      <trkpt lat="46.72207" lon="-1.96891">
        <ele>10.3</ele>
        <time>2025-01-22T10:55:42.272Z</time>
      </trkpt>
      <trkpt lat="46.72205" lon="-1.96888">
        <ele>10.5</ele>
        <time>2025-01-22T10:55:43.273Z</time>
      </trkpt>
      <trkpt lat="46.72204" lon="-1.96885">
        <ele>10.5</ele>
        <time>2025-01-22T10:55:44.273Z</time>
      </trkpt>
      <trkpt lat="46.72203" lon="-1.96883">
        <ele>10.4</ele>
        <time>2025-01-22T10:55:45.273Z</time>
      </trkpt>
      <trkpt lat="46.72203" lon="-1.96881">
        <ele>10.4</ele>
        <time>2025-01-22T10:55:46.273Z</time>
      </trkpt>
      <trkpt lat="46.72202" lon="-1.96878">
        <ele>10.3</ele>
        <time>2025-01-22T10:55:47.273Z</time>
      </trkpt>
      <trkpt lat="46.72202" lon="-1.96874">
        <ele>10.2</ele>
        <time>2025-01-22T10:55:48.272Z</time>
      </trkpt>
      <trkpt lat="46.72201" lon="-1.96872">
        <ele>10.1</ele>
        <time>2025-01-22T10:55:49.273Z</time>
      </trkpt>
      <trkpt lat="46.72201" lon="-1.96868">
        <ele>10</ele>
        <time>2025-01-22T10:55:50.272Z</time>
      </trkpt>
      <trkpt lat="46.72201" lon="-1.96865">
        <ele>9.8</ele>
        <time>2025-01-22T10:55:51.273Z</time>
      </trkpt>
      <trkpt lat="46.722" lon="-1.96862">
        <ele>9.7</ele>
        <time>2025-01-22T10:55:52.273Z</time>
      </trkpt>
      <trkpt lat="46.72198" lon="-1.96859">
        <ele>9.7</ele>
        <time>2025-01-22T10:55:53.272Z</time>
      </trkpt>
      <trkpt lat="46.72198" lon="-1.96856">
        <ele>9.6</ele>
        <time>2025-01-22T10:55:54.272Z</time>
      </trkpt>
      <trkpt lat="46.72197" lon="-1.96854">
        <ele>9.6</ele>
        <time>2025-01-22T10:55:55.272Z</time>
      </trkpt>
      <trkpt lat="46.72197" lon="-1.96852">
        <ele>9.6</ele>
        <time>2025-01-22T10:55:56.272Z</time>
      </trkpt>
      <trkpt lat="46.72196" lon="-1.9685">
        <ele>9.5</ele>
        <time>2025-01-22T10:55:57.273Z</time>
      </trkpt>
      <trkpt lat="46.72196" lon="-1.96848">
        <ele>9.5</ele>
        <time>2025-01-22T10:55:58.272Z</time>
      </trkpt>
      <trkpt lat="46.72196" lon="-1.96845">
        <ele>9.4</ele>
        <time>2025-01-22T10:55:59.273Z</time>
      </trkpt>
      <trkpt lat="46.72196" lon="-1.96842">
        <ele>9.3</ele>
        <time>2025-01-22T10:56:00.273Z</time>
      </trkpt>
      <trkpt lat="46.72195" lon="-1.96839">
        <ele>9.2</ele>
        <time>2025-01-22T10:56:01.272Z</time>
      </trkpt>
      <trkpt lat="46.72194" lon="-1.96836">
        <ele>9.1</ele>
        <time>2025-01-22T10:56:02.272Z</time>
      </trkpt>
      <trkpt lat="46.72192" lon="-1.96833">
        <ele>9</ele>
        <time>2025-01-22T10:56:03.272Z</time>
      </trkpt>
      <trkpt lat="46.72191" lon="-1.96831">
        <ele>9</ele>
        <time>2025-01-22T10:56:04.273Z</time>
      </trkpt>
      <trkpt lat="46.72191" lon="-1.96829">
        <ele>9</ele>
        <time>2025-01-22T10:56:05.273Z</time>
      </trkpt>
      <trkpt lat="46.72193" lon="-1.96826">
        <ele>9</ele>
        <time>2025-01-22T10:56:06.273Z</time>
      </trkpt>
      <trkpt lat="46.72194" lon="-1.96823">
        <ele>9</ele>
        <time>2025-01-22T10:56:07.272Z</time>
      </trkpt>
      <trkpt lat="46.72196" lon="-1.96821">
        <ele>9</ele>
        <time>2025-01-22T10:56:08.273Z</time>
      </trkpt>
      <trkpt lat="46.72198" lon="-1.96819">
        <ele>9.1</ele>
        <time>2025-01-22T10:56:09.272Z</time>
      </trkpt>
      <trkpt lat="46.722" lon="-1.96817">
        <ele>9.2</ele>
        <time>2025-01-22T10:56:10.272Z</time>
      </trkpt>
      <trkpt lat="46.72202" lon="-1.96814">
        <ele>9.4</ele>
        <time>2025-01-22T10:56:11.272Z</time>
      </trkpt>
      <trkpt lat="46.72204" lon="-1.96811">
        <ele>9.6</ele>
        <time>2025-01-22T10:56:12.272Z</time>
      </trkpt>
      <trkpt lat="46.72206" lon="-1.96808">
        <ele>9.8</ele>
        <time>2025-01-22T10:56:13.273Z</time>
      </trkpt>
      <trkpt lat="46.72208" lon="-1.96806">
        <ele>10</ele>
        <time>2025-01-22T10:56:14.272Z</time>
      </trkpt>
      <trkpt lat="46.72211" lon="-1.96802">
        <ele>10.1</ele>
        <time>2025-01-22T10:56:15.273Z</time>
      </trkpt>
      <trkpt lat="46.72213" lon="-1.96798">
        <ele>10.2</ele>
        <time>2025-01-22T10:56:16.273Z</time>
      </trkpt>
      <trkpt lat="46.72215" lon="-1.96794">
        <ele>10.2</ele>
        <time>2025-01-22T10:56:17.273Z</time>
      </trkpt>
      <trkpt lat="46.72217" lon="-1.96791">
        <ele>10.2</ele>
        <time>2025-01-22T10:56:18.273Z</time>
      </trkpt>
      <trkpt lat="46.72219" lon="-1.96788">
        <ele>10.2</ele>
        <time>2025-01-22T10:56:19.273Z</time>
      </trkpt>
      <trkpt lat="46.72221" lon="-1.96785">
        <ele>10.2</ele>
        <time>2025-01-22T10:56:20.272Z</time>
      </trkpt>
      <trkpt lat="46.72222" lon="-1.96781">
        <ele>10.1</ele>
        <time>2025-01-22T10:56:21.272Z</time>
      </trkpt>
      <trkpt lat="46.72222" lon="-1.96777">
        <ele>10</ele>
        <time>2025-01-22T10:56:22.272Z</time>
      </trkpt>
      <trkpt lat="46.72222" lon="-1.96773">
        <ele>9.8</ele>
        <time>2025-01-22T10:56:23.272Z</time>
      </trkpt>
      <trkpt lat="46.72222" lon="-1.9677">
        <ele>9.7</ele>
        <time>2025-01-22T10:56:24.273Z</time>
      </trkpt>
      <trkpt lat="46.72224" lon="-1.96767">
        <ele>9.7</ele>
        <time>2025-01-22T10:56:25.273Z</time>
      </trkpt>
      <trkpt lat="46.72227" lon="-1.96766">
        <ele>9.8</ele>
        <time>2025-01-22T10:56:26.273Z</time>
      </trkpt>
      <trkpt lat="46.7223" lon="-1.96765">
        <ele>9.9</ele>
        <time>2025-01-22T10:56:27.273Z</time>
      </trkpt>
      <trkpt lat="46.72233" lon="-1.96763">
        <ele>10</ele>
        <time>2025-01-22T10:56:28.273Z</time>
      </trkpt>
      <trkpt lat="46.72235" lon="-1.96763">
        <ele>10.1</ele>
        <time>2025-01-22T10:56:29.272Z</time>
      </trkpt>
      <trkpt lat="46.72237" lon="-1.96763">
        <ele>10.2</ele>
        <time>2025-01-22T10:56:30.272Z</time>
      </trkpt>
      <trkpt lat="46.72239" lon="-1.96763">
        <ele>10.3</ele>
        <time>2025-01-22T10:56:31.272Z</time>
      </trkpt>
      <trkpt lat="46.72242" lon="-1.96762">
        <ele>10.5</ele>
        <time>2025-01-22T10:56:32.272Z</time>
      </trkpt>
      <trkpt lat="46.72245" lon="-1.96762">
        <ele>10.6</ele>
        <time>2025-01-22T10:56:33.273Z</time>
      </trkpt>
      <trkpt lat="46.72248" lon="-1.96761">
        <ele>10.7</ele>
        <time>2025-01-22T10:56:34.273Z</time>
      </trkpt>
      <trkpt lat="46.7225" lon="-1.9676">
        <ele>10.7</ele>
        <time>2025-01-22T10:56:35.272Z</time>
      </trkpt>
      <trkpt lat="46.72252" lon="-1.96759">
        <ele>10.8</ele>
        <time>2025-01-22T10:56:36.273Z</time>
      </trkpt>
      <trkpt lat="46.72254" lon="-1.96757">
        <ele>10.7</ele>
        <time>2025-01-22T10:56:37.272Z</time>
      </trkpt>
      <trkpt lat="46.72256" lon="-1.96755">
        <ele>10.7</ele>
        <time>2025-01-22T10:56:38.273Z</time>
      </trkpt>
      <trkpt lat="46.72258" lon="-1.96754">
        <ele>10.7</ele>
        <time>2025-01-22T10:56:39.273Z</time>
      </trkpt>
      <trkpt lat="46.72262" lon="-1.96752">
        <ele>10.6</ele>
        <time>2025-01-22T10:56:40.272Z</time>
      </trkpt>
      <trkpt lat="46.72264" lon="-1.9675">
        <ele>10.5</ele>
        <time>2025-01-22T10:56:41.272Z</time>
      </trkpt>
      <trkpt lat="46.72268" lon="-1.96747">
        <ele>10.5</ele>
        <time>2025-01-22T10:56:42.272Z</time>
      </trkpt>
      <trkpt lat="46.72271" lon="-1.96745">
        <ele>10.6</ele>
        <time>2025-01-22T10:56:43.273Z</time>
      </trkpt>
      <trkpt lat="46.72274" lon="-1.96745">
        <ele>10.7</ele>
        <time>2025-01-22T10:56:44.273Z</time>
      </trkpt>
      <trkpt lat="46.72276" lon="-1.96745">
        <ele>10.8</ele>
        <time>2025-01-22T10:56:45.273Z</time>
      </trkpt>
      <trkpt lat="46.72278" lon="-1.96745">
        <ele>10.8</ele>
        <time>2025-01-22T10:56:46.273Z</time>
      </trkpt>
      <trkpt lat="46.7228" lon="-1.96744">
        <ele>10.7</ele>
        <time>2025-01-22T10:56:47.272Z</time>
      </trkpt>
      <trkpt lat="46.72282" lon="-1.96743">
        <ele>10.7</ele>
        <time>2025-01-22T10:56:48.272Z</time>
      </trkpt>
      <trkpt lat="46.72285" lon="-1.96741">
        <ele>10.6</ele>
        <time>2025-01-22T10:56:49.272Z</time>
      </trkpt>
      <trkpt lat="46.72287" lon="-1.9674">
        <ele>10.5</ele>
        <time>2025-01-22T10:56:50.272Z</time>
      </trkpt>
      <trkpt lat="46.72289" lon="-1.96739">
        <ele>10.5</ele>
        <time>2025-01-22T10:56:51.272Z</time>
      </trkpt>
      <trkpt lat="46.72292" lon="-1.96739">
        <ele>10.5</ele>
        <time>2025-01-22T10:56:52.273Z</time>
      </trkpt>
      <trkpt lat="46.72294" lon="-1.96737">
        <ele>10.5</ele>
        <time>2025-01-22T10:56:53.273Z</time>
      </trkpt>
      <trkpt lat="46.72296" lon="-1.96735">
        <ele>10.5</ele>
        <time>2025-01-22T10:56:54.272Z</time>
      </trkpt>
      <trkpt lat="46.72298" lon="-1.96733">
        <ele>10.6</ele>
        <time>2025-01-22T10:56:55.273Z</time>
      </trkpt>
      <trkpt lat="46.723" lon="-1.9673">
        <ele>10.6</ele>
        <time>2025-01-22T10:56:56.272Z</time>
      </trkpt>
      <trkpt lat="46.72302" lon="-1.96727">
        <ele>10.7</ele>
        <time>2025-01-22T10:56:57.272Z</time>
      </trkpt>
      <trkpt lat="46.72303" lon="-1.96724">
        <ele>10.8</ele>
        <time>2025-01-22T10:56:58.272Z</time>
      </trkpt>
      <trkpt lat="46.72304" lon="-1.96722">
        <ele>10.9</ele>
        <time>2025-01-22T10:56:59.272Z</time>
      </trkpt>
      <trkpt lat="46.72306" lon="-1.9672">
        <ele>11</ele>
        <time>2025-01-22T10:57:00.273Z</time>
      </trkpt>
      <trkpt lat="46.72307" lon="-1.96718">
        <ele>10.9</ele>
        <time>2025-01-22T10:57:01.272Z</time>
      </trkpt>
      <trkpt lat="46.72308" lon="-1.96716">
        <ele>10.8</ele>
        <time>2025-01-22T10:57:02.273Z</time>
      </trkpt>
      <trkpt lat="46.7231" lon="-1.96713">
        <ele>10.7</ele>
        <time>2025-01-22T10:57:03.272Z</time>
      </trkpt>
      <trkpt lat="46.7231" lon="-1.96711">
        <ele>10.7</ele>
        <time>2025-01-22T10:57:04.272Z</time>
      </trkpt>
      <trkpt lat="46.72312" lon="-1.96708">
        <ele>10.6</ele>
        <time>2025-01-22T10:57:05.272Z</time>
      </trkpt>
      <trkpt lat="46.72313" lon="-1.96706">
        <ele>10.4</ele>
        <time>2025-01-22T10:57:06.272Z</time>
      </trkpt>
      <trkpt lat="46.72314" lon="-1.96703">
        <ele>10.4</ele>
        <time>2025-01-22T10:57:07.273Z</time>
      </trkpt>
      <trkpt lat="46.72315" lon="-1.96701">
        <ele>10.3</ele>
        <time>2025-01-22T10:57:08.272Z</time>
      </trkpt>
      <trkpt lat="46.72316" lon="-1.96698">
        <ele>10.2</ele>
        <time>2025-01-22T10:57:09.273Z</time>
      </trkpt>
      <trkpt lat="46.72317" lon="-1.96695">
        <ele>10.2</ele>
        <time>2025-01-22T10:57:10.273Z</time>
      </trkpt>
      <trkpt lat="46.72317" lon="-1.9669">
        <ele>10.3</ele>
        <time>2025-01-22T10:57:11.273Z</time>
      </trkpt>
      <trkpt lat="46.72317" lon="-1.96686">
        <ele>10.4</ele>
        <time>2025-01-22T10:57:12.272Z</time>
      </trkpt>
      <trkpt lat="46.72317" lon="-1.96682">
        <ele>10.5</ele>
        <time>2025-01-22T10:57:13.272Z</time>
      </trkpt>
      <trkpt lat="46.72317" lon="-1.96677">
        <ele>10.6</ele>
        <time>2025-01-22T10:57:14.272Z</time>
      </trkpt>
      <trkpt lat="46.72318" lon="-1.96673">
        <ele>10.7</ele>
        <time>2025-01-22T10:57:15.272Z</time>
      </trkpt>
      <trkpt lat="46.72318" lon="-1.9667">
        <ele>10.8</ele>
        <time>2025-01-22T10:57:16.273Z</time>
      </trkpt>
      <trkpt lat="46.7232" lon="-1.96668">
        <ele>10.9</ele>
        <time>2025-01-22T10:57:17.273Z</time>
      </trkpt>
      <trkpt lat="46.72321" lon="-1.96667">
        <ele>11.1</ele>
        <time>2025-01-22T10:57:18.273Z</time>
      </trkpt>
      <trkpt lat="46.72322" lon="-1.96664">
        <ele>11.1</ele>
        <time>2025-01-22T10:57:19.272Z</time>
      </trkpt>
      <trkpt lat="46.72323" lon="-1.96662">
        <ele>11.2</ele>
        <time>2025-01-22T10:57:20.273Z</time>
      </trkpt>
      <trkpt lat="46.72325" lon="-1.96659">
        <ele>11.3</ele>
        <time>2025-01-22T10:57:21.273Z</time>
      </trkpt>
      <trkpt lat="46.72327" lon="-1.96655">
        <ele>11.4</ele>
        <time>2025-01-22T10:57:22.273Z</time>
      </trkpt>
      <trkpt lat="46.72329" lon="-1.96651">
        <ele>11.6</ele>
        <time>2025-01-22T10:57:23.272Z</time>
      </trkpt>
      <trkpt lat="46.72331" lon="-1.96647">
        <ele>11.8</ele>
        <time>2025-01-22T10:57:24.272Z</time>
      </trkpt>
      <trkpt lat="46.72333" lon="-1.96644">
        <ele>12</ele>
        <time>2025-01-22T10:57:25.272Z</time>
      </trkpt>
      <trkpt lat="46.72335" lon="-1.96642">
        <ele>12</ele>
        <time>2025-01-22T10:57:26.272Z</time>
      </trkpt>
      <trkpt lat="46.72337" lon="-1.9664">
        <ele>11.9</ele>
        <time>2025-01-22T10:57:27.272Z</time>
      </trkpt>
      <trkpt lat="46.72339" lon="-1.96638">
        <ele>11.8</ele>
        <time>2025-01-22T10:57:28.273Z</time>
      </trkpt>
      <trkpt lat="46.7234" lon="-1.96637">
        <ele>11.6</ele>
        <time>2025-01-22T10:57:29.272Z</time>
      </trkpt>
      <trkpt lat="46.72341" lon="-1.96637">
        <ele>11.6</ele>
        <time>2025-01-22T10:57:30.273Z</time>
      </trkpt>
      <trkpt lat="46.72342" lon="-1.96637">
        <ele>11.6</ele>
        <time>2025-01-22T10:57:31.272Z</time>
      </trkpt>
      <trkpt lat="46.72343" lon="-1.96638">
        <ele>11.6</ele>
        <time>2025-01-22T10:57:32.272Z</time>
      </trkpt>
      <trkpt lat="46.72345" lon="-1.96639">
        <ele>11.6</ele>
        <time>2025-01-22T10:57:33.272Z</time>
      </trkpt>
      <trkpt lat="46.72346" lon="-1.96639">
        <ele>11.6</ele>
        <time>2025-01-22T10:57:34.272Z</time>
      </trkpt>
      <trkpt lat="46.72347" lon="-1.96639">
        <ele>11.5</ele>
        <time>2025-01-22T10:57:35.273Z</time>
      </trkpt>
      <trkpt lat="46.72349" lon="-1.96639">
        <ele>11.4</ele>
        <time>2025-01-22T10:57:36.273Z</time>
      </trkpt>
      <trkpt lat="46.72351" lon="-1.96638">
        <ele>11.4</ele>
        <time>2025-01-22T10:57:37.273Z</time>
      </trkpt>
      <trkpt lat="46.72353" lon="-1.96638">
        <ele>11.3</ele>
        <time>2025-01-22T10:57:38.272Z</time>
      </trkpt>
      <trkpt lat="46.72355" lon="-1.96638">
        <ele>11.2</ele>
        <time>2025-01-22T10:57:39.273Z</time>
      </trkpt>
      <trkpt lat="46.72357" lon="-1.96638">
        <ele>11.1</ele>
        <time>2025-01-22T10:57:40.272Z</time>
      </trkpt>
      <trkpt lat="46.7236" lon="-1.96636">
        <ele>11</ele>
        <time>2025-01-22T10:57:41.272Z</time>
      </trkpt>
      <trkpt lat="46.72364" lon="-1.96634">
        <ele>11.2</ele>
        <time>2025-01-22T10:57:42.272Z</time>
      </trkpt>
      <trkpt lat="46.72366" lon="-1.96632">
        <ele>11.4</ele>
        <time>2025-01-22T10:57:43.272Z</time>
      </trkpt>
      <trkpt lat="46.72368" lon="-1.96632">
        <ele>11.5</ele>
        <time>2025-01-22T10:57:44.272Z</time>
      </trkpt>
      <trkpt lat="46.72371" lon="-1.96629">
        <ele>11.6</ele>
        <time>2025-01-22T10:57:45.273Z</time>
      </trkpt>
      <trkpt lat="46.72373" lon="-1.96627">
        <ele>11.6</ele>
        <time>2025-01-22T10:57:46.272Z</time>
      </trkpt>
      <trkpt lat="46.72375" lon="-1.96625">
        <ele>11.5</ele>
        <time>2025-01-22T10:57:47.272Z</time>
      </trkpt>
      <trkpt lat="46.72377" lon="-1.96622">
        <ele>11.3</ele>
        <time>2025-01-22T10:57:48.272Z</time>
      </trkpt>
      <trkpt lat="46.72379" lon="-1.9662">
        <ele>11.2</ele>
        <time>2025-01-22T10:57:49.272Z</time>
      </trkpt>
      <trkpt lat="46.72382" lon="-1.96617">
        <ele>10.9</ele>
        <time>2025-01-22T10:57:50.272Z</time>
      </trkpt>
      <trkpt lat="46.72384" lon="-1.96616">
        <ele>10.7</ele>
        <time>2025-01-22T10:57:51.272Z</time>
      </trkpt>
      <trkpt lat="46.72386" lon="-1.96615">
        <ele>10.5</ele>
        <time>2025-01-22T10:57:52.272Z</time>
      </trkpt>
      <trkpt lat="46.72388" lon="-1.96613">
        <ele>10.3</ele>
        <time>2025-01-22T10:57:53.273Z</time>
      </trkpt>
      <trkpt lat="46.7239" lon="-1.96612">
        <ele>10.2</ele>
        <time>2025-01-22T10:57:54.273Z</time>
      </trkpt>
      <trkpt lat="46.72393" lon="-1.96611">
        <ele>10.4</ele>
        <time>2025-01-22T10:57:55.273Z</time>
      </trkpt>
      <trkpt lat="46.72396" lon="-1.96609">
        <ele>10.6</ele>
        <time>2025-01-22T10:57:56.273Z</time>
      </trkpt>
      <trkpt lat="46.72399" lon="-1.96608">
        <ele>10.7</ele>
        <time>2025-01-22T10:57:57.272Z</time>
      </trkpt>
      <trkpt lat="46.72401" lon="-1.96606">
        <ele>10.8</ele>
        <time>2025-01-22T10:57:58.272Z</time>
      </trkpt>
      <trkpt lat="46.72403" lon="-1.96603">
        <ele>10.7</ele>
        <time>2025-01-22T10:57:59.272Z</time>
      </trkpt>
      <trkpt lat="46.72404" lon="-1.966">
        <ele>10.4</ele>
        <time>2025-01-22T10:58:00.272Z</time>
      </trkpt>
      <trkpt lat="46.72406" lon="-1.96597">
        <ele>10.2</ele>
        <time>2025-01-22T10:58:01.273Z</time>
      </trkpt>
      <trkpt lat="46.72408" lon="-1.96595">
        <ele>10.1</ele>
        <time>2025-01-22T10:58:02.273Z</time>
      </trkpt>
      <trkpt lat="46.7241" lon="-1.96593">
        <ele>10</ele>
        <time>2025-01-22T10:58:03.272Z</time>
      </trkpt>
      <trkpt lat="46.72411" lon="-1.9659">
        <ele>9.7</ele>
        <time>2025-01-22T10:58:04.272Z</time>
      </trkpt>
      <trkpt lat="46.72413" lon="-1.96588">
        <ele>9.5</ele>
        <time>2025-01-22T10:58:05.272Z</time>
      </trkpt>
      <trkpt lat="46.72415" lon="-1.96586">
        <ele>9.3</ele>
        <time>2025-01-22T10:58:06.272Z</time>
      </trkpt>
      <trkpt lat="46.72417" lon="-1.96584">
        <ele>9.1</ele>
        <time>2025-01-22T10:58:07.273Z</time>
      </trkpt>
      <trkpt lat="46.72419" lon="-1.96582">
        <ele>9</ele>
        <time>2025-01-22T10:58:08.273Z</time>
      </trkpt>
      <trkpt lat="46.7242" lon="-1.96579">
        <ele>8.9</ele>
        <time>2025-01-22T10:58:09.272Z</time>
      </trkpt>
      <trkpt lat="46.72422" lon="-1.96575">
        <ele>8.8</ele>
        <time>2025-01-22T10:58:10.272Z</time>
      </trkpt>
      <trkpt lat="46.72423" lon="-1.96571">
        <ele>8.7</ele>
        <time>2025-01-22T10:58:11.272Z</time>
      </trkpt>
      <trkpt lat="46.72424" lon="-1.96569">
        <ele>8.6</ele>
        <time>2025-01-22T10:58:12.272Z</time>
      </trkpt>
      <trkpt lat="46.72425" lon="-1.96565">
        <ele>8.5</ele>
        <time>2025-01-22T10:58:13.272Z</time>
      </trkpt>
      <trkpt lat="46.72426" lon="-1.96563">
        <ele>8.4</ele>
        <time>2025-01-22T10:58:14.272Z</time>
      </trkpt>
      <trkpt lat="46.72427" lon="-1.96561">
        <ele>8.3</ele>
        <time>2025-01-22T10:58:15.272Z</time>
      </trkpt>
      <trkpt lat="46.72428" lon="-1.96558">
        <ele>8.1</ele>
        <time>2025-01-22T10:58:16.272Z</time>
      </trkpt>
      <trkpt lat="46.72429" lon="-1.96556">
        <ele>8</ele>
        <time>2025-01-22T10:58:17.272Z</time>
      </trkpt>
      <trkpt lat="46.7243" lon="-1.96555">
        <ele>8</ele>
        <time>2025-01-22T10:58:18.272Z</time>
      </trkpt>
      <trkpt lat="46.72431" lon="-1.96554">
        <ele>8</ele>
        <time>2025-01-22T10:58:19.272Z</time>
      </trkpt>
      <trkpt lat="46.72434" lon="-1.96554">
        <ele>8</ele>
        <time>2025-01-22T10:58:20.273Z</time>
      </trkpt>
      <trkpt lat="46.72437" lon="-1.96553">
        <ele>8</ele>
        <time>2025-01-22T10:58:21.273Z</time>
      </trkpt>
      <trkpt lat="46.72439" lon="-1.96554">
        <ele>8</ele>
        <time>2025-01-22T10:58:22.272Z</time>
      </trkpt>
      <trkpt lat="46.72441" lon="-1.96555">
        <ele>8</ele>
        <time>2025-01-22T10:58:23.272Z</time>
      </trkpt>
      <trkpt lat="46.72443" lon="-1.96557">
        <ele>8.1</ele>
        <time>2025-01-22T10:58:24.272Z</time>
      </trkpt>
      <trkpt lat="46.72445" lon="-1.9656">
        <ele>8.3</ele>
        <time>2025-01-22T10:58:25.273Z</time>
      </trkpt>
      <trkpt lat="46.72447" lon="-1.96563">
        <ele>8.5</ele>
        <time>2025-01-22T10:58:26.272Z</time>
      </trkpt>
      <trkpt lat="46.72449" lon="-1.96565">
        <ele>8.7</ele>
        <time>2025-01-22T10:58:27.272Z</time>
      </trkpt>
      <trkpt lat="46.72451" lon="-1.96567">
        <ele>8.8</ele>
        <time>2025-01-22T10:58:28.272Z</time>
      </trkpt>
      <trkpt lat="46.72454" lon="-1.96568">
        <ele>8.9</ele>
        <time>2025-01-22T10:58:29.273Z</time>
      </trkpt>
      <trkpt lat="46.72456" lon="-1.96569">
        <ele>9</ele>
        <time>2025-01-22T10:58:30.273Z</time>
      </trkpt>
      <trkpt lat="46.72458" lon="-1.96571">
        <ele>9.1</ele>
        <time>2025-01-22T10:58:31.273Z</time>
      </trkpt>
      <trkpt lat="46.72461" lon="-1.96572">
        <ele>9.2</ele>
        <time>2025-01-22T10:58:32.272Z</time>
      </trkpt>
      <trkpt lat="46.72463" lon="-1.96573">
        <ele>9.3</ele>
        <time>2025-01-22T10:58:33.272Z</time>
      </trkpt>
      <trkpt lat="46.72466" lon="-1.96575">
        <ele>9.4</ele>
        <time>2025-01-22T10:58:34.272Z</time>
      </trkpt>
      <trkpt lat="46.72468" lon="-1.96577">
        <ele>9.5</ele>
        <time>2025-01-22T10:58:35.272Z</time>
      </trkpt>
      <trkpt lat="46.7247" lon="-1.96578">
        <ele>9.6</ele>
        <time>2025-01-22T10:58:36.272Z</time>
      </trkpt>
      <trkpt lat="46.72472" lon="-1.96581">
        <ele>9.8</ele>
        <time>2025-01-22T10:58:37.273Z</time>
      </trkpt>
      <trkpt lat="46.72474" lon="-1.96581">
        <ele>9.8</ele>
        <time>2025-01-22T10:58:38.273Z</time>
      </trkpt>
      <trkpt lat="46.72475" lon="-1.96582">
        <ele>9.7</ele>
        <time>2025-01-22T10:58:39.272Z</time>
      </trkpt>
      <trkpt lat="46.72477" lon="-1.96583">
        <ele>9.7</ele>
        <time>2025-01-22T10:58:40.272Z</time>
      </trkpt>
      <trkpt lat="46.72478" lon="-1.96585">
        <ele>9.8</ele>
        <time>2025-01-22T10:58:41.273Z</time>
      </trkpt>
      <trkpt lat="46.72481" lon="-1.96586">
        <ele>9.8</ele>
        <time>2025-01-22T10:58:42.273Z</time>
      </trkpt>
      <trkpt lat="46.72483" lon="-1.96586">
        <ele>9.7</ele>
        <time>2025-01-22T10:58:43.273Z</time>
      </trkpt>
      <trkpt lat="46.72485" lon="-1.96586">
        <ele>9.6</ele>
        <time>2025-01-22T10:58:44.272Z</time>
      </trkpt>
      <trkpt lat="46.72486" lon="-1.96586">
        <ele>9.5</ele>
        <time>2025-01-22T10:58:45.273Z</time>
      </trkpt>
      <trkpt lat="46.72487" lon="-1.96586">
        <ele>9.4</ele>
        <time>2025-01-22T10:58:46.272Z</time>
      </trkpt>
      <trkpt lat="46.7249" lon="-1.96588">
        <ele>9.4</ele>
        <time>2025-01-22T10:58:47.273Z</time>
      </trkpt>
      <trkpt lat="46.72492" lon="-1.96588">
        <ele>9.4</ele>
        <time>2025-01-22T10:58:48.272Z</time>
      </trkpt>
      <trkpt lat="46.72494" lon="-1.96589">
        <ele>9.3</ele>
        <time>2025-01-22T10:58:49.272Z</time>
      </trkpt>
      <trkpt lat="46.72496" lon="-1.9659">
        <ele>9.2</ele>
        <time>2025-01-22T10:58:50.273Z</time>
      </trkpt>
      <trkpt lat="46.72499" lon="-1.9659">
        <ele>9.1</ele>
        <time>2025-01-22T10:58:51.272Z</time>
      </trkpt>
      <trkpt lat="46.72501" lon="-1.9659">
        <ele>9</ele>
        <time>2025-01-22T10:58:52.272Z</time>
      </trkpt>
      <trkpt lat="46.72503" lon="-1.96591">
        <ele>9</ele>
        <time>2025-01-22T10:58:53.272Z</time>
      </trkpt>
      <trkpt lat="46.72506" lon="-1.96591">
        <ele>8.9</ele>
        <time>2025-01-22T10:58:54.273Z</time>
      </trkpt>
      <trkpt lat="46.72508" lon="-1.96592">
        <ele>8.9</ele>
        <time>2025-01-22T10:58:55.273Z</time>
      </trkpt>
      <trkpt lat="46.72511" lon="-1.96592">
        <ele>8.9</ele>
        <time>2025-01-22T10:58:56.273Z</time>
      </trkpt>
      <trkpt lat="46.72513" lon="-1.96593">
        <ele>8.9</ele>
        <time>2025-01-22T10:58:57.272Z</time>
      </trkpt>
      <trkpt lat="46.72516" lon="-1.96594">
        <ele>8.8</ele>
        <time>2025-01-22T10:58:58.272Z</time>
      </trkpt>
      <trkpt lat="46.72518" lon="-1.96594">
        <ele>8.8</ele>
        <time>2025-01-22T10:58:59.272Z</time>
      </trkpt>
      <trkpt lat="46.72521" lon="-1.96594">
        <ele>8.6</ele>
        <time>2025-01-22T10:59:00.272Z</time>
      </trkpt>
      <trkpt lat="46.72523" lon="-1.96592">
        <ele>8.5</ele>
        <time>2025-01-22T10:59:01.272Z</time>
      </trkpt>
      <trkpt lat="46.72526" lon="-1.96591">
        <ele>8.3</ele>
        <time>2025-01-22T10:59:02.272Z</time>
      </trkpt>
      <trkpt lat="46.72529" lon="-1.9659">
        <ele>8.4</ele>
        <time>2025-01-22T10:59:03.273Z</time>
      </trkpt>
      <trkpt lat="46.72532" lon="-1.96589">
        <ele>8.6</ele>
        <time>2025-01-22T10:59:04.272Z</time>
      </trkpt>
      <trkpt lat="46.72534" lon="-1.96587">
        <ele>8.8</ele>
        <time>2025-01-22T10:59:05.272Z</time>
      </trkpt>
      <trkpt lat="46.72535" lon="-1.96587">
        <ele>8.9</ele>
        <time>2025-01-22T10:59:06.273Z</time>
      </trkpt>
      <trkpt lat="46.72537" lon="-1.96586">
        <ele>9.1</ele>
        <time>2025-01-22T10:59:07.273Z</time>
      </trkpt>
      <trkpt lat="46.72538" lon="-1.96585">
        <ele>9.2</ele>
        <time>2025-01-22T10:59:08.273Z</time>
      </trkpt>
      <trkpt lat="46.72539" lon="-1.96584">
        <ele>9.3</ele>
        <time>2025-01-22T10:59:09.272Z</time>
      </trkpt>
      <trkpt lat="46.72541" lon="-1.96583">
        <ele>9.4</ele>
        <time>2025-01-22T10:59:10.273Z</time>
      </trkpt>
      <trkpt lat="46.72543" lon="-1.96583">
        <ele>9.7</ele>
        <time>2025-01-22T10:59:11.272Z</time>
      </trkpt>
      <trkpt lat="46.72546" lon="-1.96582">
        <ele>10</ele>
        <time>2025-01-22T10:59:12.273Z</time>
      </trkpt>
      <trkpt lat="46.72547" lon="-1.96581">
        <ele>10.2</ele>
        <time>2025-01-22T10:59:13.272Z</time>
      </trkpt>
      <trkpt lat="46.72548" lon="-1.9658">
        <ele>10.3</ele>
        <time>2025-01-22T10:59:14.273Z</time>
      </trkpt>
      <trkpt lat="46.72549" lon="-1.96579">
        <ele>10.4</ele>
        <time>2025-01-22T10:59:15.272Z</time>
      </trkpt>
      <trkpt lat="46.72549" lon="-1.96578">
        <ele>10.5</ele>
        <time>2025-01-22T10:59:16.272Z</time>
      </trkpt>
      <trkpt lat="46.7255" lon="-1.96577">
        <ele>10.6</ele>
        <time>2025-01-22T10:59:17.272Z</time>
      </trkpt>
      <trkpt lat="46.72552" lon="-1.96576">
        <ele>10.7</ele>
        <time>2025-01-22T10:59:18.272Z</time>
      </trkpt>
      <trkpt lat="46.72554" lon="-1.96575">
        <ele>10.9</ele>
        <time>2025-01-22T10:59:19.272Z</time>
      </trkpt>
      <trkpt lat="46.72556" lon="-1.96574">
        <ele>11</ele>
        <time>2025-01-22T10:59:20.273Z</time>
      </trkpt>
      <trkpt lat="46.72559" lon="-1.96572">
        <ele>10.8</ele>
        <time>2025-01-22T10:59:21.272Z</time>
      </trkpt>
      <trkpt lat="46.7256" lon="-1.9657">
        <ele>10.7</ele>
        <time>2025-01-22T10:59:22.272Z</time>
      </trkpt>
      <trkpt lat="46.72563" lon="-1.96568">
        <ele>10.4</ele>
        <time>2025-01-22T10:59:23.272Z</time>
      </trkpt>
      <trkpt lat="46.72566" lon="-1.96566">
        <ele>10.2</ele>
        <time>2025-01-22T10:59:24.272Z</time>
      </trkpt>
      <trkpt lat="46.72568" lon="-1.96563">
        <ele>9.9</ele>
        <time>2025-01-22T10:59:25.273Z</time>
      </trkpt>
      <trkpt lat="46.72571" lon="-1.96562">
        <ele>9.6</ele>
        <time>2025-01-22T10:59:26.272Z</time>
      </trkpt>
      <trkpt lat="46.72574" lon="-1.9656">
        <ele>9.3</ele>
        <time>2025-01-22T10:59:27.272Z</time>
      </trkpt>
      <trkpt lat="46.72577" lon="-1.96558">
        <ele>8.9</ele>
        <time>2025-01-22T10:59:28.272Z</time>
      </trkpt>
      <trkpt lat="46.7258" lon="-1.96557">
        <ele>8.5</ele>
        <time>2025-01-22T10:59:29.272Z</time>
      </trkpt>
      <trkpt lat="46.72582" lon="-1.96555">
        <ele>8.1</ele>
        <time>2025-01-22T10:59:30.272Z</time>
      </trkpt>
      <trkpt lat="46.72585" lon="-1.96552">
        <ele>7.9</ele>
        <time>2025-01-22T10:59:31.272Z</time>
      </trkpt>
      <trkpt lat="46.72589" lon="-1.96549">
        <ele>7.8</ele>
        <time>2025-01-22T10:59:32.272Z</time>
      </trkpt>
      <trkpt lat="46.72592" lon="-1.96546">
        <ele>7.6</ele>
        <time>2025-01-22T10:59:33.273Z</time>
      </trkpt>
      <trkpt lat="46.72595" lon="-1.96542">
        <ele>7.5</ele>
        <time>2025-01-22T10:59:34.272Z</time>
      </trkpt>
      <trkpt lat="46.72598" lon="-1.96539">
        <ele>7.4</ele>
        <time>2025-01-22T10:59:35.273Z</time>
      </trkpt>
      <trkpt lat="46.726" lon="-1.96537">
        <ele>7.3</ele>
        <time>2025-01-22T10:59:36.273Z</time>
      </trkpt>
      <trkpt lat="46.72602" lon="-1.96534">
        <ele>7.2</ele>
        <time>2025-01-22T10:59:37.272Z</time>
      </trkpt>
      <trkpt lat="46.72603" lon="-1.96531">
        <ele>7.1</ele>
        <time>2025-01-22T10:59:38.272Z</time>
      </trkpt>
      <trkpt lat="46.72604" lon="-1.96528">
        <ele>7</ele>
        <time>2025-01-22T10:59:39.272Z</time>
      </trkpt>
      <trkpt lat="46.72606" lon="-1.96526">
        <ele>7</ele>
        <time>2025-01-22T10:59:40.272Z</time>
      </trkpt>
      <trkpt lat="46.72607" lon="-1.96523">
        <ele>7</ele>
        <time>2025-01-22T10:59:41.272Z</time>
      </trkpt>
      <trkpt lat="46.72607" lon="-1.9652">
        <ele>7</ele>
        <time>2025-01-22T10:59:42.272Z</time>
      </trkpt>
      <trkpt lat="46.72608" lon="-1.96517">
        <ele>7</ele>
        <time>2025-01-22T10:59:43.273Z</time>
      </trkpt>
      <trkpt lat="46.72609" lon="-1.96514">
        <ele>7</ele>
        <time>2025-01-22T10:59:44.272Z</time>
      </trkpt>
      <trkpt lat="46.72611" lon="-1.96512">
        <ele>7</ele>
        <time>2025-01-22T10:59:45.272Z</time>
      </trkpt>
      <trkpt lat="46.72612" lon="-1.96508">
        <ele>7</ele>
        <time>2025-01-22T10:59:46.272Z</time>
      </trkpt>
      <trkpt lat="46.72613" lon="-1.96505">
        <ele>7.1</ele>
        <time>2025-01-22T10:59:47.273Z</time>
      </trkpt>
      <trkpt lat="46.72615" lon="-1.96501">
        <ele>7.1</ele>
        <time>2025-01-22T10:59:48.272Z</time>
      </trkpt>
      <trkpt lat="46.72616" lon="-1.96499">
        <ele>7.2</ele>
        <time>2025-01-22T10:59:49.273Z</time>
      </trkpt>
      <trkpt lat="46.72618" lon="-1.96497">
        <ele>7.2</ele>
        <time>2025-01-22T10:59:50.273Z</time>
      </trkpt>
      <trkpt lat="46.72617" lon="-1.96495">
        <ele>7.2</ele>
        <time>2025-01-22T10:59:51.272Z</time>
      </trkpt>
      <trkpt lat="46.72616" lon="-1.96492">
        <ele>7.1</ele>
        <time>2025-01-22T10:59:52.273Z</time>
      </trkpt>
      <trkpt lat="46.72615" lon="-1.9649">
        <ele>6.9</ele>
        <time>2025-01-22T10:59:53.272Z</time>
      </trkpt>
      <trkpt lat="46.72614" lon="-1.96489">
        <ele>6.9</ele>
        <time>2025-01-22T10:59:54.272Z</time>
      </trkpt>
      <trkpt lat="46.72614" lon="-1.96488">
        <ele>6.8</ele>
        <time>2025-01-22T10:59:55.272Z</time>
      </trkpt>
      <trkpt lat="46.72614" lon="-1.96486">
        <ele>6.8</ele>
        <time>2025-01-22T10:59:56.273Z</time>
      </trkpt>
      <trkpt lat="46.72616" lon="-1.96484">
        <ele>7</ele>
        <time>2025-01-22T10:59:57.273Z</time>
      </trkpt>
      <trkpt lat="46.72617" lon="-1.96483">
        <ele>7.1</ele>
        <time>2025-01-22T10:59:58.272Z</time>
      </trkpt>
      <trkpt lat="46.72619" lon="-1.96481">
        <ele>7.4</ele>
        <time>2025-01-22T10:59:59.273Z</time>
      </trkpt>
      <trkpt lat="46.72622" lon="-1.96479">
        <ele>7.8</ele>
        <time>2025-01-22T11:00:00.273Z</time>
      </trkpt>
      <trkpt lat="46.72624" lon="-1.96478">
        <ele>8.1</ele>
        <time>2025-01-22T11:00:01.273Z</time>
      </trkpt>
      <trkpt lat="46.72626" lon="-1.96476">
        <ele>8.5</ele>
        <time>2025-01-22T11:00:02.273Z</time>
      </trkpt>
      <trkpt lat="46.72627" lon="-1.96474">
        <ele>8.8</ele>
        <time>2025-01-22T11:00:03.272Z</time>
      </trkpt>
      <trkpt lat="46.72629" lon="-1.96472">
        <ele>9.3</ele>
        <time>2025-01-22T11:00:04.272Z</time>
      </trkpt>
      <trkpt lat="46.72631" lon="-1.9647">
        <ele>9.6</ele>
        <time>2025-01-22T11:00:05.273Z</time>
      </trkpt>
      <trkpt lat="46.72633" lon="-1.96468">
        <ele>10</ele>
        <time>2025-01-22T11:00:06.272Z</time>
      </trkpt>
      <trkpt lat="46.72635" lon="-1.96466">
        <ele>10.3</ele>
        <time>2025-01-22T11:00:07.273Z</time>
      </trkpt>
      <trkpt lat="46.72637" lon="-1.96464">
        <ele>10.6</ele>
        <time>2025-01-22T11:00:08.272Z</time>
      </trkpt>
      <trkpt lat="46.72638" lon="-1.96462">
        <ele>10.8</ele>
        <time>2025-01-22T11:00:09.273Z</time>
      </trkpt>
      <trkpt lat="46.72639" lon="-1.9646">
        <ele>11</ele>
        <time>2025-01-22T11:00:10.272Z</time>
      </trkpt>
      <trkpt lat="46.72641" lon="-1.96458">
        <ele>10.7</ele>
        <time>2025-01-22T11:00:11.273Z</time>
      </trkpt>
      <trkpt lat="46.72642" lon="-1.96455">
        <ele>10.6</ele>
        <time>2025-01-22T11:00:12.273Z</time>
      </trkpt>
      <trkpt lat="46.72643" lon="-1.96454">
        <ele>10.5</ele>
        <time>2025-01-22T11:00:13.272Z</time>
      </trkpt>
      <trkpt lat="46.72643" lon="-1.96453">
        <ele>10.5</ele>
        <time>2025-01-22T11:00:14.272Z</time>
      </trkpt>
      <trkpt lat="46.72644" lon="-1.96451">
        <ele>10.4</ele>
        <time>2025-01-22T11:00:15.273Z</time>
      </trkpt>
      <trkpt lat="46.72644" lon="-1.9645">
        <ele>10.4</ele>
        <time>2025-01-22T11:00:16.272Z</time>
      </trkpt>
      <trkpt lat="46.72645" lon="-1.9645">
        <ele>10.3</ele>
        <time>2025-01-22T11:00:17.273Z</time>
      </trkpt>
      <trkpt lat="46.72645" lon="-1.9645">
        <ele>10.3</ele>
        <time>2025-01-22T11:00:18.272Z</time>
      </trkpt>
      <trkpt lat="46.72646" lon="-1.9645">
        <ele>10.2</ele>
        <time>2025-01-22T11:00:19.272Z</time>
      </trkpt>
      <trkpt lat="46.72646" lon="-1.96448">
        <ele>10.2</ele>
        <time>2025-01-22T11:00:20.272Z</time>
      </trkpt>
      <trkpt lat="46.72647" lon="-1.96447">
        <ele>10.1</ele>
        <time>2025-01-22T11:00:21.272Z</time>
      </trkpt>
      <trkpt lat="46.72647" lon="-1.96445">
        <ele>10.1</ele>
        <time>2025-01-22T11:00:22.272Z</time>
      </trkpt>
      <trkpt lat="46.72647" lon="-1.96443">
        <ele>10.2</ele>
        <time>2025-01-22T11:00:23.272Z</time>
      </trkpt>
      <trkpt lat="46.72649" lon="-1.96441">
        <ele>10.3</ele>
        <time>2025-01-22T11:00:24.272Z</time>
      </trkpt>
      <trkpt lat="46.7265" lon="-1.96439">
        <ele>10.4</ele>
        <time>2025-01-22T11:00:25.273Z</time>
      </trkpt>
      <trkpt lat="46.72651" lon="-1.96436">
        <ele>10.5</ele>
        <time>2025-01-22T11:00:26.272Z</time>
      </trkpt>
      <trkpt lat="46.72651" lon="-1.96433">
        <ele>10.8</ele>
        <time>2025-01-22T11:00:27.273Z</time>
      </trkpt>
      <trkpt lat="46.72651" lon="-1.96431">
        <ele>11</ele>
        <time>2025-01-22T11:00:28.273Z</time>
      </trkpt>
      <trkpt lat="46.72651" lon="-1.96428">
        <ele>11.3</ele>
        <time>2025-01-22T11:00:29.273Z</time>
      </trkpt>
      <trkpt lat="46.72651" lon="-1.96427">
        <ele>11.5</ele>
        <time>2025-01-22T11:00:30.272Z</time>
      </trkpt>
      <trkpt lat="46.72651" lon="-1.96425">
        <ele>11.6</ele>
        <time>2025-01-22T11:00:31.272Z</time>
      </trkpt>
      <trkpt lat="46.72653" lon="-1.96423">
        <ele>11.8</ele>
        <time>2025-01-22T11:00:32.272Z</time>
      </trkpt>
      <trkpt lat="46.72653" lon="-1.96422">
        <ele>12</ele>
        <time>2025-01-22T11:00:33.273Z</time>
      </trkpt>
      <trkpt lat="46.72654" lon="-1.9642">
        <ele>12.2</ele>
        <time>2025-01-22T11:00:34.272Z</time>
      </trkpt>
      <trkpt lat="46.72655" lon="-1.96417">
        <ele>12.5</ele>
        <time>2025-01-22T11:00:35.272Z</time>
      </trkpt>
      <trkpt lat="46.72655" lon="-1.96415">
        <ele>12.7</ele>
        <time>2025-01-22T11:00:36.273Z</time>
      </trkpt>
      <trkpt lat="46.72656" lon="-1.96413">
        <ele>12.8</ele>
        <time>2025-01-22T11:00:37.273Z</time>
      </trkpt>
      <trkpt lat="46.72656" lon="-1.96411">
        <ele>13</ele>
        <time>2025-01-22T11:00:38.273Z</time>
      </trkpt>
      <trkpt lat="46.72657" lon="-1.96408">
        <ele>13.3</ele>
        <time>2025-01-22T11:00:39.272Z</time>
      </trkpt>
      <trkpt lat="46.72659" lon="-1.96405">
        <ele>13.6</ele>
        <time>2025-01-22T11:00:40.272Z</time>
      </trkpt>
      <trkpt lat="46.72661" lon="-1.96403">
        <ele>14</ele>
        <time>2025-01-22T11:00:41.272Z</time>
      </trkpt>
      <trkpt lat="46.72663" lon="-1.96399">
        <ele>14.5</ele>
        <time>2025-01-22T11:00:42.272Z</time>
      </trkpt>
      <trkpt lat="46.72665" lon="-1.96396">
        <ele>15.1</ele>
        <time>2025-01-22T11:00:43.273Z</time>
      </trkpt>
      <trkpt lat="46.72666" lon="-1.96393">
        <ele>15.5</ele>
        <time>2025-01-22T11:00:44.273Z</time>
      </trkpt>
      <trkpt lat="46.72667" lon="-1.96391">
        <ele>15.8</ele>
        <time>2025-01-22T11:00:45.273Z</time>
      </trkpt>
      <trkpt lat="46.72667" lon="-1.96389">
        <ele>16</ele>
        <time>2025-01-22T11:00:46.272Z</time>
      </trkpt>
      <trkpt lat="46.72667" lon="-1.96389">
        <ele>16</ele>
        <time>2025-01-22T11:00:47.272Z</time>
      </trkpt>
      <trkpt lat="46.72668" lon="-1.96388">
        <ele>15.9</ele>
        <time>2025-01-22T11:00:48.273Z</time>
      </trkpt>
      <trkpt lat="46.7267" lon="-1.96387">
        <ele>15.8</ele>
        <time>2025-01-22T11:00:49.273Z</time>
      </trkpt>
      <trkpt lat="46.72671" lon="-1.96386">
        <ele>15.7</ele>
        <time>2025-01-22T11:00:50.273Z</time>
      </trkpt>
      <trkpt lat="46.72672" lon="-1.96383">
        <ele>15.6</ele>
        <time>2025-01-22T11:00:51.273Z</time>
      </trkpt>
      <trkpt lat="46.72672" lon="-1.96381">
        <ele>15.5</ele>
        <time>2025-01-22T11:00:52.273Z</time>
      </trkpt>
      <trkpt lat="46.72672" lon="-1.96379">
        <ele>15.4</ele>
        <time>2025-01-22T11:00:53.272Z</time>
      </trkpt>
      <trkpt lat="46.72672" lon="-1.96377">
        <ele>15.4</ele>
        <time>2025-01-22T11:00:54.273Z</time>
      </trkpt>
      <trkpt lat="46.72671" lon="-1.96375">
        <ele>15.3</ele>
        <time>2025-01-22T11:00:55.273Z</time>
      </trkpt>
      <trkpt lat="46.7267" lon="-1.96372">
        <ele>15.3</ele>
        <time>2025-01-22T11:00:56.273Z</time>
      </trkpt>
      <trkpt lat="46.72669" lon="-1.9637">
        <ele>15.2</ele>
        <time>2025-01-22T11:00:57.273Z</time>
      </trkpt>
      <trkpt lat="46.72668" lon="-1.96367">
        <ele>15.2</ele>
        <time>2025-01-22T11:00:58.272Z</time>
      </trkpt>
      <trkpt lat="46.72666" lon="-1.96365">
        <ele>15.1</ele>
        <time>2025-01-22T11:00:59.273Z</time>
      </trkpt>
      <trkpt lat="46.72665" lon="-1.96362">
        <ele>14.9</ele>
        <time>2025-01-22T11:01:00.272Z</time>
      </trkpt>
      <trkpt lat="46.72664" lon="-1.96359">
        <ele>14.7</ele>
        <time>2025-01-22T11:01:01.273Z</time>
      </trkpt>
      <trkpt lat="46.72663" lon="-1.96356">
        <ele>14.4</ele>
        <time>2025-01-22T11:01:02.273Z</time>
      </trkpt>
      <trkpt lat="46.72662" lon="-1.96353">
        <ele>14.2</ele>
        <time>2025-01-22T11:01:03.273Z</time>
      </trkpt>
      <trkpt lat="46.72661" lon="-1.96351">
        <ele>14</ele>
        <time>2025-01-22T11:01:04.272Z</time>
      </trkpt>
      <trkpt lat="46.7266" lon="-1.96348">
        <ele>13.8</ele>
        <time>2025-01-22T11:01:05.272Z</time>
      </trkpt>
      <trkpt lat="46.72659" lon="-1.96347">
        <ele>13.7</ele>
        <time>2025-01-22T11:01:06.272Z</time>
      </trkpt>
      <trkpt lat="46.72658" lon="-1.96344">
        <ele>13.5</ele>
        <time>2025-01-22T11:01:07.273Z</time>
      </trkpt>
      <trkpt lat="46.72656" lon="-1.96342">
        <ele>13.4</ele>
        <time>2025-01-22T11:01:08.272Z</time>
      </trkpt>
      <trkpt lat="46.72655" lon="-1.96339">
        <ele>13.2</ele>
        <time>2025-01-22T11:01:09.272Z</time>
      </trkpt>
      <trkpt lat="46.72653" lon="-1.96337">
        <ele>13.1</ele>
        <time>2025-01-22T11:01:10.272Z</time>
      </trkpt>
      <trkpt lat="46.72651" lon="-1.96334">
        <ele>13</ele>
        <time>2025-01-22T11:01:11.273Z</time>
      </trkpt>
      <trkpt lat="46.72649" lon="-1.96332">
        <ele>13</ele>
        <time>2025-01-22T11:01:12.273Z</time>
      </trkpt>
      <trkpt lat="46.72648" lon="-1.96331">
        <ele>13.1</ele>
        <time>2025-01-22T11:01:13.272Z</time>
      </trkpt>
      <trkpt lat="46.72647" lon="-1.9633">
        <ele>13.1</ele>
        <time>2025-01-22T11:01:14.272Z</time>
      </trkpt>
      <trkpt lat="46.72646" lon="-1.96329">
        <ele>13.1</ele>
        <time>2025-01-22T11:01:15.273Z</time>
      </trkpt>
      <trkpt lat="46.72645" lon="-1.96328">
        <ele>13.1</ele>
        <time>2025-01-22T11:01:16.273Z</time>
      </trkpt>
      <trkpt lat="46.72642" lon="-1.96327">
        <ele>13.2</ele>
        <time>2025-01-22T11:01:17.273Z</time>
      </trkpt>
      <trkpt lat="46.7264" lon="-1.96325">
        <ele>13.3</ele>
        <time>2025-01-22T11:01:18.272Z</time>
      </trkpt>
      <trkpt lat="46.72638" lon="-1.96324">
        <ele>13.4</ele>
        <time>2025-01-22T11:01:19.272Z</time>
      </trkpt>
      <trkpt lat="46.72636" lon="-1.96323">
        <ele>13.7</ele>
        <time>2025-01-22T11:01:20.272Z</time>
      </trkpt>
      <trkpt lat="46.72634" lon="-1.96322">
        <ele>13.9</ele>
        <time>2025-01-22T11:01:21.272Z</time>
      </trkpt>
      <trkpt lat="46.72633" lon="-1.96322">
        <ele>14.1</ele>
        <time>2025-01-22T11:01:22.273Z</time>
      </trkpt>
      <trkpt lat="46.7263" lon="-1.96321">
        <ele>14.3</ele>
        <time>2025-01-22T11:01:23.273Z</time>
      </trkpt>
      <trkpt lat="46.72629" lon="-1.96321">
        <ele>14.6</ele>
        <time>2025-01-22T11:01:24.273Z</time>
      </trkpt>
      <trkpt lat="46.72627" lon="-1.9632">
        <ele>14.8</ele>
        <time>2025-01-22T11:01:25.272Z</time>
      </trkpt>
      <trkpt lat="46.72625" lon="-1.9632">
        <ele>14.9</ele>
        <time>2025-01-22T11:01:26.273Z</time>
      </trkpt>
      <trkpt lat="46.72624" lon="-1.96319">
        <ele>15.2</ele>
        <time>2025-01-22T11:01:27.272Z</time>
      </trkpt>
      <trkpt lat="46.72622" lon="-1.96318">
        <ele>15.4</ele>
        <time>2025-01-22T11:01:28.272Z</time>
      </trkpt>
      <trkpt lat="46.72621" lon="-1.96317">
        <ele>15.7</ele>
        <time>2025-01-22T11:01:29.272Z</time>
      </trkpt>
      <trkpt lat="46.7262" lon="-1.96316">
        <ele>15.9</ele>
        <time>2025-01-22T11:01:30.273Z</time>
      </trkpt>
      <trkpt lat="46.72618" lon="-1.96314">
        <ele>16.3</ele>
        <time>2025-01-22T11:01:31.273Z</time>
      </trkpt>
      <trkpt lat="46.72617" lon="-1.96312">
        <ele>16.6</ele>
        <time>2025-01-22T11:01:32.272Z</time>
      </trkpt>
      <trkpt lat="46.72616" lon="-1.9631">
        <ele>16.8</ele>
        <time>2025-01-22T11:01:33.272Z</time>
      </trkpt>
      <trkpt lat="46.72616" lon="-1.96308">
        <ele>17.1</ele>
        <time>2025-01-22T11:01:34.272Z</time>
      </trkpt>
      <trkpt lat="46.72616" lon="-1.96306">
        <ele>17.3</ele>
        <time>2025-01-22T11:01:35.273Z</time>
      </trkpt>
      <trkpt lat="46.72616" lon="-1.96304">
        <ele>17.4</ele>
        <time>2025-01-22T11:01:36.272Z</time>
      </trkpt>
      <trkpt lat="46.72616" lon="-1.96303">
        <ele>17.5</ele>
        <time>2025-01-22T11:01:37.272Z</time>
      </trkpt>
      <trkpt lat="46.72615" lon="-1.96301">
        <ele>17.6</ele>
        <time>2025-01-22T11:01:38.273Z</time>
      </trkpt>
      <trkpt lat="46.72614" lon="-1.96299">
        <ele>17.8</ele>
        <time>2025-01-22T11:01:39.272Z</time>
      </trkpt>
      <trkpt lat="46.72614" lon="-1.96297">
        <ele>18</ele>
        <time>2025-01-22T11:01:40.272Z</time>
      </trkpt>
      <trkpt lat="46.72613" lon="-1.96296">
        <ele>18</ele>
        <time>2025-01-22T11:01:41.272Z</time>
      </trkpt>
      <trkpt lat="46.72613" lon="-1.96295">
        <ele>18.2</ele>
        <time>2025-01-22T11:01:42.272Z</time>
      </trkpt>
      <trkpt lat="46.72612" lon="-1.96292">
        <ele>18.4</ele>
        <time>2025-01-22T11:01:43.272Z</time>
      </trkpt>
      <trkpt lat="46.72611" lon="-1.9629">
        <ele>18.5</ele>
        <time>2025-01-22T11:01:44.272Z</time>
      </trkpt>
      <trkpt lat="46.72611" lon="-1.9629">
        <ele>18.5</ele>
        <time>2025-01-22T11:01:45.272Z</time>
      </trkpt>
      <trkpt lat="46.7261" lon="-1.96288">
        <ele>18.5</ele>
        <time>2025-01-22T11:01:46.273Z</time>
      </trkpt>
      <trkpt lat="46.7261" lon="-1.96287">
        <ele>18.6</ele>
        <time>2025-01-22T11:01:47.273Z</time>
      </trkpt>
      <trkpt lat="46.72609" lon="-1.96285">
        <ele>18.6</ele>
        <time>2025-01-22T11:01:48.273Z</time>
      </trkpt>
      <trkpt lat="46.72607" lon="-1.96282">
        <ele>18.6</ele>
        <time>2025-01-22T11:01:49.272Z</time>
      </trkpt>
      <trkpt lat="46.72607" lon="-1.9628">
        <ele>18.6</ele>
        <time>2025-01-22T11:01:50.272Z</time>
      </trkpt>
      <trkpt lat="46.72607" lon="-1.96278">
        <ele>18.7</ele>
        <time>2025-01-22T11:01:51.272Z</time>
      </trkpt>
      <trkpt lat="46.72607" lon="-1.96277">
        <ele>18.7</ele>
        <time>2025-01-22T11:01:52.272Z</time>
      </trkpt>
      <trkpt lat="46.72607" lon="-1.96275">
        <ele>18.7</ele>
        <time>2025-01-22T11:01:53.273Z</time>
      </trkpt>
      <trkpt lat="46.72607" lon="-1.96273">
        <ele>18.8</ele>
        <time>2025-01-22T11:01:54.273Z</time>
      </trkpt>
      <trkpt lat="46.72606" lon="-1.9627">
        <ele>18.8</ele>
        <time>2025-01-22T11:01:55.273Z</time>
      </trkpt>
      <trkpt lat="46.72606" lon="-1.96267">
        <ele>18.8</ele>
        <time>2025-01-22T11:01:56.273Z</time>
      </trkpt>
      <trkpt lat="46.72605" lon="-1.96263">
        <ele>18.8</ele>
        <time>2025-01-22T11:01:57.272Z</time>
      </trkpt>
      <trkpt lat="46.72606" lon="-1.9626">
        <ele>18.9</ele>
        <time>2025-01-22T11:01:58.272Z</time>
      </trkpt>
      <trkpt lat="46.72606" lon="-1.96257">
        <ele>18.9</ele>
        <time>2025-01-22T11:01:59.273Z</time>
      </trkpt>
      <trkpt lat="46.72606" lon="-1.96254">
        <ele>18.9</ele>
        <time>2025-01-22T11:02:00.272Z</time>
      </trkpt>
      <trkpt lat="46.72606" lon="-1.96251">
        <ele>19</ele>
        <time>2025-01-22T11:02:01.273Z</time>
      </trkpt>
      <trkpt lat="46.72605" lon="-1.96248">
        <ele>18.9</ele>
        <time>2025-01-22T11:02:02.273Z</time>
      </trkpt>
      <trkpt lat="46.72603" lon="-1.96246">
        <ele>18.7</ele>
        <time>2025-01-22T11:02:03.272Z</time>
      </trkpt>
      <trkpt lat="46.72602" lon="-1.96243">
        <ele>18.6</ele>
        <time>2025-01-22T11:02:04.272Z</time>
      </trkpt>
      <trkpt lat="46.726" lon="-1.9624">
        <ele>18.5</ele>
        <time>2025-01-22T11:02:05.272Z</time>
      </trkpt>
      <trkpt lat="46.72598" lon="-1.96236">
        <ele>18.4</ele>
        <time>2025-01-22T11:02:06.272Z</time>
      </trkpt>
      <trkpt lat="46.72597" lon="-1.96233">
        <ele>18.4</ele>
        <time>2025-01-22T11:02:07.272Z</time>
      </trkpt>
      <trkpt lat="46.72596" lon="-1.9623">
        <ele>18.5</ele>
        <time>2025-01-22T11:02:08.272Z</time>
      </trkpt>
      <trkpt lat="46.72594" lon="-1.96227">
        <ele>18.6</ele>
        <time>2025-01-22T11:02:09.272Z</time>
      </trkpt>
      <trkpt lat="46.72592" lon="-1.96225">
        <ele>18.7</ele>
        <time>2025-01-22T11:02:10.273Z</time>
      </trkpt>
      <trkpt lat="46.7259" lon="-1.96223">
        <ele>19</ele>
        <time>2025-01-22T11:02:11.273Z</time>
      </trkpt>
      <trkpt lat="46.72588" lon="-1.96221">
        <ele>19.2</ele>
        <time>2025-01-22T11:02:12.273Z</time>
      </trkpt>
      <trkpt lat="46.72586" lon="-1.96219">
        <ele>19.4</ele>
        <time>2025-01-22T11:02:13.273Z</time>
      </trkpt>
      <trkpt lat="46.72585" lon="-1.96216">
        <ele>19.5</ele>
        <time>2025-01-22T11:02:14.273Z</time>
      </trkpt>
      <trkpt lat="46.72584" lon="-1.96214">
        <ele>19.6</ele>
        <time>2025-01-22T11:02:15.272Z</time>
      </trkpt>
      <trkpt lat="46.72582" lon="-1.96212">
        <ele>19.6</ele>
        <time>2025-01-22T11:02:16.272Z</time>
      </trkpt>
      <trkpt lat="46.7258" lon="-1.9621">
        <ele>19.5</ele>
        <time>2025-01-22T11:02:17.272Z</time>
      </trkpt>
      <trkpt lat="46.72579" lon="-1.9621">
        <ele>19.5</ele>
        <time>2025-01-22T11:02:18.272Z</time>
      </trkpt>
      <trkpt lat="46.7258" lon="-1.96211">
        <ele>19.5</ele>
        <time>2025-01-22T11:02:19.272Z</time>
      </trkpt>
      <trkpt lat="46.7258" lon="-1.96212">
        <ele>19.5</ele>
        <time>2025-01-22T11:02:20.272Z</time>
      </trkpt>
      <trkpt lat="46.7258" lon="-1.96215">
        <ele>19.6</ele>
        <time>2025-01-22T11:02:21.272Z</time>
      </trkpt>
      <trkpt lat="46.7258" lon="-1.96217">
        <ele>19.6</ele>
        <time>2025-01-22T11:02:22.272Z</time>
      </trkpt>
      <trkpt lat="46.7258" lon="-1.9622">
        <ele>19.7</ele>
        <time>2025-01-22T11:02:23.272Z</time>
      </trkpt>
      <trkpt lat="46.7258" lon="-1.96223">
        <ele>19.7</ele>
        <time>2025-01-22T11:02:24.273Z</time>
      </trkpt>
      <trkpt lat="46.7258" lon="-1.96225">
        <ele>19.6</ele>
        <time>2025-01-22T11:02:25.272Z</time>
      </trkpt>
      <trkpt lat="46.72579" lon="-1.96228">
        <ele>19.5</ele>
        <time>2025-01-22T11:02:26.273Z</time>
      </trkpt>
      <trkpt lat="46.72578" lon="-1.9623">
        <ele>19.4</ele>
        <time>2025-01-22T11:02:27.273Z</time>
      </trkpt>
      <trkpt lat="46.72577" lon="-1.96231">
        <ele>19.3</ele>
        <time>2025-01-22T11:02:28.273Z</time>
      </trkpt>
      <trkpt lat="46.72576" lon="-1.96231">
        <ele>19.2</ele>
        <time>2025-01-22T11:02:29.273Z</time>
      </trkpt>
      <trkpt lat="46.72574" lon="-1.96231">
        <ele>19.1</ele>
        <time>2025-01-22T11:02:30.272Z</time>
      </trkpt>
      <trkpt lat="46.72572" lon="-1.9623">
        <ele>19</ele>
        <time>2025-01-22T11:02:31.272Z</time>
      </trkpt>
      <trkpt lat="46.7257" lon="-1.96229">
        <ele>18.9</ele>
        <time>2025-01-22T11:02:32.272Z</time>
      </trkpt>
      <trkpt lat="46.72568" lon="-1.96228">
        <ele>18.8</ele>
        <time>2025-01-22T11:02:33.272Z</time>
      </trkpt>
      <trkpt lat="46.72567" lon="-1.96226">
        <ele>18.8</ele>
        <time>2025-01-22T11:02:34.273Z</time>
      </trkpt>
      <trkpt lat="46.72565" lon="-1.96224">
        <ele>18.6</ele>
        <time>2025-01-22T11:02:35.272Z</time>
      </trkpt>
      <trkpt lat="46.72563" lon="-1.96223">
        <ele>18.5</ele>
        <time>2025-01-22T11:02:36.272Z</time>
      </trkpt>
      <trkpt lat="46.7256" lon="-1.96221">
        <ele>18.4</ele>
        <time>2025-01-22T11:02:37.273Z</time>
      </trkpt>
      <trkpt lat="46.72555" lon="-1.96219">
        <ele>18.3</ele>
        <time>2025-01-22T11:02:38.272Z</time>
      </trkpt>
      <trkpt lat="46.72552" lon="-1.96218">
        <ele>18.5</ele>
        <time>2025-01-22T11:02:39.272Z</time>
      </trkpt>
      <trkpt lat="46.7255" lon="-1.96218">
        <ele>18.5</ele>
        <time>2025-01-22T11:02:40.272Z</time>
      </trkpt>
      <trkpt lat="46.72547" lon="-1.96219">
        <ele>18.5</ele>
        <time>2025-01-22T11:02:41.272Z</time>
      </trkpt>
      <trkpt lat="46.72546" lon="-1.9622">
        <ele>18.5</ele>
        <time>2025-01-22T11:02:42.273Z</time>
      </trkpt>
      <trkpt lat="46.72545" lon="-1.9622">
        <ele>18.6</ele>
        <time>2025-01-22T11:02:43.272Z</time>
      </trkpt>
      <trkpt lat="46.72544" lon="-1.96219">
        <ele>18.6</ele>
        <time>2025-01-22T11:02:44.273Z</time>
      </trkpt>
      <trkpt lat="46.72543" lon="-1.96219">
        <ele>18.7</ele>
        <time>2025-01-22T11:02:45.272Z</time>
      </trkpt>
      <trkpt lat="46.72541" lon="-1.96219">
        <ele>18.8</ele>
        <time>2025-01-22T11:02:46.272Z</time>
      </trkpt>
      <trkpt lat="46.7254" lon="-1.96218">
        <ele>18.8</ele>
        <time>2025-01-22T11:02:47.272Z</time>
      </trkpt>
      <trkpt lat="46.7254" lon="-1.96218">
        <ele>18.9</ele>
        <time>2025-01-22T11:02:48.273Z</time>
      </trkpt>
      <trkpt lat="46.72539" lon="-1.96217">
        <ele>19</ele>
        <time>2025-01-22T11:02:49.273Z</time>
      </trkpt>
      <trkpt lat="46.72539" lon="-1.96217">
        <ele>19</ele>
        <time>2025-01-22T11:02:50.273Z</time>
      </trkpt>
      <trkpt lat="46.72538" lon="-1.96217">
        <ele>19</ele>
        <time>2025-01-22T11:02:51.273Z</time>
      </trkpt>
      <trkpt lat="46.72537" lon="-1.96216">
        <ele>19.1</ele>
        <time>2025-01-22T11:02:52.272Z</time>
      </trkpt>
      <trkpt lat="46.72536" lon="-1.96216">
        <ele>19.2</ele>
        <time>2025-01-22T11:02:53.272Z</time>
      </trkpt>
      <trkpt lat="46.72535" lon="-1.96216">
        <ele>19.2</ele>
        <time>2025-01-22T11:02:54.272Z</time>
      </trkpt>
      <trkpt lat="46.72534" lon="-1.96216">
        <ele>19.2</ele>
        <time>2025-01-22T11:02:55.272Z</time>
      </trkpt>
      <trkpt lat="46.72532" lon="-1.96217">
        <ele>19.2</ele>
        <time>2025-01-22T11:02:56.272Z</time>
      </trkpt>
      <trkpt lat="46.72533" lon="-1.96216">
        <ele>19.2</ele>
        <time>2025-01-22T11:02:57.273Z</time>
      </trkpt>
      <trkpt lat="46.72533" lon="-1.96217">
        <ele>19.2</ele>
        <time>2025-01-22T11:02:58.273Z</time>
      </trkpt>
      <trkpt lat="46.72532" lon="-1.96216">
        <ele>19.3</ele>
        <time>2025-01-22T11:02:59.273Z</time>
      </trkpt>
      <trkpt lat="46.72531" lon="-1.96215">
        <ele>19.4</ele>
        <time>2025-01-22T11:03:00.273Z</time>
      </trkpt>
      <trkpt lat="46.72531" lon="-1.96214">
        <ele>19.5</ele>
        <time>2025-01-22T11:03:01.273Z</time>
      </trkpt>
      <trkpt lat="46.72531" lon="-1.96214">
        <ele>19.5</ele>
        <time>2025-01-22T11:03:02.272Z</time>
      </trkpt>
      <trkpt lat="46.72531" lon="-1.96213">
        <ele>19.5</ele>
        <time>2025-01-22T11:03:03.272Z</time>
      </trkpt>
      <trkpt lat="46.72531" lon="-1.96213">
        <ele>19.6</ele>
        <time>2025-01-22T11:03:04.273Z</time>
      </trkpt>
      <trkpt lat="46.7253" lon="-1.96213">
        <ele>19.6</ele>
        <time>2025-01-22T11:03:05.272Z</time>
      </trkpt>
      <trkpt lat="46.7253" lon="-1.96213">
        <ele>19.6</ele>
        <time>2025-01-22T11:03:06.273Z</time>
      </trkpt>
      <trkpt lat="46.7253" lon="-1.96212">
        <ele>19.7</ele>
        <time>2025-01-22T11:03:07.272Z</time>
      </trkpt>
      <trkpt lat="46.72529" lon="-1.96212">
        <ele>19.7</ele>
        <time>2025-01-22T11:03:08.272Z</time>
      </trkpt>
      <trkpt lat="46.72528" lon="-1.96212">
        <ele>19.7</ele>
        <time>2025-01-22T11:03:09.272Z</time>
      </trkpt>
      <trkpt lat="46.72528" lon="-1.96212">
        <ele>19.8</ele>
        <time>2025-01-22T11:03:10.272Z</time>
      </trkpt>
      <trkpt lat="46.72527" lon="-1.96211">
        <ele>19.9</ele>
        <time>2025-01-22T11:03:11.273Z</time>
      </trkpt>
      <trkpt lat="46.72525" lon="-1.9621">
        <ele>20.1</ele>
        <time>2025-01-22T11:03:12.272Z</time>
      </trkpt>
      <trkpt lat="46.72524" lon="-1.96208">
        <ele>20.4</ele>
        <time>2025-01-22T11:03:13.273Z</time>
      </trkpt>
      <trkpt lat="46.72523" lon="-1.96207">
        <ele>20.6</ele>
        <time>2025-01-22T11:03:14.273Z</time>
      </trkpt>
      <trkpt lat="46.72521" lon="-1.96206">
        <ele>20.8</ele>
        <time>2025-01-22T11:03:15.273Z</time>
      </trkpt>
      <trkpt lat="46.72521" lon="-1.96205">
        <ele>21</ele>
        <time>2025-01-22T11:03:16.273Z</time>
      </trkpt>
      <trkpt lat="46.7252" lon="-1.96204">
        <ele>21.2</ele>
        <time>2025-01-22T11:03:17.272Z</time>
      </trkpt>
      <trkpt lat="46.72519" lon="-1.96202">
        <ele>21.5</ele>
        <time>2025-01-22T11:03:18.272Z</time>
      </trkpt>
      <trkpt lat="46.72518" lon="-1.96201">
        <ele>21.8</ele>
        <time>2025-01-22T11:03:19.272Z</time>
      </trkpt>
      <trkpt lat="46.72516" lon="-1.962">
        <ele>22.1</ele>
        <time>2025-01-22T11:03:20.272Z</time>
      </trkpt>
      <trkpt lat="46.72515" lon="-1.96198">
        <ele>22.4</ele>
        <time>2025-01-22T11:03:21.273Z</time>
      </trkpt>
      <trkpt lat="46.72514" lon="-1.96197">
        <ele>22.7</ele>
        <time>2025-01-22T11:03:22.273Z</time>
      </trkpt>
      <trkpt lat="46.72513" lon="-1.96196">
        <ele>23</ele>
        <time>2025-01-22T11:03:23.273Z</time>
      </trkpt>
      <trkpt lat="46.72512" lon="-1.96195">
        <ele>23.3</ele>
        <time>2025-01-22T11:03:24.273Z</time>
      </trkpt>
      <trkpt lat="46.7251" lon="-1.96193">
        <ele>23.1</ele>
        <time>2025-01-22T11:03:25.273Z</time>
      </trkpt>
      <trkpt lat="46.72509" lon="-1.96192">
        <ele>23.1</ele>
        <time>2025-01-22T11:03:26.273Z</time>
      </trkpt>
      <trkpt lat="46.72509" lon="-1.96191">
        <ele>23</ele>
        <time>2025-01-22T11:03:27.273Z</time>
      </trkpt>
      <trkpt lat="46.72507" lon="-1.96191">
        <ele>23.3</ele>
        <time>2025-01-22T11:03:28.273Z</time>
      </trkpt>
      <trkpt lat="46.72505" lon="-1.96192">
        <ele>23.6</ele>
        <time>2025-01-22T11:03:29.272Z</time>
      </trkpt>
      <trkpt lat="46.72504" lon="-1.96192">
        <ele>23.9</ele>
        <time>2025-01-22T11:03:30.272Z</time>
      </trkpt>
      <trkpt lat="46.72502" lon="-1.96192">
        <ele>24.2</ele>
        <time>2025-01-22T11:03:31.272Z</time>
      </trkpt>
      <trkpt lat="46.72501" lon="-1.96192">
        <ele>24.4</ele>
        <time>2025-01-22T11:03:32.273Z</time>
      </trkpt>
      <trkpt lat="46.72499" lon="-1.96192">
        <ele>24.5</ele>
        <time>2025-01-22T11:03:33.273Z</time>
      </trkpt>
      <trkpt lat="46.72498" lon="-1.96193">
        <ele>24.5</ele>
        <time>2025-01-22T11:03:34.272Z</time>
      </trkpt>
      <trkpt lat="46.72496" lon="-1.96195">
        <ele>24.4</ele>
        <time>2025-01-22T11:03:35.273Z</time>
      </trkpt>
      <trkpt lat="46.72495" lon="-1.96197">
        <ele>24</ele>
        <time>2025-01-22T11:03:36.272Z</time>
      </trkpt>
      <trkpt lat="46.72494" lon="-1.96198">
        <ele>23.7</ele>
        <time>2025-01-22T11:03:37.272Z</time>
      </trkpt>
      <trkpt lat="46.72493" lon="-1.96199">
        <ele>23.4</ele>
        <time>2025-01-22T11:03:38.272Z</time>
      </trkpt>
      <trkpt lat="46.72493" lon="-1.962">
        <ele>23.2</ele>
        <time>2025-01-22T11:03:39.272Z</time>
      </trkpt>
      <trkpt lat="46.72491" lon="-1.96201">
        <ele>22.9</ele>
        <time>2025-01-22T11:03:40.273Z</time>
      </trkpt>
      <trkpt lat="46.7249" lon="-1.96202">
        <ele>22.7</ele>
        <time>2025-01-22T11:03:41.273Z</time>
      </trkpt>
      <trkpt lat="46.72488" lon="-1.96203">
        <ele>22.4</ele>
        <time>2025-01-22T11:03:42.273Z</time>
      </trkpt>
      <trkpt lat="46.72486" lon="-1.96204">
        <ele>22.1</ele>
        <time>2025-01-22T11:03:43.273Z</time>
      </trkpt>
      <trkpt lat="46.72486" lon="-1.96204">
        <ele>22.1</ele>
        <time>2025-01-22T11:03:44.273Z</time>
      </trkpt>
      <trkpt lat="46.72485" lon="-1.96205">
        <ele>22</ele>
        <time>2025-01-22T11:03:45.272Z</time>
      </trkpt>
      <trkpt lat="46.72483" lon="-1.96206">
        <ele>21.7</ele>
        <time>2025-01-22T11:03:46.272Z</time>
      </trkpt>
      <trkpt lat="46.72481" lon="-1.96207">
        <ele>21.5</ele>
        <time>2025-01-22T11:03:47.272Z</time>
      </trkpt>
      <trkpt lat="46.72479" lon="-1.96208">
        <ele>21.4</ele>
        <time>2025-01-22T11:03:48.273Z</time>
      </trkpt>
      <trkpt lat="46.72477" lon="-1.96209">
        <ele>21.2</ele>
        <time>2025-01-22T11:03:49.272Z</time>
      </trkpt>
      <trkpt lat="46.72475" lon="-1.96211">
        <ele>21.1</ele>
        <time>2025-01-22T11:03:50.272Z</time>
      </trkpt>
      <trkpt lat="46.72474" lon="-1.96211">
        <ele>21.1</ele>
        <time>2025-01-22T11:03:51.272Z</time>
      </trkpt>
      <trkpt lat="46.72473" lon="-1.96212">
        <ele>21</ele>
        <time>2025-01-22T11:03:52.272Z</time>
      </trkpt>
      <trkpt lat="46.72473" lon="-1.96213">
        <ele>21</ele>
        <time>2025-01-22T11:03:53.272Z</time>
      </trkpt>
      <trkpt lat="46.72473" lon="-1.96213">
        <ele>21</ele>
        <time>2025-01-22T11:03:54.273Z</time>
      </trkpt>
      <trkpt lat="46.72473" lon="-1.96214">
        <ele>21</ele>
        <time>2025-01-22T11:03:55.273Z</time>
      </trkpt>
      <trkpt lat="46.72472" lon="-1.96215">
        <ele>21</ele>
        <time>2025-01-22T11:03:56.273Z</time>
      </trkpt>
      <trkpt lat="46.7247" lon="-1.96216">
        <ele>20.9</ele>
        <time>2025-01-22T11:03:57.273Z</time>
      </trkpt>
      <trkpt lat="46.72468" lon="-1.96217">
        <ele>20.9</ele>
        <time>2025-01-22T11:03:58.273Z</time>
      </trkpt>
      <trkpt lat="46.72467" lon="-1.96217">
        <ele>20.8</ele>
        <time>2025-01-22T11:03:59.272Z</time>
      </trkpt>
      <trkpt lat="46.72465" lon="-1.96216">
        <ele>20.7</ele>
        <time>2025-01-22T11:04:00.272Z</time>
      </trkpt>
      <trkpt lat="46.72464" lon="-1.96216">
        <ele>20.7</ele>
        <time>2025-01-22T11:04:01.272Z</time>
      </trkpt>
      <trkpt lat="46.72463" lon="-1.96215">
        <ele>20.7</ele>
        <time>2025-01-22T11:04:02.272Z</time>
      </trkpt>
      <trkpt lat="46.72461" lon="-1.96212">
        <ele>20.6</ele>
        <time>2025-01-22T11:04:03.272Z</time>
      </trkpt>
      <trkpt lat="46.7246" lon="-1.9621">
        <ele>20.5</ele>
        <time>2025-01-22T11:04:04.272Z</time>
      </trkpt>
      <trkpt lat="46.72457" lon="-1.96207">
        <ele>20.4</ele>
        <time>2025-01-22T11:04:05.272Z</time>
      </trkpt>
      <trkpt lat="46.72456" lon="-1.96205">
        <ele>20.4</ele>
        <time>2025-01-22T11:04:06.273Z</time>
      </trkpt>
      <trkpt lat="46.72455" lon="-1.96202">
        <ele>20.4</ele>
        <time>2025-01-22T11:04:07.273Z</time>
      </trkpt>
      <trkpt lat="46.72454" lon="-1.96199">
        <ele>20.3</ele>
        <time>2025-01-22T11:04:08.272Z</time>
      </trkpt>
      <trkpt lat="46.72453" lon="-1.96196">
        <ele>20.3</ele>
        <time>2025-01-22T11:04:09.273Z</time>
      </trkpt>
      <trkpt lat="46.72452" lon="-1.96194">
        <ele>20.2</ele>
        <time>2025-01-22T11:04:10.273Z</time>
      </trkpt>
      <trkpt lat="46.72452" lon="-1.9619">
        <ele>19.9</ele>
        <time>2025-01-22T11:04:11.272Z</time>
      </trkpt>
      <trkpt lat="46.72451" lon="-1.96187">
        <ele>19.6</ele>
        <time>2025-01-22T11:04:12.272Z</time>
      </trkpt>
      <trkpt lat="46.72452" lon="-1.96183">
        <ele>19.2</ele>
        <time>2025-01-22T11:04:13.272Z</time>
      </trkpt>
      <trkpt lat="46.72451" lon="-1.9618">
        <ele>18.9</ele>
        <time>2025-01-22T11:04:14.272Z</time>
      </trkpt>
      <trkpt lat="46.72451" lon="-1.96176">
        <ele>18.6</ele>
        <time>2025-01-22T11:04:15.273Z</time>
      </trkpt>
      <trkpt lat="46.72451" lon="-1.96172">
        <ele>18.2</ele>
        <time>2025-01-22T11:04:16.273Z</time>
      </trkpt>
      <trkpt lat="46.72451" lon="-1.96169">
        <ele>17.9</ele>
        <time>2025-01-22T11:04:17.273Z</time>
      </trkpt>
      <trkpt lat="46.72451" lon="-1.96165">
        <ele>17.6</ele>
        <time>2025-01-22T11:04:18.273Z</time>
      </trkpt>
      <trkpt lat="46.7245" lon="-1.96162">
        <ele>17.4</ele>
        <time>2025-01-22T11:04:19.273Z</time>
      </trkpt>
      <trkpt lat="46.72449" lon="-1.9616">
        <ele>17.2</ele>
        <time>2025-01-22T11:04:20.272Z</time>
      </trkpt>
      <trkpt lat="46.72449" lon="-1.96158">
        <ele>17</ele>
        <time>2025-01-22T11:04:21.272Z</time>
      </trkpt>
      <trkpt lat="46.72448" lon="-1.96157">
        <ele>16.9</ele>
        <time>2025-01-22T11:04:22.272Z</time>
      </trkpt>
      <trkpt lat="46.72447" lon="-1.96157">
        <ele>16.9</ele>
        <time>2025-01-22T11:04:23.272Z</time>
      </trkpt>
      <trkpt lat="46.72445" lon="-1.96157">
        <ele>16.9</ele>
        <time>2025-01-22T11:04:24.273Z</time>
      </trkpt>
      <trkpt lat="46.72442" lon="-1.96157">
        <ele>16.9</ele>
        <time>2025-01-22T11:04:25.272Z</time>
      </trkpt>
      <trkpt lat="46.7244" lon="-1.96156">
        <ele>16.8</ele>
        <time>2025-01-22T11:04:26.272Z</time>
      </trkpt>
      <trkpt lat="46.72438" lon="-1.96156">
        <ele>16.7</ele>
        <time>2025-01-22T11:04:27.273Z</time>
      </trkpt>
      <trkpt lat="46.72436" lon="-1.96155">
        <ele>16.7</ele>
        <time>2025-01-22T11:04:28.272Z</time>
      </trkpt>
      <trkpt lat="46.72435" lon="-1.96155">
        <ele>16.6</ele>
        <time>2025-01-22T11:04:29.272Z</time>
      </trkpt>
      <trkpt lat="46.72433" lon="-1.96155">
        <ele>16.6</ele>
        <time>2025-01-22T11:04:30.272Z</time>
      </trkpt>
      <trkpt lat="46.72431" lon="-1.96154">
        <ele>16.5</ele>
        <time>2025-01-22T11:04:31.273Z</time>
      </trkpt>
      <trkpt lat="46.72428" lon="-1.96153">
        <ele>16.5</ele>
        <time>2025-01-22T11:04:32.272Z</time>
      </trkpt>
      <trkpt lat="46.72427" lon="-1.96152">
        <ele>16.5</ele>
        <time>2025-01-22T11:04:33.272Z</time>
      </trkpt>
      <trkpt lat="46.72425" lon="-1.96152">
        <ele>16.5</ele>
        <time>2025-01-22T11:04:34.272Z</time>
      </trkpt>
      <trkpt lat="46.72424" lon="-1.96151">
        <ele>16.5</ele>
        <time>2025-01-22T11:04:35.273Z</time>
      </trkpt>
      <trkpt lat="46.72422" lon="-1.96149">
        <ele>16.5</ele>
        <time>2025-01-22T11:04:36.272Z</time>
      </trkpt>
      <trkpt lat="46.7242" lon="-1.96148">
        <ele>16.6</ele>
        <time>2025-01-22T11:04:37.273Z</time>
      </trkpt>
      <trkpt lat="46.72417" lon="-1.96148">
        <ele>16.6</ele>
        <time>2025-01-22T11:04:38.273Z</time>
      </trkpt>
      <trkpt lat="46.72416" lon="-1.96147">
        <ele>16.7</ele>
        <time>2025-01-22T11:04:39.273Z</time>
      </trkpt>
      <trkpt lat="46.72415" lon="-1.96146">
        <ele>16.7</ele>
        <time>2025-01-22T11:04:40.272Z</time>
      </trkpt>
      <trkpt lat="46.72414" lon="-1.96145">
        <ele>16.6</ele>
        <time>2025-01-22T11:04:41.272Z</time>
      </trkpt>
      <trkpt lat="46.72413" lon="-1.96144">
        <ele>16.6</ele>
        <time>2025-01-22T11:04:42.272Z</time>
      </trkpt>
      <trkpt lat="46.72412" lon="-1.96143">
        <ele>16.7</ele>
        <time>2025-01-22T11:04:43.273Z</time>
      </trkpt>
      <trkpt lat="46.72412" lon="-1.96142">
        <ele>16.7</ele>
        <time>2025-01-22T11:04:44.273Z</time>
      </trkpt>
      <trkpt lat="46.72411" lon="-1.9614">
        <ele>16.8</ele>
        <time>2025-01-22T11:04:45.272Z</time>
      </trkpt>
      <trkpt lat="46.7241" lon="-1.96138">
        <ele>16.8</ele>
        <time>2025-01-22T11:04:46.272Z</time>
      </trkpt>
      <trkpt lat="46.7241" lon="-1.96137">
        <ele>16.8</ele>
        <time>2025-01-22T11:04:47.273Z</time>
      </trkpt>
      <trkpt lat="46.72409" lon="-1.96136">
        <ele>16.8</ele>
        <time>2025-01-22T11:04:48.272Z</time>
      </trkpt>
      <trkpt lat="46.72409" lon="-1.96134">
        <ele>16.9</ele>
        <time>2025-01-22T11:04:49.272Z</time>
      </trkpt>
      <trkpt lat="46.72408" lon="-1.96132">
        <ele>16.9</ele>
        <time>2025-01-22T11:04:50.273Z</time>
      </trkpt>
      <trkpt lat="46.72407" lon="-1.96129">
        <ele>17</ele>
        <time>2025-01-22T11:04:51.273Z</time>
      </trkpt>
      <trkpt lat="46.72406" lon="-1.96127">
        <ele>17.1</ele>
        <time>2025-01-22T11:04:52.272Z</time>
      </trkpt>
      <trkpt lat="46.72406" lon="-1.96124">
        <ele>17.1</ele>
        <time>2025-01-22T11:04:53.273Z</time>
      </trkpt>
      <trkpt lat="46.72405" lon="-1.96121">
        <ele>17.2</ele>
        <time>2025-01-22T11:04:54.273Z</time>
      </trkpt>
      <trkpt lat="46.72403" lon="-1.96118">
        <ele>17.3</ele>
        <time>2025-01-22T11:04:55.272Z</time>
      </trkpt>
      <trkpt lat="46.72401" lon="-1.96115">
        <ele>17.3</ele>
        <time>2025-01-22T11:04:56.272Z</time>
      </trkpt>
      <trkpt lat="46.72399" lon="-1.96112">
        <ele>17.3</ele>
        <time>2025-01-22T11:04:57.272Z</time>
      </trkpt>
      <trkpt lat="46.72397" lon="-1.96111">
        <ele>17.3</ele>
        <time>2025-01-22T11:04:58.272Z</time>
      </trkpt>
      <trkpt lat="46.72395" lon="-1.96111">
        <ele>17.2</ele>
        <time>2025-01-22T11:04:59.272Z</time>
      </trkpt>
      <trkpt lat="46.72393" lon="-1.96109">
        <ele>17.1</ele>
        <time>2025-01-22T11:05:00.272Z</time>
      </trkpt>
      <trkpt lat="46.72391" lon="-1.96106">
        <ele>17</ele>
        <time>2025-01-22T11:05:01.273Z</time>
      </trkpt>
      <trkpt lat="46.72389" lon="-1.96102">
        <ele>17</ele>
        <time>2025-01-22T11:05:02.273Z</time>
      </trkpt>
      <trkpt lat="46.72389" lon="-1.96099">
        <ele>17</ele>
        <time>2025-01-22T11:05:03.273Z</time>
      </trkpt>
      <trkpt lat="46.72389" lon="-1.96096">
        <ele>17</ele>
        <time>2025-01-22T11:05:04.272Z</time>
      </trkpt>
      <trkpt lat="46.72389" lon="-1.96093">
        <ele>17</ele>
        <time>2025-01-22T11:05:05.273Z</time>
      </trkpt>
      <trkpt lat="46.72389" lon="-1.9609">
        <ele>17</ele>
        <time>2025-01-22T11:05:06.272Z</time>
      </trkpt>
      <trkpt lat="46.72389" lon="-1.96088">
        <ele>17</ele>
        <time>2025-01-22T11:05:07.272Z</time>
      </trkpt>
      <trkpt lat="46.7239" lon="-1.96086">
        <ele>16.9</ele>
        <time>2025-01-22T11:05:08.272Z</time>
      </trkpt>
      <trkpt lat="46.7239" lon="-1.96084">
        <ele>16.9</ele>
        <time>2025-01-22T11:05:09.272Z</time>
      </trkpt>
      <trkpt lat="46.72391" lon="-1.96081">
        <ele>16.8</ele>
        <time>2025-01-22T11:05:10.273Z</time>
      </trkpt>
      <trkpt lat="46.72392" lon="-1.96078">
        <ele>16.6</ele>
        <time>2025-01-22T11:05:11.273Z</time>
      </trkpt>
      <trkpt lat="46.72392" lon="-1.96074">
        <ele>16.4</ele>
        <time>2025-01-22T11:05:12.273Z</time>
      </trkpt>
      <trkpt lat="46.72391" lon="-1.9607">
        <ele>16.3</ele>
        <time>2025-01-22T11:05:13.273Z</time>
      </trkpt>
      <trkpt lat="46.72389" lon="-1.96067">
        <ele>16.4</ele>
        <time>2025-01-22T11:05:14.272Z</time>
      </trkpt>
      <trkpt lat="46.72388" lon="-1.96064">
        <ele>16</ele>
        <time>2025-01-22T11:05:15.273Z</time>
      </trkpt>
      <trkpt lat="46.72386" lon="-1.96061">
        <ele>15.5</ele>
        <time>2025-01-22T11:05:16.273Z</time>
      </trkpt>
      <trkpt lat="46.72384" lon="-1.96059">
        <ele>14.9</ele>
        <time>2025-01-22T11:05:17.273Z</time>
      </trkpt>
      <trkpt lat="46.72383" lon="-1.96058">
        <ele>14.7</ele>
        <time>2025-01-22T11:05:18.273Z</time>
      </trkpt>
      <trkpt lat="46.72382" lon="-1.96057">
        <ele>14.3</ele>
        <time>2025-01-22T11:05:19.273Z</time>
      </trkpt>
      <trkpt lat="46.7238" lon="-1.96056">
        <ele>13.7</ele>
        <time>2025-01-22T11:05:20.272Z</time>
      </trkpt>
      <trkpt lat="46.72378" lon="-1.96056">
        <ele>13.1</ele>
        <time>2025-01-22T11:05:21.272Z</time>
      </trkpt>
      <trkpt lat="46.72377" lon="-1.96054">
        <ele>12.9</ele>
        <time>2025-01-22T11:05:22.272Z</time>
      </trkpt>
      <trkpt lat="46.72374" lon="-1.96051">
        <ele>12.4</ele>
        <time>2025-01-22T11:05:23.272Z</time>
      </trkpt>
      <trkpt lat="46.72372" lon="-1.96048">
        <ele>12</ele>
        <time>2025-01-22T11:05:24.273Z</time>
      </trkpt>
      <trkpt lat="46.7237" lon="-1.96045">
        <ele>11.7</ele>
        <time>2025-01-22T11:05:25.272Z</time>
      </trkpt>
      <trkpt lat="46.72368" lon="-1.96042">
        <ele>11.4</ele>
        <time>2025-01-22T11:05:26.273Z</time>
      </trkpt>
      <trkpt lat="46.72367" lon="-1.9604">
        <ele>11.2</ele>
        <time>2025-01-22T11:05:27.273Z</time>
      </trkpt>
      <trkpt lat="46.72365" lon="-1.96038">
        <ele>11</ele>
        <time>2025-01-22T11:05:28.273Z</time>
      </trkpt>
      <trkpt lat="46.72364" lon="-1.96037">
        <ele>10.9</ele>
        <time>2025-01-22T11:05:29.272Z</time>
      </trkpt>
      <trkpt lat="46.72363" lon="-1.96035">
        <ele>10.8</ele>
        <time>2025-01-22T11:05:30.272Z</time>
      </trkpt>
      <trkpt lat="46.72362" lon="-1.96035">
        <ele>10.7</ele>
        <time>2025-01-22T11:05:31.272Z</time>
      </trkpt>
      <trkpt lat="46.72361" lon="-1.96035">
        <ele>10.5</ele>
        <time>2025-01-22T11:05:32.272Z</time>
      </trkpt>
      <trkpt lat="46.72359" lon="-1.96035">
        <ele>10.5</ele>
        <time>2025-01-22T11:05:33.273Z</time>
      </trkpt>
      <trkpt lat="46.72357" lon="-1.96036">
        <ele>10.4</ele>
        <time>2025-01-22T11:05:34.273Z</time>
      </trkpt>
      <trkpt lat="46.72355" lon="-1.96037">
        <ele>10.4</ele>
        <time>2025-01-22T11:05:35.273Z</time>
      </trkpt>
      <trkpt lat="46.72352" lon="-1.96037">
        <ele>10.4</ele>
        <time>2025-01-22T11:05:36.273Z</time>
      </trkpt>
      <trkpt lat="46.7235" lon="-1.96036">
        <ele>10.4</ele>
        <time>2025-01-22T11:05:37.272Z</time>
      </trkpt>
      <trkpt lat="46.72348" lon="-1.96035">
        <ele>10.5</ele>
        <time>2025-01-22T11:05:38.273Z</time>
      </trkpt>
      <trkpt lat="46.72346" lon="-1.96034">
        <ele>10.6</ele>
        <time>2025-01-22T11:05:39.273Z</time>
      </trkpt>
      <trkpt lat="46.72344" lon="-1.96033">
        <ele>10.6</ele>
        <time>2025-01-22T11:05:40.273Z</time>
      </trkpt>
      <trkpt lat="46.72342" lon="-1.96032">
        <ele>10.7</ele>
        <time>2025-01-22T11:05:41.272Z</time>
      </trkpt>
      <trkpt lat="46.7234" lon="-1.96032">
        <ele>10.7</ele>
        <time>2025-01-22T11:05:42.272Z</time>
      </trkpt>
      <trkpt lat="46.72338" lon="-1.96031">
        <ele>10.7</ele>
        <time>2025-01-22T11:05:43.272Z</time>
      </trkpt>
      <trkpt lat="46.72338" lon="-1.96032">
        <ele>10.7</ele>
        <time>2025-01-22T11:05:44.272Z</time>
      </trkpt>
      <trkpt lat="46.72337" lon="-1.96032">
        <ele>10.7</ele>
        <time>2025-01-22T11:05:45.272Z</time>
      </trkpt>
      <trkpt lat="46.72339" lon="-1.96032">
        <ele>10.7</ele>
        <time>2025-01-22T11:05:46.273Z</time>
      </trkpt>
      <trkpt lat="46.72339" lon="-1.96033">
        <ele>10.6</ele>
        <time>2025-01-22T11:05:47.273Z</time>
      </trkpt>
      <trkpt lat="46.72341" lon="-1.96034">
        <ele>10.6</ele>
        <time>2025-01-22T11:05:48.273Z</time>
      </trkpt>
      <trkpt lat="46.72343" lon="-1.96035">
        <ele>10.5</ele>
        <time>2025-01-22T11:05:49.273Z</time>
      </trkpt>
      <trkpt lat="46.72344" lon="-1.96036">
        <ele>10.4</ele>
        <time>2025-01-22T11:05:50.273Z</time>
      </trkpt>
      <trkpt lat="46.72344" lon="-1.96037">
        <ele>10.3</ele>
        <time>2025-01-22T11:05:51.272Z</time>
      </trkpt>
      <trkpt lat="46.72345" lon="-1.96039">
        <ele>10.2</ele>
        <time>2025-01-22T11:05:52.272Z</time>
      </trkpt>
      <trkpt lat="46.72345" lon="-1.96041">
        <ele>10.1</ele>
        <time>2025-01-22T11:05:53.273Z</time>
      </trkpt>
      <trkpt lat="46.72345" lon="-1.96044">
        <ele>9.8</ele>
        <time>2025-01-22T11:05:54.273Z</time>
      </trkpt>
      <trkpt lat="46.72344" lon="-1.96047">
        <ele>9.7</ele>
        <time>2025-01-22T11:05:55.273Z</time>
      </trkpt>
      <trkpt lat="46.72343" lon="-1.96049">
        <ele>9.5</ele>
        <time>2025-01-22T11:05:56.273Z</time>
      </trkpt>
      <trkpt lat="46.72342" lon="-1.96051">
        <ele>9.3</ele>
        <time>2025-01-22T11:05:57.272Z</time>
      </trkpt>
      <trkpt lat="46.7234" lon="-1.96054">
        <ele>9.1</ele>
        <time>2025-01-22T11:05:58.273Z</time>
      </trkpt>
      <trkpt lat="46.72338" lon="-1.96056">
        <ele>9</ele>
        <time>2025-01-22T11:05:59.273Z</time>
      </trkpt>
      <trkpt lat="46.72336" lon="-1.96057">
        <ele>9</ele>
        <time>2025-01-22T11:06:00.272Z</time>
      </trkpt>
      <trkpt lat="46.72334" lon="-1.96059">
        <ele>9</ele>
        <time>2025-01-22T11:06:01.272Z</time>
      </trkpt>
      <trkpt lat="46.72331" lon="-1.96061">
        <ele>9.1</ele>
        <time>2025-01-22T11:06:02.273Z</time>
      </trkpt>
      <trkpt lat="46.72329" lon="-1.96062">
        <ele>9.3</ele>
        <time>2025-01-22T11:06:03.272Z</time>
      </trkpt>
      <trkpt lat="46.72326" lon="-1.96063">
        <ele>9.5</ele>
        <time>2025-01-22T11:06:04.272Z</time>
      </trkpt>
      <trkpt lat="46.72323" lon="-1.96064">
        <ele>9.7</ele>
        <time>2025-01-22T11:06:05.272Z</time>
      </trkpt>
      <trkpt lat="46.72322" lon="-1.96065">
        <ele>9.8</ele>
        <time>2025-01-22T11:06:06.273Z</time>
      </trkpt>
      <trkpt lat="46.7232" lon="-1.96067">
        <ele>9.9</ele>
        <time>2025-01-22T11:06:07.272Z</time>
      </trkpt>
      <trkpt lat="46.72319" lon="-1.9607">
        <ele>10</ele>
        <time>2025-01-22T11:06:08.273Z</time>
      </trkpt>
      <trkpt lat="46.72317" lon="-1.96073">
        <ele>10.2</ele>
        <time>2025-01-22T11:06:09.273Z</time>
      </trkpt>
      <trkpt lat="46.72314" lon="-1.96077">
        <ele>10.4</ele>
        <time>2025-01-22T11:06:10.272Z</time>
      </trkpt>
      <trkpt lat="46.72311" lon="-1.9608">
        <ele>10.6</ele>
        <time>2025-01-22T11:06:11.272Z</time>
      </trkpt>
      <trkpt lat="46.72308" lon="-1.96083">
        <ele>10.8</ele>
        <time>2025-01-22T11:06:12.272Z</time>
      </trkpt>
      <trkpt lat="46.72306" lon="-1.96087">
        <ele>11</ele>
        <time>2025-01-22T11:06:13.272Z</time>
      </trkpt>
      <trkpt lat="46.72303" lon="-1.96091">
        <ele>10.9</ele>
        <time>2025-01-22T11:06:14.273Z</time>
      </trkpt>
      <trkpt lat="46.72301" lon="-1.96095">
        <ele>10.8</ele>
        <time>2025-01-22T11:06:15.273Z</time>
      </trkpt>
      <trkpt lat="46.72299" lon="-1.96097">
        <ele>10.8</ele>
        <time>2025-01-22T11:06:16.272Z</time>
      </trkpt>
      <trkpt lat="46.72298" lon="-1.96099">
        <ele>10.7</ele>
        <time>2025-01-22T11:06:17.272Z</time>
      </trkpt>
      <trkpt lat="46.72297" lon="-1.96101">
        <ele>10.7</ele>
        <time>2025-01-22T11:06:18.272Z</time>
      </trkpt>
      <trkpt lat="46.72297" lon="-1.96104">
        <ele>10.7</ele>
        <time>2025-01-22T11:06:19.272Z</time>
      </trkpt>
      <trkpt lat="46.72297" lon="-1.96106">
        <ele>10.7</ele>
        <time>2025-01-22T11:06:20.272Z</time>
      </trkpt>
      <trkpt lat="46.72297" lon="-1.96109">
        <ele>10.7</ele>
        <time>2025-01-22T11:06:21.272Z</time>
      </trkpt>
      <trkpt lat="46.72296" lon="-1.96111">
        <ele>10.7</ele>
        <time>2025-01-22T11:06:22.272Z</time>
      </trkpt>
      <trkpt lat="46.72296" lon="-1.96115">
        <ele>10.6</ele>
        <time>2025-01-22T11:06:23.272Z</time>
      </trkpt>
      <trkpt lat="46.72295" lon="-1.96118">
        <ele>10.5</ele>
        <time>2025-01-22T11:06:24.272Z</time>
      </trkpt>
      <trkpt lat="46.72293" lon="-1.9612">
        <ele>10.4</ele>
        <time>2025-01-22T11:06:25.273Z</time>
      </trkpt>
      <trkpt lat="46.72292" lon="-1.96124">
        <ele>10.3</ele>
        <time>2025-01-22T11:06:26.273Z</time>
      </trkpt>
      <trkpt lat="46.72291" lon="-1.96128">
        <ele>10.2</ele>
        <time>2025-01-22T11:06:27.273Z</time>
      </trkpt>
      <trkpt lat="46.72291" lon="-1.9613">
        <ele>10.2</ele>
        <time>2025-01-22T11:06:28.273Z</time>
      </trkpt>
      <trkpt lat="46.72292" lon="-1.96132">
        <ele>10.1</ele>
        <time>2025-01-22T11:06:29.273Z</time>
      </trkpt>
      <trkpt lat="46.72292" lon="-1.96134">
        <ele>10.1</ele>
        <time>2025-01-22T11:06:30.272Z</time>
      </trkpt>
      <trkpt lat="46.72292" lon="-1.96135">
        <ele>10.1</ele>
        <time>2025-01-22T11:06:31.273Z</time>
      </trkpt>
      <trkpt lat="46.72293" lon="-1.96134">
        <ele>10.1</ele>
        <time>2025-01-22T11:06:32.273Z</time>
      </trkpt>
      <trkpt lat="46.72295" lon="-1.96133">
        <ele>10.1</ele>
        <time>2025-01-22T11:06:33.273Z</time>
      </trkpt>
      <trkpt lat="46.72297" lon="-1.96132">
        <ele>10.2</ele>
        <time>2025-01-22T11:06:34.273Z</time>
      </trkpt>
      <trkpt lat="46.723" lon="-1.9613">
        <ele>10.3</ele>
        <time>2025-01-22T11:06:35.273Z</time>
      </trkpt>
      <trkpt lat="46.72299" lon="-1.96129">
        <ele>10.3</ele>
        <time>2025-01-22T11:06:36.273Z</time>
      </trkpt>
      <trkpt lat="46.72299" lon="-1.96129">
        <ele>10.3</ele>
        <time>2025-01-22T11:06:37.273Z</time>
      </trkpt>
      <trkpt lat="46.72299" lon="-1.96129">
        <ele>10.3</ele>
        <time>2025-01-22T11:06:38.272Z</time>
      </trkpt>
      <trkpt lat="46.72299" lon="-1.96129">
        <ele>10.3</ele>
        <time>2025-01-22T11:06:39.273Z</time>
      </trkpt>
      <trkpt lat="46.72299" lon="-1.9613">
        <ele>10.3</ele>
        <time>2025-01-22T11:06:40.272Z</time>
      </trkpt>
      <trkpt lat="46.72299" lon="-1.9613">
        <ele>10.3</ele>
        <time>2025-01-22T11:06:41.272Z</time>
      </trkpt>
      <trkpt lat="46.72299" lon="-1.9613">
        <ele>10.3</ele>
        <time>2025-01-22T11:06:42.272Z</time>
      </trkpt>
      <trkpt lat="46.72298" lon="-1.96129">
        <ele>10.2</ele>
        <time>2025-01-22T11:06:43.272Z</time>
      </trkpt>
      <trkpt lat="46.72298" lon="-1.96129">
        <ele>10.2</ele>
        <time>2025-01-22T11:06:44.273Z</time>
      </trkpt>
      <trkpt lat="46.72297" lon="-1.96129">
        <ele>10.3</ele>
        <time>2025-01-22T11:06:45.272Z</time>
      </trkpt>
      <trkpt lat="46.72298" lon="-1.96129">
        <ele>10.3</ele>
        <time>2025-01-22T11:06:46.273Z</time>
      </trkpt>
      <trkpt lat="46.72298" lon="-1.96128">
        <ele>10.3</ele>
        <time>2025-01-22T11:06:47.273Z</time>
      </trkpt>
      <trkpt lat="46.72299" lon="-1.96128">
        <ele>10.3</ele>
        <time>2025-01-22T11:06:48.273Z</time>
      </trkpt>
      <trkpt lat="46.72299" lon="-1.96128">
        <ele>10.3</ele>
        <time>2025-01-22T11:06:49.273Z</time>
      </trkpt>
      <trkpt lat="46.72299" lon="-1.96129">
        <ele>10.3</ele>
        <time>2025-01-22T11:06:50.273Z</time>
      </trkpt>
      <trkpt lat="46.72299" lon="-1.96129">
        <ele>10.3</ele>
        <time>2025-01-22T11:06:51.272Z</time>
      </trkpt>
      <trkpt lat="46.723" lon="-1.96129">
        <ele>10.3</ele>
        <time>2025-01-22T11:06:52.272Z</time>
      </trkpt>
      <trkpt lat="46.72299" lon="-1.9613">
        <ele>10.2</ele>
        <time>2025-01-22T11:06:53.272Z</time>
      </trkpt>
      <trkpt lat="46.72299" lon="-1.96131">
        <ele>10.2</ele>
        <time>2025-01-22T11:06:54.272Z</time>
      </trkpt>
      <trkpt lat="46.72299" lon="-1.96131">
        <ele>10.2</ele>
        <time>2025-01-22T11:06:55.273Z</time>
      </trkpt>
      <trkpt lat="46.72299" lon="-1.96131">
        <ele>10.2</ele>
        <time>2025-01-22T11:06:56.272Z</time>
      </trkpt>
      <trkpt lat="46.72297" lon="-1.96135">
        <ele>10.1</ele>
        <time>2025-01-22T11:06:57.272Z</time>
      </trkpt>
      <trkpt lat="46.72294" lon="-1.96134">
        <ele>10.1</ele>
        <time>2025-01-22T11:06:58.272Z</time>
      </trkpt>
      <trkpt lat="46.72293" lon="-1.96135">
        <ele>10.1</ele>
        <time>2025-01-22T11:06:59.272Z</time>
      </trkpt>
      <trkpt lat="46.72294" lon="-1.96136">
        <ele>10.1</ele>
        <time>2025-01-22T11:07:00.272Z</time>
      </trkpt>
      <trkpt lat="46.72294" lon="-1.96137">
        <ele>10</ele>
        <time>2025-01-22T11:07:01.273Z</time>
      </trkpt>
      <trkpt lat="46.72295" lon="-1.96139">
        <ele>10</ele>
        <time>2025-01-22T11:07:02.272Z</time>
      </trkpt>
      <trkpt lat="46.72299" lon="-1.96141">
        <ele>10</ele>
        <time>2025-01-22T11:07:03.273Z</time>
      </trkpt>
      <trkpt lat="46.72299" lon="-1.96138">
        <ele>10</ele>
        <time>2025-01-22T11:07:04.272Z</time>
      </trkpt>
      <trkpt lat="46.72298" lon="-1.96138">
        <ele>10</ele>
        <time>2025-01-22T11:07:05.273Z</time>
      </trkpt>
      <trkpt lat="46.72298" lon="-1.96138">
        <ele>10</ele>
        <time>2025-01-22T11:07:06.272Z</time>
      </trkpt>
      <trkpt lat="46.72298" lon="-1.96138">
        <ele>10</ele>
        <time>2025-01-22T11:07:07.272Z</time>
      </trkpt>
      <trkpt lat="46.72298" lon="-1.96137">
        <ele>10</ele>
        <time>2025-01-22T11:07:08.273Z</time>
      </trkpt>
      <trkpt lat="46.72298" lon="-1.96138">
        <ele>10</ele>
        <time>2025-01-22T11:07:09.272Z</time>
      </trkpt>
      <trkpt lat="46.72296" lon="-1.96142">
        <ele>9.9</ele>
        <time>2025-01-22T11:07:10.273Z</time>
      </trkpt>
      <trkpt lat="46.72296" lon="-1.96142">
        <ele>9.9</ele>
        <time>2025-01-22T11:07:11.272Z</time>
      </trkpt>
      <trkpt lat="46.72296" lon="-1.96142">
        <ele>9.9</ele>
        <time>2025-01-22T11:07:12.272Z</time>
      </trkpt>
      <trkpt lat="46.72296" lon="-1.96142">
        <ele>9.9</ele>
        <time>2025-01-22T11:07:13.273Z</time>
      </trkpt>
      <trkpt lat="46.72295" lon="-1.96143">
        <ele>9.9</ele>
        <time>2025-01-22T11:07:14.273Z</time>
      </trkpt>
      <trkpt lat="46.72298" lon="-1.96146">
        <ele>9.8</ele>
        <time>2025-01-22T11:07:15.273Z</time>
      </trkpt>
      <trkpt lat="46.72299" lon="-1.96148">
        <ele>9.8</ele>
        <time>2025-01-22T11:07:16.272Z</time>
      </trkpt>
      <trkpt lat="46.72299" lon="-1.96148">
        <ele>9.7</ele>
        <time>2025-01-22T11:07:17.272Z</time>
      </trkpt>
      <trkpt lat="46.72299" lon="-1.96149">
        <ele>9.7</ele>
        <time>2025-01-22T11:07:18.272Z</time>
      </trkpt>
      <trkpt lat="46.72298" lon="-1.96149">
        <ele>9.7</ele>
        <time>2025-01-22T11:07:19.272Z</time>
      </trkpt>
      <trkpt lat="46.72298" lon="-1.9615">
        <ele>9.7</ele>
        <time>2025-01-22T11:07:20.272Z</time>
      </trkpt>
      <trkpt lat="46.72297" lon="-1.96151">
        <ele>9.7</ele>
        <time>2025-01-22T11:07:21.272Z</time>
      </trkpt>
      <trkpt lat="46.72296" lon="-1.96154">
        <ele>9.7</ele>
        <time>2025-01-22T11:07:22.273Z</time>
      </trkpt>
      <trkpt lat="46.72295" lon="-1.96156">
        <ele>9.6</ele>
        <time>2025-01-22T11:07:23.272Z</time>
      </trkpt>
      <trkpt lat="46.72296" lon="-1.96155">
        <ele>9.6</ele>
        <time>2025-01-22T11:07:24.272Z</time>
      </trkpt>
      <trkpt lat="46.72295" lon="-1.96155">
        <ele>9.6</ele>
        <time>2025-01-22T11:07:25.272Z</time>
      </trkpt>
      <trkpt lat="46.72295" lon="-1.96155">
        <ele>9.7</ele>
        <time>2025-01-22T11:07:26.272Z</time>
      </trkpt>
      <trkpt lat="46.72294" lon="-1.96155">
        <ele>9.7</ele>
        <time>2025-01-22T11:07:27.273Z</time>
      </trkpt>
      <trkpt lat="46.72293" lon="-1.96156">
        <ele>9.7</ele>
        <time>2025-01-22T11:07:28.272Z</time>
      </trkpt>
      <trkpt lat="46.72292" lon="-1.96156">
        <ele>9.7</ele>
        <time>2025-01-22T11:07:29.273Z</time>
      </trkpt>
      <trkpt lat="46.72291" lon="-1.96156">
        <ele>9.7</ele>
        <time>2025-01-22T11:07:30.272Z</time>
      </trkpt>
      <trkpt lat="46.72291" lon="-1.96156">
        <ele>9.7</ele>
        <time>2025-01-22T11:07:31.272Z</time>
      </trkpt>
      <trkpt lat="46.72291" lon="-1.96156">
        <ele>9.7</ele>
        <time>2025-01-22T11:07:32.272Z</time>
      </trkpt>
      <trkpt lat="46.72291" lon="-1.96157">
        <ele>9.7</ele>
        <time>2025-01-22T11:07:33.272Z</time>
      </trkpt>
      <trkpt lat="46.72291" lon="-1.96157">
        <ele>9.7</ele>
        <time>2025-01-22T11:07:34.273Z</time>
      </trkpt>
      <trkpt lat="46.72291" lon="-1.96158">
        <ele>9.7</ele>
        <time>2025-01-22T11:07:35.273Z</time>
      </trkpt>
      <trkpt lat="46.72292" lon="-1.96158">
        <ele>9.7</ele>
        <time>2025-01-22T11:07:36.273Z</time>
      </trkpt>
      <trkpt lat="46.72292" lon="-1.96159">
        <ele>9.6</ele>
        <time>2025-01-22T11:07:37.272Z</time>
      </trkpt>
      <trkpt lat="46.72292" lon="-1.9616">
        <ele>9.6</ele>
        <time>2025-01-22T11:07:38.272Z</time>
      </trkpt>
      <trkpt lat="46.72293" lon="-1.9616">
        <ele>9.6</ele>
        <time>2025-01-22T11:07:39.273Z</time>
      </trkpt>
      <trkpt lat="46.72293" lon="-1.9616">
        <ele>9.6</ele>
        <time>2025-01-22T11:07:40.273Z</time>
      </trkpt>
      <trkpt lat="46.72293" lon="-1.96159">
        <ele>9.6</ele>
        <time>2025-01-22T11:07:41.273Z</time>
      </trkpt>
      <trkpt lat="46.72294" lon="-1.96159">
        <ele>9.6</ele>
        <time>2025-01-22T11:07:42.273Z</time>
      </trkpt>
      <trkpt lat="46.72294" lon="-1.96159">
        <ele>9.6</ele>
        <time>2025-01-22T11:07:43.272Z</time>
      </trkpt>
      <trkpt lat="46.72293" lon="-1.96158">
        <ele>9.6</ele>
        <time>2025-01-22T11:07:44.272Z</time>
      </trkpt>
      <trkpt lat="46.72292" lon="-1.96158">
        <ele>9.6</ele>
        <time>2025-01-22T11:07:45.272Z</time>
      </trkpt>
      <trkpt lat="46.72292" lon="-1.96159">
        <ele>9.6</ele>
        <time>2025-01-22T11:07:46.272Z</time>
      </trkpt>
      <trkpt lat="46.72292" lon="-1.96158">
        <ele>9.6</ele>
        <time>2025-01-22T11:07:47.272Z</time>
      </trkpt>
      <trkpt lat="46.72291" lon="-1.96157">
        <ele>9.7</ele>
        <time>2025-01-22T11:07:48.273Z</time>
      </trkpt>
      <trkpt lat="46.7229" lon="-1.96156">
        <ele>9.7</ele>
        <time>2025-01-22T11:07:49.273Z</time>
      </trkpt>
      <trkpt lat="46.7229" lon="-1.96156">
        <ele>9.7</ele>
        <time>2025-01-22T11:07:50.273Z</time>
      </trkpt>
      <trkpt lat="46.72289" lon="-1.96155">
        <ele>9.8</ele>
        <time>2025-01-22T11:07:51.272Z</time>
      </trkpt>
      <trkpt lat="46.72287" lon="-1.96153">
        <ele>9.8</ele>
        <time>2025-01-22T11:07:52.273Z</time>
      </trkpt>
      <trkpt lat="46.72285" lon="-1.9615">
        <ele>9.9</ele>
        <time>2025-01-22T11:07:53.272Z</time>
      </trkpt>
      <trkpt lat="46.72285" lon="-1.96149">
        <ele>9.9</ele>
        <time>2025-01-22T11:07:54.272Z</time>
      </trkpt>
      <trkpt lat="46.72284" lon="-1.96147">
        <ele>9.9</ele>
        <time>2025-01-22T11:07:55.272Z</time>
      </trkpt>
      <trkpt lat="46.72284" lon="-1.96144">
        <ele>10</ele>
        <time>2025-01-22T11:07:56.273Z</time>
      </trkpt>
      <trkpt lat="46.72283" lon="-1.96142">
        <ele>10</ele>
        <time>2025-01-22T11:07:57.273Z</time>
      </trkpt>
      <trkpt lat="46.72281" lon="-1.96139">
        <ele>10</ele>
        <time>2025-01-22T11:07:58.273Z</time>
      </trkpt>
      <trkpt lat="46.72279" lon="-1.96136">
        <ele>10</ele>
        <time>2025-01-22T11:07:59.273Z</time>
      </trkpt>
      <trkpt lat="46.72277" lon="-1.96133">
        <ele>10</ele>
        <time>2025-01-22T11:08:00.273Z</time>
      </trkpt>
      <trkpt lat="46.72275" lon="-1.9613">
        <ele>10</ele>
        <time>2025-01-22T11:08:01.272Z</time>
      </trkpt>
      <trkpt lat="46.72274" lon="-1.96127">
        <ele>10</ele>
        <time>2025-01-22T11:08:02.272Z</time>
      </trkpt>
      <trkpt lat="46.72272" lon="-1.96124">
        <ele>10</ele>
        <time>2025-01-22T11:08:03.273Z</time>
      </trkpt>
      <trkpt lat="46.7227" lon="-1.96121">
        <ele>10</ele>
        <time>2025-01-22T11:08:04.273Z</time>
      </trkpt>
      <trkpt lat="46.72268" lon="-1.96118">
        <ele>10</ele>
        <time>2025-01-22T11:08:05.272Z</time>
      </trkpt>
      <trkpt lat="46.72266" lon="-1.96114">
        <ele>10</ele>
        <time>2025-01-22T11:08:06.272Z</time>
      </trkpt>
      <trkpt lat="46.72265" lon="-1.96112">
        <ele>10</ele>
        <time>2025-01-22T11:08:07.273Z</time>
      </trkpt>
      <trkpt lat="46.72263" lon="-1.96109">
        <ele>10</ele>
        <time>2025-01-22T11:08:08.272Z</time>
      </trkpt>
      <trkpt lat="46.72262" lon="-1.96105">
        <ele>10</ele>
        <time>2025-01-22T11:08:09.273Z</time>
      </trkpt>
      <trkpt lat="46.72261" lon="-1.96103">
        <ele>10</ele>
        <time>2025-01-22T11:08:10.273Z</time>
      </trkpt>
      <trkpt lat="46.7226" lon="-1.961">
        <ele>10</ele>
        <time>2025-01-22T11:08:11.273Z</time>
      </trkpt>
      <trkpt lat="46.72259" lon="-1.96097">
        <ele>10</ele>
        <time>2025-01-22T11:08:12.272Z</time>
      </trkpt>
      <trkpt lat="46.72259" lon="-1.96094">
        <ele>10</ele>
        <time>2025-01-22T11:08:13.273Z</time>
      </trkpt>
      <trkpt lat="46.72257" lon="-1.96091">
        <ele>10</ele>
        <time>2025-01-22T11:08:14.272Z</time>
      </trkpt>
      <trkpt lat="46.72256" lon="-1.96088">
        <ele>10</ele>
        <time>2025-01-22T11:08:15.273Z</time>
      </trkpt>
      <trkpt lat="46.72255" lon="-1.96085">
        <ele>10</ele>
        <time>2025-01-22T11:08:16.273Z</time>
      </trkpt>
      <trkpt lat="46.72253" lon="-1.96082">
        <ele>10.2</ele>
        <time>2025-01-22T11:08:17.272Z</time>
      </trkpt>
      <trkpt lat="46.72252" lon="-1.96079">
        <ele>10.6</ele>
        <time>2025-01-22T11:08:18.273Z</time>
      </trkpt>
      <trkpt lat="46.72251" lon="-1.96077">
        <ele>10.9</ele>
        <time>2025-01-22T11:08:19.273Z</time>
      </trkpt>
      <trkpt lat="46.7225" lon="-1.96075">
        <ele>11.3</ele>
        <time>2025-01-22T11:08:20.273Z</time>
      </trkpt>
      <trkpt lat="46.72249" lon="-1.96072">
        <ele>11.9</ele>
        <time>2025-01-22T11:08:21.272Z</time>
      </trkpt>
      <trkpt lat="46.72247" lon="-1.96071">
        <ele>12.4</ele>
        <time>2025-01-22T11:08:22.272Z</time>
      </trkpt>
      <trkpt lat="46.72246" lon="-1.96069">
        <ele>12.8</ele>
        <time>2025-01-22T11:08:23.272Z</time>
      </trkpt>
      <trkpt lat="46.72245" lon="-1.96068">
        <ele>13.2</ele>
        <time>2025-01-22T11:08:24.272Z</time>
      </trkpt>
      <trkpt lat="46.72245" lon="-1.96066">
        <ele>13.4</ele>
        <time>2025-01-22T11:08:25.273Z</time>
      </trkpt>
      <trkpt lat="46.72244" lon="-1.96064">
        <ele>13.8</ele>
        <time>2025-01-22T11:08:26.273Z</time>
      </trkpt>
      <trkpt lat="46.72242" lon="-1.96063">
        <ele>14.3</ele>
        <time>2025-01-22T11:08:27.272Z</time>
      </trkpt>
      <trkpt lat="46.7224" lon="-1.96061">
        <ele>14.8</ele>
        <time>2025-01-22T11:08:28.273Z</time>
      </trkpt>
      <trkpt lat="46.72238" lon="-1.96059">
        <ele>15.4</ele>
        <time>2025-01-22T11:08:29.272Z</time>
      </trkpt>
      <trkpt lat="46.72237" lon="-1.96059">
        <ele>15.5</ele>
        <time>2025-01-22T11:08:30.272Z</time>
      </trkpt>
      <trkpt lat="46.72236" lon="-1.96057">
        <ele>15.9</ele>
        <time>2025-01-22T11:08:31.272Z</time>
      </trkpt>
      <trkpt lat="46.72235" lon="-1.96055">
        <ele>16.2</ele>
        <time>2025-01-22T11:08:32.272Z</time>
      </trkpt>
      <trkpt lat="46.72233" lon="-1.96053">
        <ele>16.3</ele>
        <time>2025-01-22T11:08:33.273Z</time>
      </trkpt>
      <trkpt lat="46.72232" lon="-1.96053">
        <ele>16.4</ele>
        <time>2025-01-22T11:08:34.272Z</time>
      </trkpt>
      <trkpt lat="46.7223" lon="-1.96052">
        <ele>16.6</ele>
        <time>2025-01-22T11:08:35.273Z</time>
      </trkpt>
      <trkpt lat="46.72228" lon="-1.96052">
        <ele>16.8</ele>
        <time>2025-01-22T11:08:36.272Z</time>
      </trkpt>
      <trkpt lat="46.72226" lon="-1.96052">
        <ele>17</ele>
        <time>2025-01-22T11:08:37.273Z</time>
      </trkpt>
      <trkpt lat="46.72224" lon="-1.96052">
        <ele>17.2</ele>
        <time>2025-01-22T11:08:38.272Z</time>
      </trkpt>
      <trkpt lat="46.72222" lon="-1.96052">
        <ele>17.4</ele>
        <time>2025-01-22T11:08:39.273Z</time>
      </trkpt>
      <trkpt lat="46.7222" lon="-1.96052">
        <ele>17.3</ele>
        <time>2025-01-22T11:08:40.273Z</time>
      </trkpt>
      <trkpt lat="46.72218" lon="-1.96051">
        <ele>17.2</ele>
        <time>2025-01-22T11:08:41.273Z</time>
      </trkpt>
      <trkpt lat="46.72217" lon="-1.9605">
        <ele>17</ele>
        <time>2025-01-22T11:08:42.272Z</time>
      </trkpt>
      <trkpt lat="46.72216" lon="-1.9605">
        <ele>17</ele>
        <time>2025-01-22T11:08:43.272Z</time>
      </trkpt>
      <trkpt lat="46.72214" lon="-1.9605">
        <ele>17</ele>
        <time>2025-01-22T11:08:44.272Z</time>
      </trkpt>
      <trkpt lat="46.72213" lon="-1.9605">
        <ele>17</ele>
        <time>2025-01-22T11:08:45.272Z</time>
      </trkpt>
      <trkpt lat="46.72212" lon="-1.96049">
        <ele>16.9</ele>
        <time>2025-01-22T11:08:46.272Z</time>
      </trkpt>
      <trkpt lat="46.7221" lon="-1.96049">
        <ele>16.9</ele>
        <time>2025-01-22T11:08:47.272Z</time>
      </trkpt>
      <trkpt lat="46.72208" lon="-1.96048">
        <ele>16.7</ele>
        <time>2025-01-22T11:08:48.272Z</time>
      </trkpt>
      <trkpt lat="46.72205" lon="-1.96046">
        <ele>16.5</ele>
        <time>2025-01-22T11:08:49.272Z</time>
      </trkpt>
      <trkpt lat="46.72203" lon="-1.96045">
        <ele>16.4</ele>
        <time>2025-01-22T11:08:50.273Z</time>
      </trkpt>
      <trkpt lat="46.722" lon="-1.96044">
        <ele>16.3</ele>
        <time>2025-01-22T11:08:51.273Z</time>
      </trkpt>
      <trkpt lat="46.72198" lon="-1.96043">
        <ele>16.1</ele>
        <time>2025-01-22T11:08:52.272Z</time>
      </trkpt>
      <trkpt lat="46.72196" lon="-1.9604">
        <ele>15.8</ele>
        <time>2025-01-22T11:08:53.273Z</time>
      </trkpt>
      <trkpt lat="46.72194" lon="-1.96038">
        <ele>15.5</ele>
        <time>2025-01-22T11:08:54.273Z</time>
      </trkpt>
      <trkpt lat="46.72192" lon="-1.96036">
        <ele>15.3</ele>
        <time>2025-01-22T11:08:55.272Z</time>
      </trkpt>
      <trkpt lat="46.7219" lon="-1.96035">
        <ele>15.3</ele>
        <time>2025-01-22T11:08:56.273Z</time>
      </trkpt>
      <trkpt lat="46.72188" lon="-1.96035">
        <ele>15.4</ele>
        <time>2025-01-22T11:08:57.273Z</time>
      </trkpt>
      <trkpt lat="46.72185" lon="-1.96034">
        <ele>15.5</ele>
        <time>2025-01-22T11:08:58.273Z</time>
      </trkpt>
      <trkpt lat="46.72184" lon="-1.96034">
        <ele>15.5</ele>
        <time>2025-01-22T11:08:59.273Z</time>
      </trkpt>
      <trkpt lat="46.72182" lon="-1.96034">
        <ele>15.6</ele>
        <time>2025-01-22T11:09:00.273Z</time>
      </trkpt>
      <trkpt lat="46.72181" lon="-1.96034">
        <ele>15.7</ele>
        <time>2025-01-22T11:09:01.272Z</time>
      </trkpt>
      <trkpt lat="46.7218" lon="-1.96034">
        <ele>15.8</ele>
        <time>2025-01-22T11:09:02.272Z</time>
      </trkpt>
      <trkpt lat="46.72178" lon="-1.96034">
        <ele>15.9</ele>
        <time>2025-01-22T11:09:03.272Z</time>
      </trkpt>
      <trkpt lat="46.72177" lon="-1.96036">
        <ele>16</ele>
        <time>2025-01-22T11:09:04.272Z</time>
      </trkpt>
      <trkpt lat="46.72176" lon="-1.96038">
        <ele>16</ele>
        <time>2025-01-22T11:09:05.273Z</time>
      </trkpt>
      <trkpt lat="46.72175" lon="-1.9604">
        <ele>16</ele>
        <time>2025-01-22T11:09:06.273Z</time>
      </trkpt>
      <trkpt lat="46.72174" lon="-1.96042">
        <ele>16</ele>
        <time>2025-01-22T11:09:07.273Z</time>
      </trkpt>
      <trkpt lat="46.72174" lon="-1.96044">
        <ele>16</ele>
        <time>2025-01-22T11:09:08.273Z</time>
      </trkpt>
      <trkpt lat="46.72173" lon="-1.96046">
        <ele>15.9</ele>
        <time>2025-01-22T11:09:09.273Z</time>
      </trkpt>
      <trkpt lat="46.72173" lon="-1.96048">
        <ele>15.9</ele>
        <time>2025-01-22T11:09:10.273Z</time>
      </trkpt>
      <trkpt lat="46.72173" lon="-1.96051">
        <ele>15.8</ele>
        <time>2025-01-22T11:09:11.272Z</time>
      </trkpt>
      <trkpt lat="46.72172" lon="-1.96053">
        <ele>15.6</ele>
        <time>2025-01-22T11:09:12.272Z</time>
      </trkpt>
      <trkpt lat="46.72171" lon="-1.96056">
        <ele>15.4</ele>
        <time>2025-01-22T11:09:13.273Z</time>
      </trkpt>
      <trkpt lat="46.7217" lon="-1.9606">
        <ele>15.1</ele>
        <time>2025-01-22T11:09:14.272Z</time>
      </trkpt>
      <trkpt lat="46.7217" lon="-1.96063">
        <ele>14.9</ele>
        <time>2025-01-22T11:09:15.272Z</time>
      </trkpt>
      <trkpt lat="46.72168" lon="-1.96066">
        <ele>14.5</ele>
        <time>2025-01-22T11:09:16.273Z</time>
      </trkpt>
      <trkpt lat="46.72168" lon="-1.9607">
        <ele>14.1</ele>
        <time>2025-01-22T11:09:17.272Z</time>
      </trkpt>
      <trkpt lat="46.72166" lon="-1.96073">
        <ele>13.7</ele>
        <time>2025-01-22T11:09:18.273Z</time>
      </trkpt>
      <trkpt lat="46.72164" lon="-1.96076">
        <ele>13.6</ele>
        <time>2025-01-22T11:09:19.273Z</time>
      </trkpt>
      <trkpt lat="46.72163" lon="-1.96079">
        <ele>13.4</ele>
        <time>2025-01-22T11:09:20.272Z</time>
      </trkpt>
      <trkpt lat="46.72162" lon="-1.96082">
        <ele>13.3</ele>
        <time>2025-01-22T11:09:21.272Z</time>
      </trkpt>
      <trkpt lat="46.72161" lon="-1.96084">
        <ele>13.2</ele>
        <time>2025-01-22T11:09:22.273Z</time>
      </trkpt>
      <trkpt lat="46.7216" lon="-1.96087">
        <ele>13.2</ele>
        <time>2025-01-22T11:09:23.272Z</time>
      </trkpt>
      <trkpt lat="46.72159" lon="-1.9609">
        <ele>13.2</ele>
        <time>2025-01-22T11:09:24.272Z</time>
      </trkpt>
      <trkpt lat="46.72158" lon="-1.96092">
        <ele>13.1</ele>
        <time>2025-01-22T11:09:25.272Z</time>
      </trkpt>
      <trkpt lat="46.72157" lon="-1.96095">
        <ele>13.1</ele>
        <time>2025-01-22T11:09:26.272Z</time>
      </trkpt>
      <trkpt lat="46.72156" lon="-1.96098">
        <ele>13</ele>
        <time>2025-01-22T11:09:27.273Z</time>
      </trkpt>
      <trkpt lat="46.72157" lon="-1.96101">
        <ele>12.9</ele>
        <time>2025-01-22T11:09:28.273Z</time>
      </trkpt>
      <trkpt lat="46.72157" lon="-1.96104">
        <ele>12.8</ele>
        <time>2025-01-22T11:09:29.273Z</time>
      </trkpt>
      <trkpt lat="46.72157" lon="-1.96107">
        <ele>12.8</ele>
        <time>2025-01-22T11:09:30.273Z</time>
      </trkpt>
      <trkpt lat="46.72157" lon="-1.9611">
        <ele>12.7</ele>
        <time>2025-01-22T11:09:31.273Z</time>
      </trkpt>
      <trkpt lat="46.72157" lon="-1.96113">
        <ele>12.6</ele>
        <time>2025-01-22T11:09:32.273Z</time>
      </trkpt>
      <trkpt lat="46.72156" lon="-1.96116">
        <ele>12.4</ele>
        <time>2025-01-22T11:09:33.272Z</time>
      </trkpt>
      <trkpt lat="46.72154" lon="-1.96118">
        <ele>12.3</ele>
        <time>2025-01-22T11:09:34.273Z</time>
      </trkpt>
      <trkpt lat="46.72153" lon="-1.96118">
        <ele>12.2</ele>
        <time>2025-01-22T11:09:35.273Z</time>
      </trkpt>
      <trkpt lat="46.72151" lon="-1.96118">
        <ele>12.2</ele>
        <time>2025-01-22T11:09:36.272Z</time>
      </trkpt>
      <trkpt lat="46.72149" lon="-1.96119">
        <ele>12.1</ele>
        <time>2025-01-22T11:09:37.272Z</time>
      </trkpt>
      <trkpt lat="46.72148" lon="-1.9612">
        <ele>12</ele>
        <time>2025-01-22T11:09:38.272Z</time>
      </trkpt>
      <trkpt lat="46.72147" lon="-1.9612">
        <ele>12</ele>
        <time>2025-01-22T11:09:39.273Z</time>
      </trkpt>
      <trkpt lat="46.72145" lon="-1.9612">
        <ele>11.9</ele>
        <time>2025-01-22T11:09:40.273Z</time>
      </trkpt>
      <trkpt lat="46.72144" lon="-1.96118">
        <ele>11.9</ele>
        <time>2025-01-22T11:09:41.273Z</time>
      </trkpt>
      <trkpt lat="46.72143" lon="-1.96118">
        <ele>11.9</ele>
        <time>2025-01-22T11:09:42.273Z</time>
      </trkpt>
      <trkpt lat="46.72141" lon="-1.96118">
        <ele>11.8</ele>
        <time>2025-01-22T11:09:43.272Z</time>
      </trkpt>
      <trkpt lat="46.72138" lon="-1.96117">
        <ele>11.8</ele>
        <time>2025-01-22T11:09:44.273Z</time>
      </trkpt>
      <trkpt lat="46.72137" lon="-1.96114">
        <ele>11.9</ele>
        <time>2025-01-22T11:09:45.273Z</time>
      </trkpt>
      <trkpt lat="46.72136" lon="-1.96111">
        <ele>12</ele>
        <time>2025-01-22T11:09:46.272Z</time>
      </trkpt>
      <trkpt lat="46.72135" lon="-1.9611">
        <ele>12.1</ele>
        <time>2025-01-22T11:09:47.273Z</time>
      </trkpt>
      <trkpt lat="46.72134" lon="-1.96108">
        <ele>12.2</ele>
        <time>2025-01-22T11:09:48.272Z</time>
      </trkpt>
      <trkpt lat="46.72133" lon="-1.96107">
        <ele>12.3</ele>
        <time>2025-01-22T11:09:49.272Z</time>
      </trkpt>
      <trkpt lat="46.72131" lon="-1.96106">
        <ele>12.4</ele>
        <time>2025-01-22T11:09:50.272Z</time>
      </trkpt>
      <trkpt lat="46.72128" lon="-1.96105">
        <ele>12.6</ele>
        <time>2025-01-22T11:09:51.273Z</time>
      </trkpt>
      <trkpt lat="46.72126" lon="-1.96104">
        <ele>12.7</ele>
        <time>2025-01-22T11:09:52.273Z</time>
      </trkpt>
      <trkpt lat="46.72124" lon="-1.96103">
        <ele>12.9</ele>
        <time>2025-01-22T11:09:53.273Z</time>
      </trkpt>
      <trkpt lat="46.72122" lon="-1.96101">
        <ele>13.1</ele>
        <time>2025-01-22T11:09:54.273Z</time>
      </trkpt>
      <trkpt lat="46.72121" lon="-1.961">
        <ele>13.4</ele>
        <time>2025-01-22T11:09:55.272Z</time>
      </trkpt>
      <trkpt lat="46.72119" lon="-1.96098">
        <ele>13.6</ele>
        <time>2025-01-22T11:09:56.273Z</time>
      </trkpt>
      <trkpt lat="46.72118" lon="-1.96097">
        <ele>13.8</ele>
        <time>2025-01-22T11:09:57.272Z</time>
      </trkpt>
      <trkpt lat="46.72116" lon="-1.96095">
        <ele>14.1</ele>
        <time>2025-01-22T11:09:58.273Z</time>
      </trkpt>
      <trkpt lat="46.72114" lon="-1.96095">
        <ele>14.2</ele>
        <time>2025-01-22T11:09:59.273Z</time>
      </trkpt>
      <trkpt lat="46.72112" lon="-1.96095">
        <ele>14.4</ele>
        <time>2025-01-22T11:10:00.273Z</time>
      </trkpt>
      <trkpt lat="46.72108" lon="-1.96096">
        <ele>14</ele>
        <time>2025-01-22T11:10:01.272Z</time>
      </trkpt>
      <trkpt lat="46.72106" lon="-1.96096">
        <ele>13.8</ele>
        <time>2025-01-22T11:10:02.272Z</time>
      </trkpt>
      <trkpt lat="46.72104" lon="-1.96097">
        <ele>13.5</ele>
        <time>2025-01-22T11:10:03.273Z</time>
      </trkpt>
      <trkpt lat="46.72101" lon="-1.96098">
        <ele>13.2</ele>
        <time>2025-01-22T11:10:04.273Z</time>
      </trkpt>
      <trkpt lat="46.72098" lon="-1.96099">
        <ele>12.9</ele>
        <time>2025-01-22T11:10:05.272Z</time>
      </trkpt>
      <trkpt lat="46.72095" lon="-1.961">
        <ele>12.6</ele>
        <time>2025-01-22T11:10:06.273Z</time>
      </trkpt>
      <trkpt lat="46.72092" lon="-1.96101">
        <ele>12.3</ele>
        <time>2025-01-22T11:10:07.272Z</time>
      </trkpt>
      <trkpt lat="46.7209" lon="-1.96102">
        <ele>12</ele>
        <time>2025-01-22T11:10:08.273Z</time>
      </trkpt>
      <trkpt lat="46.72088" lon="-1.96104">
        <ele>11.7</ele>
        <time>2025-01-22T11:10:09.273Z</time>
      </trkpt>
      <trkpt lat="46.72086" lon="-1.96106">
        <ele>11.5</ele>
        <time>2025-01-22T11:10:10.272Z</time>
      </trkpt>
      <trkpt lat="46.72084" lon="-1.96108">
        <ele>11.3</ele>
        <time>2025-01-22T11:10:11.272Z</time>
      </trkpt>
      <trkpt lat="46.72082" lon="-1.96109">
        <ele>11.1</ele>
        <time>2025-01-22T11:10:12.272Z</time>
      </trkpt>
      <trkpt lat="46.7208" lon="-1.96111">
        <ele>11</ele>
        <time>2025-01-22T11:10:13.272Z</time>
      </trkpt>
      <trkpt lat="46.72078" lon="-1.96113">
        <ele>11</ele>
        <time>2025-01-22T11:10:14.272Z</time>
      </trkpt>
      <trkpt lat="46.72075" lon="-1.96116">
        <ele>11</ele>
        <time>2025-01-22T11:10:15.272Z</time>
      </trkpt>
      <trkpt lat="46.72074" lon="-1.96118">
        <ele>11</ele>
        <time>2025-01-22T11:10:16.272Z</time>
      </trkpt>
      <trkpt lat="46.72073" lon="-1.96121">
        <ele>11</ele>
        <time>2025-01-22T11:10:17.273Z</time>
      </trkpt>
      <trkpt lat="46.72073" lon="-1.96124">
        <ele>11</ele>
        <time>2025-01-22T11:10:18.273Z</time>
      </trkpt>
      <trkpt lat="46.72072" lon="-1.96126">
        <ele>11</ele>
        <time>2025-01-22T11:10:19.273Z</time>
      </trkpt>
      <trkpt lat="46.72071" lon="-1.96129">
        <ele>11</ele>
        <time>2025-01-22T11:10:20.273Z</time>
      </trkpt>
      <trkpt lat="46.7207" lon="-1.96132">
        <ele>11</ele>
        <time>2025-01-22T11:10:21.273Z</time>
      </trkpt>
      <trkpt lat="46.72068" lon="-1.96135">
        <ele>11</ele>
        <time>2025-01-22T11:10:22.272Z</time>
      </trkpt>
      <trkpt lat="46.72067" lon="-1.96139">
        <ele>11</ele>
        <time>2025-01-22T11:10:23.272Z</time>
      </trkpt>
      <trkpt lat="46.72067" lon="-1.96142">
        <ele>11</ele>
        <time>2025-01-22T11:10:24.272Z</time>
      </trkpt>
      <trkpt lat="46.72066" lon="-1.96146">
        <ele>11</ele>
        <time>2025-01-22T11:10:25.272Z</time>
      </trkpt>
      <trkpt lat="46.72066" lon="-1.9615">
        <ele>11</ele>
        <time>2025-01-22T11:10:26.273Z</time>
      </trkpt>
      <trkpt lat="46.72064" lon="-1.96153">
        <ele>11</ele>
        <time>2025-01-22T11:10:27.272Z</time>
      </trkpt>
      <trkpt lat="46.72063" lon="-1.96156">
        <ele>11</ele>
        <time>2025-01-22T11:10:28.272Z</time>
      </trkpt>
      <trkpt lat="46.72062" lon="-1.96159">
        <ele>11</ele>
        <time>2025-01-22T11:10:29.272Z</time>
      </trkpt>
      <trkpt lat="46.72061" lon="-1.96162">
        <ele>11</ele>
        <time>2025-01-22T11:10:30.272Z</time>
      </trkpt>
      <trkpt lat="46.7206" lon="-1.96164">
        <ele>11</ele>
        <time>2025-01-22T11:10:31.272Z</time>
      </trkpt>
      <trkpt lat="46.7206" lon="-1.96167">
        <ele>11</ele>
        <time>2025-01-22T11:10:32.273Z</time>
      </trkpt>
      <trkpt lat="46.72061" lon="-1.9617">
        <ele>11</ele>
        <time>2025-01-22T11:10:33.273Z</time>
      </trkpt>
      <trkpt lat="46.72062" lon="-1.96173">
        <ele>11</ele>
        <time>2025-01-22T11:10:34.273Z</time>
      </trkpt>
      <trkpt lat="46.72063" lon="-1.96177">
        <ele>11</ele>
        <time>2025-01-22T11:10:35.273Z</time>
      </trkpt>
      <trkpt lat="46.72064" lon="-1.96179">
        <ele>11</ele>
        <time>2025-01-22T11:10:36.273Z</time>
      </trkpt>
      <trkpt lat="46.72065" lon="-1.96183">
        <ele>11</ele>
        <time>2025-01-22T11:10:37.272Z</time>
      </trkpt>
      <trkpt lat="46.72067" lon="-1.96186">
        <ele>11</ele>
        <time>2025-01-22T11:10:38.272Z</time>
      </trkpt>
      <trkpt lat="46.72068" lon="-1.96188">
        <ele>11</ele>
        <time>2025-01-22T11:10:39.272Z</time>
      </trkpt>
      <trkpt lat="46.7207" lon="-1.96192">
        <ele>11</ele>
        <time>2025-01-22T11:10:40.272Z</time>
      </trkpt>
      <trkpt lat="46.72072" lon="-1.96194">
        <ele>11</ele>
        <time>2025-01-22T11:10:41.272Z</time>
      </trkpt>
      <trkpt lat="46.72073" lon="-1.96197">
        <ele>11</ele>
        <time>2025-01-22T11:10:42.273Z</time>
      </trkpt>
      <trkpt lat="46.72075" lon="-1.96201">
        <ele>11</ele>
        <time>2025-01-22T11:10:43.273Z</time>
      </trkpt>
      <trkpt lat="46.72078" lon="-1.96205">
        <ele>11</ele>
        <time>2025-01-22T11:10:44.273Z</time>
      </trkpt>
      <trkpt lat="46.7208" lon="-1.96209">
        <ele>11</ele>
        <time>2025-01-22T11:10:45.273Z</time>
      </trkpt>
      <trkpt lat="46.72082" lon="-1.96212">
        <ele>11</ele>
        <time>2025-01-22T11:10:46.273Z</time>
      </trkpt>
      <trkpt lat="46.72084" lon="-1.96215">
        <ele>11</ele>
        <time>2025-01-22T11:10:47.272Z</time>
      </trkpt>
      <trkpt lat="46.72086" lon="-1.96217">
        <ele>11</ele>
        <time>2025-01-22T11:10:48.272Z</time>
      </trkpt>
      <trkpt lat="46.72088" lon="-1.9622">
        <ele>11</ele>
        <time>2025-01-22T11:10:49.272Z</time>
      </trkpt>
      <trkpt lat="46.7209" lon="-1.96222">
        <ele>11</ele>
        <time>2025-01-22T11:10:50.273Z</time>
      </trkpt>
      <trkpt lat="46.72092" lon="-1.96224">
        <ele>11</ele>
        <time>2025-01-22T11:10:51.272Z</time>
      </trkpt>
      <trkpt lat="46.72094" lon="-1.96226">
        <ele>11</ele>
        <time>2025-01-22T11:10:52.272Z</time>
      </trkpt>
      <trkpt lat="46.72096" lon="-1.96229">
        <ele>11</ele>
        <time>2025-01-22T11:10:53.272Z</time>
      </trkpt>
      <trkpt lat="46.72098" lon="-1.96231">
        <ele>11</ele>
        <time>2025-01-22T11:10:54.273Z</time>
      </trkpt>
      <trkpt lat="46.721" lon="-1.96233">
        <ele>11</ele>
        <time>2025-01-22T11:10:55.273Z</time>
      </trkpt>
      <trkpt lat="46.72102" lon="-1.96234">
        <ele>11</ele>
        <time>2025-01-22T11:10:56.273Z</time>
      </trkpt>
      <trkpt lat="46.72104" lon="-1.96235">
        <ele>11</ele>
        <time>2025-01-22T11:10:57.272Z</time>
      </trkpt>
      <trkpt lat="46.72107" lon="-1.96238">
        <ele>11</ele>
        <time>2025-01-22T11:10:58.272Z</time>
      </trkpt>
      <trkpt lat="46.7211" lon="-1.9624">
        <ele>11</ele>
        <time>2025-01-22T11:10:59.273Z</time>
      </trkpt>
      <trkpt lat="46.72112" lon="-1.96243">
        <ele>11</ele>
        <time>2025-01-22T11:11:00.273Z</time>
      </trkpt>
      <trkpt lat="46.72115" lon="-1.96244">
        <ele>11</ele>
        <time>2025-01-22T11:11:01.272Z</time>
      </trkpt>
      <trkpt lat="46.72118" lon="-1.96246">
        <ele>11</ele>
        <time>2025-01-22T11:11:02.273Z</time>
      </trkpt>
      <trkpt lat="46.7212" lon="-1.96248">
        <ele>11</ele>
        <time>2025-01-22T11:11:03.273Z</time>
      </trkpt>
      <trkpt lat="46.72122" lon="-1.9625">
        <ele>11</ele>
        <time>2025-01-22T11:11:04.273Z</time>
      </trkpt>
      <trkpt lat="46.72124" lon="-1.96253">
        <ele>11</ele>
        <time>2025-01-22T11:11:05.272Z</time>
      </trkpt>
      <trkpt lat="46.72127" lon="-1.96254">
        <ele>11</ele>
        <time>2025-01-22T11:11:06.272Z</time>
      </trkpt>
      <trkpt lat="46.72128" lon="-1.96253">
        <ele>11</ele>
        <time>2025-01-22T11:11:07.272Z</time>
      </trkpt>
    </trkseg>
  </trk>
</gpx>